﻿_id	Time (EPOCH)	Latitude	Longitude	AMSL (m)	AGL (m)	Heading (deg)	WindU (m/s)	WindV (m/s)	Temperature (C)	RH (%)	CH4 (ppm)	CO2 (ppm)
1	1509381139	55.0619	-116.8933	2131.9	1409.4	90.5	10.4	-9.2	1.42	7.06	1.9183	401.2213
2	1509381140	55.0619	-116.8925	2131.8	1407.2	90.5	10.5	-9.3	1.42	7.06	1.9183	401.2213
3	1509381141	55.0618	-116.8912	2131.6	1403.9	90.6	10.4	-9.3	1.42	7.06	1.9183	401.2213
4	1509381142	55.0617	-116.8897	2131.5	1399.5	90.7	10.5	-9.2	1.42	7.06	1.9183	401.2213
5	1509381143	55.0616	-116.8884	2131.3	1397.0	90.7	10.5	-9.3	1.42	7.06	1.9183	401.2213
6	1509381144	55.0615	-116.8870	2131.2	1393.2	91.0	11.0	-9.1	1.42	7.05	1.9183	401.2213
7	1509381145	55.0614	-116.8857	2131.0	1389.3	91.0	10.6	-9.1	1.42	7.04	1.9183	401.2213
8	1509381146	55.0613	-116.8842	2130.7	1386.7	91.1	10.5	-9.1	1.42	7.03	1.9183	401.2213
9	1509381147	55.0612	-116.8828	2130.3	1385.3	91.0	10.5	-9.2	1.42	7.02	1.9183	401.2213
10	1509381148	55.0611	-116.8814	2129.8	1383.8	91.2	10.7	-9.2	1.40	7.02	1.9183	401.2213
11	1509381149	55.0610	-116.8800	2129.4	1380.5	91.2	10.7	-9.3	1.40	7.02	1.9183	401.2213
12	1509381150	55.0609	-116.8786	2128.9	1376.1	91.2	10.7	-9.3	1.40	7.01	1.9183	401.2213
13	1509381151	55.0608	-116.8772	2128.5	1372.5	91.4	10.7	-9.3	1.40	7.00	1.9183	401.2213
14	1509381152	55.0607	-116.8758	2128.3	1369.8	91.4	10.7	-9.3	1.40	7.00	1.9183	401.2213
15	1509381153	55.0606	-116.8744	2128.2	1367.2	91.7	10.7	-9.2	1.40	7.00	1.9183	401.2213
16	1509381154	55.0605	-116.8731	2128.1	1365.1	91.8	10.7	-9.1	1.40	7.00	1.9183	401.2213
17	1509381155	55.0604	-116.8717	2128.2	1361.5	91.8	10.7	-9.2	1.40	7.00	1.9183	401.2213
18	1509381156	55.0603	-116.8703	2128.3	1358.3	91.9	10.7	-9.2	1.40	6.98	1.9183	401.2213
19	1509381157	55.0602	-116.8689	2128.3	1353.5	91.9	10.7	-9.2	1.40	6.98	1.9183	401.2213
20	1509381158	55.0601	-116.8675	2128.4	1349.3	92.1	10.7	-9.1	1.40	6.99	1.9183	401.2213
21	1509381159	55.0600	-116.8661	2128.3	1345.2	92.3	10.6	-9.0	1.40	7.00	1.9183	401.2213
22	1509381160	55.0599	-116.8647	2128.3	1343.1	92.3	10.7	-9.1	1.40	7.01	1.9183	401.2213
23	1509381161	55.0598	-116.8634	2128.3	1340.0	92.4	10.4	-9.0	1.40	7.01	1.9183	401.2213
24	1509381162	55.0597	-116.8620	2128.3	1336.3	92.4	10.1	-9.1	1.40	6.99	1.9183	401.2213
25	1509381163	55.0595	-116.8606	2128.5	1332.8	92.4	10.1	-9.1	1.40	6.98	1.9183	401.2213
26	1509381164	55.0594	-116.8592	2128.7	1328.1	92.5	10.0	-9.1	1.40	6.98	1.9183	401.2213
27	1509381165	55.0593	-116.8578	2129.2	1321.8	92.7	9.9	-8.9	1.40	6.98	1.9183	401.2213
28	1509381166	55.0592	-116.8564	2129.8	1317.2	92.6	9.8	-9.0	1.40	7.00	1.9183	401.2213
29	1509381167	55.0591	-116.8550	2130.5	1312.3	92.5	10.0	-9.1	1.40	7.00	1.9183	401.2213
30	1509381168	55.0590	-116.8536	2131.2	1308.1	92.4	10.1	-9.1	1.40	7.00	1.9183	401.2213
31	1509381169	55.0589	-116.8523	2131.8	1305.8	92.2	10.1	-9.2	1.40	7.00	1.9183	401.2213
32	1509381170	55.0588	-116.8509	2132.2	1303.2	92.3	10.0	-9.1	1.40	7.02	1.9183	401.2213
33	1509381171	55.0586	-116.8495	2132.4	1300.4	92.3	10.0	-9.2	1.40	7.02	1.9183	401.2213
34	1509381172	55.0585	-116.8481	2132.4	1298.0	92.3	10.0	-9.2	1.40	7.02	1.9183	401.2213
35	1509381173	55.0584	-116.8468	2132.3	1294.1	92.1	9.9	-9.3	1.40	7.02	1.9183	401.2213
36	1509381174	55.0583	-116.8455	2132.3	1291.9	92.2	9.9	-9.2	1.40	7.03	1.9183	401.2213
37	1509381175	55.0583	-116.8453	2132.3	1291.9	92.2	9.9	-9.2	1.40	7.04	1.9183	401.2213
38	1509381176	55.0583	-116.8451	2132.3	1292.0	92.1	9.9	-9.2	1.40	7.05	1.9183	401.2213
39	1509381177	55.0583	-116.8449	2132.3	1291.3	92.1	9.9	-9.2	1.40	7.06	1.9183	401.2213
40	1509381178	55.0582	-116.8440	2132.3	1290.0	92.0	9.9	-9.2	1.40	7.07	1.9183	401.2213
41	1509381179	55.0581	-116.8425	2132.4	1285.5	91.8	9.8	-9.3	1.40	7.07	1.9183	401.2213
42	1509381180	55.0580	-116.8409	2132.6	1281.2	91.7	9.7	-9.4	1.40	7.06	1.9183	401.2213
43	1509381181	55.0579	-116.8394	2132.7	1275.4	91.7	9.8	-9.3	1.40	7.07	1.9183	401.2213
44	1509381182	55.0577	-116.8379	2132.8	1273.2	91.5	10.0	-9.4	1.40	7.08	1.9183	401.2213
45	1509381183	55.0576	-116.8364	2133.0	1271.4	91.4	9.5	-9.4	1.40	7.07	1.9183	401.2213
46	1509381184	55.0575	-116.8349	2133.0	1269.4	91.1	9.5	-9.5	1.40	7.06	1.9183	401.2213
47	1509381185	55.0574	-116.8334	2133.0	1268.6	91.0	9.6	-9.5	1.40	7.06	1.9183	401.2213
48	1509381186	55.0573	-116.8319	2132.9	1267.6	90.9	9.8	-9.5	1.40	7.06	1.9183	401.2213
49	1509381187	55.0572	-116.8303	2132.8	1265.8	90.8	9.5	-9.5	1.40	7.06	1.9183	401.2213
50	1509381188	55.0571	-116.8287	2132.8	1263.8	90.5	9.9	-9.5	1.40	7.06	1.9183	401.2213
51	1509381189	55.0570	-116.8272	2133.0	1267.0	90.5	9.8	-9.4	1.40	7.06	1.9183	401.2213
52	1509381190	55.0569	-116.8257	2133.3	1270.5	90.3	9.8	-9.4	1.40	7.06	1.9183	401.2213
53	1509381191	55.0568	-116.8242	2133.7	1272.9	90.1	9.7	-9.4	1.40	7.06	1.9183	401.2213
54	1509381192	55.0567	-116.8227	2134.3	1275.5	90.0	9.6	-9.3	1.40	7.06	1.9183	401.2213
55	1509381193	55.0566	-116.8211	2134.8	1279.8	90.0	9.5	-9.2	1.40	7.08	1.9183	401.2213
56	1509381194	55.0565	-116.8196	2135.4	1286.1	89.9	9.4	-9.2	1.40	7.09	1.9183	401.2213
57	1509381195	55.0564	-116.8181	2136.0	1291.6	89.7	9.4	-9.1	1.40	7.09	1.9183	401.2213
58	1509381196	55.0563	-116.8166	2136.5	1299.1	89.5	9.3	-9.2	1.40	7.08	1.9183	401.2213
59	1509381197	55.0562	-116.8151	2136.7	1306.1	89.4	9.3	-9.3	1.40	7.10	1.9183	401.2213
60	1509381198	55.0562	-116.8136	2136.8	1313.2	89.3	9.3	-9.3	1.40	7.10	1.9183	401.2213
61	1509381199	55.0561	-116.8121	2136.8	1318.9	89.2	9.2	-9.2	1.40	7.11	1.9183	401.2213
62	1509381200	55.0560	-116.8106	2136.8	1323.0	89.0	9.2	-9.3	1.40	7.11	1.9183	401.2213
63	1509381201	55.0559	-116.8091	2136.7	1328.7	89.0	8.7	-9.2	1.40	7.11	1.9183	401.2213
64	1509381202	55.0558	-116.8075	2136.4	1330.4	88.9	9.3	-9.3	1.40	7.14	1.9183	401.2213
65	1509381203	55.0558	-116.8060	2136.2	1332.4	88.8	9.3	-9.2	1.40	7.15	1.9183	401.2213
66	1509381204	55.0557	-116.8045	2136.1	1334.1	88.7	8.8	-9.3	1.41	7.14	1.9183	401.2213
67	1509381205	55.0556	-116.8031	2135.9	1334.0	88.7	8.8	-9.3	1.42	7.13	1.9183	401.2213
68	1509381206	55.0555	-116.8017	2135.9	1331.8	88.6	8.9	-9.4	1.42	7.14	1.9183	401.2213
69	1509381207	55.0555	-116.8003	2135.9	1331.9	88.7	8.9	-9.4	1.42	7.15	1.9183	401.2213
70	1509381208	55.0554	-116.7990	2135.8	1331.8	88.7	8.9	-9.4	1.41	7.16	1.9183	401.2213
71	1509381209	55.0553	-116.7977	2135.7	1331.4	89.0	9.0	-9.1	1.40	7.17	1.9183	401.2213
72	1509381210	55.0553	-116.7964	2135.5	1329.5	88.9	9.0	-9.4	1.40	7.17	1.9183	401.2213
73	1509381211	55.0552	-116.7949	2135.4	1328.3	88.8	9.1	-9.6	1.40	7.17	1.9183	401.2213
74	1509381212	55.0551	-116.7936	2135.4	1329.3	89.0	9.1	-9.5	1.40	7.17	1.9183	401.2213
75	1509381213	55.0551	-116.7922	2135.3	1329.2	89.2	8.6	-9.5	1.40	7.18	1.9183	401.2213
76	1509381214	55.0550	-116.7909	2135.3	1328.4	89.4	8.6	-9.5	1.42	7.19	1.9183	401.2213
77	1509381215	55.0549	-116.7895	2135.4	1327.8	89.3	8.6	-9.7	1.42	7.19	1.9183	401.2213
78	1509381216	55.0548	-116.7881	2135.5	1326.1	89.3	8.6	-9.8	1.43	7.20	1.9183	401.2213
79	1509381217	55.0547	-116.7868	2135.5	1326.1	89.8	8.6	-9.5	1.40	7.21	1.9183	401.2213
80	1509381218	55.0547	-116.7854	2135.6	1326.6	89.9	8.7	-9.5	1.40	7.22	1.9183	401.2213
81	1509381219	55.0546	-116.7840	2135.8	1328.5	90.0	8.7	-9.5	1.40	7.23	1.9183	401.2213
82	1509381220	55.0545	-116.7826	2135.9	1329.9	90.2	8.8	-9.5	1.40	7.23	1.9183	401.2213
83	1509381221	55.0544	-116.7813	2136.0	1330.6	90.3	8.8	-9.5	1.40	7.23	1.9183	401.2213
84	1509381222	55.0543	-116.7800	2136.0	1334.4	90.5	8.8	-9.4	1.40	7.23	1.9183	401.2213
85	1509381223	55.0542	-116.7785	2136.0	1337.9	90.7	8.9	-9.3	1.40	7.21	1.9183	401.2213
86	1509381224	55.0541	-116.7772	2135.9	1341.3	90.8	9.4	-9.3	1.40	7.21	1.9183	401.2213
87	1509381225	55.0540	-116.7758	2135.8	1343.4	90.7	9.6	-9.5	1.40	7.21	1.9183	401.2213
88	1509381226	55.0539	-116.7745	2135.5	1345.6	90.9	9.6	-9.4	1.40	7.19	1.9183	401.2213
89	1509381227	55.0538	-116.7731	2135.1	1346.1	90.9	9.4	-9.5	1.40	7.19	1.9183	401.2213
90	1509381228	55.0537	-116.7717	2134.6	1346.6	91.3	9.3	-9.3	1.40	7.17	1.9183	401.2213
91	1509381229	55.0536	-116.7703	2134.0	1347.0	91.5	9.4	-9.1	1.40	7.17	1.9183	401.2213
92	1509381230	55.0535	-116.7690	2133.4	1346.4	91.7	9.6	-9.1	1.40	7.18	1.9183	401.2213
93	1509381231	55.0534	-116.7675	2132.8	1347.5	91.4	9.6	-9.5	1.40	7.14	1.9183	401.2213
94	1509381232	55.0533	-116.7662	2132.1	1349.8	91.6	9.8	-9.4	1.40	7.14	1.9183	401.2213
95	1509381233	55.0532	-116.7648	2131.4	1348.5	91.8	9.6	-9.4	1.40	7.11	1.9183	401.2213
96	1509381234	55.0531	-116.7635	2130.9	1346.1	92.0	9.4	-9.3	1.40	7.09	1.9183	401.2213
97	1509381235	55.0531	-116.7633	2130.8	1346.0	92.1	9.4	-9.3	1.40	7.08	1.9183	401.2213
98	1509381236	55.0531	-116.7631	2130.7	1346.1	92.1	9.4	-9.3	1.40	7.06	1.9183	401.2213
99	1509381237	55.0531	-116.7629	2130.6	1346.0	92.1	9.4	-9.3	1.40	7.05	1.9183	401.2213
100	1509381238	55.0530	-116.7620	2130.1	1344.1	92.3	9.5	-9.2	1.40	7.03	1.9183	401.2213
101	1509381239	55.0529	-116.7604	2129.5	1342.5	92.3	9.6	-9.3	1.40	7.02	1.9183	401.2213
102	1509381240	55.0528	-116.7588	2129.0	1341.6	92.6	9.7	-9.2	1.40	7.00	1.9183	401.2213
103	1509381241	55.0526	-116.7573	2128.8	1342.5	92.7	9.8	-9.2	1.40	6.99	1.9183	401.2213
104	1509381242	55.0525	-116.7558	2128.7	1342.8	92.7	9.7	-9.3	1.40	6.97	1.9183	401.2213
105	1509381243	55.0524	-116.7542	2128.8	1343.7	92.9	9.8	-9.1	1.40	6.95	1.9183	401.2213
106	1509381244	55.0522	-116.7527	2129.0	1341.7	93.0	9.7	-9.1	1.40	6.94	1.9183	401.2213
107	1509381245	55.0521	-116.7512	2129.5	1339.8	93.3	9.7	-8.8	1.40	6.93	1.9183	401.2213
108	1509381246	55.0520	-116.7496	2129.9	1340.0	93.2	9.6	-9.0	1.40	6.92	1.9183	401.2213
109	1509381247	55.0518	-116.7481	2130.4	1341.1	92.9	9.6	-9.3	1.40	6.91	1.9183	401.2213
110	1509381248	55.0517	-116.7466	2131.0	1342.5	92.9	9.9	-9.2	1.40	6.90	1.9183	401.2213
111	1509381249	55.0516	-116.7450	2131.4	1342.7	93.0	9.9	-9.1	1.40	6.88	1.9183	401.2213
112	1509381250	55.0514	-116.7435	2132.0	1342.1	93.1	9.8	-9.1	1.40	6.86	1.9183	401.2213
113	1509381251	55.0513	-116.7420	2132.4	1343.4	93.5	9.8	-8.6	1.40	6.84	1.9183	401.2213
114	1509381252	55.0512	-116.7405	2132.9	1347.9	92.8	9.8	-9.5	1.40	6.81	1.9183	401.2213
115	1509381253	55.0511	-116.7390	2133.3	1344.6	92.8	9.7	-9.2	1.40	6.80	1.9183	401.2213
116	1509381254	55.0509	-116.7375	2133.3	1340.4	92.6	9.7	-9.4	1.40	6.79	1.9183	401.2213
117	1509381255	55.0508	-116.7360	2133.3	1337.3	92.5	9.7	-9.2	1.40	6.77	1.9183	401.2213
118	1509381256	55.0507	-116.7344	2133.3	1335.3	92.6	9.8	-9.1	1.40	6.76	1.9183	401.2213
119	1509381257	55.0506	-116.7329	2133.4	1332.4	92.4	9.7	-9.3	1.40	6.75	1.9183	401.2213
120	1509381258	55.0504	-116.7314	2133.8	1329.8	92.3	9.7	-9.3	1.40	6.75	1.9183	401.2213
121	1509381259	55.0503	-116.7298	2134.1	1324.4	91.9	9.6	-9.5	1.40	6.76	1.9183	401.2213
122	1509381260	55.0502	-116.7283	2134.3	1315.3	91.8	9.1	-9.4	1.40	6.77	1.9183	401.2213
123	1509381261	55.0501	-116.7268	2134.5	1308.7	91.8	9.1	-9.3	1.40	6.76	1.9183	401.2213
124	1509381262	55.0500	-116.7253	2134.7	1305.3	91.6	9.1	-9.3	1.41	6.75	1.9183	401.2213
125	1509381263	55.0498	-116.7238	2135.1	1306.5	91.1	9.0	-9.6	1.42	6.73	1.9183	401.2213
126	1509381264	55.0497	-116.7223	2135.5	1306.9	91.3	9.0	-9.3	1.42	6.72	1.9183	401.2213
127	1509381265	55.0496	-116.7207	2136.1	1305.1	90.9	9.0	-9.5	1.41	6.72	1.9183	401.2213
128	1509381266	55.0495	-116.7192	2136.5	1305.5	90.9	8.9	-9.5	1.40	6.72	1.9183	401.2213
129	1509381267	55.0494	-116.7178	2137.0	1303.7	90.7	8.9	-9.5	1.40	6.73	1.9183	401.2213
130	1509381268	55.0493	-116.7165	2137.4	1303.2	90.8	8.9	-9.3	1.40	6.74	1.9183	401.2213
131	1509381269	55.0492	-116.7151	2137.8	1302.5	90.5	8.8	-9.5	1.40	6.74	1.9183	401.2213
132	1509381270	55.0491	-116.7137	2137.9	1301.2	90.7	9.3	-9.0	1.40	6.74	1.9183	401.2213
133	1509381271	55.0491	-116.7123	2138.0	1303.2	90.5	9.5	-9.1	1.40	6.74	1.9183	401.2213
134	1509381272	55.0490	-116.7110	2137.8	1305.3	90.2	9.6	-9.2	1.40	6.74	1.9183	401.2213
135	1509381273	55.0489	-116.7096	2137.5	1306.1	89.8	9.3	-9.5	1.40	6.74	1.9183	401.2213
136	1509381274	55.0488	-116.7082	2137.0	1303.3	90.0	9.3	-9.1	1.39	6.74	1.9183	401.2213
137	1509381275	55.0487	-116.7068	2136.5	1302.5	89.7	9.3	-9.4	1.38	6.74	1.9183	401.2213
138	1509381276	55.0486	-116.7054	2136.1	1302.1	89.9	9.4	-9.1	1.38	6.74	1.9183	401.2213
139	1509381277	55.0486	-116.7040	2135.8	1300.2	89.9	9.5	-9.0	1.38	6.74	1.9183	401.2213
140	1509381278	55.0485	-116.7026	2135.4	1302.2	89.6	9.5	-9.3	1.38	6.74	1.9183	401.2213
141	1509381279	55.0484	-116.7013	2135.0	1305.3	89.5	9.6	-9.3	1.38	6.74	1.9183	401.2213
142	1509381280	55.0483	-116.6999	2134.4	1306.5	89.6	9.7	-9.1	1.38	6.74	1.9183	401.2213
143	1509381281	55.0483	-116.6985	2134.0	1309.2	89.7	9.8	-9.0	1.38	6.74	1.9183	401.2213
144	1509381282	55.0482	-116.6971	2133.6	1310.7	89.2	9.6	-9.5	1.38	6.76	1.9183	401.2213
145	1509381283	55.0481	-116.6957	2133.5	1311.8	89.5	9.6	-9.2	1.38	6.76	1.9183	401.2213
146	1509381284	55.0480	-116.6942	2133.5	1313.9	89.5	9.7	-9.2	1.38	6.77	1.9183	401.2213
147	1509381285	55.0479	-116.6929	2133.5	1317.5	89.5	9.6	-9.1	1.38	6.74	1.9183	401.2213
148	1509381286	55.0479	-116.6915	2133.6	1320.5	89.2	10.0	-9.5	1.38	6.75	1.9183	401.2213
149	1509381287	55.0478	-116.6901	2133.6	1322.9	89.3	10.0	-9.3	1.38	6.75	1.9183	401.2213
150	1509381288	55.0477	-116.6887	2133.4	1324.1	89.5	9.8	-9.3	1.38	6.73	1.9183	401.2213
151	1509381289	55.0476	-116.6873	2133.5	1325.2	89.0	9.5	-9.8	1.38	6.72	1.9183	401.2213
152	1509381290	55.0476	-116.6860	2133.6	1324.5	89.4	9.5	-9.3	1.41	6.70	1.9183	401.2213
153	1509381291	55.0475	-116.6846	2133.6	1323.0	89.5	9.5	-9.3	1.41	6.70	1.9183	401.2213
154	1509381292	55.0474	-116.6832	2133.7	1319.9	89.5	9.3	-9.3	1.40	6.70	1.9183	401.2213
155	1509381293	55.0473	-116.6818	2133.9	1320.5	89.7	9.0	-9.3	1.38	6.70	1.9183	401.2213
156	1509381294	55.0473	-116.6805	2134.0	1322.1	89.8	9.0	-9.3	1.38	6.71	1.9183	401.2213
157	1509381295	55.0473	-116.6803	2134.0	1322.1	89.8	9.0	-9.2	1.38	6.71	1.9183	401.2213
158	1509381296	55.0472	-116.6801	2134.1	1322.0	89.8	9.0	-9.2	1.38	6.72	1.9183	401.2213
159	1509381297	55.0472	-116.6799	2134.1	1322.1	89.9	9.0	-9.1	1.38	6.72	1.9183	401.2213
160	1509381298	55.0472	-116.6790	2134.2	1321.2	90.0	9.5	-9.1	1.38	6.73	1.9183	401.2213
161	1509381299	55.0471	-116.6775	2134.4	1318.5	89.8	9.3	-9.4	1.38	6.73	1.9183	401.2213
162	1509381300	55.0470	-116.6759	2134.8	1315.9	89.8	9.1	-9.4	1.38	6.74	1.9183	401.2213
163	1509381301	55.0469	-116.6743	2135.2	1314.3	90.0	9.4	-9.3	1.38	6.74	1.9183	401.2213
164	1509381302	55.0468	-116.6728	2135.6	1312.6	89.7	9.4	-9.5	1.38	6.75	1.9183	401.2213
165	1509381303	55.0467	-116.6712	2136.2	1314.2	89.9	9.4	-9.4	1.38	6.75	1.9183	401.2213
166	1509381304	55.0466	-116.6697	2136.7	1318.7	89.9	9.8	-9.5	1.38	6.76	1.9183	401.2213
167	1509381305	55.0465	-116.6681	2137.2	1321.1	90.0	9.8	-9.4	1.38	6.76	1.9183	401.2213
168	1509381306	55.0464	-116.6666	2137.3	1323.5	90.3	9.7	-9.2	1.39	6.76	1.9183	401.2213
169	1509381307	55.0463	-116.6650	2137.2	1324.5	90.1	9.8	-9.4	1.39	6.76	1.9183	401.2213
170	1509381308	55.0463	-116.6635	2136.8	1325.8	90.2	9.9	-9.3	1.38	6.76	1.9183	401.2213
171	1509381309	55.0462	-116.6619	2136.1	1325.1	90.4	10.0	-9.0	1.38	6.76	1.9183	401.2213
172	1509381310	55.0461	-116.6604	2135.2	1322.1	90.3	10.1	-9.2	1.38	6.76	1.9183	401.2213
173	1509381311	55.0460	-116.6589	2134.3	1320.2	90.1	9.8	-9.4	1.38	6.76	1.9183	401.2213
174	1509381312	55.0459	-116.6573	2133.2	1319.2	90.2	10.0	-9.4	1.39	6.76	1.9183	401.2213
175	1509381313	55.0458	-116.6557	2132.3	1316.9	90.6	10.1	-9.1	1.41	6.76	1.9183	401.2213
176	1509381314	55.0457	-116.6542	2131.7	1315.7	90.6	10.2	-9.1	1.39	6.76	1.9183	401.2213
177	1509381315	55.0456	-116.6526	2131.5	1317.7	90.7	10.3	-8.9	1.38	6.76	1.9183	401.2213
178	1509381316	55.0455	-116.6510	2131.4	1322.1	90.7	10.3	-9.0	1.38	6.75	1.9183	401.2213
179	1509381317	55.0454	-116.6495	2131.4	1317.4	90.7	10.3	-9.2	1.38	6.74	1.9183	401.2213
180	1509381318	55.0453	-116.6479	2131.8	1310.4	90.9	10.2	-9.0	1.38	6.74	1.9183	401.2213
181	1509381319	55.0452	-116.6464	2131.8	1310.5	91.2	10.3	-8.7	1.38	6.72	1.9183	401.2213
182	1509381320	55.0451	-116.6448	2131.8	1309.0	91.1	10.3	-9.0	1.38	6.70	1.9183	401.2213
183	1509381321	55.0450	-116.6432	2131.7	1305.6	91.1	10.3	-9.1	1.38	6.68	1.9183	401.2213
184	1509381322	55.0448	-116.6416	2131.4	1304.6	91.4	10.3	-8.9	1.38	6.68	1.9183	401.2213
185	1509381323	55.0447	-116.6400	2131.2	1303.1	91.4	10.3	-9.1	1.38	6.68	1.9183	401.2213
186	1509381324	55.0446	-116.6385	2131.1	1301.1	91.5	9.8	-9.1	1.38	6.68	1.9183	401.2213
187	1509381325	55.0445	-116.6371	2131.1	1301.1	91.8	9.3	-8.9	1.38	6.66	1.9183	401.2213
188	1509381326	55.0444	-116.6356	2131.5	1300.2	92.1	9.1	-8.6	1.38	6.69	1.9183	401.2213
189	1509381327	55.0443	-116.6342	2131.9	1298.8	91.9	9.5	-9.1	1.38	6.68	1.9183	401.2213
190	1509381328	55.0442	-116.6328	2132.5	1298.2	91.9	9.4	-8.9	1.38	6.66	1.9183	401.2213
191	1509381329	55.0441	-116.6314	2133.1	1296.2	92.1	9.4	-8.9	1.38	6.67	1.9183	401.2213
192	1509381330	55.0440	-116.6300	2133.6	1294.7	92.0	8.8	-8.7	1.38	6.66	1.9183	401.2213
193	1509381331	55.0439	-116.6286	2134.1	1292.1	92.0	9.0	-8.8	1.40	6.66	1.9183	401.2213
194	1509381332	55.0438	-116.6272	2134.5	1289.5	91.8	9.0	-8.8	1.40	6.67	1.9183	401.2213
195	1509381333	55.0437	-116.6258	2134.7	1285.3	91.7	8.6	-9.0	1.38	6.68	1.9183	401.2213
196	1509381334	55.0436	-116.6244	2134.9	1279.7	92.0	8.4	-8.6	1.38	6.70	1.9183	401.2213
197	1509381335	55.0435	-116.6230	2135.2	1276.9	91.8	8.3	-8.8	1.38	6.72	1.9183	401.2213
198	1509381336	55.0434	-116.6216	2135.6	1274.8	91.9	8.2	-8.6	1.38	6.74	1.9183	401.2213
199	1509381337	55.0433	-116.6203	2136.0	1275.1	91.7	8.0	-8.6	1.38	6.76	1.9183	401.2213
200	1509381338	55.0432	-116.6189	2136.6	1275.8	91.6	7.9	-8.6	1.38	6.78	1.9183	401.2213
201	1509381339	55.0431	-116.6175	2137.3	1276.3	91.5	7.8	-8.5	1.38	6.82	1.9183	401.2213
202	1509381340	55.0430	-116.6164	2137.7	1274.7	91.4	7.7	-8.5	1.39	6.84	1.9183	401.2213
203	1509381341	55.0429	-116.6150	2138.2	1272.2	91.2	7.5	-8.3	1.40	6.90	1.9183	401.2213
204	1509381342	55.0428	-116.6134	2138.6	1270.5	91.0	7.4	-8.5	1.40	6.94	1.9183	401.2213
205	1509381343	55.0427	-116.6119	2139.0	1269.6	90.9	7.4	-8.4	1.40	7.02	1.9183	401.2213
206	1509381344	55.0426	-116.6106	2139.2	1268.8	90.6	7.3	-8.5	1.42	7.09	1.9183	401.2213
207	1509381345	55.0426	-116.6092	2139.3	1269.0	90.6	7.1	-8.4	1.42	7.15	1.9183	401.2213
208	1509381346	55.0425	-116.6078	2139.5	1267.2	90.3	7.4	-8.6	1.44	7.19	1.9183	401.2213
209	1509381347	55.0424	-116.6064	2139.5	1267.9	90.1	7.3	-8.6	1.44	7.24	1.9183	401.2213
210	1509381348	55.0423	-116.6051	2139.4	1269.7	90.1	7.0	-8.4	1.46	7.27	1.9183	401.2213
211	1509381349	55.0422	-116.6037	2139.1	1271.4	90.1	7.0	-8.4	1.47	7.33	1.9183	401.2213
212	1509381350	55.0422	-116.6023	2138.8	1271.8	89.9	7.0	-8.4	1.45	7.40	1.9183	401.2213
213	1509381351	55.0421	-116.6010	2138.5	1273.6	89.7	7.0	-8.6	1.46	7.46	1.9183	401.2213
214	1509381352	55.0420	-116.5996	2138.3	1275.3	89.7	7.0	-8.4	1.47	7.52	1.9183	401.2213
215	1509381353	55.0420	-116.5982	2138.1	1276.1	89.5	7.0	-8.5	1.46	7.57	1.9183	401.2213
216	1509381354	55.0419	-116.5970	2137.9	1274.9	89.4	6.9	-8.5	1.46	7.57	1.9183	401.2213
217	1509381355	55.0419	-116.5968	2137.9	1274.8	89.4	6.9	-8.6	1.46	7.57	1.9183	401.2213
218	1509381356	55.0419	-116.5966	2137.9	1274.6	89.4	7.0	-8.6	1.46	7.57	1.9183	401.2213
219	1509381357	55.0419	-116.5964	2137.9	1274.6	89.4	7.0	-8.7	1.46	7.57	1.9183	401.2213
220	1509381358	55.0418	-116.5956	2137.8	1273.5	89.3	7.0	-8.5	1.46	7.57	1.9183	401.2213
221	1509381359	55.0417	-116.5941	2137.7	1270.6	89.4	7.5	-8.4	1.45	7.57	1.9183	401.2213
222	1509381360	55.0417	-116.5925	2137.5	1270.9	89.3	7.5	-8.5	1.45	7.57	1.9183	401.2213
223	1509381361	55.0416	-116.5910	2137.2	1271.3	89.2	7.7	-8.7	1.45	7.56	1.9183	401.2213
224	1509381362	55.0415	-116.5894	2136.8	1269.8	89.2	7.9	-8.7	1.45	7.56	1.9183	401.2213
225	1509381363	55.0414	-116.5879	2136.2	1267.2	89.2	7.7	-8.6	1.45	7.56	1.9183	401.2213
226	1509381364	55.0414	-116.5864	2135.5	1266.5	89.2	7.8	-8.7	1.45	7.56	1.9183	401.2213
227	1509381365	55.0413	-116.5848	2134.8	1266.8	89.4	7.9	-8.7	1.45	7.56	1.9183	401.2213
228	1509381366	55.0412	-116.5832	2134.0	1266.0	89.5	8.0	-8.7	1.45	7.56	1.9183	401.2213
229	1509381367	55.0411	-116.5817	2133.1	1267.8	89.5	8.1	-8.8	1.44	7.56	1.9183	401.2213
230	1509381368	55.0410	-116.5802	2132.3	1269.8	89.7	8.2	-8.8	1.44	7.55	1.9183	401.2213
231	1509381369	55.0410	-116.5786	2131.5	1271.5	89.8	8.2	-9.0	1.44	7.55	1.9183	401.2213
232	1509381370	55.0409	-116.5771	2130.8	1274.1	90.0	8.3	-9.0	1.44	7.55	1.9183	401.2213
233	1509381371	55.0408	-116.5755	2130.0	1277.1	90.3	8.4	-9.0	1.44	7.55	1.9183	401.2213
234	1509381372	55.0407	-116.5740	2129.2	1277.9	90.4	8.5	-9.1	1.44	7.55	1.9183	401.2213
235	1509381373	55.0406	-116.5725	2128.4	1280.1	90.9	8.6	-8.8	1.44	7.55	1.9183	401.2213
236	1509381374	55.0405	-116.5710	2127.6	1282.6	90.9	8.6	-8.9	1.44	7.55	1.9183	401.2213
237	1509381375	55.0404	-116.5695	2126.8	1285.8	91.1	8.7	-8.9	1.44	7.54	1.9183	401.2213
238	1509381376	55.0403	-116.5680	2126.4	1290.4	91.3	8.1	-8.9	1.43	7.54	1.9183	401.2213
239	1509381377	55.0402	-116.5664	2126.2	1293.4	91.6	8.1	-8.9	1.43	7.54	1.9183	401.2213
240	1509381378	55.0401	-116.5648	2126.3	1295.2	92.0	8.1	-8.8	1.43	7.54	1.9183	401.2213
241	1509381379	55.0399	-116.5633	2126.6	1297.7	92.0	7.9	-8.9	1.43	7.54	1.9183	401.2213
242	1509381380	55.0398	-116.5618	2127.2	1299.3	92.0	7.8	-9.0	1.43	7.54	1.9183	401.2213
243	1509381381	55.0397	-116.5602	2127.8	1301.8	91.9	7.7	-9.1	1.43	7.54	1.9183	401.2213
244	1509381382	55.0396	-116.5588	2128.2	1303.2	92.1	7.7	-8.9	1.43	7.53	1.9183	401.2213
245	1509381383	55.0395	-116.5572	2128.5	1305.5	92.0	7.5	-9.1	1.43	7.53	1.9183	401.2213
246	1509381384	55.0394	-116.5557	2128.8	1307.8	92.0	7.4	-9.0	1.43	7.53	1.9183	401.2213
247	1509381385	55.0392	-116.5542	2129.0	1309.9	91.9	7.3	-9.2	1.42	7.53	1.9183	401.2213
248	1509381386	55.0391	-116.5527	2129.5	1313.5	91.9	7.2	-9.3	1.42	7.53	1.9183	401.2213
249	1509381387	55.0390	-116.5514	2129.7	1315.7	92.0	7.6	-9.2	1.42	7.53	1.9183	401.2213
250	1509381388	55.0389	-116.5500	2130.1	1318.0	92.2	7.6	-9.2	1.42	7.53	1.9183	401.2213
251	1509381389	55.0388	-116.5486	2130.3	1319.3	92.2	7.5	-9.0	1.42	7.52	1.9183	401.2213
252	1509381390	55.0387	-116.5473	2130.8	1321.5	92.1	7.4	-9.1	1.42	7.52	1.9183	401.2213
253	1509381391	55.0386	-116.5458	2131.4	1324.3	91.9	7.4	-9.3	1.42	7.52	1.9183	401.2213
254	1509381392	55.0385	-116.5445	2131.9	1326.9	92.0	7.3	-9.2	1.42	7.52	1.9183	401.2213
255	1509381393	55.0384	-116.5432	2132.4	1329.3	91.8	7.6	-9.4	1.42	7.52	1.9183	401.2213
256	1509381394	55.0383	-116.5418	2133.1	1332.3	91.8	7.6	-9.2	1.41	7.52	1.9183	401.2213
257	1509381395	55.0382	-116.5405	2133.6	1333.7	91.8	7.5	-9.3	1.41	7.52	1.9183	401.2213
258	1509381396	55.0380	-116.5390	2134.3	1334.3	91.7	7.4	-9.3	1.41	7.51	1.9183	401.2213
259	1509381397	55.0379	-116.5378	2134.8	1335.8	91.8	7.4	-9.2	1.41	7.51	1.9183	401.2213
260	1509381398	55.0378	-116.5364	2135.2	1338.2	91.6	7.6	-9.3	1.41	7.51	1.9183	401.2213
261	1509381399	55.0377	-116.5350	2135.4	1341.8	91.4	7.8	-9.4	1.41	7.51	1.9183	401.2213
262	1509381400	55.0376	-116.5336	2135.6	1345.5	91.4	7.8	-9.3	1.41	7.51	1.9183	401.2213
263	1509381401	55.0375	-116.5323	2135.5	1351.1	91.5	7.8	-9.2	1.41	7.51	1.9183	401.2213
264	1509381402	55.0374	-116.5309	2135.2	1355.5	91.3	7.9	-9.3	1.40	7.51	1.9183	401.2213
265	1509381403	55.0373	-116.5295	2134.6	1359.7	91.3	7.9	-9.3	1.40	7.51	1.9183	401.2213
266	1509381404	55.0372	-116.5282	2134.0	1362.9	91.2	8.0	-9.3	1.40	7.50	1.9183	401.2213
267	1509381405	55.0371	-116.5268	2133.3	1368.7	91.1	8.1	-9.3	1.40	7.50	1.9183	401.2213
268	1509381406	55.0370	-116.5255	2132.8	1374.8	91.2	8.1	-9.2	1.40	7.50	1.9183	401.2213
269	1509381407	55.0369	-116.5241	2132.4	1377.4	91.1	8.2	-9.2	1.40	7.50	1.9183	401.2213
270	1509381408	55.0368	-116.5227	2132.0	1373.6	91.0	8.3	-9.2	1.40	7.50	1.9183	401.2213
271	1509381409	55.0367	-116.5213	2131.7	1365.7	90.8	8.2	-9.3	1.40	7.50	1.9183	401.2213
272	1509381410	55.0367	-116.5200	2131.6	1359.1	91.1	8.3	-8.9	1.40	7.50	1.9183	401.2213
273	1509381411	55.0366	-116.5186	2131.5	1355.6	91.0	8.3	-9.1	1.39	7.49	1.9183	401.2213
274	1509381412	55.0365	-116.5172	2131.5	1350.8	90.9	8.3	-9.1	1.39	7.49	1.9183	401.2213
275	1509381413	55.0364	-116.5159	2131.4	1345.0	90.8	8.4	-9.1	1.39	7.49	1.9183	401.2213
276	1509381414	55.0363	-116.5146	2131.4	1340.4	90.7	8.4	-9.2	1.39	7.49	1.9183	401.2213
277	1509381415	55.0363	-116.5144	2131.4	1340.4	90.7	8.4	-9.2	1.39	7.49	1.9183	401.2213
278	1509381416	55.0363	-116.5143	2131.3	1340.1	90.8	8.4	-9.2	1.39	7.49	1.9183	401.2213
279	1509381417	55.0363	-116.5141	2131.3	1338.7	90.8	8.4	-9.2	1.39	7.49	1.9183	401.2213
280	1509381418	55.0362	-116.5133	2131.3	1335.7	90.9	8.4	-8.9	1.39	7.48	1.9183	401.2213
281	1509381419	55.0361	-116.5118	2131.1	1329.5	90.9	8.4	-8.9	1.39	7.48	1.9183	401.2213
282	1509381420	55.0360	-116.5103	2131.0	1326.0	90.8	8.5	-9.0	1.38	7.48	1.9183	401.2213
283	1509381421	55.0359	-116.5088	2130.8	1321.8	90.9	8.5	-8.9	1.38	7.48	1.9183	401.2213
284	1509381422	55.0358	-116.5072	2130.7	1318.0	90.9	8.4	-8.9	1.38	7.48	1.9183	401.2213
285	1509381423	55.0357	-116.5057	2130.8	1313.9	91.3	8.5	-8.7	1.38	7.48	1.9183	401.2213
286	1509381424	55.0356	-116.5043	2131.0	1311.1	91.0	8.5	-9.0	1.38	7.48	1.9183	401.2213
287	1509381425	55.0355	-116.5027	2131.1	1307.1	91.2	8.5	-8.8	1.38	7.47	1.9183	401.2213
288	1509381426	55.0354	-116.5012	2131.4	1303.3	91.2	8.5	-8.9	1.38	7.47	1.9183	401.2213
289	1509381427	55.0353	-116.4997	2131.6	1296.6	91.4	8.5	-8.8	1.38	7.47	1.9183	401.2213
290	1509381428	55.0352	-116.4982	2132.0	1291.3	91.5	8.4	-8.8	1.38	7.47	1.9183	401.2213
291	1509381429	55.0351	-116.4967	2132.5	1283.5	91.7	8.4	-8.6	1.37	7.47	1.9183	401.2213
292	1509381430	55.0350	-116.4951	2133.0	1278.7	91.6	8.2	-8.8	1.37	7.47	1.9183	401.2213
293	1509381431	55.0348	-116.4936	2133.6	1275.4	91.4	7.8	-9.0	1.37	7.47	1.9183	401.2213
294	1509381432	55.0347	-116.4921	2133.9	1273.9	91.9	7.9	-8.4	1.37	7.46	1.9183	401.2213
295	1509381433	55.0346	-116.4905	2134.0	1270.0	91.6	8.2	-8.9	1.37	7.46	1.9183	401.2213
296	1509381434	55.0345	-116.4890	2134.1	1263.8	91.7	8.2	-8.9	1.37	7.46	1.9183	401.2213
297	1509381435	55.0344	-116.4875	2134.1	1255.1	91.8	8.3	-8.8	1.37	7.46	1.9183	401.2213
298	1509381436	55.0343	-116.4860	2134.1	1243.1	92.0	8.3	-8.7	1.37	7.46	1.9183	401.2213
299	1509381437	55.0342	-116.4844	2133.9	1238.3	91.9	8.3	-8.8	1.36	7.46	1.9183	401.2213
300	1509381438	55.0341	-116.4829	2133.8	1239.7	92.0	8.4	-8.7	1.36	7.46	1.9183	401.2213
301	1509381439	55.0339	-116.4814	2133.6	1235.9	91.9	8.4	-8.8	1.36	7.45	1.9183	401.2213
302	1509381440	55.0338	-116.4799	2133.5	1230.6	91.9	8.4	-8.7	1.36	7.45	1.9183	401.2213
303	1509381441	55.0337	-116.4784	2133.3	1227.0	91.9	8.4	-8.8	1.36	7.45	1.9183	401.2213
304	1509381442	55.0336	-116.4769	2133.1	1217.9	91.6	8.4	-9.1	1.36	7.45	1.9183	401.2213
305	1509381443	55.0335	-116.4754	2132.8	1210.0	91.9	8.5	-8.7	1.36	7.45	1.9183	401.2213
306	1509381444	55.0334	-116.4738	2132.4	1197.0	91.9	9.0	-8.8	1.36	7.45	1.9183	401.2213
307	1509381445	55.0333	-116.4724	2132.0	1183.0	91.8	9.0	-8.9	1.36	7.45	1.9183	401.2213
308	1509381446	55.0332	-116.4708	2131.6	1173.6	91.8	9.1	-8.9	1.35	7.44	1.9183	401.2213
309	1509381447	55.0331	-116.4694	2131.4	1168.4	91.6	9.1	-9.0	1.35	7.44	1.9183	401.2213
310	1509381448	55.0330	-116.4681	2131.1	1168.1	91.7	9.1	-8.8	1.35	7.44	1.9183	401.2213
311	1509381449	55.0329	-116.4667	2130.9	1167.9	91.4	8.5	-9.2	1.35	7.44	1.9183	401.2213
312	1509381450	55.0328	-116.4655	2130.7	1169.4	91.3	9.1	-9.2	1.35	7.44	1.9183	401.2213
313	1509381451	55.0327	-116.4640	2130.4	1171.4	91.5	9.2	-9.1	1.35	7.44	1.9183	401.2213
314	1509381452	55.0326	-116.4625	2130.3	1173.0	91.6	9.1	-9.0	1.35	7.44	1.9183	401.2213
315	1509381453	55.0325	-116.4611	2130.2	1169.3	91.6	9.1	-9.0	1.35	7.44	1.9183	401.2213
316	1509381454	55.0324	-116.4598	2130.3	1166.3	91.6	8.6	-9.0	1.35	7.43	1.9183	401.2213
317	1509381455	55.0323	-116.4584	2130.4	1165.4	91.6	8.5	-8.9	1.34	7.43	1.9183	401.2213
318	1509381456	55.0322	-116.4571	2130.5	1164.5	91.6	8.4	-8.9	1.34	7.43	1.9183	401.2213
319	1509381457	55.0321	-116.4557	2130.5	1164.5	91.2	8.9	-9.3	1.34	7.43	1.9183	401.2213
320	1509381458	55.0320	-116.4544	2130.5	1165.6	91.1	8.9	-9.4	1.34	7.43	1.9183	401.2213
321	1509381459	55.0319	-116.4530	2130.4	1165.4	91.3	8.9	-9.1	1.34	7.43	1.9183	401.2213
322	1509381460	55.0318	-116.4516	2130.4	1165.4	91.2	8.9	-9.2	1.34	7.43	1.9183	401.2213
323	1509381461	55.0317	-116.4502	2130.5	1165.5	91.0	8.9	-9.3	1.34	7.42	1.9183	401.2213
324	1509381462	55.0316	-116.4489	2130.6	1167.6	91.0	8.8	-9.3	1.34	7.42	1.9183	401.2213
325	1509381463	55.0315	-116.4475	2131.1	1172.7	91.1	8.8	-9.0	1.34	7.42	1.9183	401.2213
326	1509381464	55.0314	-116.4461	2131.6	1181.0	91.0	8.6	-9.2	1.33	7.42	1.9183	401.2213
327	1509381465	55.0313	-116.4448	2132.0	1187.7	90.9	8.6	-9.3	1.33	7.42	1.9183	401.2213
328	1509381466	55.0312	-116.4434	2132.3	1195.7	90.9	8.5	-9.2	1.33	7.42	1.9183	401.2213
329	1509381467	55.0311	-116.4420	2132.4	1200.3	90.9	8.5	-9.3	1.33	7.42	1.9183	401.2213
330	1509381468	55.0310	-116.4407	2132.4	1204.2	91.0	8.5	-9.1	1.33	7.41	1.9183	401.2213
331	1509381469	55.0309	-116.4393	2132.2	1208.2	90.9	8.5	-9.2	1.33	7.41	1.9183	401.2213
332	1509381470	55.0308	-116.4380	2132.0	1212.9	90.8	8.5	-9.2	1.33	7.41	1.9183	401.2213
333	1509381471	55.0307	-116.4366	2132.1	1219.8	90.8	8.5	-9.1	1.33	7.41	1.9183	401.2213
334	1509381472	55.0306	-116.4352	2132.4	1225.8	90.5	8.5	-9.4	1.32	7.41	1.9183	401.2213
335	1509381473	55.0305	-116.4339	2132.9	1230.9	90.5	8.4	-9.4	1.32	7.41	1.9183	401.2213
336	1509381474	55.0305	-116.4326	2133.6	1237.0	90.7	8.4	-9.0	1.32	7.41	1.9183	401.2213
337	1509381475	55.0304	-116.4324	2133.7	1238.5	90.7	8.4	-9.1	1.32	7.40	1.9183	401.2213
338	1509381476	55.0304	-116.4323	2133.9	1238.6	90.7	8.3	-9.1	1.32	7.40	1.9183	401.2213
339	1509381477	55.0304	-116.4321	2134.0	1239.0	90.8	8.3	-9.1	1.32	7.40	1.9183	401.2213
340	1509381478	55.0304	-116.4314	2134.4	1241.4	90.6	8.5	-9.2	1.32	7.40	1.9183	401.2213
341	1509381479	55.0303	-116.4299	2135.6	1247.8	90.4	8.3	-9.3	1.32	7.40	1.9183	401.2213
342	1509381480	55.0302	-116.4284	2136.7	1254.0	90.4	8.1	-9.3	1.32	7.40	1.9183	401.2213
343	1509381481	55.0301	-116.4269	2137.3	1259.4	90.5	8.0	-9.1	1.31	7.40	1.9183	401.2213
344	1509381482	55.0300	-116.4255	2137.4	1262.4	90.3	8.0	-9.3	1.31	7.39	1.9183	401.2213
345	1509381483	55.0299	-116.4239	2137.1	1264.8	90.5	8.1	-9.0	1.31	7.39	1.9183	401.2213
346	1509381484	55.0298	-116.4224	2136.8	1267.5	90.2	8.2	-9.3	1.31	7.39	1.9183	401.2213
347	1509381485	55.0297	-116.4209	2136.7	1270.7	90.3	8.2	-9.2	1.31	7.39	1.9183	401.2213
348	1509381486	55.0296	-116.4194	2136.6	1274.6	90.4	8.3	-9.1	1.31	7.39	1.9183	401.2213
349	1509381487	55.0295	-116.4179	2136.5	1275.5	90.4	8.3	-8.9	1.31	7.39	1.9183	401.2213
350	1509381488	55.0294	-116.4164	2136.6	1278.0	90.1	8.4	-9.3	1.31	7.39	1.9183	401.2213
351	1509381489	55.0293	-116.4149	2136.7	1279.1	90.1	8.4	-9.3	1.31	7.38	1.9183	401.2213
352	1509381490	55.0292	-116.4133	2136.7	1279.1	90.2	8.5	-9.2	1.30	7.38	1.9183	401.2213
353	1509381491	55.0291	-116.4118	2136.6	1279.1	90.3	8.5	-9.2	1.30	7.38	1.9183	401.2213
354	1509381492	55.0290	-116.4102	2136.5	1278.2	90.2	8.6	-9.3	1.30	7.38	1.9183	401.2213
355	1509381493	55.0289	-116.4087	2136.1	1279.1	90.3	8.7	-9.3	1.30	7.38	1.9183	401.2213
356	1509381494	55.0288	-116.4072	2135.8	1283.8	90.1	8.8	-9.4	1.30	7.38	1.9183	401.2213
357	1509381495	55.0287	-116.4057	2135.5	1287.2	90.2	8.9	-9.4	1.30	7.38	1.9183	401.2213
358	1509381496	55.0286	-116.4041	2135.1	1291.1	90.3	9.0	-9.3	1.30	7.38	1.9183	401.2213
359	1509381497	55.0285	-116.4026	2134.8	1295.3	90.3	9.1	-9.4	1.30	7.37	1.9183	401.2213
360	1509381498	55.0284	-116.4010	2134.4	1300.1	90.4	9.2	-9.5	1.29	7.37	1.9183	401.2213
361	1509381499	55.0283	-116.3995	2134.0	1304.3	90.4	9.4	-9.5	1.29	7.37	1.9183	401.2213
362	1509381500	55.0282	-116.3979	2133.4	1310.4	90.6	9.5	-9.3	1.29	7.37	1.9183	401.2213
363	1509381501	55.0281	-116.3963	2132.8	1313.5	90.6	9.6	-9.4	1.29	7.37	1.9183	401.2213
364	1509381502	55.0280	-116.3948	2132.2	1314.2	90.7	9.6	-9.5	1.29	7.37	1.9183	401.2213
365	1509381503	55.0279	-116.3932	2131.7	1315.6	90.9	9.9	-9.5	1.29	7.37	1.9183	401.2213
366	1509381504	55.0278	-116.3917	2131.2	1317.9	90.8	10.3	-9.7	1.29	7.36	1.9183	401.2213
367	1509381505	55.0277	-116.3903	2130.8	1320.2	91.0	10.1	-9.6	1.29	7.36	1.9183	401.2213
368	1509381506	55.0276	-116.3888	2130.6	1321.6	90.8	10.5	-9.8	1.29	7.36	1.9183	401.2213
369	1509381507	55.0275	-116.3875	2130.3	1321.3	91.2	10.1	-9.5	1.28	7.36	1.9183	401.2213
370	1509381508	55.0274	-116.3860	2130.2	1322.1	91.3	10.2	-9.6	1.28	7.36	1.9183	401.2213
371	1509381509	55.0273	-116.3847	2130.1	1323.0	91.5	10.2	-9.6	1.28	7.36	1.9183	401.2213
372	1509381510	55.0272	-116.3833	2130.0	1324.7	91.9	10.3	-9.3	1.28	7.36	1.9183	401.2213
373	1509381511	55.0271	-116.3819	2129.7	1324.7	92.1	10.3	-9.3	1.28	7.35	1.9183	401.2213
374	1509381512	55.0270	-116.3805	2129.5	1325.5	91.9	10.2	-9.7	1.28	7.35	1.9183	401.2213
375	1509381513	55.0269	-116.3791	2129.3	1327.3	92.1	10.0	-9.5	1.28	7.35	1.9183	401.2213
376	1509381514	55.0268	-116.3777	2129.0	1329.1	92.6	10.4	-9.2	1.28	7.35	1.9183	401.2213
377	1509381515	55.0266	-116.3763	2128.9	1331.6	92.5	10.6	-9.4	1.28	7.35	1.9183	401.2213
378	1509381516	55.0265	-116.3749	2128.8	1333.4	92.2	11.0	-9.8	1.27	7.35	1.9183	401.2213
379	1509381517	55.0264	-116.3736	2128.4	1334.3	92.4	10.5	-9.6	1.27	7.35	1.9183	401.2213
380	1509381518	55.0263	-116.3721	2128.3	1339.3	92.5	10.5	-9.6	1.27	7.34	1.9183	401.2213
381	1509381519	55.0262	-116.3708	2128.2	1342.3	92.7	10.1	-9.4	1.27	7.34	1.9183	401.2213
382	1509381520	55.0261	-116.3694	2128.4	1349.1	92.7	9.9	-9.5	1.27	7.34	1.9183	401.2213
383	1509381521	55.0259	-116.3680	2128.7	1354.0	92.6	9.9	-9.6	1.27	7.34	1.9183	401.2213
384	1509381522	55.0258	-116.3666	2129.1	1350.7	92.8	9.8	-9.4	1.27	7.34	1.9183	401.2213
385	1509381523	55.0257	-116.3652	2129.5	1343.3	92.7	9.7	-9.4	1.27	7.34	1.9183	401.2213
386	1509381524	55.0256	-116.3638	2130.0	1343.4	92.7	9.7	-9.5	1.27	7.34	1.9183	401.2213
387	1509381525	55.0255	-116.3624	2130.6	1344.5	92.8	9.6	-9.2	1.26	7.33	1.9183	401.2213
388	1509381526	55.0253	-116.3610	2131.2	1347.1	92.8	9.9	-9.3	1.26	7.33	1.9183	401.2213
389	1509381527	55.0252	-116.3597	2131.9	1349.8	92.4	9.4	-9.6	1.26	7.33	1.9183	401.2213
390	1509381528	55.0251	-116.3583	2132.5	1354.3	92.5	9.2	-9.5	1.26	7.33	1.9183	401.2213
391	1509381529	55.0250	-116.3569	2133.3	1359.7	92.6	9.1	-9.4	1.26	7.33	1.9183	401.2213
392	1509381530	55.0249	-116.3555	2134.1	1364.1	92.5	9.4	-9.5	1.26	7.33	1.9183	401.2213
393	1509381531	55.0248	-116.3541	2134.9	1367.7	92.3	9.4	-9.7	1.26	7.33	1.9183	401.2213
394	1509381532	55.0246	-116.3528	2135.8	1369.8	92.4	9.3	-9.6	1.26	7.32	1.9183	401.2213
395	1509381533	55.0245	-116.3514	2136.6	1371.5	92.3	9.2	-9.6	1.25	7.32	1.9183	401.2213
396	1509381534	55.0244	-116.3502	2137.3	1374.1	92.4	9.1	-9.4	1.25	7.32	1.9183	401.2213
397	1509381535	55.0244	-116.3500	2137.4	1374.3	92.4	9.1	-9.4	1.25	7.32	1.9183	401.2213
398	1509381536	55.0244	-116.3498	2137.5	1374.3	92.3	9.1	-9.4	1.25	7.32	1.9183	401.2213
399	1509381537	55.0244	-116.3496	2137.6	1374.5	92.3	9.1	-9.4	1.25	7.32	1.9183	401.2213
400	1509381538	55.0243	-116.3488	2137.9	1376.6	92.0	9.6	-9.6	1.25	7.32	1.9183	401.2213
401	1509381539	55.0242	-116.3472	2138.5	1379.9	91.7	9.5	-9.7	1.25	7.32	1.9183	401.2213
402	1509381540	55.0241	-116.3457	2138.8	1383.6	91.6	9.2	-9.6	1.25	7.31	1.9183	401.2213
403	1509381541	55.0240	-116.3442	2139.0	1386.5	91.4	9.0	-9.7	1.25	7.31	1.9183	401.2213
404	1509381542	55.0238	-116.3427	2139.1	1389.1	91.1	9.0	-9.9	1.24	7.31	1.9183	401.2213
405	1509381543	55.0237	-116.3412	2139.1	1392.1	91.2	9.1	-9.6	1.24	7.31	1.9183	401.2213
406	1509381544	55.0236	-116.3397	2139.1	1396.1	91.1	9.1	-9.6	1.24	7.31	1.9183	401.2213
407	1509381545	55.0235	-116.3381	2138.9	1399.1	90.8	9.5	-9.8	1.24	7.31	1.9183	401.2213
408	1509381546	55.0234	-116.3366	2138.8	1406.2	90.4	9.8	-10.0	1.24	7.31	1.9183	401.2213
409	1509381547	55.0233	-116.3351	2138.6	1407.9	90.9	9.6	-9.3	1.24	7.30	1.9183	401.2213
410	1509381548	55.0232	-116.3335	2138.2	1409.3	90.8	9.5	-9.4	1.24	7.30	1.9183	401.2213
411	1509381549	55.0231	-116.3319	2137.6	1410.0	90.3	9.6	-9.8	1.24	7.30	1.9183	401.2213
412	1509381550	55.0230	-116.3304	2136.9	1402.9	90.3	9.8	-9.9	1.24	7.30	1.9183	401.2213
413	1509381551	55.0229	-116.3288	2135.9	1383.9	90.6	9.8	-9.6	1.23	7.30	1.9183	401.2213
414	1509381552	55.0228	-116.3273	2135.2	1373.0	90.5	9.7	-9.8	1.23	7.30	1.9183	401.2213
415	1509381553	55.0227	-116.3257	2134.4	1367.0	90.6	9.8	-9.8	1.23	7.30	1.9183	401.2213
416	1509381554	55.0226	-116.3242	2133.7	1363.5	90.6	10.2	-9.8	1.23	7.29	1.9183	401.2213
417	1509381555	55.0224	-116.3226	2133.3	1358.6	91.0	10.3	-9.3	1.23	7.29	1.9183	401.2213
418	1509381556	55.0223	-116.3211	2132.9	1355.6	90.9	10.2	-9.5	1.23	7.29	1.9183	401.2213
419	1509381557	55.0222	-116.3196	2132.5	1354.8	90.8	10.2	-9.8	1.23	7.29	1.9183	401.2213
420	1509381558	55.0221	-116.3180	2132.1	1354.1	90.8	10.3	-9.8	1.23	7.29	1.9183	401.2213
421	1509381559	55.0220	-116.3165	2131.6	1354.7	91.1	10.4	-9.6	1.23	7.29	1.9183	401.2213
422	1509381560	55.0219	-116.3149	2131.1	1354.1	91.1	10.4	-9.7	1.22	7.29	1.9183	401.2213
423	1509381561	55.0218	-116.3134	2130.5	1354.2	91.2	10.5	-9.5	1.22	7.28	1.9183	401.2213
424	1509381562	55.0217	-116.3119	2130.0	1356.7	91.1	10.6	-9.8	1.22	7.28	1.9183	401.2213
425	1509381563	55.0216	-116.3103	2129.6	1358.3	91.3	10.7	-9.7	1.22	7.28	1.9183	401.2213
426	1509381564	55.0215	-116.3087	2129.5	1360.9	91.7	10.7	-9.4	1.22	7.28	1.9183	401.2213
427	1509381565	55.0213	-116.3072	2129.7	1363.7	91.5	10.7	-9.6	1.22	7.28	1.9183	401.2213
428	1509381566	55.0212	-116.3057	2130.1	1366.1	91.4	10.6	-9.7	1.22	7.28	1.9183	401.2213
429	1509381567	55.0211	-116.3044	2130.5	1365.4	91.8	10.5	-9.4	1.22	7.28	1.9183	401.2213
430	1509381568	55.0210	-116.3029	2131.0	1364.0	91.8	10.5	-9.4	1.21	7.27	1.9183	401.2213
431	1509381569	55.0209	-116.3016	2131.5	1360.9	91.7	10.4	-9.5	1.21	7.27	1.9183	401.2213
432	1509381570	55.0208	-116.3001	2132.1	1357.0	91.8	10.4	-9.4	1.21	7.27	1.9183	401.2213
433	1509381571	55.0207	-116.2987	2132.6	1356.9	91.9	10.3	-9.4	1.21	7.27	1.9183	401.2213
434	1509381572	55.0206	-116.2973	2133.2	1358.4	91.9	10.2	-9.3	1.21	7.27	1.9183	401.2213
435	1509381573	55.0205	-116.2959	2133.8	1359.8	91.9	10.1	-9.4	1.21	7.27	1.9183	401.2213
436	1509381574	55.0204	-116.2946	2134.4	1364.4	92.0	10.1	-9.3	1.21	7.27	1.9183	401.2213
437	1509381575	55.0203	-116.2931	2135.0	1366.0	92.1	10.0	-9.2	1.21	7.26	1.9183	401.2213
438	1509381576	55.0202	-116.2918	2135.5	1367.3	92.2	10.0	-9.0	1.21	7.26	1.9183	401.2213
439	1509381577	55.0200	-116.2904	2136.0	1367.9	92.0	9.9	-9.3	1.20	7.26	1.9183	401.2213
440	1509381578	55.0200	-116.2891	2136.5	1368.5	92.2	9.9	-9.0	1.20	7.26	1.9183	401.2213
441	1509381579	55.0198	-116.2876	2136.9	1369.2	91.8	9.8	-9.3	1.20	7.26	1.9183	401.2213
442	1509381580	55.0197	-116.2862	2137.4	1369.7	92.0	9.8	-8.9	1.20	7.26	1.9183	401.2213
443	1509381581	55.0196	-116.2848	2137.7	1368.7	91.9	9.8	-9.1	1.20	7.26	1.9183	401.2213
444	1509381582	55.0195	-116.2835	2138.1	1369.1	91.8	9.7	-9.1	1.20	7.25	1.9183	401.2213
445	1509381583	55.0194	-116.2820	2138.6	1369.3	91.5	9.3	-9.2	1.20	7.25	1.9183	401.2213
446	1509381584	55.0193	-116.2807	2139.0	1369.7	91.2	9.6	-9.4	1.20	7.25	1.9183	401.2213
447	1509381585	55.0192	-116.2792	2139.3	1368.9	91.5	9.6	-9.1	1.20	7.25	1.9183	401.2213
448	1509381586	55.0191	-116.2779	2139.4	1365.4	91.4	9.6	-9.1	1.19	7.25	1.9183	401.2213
449	1509381587	55.0190	-116.2765	2139.4	1363.2	91.1	9.6	-9.4	1.19	7.25	1.9183	401.2213
450	1509381588	55.0189	-116.2751	2139.3	1357.9	90.9	9.7	-9.5	1.19	7.25	1.9183	401.2213
451	1509381589	55.0188	-116.2737	2139.0	1355.0	91.0	9.7	-9.4	1.19	7.25	1.9183	401.2213
452	1509381590	55.0187	-116.2723	2138.7	1352.6	91.2	9.3	-9.0	1.19	7.24	1.9183	401.2213
453	1509381591	55.0186	-116.2709	2138.4	1352.4	90.9	9.4	-9.2	1.19	7.24	1.9183	401.2213
454	1509381592	55.0185	-116.2695	2137.9	1350.6	90.7	9.4	-9.4	1.19	7.24	1.9183	401.2213
455	1509381593	55.0184	-116.2681	2137.4	1348.1	90.7	9.4	-9.4	1.19	7.24	1.9183	401.2213
456	1509381594	55.0184	-116.2669	2137.0	1344.8	91.0	9.5	-9.0	1.19	7.24	1.9183	401.2213
457	1509381595	55.0183	-116.2667	2137.0	1344.8	91.0	9.5	-8.9	1.18	7.24	1.9183	401.2213
458	1509381596	55.0183	-116.2665	2136.9	1344.7	91.1	9.5	-8.9	1.18	7.24	1.9183	401.2213
459	1509381597	55.0183	-116.2663	2136.9	1342.2	91.1	9.5	-8.9	1.18	7.23	1.9183	401.2213
460	1509381598	55.0183	-116.2656	2136.9	1340.2	91.0	9.0	-9.0	1.18	7.23	1.9183	401.2213
461	1509381599	55.0182	-116.2640	2136.8	1338.5	90.8	9.4	-9.2	1.18	7.23	1.9183	401.2213
462	1509381600	55.0181	-116.2625	2136.8	1337.0	90.5	9.0	-9.6	1.18	7.23	1.9183	401.2213
463	1509381601	55.0180	-116.2609	2137.0	1337.0	90.9	8.9	-9.1	1.18	7.23	1.9183	401.2213
464	1509381602	55.0179	-116.2594	2137.1	1335.0	90.8	8.9	-9.3	1.18	7.23	1.9183	401.2213
465	1509381603	55.0178	-116.2578	2137.0	1330.6	91.0	9.3	-9.1	1.17	7.23	1.9183	401.2213
466	1509381604	55.0176	-116.2563	2136.5	1326.3	90.7	8.9	-9.4	1.17	7.22	1.9183	401.2213
467	1509381605	55.0175	-116.2547	2136.0	1319.9	90.9	8.9	-9.2	1.17	7.22	1.9183	401.2213
468	1509381606	55.0174	-116.2531	2135.3	1313.6	91.1	9.0	-9.1	1.17	7.22	1.9183	401.2213
469	1509381607	55.0173	-116.2516	2134.4	1307.2	91.1	9.1	-9.2	1.17	7.22	1.9183	401.2213
470	1509381608	55.0172	-116.2500	2133.7	1301.7	91.0	9.1	-9.4	1.17	7.22	1.9183	401.2213
471	1509381609	55.0171	-116.2485	2133.1	1295.8	91.3	9.1	-9.2	1.17	7.22	1.9183	401.2213
472	1509381610	55.0170	-116.2469	2132.6	1289.2	91.4	9.2	-9.2	1.17	7.22	1.9183	401.2213
473	1509381611	55.0169	-116.2453	2132.3	1284.9	91.5	9.2	-9.3	1.17	7.21	1.9183	401.2213
474	1509381612	55.0168	-116.2438	2132.0	1279.3	91.5	9.4	-9.3	1.16	7.21	1.9183	401.2213
475	1509381613	55.0167	-116.2422	2131.8	1276.7	91.8	9.6	-9.2	1.16	7.21	1.9183	401.2213
476	1509381614	55.0165	-116.2407	2131.6	1274.5	91.8	9.6	-9.2	1.16	7.21	1.9183	401.2213
477	1509381615	55.0164	-116.2391	2131.2	1269.6	91.8	9.3	-9.3	1.16	7.21	1.9183	401.2213
478	1509381616	55.0163	-116.2376	2130.6	1265.5	91.9	9.1	-9.4	1.16	7.21	1.9183	401.2213
479	1509381617	55.0162	-116.2360	2129.8	1263.8	92.0	9.1	-9.3	1.16	7.21	1.9183	401.2213
480	1509381618	55.0161	-116.2345	2129.0	1260.9	92.1	9.1	-9.3	1.16	7.20	1.9183	401.2213
481	1509381619	55.0159	-116.2330	2128.3	1255.3	92.2	9.1	-9.4	1.16	7.20	1.9183	401.2213
482	1509381620	55.0158	-116.2314	2127.6	1248.0	92.4	9.0	-9.3	1.16	7.20	1.9183	401.2213
483	1509381621	55.0157	-116.2298	2127.1	1245.4	92.5	9.0	-9.2	1.15	7.20	1.9183	401.2213
484	1509381622	55.0156	-116.2283	2126.7	1246.8	92.4	8.9	-9.4	1.15	7.20	1.9183	401.2213
485	1509381623	55.0154	-116.2267	2126.6	1246.6	92.4	8.8	-9.3	1.15	7.20	1.9183	401.2213
486	1509381624	55.0153	-116.2252	2126.8	1249.1	92.4	8.7	-9.3	1.15	7.20	1.9183	401.2213
487	1509381625	55.0152	-116.2237	2127.1	1248.1	92.4	8.6	-9.3	1.15	7.19	1.9196	401.0967
488	1509381626	55.0151	-116.2222	2127.7	1245.9	92.4	8.6	-9.3	1.15	7.19	1.9194	400.5121
489	1509381627	55.0150	-116.2209	2128.2	1244.0	92.4	8.6	-9.3	1.15	7.19	1.9177	400.1450
490	1509381628	55.0148	-116.2194	2128.9	1248.8	92.3	8.2	-9.4	1.15	7.19	1.9175	400.7074
491	1509381629	55.0147	-116.2181	2129.5	1252.8	92.3	8.5	-9.5	1.14	7.19	1.9191	400.1647
492	1509381630	55.0146	-116.2167	2130.2	1257.5	92.3	8.4	-9.4	1.14	7.19	1.9168	400.1647
493	1509381631	55.0145	-116.2153	2130.8	1262.8	92.4	8.3	-9.4	1.14	7.19	1.9165	400.2203
494	1509381632	55.0144	-116.2139	2131.5	1267.1	92.4	8.1	-9.4	1.14	7.19	1.9167	400.2203
495	1509381633	55.0143	-116.2126	2132.0	1270.2	92.6	8.0	-9.2	1.14	7.18	1.9177	400.6327
496	1509381634	55.0142	-116.2112	2132.6	1273.6	92.4	7.9	-9.3	1.14	7.18	1.9193	400.3479
497	1509381635	55.0140	-116.2099	2133.0	1279.4	92.4	7.9	-9.2	1.14	7.18	1.9201	399.7262
498	1509381636	55.0139	-116.2085	2133.4	1283.7	92.1	8.3	-9.4	1.14	7.18	1.9174	400.4828
499	1509381637	55.0138	-116.2071	2133.7	1285.7	92.1	8.2	-9.5	1.14	7.18	1.9171	399.2287
500	1509381638	55.0137	-116.2057	2134.0	1287.3	92.0	8.3	-9.4	1.13	7.18	1.9183	400.2491
501	1509381639	55.0136	-116.2044	2134.1	1284.8	92.1	8.2	-9.3	1.13	7.18	1.9181	399.8556
502	1509381640	55.0135	-116.2030	2134.3	1284.0	91.8	8.2	-9.5	1.13	7.17	1.9169	399.8556
503	1509381641	55.0134	-116.2016	2134.8	1284.8	91.8	8.2	-9.4	1.13	7.17	1.9164	398.9219
504	1509381642	55.0133	-116.2003	2135.2	1286.3	91.8	8.1	-9.3	1.13	7.17	1.9173	400.2638
505	1509381643	55.0132	-116.1990	2135.7	1287.9	91.5	8.0	-9.6	1.13	7.17	1.9165	400.2638
506	1509381644	55.0131	-116.1976	2136.3	1289.8	91.6	8.0	-9.4	1.13	7.17	1.9181	399.5397
507	1509381645	55.0130	-116.1962	2136.7	1289.7	91.5	8.0	-9.4	1.13	7.17	1.9177	399.5690
508	1509381646	55.0129	-116.1948	2137.3	1290.3	91.3	8.0	-9.5	1.13	7.17	1.9183	399.5690
509	1509381647	55.0128	-116.1935	2137.6	1289.3	91.1	8.0	-9.7	1.12	7.16	1.9190	399.5690
510	1509381648	55.0127	-116.1921	2137.8	1289.7	91.2	8.0	-9.5	1.12	7.16	1.9196	399.5690
511	1509381649	55.0126	-116.1907	2137.6	1290.3	91.2	8.0	-9.4	1.12	7.16	1.9174	398.9135
512	1509381650	55.0125	-116.1894	2137.1	1289.2	91.2	8.1	-9.3	1.12	7.16	1.9170	399.7364
513	1509381651	55.0124	-116.1881	2136.5	1288.9	91.0	8.2	-9.3	1.12	7.16	1.9169	398.3661
514	1509381652	55.0123	-116.1867	2135.8	1288.3	90.9	8.4	-9.5	1.12	7.16	1.9188	398.9006
515	1509381653	55.0122	-116.1853	2135.1	1287.1	90.7	8.5	-9.7	1.12	7.16	1.9191	399.9891
516	1509381654	55.0121	-116.1841	2134.5	1286.5	90.9	8.5	-9.5	1.12	7.15	1.9179	400.9035
517	1509381655	55.0121	-116.1839	2134.4	1286.4	90.9	8.6	-9.5	1.12	7.15	1.9190	400.0480
518	1509381656	55.0121	-116.1837	2134.3	1286.3	90.9	8.6	-9.5	1.11	7.15	1.9184	399.8105
519	1509381657	55.0120	-116.1835	2134.2	1286.2	90.9	8.6	-9.5	1.11	7.15	1.9188	400.5446
520	1509381658	55.0120	-116.1827	2134.0	1286.0	90.9	8.6	-9.5	1.11	7.15	1.9174	400.8557
521	1509381659	55.0119	-116.1812	2133.7	1283.3	91.1	8.7	-9.5	1.11	7.15	1.9170	397.8580
522	1509381660	55.0118	-116.1797	2133.6	1281.2	90.9	8.7	-9.6	1.11	7.15	1.9179	400.4002
523	1509381661	55.0117	-116.1781	2133.5	1278.9	91.1	8.7	-9.5	1.11	7.14	1.9189	399.3870
524	1509381662	55.0115	-116.1765	2133.4	1277.8	91.1	8.8	-9.6	1.11	7.14	1.9183	400.8044
525	1509381663	55.0114	-116.1750	2133.0	1276.2	91.3	8.9	-9.4	1.11	7.14	1.9177	400.0084
526	1509381664	55.0113	-116.1735	2132.5	1273.2	91.2	8.9	-9.6	1.10	7.14	1.9172	400.3945
527	1509381665	55.0112	-116.1719	2131.8	1268.4	91.4	9.1	-9.4	1.10	7.14	1.9171	399.6501
528	1509381666	55.0111	-116.1704	2130.7	1260.3	91.5	9.2	-9.4	1.10	7.14	1.9170	398.9689
529	1509381667	55.0110	-116.1689	2129.7	1253.3	91.7	9.3	-9.2	1.10	7.14	1.9181	399.7396
530	1509381668	55.0109	-116.1674	2128.6	1246.0	91.7	9.5	-9.3	1.10	7.13	1.9179	400.3130
531	1509381669	55.0107	-116.1658	2127.6	1239.2	91.9	9.6	-9.3	1.10	7.13	1.9180	400.2338
532	1509381670	55.0106	-116.1643	2127.1	1235.3	91.8	9.6	-9.5	1.10	7.13	1.9174	399.0665
533	1509381671	55.0105	-116.1628	2126.9	1229.8	92.1	9.6	-9.2	1.10	7.13	1.9199	399.8391
534	1509381672	55.0104	-116.1612	2127.0	1231.0	92.2	9.6	-9.3	1.10	7.13	1.9184	399.5272
535	1509381673	55.0103	-116.1596	2127.0	1230.6	92.4	9.6	-9.2	1.09	7.13	1.9168	399.5272
536	1509381674	55.0101	-116.1582	2127.1	1228.2	92.3	9.6	-9.4	1.09	7.13	1.9183	399.7929
537	1509381675	55.0100	-116.1566	2127.2	1225.8	92.4	9.6	-9.3	1.09	7.12	1.9192	399.8154
538	1509381676	55.0099	-116.1551	2127.2	1226.5	92.5	9.8	-9.4	1.09	7.12	1.9193	399.8358
539	1509381677	55.0098	-116.1536	2127.1	1230.7	92.7	10.1	-9.3	1.09	7.12	1.9198	400.4472
540	1509381678	55.0096	-116.1521	2126.9	1233.9	92.7	10.0	-9.3	1.09	7.12	1.9160	398.2465
541	1509381679	55.0095	-116.1505	2127.0	1239.0	92.8	10.0	-9.3	1.09	7.12	1.9155	400.1404
542	1509381680	55.0094	-116.1490	2127.3	1244.5	92.8	9.9	-9.4	1.09	7.12	1.9173	400.0475
543	1509381681	55.0092	-116.1474	2127.6	1251.3	92.9	9.8	-9.3	1.09	7.12	1.9173	399.9758
544	1509381682	55.0091	-116.1460	2128.2	1256.5	93.1	9.7	-9.1	1.08	7.12	1.9184	399.7706
545	1509381683	55.0090	-116.1445	2128.9	1259.9	92.8	9.4	-9.6	1.08	7.11	1.9203	399.9865
546	1509381684	55.0088	-116.1429	2129.8	1261.8	92.7	9.0	-9.5	1.08	7.11	1.9165	400.3597
547	1509381685	55.0087	-116.1414	2130.8	1265.8	92.9	9.2	-9.3	1.08	7.11	1.9177	399.5765
548	1509381686	55.0086	-116.1400	2131.6	1271.5	92.7	9.1	-9.6	1.08	7.11	1.9175	398.9744
549	1509381687	55.0085	-116.1385	2132.4	1275.5	92.6	8.9	-9.7	1.08	7.11	1.9173	400.1213
550	1509381688	55.0083	-116.1371	2133.1	1277.5	92.7	8.8	-9.5	1.08	7.11	1.9168	400.0012
551	1509381689	55.0082	-116.1357	2133.6	1281.4	92.5	8.8	-9.6	1.08	7.11	1.9189	399.7024
552	1509381690	55.0081	-116.1343	2134.2	1285.4	92.4	8.7	-9.6	1.08	7.10	1.9165	397.7667
553	1509381691	55.0080	-116.1331	2134.5	1288.5	92.4	8.7	-9.4	1.07	7.10	1.9166	399.7414
554	1509381692	55.0079	-116.1317	2134.9	1294.6	92.3	8.6	-9.3	1.07	7.10	1.9180	399.2113
555	1509381693	55.0078	-116.1304	2135.3	1299.3	92.0	8.6	-9.4	1.07	7.10	1.9180	399.8470
556	1509381694	55.0077	-116.1290	2135.7	1304.9	91.8	8.6	-9.4	1.07	7.10	1.9165	399.1061
557	1509381695	55.0076	-116.1276	2136.0	1310.5	91.5	8.5	-9.7	1.07	7.10	1.9186	400.2617
558	1509381696	55.0074	-116.1262	2136.3	1317.0	91.5	8.5	-9.5	1.07	7.10	1.9182	400.1072
559	1509381697	55.0073	-116.1249	2136.6	1322.2	91.6	8.5	-9.5	1.07	7.09	1.9187	399.9805
560	1509381698	55.0072	-116.1235	2137.0	1328.0	91.2	8.5	-9.8	1.07	7.09	1.9169	400.6085
561	1509381699	55.0071	-116.1221	2137.4	1332.4	91.2	8.9	-9.7	1.06	7.09	1.9169	400.3062
562	1509381700	55.0070	-116.1208	2137.6	1336.6	91.1	8.4	-9.8	1.06	7.09	1.9179	400.3315
563	1509381701	55.0069	-116.1197	2137.9	1338.9	91.0	8.5	-9.9	1.06	7.09	1.9170	399.7544
564	1509381702	55.0068	-116.1183	2138.2	1341.1	90.8	8.5	-10.0	1.06	7.09	1.9173	399.5605
565	1509381703	55.0067	-116.1168	2138.4	1343.6	90.9	8.5	-10.1	1.06	7.09	1.9165	399.8032
566	1509381704	55.0066	-116.1153	2138.6	1345.7	91.0	8.5	-9.9	1.06	7.08	1.9170	399.8032
567	1509381705	55.0065	-116.1140	2138.8	1346.9	90.9	8.6	-9.9	1.06	7.08	1.9180	399.7055
568	1509381706	55.0064	-116.1126	2139.1	1349.1	90.9	8.6	-9.9	1.06	7.08	1.9178	399.3778
569	1509381707	55.0063	-116.1112	2139.3	1352.3	90.9	8.1	-9.8	1.06	7.08	1.9175	399.3778
570	1509381708	55.0062	-116.1099	2139.4	1355.1	91.0	8.1	-9.7	1.05	7.08	1.9171	399.3778
571	1509381709	55.0061	-116.1086	2139.4	1356.7	90.9	8.7	-9.8	1.05	7.08	1.9168	399.3778
572	1509381710	55.0060	-116.1072	2139.2	1358.2	90.9	8.8	-9.6	1.05	7.08	1.9162	400.2656
573	1509381711	55.0059	-116.1058	2138.7	1359.6	90.8	8.9	-9.7	1.05	7.07	1.9179	399.8353
574	1509381712	55.0058	-116.1044	2138.1	1361.5	90.6	9.0	-9.9	1.05	7.07	1.9177	400.8691
575	1509381713	55.0057	-116.1031	2137.5	1363.5	90.6	9.1	-9.9	1.05	7.07	1.9182	398.6813
576	1509381714	55.0057	-116.1018	2137.0	1365.9	90.7	9.1	-9.9	1.05	7.07	1.9184	399.6154
577	1509381715	55.0056	-116.1016	2136.9	1365.8	90.7	8.9	-9.9	1.05	7.07	1.9175	399.7737
578	1509381716	55.0056	-116.1014	2136.8	1365.6	90.7	8.8	-9.9	1.05	7.07	1.9193	400.5709
579	1509381717	55.0056	-116.1013	2136.7	1366.7	90.7	8.7	-9.9	1.04	7.07	1.9189	400.5709
580	1509381718	55.0056	-116.1007	2136.4	1367.3	90.7	8.7	-10.0	1.04	7.06	1.9170	398.7147
581	1509381719	55.0055	-116.0992	2135.8	1370.8	90.8	9.4	-9.9	1.04	7.06	1.9168	400.7169
582	1509381720	55.0054	-116.0976	2135.4	1374.6	90.9	9.5	-9.8	1.04	7.06	1.9165	399.9536
583	1509381721	55.0052	-116.0961	2135.2	1378.7	90.8	9.6	-10.0	1.04	7.06	1.9170	399.9536
584	1509381722	55.0051	-116.0946	2135.0	1383.1	90.9	9.7	-9.9	1.04	7.06	1.9179	400.3801
585	1509381723	55.0050	-116.0930	2134.9	1387.5	91.1	9.8	-9.9	1.04	7.06	1.9182	399.6927
586	1509381724	55.0049	-116.0915	2134.7	1388.7	91.4	9.9	-9.6	1.04	7.06	1.9178	399.5660
587	1509381725	55.0048	-116.0899	2134.5	1392.9	91.6	9.6	-9.5	1.04	7.06	1.9193	398.9660
588	1509381726	55.0047	-116.0884	2134.3	1397.6	91.6	9.5	-9.4	1.03	7.05	1.9181	399.1381
589	1509381727	55.0046	-116.0869	2133.8	1405.1	91.8	9.6	-9.3	1.03	7.05	1.9187	399.4965
590	1509381728	55.0044	-116.0853	2133.2	1413.9	92.0	9.7	-9.2	1.03	7.05	1.9178	400.0265
591	1509381729	55.0043	-116.0838	2132.4	1420.7	92.2	9.8	-9.1	1.03	7.05	1.9173	400.0421
592	1509381730	55.0042	-116.0822	2131.6	1423.7	92.1	10.0	-9.3	1.03	7.05	1.9176	400.3415
593	1509381731	55.0041	-116.0807	2130.8	1423.5	92.3	10.1	-9.2	1.03	7.05	1.9176	399.4338
594	1509381732	55.0039	-116.0792	2130.0	1418.7	92.6	10.2	-9.0	1.03	7.05	1.9189	399.9679
595	1509381733	55.0038	-116.0776	2129.5	1404.4	92.6	9.9	-9.1	1.03	7.04	1.9176	399.9679
596	1509381734	55.0037	-116.0761	2129.3	1391.5	92.6	9.7	-9.2	1.02	7.04	1.9186	399.9099
597	1509381735	55.0036	-116.0746	2129.2	1384.3	92.7	10.0	-9.2	1.02	7.04	1.9182	399.9931
598	1509381736	55.0034	-116.0730	2129.6	1383.4	92.9	10.2	-9.1	1.02	7.04	1.9189	399.6210
599	1509381737	55.0033	-116.0715	2130.0	1382.3	93.0	10.2	-9.1	1.02	7.04	1.9193	399.7350
600	1509381738	55.0032	-116.0699	2130.6	1381.9	92.9	10.1	-9.2	1.02	7.04	1.9184	399.7350
601	1509381739	55.0030	-116.0684	2131.1	1382.4	92.9	10.1	-9.2	1.02	7.04	1.9173	399.6146
602	1509381740	55.0029	-116.0668	2131.6	1385.4	93.0	10.0	-9.3	1.02	7.03	1.9190	398.8913
603	1509381741	55.0028	-116.0653	2132.0	1387.5	93.0	9.8	-9.3	1.02	7.03	1.9198	399.1291
604	1509381742	55.0026	-116.0637	2132.2	1390.7	93.1	9.5	-9.2	1.02	7.03	1.9204	399.2760
605	1509381743	55.0025	-116.0622	2132.3	1396.6	93.5	9.7	-8.7	1.01	7.03	1.9188	400.3011
606	1509381744	55.0024	-116.0607	2132.5	1408.3	93.3	9.9	-9.1	1.01	7.03	1.9190	400.2867
607	1509381745	55.0022	-116.0591	2132.9	1421.7	93.0	9.9	-9.4	1.01	7.03	1.9204	399.5818
608	1509381746	55.0021	-116.0576	2133.5	1421.6	92.8	9.9	-9.7	1.01	7.03	1.9200	400.0734
609	1509381747	55.0020	-116.0561	2134.4	1421.4	92.7	9.6	-9.6	1.01	7.02	1.9182	400.6325
610	1509381748	55.0018	-116.0546	2135.2	1420.2	92.9	9.1	-9.5	1.01	7.02	1.9177	397.2867
611	1509381749	55.0017	-116.0531	2136.1	1420.5	93.0	9.1	-9.2	1.01	7.02	1.9185	399.5875
612	1509381750	55.0016	-116.0518	2137.0	1421.2	92.7	9.0	-9.5	1.01	7.02	1.9189	399.2750
613	1509381751	55.0015	-116.0503	2137.7	1421.0	92.4	8.9	-9.8	1.01	7.02	1.9187	399.8066
614	1509381752	55.0014	-116.0490	2138.1	1420.6	92.3	8.9	-9.6	1.00	7.02	1.9178	399.8887
615	1509381753	55.0013	-116.0479	2138.3	1417.1	92.4	8.9	-9.5	1.00	7.02	1.9187	399.0306
616	1509381754	55.0012	-116.0466	2138.2	1407.7	92.4	8.9	-9.4	1.00	7.01	1.9182	399.7814
617	1509381755	55.0010	-116.0451	2138.0	1403.4	92.1	9.5	-9.5	1.00	7.01	1.9170	399.9613
618	1509381756	55.0009	-116.0436	2137.7	1404.5	91.9	9.6	-9.5	1.00	7.01	1.9185	398.4497
619	1509381757	55.0008	-116.0421	2137.1	1403.6	91.8	9.6	-9.5	1.00	7.01	1.9187	399.8099
620	1509381758	55.0007	-116.0407	2136.5	1401.2	91.7	9.7	-9.3	1.00	7.01	1.9189	399.3223
621	1509381759	55.0006	-116.0394	2136.0	1399.6	91.7	9.7	-9.3	1.00	7.01	1.9176	399.3975
622	1509381760	55.0005	-116.0379	2135.4	1396.2	91.6	9.8	-9.2	0.99	7.01	1.9175	400.4424
623	1509381761	55.0004	-116.0366	2134.8	1394.9	91.4	9.8	-9.2	0.99	7.00	1.9182	400.3539
624	1509381762	55.0003	-116.0351	2134.1	1393.8	91.1	9.4	-9.4	0.99	7.00	1.9179	399.4016
625	1509381763	55.0002	-116.0337	2133.7	1392.0	90.9	9.4	-9.5	0.99	7.00	1.9180	398.8734
626	1509381764	55.0001	-116.0323	2133.6	1391.7	90.7	9.4	-9.6	0.99	7.00	1.9178	400.0995
627	1509381765	55.0000	-116.0310	2133.6	1390.3	90.7	9.5	-9.5	0.99	7.00	1.9171	400.2764
628	1509381766	54.9999	-116.0296	2133.6	1387.7	90.9	9.5	-9.2	0.99	7.00	1.9172	400.3058
629	1509381767	54.9998	-116.0282	2133.6	1384.6	90.9	9.4	-9.1	0.99	7.00	1.9174	400.3352
630	1509381768	54.9997	-116.0268	2133.7	1382.2	90.5	9.5	-9.4	0.99	6.99	1.9176	400.3647
631	1509381769	54.9996	-116.0254	2133.9	1380.3	90.5	9.4	-9.3	0.98	6.99	1.9180	398.6998
632	1509381770	54.9996	-116.0241	2134.0	1378.3	90.6	9.9	-9.1	0.98	6.99	1.9178	399.3979
633	1509381771	54.9995	-116.0226	2134.0	1377.5	90.5	9.4	-9.3	0.98	6.99	1.9190	399.0837
634	1509381772	54.9994	-116.0212	2133.8	1376.0	90.4	9.5	-9.4	0.98	6.99	1.9187	400.2258
635	1509381773	54.9993	-116.0199	2133.5	1373.9	90.4	9.5	-9.3	0.98	6.99	1.9192	399.0520
636	1509381774	54.9992	-116.0186	2133.1	1372.2	90.6	9.7	-9.2	0.98	6.99	1.9205	398.9106
637	1509381775	54.9992	-116.0184	2133.0	1372.1	90.6	9.8	-9.3	0.98	6.99	1.9186	398.9106
638	1509381776	54.9992	-116.0182	2132.9	1371.4	90.6	9.9	-9.3	0.98	6.98	1.9182	399.7836
639	1509381777	54.9992	-116.0180	2132.9	1370.4	90.6	10.1	-9.3	0.98	6.98	1.9184	399.6535
640	1509381778	54.9991	-116.0176	2132.7	1370.1	90.5	9.6	-9.4	0.97	6.98	1.9180	399.5921
641	1509381779	54.9990	-116.0161	2132.1	1368.3	90.6	9.7	-9.3	0.97	6.98	1.9188	399.0346
642	1509381780	54.9989	-116.0144	2131.6	1366.6	90.6	9.7	-9.4	0.97	6.98	1.9199	399.0346
643	1509381781	54.9988	-116.0129	2131.1	1365.0	90.7	9.7	-9.3	0.97	6.98	1.9193	399.4045
644	1509381782	54.9987	-116.0113	2130.6	1364.4	90.7	9.7	-9.3	0.97	6.98	1.9188	399.3289
645	1509381783	54.9986	-116.0098	2130.4	1362.5	90.9	9.8	-9.2	0.97	6.97	1.9186	399.5623
646	1509381784	54.9985	-116.0083	2130.4	1359.1	91.0	10.0	-9.1	0.97	6.97	1.9177	399.0459
647	1509381785	54.9984	-116.0067	2130.6	1357.4	91.1	10.3	-9.0	0.97	6.97	1.9190	399.6471
648	1509381786	54.9983	-116.0052	2131.0	1356.1	91.1	10.1	-9.2	0.97	6.97	1.9186	399.9698
649	1509381787	54.9982	-116.0036	2131.4	1355.7	91.1	10.1	-9.2	0.96	6.97	1.9191	399.7771
650	1509381788	54.9981	-116.0021	2131.8	1353.1	91.3	10.0	-9.1	0.96	6.97	1.9177	399.9840
651	1509381789	54.9980	-116.0005	2132.0	1352.4	91.3	10.0	-9.0	0.96	6.97	1.9185	399.9840
652	1509381790	54.9979	-115.9990	2132.0	1351.9	91.3	10.0	-9.1	0.96	6.96	1.9183	398.5201
653	1509381791	54.9978	-115.9975	2132.0	1351.0	91.3	10.0	-9.3	0.96	6.96	1.9198	400.7992
654	1509381792	54.9977	-115.9959	2131.9	1349.8	91.4	10.0	-9.1	0.96	6.96	1.9186	400.7992
655	1509381793	54.9975	-115.9944	2131.6	1348.6	91.5	10.0	-9.0	0.96	6.96	1.9190	400.0536
656	1509381794	54.9974	-115.9928	2131.4	1347.5	91.5	10.1	-9.2	0.96	6.96	1.9178	400.1890
657	1509381795	54.9973	-115.9913	2131.0	1345.0	91.7	10.2	-9.0	0.95	6.96	1.9181	399.8348
658	1509381796	54.9972	-115.9897	2130.9	1344.0	91.9	10.2	-8.9	0.95	6.96	1.9190	400.5329
659	1509381797	54.9971	-115.9881	2130.8	1343.9	91.8	10.4	-9.0	0.95	6.95	1.9198	400.5329
660	1509381798	54.9970	-115.9865	2130.8	1341.8	91.9	10.8	-9.0	0.95	6.95	1.9188	400.5357
661	1509381799	54.9969	-115.9850	2130.9	1338.2	92.0	10.8	-9.1	0.95	6.95	1.9183	400.0228
662	1509381800	54.9967	-115.9835	2131.0	1335.9	92.2	10.9	-9.0	0.95	6.95	1.9192	399.0677
663	1509381801	54.9966	-115.9819	2130.8	1332.7	92.3	10.9	-9.1	0.95	6.95	1.9196	400.4001
664	1509381802	54.9965	-115.9804	2130.7	1330.0	92.5	11.0	-9.0	0.95	6.95	1.9190	398.5333
665	1509381803	54.9964	-115.9788	2130.6	1326.6	92.8	11.0	-8.8	0.95	6.95	1.9198	398.5333
666	1509381804	54.9962	-115.9772	2130.6	1322.6	92.9	10.6	-8.8	0.94	6.94	1.9185	399.4940
667	1509381805	54.9961	-115.9756	2130.9	1320.0	92.8	10.6	-9.0	0.94	6.94	1.9182	399.7496
668	1509381806	54.9960	-115.9740	2131.5	1317.7	92.7	10.6	-9.3	0.94	6.94	1.9191	400.7730
669	1509381807	54.9959	-115.9727	2132.1	1315.4	93.0	10.6	-9.1	0.94	6.94	1.9188	400.2257
670	1509381808	54.9957	-115.9711	2132.7	1312.7	93.1	10.6	-9.2	0.94	6.94	1.9191	399.7919
671	1509381809	54.9956	-115.9696	2133.2	1312.5	93.1	10.5	-9.4	0.94	6.94	1.9193	400.1946
672	1509381810	54.9955	-115.9682	2133.6	1316.1	93.1	10.4	-9.5	0.94	6.94	1.9190	400.2900
673	1509381811	54.9954	-115.9669	2134.0	1324.4	93.3	10.0	-9.5	0.94	6.93	1.9182	399.0565
674	1509381812	54.9952	-115.9654	2134.4	1338.1	93.6	10.4	-9.2	0.94	6.93	1.9183	400.4998
675	1509381813	54.9951	-115.9640	2134.7	1350.7	93.3	10.3	-9.7	0.93	6.93	1.9173	399.3828
676	1509381814	54.9950	-115.9627	2134.9	1354.7	93.3	10.4	-9.6	0.93	6.93	1.9180	399.3828
677	1509381815	54.9948	-115.9613	2134.9	1352.6	93.6	10.3	-9.4	0.93	6.93	1.9185	399.5610
678	1509381816	54.9947	-115.9599	2134.9	1343.7	93.7	10.4	-9.3	0.93	6.93	1.9197	398.6543
679	1509381817	54.9946	-115.9584	2134.8	1329.4	93.6	9.9	-9.4	0.93	6.93	1.9187	400.3823
680	1509381818	54.9944	-115.9571	2134.7	1315.2	93.5	10.0	-9.4	0.93	6.93	1.9182	400.3823
681	1509381819	54.9943	-115.9557	2134.6	1306.7	93.6	9.9	-9.3	0.93	6.92	1.9192	399.8914
682	1509381820	54.9942	-115.9543	2134.6	1300.1	93.4	9.9	-9.5	0.93	6.92	1.9190	400.1080
683	1509381821	54.9941	-115.9529	2134.8	1297.0	93.3	9.8	-9.4	0.93	6.92	1.9187	400.1080
684	1509381822	54.9939	-115.9515	2135.1	1294.3	93.3	9.8	-9.3	0.92	6.92	1.9180	400.5676
685	1509381823	54.9938	-115.9501	2135.5	1292.6	93.2	9.8	-9.4	0.92	6.92	1.9186	400.5684
686	1509381824	54.9937	-115.9486	2136.0	1292.0	93.0	9.7	-9.3	0.92	6.92	1.9194	400.5868
687	1509381825	54.9936	-115.9473	2136.3	1289.5	92.9	9.6	-9.4	0.92	6.92	1.9185	400.7110
688	1509381826	54.9934	-115.9459	2136.7	1287.5	92.8	10.1	-9.3	0.92	6.91	1.9179	400.6601
689	1509381827	54.9933	-115.9445	2137.0	1284.4	92.6	10.2	-9.3	0.92	6.91	1.9176	400.6601
690	1509381828	54.9932	-115.9432	2137.1	1281.3	92.5	10.2	-9.1	0.92	6.91	1.9174	400.4797
691	1509381829	54.9931	-115.9418	2137.1	1278.3	92.2	10.3	-9.2	0.92	6.91	1.9174	399.9349
692	1509381830	54.9930	-115.9403	2136.9	1275.9	91.9	10.3	-9.2	0.91	6.91	1.9190	399.8439
693	1509381831	54.9929	-115.9390	2136.6	1273.5	91.8	10.3	-9.1	0.91	6.91	1.9181	399.4007
694	1509381832	54.9928	-115.9375	2136.1	1271.1	91.7	10.5	-9.1	0.91	6.91	1.9180	399.2143
695	1509381833	54.9927	-115.9362	2135.7	1266.6	91.6	10.4	-9.1	0.91	6.90	1.9187	400.5944
696	1509381834	54.9926	-115.9348	2135.3	1264.0	91.4	10.6	-9.1	0.91	6.90	1.9187	400.2821
697	1509381835	54.9926	-115.9347	2135.3	1263.9	91.4	10.6	-9.1	0.91	6.90	1.9185	399.2995
698	1509381836	54.9926	-115.9345	2135.2	1263.9	91.4	10.6	-9.1	0.91	6.90	1.9186	399.2316
699	1509381837	54.9926	-115.9343	2135.2	1263.9	91.4	10.6	-9.1	0.91	6.90	1.9184	399.8091
700	1509381838	54.9925	-115.9334	2135.1	1262.3	91.3	10.1	-9.1	0.91	6.90	1.9184	400.5614
701	1509381839	54.9924	-115.9318	2135.1	1263.1	91.0	10.1	-9.3	0.90	6.90	1.9189	399.9857
702	1509381840	54.9923	-115.9303	2135.3	1262.3	91.0	10.1	-9.1	0.90	6.89	1.9181	399.4835
703	1509381841	54.9922	-115.9287	2135.6	1258.6	91.0	10.0	-9.1	0.90	6.89	1.9178	399.7486
704	1509381842	54.9921	-115.9272	2136.0	1256.0	90.9	10.0	-9.1	0.90	6.89	1.9177	400.1027
705	1509381843	54.9920	-115.9256	2136.4	1253.5	90.8	10.0	-9.2	0.90	6.89	1.9179	399.5676
706	1509381844	54.9919	-115.9240	2136.8	1248.3	90.9	10.0	-9.0	0.90	6.89	1.9188	399.9998
707	1509381845	54.9918	-115.9224	2137.1	1242.7	90.8	9.9	-9.1	0.90	6.89	1.9178	399.8382
708	1509381846	54.9917	-115.9209	2137.2	1238.5	90.8	10.0	-9.0	0.90	6.89	1.9187	400.0359
709	1509381847	54.9916	-115.9193	2136.9	1232.5	90.7	10.0	-9.1	0.90	6.88	1.9175	399.8518
710	1509381848	54.9915	-115.9177	2136.4	1226.0	90.7	10.1	-9.0	0.89	6.88	1.9176	399.8018
711	1509381849	54.9914	-115.9162	2135.7	1220.7	90.6	10.2	-9.1	0.89	6.88	1.9182	399.4693
712	1509381850	54.9913	-115.9147	2135.0	1213.0	90.7	10.3	-9.0	0.89	6.88	1.9189	399.8871
713	1509381851	54.9912	-115.9131	2134.2	1207.6	90.7	10.5	-8.9	0.89	6.88	1.9189	400.1988
714	1509381852	54.9911	-115.9116	2133.4	1203.9	90.8	10.5	-8.9	0.89	6.88	1.9187	399.6431
715	1509381853	54.9910	-115.9100	2132.8	1202.1	90.7	10.7	-8.9	0.89	6.88	1.9190	400.0165
716	1509381854	54.9909	-115.9085	2132.1	1203.5	90.9	10.7	-8.8	0.89	6.87	1.9175	400.7995
717	1509381855	54.9908	-115.9069	2131.6	1204.9	90.9	10.8	-8.8	0.89	6.87	1.9182	399.9394
718	1509381856	54.9907	-115.9053	2131.2	1203.5	91.1	10.9	-8.8	0.89	6.87	1.9193	399.9394
719	1509381857	54.9906	-115.9038	2130.8	1197.8	91.1	11.4	-8.7	0.88	6.87	1.9196	400.2054
720	1509381858	54.9905	-115.9022	2130.4	1194.4	91.4	11.4	-8.5	0.88	6.87	1.9188	398.6727
721	1509381859	54.9904	-115.9006	2130.0	1189.4	91.4	11.5	-8.5	0.88	6.87	1.9192	400.3720
722	1509381860	54.9903	-115.8991	2129.5	1187.3	91.4	11.5	-8.5	0.88	6.87	1.9183	400.0775
723	1509381861	54.9902	-115.8975	2128.9	1185.5	91.5	11.6	-8.7	0.88	6.86	1.9204	400.0775
724	1509381862	54.9900	-115.8960	2128.2	1189.3	91.6	11.7	-8.5	0.88	6.86	1.9183	399.6425
725	1509381863	54.9899	-115.8944	2127.4	1199.7	92.0	12.2	-8.3	0.88	6.86	1.9187	401.0240
726	1509381864	54.9898	-115.8928	2126.7	1202.8	91.9	11.8	-8.5	0.88	6.86	1.9190	401.0240
727	1509381865	54.9897	-115.8912	2126.3	1201.3	92.0	11.7	-8.9	0.87	6.86	1.9190	399.4725
728	1509381866	54.9896	-115.8897	2126.0	1192.4	92.2	11.8	-8.7	0.87	6.86	1.9182	398.9518
729	1509381867	54.9895	-115.8883	2125.9	1182.3	92.3	11.8	-8.7	0.87	6.86	1.9188	399.9450
730	1509381868	54.9894	-115.8868	2126.0	1177.2	92.4	11.2	-8.9	0.87	6.86	1.9183	400.1734
731	1509381869	54.9893	-115.8854	2126.3	1174.3	92.5	11.1	-8.9	0.87	6.85	1.9192	400.0025
732	1509381870	54.9892	-115.8840	2126.8	1172.5	92.6	11.0	-9.0	0.87	6.85	1.9182	399.5329
733	1509381871	54.9891	-115.8827	2127.4	1170.2	92.6	10.9	-9.1	0.87	6.85	1.9183	397.8642
734	1509381872	54.9889	-115.8812	2128.3	1168.9	92.7	10.7	-9.1	0.87	6.85	1.9173	397.9516
735	1509381873	54.9888	-115.8798	2129.1	1171.1	92.8	10.6	-9.2	0.87	6.85	1.9173	399.6890
736	1509381874	54.9887	-115.8784	2130.0	1177.4	93.0	10.6	-9.1	0.86	6.85	1.9186	399.6104
737	1509381875	54.9886	-115.8770	2131.1	1189.8	92.9	10.3	-9.2	0.86	6.85	1.9190	399.3637
738	1509381876	54.9885	-115.8755	2132.2	1187.6	92.7	10.6	-9.5	0.86	6.84	1.9192	398.5529
739	1509381877	54.9883	-115.8742	2133.2	1177.9	92.8	10.6	-9.5	0.86	6.84	1.9180	399.2833
740	1509381878	54.9882	-115.8727	2133.9	1163.5	92.7	10.5	-9.6	0.86	6.84	1.9172	400.2224
741	1509381879	54.9881	-115.8713	2134.2	1156.2	92.9	10.5	-9.4	0.86	6.84	1.9176	398.5102
742	1509381880	54.9880	-115.8699	2134.2	1151.3	92.7	10.5	-9.5	0.86	6.84	1.9184	399.3249
743	1509381881	54.9879	-115.8686	2134.2	1149.2	92.7	10.5	-9.6	0.86	6.84	1.9177	398.5497
744	1509381882	54.9877	-115.8672	2134.0	1157.7	92.6	10.9	-9.6	0.86	6.84	1.9175	400.1196
745	1509381883	54.9876	-115.8658	2134.0	1160.7	92.7	10.7	-9.5	0.85	6.83	1.9178	399.9192
746	1509381884	54.9875	-115.8644	2134.2	1156.5	92.5	10.4	-9.6	0.85	6.83	1.9184	399.9157
747	1509381885	54.9874	-115.8631	2134.6	1153.5	92.6	10.4	-9.5	0.85	6.83	1.9170	400.4889
748	1509381886	54.9873	-115.8616	2135.2	1148.9	92.2	10.3	-9.9	0.85	6.83	1.9176	398.3292
749	1509381887	54.9872	-115.8602	2135.6	1147.2	92.2	10.5	-9.6	0.85	6.83	1.9188	398.3292
750	1509381888	54.9870	-115.8589	2136.0	1140.0	92.1	10.7	-9.8	0.85	6.83	1.9199	398.5243
751	1509381889	54.9869	-115.8574	2136.3	1133.2	92.2	10.6	-9.7	0.85	6.83	1.9179	399.7397
752	1509381890	54.9868	-115.8560	2136.4	1126.4	92.0	10.4	-9.7	0.85	6.82	1.9183	399.7397
753	1509381891	54.9867	-115.8546	2136.4	1119.8	92.0	10.3	-9.6	0.85	6.82	1.9178	399.8613
754	1509381892	54.9866	-115.8532	2136.3	1114.3	91.6	10.6	-9.9	0.84	6.82	1.9182	401.1930
755	1509381893	54.9865	-115.8518	2136.0	1107.3	91.5	10.6	-9.8	0.84	6.82	1.9189	401.3529
756	1509381894	54.9864	-115.8506	2135.5	1101.6	91.5	10.7	-9.8	0.84	6.82	1.9188	399.2709
757	1509381895	54.9864	-115.8504	2135.4	1101.4	91.5	10.6	-9.8	0.84	6.82	1.9179	399.6507
758	1509381896	54.9864	-115.8502	2135.3	1100.0	91.4	10.5	-9.8	0.84	6.82	1.9177	399.1505
759	1509381897	54.9863	-115.8500	2135.2	1098.6	91.4	10.4	-9.8	0.84	6.81	1.9188	399.5224
760	1509381898	54.9863	-115.8491	2134.8	1094.1	91.2	10.3	-9.9	0.84	6.81	1.9175	399.5224
761	1509381899	54.9862	-115.8476	2134.0	1087.7	91.2	10.3	-9.8	0.84	6.81	1.9177	398.8736
762	1509381900	54.9861	-115.8460	2133.1	1085.1	91.0	10.3	-10.0	0.83	6.81	1.9173	399.5995
763	1509381901	54.9859	-115.8445	2132.1	1079.2	91.0	10.4	-9.9	0.83	6.81	1.9179	399.5995
764	1509381902	54.9858	-115.8429	2131.3	1077.5	90.9	10.4	-9.9	0.83	6.81	1.9175	401.0300
765	1509381903	54.9857	-115.8414	2130.9	1073.5	91.0	10.5	-9.6	0.83	6.81	1.9177	398.8373
766	1509381904	54.9856	-115.8398	2130.7	1067.3	90.8	10.4	-9.8	0.83	6.80	1.9184	399.3975
767	1509381905	54.9855	-115.8383	2130.9	1055.3	90.7	10.3	-9.9	0.83	6.80	1.9196	399.2164
768	1509381906	54.9854	-115.8368	2131.2	1042.8	90.4	10.3	-10.1	0.83	6.80	1.9174	399.9761
769	1509381907	54.9853	-115.8352	2131.5	1028.8	90.4	10.2	-10.0	0.83	6.80	1.9167	398.4819
770	1509381908	54.9852	-115.8337	2131.9	1018.2	90.4	10.1	-9.9	0.83	6.80	1.9168	401.0103
771	1509381909	54.9851	-115.8321	2132.4	1008.0	90.2	10.0	-10.3	0.82	6.80	1.9162	399.9395
772	1509381910	54.9850	-115.8306	2132.8	1004.9	90.3	9.9	-10.0	0.82	6.80	1.9161	399.7433
773	1509381911	54.9849	-115.8289	2133.5	997.0	90.1	9.7	-10.3	0.82	6.80	1.9176	399.7629
774	1509381912	54.9848	-115.8274	2134.5	987.0	89.9	9.6	-10.4	0.82	6.79	1.9173	400.1327
775	1509381913	54.9847	-115.8259	2135.6	984.1	89.9	9.4	-10.6	0.82	6.79	1.9184	400.3359
776	1509381914	54.9846	-115.8244	2136.5	975.1	89.9	9.3	-10.5	0.82	6.79	1.9182	399.2333
777	1509381915	54.9845	-115.8228	2137.2	969.2	90.0	9.2	-10.4	0.82	6.79	1.9161	400.4068
778	1509381916	54.9844	-115.8213	2137.8	966.5	89.8	9.2	-10.5	0.82	6.79	1.9161	400.4092
779	1509381917	54.9843	-115.8198	2138.2	964.4	89.5	9.1	-10.8	0.82	6.79	1.9159	398.9754
780	1509381918	54.9842	-115.8183	2138.3	976.2	89.7	9.1	-10.5	0.81	6.79	1.9170	398.9754
781	1509381919	54.9840	-115.8167	2138.4	995.5	89.8	8.5	-10.6	0.81	6.78	1.9173	400.4721
782	1509381920	54.9839	-115.8152	2138.3	1018.2	89.9	8.5	-10.4	0.81	6.78	1.9175	400.4759
783	1509381921	54.9838	-115.8137	2138.2	1033.2	89.8	8.4	-10.5	0.81	6.78	1.9174	399.8414
784	1509381922	54.9837	-115.8122	2138.1	1046.1	89.6	8.4	-10.8	0.81	6.78	1.9168	399.1762
785	1509381923	54.9836	-115.8106	2138.0	1051.7	89.7	8.4	-10.7	0.81	6.78	1.9164	399.3744
786	1509381924	54.9835	-115.8091	2137.8	1053.4	89.8	8.4	-10.6	0.81	6.78	1.9174	399.2292
787	1509381925	54.9834	-115.8076	2137.5	1054.2	89.8	8.4	-10.6	0.81	6.78	1.9181	399.2292
788	1509381926	54.9833	-115.8061	2137.2	1055.0	89.7	8.4	-10.7	0.80	6.77	1.9175	399.2079
789	1509381927	54.9832	-115.8047	2136.8	1055.8	89.9	8.4	-10.6	0.80	6.77	1.9167	400.7999
790	1509381928	54.9832	-115.8034	2136.5	1060.2	89.9	8.4	-10.7	0.80	6.77	1.9176	400.0243
791	1509381929	54.9831	-115.8020	2136.3	1065.3	90.0	8.4	-10.7	0.80	6.77	1.9181	400.0243
792	1509381930	54.9830	-115.8006	2136.1	1071.7	90.0	8.4	-10.8	0.80	6.77	1.9181	400.4580
793	1509381931	54.9829	-115.7992	2136.0	1079.3	90.2	8.4	-10.7	0.80	6.77	1.9168	399.7261
794	1509381932	54.9828	-115.7979	2135.8	1085.1	90.5	8.5	-10.6	0.80	6.77	1.9167	399.9058
795	1509381933	54.9827	-115.7964	2135.8	1091.2	90.6	8.4	-10.7	0.80	6.76	1.9188	399.0665
796	1509381934	54.9826	-115.7951	2135.7	1097.7	90.7	8.4	-10.7	0.80	6.76	1.9179	399.4220
797	1509381935	54.9824	-115.7937	2135.5	1101.8	90.8	8.5	-10.7	0.79	6.76	1.9166	400.8609
798	1509381936	54.9823	-115.7923	2135.3	1108.2	91.0	8.1	-10.7	0.79	6.76	1.9165	400.5066
799	1509381937	54.9822	-115.7910	2135.1	1113.5	91.1	7.9	-10.6	0.79	6.76	1.9173	400.5552
800	1509381938	54.9821	-115.7896	2135.0	1117.0	91.2	7.9	-10.6	0.79	6.76	1.9164	398.5755
801	1509381939	54.9820	-115.7882	2134.8	1121.5	91.4	7.9	-10.6	0.79	6.76	1.9168	400.0936
802	1509381940	54.9819	-115.7868	2134.7	1125.0	91.3	7.9	-10.8	0.79	6.75	1.9175	399.6804
803	1509381941	54.9818	-115.7854	2134.7	1128.7	91.5	7.9	-10.8	0.79	6.75	1.9170	399.3734
804	1509381942	54.9817	-115.7840	2134.8	1132.5	91.6	8.0	-10.8	0.79	6.75	1.9176	399.3734
805	1509381943	54.9816	-115.7827	2134.9	1137.1	91.8	8.0	-10.7	0.79	6.75	1.9174	399.6330
806	1509381944	54.9814	-115.7813	2135.1	1142.2	91.9	7.9	-10.8	0.78	6.75	1.9173	400.9292
807	1509381945	54.9813	-115.7801	2135.4	1145.8	92.0	7.9	-10.9	0.78	6.75	1.9162	399.5623
808	1509381946	54.9812	-115.7786	2135.8	1152.1	92.1	8.0	-10.7	0.78	6.75	1.9165	399.8609
809	1509381947	54.9811	-115.7772	2136.1	1157.1	92.3	7.9	-10.6	0.78	6.74	1.9168	399.8609
810	1509381948	54.9809	-115.7759	2136.5	1160.7	92.3	7.9	-10.7	0.78	6.74	1.9171	399.8609
811	1509381949	54.9808	-115.7745	2136.8	1165.1	92.4	7.9	-10.7	0.78	6.74	1.9175	399.8609
812	1509381950	54.9807	-115.7731	2137.1	1169.8	92.4	8.0	-10.6	0.78	6.74	1.9178	399.8609
813	1509381951	54.9806	-115.7718	2137.2	1173.4	92.3	8.0	-10.8	0.78	6.74	1.9181	399.8609
814	1509381952	54.9804	-115.7703	2137.3	1180.3	92.3	8.3	-10.7	0.78	6.74	1.9184	399.8609
815	1509381953	54.9803	-115.7690	2137.3	1187.9	92.3	8.5	-10.7	0.77	6.74	1.9177	398.2235
816	1509381954	54.9802	-115.7677	2137.2	1199.8	92.4	8.3	-10.6	0.77	6.74	1.9169	398.8366
817	1509381955	54.9802	-115.7676	2137.2	1199.8	92.4	8.3	-10.6	0.77	6.73	1.9183	400.3041
818	1509381956	54.9802	-115.7675	2137.2	1199.8	92.4	8.3	-10.6	0.77	6.73	1.9177	400.1276
819	1509381957	54.9802	-115.7674	2137.2	1201.7	92.4	8.3	-10.7	0.77	6.73	1.9180	400.3257
820	1509381958	54.9802	-115.7673	2137.1	1201.7	92.4	8.3	-10.7	0.77	6.73	1.9175	399.5320
821	1509381959	54.9802	-115.7672	2137.1	1201.7	92.4	8.4	-10.7	0.77	6.73	1.9188	399.5320
822	1509381960	54.9801	-115.7671	2137.1	1203.9	92.4	8.4	-10.7	0.77	6.73	1.9182	399.5663
823	1509381961	54.9801	-115.7670	2137.1	1203.9	92.4	8.4	-10.7	0.76	6.73	1.9187	400.3510
824	1509381962	54.9800	-115.7656	2137.0	1213.1	92.2	9.0	-10.9	0.76	6.72	1.9182	399.6235
825	1509381963	54.9799	-115.7641	2137.0	1220.4	92.3	9.5	-10.8	0.76	6.72	1.9190	399.6235
826	1509381964	54.9797	-115.7625	2137.0	1222.1	92.5	9.2	-10.6	0.76	6.72	1.9189	399.9234
827	1509381965	54.9796	-115.7609	2137.0	1223.0	92.6	9.3	-10.5	0.76	6.72	1.9194	398.9355
828	1509381966	54.9794	-115.7595	2136.8	1216.8	92.5	9.5	-10.5	0.76	6.72	1.9199	398.8276
829	1509381967	54.9793	-115.7579	2136.6	1203.8	92.5	9.7	-10.5	0.76	6.72	1.9201	398.8276
830	1509381968	54.9792	-115.7564	2136.0	1205.3	92.9	9.9	-10.0	0.76	6.72	1.9182	400.2512
831	1509381969	54.9790	-115.7548	2135.3	1207.5	93.2	10.2	-9.5	0.76	6.71	1.9184	399.2356
832	1509381970	54.9789	-115.7532	2134.5	1199.1	93.1	10.4	-9.6	0.75	6.71	1.9190	399.6345
833	1509381971	54.9788	-115.7518	2133.6	1187.8	92.8	10.6	-9.7	0.75	6.71	1.9190	399.1835
834	1509381972	54.9786	-115.7503	2132.8	1175.4	93.0	10.5	-9.4	0.75	6.71	1.9198	398.7669
835	1509381973	54.9785	-115.7486	2131.8	1167.1	93.2	10.8	-9.2	0.75	6.71	1.9187	399.9739
836	1509381974	54.9783	-115.7470	2130.9	1158.7	93.0	11.0	-9.4	0.75	6.71	1.9195	400.4051
837	1509381975	54.9782	-115.7454	2130.1	1152.2	92.8	11.2	-9.5	0.75	6.71	1.9190	400.1847
838	1509381976	54.9781	-115.7438	2129.3	1148.5	93.1	11.5	-9.3	0.75	6.70	1.9185	400.0953
839	1509381977	54.9779	-115.7423	2128.4	1143.7	93.3	11.7	-9.0	0.75	6.70	1.9188	399.8594
840	1509381978	54.9778	-115.7406	2127.7	1139.7	93.1	11.9	-9.4	0.75	6.70	1.9192	399.5637
841	1509381979	54.9777	-115.7390	2127.0	1134.3	93.3	12.1	-9.0	0.74	6.70	1.9200	399.6191
842	1509381980	54.9775	-115.7375	2126.6	1127.8	93.2	12.2	-9.2	0.74	6.70	1.9205	400.0114
843	1509381981	54.9774	-115.7359	2126.0	1124.9	92.9	12.3	-9.5	0.74	6.70	1.9192	399.8809
844	1509381982	54.9773	-115.7343	2125.6	1123.9	92.7	12.3	-9.9	0.74	6.70	1.9182	399.4850
845	1509381983	54.9771	-115.7327	2125.0	1121.0	92.9	12.5	-9.8	0.74	6.69	1.9183	399.0967
846	1509381984	54.9770	-115.7311	2124.4	1119.4	93.3	12.4	-9.5	0.74	6.69	1.9179	397.5270
847	1509381985	54.9769	-115.7295	2123.6	1110.6	93.6	12.3	-9.1	0.74	6.69	1.9187	398.8189
848	1509381986	54.9767	-115.7279	2123.1	1101.1	93.4	12.3	-9.2	0.74	6.69	1.9194	399.0743
849	1509381987	54.9766	-115.7263	2122.7	1094.7	93.3	12.3	-9.3	0.74	6.69	1.9192	400.2959
850	1509381988	54.9764	-115.7247	2122.7	1087.7	93.1	12.2	-9.5	0.73	6.69	1.9186	399.6813
851	1509381989	54.9763	-115.7231	2123.0	1081.3	93.0	12.4	-9.7	0.73	6.69	1.9191	399.6819
852	1509381990	54.9762	-115.7216	2123.6	1073.0	92.9	12.5	-9.8	0.73	6.68	1.9177	399.6819
853	1509381991	54.9760	-115.7199	2124.4	1066.6	92.9	12.3	-9.9	0.73	6.68	1.9178	399.1604
854	1509381992	54.9759	-115.7184	2125.3	1064.1	93.2	12.1	-9.5	0.73	6.68	1.9197	399.9179
855	1509381993	54.9757	-115.7167	2126.3	1060.1	93.2	12.2	-9.6	0.73	6.68	1.9190	400.3583
856	1509381994	54.9756	-115.7151	2127.2	1055.4	92.5	12.2	-10.3	0.73	6.68	1.9197	399.0464
857	1509381995	54.9755	-115.7136	2128.0	1050.7	92.6	12.1	-10.0	0.73	6.68	1.9185	399.0464
858	1509381996	54.9753	-115.7120	2128.8	1047.8	92.9	11.9	-9.9	0.72	6.68	1.9186	399.0244
859	1509381997	54.9752	-115.7104	2129.5	1038.8	92.9	11.8	-9.8	0.72	6.67	1.9195	400.5242
860	1509381998	54.9751	-115.7088	2129.8	1030.1	92.7	11.3	-9.8	0.72	6.67	1.9191	400.1160
861	1509381999	54.9749	-115.7072	2130.1	1013.8	92.5	11.0	-10.1	0.72	6.67	1.9181	400.5445
862	1509382000	54.9748	-115.7057	2130.5	1002.9	92.0	10.8	-10.8	0.72	6.67	1.9180	397.9701
863	1509382001	54.9747	-115.7042	2130.9	987.6	92.5	10.6	-10.2	0.72	6.67	1.9172	397.2699
864	1509382002	54.9745	-115.7026	2131.4	978.1	92.5	10.7	-10.2	0.72	6.67	1.9175	399.6252
865	1509382003	54.9744	-115.7010	2132.2	968.3	92.6	11.0	-10.0	0.72	6.67	1.9173	400.4087
866	1509382004	54.9742	-115.6994	2133.0	967.8	91.8	11.0	-10.7	0.72	6.67	1.9186	399.3932
867	1509382005	54.9741	-115.6979	2133.6	966.0	92.2	10.9	-9.8	0.71	6.66	1.9181	400.6142
868	1509382006	54.9740	-115.6963	2133.9	968.0	91.4	10.6	-10.6	0.71	6.66	1.9185	400.6142
869	1509382007	54.9739	-115.6947	2133.7	961.7	91.6	10.1	-10.3	0.71	6.66	1.9190	400.6142
870	1509382008	54.9737	-115.6931	2133.5	959.6	91.2	10.1	-10.6	0.71	6.66	1.9195	400.6142
871	1509382009	54.9736	-115.6916	2133.3	962.6	91.0	10.4	-10.6	0.71	6.66	1.9199	400.6315
872	1509382010	54.9735	-115.6901	2133.0	975.4	90.9	10.3	-10.5	0.71	6.66	1.9174	398.2774
873	1509382011	54.9734	-115.6885	2132.7	991.0	90.7	10.2	-10.4	0.71	6.66	1.9185	400.0225
874	1509382012	54.9733	-115.6870	2132.3	1003.7	90.8	9.9	-10.1	0.71	6.65	1.9180	400.7474
875	1509382013	54.9732	-115.6854	2132.1	1013.7	90.1	9.4	-10.5	0.71	6.65	1.9173	399.5189
876	1509382014	54.9731	-115.6838	2131.8	1023.1	90.2	9.3	-10.1	0.70	6.65	1.9170	399.5189
877	1509382015	54.9730	-115.6826	2131.6	1029.9	89.7	9.4	-10.5	0.70	6.65	1.9189	399.8116
878	1509382016	54.9730	-115.6824	2131.6	1031.3	89.6	9.4	-10.6	0.70	6.65	1.9172	398.2633
879	1509382017	54.9729	-115.6821	2131.6	1031.6	89.5	9.5	-10.7	0.70	6.65	1.9182	398.8141
880	1509382018	54.9729	-115.6812	2131.5	1033.5	89.3	9.5	-10.7	0.70	6.65	1.9183	398.8141
881	1509382019	54.9728	-115.6797	2131.2	1036.2	89.6	9.5	-9.9	0.70	6.64	1.9173	399.6194
882	1509382020	54.9727	-115.6782	2131.1	1043.0	89.3	9.7	-10.1	0.70	6.64	1.9163	399.6952
883	1509382021	54.9726	-115.6767	2131.1	1048.0	89.1	9.6	-9.9	0.70	6.64	1.9167	400.2350
884	1509382022	54.9725	-115.6752	2131.2	1051.9	88.5	9.4	-10.3	0.70	6.64	1.9169	399.7069
885	1509382023	54.9724	-115.6736	2131.2	1056.8	88.2	9.3	-10.5	0.69	6.64	1.9182	399.2893
886	1509382024	54.9724	-115.6721	2131.2	1060.8	88.4	9.0	-9.9	0.69	6.64	1.9166	399.0624
887	1509382025	54.9723	-115.6706	2131.3	1064.6	87.8	8.9	-10.3	0.69	6.64	1.9168	399.5625
888	1509382026	54.9722	-115.6691	2131.4	1070.1	87.5	8.8	-10.3	0.69	6.63	1.9186	399.4917
889	1509382027	54.9722	-115.6675	2131.5	1072.8	87.3	8.6	-10.3	0.69	6.63	1.9175	398.3616
890	1509382028	54.9721	-115.6661	2131.8	1079.1	87.1	8.5	-10.2	0.69	6.63	1.9185	399.3496
891	1509382029	54.9720	-115.6645	2132.1	1087.1	87.2	8.8	-9.9	0.69	6.63	1.9166	400.4713
892	1509382030	54.9720	-115.6630	2132.5	1098.5	86.9	8.2	-10.1	0.69	6.63	1.9169	400.0674
893	1509382031	54.9719	-115.6615	2132.8	1107.1	86.7	8.0	-10.1	0.68	6.63	1.9171	399.1923
894	1509382032	54.9719	-115.6600	2133.1	1116.3	87.0	7.8	-9.7	0.68	6.63	1.9168	400.5666
895	1509382033	54.9718	-115.6586	2133.7	1121.5	86.8	7.7	-9.8	0.68	6.62	1.9165	400.2997
896	1509382034	54.9718	-115.6571	2134.3	1121.3	86.8	7.6	-9.6	0.68	6.62	1.9187	399.3877
897	1509382035	54.9717	-115.6556	2135.0	1123.5	86.9	7.9	-9.5	0.68	6.62	1.9172	400.0194
898	1509382036	54.9716	-115.6540	2135.4	1128.7	87.0	7.8	-9.3	0.68	6.62	1.9188	398.5291
899	1509382037	54.9716	-115.6526	2135.9	1131.4	86.7	7.6	-9.7	0.68	6.62	1.9188	399.9372
900	1509382038	54.9715	-115.6511	2136.3	1134.7	86.9	7.6	-9.6	0.68	6.62	1.9165	399.9991
901	1509382039	54.9715	-115.6496	2136.4	1140.1	87.0	7.5	-9.5	0.68	6.62	1.9168	399.2870
902	1509382040	54.9714	-115.6482	2136.4	1146.0	87.3	7.5	-9.2	0.67	6.61	1.9156	399.3415
903	1509382041	54.9714	-115.6467	2136.4	1152.8	87.3	7.4	-9.2	0.67	6.61	1.9172	399.4446
904	1509382042	54.9713	-115.6452	2136.4	1159.7	87.4	7.4	-9.1	0.67	6.61	1.9167	398.9887
905	1509382043	54.9713	-115.6438	2136.3	1165.3	87.6	7.4	-9.0	0.67	6.61	1.9178	399.9607
906	1509382044	54.9712	-115.6423	2136.3	1171.2	87.8	7.4	-9.0	0.67	6.61	1.9159	400.3390
907	1509382045	54.9712	-115.6409	2136.3	1177.6	87.8	7.4	-9.3	0.67	6.61	1.9164	399.9362
908	1509382046	54.9711	-115.6394	2136.3	1189.7	88.0	7.4	-9.4	0.67	6.61	1.9171	399.9387
909	1509382047	54.9710	-115.6380	2136.4	1200.4	88.4	7.4	-9.2	0.67	6.61	1.9179	400.4369
910	1509382048	54.9710	-115.6367	2136.5	1206.6	88.8	7.4	-9.0	0.67	6.60	1.9172	400.4369
911	1509382049	54.9709	-115.6353	2136.6	1210.7	89.1	7.4	-8.9	0.66	6.60	1.9171	400.0435
912	1509382050	54.9708	-115.6340	2136.7	1212.0	89.3	7.4	-8.9	0.66	6.60	1.9183	399.6634
913	1509382051	54.9708	-115.6327	2136.8	1212.7	89.4	7.1	-8.9	0.66	6.60	1.9180	399.6634
914	1509382052	54.9707	-115.6313	2137.0	1207.0	89.7	7.0	-8.9	0.66	6.60	1.9186	400.9728
915	1509382053	54.9706	-115.6300	2137.1	1193.4	90.0	7.0	-8.8	0.66	6.60	1.9167	400.1871
916	1509382054	54.9705	-115.6286	2137.3	1187.0	90.2	7.1	-8.9	0.66	6.60	1.9167	399.2169
917	1509382055	54.9704	-115.6273	2137.6	1182.9	90.2	7.1	-9.2	0.66	6.59	1.9166	397.6329
918	1509382056	54.9703	-115.6260	2137.8	1181.8	90.5	7.2	-9.1	0.66	6.59	1.9179	397.6989
919	1509382057	54.9703	-115.6247	2138.1	1183.1	90.7	7.2	-9.2	0.65	6.59	1.9175	399.6321
920	1509382058	54.9702	-115.6233	2138.2	1183.5	91.0	7.3	-9.2	0.65	6.59	1.9163	401.1637
921	1509382059	54.9701	-115.6220	2138.3	1184.6	91.2	7.4	-9.2	0.65	6.59	1.9182	399.4631
922	1509382060	54.9700	-115.6206	2138.3	1188.9	91.6	7.3	-9.2	0.65	6.59	1.9165	399.1708
923	1509382061	54.9699	-115.6193	2138.2	1196.2	91.7	7.2	-9.4	0.65	6.59	1.9170	399.0816
924	1509382062	54.9698	-115.6179	2137.9	1202.2	92.0	7.4	-9.5	0.65	6.58	1.9163	399.2438
925	1509382063	54.9696	-115.6166	2137.5	1207.5	92.3	7.3	-9.6	0.65	6.58	1.9186	400.5519
926	1509382064	54.9695	-115.6153	2137.0	1209.3	92.6	7.2	-9.5	0.65	6.58	1.9174	400.6167
927	1509382065	54.9694	-115.6140	2136.4	1211.3	93.1	7.4	-9.4	0.65	6.58	1.9175	399.3354
928	1509382066	54.9693	-115.6125	2135.8	1213.4	93.4	7.6	-9.3	0.64	6.58	1.9170	400.1643
929	1509382067	54.9692	-115.6112	2135.4	1208.1	93.4	7.8	-9.7	0.64	6.58	1.9162	400.1643
930	1509382068	54.9690	-115.6098	2135.1	1203.8	93.6	8.0	-9.8	0.64	6.58	1.9154	400.1643
931	1509382069	54.9689	-115.6085	2135.1	1196.8	94.0	8.1	-9.7	0.64	6.57	1.9166	399.5236
932	1509382070	54.9687	-115.6071	2135.5	1190.5	94.2	8.2	-9.8	0.64	6.57	1.9179	400.0271
933	1509382071	54.9686	-115.6057	2136.0	1186.9	94.5	8.2	-9.7	0.64	6.57	1.9172	400.0271
934	1509382072	54.9685	-115.6043	2136.8	1191.8	94.6	7.8	-9.8	0.64	6.57	1.9176	400.0277
935	1509382073	54.9683	-115.6030	2137.7	1199.0	94.9	8.0	-9.7	0.64	6.57	1.9168	399.8664
936	1509382074	54.9682	-115.6017	2138.5	1204.8	94.9	8.1	-9.9	0.64	6.57	1.9170	399.1977
937	1509382075	54.9682	-115.6015	2138.6	1204.2	95.0	8.2	-10.0	0.63	6.57	1.9167	400.1594
938	1509382076	54.9681	-115.6013	2138.7	1203.8	95.0	8.4	-10.0	0.63	6.56	1.9177	400.1594
939	1509382077	54.9681	-115.6011	2138.8	1203.9	95.0	8.5	-10.0	0.63	6.56	1.9178	399.7409
940	1509382078	54.9680	-115.6002	2139.1	1196.7	95.1	8.6	-10.0	0.63	6.56	1.9172	398.9610
941	1509382079	54.9679	-115.5988	2139.4	1186.4	95.2	8.7	-10.1	0.63	6.56	1.9171	398.8146
942	1509382080	54.9677	-115.5972	2139.2	1177.3	95.3	8.5	-10.0	0.63	6.56	1.9182	400.1509
943	1509382081	54.9675	-115.5957	2138.5	1170.1	95.3	8.7	-10.3	0.63	6.56	1.9188	398.8899
944	1509382082	54.9673	-115.5942	2137.6	1164.3	95.4	9.0	-10.3	0.63	6.56	1.9175	400.1754
945	1509382083	54.9671	-115.5926	2136.6	1156.3	95.4	9.3	-10.4	0.63	6.55	1.9176	399.4376
946	1509382084	54.9670	-115.5910	2135.5	1148.1	95.7	9.6	-10.3	0.62	6.55	1.9173	399.0758
947	1509382085	54.9668	-115.5895	2134.4	1140.1	95.9	9.9	-10.1	0.62	6.55	1.9182	399.4490
948	1509382086	54.9666	-115.5879	2133.3	1130.6	95.9	9.7	-10.3	0.62	6.55	1.9176	399.3712
949	1509382087	54.9664	-115.5863	2132.3	1122.6	95.8	9.9	-10.5	0.62	6.55	1.9176	400.0052
950	1509382088	54.9662	-115.5848	2131.6	1116.0	96.0	10.1	-10.3	0.62	6.55	1.9172	400.0052
951	1509382089	54.9660	-115.5832	2131.0	1106.3	96.0	10.3	-10.5	0.62	6.55	1.9177	399.1990
952	1509382090	54.9658	-115.5817	2130.3	1105.6	96.1	10.0	-10.4	0.62	6.54	1.9184	400.2552
953	1509382091	54.9657	-115.5801	2129.3	1103.1	96.0	10.2	-10.7	0.62	6.54	1.9173	400.2125
954	1509382092	54.9655	-115.5785	2128.3	1099.3	96.4	10.8	-10.4	0.61	6.54	1.9177	400.3631
955	1509382093	54.9653	-115.5769	2127.2	1095.2	96.5	10.6	-10.3	0.61	6.54	1.9172	400.3735
956	1509382094	54.9651	-115.5753	2126.2	1097.1	96.6	10.7	-10.2	0.61	6.54	1.9179	400.0658
957	1509382095	54.9649	-115.5737	2125.4	1101.4	96.5	10.3	-10.2	0.61	6.54	1.9181	398.6301
958	1509382096	54.9647	-115.5721	2124.7	1110.7	96.7	10.3	-10.0	0.61	6.54	1.9174	400.2276
959	1509382097	54.9645	-115.5705	2124.1	1124.1	95.9	10.2	-10.9	0.61	6.54	1.9173	399.4046
960	1509382098	54.9643	-115.5689	2123.7	1126.0	96.2	10.2	-10.5	0.61	6.53	1.9190	399.5070
961	1509382099	54.9641	-115.5673	2123.4	1120.4	96.2	10.5	-10.6	0.61	6.53	1.9179	399.5730
962	1509382100	54.9639	-115.5657	2123.4	1123.5	96.5	10.6	-10.1	0.61	6.53	1.9172	399.8270
963	1509382101	54.9637	-115.5641	2123.8	1124.4	95.6	10.4	-10.9	0.60	6.53	1.9182	398.8596
964	1509382102	54.9635	-115.5626	2124.1	1128.7	95.7	10.3	-10.5	0.60	6.53	1.9178	398.8026
965	1509382103	54.9633	-115.5610	2124.6	1138.2	95.5	10.4	-10.5	0.60	6.53	1.9181	400.1258
966	1509382104	54.9632	-115.5594	2124.8	1143.3	95.4	10.5	-10.4	0.60	6.53	1.9171	399.7425
967	1509382105	54.9630	-115.5578	2125.1	1147.1	95.1	9.9	-10.5	0.60	6.52	1.9169	400.3246
968	1509382106	54.9628	-115.5566	2125.4	1153.1	95.1	9.9	-10.1	0.60	6.52	1.9177	400.1224
969	1509382107	54.9627	-115.5551	2125.7	1154.2	95.0	9.9	-10.0	0.60	6.52	1.9181	399.8385
970	1509382108	54.9625	-115.5537	2126.1	1156.7	94.6	9.7	-10.0	0.60	6.52	1.9177	400.1760
971	1509382109	54.9624	-115.5522	2126.4	1162.4	94.0	9.4	-10.3	0.60	6.52	1.9175	399.2837
972	1509382110	54.9622	-115.5508	2126.8	1170.0	93.7	9.2	-10.3	0.59	6.52	1.9185	399.2032
973	1509382111	54.9621	-115.5494	2127.1	1172.1	93.3	9.2	-10.4	0.59	6.52	1.9197	399.0357
974	1509382112	54.9620	-115.5480	2127.5	1175.5	93.1	9.3	-10.2	0.59	6.51	1.9178	402.0753
975	1509382113	54.9618	-115.5466	2128.0	1177.5	92.9	9.0	-10.2	0.59	6.51	1.9184	399.4126
976	1509382114	54.9617	-115.5453	2128.6	1179.9	92.4	8.8	-10.4	0.59	6.51	1.9166	399.6596
977	1509382115	54.9616	-115.5439	2129.2	1179.5	92.3	8.8	-10.1	0.59	6.51	1.9171	399.8861
978	1509382116	54.9615	-115.5426	2129.9	1181.3	91.9	8.6	-10.3	0.59	6.51	1.9177	399.8861
979	1509382117	54.9614	-115.5411	2130.8	1183.8	91.7	8.2	-10.1	0.59	6.51	1.9181	399.9139
980	1509382118	54.9612	-115.5397	2131.8	1188.5	91.2	8.2	-10.2	0.59	6.51	1.9187	400.8550
981	1509382119	54.9611	-115.5384	2132.9	1192.0	91.0	8.0	-9.9	0.58	6.50	1.9185	400.3486
982	1509382120	54.9610	-115.5370	2134.0	1192.6	90.8	7.7	-9.6	0.58	6.50	1.9182	400.3460
983	1509382121	54.9610	-115.5357	2135.1	1198.4	90.4	7.7	-9.5	0.58	6.50	1.9178	401.4877
984	1509382122	54.9609	-115.5343	2136.1	1205.1	89.8	7.8	-9.7	0.58	6.50	1.9174	398.9127
985	1509382123	54.9608	-115.5329	2136.9	1208.8	89.4	7.6	-9.5	0.58	6.50	1.9168	399.3571
986	1509382124	54.9607	-115.5316	2137.3	1212.2	89.1	7.9	-9.6	0.58	6.50	1.9183	400.3096
987	1509382125	54.9606	-115.5304	2137.5	1212.5	88.4	7.7	-10.0	0.58	6.50	1.9182	400.0879
988	1509382126	54.9606	-115.5289	2137.0	1209.4	88.1	7.6	-10.0	0.58	6.49	1.9179	400.0879
989	1509382127	54.9605	-115.5276	2136.3	1200.7	88.0	7.6	-10.0	0.57	6.49	1.9176	400.0879
990	1509382128	54.9604	-115.5262	2135.9	1195.9	87.8	7.5	-9.8	0.57	6.49	1.9173	400.0879
991	1509382129	54.9604	-115.5249	2135.7	1196.7	87.5	7.5	-10.0	0.57	6.49	1.9170	399.6669
992	1509382130	54.9603	-115.5235	2135.8	1198.1	87.3	7.9	-9.9	0.57	6.49	1.9172	399.9731
993	1509382131	54.9603	-115.5222	2136.3	1199.2	87.3	7.8	-9.6	0.57	6.49	1.9180	400.0431
994	1509382132	54.9602	-115.5209	2137.1	1201.9	87.4	7.7	-9.3	0.57	6.49	1.9166	400.0431
995	1509382133	54.9602	-115.5195	2138.0	1201.6	87.3	7.5	-9.3	0.57	6.48	1.9154	397.4995
996	1509382134	54.9601	-115.5183	2138.9	1200.5	87.1	7.4	-9.3	0.57	6.48	1.9155	397.5750
997	1509382135	54.9601	-115.5181	2139.1	1200.7	87.1	7.4	-9.3	0.57	6.48	1.9157	397.6504
998	1509382136	54.9601	-115.5179	2139.2	1200.9	87.1	7.4	-9.3	0.56	6.48	1.9158	397.7259
999	1509382137	54.9601	-115.5178	2139.3	1200.7	87.1	7.4	-9.3	0.56	6.48	1.9159	397.8013
1000	1509382138	54.9601	-115.5170	2139.8	1200.4	87.0	7.4	-9.3	0.56	6.48	1.9160	397.8768
1001	1509382139	54.9600	-115.5155	2140.4	1202.1	87.0	7.3	-9.1	0.56	6.48	1.9161	397.9522
1002	1509382140	54.9600	-115.5140	2140.7	1203.8	86.9	7.2	-9.2	0.56	6.48	1.9162	398.0277
1003	1509382141	54.9599	-115.5126	2140.6	1207.3	87.1	7.2	-9.1	0.56	6.47	1.9164	398.1031
1004	1509382142	54.9599	-115.5113	2140.6	1210.9	87.2	7.2	-9.1	0.56	6.47	1.9165	398.1786
1005	1509382143	54.9598	-115.5099	2140.6	1214.7	87.4	7.2	-9.2	0.56	6.47	1.9166	398.2540
1006	1509382144	54.9597	-115.5086	2140.6	1214.4	87.5	7.2	-9.2	0.56	6.47	1.9167	398.3295
1007	1509382145	54.9597	-115.5073	2140.6	1212.6	87.7	7.2	-9.2	0.55	6.47	1.9168	398.4049
1008	1509382146	54.9596	-115.5059	2140.6	1212.6	87.8	7.2	-9.3	0.55	6.47	1.9169	398.4804
1009	1509382147	54.9596	-115.5046	2140.6	1214.6	88.0	7.2	-9.3	0.55	6.47	1.9170	398.5558
1010	1509382148	54.9595	-115.5033	2140.6	1217.5	88.1	7.2	-9.4	0.55	6.46	1.9172	398.6312
1011	1509382149	54.9594	-115.5019	2140.6	1217.0	88.3	7.2	-9.4	0.55	6.46	1.9173	398.7067
1012	1509382150	54.9594	-115.5006	2140.6	1218.0	88.4	7.2	-9.4	0.55	6.46	1.9174	398.7821
1013	1509382151	54.9593	-115.4993	2140.6	1219.6	88.6	7.2	-9.5	0.55	6.46	1.9175	398.8576
1014	1509382152	54.9593	-115.4979	2140.6	1221.3	88.7	7.2	-9.5	0.55	6.46	1.9176	398.9330
1015	1509382153	54.9592	-115.4966	2140.7	1221.6	88.9	7.2	-9.5	0.55	6.46	1.9177	399.0085
1016	1509382154	54.9591	-115.4953	2140.7	1222.6	89.0	7.2	-9.6	0.54	6.46	1.9178	399.0839
1017	1509382155	54.9591	-115.4939	2140.7	1223.7	89.2	7.2	-9.6	0.54	6.45	1.9180	399.1594
1018	1509382156	54.9590	-115.4926	2140.7	1224.6	89.3	7.2	-9.7	0.54	6.45	1.9181	399.2348
1019	1509382157	54.9590	-115.4913	2140.7	1226.4	89.5	7.2	-9.7	0.54	6.45	1.9177	399.6427
1020	1509382158	54.9589	-115.4899	2140.7	1227.7	89.6	7.3	-9.7	0.54	6.45	1.9168	399.8502
1021	1509382159	54.9588	-115.4886	2140.7	1228.6	89.8	7.3	-9.8	0.54	6.45	1.9185	400.3721
1022	1509382160	54.9588	-115.4873	2140.7	1230.4	89.9	7.3	-9.8	0.54	6.45	1.9182	399.6167
1023	1509382161	54.9587	-115.4859	2140.7	1231.7	90.1	7.3	-9.8	0.54	6.45	1.9181	399.5524
1024	1509382162	54.9587	-115.4846	2140.7	1231.7	90.2	7.3	-9.9	0.53	6.44	1.9177	398.6158
1025	1509382163	54.9586	-115.4833	2140.7	1232.4	90.4	7.3	-9.9	0.53	6.44	1.9171	400.3307
1026	1509382164	54.9585	-115.4819	2140.7	1232.6	90.6	6.8	-9.9	0.53	6.44	1.9166	400.4244
1027	1509382165	54.9584	-115.4805	2140.8	1233.7	90.9	6.9	-10.0	0.53	6.44	1.9178	400.1802
1028	1509382166	54.9583	-115.4790	2140.7	1235.9	91.1	7.0	-10.2	0.53	6.44	1.9178	399.6950
1029	1509382167	54.9582	-115.4776	2140.5	1236.2	91.7	7.0	-9.9	0.53	6.44	1.9199	399.3716
1030	1509382168	54.9581	-115.4761	2140.2	1226.8	91.7	6.8	-10.3	0.53	6.44	1.9195	399.4569
1031	1509382169	54.9580	-115.4746	2139.8	1220.8	92.0	7.0	-10.3	0.53	6.43	1.9183	400.4893
1032	1509382170	54.9578	-115.4732	2139.4	1216.7	92.3	7.2	-10.4	0.53	6.43	1.9175	400.6126
1033	1509382171	54.9577	-115.4717	2139.2	1213.1	92.5	7.3	-10.6	0.52	6.43	1.9173	400.5934
1034	1509382172	54.9576	-115.4703	2138.7	1208.6	92.9	7.3	-10.4	0.52	6.43	1.9180	399.8203
1035	1509382173	54.9574	-115.4688	2138.2	1205.2	93.1	7.1	-10.5	0.52	6.43	1.9177	400.4709
1036	1509382174	54.9573	-115.4674	2137.6	1202.1	93.1	7.3	-10.7	0.52	6.43	1.9182	400.4709
1037	1509382175	54.9571	-115.4659	2136.9	1197.8	93.5	7.6	-10.7	0.52	6.43	1.9180	400.6946
1038	1509382176	54.9570	-115.4643	2136.3	1196.3	93.6	7.8	-10.8	0.52	6.42	1.9188	400.0553
1039	1509382177	54.9568	-115.4629	2135.8	1195.8	93.8	8.0	-10.7	0.52	6.42	1.9178	399.3306
1040	1509382178	54.9567	-115.4614	2135.5	1194.3	93.8	8.1	-11.1	0.52	6.42	1.9187	398.9701
1041	1509382179	54.9565	-115.4599	2135.2	1194.2	94.2	8.3	-10.9	0.52	6.42	1.9182	399.5326
1042	1509382180	54.9563	-115.4585	2134.9	1193.9	94.6	8.5	-10.8	0.51	6.42	1.9182	399.6988
1043	1509382181	54.9562	-115.4570	2134.5	1193.5	94.5	8.6	-11.1	0.51	6.42	1.9184	400.2358
1044	1509382182	54.9560	-115.4555	2134.0	1194.3	94.8	8.7	-11.0	0.51	6.42	1.9181	398.5099
1045	1509382183	54.9558	-115.4540	2133.6	1197.3	95.2	8.9	-10.7	0.51	6.41	1.9181	399.9300
1046	1509382184	54.9557	-115.4525	2133.0	1199.2	95.1	9.1	-11.0	0.51	6.41	1.9186	400.6799
1047	1509382185	54.9555	-115.4510	2132.4	1198.4	95.4	9.4	-10.8	0.51	6.41	1.9190	399.0621
1048	1509382186	54.9553	-115.4495	2131.4	1197.4	95.7	9.6	-10.6	0.51	6.41	1.9187	398.6676
1049	1509382187	54.9551	-115.4480	2130.4	1193.6	95.8	9.8	-10.6	0.51	6.41	1.9183	398.6676
1050	1509382188	54.9549	-115.4465	2129.3	1190.3	95.6	10.0	-10.8	0.50	6.41	1.9180	398.6676
1051	1509382189	54.9548	-115.4450	2128.1	1186.2	95.6	10.2	-10.9	0.50	6.41	1.9178	400.0423
1052	1509382190	54.9546	-115.4435	2127.0	1182.7	95.8	10.4	-10.6	0.50	6.41	1.9187	400.6280
1053	1509382191	54.9544	-115.4419	2126.0	1180.3	95.6	9.9	-10.8	0.50	6.40	1.9176	400.6280
1054	1509382192	54.9542	-115.4404	2125.3	1180.4	95.6	9.9	-11.1	0.50	6.40	1.9182	399.4921
1055	1509382193	54.9540	-115.4389	2124.8	1182.6	96.0	10.4	-10.9	0.50	6.40	1.9180	400.3947
1056	1509382194	54.9538	-115.4374	2124.4	1184.1	96.2	10.6	-10.7	0.50	6.40	1.9181	399.1735
1057	1509382195	54.9537	-115.4364	2124.2	1185.2	96.1	10.5	-11.0	0.50	6.40	1.9183	398.7548
1058	1509382196	54.9537	-115.4361	2124.1	1185.1	96.0	10.6	-10.9	0.50	6.40	1.9187	399.7443
1059	1509382197	54.9537	-115.4359	2124.1	1185.1	96.0	10.6	-10.9	0.49	6.40	1.9186	399.7443
1060	1509382198	54.9535	-115.4349	2124.0	1184.7	96.0	10.6	-10.8	0.49	6.39	1.9199	399.9096
1061	1509382199	54.9534	-115.4334	2123.8	1183.9	95.8	10.5	-11.2	0.49	6.39	1.9185	399.3654
1062	1509382200	54.9532	-115.4319	2123.6	1179.9	96.2	10.6	-10.6	0.49	6.39	1.9184	399.3654
1063	1509382201	54.9530	-115.4303	2123.6	1177.6	96.2	10.5	-10.7	0.49	6.39	1.9175	397.9376
1064	1509382202	54.9528	-115.4288	2123.9	1178.9	95.7	10.3	-10.9	0.49	6.39	1.9177	397.9376
1065	1509382203	54.9526	-115.4272	2124.4	1179.3	95.6	9.9	-10.9	0.49	6.39	1.9183	399.4001
1066	1509382204	54.9524	-115.4257	2125.2	1181.4	95.5	9.5	-10.7	0.49	6.39	1.9184	399.1667
1067	1509382205	54.9522	-115.4242	2125.8	1184.9	95.4	9.6	-10.6	0.49	6.38	1.9174	399.1667
1068	1509382206	54.9521	-115.4226	2126.5	1188.6	95.1	9.9	-10.7	0.48	6.38	1.9198	400.3375
1069	1509382207	54.9519	-115.4211	2127.4	1191.1	94.9	9.9	-10.7	0.48	6.38	1.9195	400.2339
1070	1509382208	54.9517	-115.4195	2128.4	1191.0	94.4	9.7	-10.9	0.48	6.38	1.9177	398.8374
1071	1509382209	54.9516	-115.4181	2129.2	1191.6	94.1	9.1	-10.9	0.48	6.38	1.9175	398.5836
1072	1509382210	54.9514	-115.4166	2130.1	1194.5	93.8	8.8	-10.7	0.48	6.38	1.9176	399.4590
1073	1509382211	54.9512	-115.4150	2130.9	1196.0	93.5	8.9	-10.8	0.48	6.38	1.9179	399.3977
1074	1509382212	54.9511	-115.4135	2131.6	1197.3	93.1	8.9	-10.8	0.48	6.37	1.9183	399.3977
1075	1509382213	54.9509	-115.4120	2132.5	1201.1	92.8	8.7	-10.7	0.48	6.37	1.9186	400.4382
1076	1509382214	54.9508	-115.4105	2133.3	1209.4	92.4	8.5	-10.8	0.48	6.37	1.9185	400.0609
1077	1509382215	54.9507	-115.4090	2134.4	1215.0	92.3	8.3	-10.6	0.47	6.37	1.9190	398.9617
1078	1509382216	54.9505	-115.4075	2135.7	1212.7	91.7	8.0	-10.7	0.47	6.37	1.9193	399.0228
1079	1509382217	54.9504	-115.4060	2137.0	1212.1	91.5	8.0	-10.6	0.47	6.37	1.9201	399.9564
1080	1509382218	54.9503	-115.4045	2138.4	1213.4	91.1	8.1	-10.7	0.47	6.37	1.9178	399.2352
1081	1509382219	54.9502	-115.4030	2139.5	1217.5	90.8	8.0	-10.6	0.47	6.36	1.9179	399.2659
1082	1509382220	54.9501	-115.4015	2140.3	1225.0	90.5	7.8	-10.5	0.47	6.36	1.9172	399.5663
1083	1509382221	54.9500	-115.4000	2141.0	1227.2	90.1	7.7	-10.4	0.47	6.36	1.9181	400.8641
1084	1509382222	54.9499	-115.3985	2141.4	1231.0	89.7	7.8	-10.3	0.47	6.36	1.9186	398.3840
1085	1509382223	54.9498	-115.3970	2141.8	1231.5	89.3	8.1	-10.4	0.46	6.36	1.9166	399.8601
1086	1509382224	54.9497	-115.3955	2141.9	1230.9	89.0	8.1	-10.3	0.46	6.36	1.9182	399.0217
1087	1509382225	54.9496	-115.3939	2141.9	1227.2	88.7	7.9	-10.3	0.46	6.36	1.9202	399.9203
1088	1509382226	54.9495	-115.3924	2141.7	1222.0	88.3	7.5	-10.5	0.46	6.35	1.9173	400.1329
1089	1509382227	54.9494	-115.3909	2141.4	1222.3	88.1	7.5	-10.5	0.46	6.35	1.9208	399.1238
1090	1509382228	54.9493	-115.3894	2141.2	1217.3	87.9	7.5	-10.6	0.46	6.35	1.9175	399.5468
1091	1509382229	54.9493	-115.3879	2140.9	1215.9	88.0	7.6	-10.5	0.46	6.35	1.9175	400.1381
1092	1509382230	54.9492	-115.3865	2140.6	1220.0	87.9	8.2	-10.4	0.46	6.35	1.9181	400.0876
1093	1509382231	54.9491	-115.3851	2140.0	1225.6	87.7	8.2	-10.4	0.46	6.35	1.9185	400.0876
1094	1509382232	54.9491	-115.3838	2139.3	1225.7	87.6	8.2	-10.4	0.45	6.35	1.9189	398.7572
1095	1509382233	54.9490	-115.3824	2138.7	1224.1	87.7	7.8	-10.1	0.45	6.35	1.9185	399.7958
1096	1509382234	54.9489	-115.3811	2137.9	1223.5	87.6	7.9	-10.0	0.45	6.34	1.9168	399.6381
1097	1509382235	54.9489	-115.3797	2137.3	1227.3	87.4	8.5	-10.3	0.45	6.34	1.9183	399.6399
1098	1509382236	54.9488	-115.3783	2136.7	1232.4	87.1	8.1	-10.4	0.45	6.34	1.9174	399.6714
1099	1509382237	54.9488	-115.3769	2135.9	1238.3	87.3	8.1	-10.1	0.45	6.34	1.9182	399.1641
1100	1509382238	54.9487	-115.3756	2135.4	1242.1	86.7	8.2	-10.6	0.45	6.34	1.9180	399.7629
1101	1509382239	54.9487	-115.3743	2135.1	1249.4	87.1	7.7	-10.2	0.45	6.34	1.9179	399.7629
1102	1509382240	54.9486	-115.3728	2134.8	1256.7	87.2	7.7	-10.0	0.45	6.34	1.9189	399.7849
1103	1509382241	54.9485	-115.3715	2134.7	1265.8	87.3	7.7	-9.9	0.44	6.33	1.9188	400.3546
1104	1509382242	54.9485	-115.3701	2134.6	1274.6	87.3	7.7	-9.8	0.44	6.33	1.9186	400.3416
1105	1509382243	54.9484	-115.3688	2134.4	1282.1	87.3	7.7	-9.9	0.44	6.33	1.9179	400.3416
1106	1509382244	54.9484	-115.3674	2134.1	1286.8	87.2	7.7	-9.9	0.44	6.33	1.9186	399.3312
1107	1509382245	54.9483	-115.3660	2133.7	1290.0	87.2	7.8	-9.9	0.44	6.33	1.9184	400.4218
1108	1509382246	54.9483	-115.3646	2133.2	1293.5	87.2	7.8	-10.1	0.44	6.33	1.9182	400.4218
1109	1509382247	54.9482	-115.3633	2132.9	1296.7	87.3	7.4	-10.2	0.44	6.33	1.9180	400.4218
1110	1509382248	54.9482	-115.3619	2132.8	1299.4	87.2	7.8	-10.5	0.44	6.32	1.9178	400.4218
1111	1509382249	54.9481	-115.3606	2132.8	1302.1	87.4	7.8	-10.5	0.44	6.32	1.9176	400.4218
1112	1509382250	54.9480	-115.3591	2132.9	1306.9	87.8	7.8	-10.3	0.43	6.32	1.9182	400.5999
1113	1509382251	54.9480	-115.3578	2133.0	1308.0	88.0	7.7	-10.3	0.43	6.32	1.9182	399.8324
1114	1509382252	54.9479	-115.3564	2133.3	1310.4	88.0	7.8	-10.4	0.43	6.32	1.9183	399.1365
1115	1509382253	54.9478	-115.3550	2133.7	1311.7	88.2	7.7	-10.4	0.43	6.32	1.9176	401.4337
1116	1509382254	54.9478	-115.3538	2134.0	1313.0	88.4	7.7	-10.4	0.43	6.32	1.9196	400.0499
1117	1509382255	54.9478	-115.3536	2134.0	1313.8	88.4	7.7	-10.4	0.43	6.31	1.9194	400.1712
1118	1509382256	54.9477	-115.3534	2134.1	1313.9	88.4	7.8	-10.4	0.43	6.31	1.9185	400.1712
1119	1509382257	54.9477	-115.3532	2134.1	1314.5	88.4	7.8	-10.4	0.43	6.31	1.9207	399.1091
1120	1509382258	54.9477	-115.3523	2134.1	1316.6	88.6	8.3	-10.4	0.42	6.31	1.9179	399.1091
1121	1509382259	54.9476	-115.3508	2134.2	1320.1	88.8	8.2	-10.2	0.42	6.31	1.9191	399.8086
1122	1509382260	54.9475	-115.3493	2133.9	1323.0	89.0	8.3	-10.2	0.42	6.31	1.9191	399.2390
1123	1509382261	54.9474	-115.3477	2133.5	1323.5	88.9	8.3	-10.7	0.42	6.31	1.9181	400.4938
1124	1509382262	54.9473	-115.3462	2133.5	1321.8	89.0	8.5	-10.9	0.42	6.30	1.9187	400.4191
1125	1509382263	54.9472	-115.3447	2133.3	1321.7	89.8	8.6	-10.4	0.42	6.30	1.9194	399.7787
1126	1509382264	54.9471	-115.3432	2133.2	1323.1	90.0	8.7	-10.5	0.42	6.30	1.9194	399.7241
1127	1509382265	54.9470	-115.3416	2133.2	1327.9	90.2	8.5	-10.4	0.42	6.30	1.9182	399.7396
1128	1509382266	54.9469	-115.3400	2133.2	1330.9	90.2	8.2	-10.7	0.42	6.30	1.9188	399.8783
1129	1509382267	54.9468	-115.3385	2133.0	1334.7	90.4	8.3	-10.7	0.41	6.30	1.9190	400.5014
1130	1509382268	54.9467	-115.3370	2132.8	1336.8	90.9	8.6	-10.2	0.41	6.30	1.9206	400.1256
1131	1509382269	54.9466	-115.3354	2132.5	1338.2	91.0	9.1	-10.3	0.41	6.29	1.9195	399.6623
1132	1509382270	54.9464	-115.3338	2132.4	1338.0	90.9	9.2	-10.4	0.41	6.29	1.9187	399.3888
1133	1509382271	54.9463	-115.3323	2132.2	1338.2	90.8	9.2	-10.6	0.41	6.29	1.9190	399.8164
1134	1509382272	54.9462	-115.3307	2132.1	1338.8	91.0	9.3	-10.4	0.41	6.29	1.9201	400.0544
1135	1509382273	54.9461	-115.3291	2132.0	1342.4	91.4	9.3	-9.9	0.41	6.29	1.9196	399.7868
1136	1509382274	54.9460	-115.3276	2132.1	1342.5	91.3	9.5	-10.2	0.41	6.29	1.9184	399.4913
1137	1509382275	54.9459	-115.3261	2132.0	1340.0	91.0	9.5	-10.6	0.41	6.29	1.9170	400.1266
1138	1509382276	54.9457	-115.3245	2131.9	1340.5	91.0	9.6	-10.7	0.40	6.28	1.9181	398.4373
1139	1509382277	54.9456	-115.3230	2131.7	1342.7	91.3	9.7	-10.5	0.40	6.28	1.9181	399.7318
1140	1509382278	54.9455	-115.3214	2131.5	1348.2	91.8	10.0	-10.1	0.40	6.28	1.9196	400.7395
1141	1509382279	54.9454	-115.3199	2131.4	1351.4	91.9	10.4	-10.1	0.40	6.28	1.9196	398.7742
1142	1509382280	54.9452	-115.3183	2131.2	1343.7	92.2	10.2	-9.8	0.40	6.28	1.9182	399.8548
1143	1509382281	54.9451	-115.3168	2131.1	1343.9	92.2	10.2	-10.0	0.40	6.28	1.9196	399.4891
1144	1509382282	54.9450	-115.3152	2130.8	1348.8	91.9	10.2	-10.4	0.40	6.28	1.9214	399.1526
1145	1509382283	54.9448	-115.3136	2130.5	1358.7	91.8	10.4	-10.5	0.40	6.28	1.9190	399.7194
1146	1509382284	54.9447	-115.3121	2130.1	1359.1	92.5	10.5	-10.1	0.40	6.27	1.9182	400.3838
1147	1509382285	54.9446	-115.3107	2129.7	1358.7	92.4	11.0	-10.2	0.39	6.27	1.9203	398.0133
1148	1509382286	54.9445	-115.3093	2129.2	1358.2	92.5	10.6	-10.1	0.39	6.27	1.9213	398.0038
1149	1509382287	54.9443	-115.3079	2128.9	1357.6	92.7	11.1	-10.0	0.39	6.27	1.9206	399.2094
1150	1509382288	54.9442	-115.3065	2128.5	1357.5	92.8	10.8	-9.9	0.39	6.27	1.9194	399.6215
1151	1509382289	54.9441	-115.3051	2128.6	1356.9	92.8	10.3	-10.0	0.39	6.27	1.9183	400.4459
1152	1509382290	54.9440	-115.3037	2129.1	1358.4	92.5	10.2	-10.4	0.39	6.27	1.9184	399.6442
1153	1509382291	54.9438	-115.3022	2129.8	1360.8	92.6	10.6	-10.3	0.39	6.26	1.9181	400.3570
1154	1509382292	54.9437	-115.3008	2130.5	1363.5	93.0	10.7	-9.9	0.39	6.26	1.9202	399.3566
1155	1509382293	54.9436	-115.2994	2131.1	1365.1	92.9	10.6	-10.0	0.38	6.26	1.9212	399.1772
1156	1509382294	54.9435	-115.2980	2131.7	1364.7	92.9	10.5	-9.9	0.38	6.26	1.9199	399.5182
1157	1509382295	54.9433	-115.2966	2132.1	1364.4	93.1	10.5	-9.6	0.38	6.26	1.9194	398.1883
1158	1509382296	54.9432	-115.2952	2132.2	1364.2	92.8	10.4	-9.8	0.38	6.26	1.9194	399.7259
1159	1509382297	54.9431	-115.2938	2132.1	1363.1	92.6	10.4	-9.9	0.38	6.26	1.9208	399.3901
1160	1509382298	54.9430	-115.2924	2132.0	1360.3	92.6	10.4	-9.7	0.38	6.25	1.9188	400.1760
1161	1509382299	54.9429	-115.2910	2131.7	1350.0	92.7	10.4	-9.7	0.38	6.25	1.9200	400.1760
1162	1509382300	54.9427	-115.2897	2131.5	1338.5	92.6	10.5	-9.6	0.38	6.25	1.9203	400.1924
1163	1509382301	54.9426	-115.2882	2131.4	1333.9	92.2	10.5	-10.1	0.38	6.25	1.9188	400.4431
1164	1509382302	54.9425	-115.2868	2131.3	1335.3	92.0	10.1	-10.3	0.37	6.25	1.9191	399.0779
1165	1509382303	54.9424	-115.2856	2131.4	1337.2	92.1	9.7	-10.1	0.37	6.25	1.9194	400.2716
1166	1509382304	54.9423	-115.2841	2131.6	1341.0	92.0	9.7	-10.1	0.37	6.25	1.9185	399.7403
1167	1509382305	54.9421	-115.2826	2132.0	1338.9	92.2	9.6	-9.7	0.37	6.24	1.9188	400.5191
1168	1509382306	54.9420	-115.2812	2132.7	1337.7	91.9	9.6	-9.9	0.37	6.24	1.9187	400.2227
1169	1509382307	54.9419	-115.2798	2133.5	1335.7	91.9	9.4	-9.7	0.37	6.24	1.9186	399.9263
1170	1509382308	54.9418	-115.2784	2134.5	1335.0	91.8	9.2	-9.7	0.37	6.24	1.9185	399.6300
1171	1509382309	54.9417	-115.2770	2135.5	1333.4	91.5	9.0	-10.1	0.37	6.24	1.9187	399.3428
1172	1509382310	54.9416	-115.2756	2136.5	1332.0	91.2	8.6	-10.2	0.37	6.24	1.9200	399.2867
1173	1509382311	54.9415	-115.2742	2137.5	1331.6	91.4	8.3	-9.8	0.36	6.24	1.9202	400.0528
1174	1509382312	54.9414	-115.2729	2138.5	1328.5	91.2	8.5	-10.1	0.36	6.23	1.9189	400.0334
1175	1509382313	54.9413	-115.2715	2139.6	1324.7	90.9	8.4	-10.2	0.36	6.23	1.9189	400.3967
1176	1509382314	54.9412	-115.2702	2140.4	1320.0	91.0	8.3	-10.0	0.36	6.23	1.9203	399.7709
1177	1509382315	54.9412	-115.2700	2140.5	1320.1	91.0	8.3	-9.9	0.36	6.23	1.9182	400.8651
1178	1509382316	54.9411	-115.2698	2140.6	1319.7	91.0	8.2	-9.9	0.36	6.23	1.9192	400.1442
1179	1509382317	54.9411	-115.2696	2140.7	1318.7	91.0	8.2	-9.9	0.36	6.23	1.9196	399.9520
1180	1509382318	54.9411	-115.2688	2141.1	1316.1	91.0	8.1	-9.8	0.36	6.23	1.9199	399.5799
1181	1509382319	54.9410	-115.2673	2141.5	1312.5	90.7	8.2	-10.0	0.35	6.22	1.9191	400.3027
1182	1509382320	54.9409	-115.2658	2142.1	1311.3	90.5	8.6	-10.0	0.35	6.22	1.9185	399.6813
1183	1509382321	54.9408	-115.2643	2142.4	1307.7	90.6	8.5	-9.7	0.35	6.22	1.9186	399.2014
1184	1509382322	54.9407	-115.2628	2142.9	1306.9	90.2	8.4	-10.0	0.35	6.22	1.9183	399.3149
1185	1509382323	54.9406	-115.2613	2143.3	1307.3	89.9	8.4	-10.0	0.35	6.22	1.9191	399.9723
1186	1509382324	54.9405	-115.2598	2143.7	1307.7	89.7	8.3	-10.2	0.35	6.22	1.9190	399.5524
1187	1509382325	54.9404	-115.2582	2144.0	1309.0	89.9	8.4	-9.7	0.35	6.22	1.9203	399.5524
1188	1509382326	54.9403	-115.2567	2144.1	1307.7	89.8	8.3	-9.7	0.35	6.22	1.9191	400.4494
1189	1509382327	54.9402	-115.2552	2144.2	1306.0	89.3	8.3	-10.0	0.35	6.21	1.9206	399.3477
1190	1509382328	54.9401	-115.2537	2144.2	1303.8	89.0	8.4	-10.2	0.34	6.21	1.9190	400.6497
1191	1509382329	54.9400	-115.2522	2144.1	1297.3	89.0	8.5	-10.2	0.34	6.21	1.9188	400.6497
1192	1509382330	54.9399	-115.2507	2143.6	1291.8	89.0	8.5	-9.9	0.34	6.21	1.9191	399.9509
1193	1509382331	54.9398	-115.2492	2142.7	1285.5	88.9	8.2	-10.1	0.34	6.21	1.9191	399.6219
1194	1509382332	54.9397	-115.2476	2141.7	1280.9	88.8	8.3	-10.2	0.34	6.21	1.9190	399.1344
1195	1509382333	54.9397	-115.2461	2140.5	1278.5	88.7	8.4	-10.3	0.34	6.21	1.9201	400.6865
1196	1509382334	54.9396	-115.2446	2139.2	1278.2	88.7	8.1	-10.2	0.34	6.20	1.9195	400.5833
1197	1509382335	54.9395	-115.2431	2138.1	1277.1	88.8	8.2	-10.2	0.34	6.20	1.9185	399.7580
1198	1509382336	54.9394	-115.2415	2137.1	1277.2	88.8	8.3	-10.3	0.34	6.20	1.9188	399.5099
1199	1509382337	54.9393	-115.2400	2136.5	1277.5	88.8	8.4	-10.4	0.33	6.20	1.9198	398.6187
1200	1509382338	54.9392	-115.2384	2136.3	1278.3	89.1	8.4	-10.2	0.33	6.20	1.9199	401.1227
1201	1509382339	54.9391	-115.2369	2136.2	1279.4	89.2	8.4	-10.1	0.33	6.20	1.9187	400.8399
1202	1509382340	54.9391	-115.2354	2136.0	1281.7	89.3	8.5	-10.0	0.33	6.20	1.9213	398.3194
1203	1509382341	54.9390	-115.2338	2135.7	1283.7	89.3	8.5	-10.1	0.33	6.19	1.9191	397.5823
1204	1509382342	54.9389	-115.2323	2135.2	1284.1	89.5	8.6	-9.9	0.33	6.19	1.9194	399.8346
1205	1509382343	54.9388	-115.2307	2134.5	1286.6	89.7	8.7	-9.8	0.33	6.19	1.9193	401.6244
1206	1509382344	54.9387	-115.2292	2133.7	1289.0	89.7	8.8	-9.8	0.33	6.19	1.9191	400.8201
1207	1509382345	54.9386	-115.2276	2132.8	1294.0	89.7	8.9	-10.0	0.33	6.19	1.9193	400.0792
1208	1509382346	54.9385	-115.2261	2131.9	1293.3	89.7	8.9	-10.1	0.32	6.19	1.9190	400.2252
1209	1509382347	54.9384	-115.2245	2130.9	1285.6	89.8	9.0	-10.2	0.32	6.19	1.9199	400.7196
1210	1509382348	54.9383	-115.2230	2130.3	1277.3	90.1	8.8	-10.1	0.32	6.18	1.9194	399.9901
1211	1509382349	54.9382	-115.2217	2129.9	1273.8	90.4	8.8	-10.1	0.32	6.18	1.9192	399.9232
1212	1509382350	54.9381	-115.2203	2129.6	1272.9	90.7	9.1	-9.9	0.32	6.18	1.9197	400.0425
1213	1509382351	54.9380	-115.2188	2129.5	1272.5	90.8	9.1	-10.0	0.32	6.18	1.9191	400.2452
1214	1509382352	54.9379	-115.2174	2129.6	1271.6	91.1	9.0	-9.8	0.32	6.18	1.9196	398.7549
1215	1509382353	54.9378	-115.2161	2129.6	1271.6	91.3	9.1	-9.7	0.32	6.18	1.9186	400.0688
1216	1509382354	54.9377	-115.2147	2129.4	1271.0	91.5	9.1	-9.7	0.31	6.18	1.9200	399.7146
1217	1509382355	54.9376	-115.2133	2129.3	1271.0	91.5	9.0	-9.9	0.31	6.17	1.9187	400.1306
1218	1509382356	54.9375	-115.2118	2129.2	1268.5	91.8	9.2	-9.8	0.31	6.17	1.9195	399.1917
1219	1509382357	54.9374	-115.2105	2129.1	1266.5	91.7	9.5	-10.1	0.31	6.17	1.9204	399.2065
1220	1509382358	54.9373	-115.2091	2129.0	1262.7	92.1	9.5	-9.8	0.31	6.17	1.9201	399.4236
1221	1509382359	54.9371	-115.2077	2129.0	1256.6	92.2	9.5	-9.8	0.31	6.17	1.9187	400.3185
1222	1509382360	54.9370	-115.2063	2129.0	1253.0	92.3	9.4	-9.9	0.31	6.17	1.9198	399.8098
1223	1509382361	54.9369	-115.2049	2129.1	1249.8	92.5	9.5	-9.7	0.31	6.17	1.9183	399.9751
1224	1509382362	54.9368	-115.2035	2129.1	1245.9	92.7	9.4	-9.7	0.31	6.16	1.9185	399.8780
1225	1509382363	54.9367	-115.2021	2129.2	1243.6	92.6	9.4	-9.7	0.30	6.16	1.9197	399.7499
1226	1509382364	54.9366	-115.2007	2129.3	1243.8	92.8	9.5	-9.6	0.30	6.16	1.9210	399.3031
1227	1509382365	54.9364	-115.1993	2129.5	1241.6	92.9	9.9	-9.7	0.30	6.16	1.9199	399.6666
1228	1509382366	54.9363	-115.1979	2129.6	1240.6	92.9	9.9	-9.6	0.30	6.16	1.9191	399.4291
1229	1509382367	54.9362	-115.1965	2129.6	1238.7	92.7	9.9	-9.8	0.30	6.16	1.9188	399.4291
1230	1509382368	54.9361	-115.1951	2129.5	1234.7	92.8	9.9	-9.7	0.30	6.16	1.9185	399.8097
1231	1509382369	54.9359	-115.1937	2129.3	1230.0	92.7	9.9	-10.0	0.30	6.15	1.9193	398.9913
1232	1509382370	54.9358	-115.1923	2129.1	1225.7	92.7	10.0	-9.9	0.30	6.15	1.9195	400.8193
1233	1509382371	54.9357	-115.1910	2128.7	1221.5	93.0	10.0	-9.6	0.30	6.15	1.9215	400.0310
1234	1509382372	54.9356	-115.1895	2128.4	1215.4	92.9	10.0	-9.7	0.29	6.15	1.9200	400.0310
1235	1509382373	54.9354	-115.1882	2128.1	1209.5	93.0	10.0	-9.7	0.29	6.15	1.9202	399.8092
1236	1509382374	54.9353	-115.1869	2127.7	1204.3	93.0	10.1	-9.6	0.29	6.15	1.9204	400.3681
1237	1509382375	54.9353	-115.1867	2127.7	1204.3	92.9	10.1	-9.7	0.29	6.15	1.9198	401.0835
1238	1509382376	54.9353	-115.1865	2127.6	1203.0	92.9	10.1	-9.7	0.29	6.15	1.9189	399.3888
1239	1509382377	54.9353	-115.1863	2127.6	1201.6	92.9	10.1	-9.8	0.29	6.14	1.9193	399.9231
1240	1509382378	54.9352	-115.1854	2127.5	1195.8	92.8	10.0	-9.8	0.29	6.14	1.9197	399.9877
1241	1509382379	54.9351	-115.1839	2127.4	1188.0	92.7	10.0	-9.9	0.29	6.14	1.9196	400.8017
1242	1509382380	54.9349	-115.1824	2127.7	1178.8	92.7	10.0	-9.8	0.29	6.14	1.9192	399.1798
1243	1509382381	54.9348	-115.1808	2128.2	1172.1	92.7	10.4	-9.7	0.28	6.14	1.9188	400.1645
1244	1509382382	54.9347	-115.1792	2128.9	1164.5	92.5	10.2	-9.8	0.28	6.14	1.9197	400.5050
1245	1509382383	54.9345	-115.1777	2129.7	1163.7	92.5	10.1	-9.9	0.28	6.14	1.9191	398.8546
1246	1509382384	54.9344	-115.1761	2130.6	1154.8	92.4	10.0	-9.9	0.28	6.13	1.9212	399.8212
1247	1509382385	54.9343	-115.1746	2131.6	1140.5	92.5	9.9	-9.7	0.28	6.13	1.9194	398.9724
1248	1509382386	54.9341	-115.1730	2132.4	1125.6	92.3	9.8	-9.8	0.28	6.13	1.9186	395.9334
1249	1509382387	54.9340	-115.1714	2133.3	1124.2	92.1	10.1	-9.9	0.28	6.13	1.9186	398.9013
1250	1509382388	54.9339	-115.1699	2133.8	1120.2	92.1	10.2	-9.8	0.28	6.13	1.9193	400.0445
1251	1509382389	54.9338	-115.1684	2134.2	1111.4	92.0	10.1	-9.8	0.27	6.13	1.9193	399.5293
1252	1509382390	54.9336	-115.1668	2134.1	1097.4	92.1	10.1	-9.7	0.27	6.13	1.9195	399.8895
1253	1509382391	54.9335	-115.1653	2134.0	1089.5	91.8	10.1	-10.0	0.27	6.12	1.9198	400.0395
1254	1509382392	54.9334	-115.1638	2133.9	1086.2	91.8	10.1	-9.9	0.27	6.12	1.9194	399.2299
1255	1509382393	54.9333	-115.1622	2133.7	1077.5	91.8	10.2	-9.8	0.27	6.12	1.9190	400.4481
1256	1509382394	54.9331	-115.1607	2133.5	1070.8	92.1	9.8	-9.6	0.27	6.12	1.9190	398.7649
1257	1509382395	54.9330	-115.1592	2133.2	1064.2	91.7	9.6	-9.9	0.27	6.12	1.9189	401.2242
1258	1509382396	54.9329	-115.1576	2132.9	1067.9	91.9	9.6	-9.6	0.27	6.12	1.9204	399.9468
1259	1509382397	54.9328	-115.1561	2132.5	1066.0	91.8	9.9	-9.7	0.27	6.12	1.9193	399.0611
1260	1509382398	54.9326	-115.1545	2132.1	1063.7	91.9	9.9	-9.5	0.26	6.11	1.9204	400.3511
1261	1509382399	54.9325	-115.1530	2131.3	1045.0	91.7	9.9	-9.7	0.26	6.11	1.9188	399.3328
1262	1509382400	54.9324	-115.1514	2130.7	1027.2	91.6	10.2	-9.7	0.26	6.11	1.9204	397.0076
1263	1509382401	54.9323	-115.1499	2129.7	1017.7	91.6	10.3	-9.5	0.26	6.11	1.9209	400.6611
1264	1509382402	54.9322	-115.1483	2129.0	1016.0	91.6	10.2	-9.5	0.26	6.11	1.9193	399.1460
1265	1509382403	54.9320	-115.1467	2128.4	1015.4	91.4	10.2	-9.7	0.26	6.11	1.9193	398.7428
1266	1509382404	54.9319	-115.1452	2128.2	1015.2	91.4	10.1	-9.6	0.26	6.11	1.9190	400.4516
1267	1509382405	54.9318	-115.1438	2128.2	1014.2	91.4	10.1	-9.5	0.26	6.10	1.9193	399.9539
1268	1509382406	54.9317	-115.1424	2128.3	1014.5	91.5	10.0	-9.3	0.26	6.10	1.9196	399.8314
1269	1509382407	54.9316	-115.1410	2128.5	1015.7	91.6	9.8	-9.2	0.25	6.10	1.9192	400.1894
1270	1509382408	54.9315	-115.1396	2128.8	1016.8	91.6	9.8	-9.1	0.25	6.10	1.9205	400.2016
1271	1509382409	54.9314	-115.1382	2129.0	1018.0	91.5	9.7	-9.0	0.25	6.10	1.9199	398.9455
1272	1509382410	54.9313	-115.1370	2129.1	1018.1	91.5	9.5	-8.9	0.25	6.10	1.9202	401.1451
1273	1509382411	54.9312	-115.1356	2129.3	1017.3	91.6	9.5	-8.7	0.25	6.10	1.9213	400.1822
1274	1509382412	54.9311	-115.1341	2129.4	1017.4	91.6	9.3	-8.5	0.25	6.09	1.9208	401.3650
1275	1509382413	54.9310	-115.1328	2129.5	1016.5	91.4	9.2	-8.6	0.25	6.09	1.9215	401.3650
1276	1509382414	54.9309	-115.1315	2129.6	1016.6	91.5	9.1	-8.3	0.25	6.09	1.9210	400.6112
1277	1509382415	54.9308	-115.1300	2129.6	1015.6	91.8	9.0	-7.8	0.25	6.09	1.9211	399.6904
1278	1509382416	54.9307	-115.1287	2129.7	1015.7	91.7	8.9	-7.7	0.24	6.09	1.9209	399.8920
1279	1509382417	54.9307	-115.1273	2129.7	1019.4	91.4	8.9	-7.9	0.24	6.09	1.9212	399.9856
1280	1509382418	54.9306	-115.1260	2129.8	1023.9	91.2	9.2	-7.8	0.24	6.09	1.9221	399.9510
1281	1509382419	54.9305	-115.1246	2129.9	1025.9	91.1	9.1	-7.6	0.24	6.09	1.9215	400.0470
1282	1509382420	54.9304	-115.1232	2129.9	1026.8	91.2	9.0	-7.3	0.24	6.08	1.9213	399.5070
1283	1509382421	54.9303	-115.1219	2129.8	1029.1	91.0	8.9	-7.2	0.24	6.08	1.9217	400.4527
1284	1509382422	54.9302	-115.1205	2129.8	1031.8	90.9	8.8	-7.1	0.24	6.08	1.9227	400.2312
1285	1509382423	54.9302	-115.1192	2129.8	1033.8	90.5	9.3	-7.1	0.24	6.08	1.9221	399.7561
1286	1509382424	54.9301	-115.1178	2129.7	1038.3	90.1	9.2	-7.4	0.23	6.08	1.9219	401.0786
1287	1509382425	54.9300	-115.1165	2129.5	1042.8	89.9	9.1	-7.3	0.23	6.08	1.9200	401.0662
1288	1509382426	54.9300	-115.1151	2129.4	1048.8	89.8	9.0	-7.2	0.23	6.08	1.9197	400.9125
1289	1509382427	54.9299	-115.1137	2129.3	1055.3	89.9	8.9	-7.1	0.23	6.07	1.9199	400.9125
1290	1509382428	54.9299	-115.1124	2129.3	1061.9	89.9	8.8	-6.9	0.23	6.07	1.9201	400.9125
1291	1509382429	54.9298	-115.1113	2129.3	1066.3	90.0	8.7	-6.8	0.23	6.07	1.9204	400.9125
1292	1509382430	54.9297	-115.1098	2129.3	1069.1	89.8	8.7	-6.8	0.23	6.07	1.9217	400.4753
1293	1509382431	54.9297	-115.1084	2129.4	1070.7	89.7	8.5	-6.9	0.23	6.07	1.9207	400.7681
1294	1509382432	54.9296	-115.1071	2129.5	1073.5	89.5	8.4	-7.1	0.23	6.07	1.9196	400.2430
1295	1509382433	54.9296	-115.1057	2129.8	1078.6	89.6	8.3	-6.9	0.22	6.07	1.9196	399.5125
1296	1509382434	54.9295	-115.1045	2130.2	1082.2	89.7	8.2	-6.9	0.22	6.06	1.9193	399.5125
1297	1509382435	54.9295	-115.1043	2130.3	1083.7	89.7	8.2	-6.9	0.22	6.06	1.9190	399.7460
1298	1509382436	54.9295	-115.1041	2130.4	1084.3	89.7	8.2	-6.9	0.22	6.06	1.9189	400.5258
1299	1509382437	54.9295	-115.1039	2130.4	1084.4	89.6	8.2	-6.9	0.22	6.06	1.9188	400.4456
1300	1509382438	54.9295	-115.1033	2130.7	1088.3	89.6	8.1	-6.9	0.22	6.06	1.9198	400.0319
1301	1509382439	54.9294	-115.1018	2131.3	1097.7	89.6	8.0	-6.9	0.22	6.06	1.9192	399.8746
1302	1509382440	54.9293	-115.1003	2132.1	1106.1	89.6	8.1	-7.0	0.22	6.06	1.9203	399.7598
1303	1509382441	54.9293	-115.0989	2132.8	1112.5	89.7	8.3	-7.0	0.22	6.05	1.9199	401.0829
1304	1509382442	54.9292	-115.0974	2133.5	1119.1	89.9	8.2	-7.0	0.21	6.05	1.9188	400.1500
1305	1509382443	54.9291	-115.0959	2134.2	1127.1	90.1	8.1	-6.9	0.21	6.05	1.9185	399.9518
1306	1509382444	54.9291	-115.0944	2134.7	1133.4	90.2	8.0	-7.0	0.21	6.05	1.9195	400.4016
1307	1509382445	54.9290	-115.0929	2135.0	1128.0	90.3	7.8	-7.1	0.21	6.05	1.9185	398.5126
1308	1509382446	54.9289	-115.0914	2135.3	1123.5	90.4	7.5	-7.1	0.21	6.05	1.9194	399.7734
1309	1509382447	54.9288	-115.0900	2135.4	1126.3	90.5	7.5	-7.0	0.21	6.05	1.9195	399.6915
1310	1509382448	54.9288	-115.0885	2135.5	1131.8	90.6	7.5	-7.1	0.21	6.04	1.9190	400.4741
1311	1509382449	54.9287	-115.0871	2135.6	1144.6	90.7	7.7	-7.2	0.21	6.04	1.9197	400.4161
1312	1509382450	54.9286	-115.0856	2135.6	1154.9	91.0	8.1	-7.1	0.20	6.04	1.9190	399.5905
1313	1509382451	54.9285	-115.0841	2135.4	1157.2	91.2	8.1	-7.2	0.20	6.04	1.9192	399.5906
1314	1509382452	54.9284	-115.0826	2135.0	1145.9	91.6	8.3	-7.0	0.20	6.04	1.9192	399.5906
1315	1509382453	54.9283	-115.0811	2134.5	1134.7	91.8	8.3	-7.0	0.20	6.04	1.9193	401.3989
1316	1509382454	54.9282	-115.0796	2134.0	1128.6	91.9	8.3	-7.0	0.20	6.04	1.9193	400.4596
1317	1509382455	54.9281	-115.0782	2133.6	1126.2	92.1	8.0	-7.0	0.20	6.03	1.9201	400.6668
1318	1509382456	54.9280	-115.0767	2133.1	1126.1	92.3	8.1	-7.0	0.20	6.03	1.9209	399.5155
1319	1509382457	54.9279	-115.0751	2132.8	1125.5	92.5	8.1	-6.9	0.20	6.03	1.9210	399.5155
1320	1509382458	54.9278	-115.0736	2132.3	1122.3	92.7	8.2	-6.9	0.20	6.03	1.9205	400.8485
1321	1509382459	54.9277	-115.0722	2131.9	1118.2	92.9	8.3	-6.9	0.19	6.03	1.9207	400.5290
1322	1509382460	54.9276	-115.0707	2131.4	1115.0	93.0	8.4	-6.9	0.19	6.03	1.9203	400.2601
1323	1509382461	54.9275	-115.0692	2130.9	1114.3	93.2	8.5	-7.0	0.19	6.03	1.9204	400.1253
1324	1509382462	54.9274	-115.0677	2130.3	1113.0	93.4	8.6	-6.9	0.19	6.03	1.9198	400.2568
1325	1509382463	54.9273	-115.0662	2129.7	1111.4	93.6	8.7	-6.9	0.19	6.02	1.9219	399.2457
1326	1509382464	54.9271	-115.0647	2129.2	1110.2	93.9	8.7	-6.8	0.19	6.02	1.9194	399.2457
1327	1509382465	54.9270	-115.0632	2128.6	1107.9	94.0	8.9	-6.8	0.19	6.02	1.9195	400.2411
1328	1509382466	54.9269	-115.0617	2127.8	1106.1	94.2	8.9	-6.8	0.19	6.02	1.9204	400.3303
1329	1509382467	54.9268	-115.0603	2127.1	1102.5	94.2	9.0	-6.8	0.19	6.02	1.9206	400.0228
1330	1509382468	54.9267	-115.0590	2126.7	1099.3	94.3	9.0	-6.8	0.18	6.02	1.9209	401.0858
1331	1509382469	54.9266	-115.0577	2126.4	1098.0	94.4	8.5	-6.8	0.18	6.02	1.9191	400.7717
1332	1509382470	54.9265	-115.0564	2126.4	1096.4	94.5	8.5	-6.8	0.18	6.01	1.9208	400.3490
1333	1509382471	54.9263	-115.0550	2126.9	1096.9	94.7	8.4	-6.8	0.18	6.01	1.9193	400.4297
1334	1509382472	54.9262	-115.0537	2127.5	1096.5	94.6	8.3	-6.9	0.18	6.01	1.9192	400.4297
1335	1509382473	54.9261	-115.0523	2128.3	1101.6	94.6	8.2	-7.0	0.18	6.01	1.9197	399.9395
1336	1509382474	54.9260	-115.0510	2129.0	1104.5	94.7	8.1	-7.0	0.18	6.01	1.9202	400.2420
1337	1509382475	54.9259	-115.0498	2129.7	1106.0	94.8	8.0	-7.1	0.18	6.01	1.9195	397.3392
1338	1509382476	54.9257	-115.0484	2130.5	1110.5	95.0	7.8	-7.0	0.18	6.01	1.9192	400.1257
1339	1509382477	54.9256	-115.0470	2131.2	1113.8	95.0	7.8	-7.0	0.17	6.00	1.9191	399.6874
1340	1509382478	54.9255	-115.0457	2131.9	1119.5	95.0	7.7	-7.1	0.17	6.00	1.9209	400.1053
1341	1509382479	54.9254	-115.0443	2132.4	1121.4	94.8	7.6	-7.2	0.17	6.00	1.9209	399.9452
1342	1509382480	54.9252	-115.0430	2133.1	1123.4	94.9	7.6	-7.2	0.17	6.00	1.9201	399.9452
1343	1509382481	54.9251	-115.0417	2133.6	1122.0	95.0	7.5	-7.0	0.17	6.00	1.9196	399.6366
1344	1509382482	54.9250	-115.0404	2134.1	1122.8	95.0	7.5	-7.0	0.17	6.00	1.9193	400.1269
1345	1509382483	54.9249	-115.0391	2134.7	1123.4	94.9	7.3	-7.1	0.17	6.00	1.9203	399.5728
1346	1509382484	54.9247	-115.0377	2135.4	1124.4	94.8	7.3	-7.2	0.17	5.99	1.9191	399.2885
1347	1509382485	54.9246	-115.0363	2136.2	1126.2	94.7	7.2	-7.2	0.16	5.99	1.9191	399.6277
1348	1509382486	54.9245	-115.0351	2136.8	1126.8	94.7	7.1	-7.2	0.16	5.99	1.9190	399.6277
1349	1509382487	54.9244	-115.0337	2137.6	1129.9	94.6	7.1	-7.3	0.16	5.99	1.9190	399.6277
1350	1509382488	54.9242	-115.0324	2138.3	1133.3	94.6	7.0	-7.3	0.16	5.99	1.9190	399.6277
1351	1509382489	54.9241	-115.0310	2138.7	1139.8	94.5	7.0	-7.4	0.16	5.99	1.9189	399.6277
1352	1509382490	54.9240	-115.0297	2139.1	1144.9	94.5	6.9	-7.3	0.16	5.99	1.9195	400.0281
1353	1509382491	54.9239	-115.0284	2139.5	1147.5	94.4	6.9	-7.3	0.16	5.98	1.9201	400.7818
1354	1509382492	54.9238	-115.0271	2139.7	1147.7	94.4	7.0	-7.3	0.16	5.98	1.9196	400.9252
1355	1509382493	54.9236	-115.0258	2139.7	1146.7	94.2	7.0	-7.3	0.16	5.98	1.9204	399.8237
1356	1509382494	54.9235	-115.0246	2139.7	1148.0	94.2	7.0	-7.3	0.15	5.98	1.9196	400.3306
1357	1509382495	54.9235	-115.0244	2139.7	1149.4	94.2	6.7	-7.3	0.15	5.98	1.9205	399.2887
1358	1509382496	54.9235	-115.0242	2139.6	1149.4	94.1	6.5	-7.3	0.15	5.98	1.9190	399.2887
1359	1509382497	54.9235	-115.0240	2139.6	1149.9	94.1	6.5	-7.3	0.15	5.98	1.9199	400.8846
1360	1509382498	54.9234	-115.0232	2139.5	1153.5	93.9	6.5	-7.4	0.15	5.97	1.9210	398.7769
1361	1509382499	54.9233	-115.0217	2139.5	1162.5	93.9	6.5	-7.3	0.15	5.97	1.9214	400.5686
1362	1509382500	54.9232	-115.0203	2139.7	1171.7	94.0	6.6	-7.3	0.15	5.97	1.9198	400.8925
1363	1509382501	54.9230	-115.0188	2139.9	1177.9	93.9	6.6	-7.3	0.15	5.97	1.9188	400.3958
1364	1509382502	54.9229	-115.0173	2140.4	1181.3	93.7	6.6	-7.5	0.15	5.97	1.9190	399.6485
1365	1509382503	54.9228	-115.0159	2140.9	1185.0	93.7	6.6	-7.5	0.14	5.97	1.9200	399.0891
1366	1509382504	54.9227	-115.0144	2141.4	1191.5	93.6	6.5	-7.4	0.14	5.97	1.9206	400.4363
1367	1509382505	54.9225	-115.0129	2141.9	1197.2	93.5	6.0	-7.5	0.14	5.96	1.9193	398.0277
1368	1509382506	54.9224	-115.0114	2142.3	1203.1	93.6	6.1	-7.3	0.14	5.96	1.9198	400.5276
1369	1509382507	54.9223	-115.0099	2142.2	1205.7	93.6	6.2	-7.2	0.14	5.96	1.9201	400.3462
1370	1509382508	54.9222	-115.0085	2141.7	1207.0	93.6	6.3	-7.3	0.14	5.96	1.9202	400.7108
1371	1509382509	54.9221	-115.0070	2141.1	1208.1	93.5	6.4	-7.4	0.14	5.96	1.9196	399.7331
1372	1509382510	54.9219	-115.0055	2140.1	1208.4	93.6	6.6	-7.1	0.14	5.96	1.9190	398.8550
1373	1509382511	54.9218	-115.0040	2139.0	1206.7	93.6	6.7	-7.2	0.14	5.96	1.9201	399.9243
1374	1509382512	54.9217	-115.0026	2137.9	1205.0	93.4	6.9	-7.3	0.13	5.96	1.9201	399.8139
1375	1509382513	54.9216	-115.0010	2136.8	1203.9	93.3	7.0	-7.4	0.13	5.95	1.9206	400.0985
1376	1509382514	54.9214	-114.9996	2135.9	1206.8	93.4	7.3	-7.4	0.13	5.95	1.9208	400.1859
1377	1509382515	54.9213	-114.9981	2135.1	1213.4	93.7	7.4	-7.2	0.13	5.95	1.9198	400.2972
1378	1509382516	54.9212	-114.9966	2134.5	1216.5	93.8	7.5	-7.2	0.13	5.95	1.9208	399.9039
1379	1509382517	54.9211	-114.9951	2134.1	1215.2	93.8	7.6	-7.3	0.13	5.95	1.9214	400.2195
1380	1509382518	54.9210	-114.9936	2133.8	1214.4	93.8	7.2	-7.3	0.13	5.95	1.9205	400.0043
1381	1509382519	54.9208	-114.9921	2133.4	1220.0	93.9	7.3	-7.3	0.13	5.95	1.9204	399.7185
1382	1509382520	54.9207	-114.9906	2133.0	1224.2	94.1	7.3	-7.4	0.12	5.94	1.9207	400.7299
1383	1509382521	54.9206	-114.9891	2132.4	1228.3	94.3	7.4	-7.4	0.12	5.94	1.9215	400.3052
1384	1509382522	54.9204	-114.9876	2131.7	1232.7	94.6	7.6	-7.2	0.12	5.94	1.9204	400.5286
1385	1509382523	54.9203	-114.9861	2130.9	1237.2	94.5	7.7	-7.4	0.12	5.94	1.9211	400.5526
1386	1509382524	54.9202	-114.9845	2129.9	1240.0	94.6	7.8	-7.5	0.12	5.94	1.9212	400.7809
1387	1509382525	54.9200	-114.9830	2129.2	1242.5	94.7	7.9	-7.4	0.12	5.94	1.9210	400.2877
1388	1509382526	54.9199	-114.9817	2128.7	1241.8	94.9	8.0	-7.5	0.12	5.94	1.9217	400.1876
1389	1509382527	54.9198	-114.9802	2128.5	1241.5	95.1	8.0	-7.3	0.12	5.93	1.9227	400.1843
1390	1509382528	54.9196	-114.9789	2128.5	1243.2	95.4	8.1	-6.9	0.12	5.93	1.9208	400.5075
1391	1509382529	54.9195	-114.9775	2128.7	1247.0	95.3	8.0	-7.1	0.11	5.93	1.9214	400.5720
1392	1509382530	54.9194	-114.9762	2129.0	1253.0	95.3	8.0	-7.1	0.11	5.93	1.9209	399.5253
1393	1509382531	54.9192	-114.9749	2129.5	1257.5	95.2	8.3	-7.4	0.11	5.93	1.9226	399.7647
1394	1509382532	54.9191	-114.9734	2129.9	1261.1	95.1	8.4	-7.4	0.11	5.93	1.9222	399.3706
1395	1509382533	54.9190	-114.9721	2130.3	1262.3	95.4	8.3	-7.2	0.11	5.93	1.9206	400.9410
1396	1509382534	54.9189	-114.9708	2130.5	1262.5	95.2	8.4	-7.3	0.11	5.92	1.9211	399.6432
1397	1509382535	54.9187	-114.9695	2130.4	1262.4	95.3	7.9	-7.2	0.11	5.92	1.9214	400.3565
1398	1509382536	54.9186	-114.9680	2130.3	1262.3	95.4	7.8	-6.9	0.11	5.92	1.9214	399.5365
1399	1509382537	54.9185	-114.9667	2130.1	1262.1	95.4	7.7	-7.0	0.11	5.92	1.9210	400.6447
1400	1509382538	54.9183	-114.9653	2129.9	1261.9	95.4	7.7	-7.1	0.10	5.92	1.9219	399.2801
1401	1509382539	54.9182	-114.9639	2129.8	1261.8	95.4	7.6	-6.9	0.10	5.92	1.9237	400.6865
1402	1509382540	54.9181	-114.9626	2130.0	1262.0	95.3	7.9	-7.0	0.10	5.92	1.9227	400.7486
1403	1509382541	54.9179	-114.9612	2130.4	1262.4	95.3	8.0	-6.9	0.10	5.91	1.9216	400.8973
1404	1509382542	54.9178	-114.9599	2131.0	1251.6	95.2	7.9	-6.8	0.10	5.91	1.9219	400.0964
1405	1509382543	54.9177	-114.9585	2131.7	1245.3	95.1	7.7	-6.8	0.10	5.91	1.9220	399.9996
1406	1509382544	54.9176	-114.9573	2132.3	1242.3	95.0	7.6	-6.8	0.10	5.91	1.9211	399.7409
1407	1509382545	54.9174	-114.9558	2133.2	1243.2	94.8	7.5	-6.9	0.10	5.91	1.9202	400.5606
1408	1509382546	54.9173	-114.9545	2134.0	1243.0	94.7	7.4	-6.9	0.10	5.91	1.9202	400.5606
1409	1509382547	54.9172	-114.9532	2134.7	1243.7	94.5	7.2	-7.1	0.09	5.91	1.9202	400.5606
1410	1509382548	54.9171	-114.9518	2135.4	1245.5	94.5	7.3	-7.0	0.09	5.90	1.9202	400.5606
1411	1509382549	54.9170	-114.9505	2136.1	1248.1	94.4	7.3	-7.0	0.09	5.90	1.9208	400.6669
1412	1509382550	54.9168	-114.9491	2136.6	1251.4	94.4	7.0	-6.9	0.09	5.90	1.9202	400.2750
1413	1509382551	54.9167	-114.9479	2137.1	1253.4	94.3	7.1	-7.0	0.09	5.90	1.9214	400.2683
1414	1509382552	54.9166	-114.9465	2137.5	1256.6	94.3	7.4	-6.9	0.09	5.90	1.9211	399.5528
1415	1509382553	54.9165	-114.9451	2137.8	1256.7	94.1	7.4	-6.8	0.09	5.90	1.9205	401.5017
1416	1509382554	54.9164	-114.9439	2138.2	1256.9	94.1	7.4	-6.6	0.09	5.90	1.9201	401.0064
1417	1509382555	54.9164	-114.9437	2138.2	1256.9	94.1	7.4	-6.6	0.08	5.90	1.9213	400.5204
1418	1509382556	54.9164	-114.9435	2138.3	1257.3	94.1	7.4	-6.6	0.08	5.89	1.9208	400.7348
1419	1509382557	54.9164	-114.9433	2138.3	1257.3	94.1	7.4	-6.6	0.08	5.89	1.9219	400.5335
1420	1509382558	54.9163	-114.9427	2138.4	1257.4	94.0	7.4	-6.7	0.08	5.89	1.9219	399.8892
1421	1509382559	54.9162	-114.9412	2138.7	1258.7	93.6	7.4	-6.8	0.08	5.89	1.9217	400.3064
1422	1509382560	54.9161	-114.9397	2139.0	1261.8	93.4	7.4	-6.8	0.08	5.89	1.9205	399.6791
1423	1509382561	54.9160	-114.9382	2139.2	1266.4	93.1	7.5	-6.9	0.08	5.89	1.9213	400.3568
1424	1509382562	54.9158	-114.9367	2139.3	1270.7	93.1	7.5	-6.8	0.08	5.89	1.9216	400.4280
1425	1509382563	54.9157	-114.9353	2139.1	1273.0	92.9	7.1	-6.9	0.08	5.88	1.9224	398.4937
1426	1509382564	54.9156	-114.9337	2138.9	1273.9	92.7	7.2	-7.0	0.07	5.88	1.9218	400.0719
1427	1509382565	54.9155	-114.9322	2138.7	1273.7	92.5	7.3	-7.0	0.07	5.88	1.9212	399.6866
1428	1509382566	54.9154	-114.9307	2138.4	1275.5	92.4	7.4	-7.0	0.07	5.88	1.9220	399.4223
1429	1509382567	54.9153	-114.9292	2138.2	1276.2	92.4	7.5	-7.0	0.07	5.88	1.9223	398.6306
1430	1509382568	54.9152	-114.9277	2137.9	1279.0	92.5	7.6	-6.9	0.07	5.88	1.9221	400.4161
1431	1509382569	54.9151	-114.9262	2137.4	1281.5	92.5	7.7	-7.1	0.07	5.88	1.9221	400.5216
1432	1509382570	54.9150	-114.9247	2137.0	1287.0	92.6	7.8	-6.9	0.07	5.87	1.9217	400.9648
1433	1509382571	54.9149	-114.9232	2136.4	1289.6	92.7	7.4	-7.0	0.07	5.87	1.9230	400.4961
1434	1509382572	54.9148	-114.9217	2136.1	1290.1	92.7	7.5	-6.9	0.07	5.87	1.9232	400.8446
1435	1509382573	54.9147	-114.9202	2135.8	1291.1	92.7	7.6	-6.9	0.06	5.87	1.9226	399.8218
1436	1509382574	54.9146	-114.9187	2135.8	1292.8	92.9	7.6	-6.8	0.06	5.87	1.9217	400.6604
1437	1509382575	54.9145	-114.9172	2135.9	1293.9	93.2	7.6	-6.7	0.06	5.87	1.9216	399.3775
1438	1509382576	54.9144	-114.9158	2136.1	1295.1	93.2	7.6	-6.8	0.06	5.87	1.9224	399.9490
1439	1509382577	54.9142	-114.9143	2136.5	1296.8	93.3	7.6	-6.8	0.06	5.86	1.9232	401.3108
1440	1509382578	54.9141	-114.9128	2136.8	1298.8	93.3	7.6	-7.0	0.06	5.86	1.9217	400.5892
1441	1509382579	54.9140	-114.9113	2136.9	1299.9	93.5	7.7	-6.9	0.06	5.86	1.9212	400.6262
1442	1509382580	54.9139	-114.9098	2136.8	1300.8	93.6	7.7	-7.0	0.06	5.86	1.9225	400.8058
1443	1509382581	54.9138	-114.9083	2136.4	1301.4	93.8	7.3	-7.0	0.06	5.86	1.9212	400.9136
1444	1509382582	54.9137	-114.9068	2136.1	1302.1	93.8	7.3	-7.1	0.05	5.86	1.9204	400.5359
1445	1509382583	54.9135	-114.9053	2135.6	1301.5	93.9	7.3	-7.2	0.05	5.86	1.9202	399.2789
1446	1509382584	54.9134	-114.9038	2135.2	1302.2	94.0	7.0	-7.3	0.05	5.85	1.9216	400.0885
1447	1509382585	54.9133	-114.9023	2134.8	1302.7	94.3	6.9	-7.2	0.05	5.85	1.9207	399.5699
1448	1509382586	54.9132	-114.9008	2134.6	1303.6	94.4	6.9	-7.5	0.05	5.85	1.9225	401.5356
1449	1509382587	54.9130	-114.8993	2134.7	1304.7	94.6	6.9	-7.3	0.05	5.85	1.9228	400.0788
1450	1509382588	54.9129	-114.8978	2134.8	1306.8	94.7	6.9	-7.3	0.05	5.85	1.9224	400.9214
1451	1509382589	54.9128	-114.8964	2135.2	1310.2	94.9	7.2	-7.3	0.05	5.85	1.9223	399.7853
1452	1509382590	54.9126	-114.8950	2135.5	1312.7	94.9	7.3	-7.3	0.04	5.85	1.9220	400.1462
1453	1509382591	54.9125	-114.8937	2135.7	1312.8	94.9	7.3	-7.4	0.04	5.84	1.9230	399.8416
1454	1509382592	54.9124	-114.8923	2135.8	1312.5	95.1	7.3	-7.2	0.04	5.84	1.9229	399.1910
1455	1509382593	54.9122	-114.8910	2135.7	1313.3	95.1	7.3	-7.4	0.04	5.84	1.9229	400.0756
1456	1509382594	54.9121	-114.8896	2135.4	1314.4	95.1	7.3	-7.5	0.04	5.84	1.9210	400.1472
1457	1509382595	54.9120	-114.8883	2135.1	1312.0	94.9	7.3	-7.6	0.04	5.84	1.9204	400.1472
1458	1509382596	54.9118	-114.8869	2134.8	1310.8	95.0	7.3	-7.6	0.04	5.84	1.9220	401.0125
1459	1509382597	54.9117	-114.8856	2134.4	1312.0	95.0	7.4	-7.5	0.04	5.84	1.9231	399.9680
1460	1509382598	54.9116	-114.8843	2134.0	1316.4	94.9	7.4	-7.6	0.04	5.83	1.9220	400.3097
1461	1509382599	54.9115	-114.8828	2133.5	1319.5	94.8	7.4	-7.7	0.03	5.83	1.9217	400.6358
1462	1509382600	54.9113	-114.8815	2133.2	1321.8	94.8	7.5	-7.7	0.03	5.83	1.9221	399.3181
1463	1509382601	54.9112	-114.8801	2132.9	1322.9	94.8	7.5	-7.7	0.03	5.83	1.9221	400.7915
1464	1509382602	54.9111	-114.8787	2132.6	1323.3	94.9	7.5	-7.6	0.03	5.83	1.9217	399.5253
1465	1509382603	54.9109	-114.8773	2132.4	1324.0	94.9	7.5	-7.7	0.03	5.83	1.9215	396.1486
1466	1509382604	54.9108	-114.8760	2132.3	1324.4	94.9	7.5	-7.6	0.03	5.83	1.9218	396.1486
1467	1509382605	54.9107	-114.8747	2132.3	1325.3	94.7	7.6	-7.7	0.03	5.83	1.9218	400.6590
1468	1509382606	54.9105	-114.8733	2132.5	1325.6	94.7	7.8	-7.6	0.03	5.82	1.9216	400.5962
1469	1509382607	54.9104	-114.8720	2132.7	1323.7	94.7	8.0	-7.7	0.03	5.82	1.9215	400.5333
1470	1509382608	54.9103	-114.8707	2133.0	1321.1	94.7	8.0	-7.7	0.02	5.82	1.9213	400.4705
1471	1509382609	54.9102	-114.8693	2133.3	1317.1	94.7	8.1	-7.7	0.02	5.82	1.9210	400.4119
1472	1509382610	54.9100	-114.8679	2133.5	1316.4	94.6	8.5	-7.8	0.02	5.82	1.9205	399.0197
1473	1509382611	54.9099	-114.8665	2133.5	1319.1	94.6	8.5	-7.7	0.02	5.82	1.9205	400.7822
1474	1509382612	54.9098	-114.8651	2133.2	1322.2	94.4	8.5	-7.9	0.02	5.82	1.9221	398.8529
1475	1509382613	54.9097	-114.8638	2132.9	1322.9	94.2	8.6	-8.0	0.02	5.81	1.9201	399.0388
1476	1509382614	54.9095	-114.8625	2132.5	1323.5	94.1	8.6	-8.1	0.02	5.81	1.9204	399.9919
1477	1509382615	54.9095	-114.8623	2132.4	1323.4	94.1	8.7	-8.1	0.02	5.81	1.9207	400.3020
1478	1509382616	54.9095	-114.8622	2132.3	1323.3	94.1	8.7	-8.1	0.01	5.81	1.9208	400.1536
1479	1509382617	54.9095	-114.8620	2132.2	1323.2	94.1	8.7	-8.1	0.01	5.81	1.9214	399.6137
1480	1509382618	54.9094	-114.8613	2131.8	1322.8	94.0	8.7	-8.1	0.01	5.81	1.9207	400.1333
1481	1509382619	54.9093	-114.8597	2131.2	1323.2	94.0	8.9	-7.9	0.01	5.81	1.9210	401.1703
1482	1509382620	54.9092	-114.8582	2130.5	1322.5	94.0	8.9	-8.0	0.01	5.80	1.9209	398.9442
1483	1509382621	54.9090	-114.8567	2129.9	1322.9	93.8	9.0	-8.0	0.01	5.80	1.9221	400.6020
1484	1509382622	54.9089	-114.8551	2129.5	1322.8	93.5	8.9	-8.1	0.01	5.80	1.9207	400.1449
1485	1509382623	54.9088	-114.8536	2129.3	1323.3	93.5	8.6	-7.9	0.01	5.80	1.9217	400.3200
1486	1509382624	54.9086	-114.8521	2129.3	1323.3	93.5	8.6	-7.9	0.01	5.80	1.9209	399.9974
1487	1509382625	54.9085	-114.8506	2129.4	1323.9	93.5	9.1	-7.8	0.00	5.80	1.9206	400.3387
1488	1509382626	54.9084	-114.8491	2129.7	1324.5	93.4	9.1	-7.7	0.00	5.80	1.9213	400.4541
1489	1509382627	54.9083	-114.8476	2130.1	1323.3	93.2	9.2	-7.6	0.00	5.79	1.9218	398.4958
1490	1509382628	54.9082	-114.8461	2130.5	1321.5	93.1	9.2	-7.6	0.00	5.79	1.9207	400.2248
1491	1509382629	54.9080	-114.8445	2131.1	1319.1	92.9	9.1	-7.6	0.00	5.79	1.9210	399.9389
1492	1509382630	54.9079	-114.8430	2131.8	1315.8	92.8	9.0	-7.5	0.00	5.79	1.9206	399.4762
1493	1509382631	54.9078	-114.8415	2132.6	1314.9	92.7	9.0	-7.5	0.00	5.79	1.9212	400.9276
1494	1509382632	54.9077	-114.8400	2133.5	1315.5	92.7	9.4	-7.5	0.00	5.79	1.9214	400.1895
1495	1509382633	54.9076	-114.8385	2134.2	1316.2	92.8	9.4	-7.4	0.00	5.79	1.9213	399.5600
1496	1509382634	54.9075	-114.8370	2134.9	1316.9	92.8	9.4	-7.4	-0.01	5.78	1.9220	400.0879
1497	1509382635	54.9074	-114.8355	2135.4	1317.7	92.8	9.4	-7.2	-0.01	5.78	1.9217	400.3666
1498	1509382636	54.9073	-114.8339	2135.6	1319.7	92.8	9.5	-7.2	-0.01	5.78	1.9212	400.1720
1499	1509382637	54.9071	-114.8323	2135.5	1319.5	92.8	9.5	-7.1	-0.01	5.78	1.9213	400.2660
1500	1509382638	54.9070	-114.8307	2135.0	1320.7	92.8	9.7	-7.2	-0.01	5.78	1.9208	400.7537
1501	1509382639	54.9069	-114.8292	2134.4	1321.4	92.8	9.8	-7.2	-0.01	5.78	1.9220	399.2046
1502	1509382640	54.9068	-114.8277	2133.7	1323.0	92.9	9.9	-7.2	-0.01	5.78	1.9212	400.4217
1503	1509382641	54.9067	-114.8261	2133.0	1324.7	93.0	9.7	-7.0	-0.01	5.77	1.9204	400.2771
1504	1509382642	54.9066	-114.8246	2132.6	1325.9	93.0	9.7	-7.0	-0.01	5.77	1.9209	400.2771
1505	1509382643	54.9065	-114.8231	2132.3	1326.5	93.1	9.8	-7.0	-0.02	5.77	1.9212	400.1978
1506	1509382644	54.9064	-114.8215	2132.2	1327.9	93.4	9.9	-6.8	-0.02	5.77	1.9214	400.1680
1507	1509382645	54.9062	-114.8200	2132.3	1330.3	93.4	9.8	-6.9	-0.02	5.77	1.9212	402.8987
1508	1509382646	54.9061	-114.8185	2132.6	1333.6	93.5	9.8	-6.9	-0.02	5.77	1.9212	400.2501
1509	1509382647	54.9060	-114.8171	2133.3	1335.2	93.5	9.5	-7.0	-0.02	5.77	1.9219	397.8204
1510	1509382648	54.9059	-114.8157	2134.0	1337.8	93.6	9.3	-6.8	-0.02	5.77	1.9213	400.4433
1511	1509382649	54.9058	-114.8143	2134.9	1340.4	93.7	9.2	-6.9	-0.02	5.76	1.9211	398.9065
1512	1509382650	54.9057	-114.8131	2135.8	1344.0	93.7	9.5	-6.9	-0.02	5.76	1.9218	398.9065
1513	1509382651	54.9056	-114.8116	2136.9	1349.2	93.8	9.6	-6.8	-0.03	5.76	1.9200	399.6629
1514	1509382652	54.9055	-114.8102	2137.8	1349.8	93.8	9.5	-6.9	-0.03	5.76	1.9203	399.6711
1515	1509382653	54.9054	-114.8088	2138.3	1354.3	93.8	9.6	-6.9	-0.03	5.76	1.9212	400.3243
1516	1509382654	54.9053	-114.8074	2138.5	1359.8	93.8	9.6	-6.9	-0.03	5.76	1.9223	400.3243
1517	1509382655	54.9052	-114.8062	2138.6	1365.2	93.9	9.7	-6.9	-0.03	5.76	1.9219	399.6096
1518	1509382656	54.9050	-114.8047	2138.5	1372.1	93.9	9.7	-6.9	-0.03	5.75	1.9212	400.0008
1519	1509382657	54.9049	-114.8033	2138.2	1378.2	93.9	10.1	-6.9	-0.03	5.75	1.9211	400.0656
1520	1509382658	54.9048	-114.8018	2137.8	1389.4	94.1	10.4	-6.9	-0.03	5.75	1.9217	400.0656
1521	1509382659	54.9047	-114.8004	2137.2	1397.2	94.3	10.3	-6.6	-0.03	5.75	1.9218	399.7523
1522	1509382660	54.9046	-114.7991	2136.8	1404.4	94.5	10.2	-6.5	-0.04	5.75	1.9206	400.0166
1523	1509382661	54.9045	-114.7977	2136.5	1408.5	94.6	10.3	-6.4	-0.04	5.75	1.9214	400.1621
1524	1509382662	54.9044	-114.7963	2136.3	1409.3	94.5	10.4	-6.6	-0.04	5.75	1.9214	400.4098
1525	1509382663	54.9043	-114.7950	2136.2	1409.7	94.6	10.4	-6.7	-0.04	5.74	1.9209	399.0229
1526	1509382664	54.9041	-114.7935	2136.3	1410.9	94.7	10.4	-6.7	-0.04	5.74	1.9215	399.6478
1527	1509382665	54.9040	-114.7921	2136.5	1411.5	95.0	10.5	-6.6	-0.04	5.74	1.9220	401.3285
1528	1509382666	54.9039	-114.7908	2136.7	1412.7	95.2	10.6	-6.5	-0.04	5.74	1.9222	401.3285
1529	1509382667	54.9038	-114.7894	2137.0	1414.0	95.3	10.7	-6.3	-0.04	5.74	1.9225	401.3285
1530	1509382668	54.9037	-114.7881	2137.3	1415.3	95.4	10.7	-6.2	-0.04	5.74	1.9227	401.3285
1531	1509382669	54.9035	-114.7866	2137.6	1416.6	95.3	10.6	-6.4	-0.05	5.74	1.9219	401.2756
1532	1509382670	54.9034	-114.7852	2137.7	1416.8	95.4	10.7	-6.3	-0.05	5.73	1.9213	399.7913
1533	1509382671	54.9033	-114.7838	2137.9	1417.9	95.2	10.7	-6.5	-0.05	5.73	1.9215	399.0959
1534	1509382672	54.9032	-114.7824	2138.0	1419.0	95.5	10.8	-6.1	-0.05	5.73	1.9220	398.9270
1535	1509382673	54.9030	-114.7810	2138.0	1419.0	95.3	10.6	-6.2	-0.05	5.73	1.9209	400.3235
1536	1509382674	54.9029	-114.7797	2137.9	1418.2	95.4	10.3	-6.0	-0.05	5.73	1.9212	399.9741
1537	1509382675	54.9029	-114.7795	2137.9	1417.9	95.4	10.3	-6.0	-0.05	5.73	1.9222	399.0574
1538	1509382676	54.9029	-114.7793	2137.8	1417.8	95.4	10.3	-6.0	-0.05	5.73	1.9220	399.9952
1539	1509382677	54.9029	-114.7791	2137.8	1417.8	95.4	10.2	-6.0	-0.05	5.72	1.9217	399.6559
1540	1509382678	54.9028	-114.7783	2137.8	1417.8	95.2	10.3	-6.1	-0.06	5.72	1.9210	399.6559
1541	1509382679	54.9027	-114.7768	2137.6	1415.9	94.8	9.8	-6.7	-0.06	5.72	1.9221	399.1817
1542	1509382680	54.9025	-114.7753	2137.4	1411.8	94.7	9.7	-6.8	-0.06	5.72	1.9210	400.1999
1543	1509382681	54.9024	-114.7737	2137.0	1403.8	94.9	9.8	-6.5	-0.06	5.72	1.9214	399.8936
1544	1509382682	54.9023	-114.7722	2136.8	1392.9	94.9	9.8	-6.5	-0.06	5.72	1.9222	399.8936
1545	1509382683	54.9021	-114.7706	2136.7	1374.5	94.3	9.7	-7.0	-0.06	5.72	1.9207	400.3391
1546	1509382684	54.9020	-114.7691	2136.7	1361.0	94.4	9.7	-6.9	-0.06	5.71	1.9208	399.4562
1547	1509382685	54.9019	-114.7675	2137.1	1355.2	94.4	9.7	-6.9	-0.06	5.71	1.9216	399.9092
1548	1509382686	54.9018	-114.7660	2137.6	1355.4	94.3	9.5	-7.0	-0.07	5.71	1.9226	399.9092
1549	1509382687	54.9016	-114.7644	2138.5	1358.0	94.2	9.5	-7.0	-0.07	5.71	1.9198	400.2153
1550	1509382688	54.9015	-114.7629	2139.6	1361.3	94.2	9.3	-7.0	-0.07	5.71	1.9202	400.6456
1551	1509382689	54.9014	-114.7613	2140.9	1359.9	94.2	9.1	-6.8	-0.07	5.71	1.9207	400.1963
1552	1509382690	54.9012	-114.7597	2142.0	1356.0	94.0	9.0	-6.9	-0.07	5.71	1.9211	400.1564
1553	1509382691	54.9011	-114.7582	2142.7	1351.7	93.9	8.9	-6.8	-0.07	5.70	1.9208	400.2790
1554	1509382692	54.9010	-114.7567	2142.9	1347.4	93.8	9.0	-6.7	-0.07	5.70	1.9217	400.4653
1555	1509382693	54.9009	-114.7551	2142.8	1345.8	93.6	8.9	-6.7	-0.07	5.70	1.9212	400.3812
1556	1509382694	54.9008	-114.7536	2142.5	1344.5	93.6	9.0	-6.6	-0.07	5.70	1.9220	399.5243
1557	1509382695	54.9006	-114.7521	2142.0	1344.0	93.5	9.1	-6.4	-0.08	5.70	1.9234	399.7969
1558	1509382696	54.9005	-114.7505	2141.7	1344.0	93.3	9.1	-6.6	-0.08	5.70	1.9209	400.9432
1559	1509382697	54.9004	-114.7490	2141.5	1344.5	93.0	9.0	-6.8	-0.08	5.70	1.9209	398.4995
1560	1509382698	54.9003	-114.7475	2141.2	1345.0	93.1	9.1	-6.6	-0.08	5.70	1.9210	400.5111
1561	1509382699	54.9002	-114.7460	2141.0	1346.7	93.0	9.1	-6.6	-0.08	5.69	1.9211	399.2010
1562	1509382700	54.9001	-114.7444	2140.7	1346.8	93.0	9.1	-6.5	-0.08	5.69	1.9216	398.9725
1563	1509382701	54.9000	-114.7429	2140.5	1347.6	92.9	9.2	-6.6	-0.08	5.69	1.9226	399.3113
1564	1509382702	54.8999	-114.7413	2140.4	1350.0	92.7	9.1	-6.8	-0.08	5.69	1.9227	399.6607
1565	1509382703	54.8998	-114.7398	2140.3	1352.7	93.0	9.7	-6.3	-0.08	5.69	1.9225	400.0118
1566	1509382704	54.8997	-114.7382	2139.9	1358.8	93.1	9.8	-6.3	-0.09	5.69	1.9233	398.5737
1567	1509382705	54.8996	-114.7367	2139.2	1360.2	93.3	9.9	-5.9	-0.09	5.69	1.9225	400.7638
1568	1509382706	54.8995	-114.7351	2138.5	1360.5	93.1	10.0	-6.1	-0.09	5.68	1.9226	400.0124
1569	1509382707	54.8994	-114.7337	2137.6	1361.0	93.2	10.1	-5.9	-0.09	5.68	1.9240	400.3649
1570	1509382708	54.8993	-114.7323	2136.5	1359.2	93.1	9.8	-6.0	-0.09	5.68	1.9210	399.2878
1571	1509382709	54.8992	-114.7310	2135.8	1358.1	93.2	9.9	-5.9	-0.09	5.68	1.9221	400.1606
1572	1509382710	54.8991	-114.7296	2135.0	1358.6	93.1	10.1	-5.8	-0.09	5.68	1.9220	399.0154
1573	1509382711	54.8990	-114.7281	2134.4	1359.0	93.2	10.2	-5.7	-0.09	5.68	1.9223	398.2807
1574	1509382712	54.8989	-114.7267	2133.9	1359.7	93.7	10.4	-5.1	-0.09	5.68	1.9223	399.5300
1575	1509382713	54.8988	-114.7253	2133.7	1361.0	93.5	10.4	-5.3	-0.10	5.67	1.9220	399.5300
1576	1509382714	54.8987	-114.7238	2133.7	1359.7	93.6	10.4	-5.2	-0.10	5.67	1.9223	399.4667
1577	1509382715	54.8986	-114.7224	2133.8	1357.9	93.8	10.5	-4.9	-0.10	5.67	1.9226	400.6373
1578	1509382716	54.8985	-114.7210	2133.9	1355.5	94.1	10.5	-4.7	-0.10	5.67	1.9239	399.4997
1579	1509382717	54.8985	-114.7196	2134.0	1356.7	93.8	10.5	-5.1	-0.10	5.67	1.9241	399.2389
1580	1509382718	54.8984	-114.7183	2134.3	1357.0	94.0	10.3	-4.5	-0.10	5.67	1.9234	399.2268
1581	1509382719	54.8983	-114.7169	2134.5	1355.8	94.5	10.1	-4.0	-0.10	5.67	1.9236	400.1141
1582	1509382720	54.8982	-114.7154	2134.9	1359.3	94.5	9.8	-4.0	-0.10	5.66	1.9225	400.1704
1583	1509382721	54.8981	-114.7140	2135.5	1362.8	94.5	9.9	-3.9	-0.11	5.66	1.9226	399.4315
1584	1509382722	54.8980	-114.7126	2136.1	1365.2	94.3	10.1	-4.2	-0.11	5.66	1.9230	398.9927
1585	1509382723	54.8979	-114.7112	2136.8	1358.8	94.4	9.7	-4.0	-0.11	5.66	1.9229	399.8859
1586	1509382724	54.8978	-114.7098	2137.5	1353.5	94.5	9.2	-4.0	-0.11	5.66	1.9227	400.5750
1587	1509382725	54.8977	-114.7084	2138.3	1353.4	94.4	8.6	-4.2	-0.11	5.66	1.9243	398.5833
1588	1509382726	54.8976	-114.7070	2139.4	1355.7	95.8	8.7	-2.2	-0.11	5.66	1.9234	398.8218
1589	1509382727	54.8975	-114.7055	2141.1	1356.4	95.8	9.1	-2.5	-0.11	5.65	1.9232	399.3134
1590	1509382728	54.8974	-114.7041	2142.4	1355.3	95.1	9.2	-3.2	-0.11	5.65	1.9229	399.8051
1591	1509382729	54.8973	-114.7027	2143.1	1353.6	94.8	8.9	-3.8	-0.11	5.65	1.9227	400.4671
1592	1509382730	54.8972	-114.7014	2143.4	1353.4	94.1	8.5	-4.6	-0.12	5.65	1.9216	400.2352
1593	1509382731	54.8971	-114.6999	2143.4	1354.3	94.5	8.6	-4.2	-0.12	5.65	1.9217	400.0965
1594	1509382732	54.8971	-114.6985	2143.5	1356.4	94.6	8.9	-4.2	-0.12	5.65	1.9219	397.8916
1595	1509382733	54.8970	-114.6971	2143.3	1358.3	94.7	9.2	-4.3	-0.12	5.65	1.9220	400.2553
1596	1509382734	54.8969	-114.6958	2143.1	1359.1	94.7	9.3	-4.1	-0.12	5.64	1.9235	400.0289
1597	1509382735	54.8969	-114.6956	2143.1	1359.2	94.8	9.3	-3.9	-0.12	5.64	1.9241	399.7121
1598	1509382736	54.8968	-114.6955	2143.0	1360.1	95.0	9.3	-3.7	-0.12	5.64	1.9239	399.7121
1599	1509382737	54.8968	-114.6953	2143.0	1360.0	95.1	9.3	-3.5	-0.12	5.64	1.9226	398.6163
1600	1509382738	54.8968	-114.6946	2142.8	1359.8	95.2	9.4	-3.4	-0.12	5.64	1.9227	399.8995
1601	1509382739	54.8967	-114.6929	2142.7	1360.7	94.5	9.3	-4.2	-0.13	5.64	1.9222	399.5834
1602	1509382740	54.8966	-114.6914	2142.7	1362.4	94.3	9.2	-4.6	-0.13	5.64	1.9216	399.0403
1603	1509382741	54.8965	-114.6898	2142.9	1363.3	94.9	9.2	-4.0	-0.13	5.64	1.9236	400.2205
1604	1509382742	54.8964	-114.6883	2143.1	1365.1	94.8	8.9	-4.0	-0.13	5.63	1.9224	400.7064
1605	1509382743	54.8962	-114.6868	2142.9	1365.9	94.6	9.3	-4.4	-0.13	5.63	1.9226	399.5842
1606	1509382744	54.8961	-114.6853	2142.5	1365.2	94.5	8.8	-4.4	-0.13	5.63	1.9233	399.7713
1607	1509382745	54.8960	-114.6837	2142.1	1364.1	94.9	8.5	-4.2	-0.13	5.63	1.9228	400.1676
1608	1509382746	54.8959	-114.6821	2141.7	1368.4	95.3	9.1	-3.7	-0.13	5.63	1.9226	400.5913
1609	1509382747	54.8958	-114.6805	2141.3	1374.4	95.2	9.1	-3.8	-0.14	5.63	1.9222	400.3512
1610	1509382748	54.8957	-114.6789	2140.9	1375.5	95.2	9.1	-3.9	-0.14	5.63	1.9231	400.2340
1611	1509382749	54.8956	-114.6774	2140.1	1375.0	95.1	9.2	-3.9	-0.14	5.62	1.9231	400.0431
1612	1509382750	54.8955	-114.6758	2139.3	1372.6	95.0	8.9	-4.0	-0.14	5.62	1.9218	400.0431
1613	1509382751	54.8954	-114.6742	2138.6	1371.9	94.4	8.9	-4.8	-0.14	5.62	1.9224	394.0075
1614	1509382752	54.8952	-114.6726	2138.2	1374.5	94.3	8.8	-5.0	-0.14	5.62	1.9225	400.7110
1615	1509382753	54.8951	-114.6710	2138.5	1376.8	95.5	8.5	-3.5	-0.14	5.62	1.9227	399.7948
1616	1509382754	54.8950	-114.6695	2138.9	1379.2	95.2	8.3	-4.1	-0.14	5.62	1.9231	400.3974
1617	1509382755	54.8949	-114.6679	2139.3	1383.3	95.7	8.4	-3.3	-0.14	5.62	1.9221	400.7514
1618	1509382756	54.8948	-114.6664	2139.7	1385.7	95.5	8.3	-3.5	-0.15	5.61	1.9231	399.8015
1619	1509382757	54.8947	-114.6648	2139.7	1386.7	94.9	7.7	-4.0	-0.15	5.61	1.9222	399.8183
1620	1509382758	54.8946	-114.6632	2139.8	1388.9	95.2	7.8	-3.5	-0.15	5.61	1.9217	399.9774
1621	1509382759	54.8945	-114.6617	2140.3	1391.3	95.6	8.3	-2.9	-0.15	5.61	1.9221	399.4793
1622	1509382760	54.8943	-114.6601	2141.1	1394.4	95.9	8.3	-2.4	-0.15	5.61	1.9238	398.4472
1623	1509382761	54.8942	-114.6585	2141.7	1397.2	94.9	9.1	-3.7	-0.15	5.61	1.9229	400.7098
1624	1509382762	54.8941	-114.6570	2141.6	1400.6	94.7	8.7	-3.8	-0.15	5.61	1.9225	399.6691
1625	1509382763	54.8940	-114.6554	2141.1	1403.8	94.8	8.7	-3.9	-0.15	5.60	1.9224	399.1609
1626	1509382764	54.8939	-114.6538	2140.4	1407.4	95.1	8.4	-3.4	-0.15	5.60	1.9231	400.2272
1627	1509382765	54.8938	-114.6523	2139.5	1410.2	95.0	8.4	-3.5	-0.16	5.60	1.9229	399.5311
1628	1509382766	54.8937	-114.6507	2138.7	1411.7	94.8	8.4	-3.7	-0.16	5.60	1.9236	399.4483
1629	1509382767	54.8936	-114.6492	2138.0	1412.3	95.1	8.5	-3.3	-0.16	5.60	1.9230	399.4483
1630	1509382768	54.8935	-114.6477	2137.4	1411.2	95.8	8.2	-2.5	-0.16	5.60	1.9229	399.3355
1631	1509382769	54.8934	-114.6463	2137.2	1408.3	96.0	8.1	-2.1	-0.16	5.60	1.9233	399.2154
1632	1509382770	54.8933	-114.6449	2137.3	1407.1	95.3	8.0	-2.9	-0.16	5.59	1.9242	399.2154
1633	1509382771	54.8932	-114.6435	2137.2	1405.7	95.4	8.3	-2.6	-0.16	5.59	1.9225	400.9052
1634	1509382772	54.8931	-114.6420	2137.1	1404.8	96.1	8.6	-2.0	-0.16	5.59	1.9228	398.5799
1635	1509382773	54.8930	-114.6406	2136.6	1402.9	95.5	8.5	-3.0	-0.16	5.59	1.9234	400.6705
1636	1509382774	54.8929	-114.6392	2135.9	1400.6	95.4	8.5	-2.9	-0.17	5.59	1.9230	399.9745
1637	1509382775	54.8928	-114.6378	2134.7	1396.7	96.5	8.6	-2.0	-0.17	5.59	1.9228	400.4050
1638	1509382776	54.8927	-114.6364	2133.5	1391.5	96.1	8.7	-2.6	-0.17	5.59	1.9220	399.9039
1639	1509382777	54.8926	-114.6350	2132.1	1388.6	97.2	9.0	-1.2	-0.17	5.58	1.9223	400.0637
1640	1509382778	54.8925	-114.6337	2130.6	1385.6	96.5	9.0	-2.1	-0.17	5.58	1.9234	400.6335
1641	1509382779	54.8924	-114.6321	2129.3	1383.6	96.8	8.8	-1.8	-0.17	5.58	1.9226	399.4898
1642	1509382780	54.8923	-114.6307	2128.3	1383.1	97.5	8.8	-1.3	-0.17	5.58	1.9214	399.7290
1643	1509382781	54.8922	-114.6293	2127.8	1383.1	96.7	8.9	-2.4	-0.17	5.58	1.9222	399.9226
1644	1509382782	54.8921	-114.6279	2127.1	1385.1	96.8	9.1	-2.5	-0.18	5.58	1.9240	397.2663
1645	1509382783	54.8920	-114.6264	2126.7	1387.7	97.2	8.9	-2.0	-0.18	5.58	1.9228	399.8925
1646	1509382784	54.8919	-114.6250	2126.3	1390.0	97.4	8.7	-2.0	-0.18	5.57	1.9217	399.6936
1647	1509382785	54.8917	-114.6236	2126.0	1391.9	96.9	8.8	-2.8	-0.18	5.57	1.9222	399.6936
1648	1509382786	54.8916	-114.6221	2125.3	1393.6	96.6	8.9	-3.4	-0.18	5.57	1.9224	400.5712
1649	1509382787	54.8915	-114.6207	2124.9	1396.1	96.9	9.0	-3.2	-0.18	5.57	1.9221	400.4336
1650	1509382788	54.8914	-114.6193	2124.7	1399.2	98.1	9.4	-1.7	-0.18	5.57	1.9218	400.2960
1651	1509382789	54.8913	-114.6179	2125.1	1403.1	98.4	9.4	-1.4	-0.18	5.57	1.9215	400.1583
1652	1509382790	54.8912	-114.6165	2126.0	1407.6	98.4	8.9	-1.2	-0.18	5.57	1.9223	400.2749
1653	1509382791	54.8910	-114.6151	2127.1	1411.0	97.8	8.9	-2.4	-0.19	5.57	1.9235	399.3712
1654	1509382792	54.8909	-114.6137	2128.0	1415.5	96.8	9.3	-3.6	-0.19	5.56	1.9237	399.0593
1655	1509382793	54.8908	-114.6123	2128.4	1421.2	98.1	9.0	-2.3	-0.19	5.56	1.9234	399.4202
1656	1509382794	54.8907	-114.6110	2128.6	1431.4	98.2	8.3	-2.6	-0.19	5.56	1.9228	399.7617
1657	1509382795	54.8907	-114.6108	2128.6	1433.4	98.3	8.4	-2.5	-0.19	5.56	1.9221	399.8176
1658	1509382796	54.8906	-114.6106	2128.7	1433.4	98.4	8.6	-2.4	-0.19	5.56	1.9229	400.2253
1659	1509382797	54.8906	-114.6104	2128.7	1435.3	98.5	8.7	-2.3	-0.19	5.56	1.9234	400.5139
1660	1509382798	54.8906	-114.6100	2128.7	1437.5	98.7	8.8	-2.1	-0.19	5.56	1.9225	399.6598
1661	1509382799	54.8904	-114.6085	2128.7	1447.1	98.2	9.1	-2.9	-0.19	5.55	1.9222	400.6503
1662	1509382800	54.8903	-114.6069	2128.4	1452.4	98.8	8.9	-2.0	-0.20	5.55	1.9227	400.3057
1663	1509382801	54.8901	-114.6053	2128.2	1454.8	98.3	9.0	-2.8	-0.20	5.55	1.9229	399.8732
1664	1509382802	54.8900	-114.6038	2127.9	1458.5	98.6	9.4	-2.5	-0.20	5.55	1.9237	401.1461
1665	1509382803	54.8898	-114.6022	2127.9	1463.2	99.6	9.5	-1.5	-0.20	5.55	1.9230	399.3325
1666	1509382804	54.8897	-114.6007	2128.3	1466.9	99.1	9.4	-2.1	-0.20	5.55	1.9216	400.0562
1667	1509382805	54.8895	-114.5991	2128.7	1475.4	98.4	9.3	-3.1	-0.20	5.55	1.9222	400.3034
1668	1509382806	54.8894	-114.5975	2128.9	1476.7	98.4	9.2	-3.0	-0.20	5.54	1.9230	398.6994
1669	1509382807	54.8892	-114.5960	2129.7	1478.4	99.3	9.3	-2.1	-0.20	5.54	1.9232	400.4546
1670	1509382808	54.8891	-114.5944	2130.4	1479.6	99.4	9.2	-1.9	-0.20	5.54	1.9221	400.3868
1671	1509382809	54.8889	-114.5928	2131.2	1481.5	100.1	9.2	-1.4	-0.21	5.54	1.9224	400.7334
1672	1509382810	54.8888	-114.5913	2132.0	1485.0	98.9	9.3	-2.9	-0.21	5.54	1.9238	399.5033
1673	1509382811	54.8886	-114.5898	2132.6	1487.3	99.6	9.3	-2.0	-0.21	5.54	1.9243	399.8379
1674	1509382812	54.8885	-114.5883	2133.0	1487.7	98.9	8.6	-2.9	-0.21	5.54	1.9238	397.7447
1675	1509382813	54.8883	-114.5867	2133.4	1487.5	99.5	9.7	-2.2	-0.21	5.53	1.9223	397.8083
1676	1509382814	54.8882	-114.5852	2133.9	1487.9	100.7	9.9	-0.9	-0.21	5.53	1.9231	401.0291
1677	1509382815	54.8880	-114.5836	2134.6	1487.6	99.7	9.6	-1.8	-0.21	5.53	1.9227	401.2183
1678	1509382816	54.8879	-114.5821	2135.3	1487.3	99.6	9.6	-1.7	-0.21	5.53	1.9226	399.2566
1679	1509382817	54.8877	-114.5806	2135.7	1486.8	99.0	8.9	-2.4	-0.22	5.53	1.9228	400.5097
1680	1509382818	54.8876	-114.5790	2136.1	1486.2	99.2	9.4	-2.3	-0.22	5.53	1.9233	400.4476
1681	1509382819	54.8874	-114.5775	2136.3	1487.1	99.0	9.3	-2.7	-0.22	5.53	1.9243	399.6740
1682	1509382820	54.8873	-114.5760	2136.5	1487.5	98.7	9.2	-2.9	-0.22	5.52	1.9222	400.3483
1683	1509382821	54.8871	-114.5744	2136.8	1487.8	99.2	9.7	-2.9	-0.22	5.52	1.9218	400.1523
1684	1509382822	54.8869	-114.5729	2137.1	1488.1	98.8	9.2	-3.1	-0.22	5.52	1.9225	400.2340
1685	1509382823	54.8868	-114.5713	2137.2	1487.2	99.0	9.8	-2.7	-0.22	5.52	1.9230	400.1253
1686	1509382824	54.8866	-114.5698	2137.3	1486.6	98.6	9.8	-2.9	-0.22	5.52	1.9222	400.6522
1687	1509382825	54.8865	-114.5682	2137.0	1488.2	99.0	9.9	-2.6	-0.22	5.52	1.9217	400.6522
1688	1509382826	54.8863	-114.5666	2136.6	1490.5	99.2	9.9	-2.4	-0.23	5.52	1.9236	400.1803
1689	1509382827	54.8862	-114.5651	2136.2	1494.3	99.0	9.9	-2.5	-0.23	5.51	1.9219	399.1585
1690	1509382828	54.8860	-114.5635	2136.1	1494.0	98.9	10.0	-2.2	-0.23	5.51	1.9221	401.2167
1691	1509382829	54.8859	-114.5620	2135.8	1496.7	98.8	10.0	-2.2	-0.23	5.51	1.9233	400.2381
1692	1509382830	54.8858	-114.5607	2135.8	1498.8	98.9	10.0	-2.1	-0.23	5.51	1.9237	400.5365
1693	1509382831	54.8856	-114.5593	2135.8	1506.3	98.7	10.1	-2.0	-0.23	5.51	1.9226	400.6227
1694	1509382832	54.8855	-114.5579	2136.3	1510.3	98.3	9.4	-2.5	-0.23	5.51	1.9222	398.3060
1695	1509382833	54.8854	-114.5565	2137.1	1516.1	98.0	9.6	-2.7	-0.23	5.51	1.9221	400.3489
1696	1509382834	54.8853	-114.5551	2137.9	1516.9	97.8	9.6	-2.9	-0.23	5.51	1.9217	400.1810
1697	1509382835	54.8851	-114.5537	2139.0	1518.0	98.5	9.7	-1.9	-0.24	5.50	1.9221	400.6025
1698	1509382836	54.8850	-114.5523	2140.3	1519.3	98.3	10.0	-2.4	-0.24	5.50	1.9218	399.8366
1699	1509382837	54.8849	-114.5510	2141.3	1520.3	98.7	9.7	-1.9	-0.24	5.50	1.9217	400.8345
1700	1509382838	54.8848	-114.5496	2141.7	1520.7	98.3	9.8	-2.3	-0.24	5.50	1.9229	400.6612
1701	1509382839	54.8846	-114.5482	2141.5	1521.5	98.0	10.3	-2.8	-0.24	5.50	1.9231	401.2866
1702	1509382840	54.8845	-114.5469	2140.8	1520.8	97.9	10.6	-2.9	-0.24	5.50	1.9222	400.1726
1703	1509382841	54.8844	-114.5454	2139.8	1520.8	98.8	10.4	-1.8	-0.24	5.50	1.9215	399.8176
1704	1509382842	54.8843	-114.5440	2138.7	1520.7	98.8	10.3	-1.9	-0.24	5.49	1.9215	400.4214
1705	1509382843	54.8841	-114.5426	2137.9	1519.2	97.5	10.2	-3.1	-0.24	5.49	1.9220	400.4022
1706	1509382844	54.8840	-114.5413	2137.2	1519.2	98.0	10.2	-2.3	-0.25	5.49	1.9229	398.3739
1707	1509382845	54.8839	-114.5399	2136.5	1518.5	98.1	10.2	-2.3	-0.25	5.49	1.9241	399.8948
1708	1509382846	54.8838	-114.5384	2135.8	1516.8	98.5	10.1	-1.6	-0.25	5.49	1.9219	398.9468
1709	1509382847	54.8837	-114.5371	2135.2	1517.2	98.6	9.9	-1.5	-0.25	5.49	1.9220	398.9468
1710	1509382848	54.8835	-114.5356	2134.7	1516.7	98.0	9.9	-2.2	-0.25	5.49	1.9221	398.9468
1711	1509382849	54.8834	-114.5343	2134.3	1517.3	98.4	10.0	-1.5	-0.25	5.48	1.9222	398.9468
1712	1509382850	54.8833	-114.5329	2134.0	1517.0	98.5	10.0	-1.3	-0.25	5.48	1.9226	400.2919
1713	1509382851	54.8832	-114.5316	2134.0	1516.0	98.3	10.0	-1.5	-0.25	5.48	1.9238	401.4128
1714	1509382852	54.8831	-114.5301	2134.2	1516.2	98.5	10.0	-0.9	-0.26	5.48	1.9220	400.2174
1715	1509382853	54.8829	-114.5287	2134.5	1517.5	98.3	10.0	-1.4	-0.26	5.48	1.9223	400.3778
1716	1509382854	54.8828	-114.5274	2134.9	1519.0	97.8	10.3	-1.7	-0.26	5.48	1.9212	400.3698
1717	1509382855	54.8828	-114.5272	2134.9	1517.9	97.8	10.3	-1.7	-0.26	5.48	1.9221	400.0528
1718	1509382856	54.8828	-114.5270	2134.9	1517.9	97.9	10.3	-1.6	-0.26	5.47	1.9231	400.2980
1719	1509382857	54.8828	-114.5268	2134.9	1517.9	97.9	10.3	-1.6	-0.26	5.47	1.9223	400.2429
1720	1509382858	54.8827	-114.5259	2135.0	1516.9	97.8	10.4	-1.6	-0.26	5.47	1.9221	400.2429
1721	1509382859	54.8826	-114.5243	2135.3	1517.3	97.5	10.7	-2.1	-0.26	5.47	1.9230	400.1993
1722	1509382860	54.8825	-114.5228	2135.5	1518.5	98.0	10.7	-1.6	-0.26	5.47	1.9228	400.6156
1723	1509382861	54.8823	-114.5212	2136.0	1520.0	98.2	10.8	-1.4	-0.27	5.47	1.9219	401.0406
1724	1509382862	54.8822	-114.5197	2136.6	1519.6	97.0	10.6	-2.6	-0.27	5.47	1.9232	399.6461
1725	1509382863	54.8821	-114.5182	2137.1	1519.1	98.0	10.6	-1.5	-0.27	5.46	1.9211	399.7528
1726	1509382864	54.8820	-114.5166	2137.4	1519.4	98.1	10.6	-1.5	-0.27	5.46	1.9221	400.2947
1727	1509382865	54.8818	-114.5151	2137.4	1519.4	98.3	10.7	-1.1	-0.27	5.46	1.9221	400.7574
1728	1509382866	54.8817	-114.5136	2137.3	1518.0	98.3	10.8	-0.9	-0.27	5.46	1.9214	399.7084
1729	1509382867	54.8816	-114.5121	2137.1	1511.4	97.6	10.6	-1.6	-0.27	5.46	1.9227	400.7985
1730	1509382868	54.8815	-114.5105	2136.7	1507.7	97.8	10.3	-1.1	-0.27	5.46	1.9222	400.1313
1731	1509382869	54.8814	-114.5090	2136.3	1505.2	97.7	10.8	-1.3	-0.27	5.46	1.9220	401.0015
1732	1509382870	54.8812	-114.5074	2135.8	1504.8	97.7	10.4	-1.4	-0.28	5.45	1.9221	400.0022
1733	1509382871	54.8811	-114.5058	2135.3	1505.6	97.2	10.4	-1.8	-0.28	5.45	1.9216	401.5334
1734	1509382872	54.8810	-114.5043	2135.0	1509.8	97.7	10.5	-1.0	-0.28	5.45	1.9221	400.2418
1735	1509382873	54.8809	-114.5028	2134.9	1517.9	97.4	10.4	-1.4	-0.28	5.45	1.9231	400.3249
1736	1509382874	54.8808	-114.5012	2135.2	1521.7	97.5	10.9	-1.2	-0.28	5.45	1.9222	399.6704
1737	1509382875	54.8807	-114.4997	2135.5	1521.4	97.6	10.4	-1.0	-0.28	5.45	1.9226	400.3769
1738	1509382876	54.8805	-114.4982	2136.1	1515.6	97.4	10.3	-1.0	-0.28	5.45	1.9225	401.1181
1739	1509382877	54.8804	-114.4967	2136.7	1514.9	97.1	10.7	-1.2	-0.28	5.45	1.9224	400.3900
1740	1509382878	54.8803	-114.4952	2137.6	1521.9	96.9	10.7	-1.3	-0.29	5.44	1.9221	400.0114
1741	1509382879	54.8802	-114.4936	2138.4	1524.7	96.9	10.6	-1.2	-0.29	5.44	1.9242	400.9859
1742	1509382880	54.8801	-114.4921	2139.0	1526.9	97.0	10.5	-1.2	-0.29	5.44	1.9234	400.9711
1743	1509382881	54.8800	-114.4906	2139.3	1528.3	96.8	10.5	-1.3	-0.29	5.44	1.9237	400.8668
1744	1509382882	54.8799	-114.4891	2139.4	1528.4	96.9	10.5	-1.1	-0.29	5.44	1.9224	400.6081
1745	1509382883	54.8798	-114.4875	2139.2	1528.2	96.9	10.6	-1.0	-0.29	5.44	1.9228	400.5203
1746	1509382884	54.8797	-114.4860	2138.7	1527.7	96.7	10.7	-1.0	-0.29	5.44	1.9226	400.2407
1747	1509382885	54.8796	-114.4844	2138.0	1527.0	96.8	10.7	-1.1	-0.29	5.43	1.9227	400.9573
1748	1509382886	54.8795	-114.4829	2137.3	1528.3	96.7	10.9	-0.9	-0.29	5.43	1.9231	398.3059
1749	1509382887	54.8794	-114.4813	2136.7	1527.7	96.6	10.5	-1.1	-0.30	5.43	1.9232	400.1367
1750	1509382888	54.8793	-114.4798	2136.2	1527.6	96.8	10.4	-0.9	-0.30	5.43	1.9228	400.1367
1751	1509382889	54.8792	-114.4785	2135.9	1526.9	96.8	10.5	-0.9	-0.30	5.43	1.9209	399.8286
1752	1509382890	54.8791	-114.4770	2135.7	1525.7	96.9	10.5	-1.0	-0.30	5.43	1.9228	399.5121
1753	1509382891	54.8790	-114.4756	2135.5	1525.8	97.0	10.5	-0.8	-0.30	5.43	1.9233	400.6646
1754	1509382892	54.8789	-114.4742	2135.7	1525.7	97.0	10.5	-0.9	-0.30	5.42	1.9246	398.6139
1755	1509382893	54.8788	-114.4728	2136.1	1526.1	97.0	10.3	-1.2	-0.30	5.42	1.9218	400.9886
1756	1509382894	54.8787	-114.4714	2136.6	1525.6	97.5	10.4	-0.7	-0.30	5.42	1.9225	400.6579
1757	1509382895	54.8786	-114.4700	2137.3	1526.3	97.5	10.3	-0.7	-0.30	5.42	1.9221	401.2973
1758	1509382896	54.8785	-114.4686	2138.1	1528.1	97.4	10.1	-0.9	-0.31	5.42	1.9231	401.2973
1759	1509382897	54.8784	-114.4672	2138.9	1528.9	97.3	10.4	-1.1	-0.31	5.42	1.9238	399.9443
1760	1509382898	54.8783	-114.4658	2139.6	1529.5	97.7	10.5	-0.7	-0.31	5.42	1.9245	399.8528
1761	1509382899	54.8782	-114.4644	2139.9	1530.9	97.8	10.7	-0.6	-0.31	5.41	1.9226	401.4607
1762	1509382900	54.8781	-114.4629	2140.0	1531.0	97.5	11.0	-1.0	-0.31	5.41	1.9238	399.8154
1763	1509382901	54.8780	-114.4616	2139.6	1530.6	97.3	10.9	-1.3	-0.31	5.41	1.9224	399.8154
1764	1509382902	54.8779	-114.4602	2139.1	1530.1	97.4	10.8	-1.3	-0.31	5.41	1.9230	400.3753
1765	1509382903	54.8778	-114.4589	2138.7	1531.7	97.4	10.6	-1.2	-0.31	5.41	1.9244	399.9665
1766	1509382904	54.8777	-114.4574	2138.3	1530.9	97.5	10.7	-1.2	-0.31	5.41	1.9242	399.5147
1767	1509382905	54.8776	-114.4560	2137.9	1529.9	97.2	10.7	-1.5	-0.32	5.41	1.9220	400.7650
1768	1509382906	54.8775	-114.4547	2137.7	1530.7	97.1	10.7	-1.6	-0.32	5.40	1.9219	400.7650
1769	1509382907	54.8774	-114.4532	2137.6	1530.6	97.2	10.7	-1.6	-0.32	5.40	1.9219	400.7650
1770	1509382908	54.8773	-114.4518	2137.6	1530.6	97.3	10.7	-1.6	-0.32	5.40	1.9218	400.7650
1771	1509382909	54.8772	-114.4505	2137.5	1529.5	97.9	10.8	-1.1	-0.32	5.40	1.9217	400.7650
1772	1509382910	54.8771	-114.4491	2137.6	1529.5	97.6	10.8	-1.3	-0.32	5.40	1.9232	399.8048
1773	1509382911	54.8770	-114.4477	2137.6	1530.6	97.5	10.8	-1.2	-0.32	5.40	1.9233	399.7714
1774	1509382912	54.8769	-114.4463	2137.5	1530.8	97.9	10.9	-0.9	-0.32	5.40	1.9235	399.0956
1775	1509382913	54.8767	-114.4448	2137.0	1530.1	97.2	10.8	-1.8	-0.33	5.39	1.9237	399.0956
1776	1509382914	54.8767	-114.4436	2136.6	1529.6	97.4	10.9	-1.3	-0.33	5.39	1.9227	400.9363
1777	1509382915	54.8766	-114.4434	2136.5	1529.5	97.6	10.8	-1.1	-0.33	5.39	1.9224	399.8241
1778	1509382916	54.8766	-114.4432	2136.4	1529.4	97.8	10.8	-0.8	-0.33	5.39	1.9233	400.2877
1779	1509382917	54.8766	-114.4430	2136.3	1529.3	98.0	10.7	-0.6	-0.33	5.39	1.9227	399.4909
1780	1509382918	54.8766	-114.4423	2135.9	1528.9	98.2	10.6	-0.5	-0.33	5.39	1.9226	400.8256
1781	1509382919	54.8764	-114.4408	2135.0	1529.0	97.7	10.5	-1.0	-0.33	5.39	1.9234	399.7637
1782	1509382920	54.8763	-114.4392	2134.0	1528.0	97.7	10.2	-0.8	-0.33	5.38	1.9239	400.0985
1783	1509382921	54.8762	-114.4376	2132.7	1526.7	97.7	9.8	-0.9	-0.33	5.38	1.9221	400.5097
1784	1509382922	54.8761	-114.4361	2131.6	1524.6	98.1	9.9	-0.5	-0.34	5.38	1.9234	401.1978
1785	1509382923	54.8760	-114.4345	2130.8	1523.8	98.6	10.2	0.1	-0.34	5.38	1.9227	401.1978
1786	1509382924	54.8758	-114.4329	2130.9	1523.9	98.1	10.5	-0.3	-0.34	5.38	1.9221	400.2980
1787	1509382925	54.8757	-114.4313	2131.7	1524.7	98.3	10.4	0.0	-0.34	5.38	1.9218	400.1039
1788	1509382926	54.8756	-114.4297	2133.3	1527.3	97.9	10.6	-0.4	-0.34	5.38	1.9228	400.4550
1789	1509382927	54.8755	-114.4282	2134.9	1529.9	98.1	10.5	0.0	-0.34	5.38	1.9210	400.6951
1790	1509382928	54.8754	-114.4266	2136.3	1530.3	97.8	10.3	-0.4	-0.34	5.37	1.9213	399.8455
1791	1509382929	54.8753	-114.4251	2137.1	1531.1	97.8	10.2	-0.3	-0.34	5.37	1.9251	400.3389
1792	1509382930	54.8752	-114.4235	2137.4	1531.4	97.8	10.1	-0.5	-0.34	5.37	1.9230	401.1258
1793	1509382931	54.8750	-114.4219	2137.3	1531.6	97.7	10.7	-0.7	-0.35	5.37	1.9230	401.4062
1794	1509382932	54.8749	-114.4204	2136.9	1531.9	98.2	10.8	-0.2	-0.35	5.37	1.9234	400.4223
1795	1509382933	54.8748	-114.4189	2136.3	1530.3	98.5	10.9	0.0	-0.35	5.37	1.9220	400.8924
1796	1509382934	54.8747	-114.4173	2135.9	1530.9	98.2	10.4	-0.2	-0.35	5.37	1.9217	399.6680
1797	1509382935	54.8746	-114.4158	2135.6	1530.6	97.8	10.3	-0.7	-0.35	5.36	1.9234	400.1427
1798	1509382936	54.8745	-114.4143	2135.4	1530.4	98.3	10.8	-0.6	-0.35	5.36	1.9254	400.1609
1799	1509382937	54.8743	-114.4127	2135.3	1531.3	98.5	10.9	-0.5	-0.35	5.36	1.9238	400.6002
1800	1509382938	54.8742	-114.4112	2135.2	1531.2	98.4	10.8	-0.8	-0.35	5.36	1.9222	400.5514
1801	1509382939	54.8741	-114.4096	2135.2	1531.2	98.4	10.8	-0.9	-0.35	5.36	1.9238	400.8255
1802	1509382940	54.8740	-114.4080	2135.2	1531.2	98.7	10.9	-0.8	-0.36	5.36	1.9251	400.8558
1803	1509382941	54.8738	-114.4065	2135.2	1532.2	98.6	11.4	-1.0	-0.36	5.36	1.9221	400.4234
1804	1509382942	54.8737	-114.4049	2135.2	1532.2	98.6	11.4	-1.2	-0.36	5.35	1.9229	400.2231
1805	1509382943	54.8736	-114.4034	2135.2	1532.2	98.5	10.9	-1.5	-0.36	5.35	1.9222	400.2113
1806	1509382944	54.8734	-114.4018	2135.2	1532.2	98.9	10.9	-1.1	-0.36	5.35	1.9223	400.7060
1807	1509382945	54.8733	-114.4002	2135.0	1532.0	99.2	10.9	-1.0	-0.36	5.35	1.9223	400.9322
1808	1509382946	54.8732	-114.3987	2134.8	1531.8	99.4	11.4	-1.0	-0.36	5.35	1.9224	400.0378
1809	1509382947	54.8730	-114.3973	2134.2	1531.3	99.1	11.5	-1.4	-0.36	5.35	1.9222	400.6534
1810	1509382948	54.8729	-114.3959	2133.6	1529.6	99.1	11.2	-1.4	-0.37	5.35	1.9236	400.8608
1811	1509382949	54.8728	-114.3947	2132.9	1529.9	99.4	11.1	-1.2	-0.37	5.34	1.9234	402.0564
1812	1509382950	54.8727	-114.3931	2131.9	1528.9	99.6	11.3	-1.0	-0.37	5.34	1.9230	399.7266
1813	1509382951	54.8725	-114.3917	2131.3	1528.3	99.5	11.0	-1.2	-0.37	5.34	1.9248	398.8254
1814	1509382952	54.8724	-114.3903	2130.6	1527.6	99.7	10.9	-0.9	-0.37	5.34	1.9238	401.5220
1815	1509382953	54.8723	-114.3890	2130.2	1527.2	99.8	11.0	-0.8	-0.37	5.34	1.9225	399.4074
1816	1509382954	54.8722	-114.3877	2130.1	1527.1	99.4	10.9	-1.3	-0.37	5.34	1.9233	399.7963
1817	1509382955	54.8720	-114.3861	2130.0	1527.0	100.2	11.0	-0.3	-0.37	5.34	1.9235	400.2490
1818	1509382956	54.8719	-114.3847	2130.3	1527.3	100.0	11.0	-0.4	-0.37	5.33	1.9230	399.7666
1819	1509382957	54.8718	-114.3834	2130.7	1527.7	100.1	10.8	-0.3	-0.38	5.33	1.9221	399.3456
1820	1509382958	54.8717	-114.3823	2131.3	1528.3	100.0	10.8	-0.4	-0.38	5.33	1.9229	400.8841
1821	1509382959	54.8715	-114.3807	2132.1	1529.1	99.8	10.9	-0.7	-0.38	5.33	1.9234	400.4067
1822	1509382960	54.8714	-114.3792	2132.9	1529.9	99.9	11.1	-0.7	-0.38	5.33	1.9225	401.0139
1823	1509382961	54.8712	-114.3777	2133.5	1530.5	100.1	11.0	-0.5	-0.38	5.33	1.9220	401.0848
1824	1509382962	54.8711	-114.3763	2133.8	1530.8	100.1	11.2	-0.5	-0.38	5.33	1.9225	400.1394
1825	1509382963	54.8710	-114.3749	2134.1	1531.1	100.0	11.5	-0.7	-0.38	5.32	1.9218	401.2436
1826	1509382964	54.8709	-114.3736	2134.0	1531.0	99.8	11.5	-1.1	-0.38	5.32	1.9230	400.3620
1827	1509382965	54.8707	-114.3722	2133.7	1530.7	100.2	11.4	-0.5	-0.38	5.32	1.9235	400.3352
1828	1509382966	54.8706	-114.3708	2133.4	1530.4	100.4	11.1	-0.4	-0.39	5.32	1.9235	400.2783
1829	1509382967	54.8705	-114.3694	2133.1	1530.1	100.1	11.1	-0.8	-0.39	5.32	1.9235	400.2783
1830	1509382968	54.8703	-114.3680	2132.8	1529.8	100.5	11.2	-0.3	-0.39	5.32	1.9236	400.2783
1831	1509382969	54.8702	-114.3667	2132.7	1530.7	100.7	11.2	-0.1	-0.39	5.32	1.9236	400.2783
1832	1509382970	54.8701	-114.3652	2132.6	1530.6	100.6	11.3	-0.1	-0.39	5.32	1.9233	400.8712
1833	1509382971	54.8699	-114.3639	2132.7	1530.7	100.3	11.2	-0.3	-0.39	5.31	1.9244	400.8101
1834	1509382972	54.8698	-114.3624	2132.9	1530.9	100.3	11.2	-0.2	-0.39	5.31	1.9237	399.3461
1835	1509382973	54.8697	-114.3611	2133.1	1531.1	100.6	11.3	0.2	-0.39	5.31	1.9224	400.4794
1836	1509382974	54.8696	-114.3597	2133.4	1531.4	100.6	11.1	0.3	-0.39	5.31	1.9240	400.5760
1837	1509382975	54.8695	-114.3596	2133.5	1531.5	100.6	11.0	0.3	-0.40	5.31	1.9240	399.9319
1838	1509382976	54.8695	-114.3594	2133.5	1531.2	100.6	10.9	0.4	-0.40	5.31	1.9227	399.8174
1839	1509382977	54.8695	-114.3592	2133.6	1531.3	100.7	10.8	0.4	-0.40	5.31	1.9236	401.6306
1840	1509382978	54.8694	-114.3585	2133.8	1530.7	100.6	10.7	0.4	-0.40	5.30	1.9232	400.3070
1841	1509382979	54.8693	-114.3570	2134.5	1529.5	100.5	10.7	0.5	-0.40	5.30	1.9234	400.4302
1842	1509382980	54.8692	-114.3554	2135.5	1530.5	100.6	10.6	0.7	-0.40	5.30	1.9222	400.4631
1843	1509382981	54.8690	-114.3539	2136.7	1531.7	100.4	10.4	0.6	-0.40	5.30	1.9223	400.1642
1844	1509382982	54.8689	-114.3524	2137.9	1531.9	100.2	10.3	0.6	-0.40	5.30	1.9225	400.9125
1845	1509382983	54.8688	-114.3509	2139.0	1533.0	100.0	10.3	0.7	-0.41	5.30	1.9216	400.4747
1846	1509382984	54.8686	-114.3493	2139.9	1533.9	99.9	10.2	0.7	-0.41	5.30	1.9227	400.1216
1847	1509382985	54.8685	-114.3477	2140.5	1533.5	99.8	10.1	0.7	-0.41	5.29	1.9230	400.6311
1848	1509382986	54.8684	-114.3462	2140.8	1533.8	99.5	10.1	0.6	-0.41	5.29	1.9239	398.5755
1849	1509382987	54.8682	-114.3446	2141.0	1534.0	99.4	10.1	0.6	-0.41	5.29	1.9223	400.5652
1850	1509382988	54.8681	-114.3430	2141.1	1534.1	99.5	10.1	0.7	-0.41	5.29	1.9239	400.6713
1851	1509382989	54.8680	-114.3415	2141.1	1534.1	99.4	10.1	0.7	-0.41	5.29	1.9235	400.1407
1852	1509382990	54.8679	-114.3399	2140.9	1533.9	99.4	10.2	0.8	-0.41	5.29	1.9232	400.2342
1853	1509382991	54.8677	-114.3384	2140.6	1533.6	99.3	9.8	0.8	-0.41	5.29	1.9230	400.2342
1854	1509382992	54.8676	-114.3368	2139.9	1532.9	99.2	9.8	0.8	-0.42	5.28	1.9230	400.5467
1855	1509382993	54.8675	-114.3353	2139.1	1532.1	99.3	9.9	0.9	-0.42	5.28	1.9213	400.7426
1856	1509382994	54.8674	-114.3337	2138.2	1531.2	99.5	10.0	1.0	-0.42	5.28	1.9213	400.7426
1857	1509382995	54.8672	-114.3321	2137.3	1529.3	99.5	10.2	1.2	-0.42	5.28	1.9220	399.5550
1858	1509382996	54.8671	-114.3305	2136.5	1527.5	99.4	10.3	1.1	-0.42	5.28	1.9214	399.9165
1859	1509382997	54.8670	-114.3290	2135.8	1526.8	99.3	9.9	1.1	-0.42	5.28	1.9223	399.9585
1860	1509382998	54.8669	-114.3274	2135.2	1526.9	99.4	9.9	1.3	-0.42	5.28	1.9220	400.5273
1861	1509382999	54.8668	-114.3258	2134.6	1526.6	99.5	10.0	1.5	-0.42	5.27	1.9232	400.5273
1862	1509383000	54.8666	-114.3243	2134.0	1526.0	99.7	10.0	1.6	-0.42	5.27	1.9224	400.8548
1863	1509383001	54.8665	-114.3228	2133.7	1526.0	99.8	10.0	1.6	-0.43	5.27	1.9235	401.2402
1864	1509383002	54.8664	-114.3212	2133.5	1525.8	99.9	10.0	1.7	-0.43	5.27	1.9225	401.2456
1865	1509383003	54.8663	-114.3197	2133.5	1525.5	99.9	10.0	1.8	-0.43	5.27	1.9224	400.8877
1866	1509383004	54.8662	-114.3181	2133.6	1525.6	99.9	10.0	1.8	-0.43	5.27	1.9221	400.5476
1867	1509383005	54.8660	-114.3165	2133.5	1524.5	99.9	10.0	1.8	-0.43	5.27	1.9216	399.9298
1868	1509383006	54.8659	-114.3150	2133.4	1524.4	100.0	9.9	1.8	-0.43	5.26	1.9224	401.2939
1869	1509383007	54.8658	-114.3136	2133.3	1523.3	100.0	9.9	1.8	-0.43	5.26	1.9228	401.4877
1870	1509383008	54.8657	-114.3122	2133.2	1524.2	100.1	9.9	1.8	-0.43	5.26	1.9228	400.4441
1871	1509383009	54.8656	-114.3109	2133.1	1524.1	100.1	9.9	1.8	-0.44	5.26	1.9229	400.3873
1872	1509383010	54.8655	-114.3094	2133.0	1525.0	100.1	9.9	1.7	-0.44	5.26	1.9224	400.1524
1873	1509383011	54.8654	-114.3080	2132.9	1524.9	100.1	10.1	1.5	-0.44	5.26	1.9211	400.1524
1874	1509383012	54.8652	-114.3066	2132.9	1525.9	100.2	10.4	1.5	-0.44	5.26	1.9214	400.3204
1875	1509383013	54.8651	-114.3052	2132.9	1525.9	100.3	10.4	1.6	-0.44	5.25	1.9218	400.0681
1876	1509383014	54.8650	-114.3038	2132.9	1525.9	100.3	10.4	1.5	-0.44	5.25	1.9229	400.1689
1877	1509383015	54.8649	-114.3024	2132.9	1525.9	100.4	10.3	1.4	-0.44	5.25	1.9228	400.2968
1878	1509383016	54.8648	-114.3010	2132.8	1526.0	100.4	10.3	1.3	-0.44	5.25	1.9216	399.2295
1879	1509383017	54.8647	-114.2996	2132.7	1526.7	100.6	10.3	1.3	-0.44	5.25	1.9217	400.0967
1880	1509383018	54.8645	-114.2982	2132.7	1526.7	100.8	10.2	1.3	-0.45	5.25	1.9220	400.5715
1881	1509383019	54.8644	-114.2968	2132.7	1527.0	101.0	10.3	1.5	-0.45	5.25	1.9221	399.8062
1882	1509383020	54.8643	-114.2954	2132.7	1527.7	101.0	10.3	1.5	-0.45	5.25	1.9229	401.7490
1883	1509383021	54.8642	-114.2940	2132.8	1527.8	101.0	10.2	1.3	-0.45	5.24	1.9222	401.7490
1884	1509383022	54.8640	-114.2927	2132.8	1527.8	100.9	10.5	1.2	-0.45	5.24	1.9243	399.2685
1885	1509383023	54.8639	-114.2912	2132.7	1526.6	101.1	10.7	1.2	-0.45	5.24	1.9225	398.5617
1886	1509383024	54.8638	-114.2899	2132.6	1526.6	101.2	10.7	1.3	-0.45	5.24	1.9219	399.7563
1887	1509383025	54.8637	-114.2885	2132.5	1527.5	101.3	10.7	1.2	-0.45	5.24	1.9228	399.7563
1888	1509383026	54.8635	-114.2871	2132.5	1529.5	101.2	10.7	1.2	-0.45	5.24	1.9230	400.8306
1889	1509383027	54.8634	-114.2857	2132.3	1529.3	101.2	10.7	1.0	-0.46	5.24	1.9231	400.8455
1890	1509383028	54.8633	-114.2843	2132.2	1529.2	101.3	10.7	1.0	-0.46	5.23	1.9232	400.8603
1891	1509383029	54.8631	-114.2829	2132.0	1530.0	101.4	10.7	1.0	-0.46	5.23	1.9233	400.8752
1892	1509383030	54.8630	-114.2816	2131.8	1529.8	101.4	10.7	0.9	-0.46	5.23	1.9228	401.1240
1893	1509383031	54.8629	-114.2801	2131.7	1528.6	101.4	10.7	0.8	-0.46	5.23	1.9232	400.9360
1894	1509383032	54.8627	-114.2787	2131.5	1527.8	101.5	10.6	0.9	-0.46	5.23	1.9228	400.8110
1895	1509383033	54.8626	-114.2774	2131.3	1527.3	101.5	10.6	0.8	-0.46	5.23	1.9227	402.0950
1896	1509383034	54.8625	-114.2761	2131.2	1528.1	101.6	10.6	0.7	-0.46	5.23	1.9226	398.0931
1897	1509383035	54.8624	-114.2759	2131.2	1528.1	101.6	10.6	0.7	-0.46	5.22	1.9240	400.8058
1898	1509383036	54.8624	-114.2757	2131.2	1528.2	101.6	10.7	0.7	-0.47	5.22	1.9221	400.1825
1899	1509383037	54.8624	-114.2755	2131.2	1528.2	101.6	10.7	0.8	-0.47	5.22	1.9235	399.2564
1900	1509383038	54.8623	-114.2747	2131.1	1529.1	101.7	10.7	1.0	-0.47	5.22	1.9227	398.8635
1901	1509383039	54.8622	-114.2732	2131.1	1529.1	101.7	10.7	1.0	-0.47	5.22	1.9234	401.0844
1902	1509383040	54.8620	-114.2716	2131.1	1529.1	101.6	10.7	1.0	-0.47	5.22	1.9226	401.2706
1903	1509383041	54.8619	-114.2701	2131.1	1530.1	101.4	10.6	0.8	-0.47	5.22	1.9222	401.4998
1904	1509383042	54.8617	-114.2685	2131.1	1531.1	101.3	10.5	0.7	-0.47	5.21	1.9211	400.6963
1905	1509383043	54.8616	-114.2670	2130.9	1530.9	101.6	10.6	0.9	-0.47	5.21	1.9230	400.6963
1906	1509383044	54.8614	-114.2655	2130.6	1531.6	101.7	10.6	1.0	-0.48	5.21	1.9220	400.6878
1907	1509383045	54.8613	-114.2640	2130.3	1531.3	101.7	10.6	1.1	-0.48	5.21	1.9222	400.3291
1908	1509383046	54.8611	-114.2624	2130.2	1531.2	101.7	10.6	1.1	-0.48	5.21	1.9222	399.2703
1909	1509383047	54.8610	-114.2609	2130.2	1531.2	101.7	10.6	1.3	-0.48	5.21	1.9220	399.6184
1910	1509383048	54.8608	-114.2594	2130.3	1531.3	101.7	10.6	1.3	-0.48	5.21	1.9237	400.1562
1911	1509383049	54.8607	-114.2579	2130.7	1532.7	101.6	10.5	1.3	-0.48	5.20	1.9237	400.5113
1912	1509383050	54.8605	-114.2563	2131.2	1533.2	101.4	10.4	1.3	-0.48	5.20	1.9221	400.1917
1913	1509383051	54.8604	-114.2548	2131.9	1534.8	101.2	10.3	1.1	-0.48	5.20	1.9242	400.1483
1914	1509383052	54.8602	-114.2532	2132.6	1534.3	101.2	10.3	1.3	-0.48	5.20	1.9218	400.2539
1915	1509383053	54.8601	-114.2517	2133.4	1533.6	101.0	10.6	1.1	-0.49	5.20	1.9234	398.5505
1916	1509383054	54.8599	-114.2501	2134.0	1537.5	101.0	10.6	1.1	-0.49	5.20	1.9225	400.1219
1917	1509383055	54.8598	-114.2486	2134.5	1542.3	100.9	10.5	1.2	-0.49	5.20	1.9238	399.7179
1918	1509383056	54.8597	-114.2470	2135.0	1544.0	100.7	10.5	1.2	-0.49	5.19	1.9246	400.6725
1919	1509383057	54.8595	-114.2455	2135.3	1545.3	100.5	10.5	1.1	-0.49	5.19	1.9223	399.6802
1920	1509383058	54.8594	-114.2440	2135.5	1545.5	100.4	10.4	1.1	-0.49	5.19	1.9223	400.8002
1921	1509383059	54.8593	-114.2425	2135.7	1545.7	100.3	10.5	1.1	-0.49	5.19	1.9227	400.4758
1922	1509383060	54.8591	-114.2410	2135.8	1545.8	100.2	10.5	1.2	-0.49	5.19	1.9234	400.1691
1923	1509383061	54.8590	-114.2394	2135.7	1545.0	100.0	10.4	1.1	-0.49	5.19	1.9237	399.8315
1924	1509383062	54.8589	-114.2379	2135.7	1544.7	100.1	10.5	1.2	-0.50	5.19	1.9240	400.1494
1925	1509383063	54.8588	-114.2364	2135.7	1544.7	100.0	10.5	1.1	-0.50	5.19	1.9242	399.8979
1926	1509383064	54.8586	-114.2348	2135.8	1543.8	100.0	10.0	1.2	-0.50	5.18	1.9243	400.8347
1927	1509383065	54.8585	-114.2333	2135.9	1543.9	100.0	10.1	1.4	-0.50	5.18	1.9238	400.6753
1928	1509383066	54.8584	-114.2318	2136.0	1546.0	100.0	10.0	1.5	-0.50	5.18	1.9242	399.7020
1929	1509383067	54.8583	-114.2303	2136.0	1548.0	100.0	10.0	1.5	-0.50	5.18	1.9237	401.3234
1930	1509383068	54.8582	-114.2289	2135.9	1547.9	100.0	10.0	1.6	-0.50	5.18	1.9246	400.7785
1931	1509383069	54.8581	-114.2276	2135.9	1549.0	100.0	10.1	1.7	-0.50	5.18	1.9253	398.8910
1932	1509383070	54.8579	-114.2261	2135.9	1549.9	99.9	10.1	1.7	-0.50	5.18	1.9227	398.8802
1933	1509383071	54.8578	-114.2247	2135.9	1552.9	99.9	9.6	1.7	-0.51	5.17	1.9227	400.6338
1934	1509383072	54.8577	-114.2234	2136.1	1555.2	99.9	9.5	1.7	-0.51	5.17	1.9243	401.1647
1935	1509383073	54.8576	-114.2220	2136.3	1556.6	99.9	9.5	1.8	-0.51	5.17	1.9229	398.9676
1936	1509383074	54.8575	-114.2206	2136.5	1559.3	99.8	9.5	1.7	-0.51	5.17	1.9230	400.2578
1937	1509383075	54.8574	-114.2192	2136.6	1563.4	99.8	9.5	1.8	-0.51	5.17	1.9237	400.7373
1938	1509383076	54.8573	-114.2178	2136.6	1566.2	99.8	9.5	1.8	-0.51	5.17	1.9239	400.5999
1939	1509383077	54.8572	-114.2165	2136.5	1569.5	99.8	9.5	1.7	-0.51	5.17	1.9237	401.0806
1940	1509383078	54.8571	-114.2150	2136.3	1570.6	99.9	9.4	1.8	-0.51	5.16	1.9232	401.0806
1941	1509383079	54.8570	-114.2136	2136.1	1571.1	99.8	9.5	1.7	-0.52	5.16	1.9236	400.6849
1942	1509383080	54.8569	-114.2122	2135.8	1570.9	99.9	9.5	1.7	-0.52	5.16	1.9231	399.9668
1943	1509383081	54.8567	-114.2110	2135.6	1569.1	99.9	9.5	1.5	-0.52	5.16	1.9236	400.2690
1944	1509383082	54.8566	-114.2096	2135.2	1563.2	100.0	9.5	1.6	-0.52	5.16	1.9240	400.1415
1945	1509383083	54.8565	-114.2081	2135.0	1554.9	100.1	9.6	1.7	-0.52	5.16	1.9231	400.3468
1946	1509383084	54.8564	-114.2067	2134.7	1547.3	100.1	9.6	1.6	-0.52	5.16	1.9239	401.2684
1947	1509383085	54.8563	-114.2054	2134.5	1541.5	100.0	9.6	1.5	-0.52	5.15	1.9241	400.8676
1948	1509383086	54.8562	-114.2039	2134.3	1538.2	100.1	9.6	1.6	-0.52	5.15	1.9238	400.8676
1949	1509383087	54.8561	-114.2026	2134.2	1537.2	100.1	9.7	1.6	-0.52	5.15	1.9234	400.8676
1950	1509383088	54.8560	-114.2012	2134.1	1537.1	100.1	9.6	1.5	-0.53	5.15	1.9231	400.8676
1951	1509383089	54.8558	-114.1999	2133.9	1536.9	100.2	9.7	1.5	-0.53	5.15	1.9227	400.8676
1952	1509383090	54.8557	-114.1984	2133.8	1536.0	100.2	9.6	1.5	-0.53	5.15	1.9242	401.5154
1953	1509383091	54.8556	-114.1970	2133.6	1534.9	100.3	9.7	1.5	-0.53	5.15	1.9237	401.5866
1954	1509383092	54.8555	-114.1956	2133.5	1533.8	100.3	9.7	1.5	-0.53	5.14	1.9243	399.4573
1955	1509383093	54.8554	-114.1942	2133.4	1533.1	100.4	9.7	1.5	-0.53	5.14	1.9239	399.6925
1956	1509383094	54.8553	-114.1930	2133.3	1531.3	100.5	9.8	1.5	-0.53	5.14	1.9234	399.6925
1957	1509383095	54.8553	-114.1928	2133.3	1531.3	100.5	9.8	1.5	-0.53	5.14	1.9240	399.2718
1958	1509383096	54.8552	-114.1926	2133.3	1531.3	100.5	9.8	1.5	-0.53	5.14	1.9244	400.4956
1959	1509383097	54.8552	-114.1924	2133.3	1531.3	100.5	9.8	1.5	-0.54	5.14	1.9253	401.2678
1960	1509383098	54.8552	-114.1917	2133.3	1530.7	100.6	9.7	1.5	-0.54	5.14	1.9246	400.4529
1961	1509383099	54.8550	-114.1902	2133.3	1530.3	100.7	9.7	1.5	-0.54	5.13	1.9237	400.3109
1962	1509383100	54.8549	-114.1887	2133.4	1529.4	100.9	9.6	1.7	-0.54	5.13	1.9238	398.9517
1963	1509383101	54.8548	-114.1872	2133.5	1528.5	101.1	9.3	1.8	-0.54	5.13	1.9244	400.0446
1964	1509383102	54.8546	-114.1856	2133.5	1527.5	101.1	9.3	1.7	-0.54	5.13	1.9242	399.7239
1965	1509383103	54.8545	-114.1840	2133.5	1526.5	101.1	9.3	1.8	-0.54	5.13	1.9237	400.4542
1966	1509383104	54.8543	-114.1825	2133.5	1526.0	101.3	9.4	1.9	-0.54	5.13	1.9238	400.3513
1967	1509383105	54.8542	-114.1810	2133.4	1525.4	101.3	9.3	1.8	-0.54	5.13	1.9232	399.8144
1968	1509383106	54.8541	-114.1795	2133.5	1526.5	101.4	9.3	1.9	-0.55	5.12	1.9229	399.6296
1969	1509383107	54.8539	-114.1779	2133.6	1527.6	101.6	9.3	2.1	-0.55	5.12	1.9229	400.6543
1970	1509383108	54.8538	-114.1763	2133.8	1527.8	101.5	9.2	1.9	-0.55	5.12	1.9244	400.2497
1971	1509383109	54.8536	-114.1748	2134.1	1528.1	101.5	9.3	1.9	-0.55	5.12	1.9243	400.3485
1972	1509383110	54.8535	-114.1733	2134.4	1527.4	101.4	9.6	1.7	-0.55	5.12	1.9246	400.4929
1973	1509383111	54.8534	-114.1717	2134.7	1526.6	101.4	9.6	1.8	-0.55	5.12	1.9243	400.7137
1974	1509383112	54.8532	-114.1702	2134.9	1525.9	101.2	9.6	1.6	-0.55	5.12	1.9235	400.1757
1975	1509383113	54.8531	-114.1687	2135.1	1524.1	101.2	9.6	1.7	-0.55	5.12	1.9242	400.1846
1976	1509383114	54.8529	-114.1671	2135.2	1522.2	101.2	9.6	1.7	-0.56	5.11	1.9250	400.8898
1977	1509383115	54.8528	-114.1656	2135.0	1521.0	101.2	9.6	1.7	-0.56	5.11	1.9252	401.1519
1978	1509383116	54.8526	-114.1640	2134.6	1519.6	101.3	9.5	1.8	-0.56	5.11	1.9248	400.3381
1979	1509383117	54.8525	-114.1625	2134.3	1518.3	101.5	9.2	2.0	-0.56	5.11	1.9248	400.6919
1980	1509383118	54.8524	-114.1610	2134.0	1518.0	101.5	9.2	1.9	-0.56	5.11	1.9244	400.0242
1981	1509383119	54.8522	-114.1595	2133.8	1517.8	101.5	9.2	1.8	-0.56	5.11	1.9235	400.9952
1982	1509383120	54.8521	-114.1580	2133.6	1517.6	101.7	9.7	1.9	-0.56	5.11	1.9263	401.5652
1983	1509383121	54.8519	-114.1564	2133.5	1517.5	101.7	9.6	1.7	-0.56	5.10	1.9239	402.1753
1984	1509383122	54.8518	-114.1549	2133.3	1517.3	101.5	9.7	1.7	-0.56	5.10	1.9245	399.6923
1985	1509383123	54.8517	-114.1534	2133.1	1518.1	101.6	9.6	1.7	-0.57	5.10	1.9229	400.8566
1986	1509383124	54.8515	-114.1519	2132.9	1518.9	101.7	9.6	1.8	-0.57	5.10	1.9237	400.1929
1987	1509383125	54.8514	-114.1504	2132.9	1519.9	101.7	9.1	1.8	-0.57	5.10	1.9230	401.1855
1988	1509383126	54.8512	-114.1488	2132.8	1520.8	101.8	9.1	1.8	-0.57	5.10	1.9234	400.2127
1989	1509383127	54.8511	-114.1473	2132.9	1520.9	101.8	9.0	1.7	-0.57	5.10	1.9225	401.1221
1990	1509383128	54.8509	-114.1459	2132.8	1521.8	101.7	9.1	1.7	-0.57	5.09	1.9239	401.0242
1991	1509383129	54.8508	-114.1445	2132.9	1522.9	101.7	9.0	1.6	-0.57	5.09	1.9227	400.4001
1992	1509383130	54.8507	-114.1431	2132.9	1522.9	101.8	9.0	1.7	-0.57	5.09	1.9232	400.1152
1993	1509383131	54.8505	-114.1417	2132.8	1522.8	101.9	9.0	1.8	-0.57	5.09	1.9232	400.4979
1994	1509383132	54.8504	-114.1404	2132.8	1523.8	101.8	8.9	1.8	-0.58	5.09	1.9224	401.1410
1995	1509383133	54.8503	-114.1390	2132.7	1523.7	101.6	8.9	1.6	-0.58	5.09	1.9220	400.0675
1996	1509383134	54.8501	-114.1376	2132.6	1523.6	101.4	8.8	1.4	-0.58	5.09	1.9221	400.5200
1997	1509383135	54.8500	-114.1362	2132.4	1524.4	101.4	8.8	1.5	-0.58	5.08	1.9206	400.2665
1998	1509383136	54.8499	-114.1348	2132.3	1524.3	101.3	8.8	1.4	-0.58	5.08	1.9211	400.1222
1999	1509383137	54.8497	-114.1335	2132.2	1524.2	101.1	8.8	1.3	-0.58	5.08	1.9245	398.6273
2000	1509383138	54.8496	-114.1321	2131.9	1522.9	101.1	8.9	1.5	-0.58	5.08	1.9217	400.4521
2001	1509383139	54.8495	-114.1307	2131.7	1521.7	101.0	8.8	1.4	-0.58	5.08	1.9221	399.4475
2002	1509383140	54.8494	-114.1293	2131.5	1520.5	101.0	8.8	1.4	-0.59	5.08	1.9215	401.2429
2003	1509383141	54.8492	-114.1280	2131.4	1520.4	101.0	8.7	1.4	-0.59	5.08	1.9226	400.4266
2004	1509383142	54.8491	-114.1266	2131.3	1520.3	100.9	8.7	1.5	-0.59	5.07	1.9235	399.9670
2005	1509383143	54.8490	-114.1252	2131.2	1521.2	100.9	9.2	1.5	-0.59	5.07	1.9230	399.9670
2006	1509383144	54.8489	-114.1238	2131.1	1521.1	100.9	9.2	1.5	-0.59	5.07	1.9223	399.7458
2007	1509383145	54.8487	-114.1224	2130.9	1520.9	100.8	9.2	1.4	-0.59	5.07	1.9228	400.6867
2008	1509383146	54.8486	-114.1211	2130.8	1519.8	100.7	9.1	1.4	-0.59	5.07	1.9220	398.3507
2009	1509383147	54.8485	-114.1197	2130.7	1519.7	100.6	9.1	1.3	-0.59	5.07	1.9218	398.3507
2010	1509383148	54.8484	-114.1183	2130.6	1519.6	100.6	9.1	1.3	-0.59	5.07	1.9215	398.3507
2011	1509383149	54.8483	-114.1170	2130.7	1518.4	100.6	9.0	1.3	-0.60	5.06	1.9213	400.6852
2012	1509383150	54.8481	-114.1156	2130.8	1516.0	100.7	9.0	1.4	-0.60	5.06	1.9245	400.7107
2013	1509383151	54.8480	-114.1142	2131.0	1514.1	100.6	8.9	1.3	-0.60	5.06	1.9224	401.1919
2014	1509383152	54.8479	-114.1128	2131.3	1512.3	100.5	9.3	1.1	-0.60	5.06	1.9214	400.2567
2015	1509383153	54.8478	-114.1115	2131.4	1510.7	100.5	9.4	1.2	-0.60	5.06	1.9231	401.2134
2016	1509383154	54.8477	-114.1102	2131.6	1509.5	100.6	9.4	1.3	-0.60	5.06	1.9225	399.7076
2017	1509383155	54.8476	-114.1100	2131.6	1509.5	100.6	9.3	1.3	-0.60	5.06	1.9214	400.4232
2018	1509383156	54.8476	-114.1098	2131.6	1509.8	100.6	9.3	1.3	-0.60	5.06	1.9220	400.4270
2019	1509383157	54.8476	-114.1096	2131.6	1508.6	100.6	9.3	1.3	-0.60	5.05	1.9231	400.5763
2020	1509383158	54.8475	-114.1088	2131.6	1507.6	100.6	9.3	1.3	-0.61	5.05	1.9226	400.6644
2021	1509383159	54.8474	-114.1073	2131.7	1505.9	100.5	9.3	1.2	-0.61	5.05	1.9230	400.8531
2022	1509383160	54.8473	-114.1057	2131.7	1504.8	100.6	9.2	1.2	-0.61	5.05	1.9228	400.5191
2023	1509383161	54.8471	-114.1042	2131.7	1503.7	100.6	9.3	1.3	-0.61	5.05	1.9224	401.2452
2024	1509383162	54.8470	-114.1026	2131.6	1502.6	100.5	9.3	1.1	-0.61	5.05	1.9216	400.9721
2025	1509383163	54.8469	-114.1012	2131.5	1501.5	100.5	8.9	1.1	-0.61	5.05	1.9211	399.8202
2026	1509383164	54.8467	-114.0996	2131.3	1500.3	100.7	8.7	1.2	-0.61	5.04	1.9210	400.4105
2027	1509383165	54.8466	-114.0981	2131.2	1499.2	100.8	8.7	1.2	-0.61	5.04	1.9229	399.2699
2028	1509383166	54.8464	-114.0966	2131.3	1498.3	101.1	8.7	1.2	-0.61	5.04	1.9227	399.9309
2029	1509383167	54.8463	-114.0951	2131.5	1497.5	101.3	8.7	1.3	-0.62	5.04	1.9228	400.9752
2030	1509383168	54.8462	-114.0936	2131.7	1496.7	101.4	8.7	1.3	-0.62	5.04	1.9232	400.1799
2031	1509383169	54.8460	-114.0921	2131.7	1496.7	101.5	8.7	1.4	-0.62	5.04	1.9228	398.6480
2032	1509383170	54.8459	-114.0905	2131.6	1495.6	101.5	8.7	1.3	-0.62	5.04	1.9205	399.5184
2033	1509383171	54.8457	-114.0890	2131.5	1495.5	101.6	8.9	1.2	-0.62	5.03	1.9229	401.0292
2034	1509383172	54.8456	-114.0875	2131.3	1495.3	101.6	9.1	1.0	-0.62	5.03	1.9223	401.0292
2035	1509383173	54.8454	-114.0860	2131.1	1494.1	101.7	9.2	1.0	-0.62	5.03	1.9235	400.6165
2036	1509383174	54.8453	-114.0844	2130.9	1493.9	101.9	9.1	1.1	-0.62	5.03	1.9227	400.1597
2037	1509383175	54.8451	-114.0830	2130.7	1492.7	102.2	9.2	1.4	-0.63	5.03	1.9215	399.5493
2038	1509383176	54.8449	-114.0815	2130.7	1490.7	102.1	9.1	1.3	-0.63	5.03	1.9233	399.5493
2039	1509383177	54.8448	-114.0800	2130.6	1488.8	102.1	9.1	1.2	-0.63	5.03	1.9235	400.9893
2040	1509383178	54.8446	-114.0785	2130.6	1487.6	102.0	9.0	1.2	-0.63	5.02	1.9234	400.7997
2041	1509383179	54.8445	-114.0769	2130.6	1486.6	102.0	9.0	1.3	-0.63	5.02	1.9242	399.6223
2042	1509383180	54.8443	-114.0754	2130.7	1485.7	102.0	9.0	1.3	-0.63	5.02	1.9223	399.1582
2043	1509383181	54.8442	-114.0739	2130.9	1485.0	101.9	8.9	1.4	-0.63	5.02	1.9231	400.4616
2044	1509383182	54.8440	-114.0724	2131.2	1482.2	101.7	8.9	1.3	-0.63	5.02	1.9240	400.3896
2045	1509383183	54.8439	-114.0709	2131.5	1479.2	101.6	8.8	1.2	-0.63	5.02	1.9241	400.3913
2046	1509383184	54.8437	-114.0694	2131.8	1477.5	101.6	9.0	1.3	-0.64	5.02	1.9239	401.1379
2047	1509383185	54.8436	-114.0679	2132.0	1476.0	101.7	9.3	1.4	-0.64	5.01	1.9239	401.3779
2048	1509383186	54.8434	-114.0664	2132.1	1475.1	101.7	9.3	1.4	-0.64	5.01	1.9238	399.7753
2049	1509383187	54.8433	-114.0651	2132.1	1473.9	101.5	9.3	1.4	-0.64	5.01	1.9235	400.5979
2050	1509383188	54.8432	-114.0638	2132.0	1472.0	101.4	9.2	1.4	-0.64	5.01	1.9245	400.0302
2051	1509383189	54.8431	-114.0624	2131.8	1470.8	101.3	9.2	1.4	-0.64	5.01	1.9237	400.9496
2052	1509383190	54.8429	-114.0610	2131.6	1469.6	101.3	9.2	1.4	-0.64	5.01	1.9238	400.3595
2053	1509383191	54.8428	-114.0597	2131.4	1468.4	101.2	9.2	1.3	-0.64	5.01	1.9240	400.9073
2054	1509383192	54.8427	-114.0583	2131.1	1467.0	101.1	9.1	1.3	-0.64	5.00	1.9249	400.3485
2055	1509383193	54.8426	-114.0570	2130.8	1466.8	101.1	9.2	1.3	-0.65	5.00	1.9242	399.3229
2056	1509383194	54.8424	-114.0557	2130.6	1465.6	101.0	9.3	1.2	-0.65	5.00	1.9226	400.9590
2057	1509383195	54.8423	-114.0543	2130.4	1464.3	100.8	9.8	1.0	-0.65	5.00	1.9231	400.7999
2058	1509383196	54.8422	-114.0529	2130.2	1463.2	100.8	9.7	1.0	-0.65	5.00	1.9248	399.3167
2059	1509383197	54.8421	-114.0516	2130.1	1462.1	100.8	9.7	0.9	-0.65	5.00	1.9249	399.3167
2060	1509383198	54.8419	-114.0502	2129.9	1460.9	100.8	9.8	1.0	-0.65	5.00	1.9254	400.4353
2061	1509383199	54.8418	-114.0488	2129.6	1459.5	100.8	9.6	1.0	-0.65	4.99	1.9255	399.7521
2062	1509383200	54.8417	-114.0475	2129.4	1458.5	100.9	9.3	1.1	-0.65	4.99	1.9247	401.1657
2063	1509383201	54.8416	-114.0462	2129.3	1457.3	100.9	9.3	1.2	-0.65	4.99	1.9247	399.9545
2064	1509383202	54.8414	-114.0448	2129.4	1457.5	101.0	9.3	1.4	-0.66	4.99	1.9247	399.7813
2065	1509383203	54.8413	-114.0436	2129.7	1456.7	101.0	9.2	1.3	-0.66	4.99	1.9250	400.2671
2066	1509383204	54.8412	-114.0422	2130.1	1457.1	100.8	9.2	1.1	-0.66	4.99	1.9251	399.8626
2067	1509383205	54.8411	-114.0407	2130.6	1457.6	100.6	9.1	1.1	-0.66	4.99	1.9240	399.8626
2068	1509383206	54.8409	-114.0393	2131.2	1458.2	100.7	9.1	1.2	-0.66	4.99	1.9239	401.0224
2069	1509383207	54.8408	-114.0379	2131.9	1457.9	100.5	9.5	1.0	-0.66	4.98	1.9239	401.0224
2070	1509383208	54.8407	-114.0367	2132.5	1457.4	100.4	9.4	1.0	-0.66	4.98	1.9239	401.0224
2071	1509383209	54.8406	-114.0353	2133.0	1457.0	100.4	9.3	1.1	-0.66	4.98	1.9239	401.0793
2072	1509383210	54.8405	-114.0339	2133.4	1456.4	100.2	9.3	0.9	-0.67	4.98	1.9247	399.5931
2073	1509383211	54.8403	-114.0326	2133.5	1455.5	100.1	9.7	0.7	-0.67	4.98	1.9243	400.3273
2074	1509383212	54.8402	-114.0311	2133.4	1455.1	99.9	9.7	0.5	-0.67	4.98	1.9238	401.3761
2075	1509383213	54.8401	-114.0301	2133.2	1454.2	100.0	9.8	0.7	-0.67	4.98	1.9243	400.3707
2076	1509383214	54.8400	-114.0288	2132.6	1453.6	100.0	9.9	0.7	-0.67	4.97	1.9240	401.0825
2077	1509383215	54.8400	-114.0284	2132.3	1453.3	100.0	9.9	0.7	-0.67	4.97	1.9242	401.3417
2078	1509383216	54.8400	-114.0282	2132.2	1453.2	100.0	9.9	0.7	-0.67	4.97	1.9239	399.1543
2079	1509383217	54.8400	-114.0280	2132.2	1453.2	100.0	9.9	0.7	-0.67	4.97	1.9259	400.8780
2080	1509383218	54.8399	-114.0275	2131.9	1452.9	99.9	9.9	0.6	-0.67	4.97	1.9249	400.2519
2081	1509383219	54.8398	-114.0259	2131.0	1452.0	100.0	10.0	0.7	-0.68	4.97	1.9249	400.5846
2082	1509383220	54.8396	-114.0244	2130.2	1450.9	99.9	10.0	0.6	-0.68	4.97	1.9254	400.2957
2083	1509383221	54.8395	-114.0229	2129.6	1449.6	99.7	10.1	0.5	-0.68	4.96	1.9248	400.2957
2084	1509383222	54.8394	-114.0214	2129.2	1449.2	99.5	10.1	0.3	-0.68	4.96	1.9242	401.7099
2085	1509383223	54.8393	-114.0198	2128.9	1447.9	99.8	10.1	0.6	-0.68	4.96	1.9238	400.6542
2086	1509383224	54.8391	-114.0183	2128.8	1446.8	99.9	10.1	0.6	-0.68	4.96	1.9244	401.1846
2087	1509383225	54.8390	-114.0167	2128.9	1446.9	99.9	10.1	0.5	-0.68	4.96	1.9253	400.8266
2088	1509383226	54.8389	-114.0152	2129.2	1446.2	99.9	10.0	0.4	-0.68	4.96	1.9253	400.4195
2089	1509383227	54.8387	-114.0137	2129.5	1446.5	99.9	10.0	0.5	-0.68	4.96	1.9250	401.8226
2090	1509383228	54.8386	-114.0122	2129.8	1446.8	100.2	9.6	0.8	-0.69	4.95	1.9247	399.9452
2091	1509383229	54.8385	-114.0107	2130.4	1447.4	100.2	9.4	0.8	-0.69	4.95	1.9250	401.3227
2092	1509383230	54.8383	-114.0092	2131.2	1447.2	100.4	9.8	0.9	-0.69	4.95	1.9245	400.0403
2093	1509383231	54.8382	-114.0077	2132.0	1449.0	100.3	10.2	0.7	-0.69	4.95	1.9245	401.1485
2094	1509383232	54.8381	-114.0062	2133.2	1450.2	100.0	10.2	0.4	-0.69	4.95	1.9262	399.8895
2095	1509383233	54.8379	-114.0047	2134.1	1449.2	99.9	10.1	0.3	-0.69	4.95	1.9254	400.4696
2096	1509383234	54.8378	-114.0032	2134.9	1449.0	99.8	10.0	0.3	-0.69	4.95	1.9243	401.0670
2097	1509383235	54.8377	-114.0016	2135.5	1447.5	99.8	10.0	0.4	-0.69	4.94	1.9250	399.8430
2098	1509383236	54.8376	-114.0001	2135.6	1444.8	99.7	10.1	0.4	-0.69	4.94	1.9250	399.6470
2099	1509383237	54.8374	-113.9986	2135.4	1443.2	99.6	10.1	0.4	-0.70	4.94	1.9244	399.6470
2100	1509383238	54.8373	-113.9971	2135.0	1440.4	99.5	9.9	0.5	-0.70	4.94	1.9239	400.5076
2101	1509383239	54.8372	-113.9956	2134.5	1438.5	99.4	9.8	0.5	-0.70	4.94	1.9250	400.6032
2102	1509383240	54.8371	-113.9941	2134.1	1435.1	99.5	9.9	0.6	-0.70	4.94	1.9249	400.6032
2103	1509383241	54.8369	-113.9925	2133.8	1434.8	99.3	9.9	0.4	-0.70	4.94	1.9245	400.6592
2104	1509383242	54.8368	-113.9911	2133.6	1435.1	99.4	10.0	0.6	-0.70	4.93	1.9235	400.8133
2105	1509383243	54.8367	-113.9896	2133.3	1437.6	99.3	10.0	0.6	-0.70	4.93	1.9236	399.8601
2106	1509383244	54.8366	-113.9880	2133.0	1441.7	99.1	10.0	0.3	-0.70	4.93	1.9238	400.6152
2107	1509383245	54.8364	-113.9865	2132.8	1441.5	99.0	10.0	0.1	-0.71	4.93	1.9253	400.4897
2108	1509383246	54.8363	-113.9850	2132.5	1441.5	99.1	10.1	0.1	-0.71	4.93	1.9235	400.6207
2109	1509383247	54.8362	-113.9836	2132.2	1441.2	99.2	10.2	0.3	-0.71	4.93	1.9242	400.4159
2110	1509383248	54.8361	-113.9822	2131.7	1441.9	99.2	10.2	0.1	-0.71	4.93	1.9233	400.8900
2111	1509383249	54.8360	-113.9808	2131.1	1443.2	99.3	10.3	0.1	-0.71	4.93	1.9238	401.5045
2112	1509383250	54.8359	-113.9796	2130.6	1443.9	99.3	10.4	0.0	-0.71	4.92	1.9250	401.1059
2113	1509383251	54.8358	-113.9781	2129.8	1444.8	99.3	10.4	-0.2	-0.71	4.92	1.9238	400.7945
2114	1509383252	54.8356	-113.9768	2129.2	1444.2	99.2	10.4	-0.5	-0.71	4.92	1.9231	399.9761
2115	1509383253	54.8355	-113.9754	2128.4	1443.4	99.2	10.5	-0.6	-0.71	4.92	1.9240	400.4707
2116	1509383254	54.8354	-113.9739	2127.8	1442.8	99.4	10.6	-0.5	-0.72	4.92	1.9239	401.3811
2117	1509383255	54.8353	-113.9727	2127.7	1442.7	99.6	10.6	-0.5	-0.72	4.92	1.9235	400.9854
2118	1509383256	54.8352	-113.9712	2127.7	1442.7	99.7	10.6	-0.5	-0.72	4.92	1.9242	401.2395
2119	1509383257	54.8350	-113.9700	2128.0	1443.0	99.7	10.6	-0.6	-0.72	4.91	1.9243	400.8553
2120	1509383258	54.8349	-113.9685	2128.5	1443.5	99.8	10.5	-0.6	-0.72	4.91	1.9232	399.9054
2121	1509383259	54.8348	-113.9672	2129.0	1444.0	100.0	10.5	-0.6	-0.72	4.91	1.9244	400.8322
2122	1509383260	54.8347	-113.9658	2129.4	1444.4	100.1	10.4	-0.7	-0.72	4.91	1.9245	400.4499
2123	1509383261	54.8345	-113.9645	2129.7	1444.7	100.1	10.4	-0.7	-0.72	4.91	1.9238	399.8476
2124	1509383262	54.8344	-113.9630	2130.0	1445.0	100.0	10.3	-0.8	-0.72	4.91	1.9244	401.3273
2125	1509383263	54.8343	-113.9617	2130.3	1445.3	100.2	10.3	-0.7	-0.73	4.91	1.9255	401.3653
2126	1509383264	54.8341	-113.9603	2130.6	1445.6	100.3	10.4	-0.7	-0.73	4.90	1.9235	401.0538
2127	1509383265	54.8340	-113.9589	2131.0	1446.0	100.2	10.7	-0.9	-0.73	4.90	1.9236	401.1432
2128	1509383266	54.8339	-113.9577	2131.4	1446.4	100.0	10.7	-1.1	-0.73	4.90	1.9237	401.1432
2129	1509383267	54.8337	-113.9563	2131.9	1446.9	100.1	10.7	-0.9	-0.73	4.90	1.9238	401.1432
2130	1509383268	54.8336	-113.9549	2132.4	1447.4	100.1	10.7	-0.8	-0.73	4.90	1.9239	401.1432
2131	1509383269	54.8335	-113.9536	2132.9	1447.9	100.1	10.6	-1.0	-0.73	4.90	1.9236	401.0985
2132	1509383270	54.8334	-113.9523	2133.3	1448.3	99.9	10.6	-0.9	-0.73	4.90	1.9243	400.8984
2133	1509383271	54.8332	-113.9508	2133.8	1448.8	99.7	10.5	-1.0	-0.74	4.89	1.9243	400.2796
2134	1509383272	54.8331	-113.9494	2134.3	1449.3	99.6	10.5	-1.1	-0.74	4.89	1.9244	400.0501
2135	1509383273	54.8330	-113.9482	2134.8	1448.1	99.5	10.5	-1.0	-0.74	4.89	1.9239	399.9888
2136	1509383274	54.8329	-113.9474	2135.0	1448.0	99.5	10.5	-0.9	-0.74	4.89	1.9230	400.1741
2137	1509383275	54.8329	-113.9472	2135.1	1448.1	99.5	10.5	-0.9	-0.74	4.89	1.9227	400.4684
2138	1509383276	54.8329	-113.9471	2135.2	1448.2	99.5	10.5	-0.9	-0.74	4.89	1.9231	401.5395
2139	1509383277	54.8329	-113.9469	2135.3	1448.3	99.5	10.5	-0.9	-0.74	4.89	1.9251	399.7994
2140	1509383278	54.8327	-113.9456	2135.7	1448.7	99.5	10.5	-0.7	-0.74	4.88	1.9253	400.6793
2141	1509383279	54.8326	-113.9441	2135.9	1446.9	99.5	10.6	-0.7	-0.74	4.88	1.9245	400.2972
2142	1509383280	54.8325	-113.9426	2136.0	1447.0	99.3	10.6	-0.7	-0.75	4.88	1.9240	400.8990
2143	1509383281	54.8323	-113.9411	2136.1	1448.1	99.3	10.2	-0.5	-0.75	4.88	1.9246	400.8990
2144	1509383282	54.8322	-113.9396	2136.2	1448.2	99.3	10.2	-0.3	-0.75	4.88	1.9246	400.1353
2145	1509383283	54.8321	-113.9381	2136.3	1448.3	99.3	10.3	-0.3	-0.75	4.88	1.9248	400.4935
2146	1509383284	54.8320	-113.9366	2136.4	1449.4	99.1	10.4	-0.1	-0.75	4.88	1.9253	400.6624
2147	1509383285	54.8318	-113.9351	2136.5	1450.5	99.1	10.5	0.0	-0.75	4.87	1.9264	400.7012
2148	1509383286	54.8317	-113.9335	2136.6	1451.6	99.0	10.1	0.1	-0.75	4.87	1.9254	400.6860
2149	1509383287	54.8316	-113.9320	2136.8	1450.8	99.0	10.0	0.3	-0.75	4.87	1.9250	401.7776
2150	1509383288	54.8315	-113.9305	2136.8	1450.8	99.0	10.1	0.3	-0.75	4.87	1.9258	400.8694
2151	1509383289	54.8313	-113.9290	2136.6	1450.6	99.0	10.2	0.3	-0.76	4.87	1.9263	400.1255
2152	1509383290	54.8312	-113.9275	2136.1	1450.1	99.2	9.8	0.6	-0.76	4.87	1.9259	400.3563
2153	1509383291	54.8311	-113.9259	2135.5	1450.5	99.4	9.9	0.7	-0.76	4.87	1.9249	400.1541
2154	1509383292	54.8310	-113.9245	2134.9	1449.9	99.6	10.0	0.9	-0.76	4.86	1.9260	400.6267
2155	1509383293	54.8309	-113.9229	2134.2	1450.2	99.5	10.1	0.9	-0.76	4.86	1.9251	401.6217
2156	1509383294	54.8307	-113.9214	2133.8	1449.8	99.3	10.1	0.7	-0.76	4.86	1.9258	401.0116
2157	1509383295	54.8306	-113.9198	2133.5	1449.5	99.2	10.1	0.7	-0.76	4.86	1.9234	400.4069
2158	1509383296	54.8305	-113.9183	2133.4	1449.4	99.2	10.2	0.6	-0.76	4.86	1.9233	399.3113
2159	1509383297	54.8304	-113.9168	2133.5	1449.5	99.1	10.5	0.2	-0.76	4.86	1.9243	398.6292
2160	1509383298	54.8303	-113.9153	2133.7	1449.7	99.0	10.5	0.0	-0.77	4.86	1.9248	400.8231
2161	1509383299	54.8301	-113.9138	2133.8	1449.8	98.9	10.5	-0.4	-0.77	4.86	1.9237	400.6114
2162	1509383300	54.8300	-113.9123	2133.9	1450.9	98.9	10.4	-0.5	-0.77	4.85	1.9231	400.5040
2163	1509383301	54.8299	-113.9108	2133.9	1451.9	99.1	10.4	-0.6	-0.77	4.85	1.9233	400.2750
2164	1509383302	54.8297	-113.9092	2133.8	1450.8	99.4	10.4	-0.5	-0.77	4.85	1.9241	401.4096
2165	1509383303	54.8296	-113.9077	2133.5	1450.5	99.6	10.5	-0.4	-0.77	4.85	1.9240	400.3824
2166	1509383304	54.8295	-113.9062	2133.3	1451.3	99.6	10.5	-0.5	-0.77	4.85	1.9246	400.0820
2167	1509383305	54.8293	-113.9047	2133.0	1451.0	99.7	10.2	-0.5	-0.77	4.85	1.9256	400.4510
2168	1509383306	54.8292	-113.9031	2132.7	1449.7	100.0	10.1	-0.3	-0.78	4.85	1.9261	400.6621
2169	1509383307	54.8291	-113.9016	2132.7	1448.7	100.4	10.2	0.1	-0.78	4.84	1.9263	400.6621
2170	1509383308	54.8289	-113.9001	2132.9	1449.2	100.5	10.1	0.1	-0.78	4.84	1.9258	400.7407
2171	1509383309	54.8288	-113.8987	2133.3	1451.3	100.7	10.2	0.3	-0.78	4.84	1.9263	400.4501
2172	1509383310	54.8286	-113.8973	2133.9	1451.9	100.7	10.1	0.3	-0.78	4.84	1.9265	401.1459
2173	1509383311	54.8285	-113.8959	2134.3	1451.3	100.7	10.1	0.4	-0.78	4.84	1.9264	401.1459
2174	1509383312	54.8284	-113.8945	2134.9	1451.9	100.8	10.0	0.5	-0.78	4.84	1.9259	401.1227
2175	1509383313	54.8283	-113.8932	2135.3	1452.6	100.8	9.9	0.5	-0.78	4.84	1.9244	401.2979
2176	1509383314	54.8281	-113.8918	2135.7	1452.7	100.8	10.0	0.5	-0.78	4.83	1.9249	400.1578
2177	1509383315	54.8280	-113.8904	2135.8	1451.8	100.8	9.9	0.6	-0.79	4.83	1.9260	400.8648
2178	1509383316	54.8279	-113.8891	2135.6	1451.6	100.8	10.0	0.6	-0.79	4.83	1.9251	400.8648
2179	1509383317	54.8277	-113.8877	2135.4	1451.4	100.8	10.0	0.6	-0.79	4.83	1.9259	400.9345
2180	1509383318	54.8276	-113.8863	2135.0	1451.0	100.7	10.1	0.5	-0.79	4.83	1.9258	400.8093
2181	1509383319	54.8275	-113.8849	2134.6	1450.6	100.7	10.1	0.5	-0.79	4.83	1.9258	401.8083
2182	1509383320	54.8274	-113.8836	2134.2	1451.2	100.8	10.2	0.6	-0.79	4.83	1.9247	402.4624
2183	1509383321	54.8272	-113.8821	2133.8	1451.8	100.8	10.1	0.7	-0.79	4.82	1.9246	400.5897
2184	1509383322	54.8271	-113.8807	2133.6	1452.5	100.8	9.8	0.6	-0.79	4.82	1.9246	401.6618
2185	1509383323	54.8270	-113.8795	2133.6	1453.6	100.8	9.8	0.8	-0.79	4.82	1.9251	400.4406
2186	1509383324	54.8268	-113.8780	2133.8	1454.8	100.7	9.8	0.7	-0.80	4.82	1.9255	400.5207
2187	1509383325	54.8267	-113.8767	2134.0	1455.0	100.6	9.8	0.7	-0.80	4.82	1.9256	401.2133
2188	1509383326	54.8266	-113.8753	2134.4	1455.4	100.5	9.8	0.7	-0.80	4.82	1.9255	401.1453
2189	1509383327	54.8265	-113.8739	2134.9	1455.9	100.4	9.8	0.7	-0.80	4.82	1.9254	401.0772
2190	1509383328	54.8263	-113.8725	2135.3	1456.0	100.5	9.7	0.9	-0.80	4.81	1.9254	401.0091
2191	1509383329	54.8262	-113.8711	2135.7	1455.7	100.4	9.7	0.9	-0.80	4.81	1.9253	400.9411
2192	1509383330	54.8261	-113.8699	2136.0	1457.0	100.4	9.7	0.8	-0.80	4.81	1.9252	400.8730
2193	1509383331	54.8260	-113.8684	2136.2	1457.2	100.2	9.7	0.7	-0.80	4.81	1.9252	400.8050
2194	1509383332	54.8259	-113.8670	2136.4	1458.4	100.1	9.6	0.7	-0.80	4.81	1.9251	400.7369
2195	1509383333	54.8257	-113.8656	2136.4	1458.4	100.0	9.4	0.7	-0.81	4.81	1.9259	399.9264
2196	1509383334	54.8256	-113.8644	2136.4	1458.4	100.0	9.1	0.8	-0.81	4.81	1.9251	401.5277
2197	1509383335	54.8256	-113.8642	2136.4	1458.4	100.0	9.2	0.8	-0.81	4.80	1.9254	400.6691
2198	1509383336	54.8256	-113.8640	2136.3	1458.3	100.0	9.2	0.8	-0.81	4.80	1.9262	401.4652
2199	1509383337	54.8256	-113.8638	2136.3	1458.3	100.0	9.2	0.8	-0.81	4.80	1.9251	400.9038
2200	1509383338	54.8255	-113.8631	2136.3	1457.6	100.0	9.7	0.7	-0.81	4.80	1.9266	400.9038
2201	1509383339	54.8254	-113.8615	2136.2	1457.2	99.9	9.7	0.7	-0.81	4.80	1.9261	400.7733
2202	1509383340	54.8253	-113.8600	2136.0	1457.0	99.9	9.6	0.7	-0.81	4.80	1.9246	401.7107
2203	1509383341	54.8251	-113.8585	2135.8	1457.8	100.0	9.3	0.8	-0.82	4.80	1.9258	401.5031
2204	1509383342	54.8250	-113.8570	2135.5	1458.5	100.0	9.7	0.7	-0.82	4.80	1.9252	401.5031
2205	1509383343	54.8249	-113.8555	2135.2	1458.2	100.0	9.7	0.7	-0.82	4.79	1.9247	402.0098
2206	1509383344	54.8247	-113.8540	2134.9	1457.9	99.9	9.7	0.6	-0.82	4.79	1.9251	401.9636
2207	1509383345	54.8246	-113.8525	2134.4	1457.4	99.9	9.8	0.7	-0.82	4.79	1.9254	401.1504
2208	1509383346	54.8245	-113.8509	2134.0	1457.0	99.9	9.8	0.7	-0.82	4.79	1.9247	400.7848
2209	1509383347	54.8244	-113.8494	2133.5	1456.5	99.9	9.9	0.7	-0.82	4.79	1.9264	400.0009
2210	1509383348	54.8242	-113.8479	2133.0	1456.0	99.9	9.9	0.7	-0.82	4.79	1.9250	401.1793
2211	1509383349	54.8241	-113.8464	2132.5	1454.5	100.0	9.9	0.7	-0.82	4.79	1.9248	401.1793
2212	1509383350	54.8240	-113.8449	2132.0	1453.2	100.1	10.0	0.7	-0.83	4.78	1.9254	400.6657
2213	1509383351	54.8238	-113.8433	2131.4	1451.0	100.2	10.4	0.5	-0.83	4.78	1.9252	401.1145
2214	1509383352	54.8237	-113.8418	2130.7	1449.7	100.2	10.4	0.5	-0.83	4.78	1.9245	401.2896
2215	1509383353	54.8236	-113.8403	2129.9	1448.9	100.2	10.5	0.5	-0.83	4.78	1.9252	401.2896
2216	1509383354	54.8234	-113.8387	2129.1	1449.4	100.1	10.0	0.4	-0.83	4.78	1.9249	400.8287
2217	1509383355	54.8233	-113.8372	2128.5	1448.5	100.3	10.1	0.4	-0.83	4.78	1.9261	401.0027
2218	1509383356	54.8231	-113.8357	2127.8	1447.5	100.4	10.6	0.2	-0.83	4.78	1.9255	400.3269
2219	1509383357	54.8230	-113.8342	2127.3	1446.3	100.6	10.6	0.3	-0.83	4.77	1.9243	400.3548
2220	1509383358	54.8229	-113.8326	2127.1	1447.4	100.5	10.6	0.2	-0.83	4.77	1.9247	401.2793
2221	1509383359	54.8227	-113.8310	2127.0	1448.0	100.5	10.5	0.1	-0.84	4.77	1.9252	400.9140
2222	1509383360	54.8226	-113.8295	2127.3	1448.3	100.4	10.5	0.1	-0.84	4.77	1.9242	400.4852
2223	1509383361	54.8224	-113.8279	2127.4	1446.4	100.2	10.8	-0.5	-0.84	4.77	1.9243	399.9347
2224	1509383362	54.8223	-113.8264	2127.4	1448.4	100.0	10.8	-0.8	-0.84	4.77	1.9236	399.3256
2225	1509383363	54.8221	-113.8249	2127.2	1449.2	100.1	10.8	-0.9	-0.84	4.77	1.9247	400.1838
2226	1509383364	54.8220	-113.8235	2126.8	1449.8	100.2	10.8	-1.0	-0.84	4.76	1.9240	400.7374
2227	1509383365	54.8218	-113.8220	2126.4	1449.4	100.4	10.9	-0.9	-0.84	4.76	1.9257	400.6844
2228	1509383366	54.8217	-113.8204	2126.1	1449.1	100.6	10.9	-0.8	-0.84	4.76	1.9241	400.6844
2229	1509383367	54.8215	-113.8189	2126.2	1448.2	100.6	10.9	-0.9	-0.84	4.76	1.9246	400.8747
2230	1509383368	54.8214	-113.8174	2126.4	1449.4	100.6	10.9	-0.9	-0.85	4.76	1.9249	401.3041
2231	1509383369	54.8212	-113.8159	2126.9	1449.9	100.6	10.8	-0.9	-0.85	4.76	1.9233	400.8102
2232	1509383370	54.8211	-113.8145	2127.5	1449.5	100.7	10.7	-0.9	-0.85	4.76	1.9235	400.9569
2233	1509383371	54.8210	-113.8131	2128.2	1450.9	100.6	11.1	-1.1	-0.85	4.75	1.9248	400.4998
2234	1509383372	54.8208	-113.8119	2128.7	1451.2	100.6	11.1	-1.0	-0.85	4.75	1.9249	400.3143
2235	1509383373	54.8207	-113.8104	2129.4	1451.4	100.6	11.2	-1.0	-0.85	4.75	1.9248	400.0045
2236	1509383374	54.8206	-113.8091	2129.8	1451.8	100.7	11.1	-1.0	-0.85	4.75	1.9230	400.7138
2237	1509383375	54.8204	-113.8077	2130.0	1452.0	100.7	11.1	-1.0	-0.85	4.75	1.9248	399.9868
2238	1509383376	54.8203	-113.8064	2130.0	1452.0	100.6	11.1	-1.1	-0.86	4.75	1.9230	400.3464
2239	1509383377	54.8201	-113.8050	2129.8	1451.8	100.5	11.2	-1.0	-0.86	4.75	1.9235	400.3464
2240	1509383378	54.8200	-113.8036	2129.6	1451.4	100.5	11.2	-1.2	-0.86	4.74	1.9235	400.2785
2241	1509383379	54.8199	-113.8022	2129.3	1450.3	100.4	11.3	-1.1	-0.86	4.74	1.9243	398.7159
2242	1509383380	54.8197	-113.8008	2129.1	1449.1	100.4	11.3	-1.1	-0.86	4.74	1.9238	401.0868
2243	1509383381	54.8196	-113.7995	2129.0	1449.0	100.4	11.4	-1.1	-0.86	4.74	1.9238	399.9785
2244	1509383382	54.8194	-113.7980	2128.9	1446.8	100.3	11.4	-1.3	-0.86	4.74	1.9240	399.9785
2245	1509383383	54.8193	-113.7966	2128.9	1444.9	100.2	11.4	-1.3	-0.86	4.74	1.9238	400.2818
2246	1509383384	54.8192	-113.7953	2128.9	1443.9	100.0	11.1	-1.2	-0.86	4.74	1.9252	399.1706
2247	1509383385	54.8190	-113.7940	2129.1	1443.1	100.0	10.9	-1.1	-0.87	4.74	1.9252	400.5039
2248	1509383386	54.8189	-113.7925	2129.5	1442.5	99.9	10.9	-1.1	-0.87	4.73	1.9243	400.5463
2249	1509383387	54.8188	-113.7912	2130.2	1442.2	99.8	10.8	-1.0	-0.87	4.73	1.9243	400.6267
2250	1509383388	54.8186	-113.7897	2130.9	1440.9	99.9	10.9	-0.7	-0.87	4.73	1.9244	400.6749
2251	1509383389	54.8185	-113.7884	2131.7	1440.9	99.9	10.8	-0.6	-0.87	4.73	1.9246	400.6749
2252	1509383390	54.8184	-113.7870	2132.5	1441.6	99.5	10.9	-1.1	-0.87	4.73	1.9240	400.1317
2253	1509383391	54.8183	-113.7856	2133.3	1442.2	99.3	11.1	-1.2	-0.87	4.73	1.9243	400.6339
2254	1509383392	54.8181	-113.7842	2134.0	1443.0	99.1	11.1	-1.2	-0.87	4.73	1.9250	401.4215
2255	1509383393	54.8180	-113.7829	2134.4	1444.4	99.1	11.1	-1.1	-0.87	4.72	1.9249	400.6383
2256	1509383394	54.8179	-113.7816	2134.4	1446.1	99.2	11.1	-1.0	-0.88	4.72	1.9239	400.7818
2257	1509383395	54.8179	-113.7814	2134.4	1446.1	99.2	11.1	-1.0	-0.88	4.72	1.9257	400.7557
2258	1509383396	54.8179	-113.7812	2134.4	1446.4	99.2	11.1	-1.0	-0.88	4.72	1.9261	400.7557
2259	1509383397	54.8179	-113.7810	2134.4	1446.4	99.2	11.1	-1.0	-0.88	4.72	1.9249	401.1672
2260	1509383398	54.8178	-113.7802	2134.2	1446.2	99.2	10.7	-0.8	-0.88	4.72	1.9262	401.1672
2261	1509383399	54.8176	-113.7787	2134.0	1446.0	99.2	10.7	-1.0	-0.88	4.72	1.9255	401.2997
2262	1509383400	54.8175	-113.7772	2133.8	1445.8	99.1	10.8	-0.9	-0.88	4.71	1.9267	400.8556
2263	1509383401	54.8174	-113.7757	2133.7	1447.1	99.3	10.8	-0.6	-0.88	4.71	1.9261	400.0355
2264	1509383402	54.8172	-113.7741	2133.7	1447.7	99.3	10.9	-0.6	-0.88	4.71	1.9260	400.3213
2265	1509383403	54.8171	-113.7726	2133.8	1447.5	99.3	10.8	-0.5	-0.89	4.71	1.9242	400.3213
2266	1509383404	54.8170	-113.7711	2133.9	1446.9	99.1	10.8	-0.6	-0.89	4.71	1.9246	400.5791
2267	1509383405	54.8169	-113.7695	2134.0	1448.0	99.2	10.9	-0.5	-0.89	4.71	1.9261	402.3912
2268	1509383406	54.8167	-113.7681	2134.0	1449.0	99.2	10.9	-0.5	-0.89	4.71	1.9249	400.2817
2269	1509383407	54.8166	-113.7666	2134.1	1449.1	99.3	10.8	-0.5	-0.89	4.70	1.9244	398.2076
2270	1509383408	54.8165	-113.7650	2134.2	1448.7	99.3	10.9	-0.5	-0.89	4.70	1.9243	400.8670
2271	1509383409	54.8163	-113.7635	2134.3	1447.3	99.3	10.8	-0.5	-0.89	4.70	1.9251	400.8670
2272	1509383410	54.8162	-113.7619	2134.5	1447.5	99.2	10.8	-0.6	-0.89	4.70	1.9260	399.4476
2273	1509383411	54.8161	-113.7603	2134.7	1447.7	99.2	10.8	-0.8	-0.90	4.70	1.9247	400.9136
2274	1509383412	54.8159	-113.7588	2134.8	1446.8	99.1	10.7	-0.9	-0.90	4.70	1.9250	400.1297
2275	1509383413	54.8158	-113.7573	2134.8	1445.8	99.3	10.7	-0.9	-0.90	4.70	1.9261	401.3441
2276	1509383414	54.8157	-113.7557	2134.8	1444.8	99.3	10.7	-0.8	-0.90	4.69	1.9245	400.7550
2277	1509383415	54.8155	-113.7542	2134.6	1443.6	99.5	10.7	-0.7	-0.90	4.69	1.9241	399.9883
2278	1509383416	54.8154	-113.7527	2134.5	1442.6	99.4	10.7	-0.8	-0.90	4.69	1.9242	400.9414
2279	1509383417	54.8152	-113.7511	2134.4	1442.3	99.2	10.7	-1.1	-0.90	4.69	1.9249	400.4299
2280	1509383418	54.8151	-113.7496	2134.4	1443.3	99.1	10.6	-1.3	-0.90	4.69	1.9248	400.7194
2281	1509383419	54.8150	-113.7481	2134.3	1443.4	99.2	10.6	-1.3	-0.90	4.69	1.9244	399.2866
2282	1509383420	54.8148	-113.7466	2134.4	1443.4	99.2	10.6	-1.4	-0.91	4.69	1.9253	399.7841
2283	1509383421	54.8147	-113.7450	2134.4	1443.4	99.4	10.7	-1.2	-0.91	4.68	1.9250	400.1053
2284	1509383422	54.8145	-113.7434	2134.4	1443.4	99.4	10.7	-1.3	-0.91	4.68	1.9247	401.6511
2285	1509383423	54.8144	-113.7419	2134.5	1443.5	99.4	10.7	-1.3	-0.91	4.68	1.9241	401.3587
2286	1509383424	54.8143	-113.7404	2134.6	1442.6	99.5	10.6	-1.3	-0.91	4.68	1.9254	401.3587
2287	1509383425	54.8141	-113.7389	2134.6	1441.6	99.6	10.7	-1.3	-0.91	4.68	1.9246	400.3998
2288	1509383426	54.8140	-113.7373	2134.5	1440.5	99.6	10.6	-1.4	-0.91	4.68	1.9245	401.1239
2289	1509383427	54.8138	-113.7360	2134.3	1440.3	99.5	10.6	-1.5	-0.91	4.68	1.9251	400.8762
2290	1509383428	54.8137	-113.7345	2133.9	1439.9	99.5	10.6	-1.5	-0.91	4.67	1.9255	400.4753
2291	1509383429	54.8136	-113.7332	2133.4	1439.4	99.5	10.7	-1.4	-0.92	4.67	1.9251	398.8268
2292	1509383430	54.8135	-113.7318	2133.0	1439.0	99.5	10.7	-1.5	-0.92	4.67	1.9240	400.0497
2293	1509383431	54.8133	-113.7305	2132.4	1437.4	99.5	10.8	-1.6	-0.92	4.67	1.9242	401.0874
2294	1509383432	54.8132	-113.7291	2131.9	1435.9	99.6	10.9	-1.4	-0.92	4.67	1.9240	401.0390
2295	1509383433	54.8131	-113.7277	2131.3	1435.3	99.6	11.0	-1.4	-0.92	4.67	1.9234	400.6489
2296	1509383434	54.8129	-113.7263	2130.8	1433.8	99.7	11.1	-1.5	-0.92	4.67	1.9249	401.5636
2297	1509383435	54.8128	-113.7249	2130.3	1432.6	99.6	11.1	-1.6	-0.92	4.67	1.9246	400.6197
2298	1509383436	54.8127	-113.7235	2130.0	1431.6	99.7	11.2	-1.6	-0.92	4.66	1.9256	400.7665
2299	1509383437	54.8125	-113.7221	2129.8	1430.8	99.7	10.8	-1.5	-0.93	4.66	1.9238	400.2395
2300	1509383438	54.8124	-113.7207	2129.7	1429.0	99.8	10.7	-1.5	-0.93	4.66	1.9247	400.2395
2301	1509383439	54.8123	-113.7193	2129.9	1428.9	99.8	10.7	-1.5	-0.93	4.66	1.9239	401.0601
2302	1509383440	54.8121	-113.7180	2130.3	1429.3	99.8	10.7	-1.5	-0.93	4.66	1.9238	399.8014
2303	1509383441	54.8120	-113.7166	2130.8	1429.1	99.9	10.6	-1.6	-0.93	4.66	1.9241	401.4457
2304	1509383442	54.8119	-113.7153	2131.3	1428.6	100.0	10.5	-1.6	-0.93	4.66	1.9244	400.8493
2305	1509383443	54.8117	-113.7138	2131.7	1426.8	100.1	10.5	-1.5	-0.93	4.65	1.9235	400.6347
2306	1509383444	54.8116	-113.7124	2131.8	1424.5	100.1	10.5	-1.5	-0.93	4.65	1.9237	400.6371
2307	1509383445	54.8114	-113.7111	2131.8	1422.4	100.2	10.9	-1.5	-0.93	4.65	1.9240	399.1943
2308	1509383446	54.8113	-113.7096	2131.7	1421.7	100.2	11.0	-1.5	-0.94	4.65	1.9244	399.4034
2309	1509383447	54.8112	-113.7083	2131.5	1421.5	100.1	11.0	-1.6	-0.94	4.65	1.9248	399.6125
2310	1509383448	54.8110	-113.7069	2131.2	1420.4	100.0	10.7	-1.6	-0.94	4.65	1.9251	399.8216
2311	1509383449	54.8109	-113.7055	2130.9	1419.9	100.0	10.6	-1.4	-0.94	4.65	1.9250	400.0185
2312	1509383450	54.8107	-113.7041	2130.6	1420.7	100.0	10.7	-1.3	-0.94	4.64	1.9233	398.4125
2313	1509383451	54.8106	-113.7027	2130.4	1420.7	99.9	10.7	-1.4	-0.94	4.64	1.9257	401.0214
2314	1509383452	54.8105	-113.7014	2130.3	1420.3	99.7	10.7	-1.5	-0.94	4.64	1.9225	401.1368
2315	1509383453	54.8103	-113.7000	2130.3	1421.3	99.5	10.7	-1.4	-0.94	4.64	1.9232	401.1917
2316	1509383454	54.8102	-113.6987	2130.5	1421.4	99.4	10.7	-1.5	-0.94	4.64	1.9227	400.5970
2317	1509383455	54.8102	-113.6985	2130.5	1422.3	99.4	10.6	-1.5	-0.95	4.64	1.9247	400.5383
2318	1509383456	54.8102	-113.6983	2130.6	1422.2	99.4	10.6	-1.5	-0.95	4.64	1.9253	400.5383
2319	1509383457	54.8102	-113.6981	2130.6	1422.3	99.4	10.6	-1.5	-0.95	4.63	1.9234	401.0702
2320	1509383458	54.8101	-113.6972	2131.0	1423.6	99.4	10.8	-1.4	-0.95	4.63	1.9229	401.3882
2321	1509383459	54.8099	-113.6957	2131.8	1424.9	99.4	11.0	-1.5	-0.95	4.63	1.9229	401.8218
2322	1509383460	54.8098	-113.6942	2132.9	1428.7	99.4	10.6	-1.5	-0.95	4.63	1.9234	399.6278
2323	1509383461	54.8096	-113.6926	2133.9	1430.9	99.3	10.2	-1.5	-0.95	4.63	1.9240	402.0610
2324	1509383462	54.8095	-113.6911	2134.7	1434.0	99.4	10.1	-1.5	-0.95	4.63	1.9235	400.9690
2325	1509383463	54.8094	-113.6896	2135.1	1435.8	99.5	10.1	-1.3	-0.95	4.63	1.9232	400.5371
2326	1509383464	54.8092	-113.6880	2135.4	1436.4	99.5	10.1	-1.2	-0.96	4.62	1.9231	400.1067
2327	1509383465	54.8091	-113.6865	2135.5	1436.5	99.4	10.1	-1.3	-0.96	4.62	1.9241	399.9524
2328	1509383466	54.8089	-113.6849	2135.5	1437.2	99.2	10.1	-1.4	-0.96	4.62	1.9257	400.8385
2329	1509383467	54.8088	-113.6834	2135.7	1439.0	99.3	10.3	-1.4	-0.96	4.62	1.9240	401.0294
2330	1509383468	54.8086	-113.6819	2135.9	1442.0	99.2	10.6	-1.5	-0.96	4.62	1.9244	400.3019
2331	1509383469	54.8085	-113.6803	2136.3	1444.3	99.1	10.6	-1.5	-0.96	4.62	1.9240	400.8793
2332	1509383470	54.8084	-113.6788	2136.8	1446.8	98.9	10.5	-1.7	-0.96	4.62	1.9240	401.3993
2333	1509383471	54.8082	-113.6772	2137.2	1446.2	98.8	10.5	-1.7	-0.96	4.61	1.9245	400.2241
2334	1509383472	54.8081	-113.6757	2137.5	1446.5	98.7	10.5	-1.6	-0.97	4.61	1.9242	399.7621
2335	1509383473	54.8080	-113.6742	2137.3	1447.3	98.6	10.4	-1.6	-0.97	4.61	1.9228	400.1244
2336	1509383474	54.8078	-113.6727	2136.9	1447.9	98.5	10.1	-1.6	-0.97	4.61	1.9258	400.5591
2337	1509383475	54.8077	-113.6712	2136.2	1446.2	98.5	10.1	-1.5	-0.97	4.61	1.9245	400.5760
2338	1509383476	54.8076	-113.6696	2135.2	1445.2	98.5	9.8	-1.4	-0.97	4.61	1.9239	400.4718
2339	1509383477	54.8074	-113.6680	2134.3	1445.3	98.5	9.9	-1.5	-0.97	4.61	1.9240	400.3154
2340	1509383478	54.8073	-113.6665	2133.4	1445.4	98.5	9.9	-1.5	-0.97	4.61	1.9239	399.8204
2341	1509383479	54.8072	-113.6649	2132.7	1445.7	98.5	10.0	-1.5	-0.97	4.60	1.9245	400.6176
2342	1509383480	54.8070	-113.6634	2132.3	1445.3	98.4	10.0	-1.7	-0.97	4.60	1.9234	400.5453
2343	1509383481	54.8069	-113.6619	2132.1	1446.1	98.5	10.0	-1.6	-0.98	4.60	1.9251	400.4834
2344	1509383482	54.8068	-113.6604	2132.3	1446.3	98.5	10.0	-1.7	-0.98	4.60	1.9252	399.7740
2345	1509383483	54.8066	-113.6588	2132.7	1447.7	98.5	9.9	-1.7	-0.98	4.60	1.9242	401.0858
2346	1509383484	54.8065	-113.6573	2133.4	1449.4	98.5	9.8	-1.7	-0.98	4.60	1.9240	399.1768
2347	1509383485	54.8064	-113.6558	2134.1	1453.1	98.6	9.8	-1.7	-0.98	4.60	1.9241	401.0798
2348	1509383486	54.8062	-113.6544	2134.6	1456.7	98.5	9.7	-1.8	-0.98	4.59	1.9241	399.6351
2349	1509383487	54.8061	-113.6530	2134.8	1458.8	98.6	9.6	-1.8	-0.98	4.59	1.9232	399.8303
2350	1509383488	54.8060	-113.6517	2134.8	1459.7	98.7	9.6	-1.8	-0.98	4.59	1.9244	400.9005
2351	1509383489	54.8058	-113.6502	2134.6	1460.9	98.8	9.6	-1.8	-0.98	4.59	1.9254	401.0249
2352	1509383490	54.8057	-113.6488	2134.2	1461.2	98.9	9.7	-1.8	-0.99	4.59	1.9241	401.0100
2353	1509383491	54.8056	-113.6475	2133.9	1461.9	99.0	10.2	-1.9	-0.99	4.59	1.9241	402.2592
2354	1509383492	54.8055	-113.6461	2133.6	1462.6	99.0	10.3	-1.9	-0.99	4.59	1.9226	401.4181
2355	1509383493	54.8053	-113.6447	2133.3	1466.3	99.0	10.2	-2.0	-0.99	4.58	1.9230	401.2520
2356	1509383494	54.8052	-113.6433	2133.1	1469.7	99.0	10.2	-1.9	-0.99	4.58	1.9234	400.6641
2357	1509383495	54.8051	-113.6419	2133.0	1475.3	99.1	10.3	-1.9	-0.99	4.58	1.9235	400.6641
2358	1509383496	54.8049	-113.6405	2133.0	1486.0	99.1	10.3	-1.9	-0.99	4.58	1.9230	400.2936
2359	1509383497	54.8048	-113.6391	2133.1	1498.7	99.2	10.3	-1.9	-0.99	4.58	1.9223	400.3926
2360	1509383498	54.8047	-113.6378	2133.2	1505.2	99.2	9.9	-1.9	-0.99	4.58	1.9246	400.3926
2361	1509383499	54.8046	-113.6370	2133.3	1509.3	99.2	9.8	-1.9	-1.00	4.58	1.9239	400.2596
2362	1509383500	54.8045	-113.6354	2133.6	1516.6	99.3	9.8	-1.8	-1.00	4.57	1.9238	401.3530
2363	1509383501	54.8043	-113.6339	2133.8	1521.7	99.3	9.8	-1.9	-1.00	4.57	1.9241	399.8471
2364	1509383502	54.8042	-113.6324	2134.0	1524.6	99.4	9.8	-1.9	-1.00	4.57	1.9253	399.8471
2365	1509383503	54.8040	-113.6309	2134.2	1526.7	99.5	9.8	-1.8	-1.00	4.57	1.9260	399.4980
2366	1509383504	54.8039	-113.6295	2134.3	1529.6	99.6	9.9	-1.7	-1.00	4.57	1.9255	401.3367
2367	1509383505	54.8037	-113.6281	2134.4	1532.1	99.6	9.9	-1.7	-1.00	4.57	1.9245	401.6960
2368	1509383506	54.8036	-113.6268	2134.5	1533.5	99.6	9.9	-1.7	-1.00	4.57	1.9246	401.6960
2369	1509383507	54.8035	-113.6254	2134.6	1535.6	99.6	9.9	-1.7	-1.01	4.56	1.9247	401.6960
2370	1509383508	54.8033	-113.6239	2134.5	1537.4	99.6	10.0	-1.7	-1.01	4.56	1.9248	401.6960
2371	1509383509	54.8032	-113.6227	2134.4	1541.5	99.6	10.0	-1.7	-1.01	4.56	1.9249	401.5115
2372	1509383510	54.8031	-113.6212	2134.3	1542.3	99.6	10.0	-1.7	-1.01	4.56	1.9239	401.2924
2373	1509383511	54.8029	-113.6198	2134.2	1542.2	99.6	10.1	-1.7	-1.01	4.56	1.9240	400.5881
2374	1509383512	54.8028	-113.6184	2134.0	1541.7	99.7	10.2	-1.6	-1.01	4.56	1.9251	401.7220
2375	1509383513	54.8027	-113.6170	2133.9	1541.9	99.4	9.7	-1.8	-1.01	4.56	1.9241	401.5502
2376	1509383514	54.8025	-113.6157	2133.9	1542.9	99.4	9.6	-1.8	-1.01	4.55	1.9245	401.2158
2377	1509383515	54.8025	-113.6155	2133.9	1542.9	99.4	9.6	-1.8	-1.01	4.55	1.9250	400.5659
2378	1509383516	54.8025	-113.6154	2133.9	1542.9	99.4	9.6	-1.7	-1.02	4.55	1.9248	401.7054
2379	1509383517	54.8025	-113.6152	2133.9	1542.9	99.4	9.6	-1.7	-1.02	4.55	1.9261	401.2352
2380	1509383518	54.8024	-113.6144	2133.9	1544.0	99.4	10.2	-1.7	-1.02	4.55	1.9267	400.5818
2381	1509383519	54.8023	-113.6129	2134.0	1545.0	99.4	10.2	-1.7	-1.02	4.55	1.9260	400.8720
2382	1509383520	54.8021	-113.6114	2134.1	1544.0	99.5	9.9	-1.6	-1.02	4.55	1.9249	401.8249
2383	1509383521	54.8020	-113.6099	2134.3	1546.4	99.5	9.7	-1.5	-1.02	4.54	1.9246	400.7551
2384	1509383522	54.8018	-113.6084	2134.6	1547.6	99.5	9.7	-1.4	-1.02	4.54	1.9259	401.3838
2385	1509383523	54.8017	-113.6069	2134.8	1549.8	99.4	9.8	-1.3	-1.02	4.54	1.9265	401.1590
2386	1509383524	54.8016	-113.6054	2134.9	1550.2	99.5	9.8	-1.2	-1.02	4.54	1.9261	401.9804
2387	1509383525	54.8014	-113.6038	2134.7	1550.8	99.5	9.8	-1.1	-1.03	4.54	1.9261	401.9804
2388	1509383526	54.8013	-113.6023	2134.3	1548.3	99.5	9.9	-1.1	-1.03	4.54	1.9272	401.4796
2389	1509383527	54.8011	-113.6007	2133.9	1546.9	99.6	9.9	-1.1	-1.03	4.54	1.9257	401.5298
2390	1509383528	54.8010	-113.5992	2133.4	1545.4	99.6	10.0	-1.0	-1.03	4.54	1.9250	400.6422
2391	1509383529	54.8008	-113.5976	2133.0	1544.0	99.6	10.0	-1.1	-1.03	4.53	1.9260	402.0322
2392	1509383530	54.8007	-113.5961	2132.7	1543.7	99.5	10.0	-1.1	-1.03	4.53	1.9247	400.7254
2393	1509383531	54.8005	-113.5946	2132.5	1543.5	99.5	10.0	-1.1	-1.03	4.53	1.9248	401.0437
2394	1509383532	54.8004	-113.5931	2132.2	1542.2	99.5	10.0	-1.1	-1.03	4.53	1.9249	401.0144
2395	1509383533	54.8003	-113.5915	2132.0	1540.0	99.5	9.9	-1.0	-1.03	4.53	1.9245	401.2549
2396	1509383534	54.8001	-113.5900	2131.8	1538.8	99.4	9.9	-1.3	-1.04	4.53	1.9250	400.7770
2397	1509383535	54.8000	-113.5884	2131.6	1539.3	99.3	9.9	-1.4	-1.04	4.53	1.9246	400.5334
2398	1509383536	54.7998	-113.5869	2131.5	1538.5	99.2	9.8	-1.5	-1.04	4.52	1.9253	401.1509
2399	1509383537	54.7997	-113.5854	2131.4	1538.4	99.2	9.7	-1.5	-1.04	4.52	1.9258	401.0825
2400	1509383538	54.7995	-113.5838	2131.4	1538.4	99.3	9.8	-1.5	-1.04	4.52	1.9240	400.0977
2401	1509383539	54.7994	-113.5823	2131.6	1538.6	99.3	9.6	-1.4	-1.04	4.52	1.9244	400.1385
2402	1509383540	54.7993	-113.5808	2131.9	1539.6	99.2	9.6	-1.6	-1.04	4.52	1.9248	401.4506
2403	1509383541	54.7991	-113.5793	2132.2	1540.3	99.2	9.7	-1.6	-1.04	4.52	1.9243	400.6603
2404	1509383542	54.7990	-113.5777	2132.5	1543.7	99.2	9.7	-1.7	-1.05	4.52	1.9232	400.5190
2405	1509383543	54.7988	-113.5762	2132.8	1545.8	99.3	9.4	-1.6	-1.05	4.51	1.9250	400.6401
2406	1509383544	54.7987	-113.5747	2133.0	1545.0	99.2	9.4	-1.8	-1.05	4.51	1.9254	400.6407
2407	1509383545	54.7985	-113.5732	2133.2	1544.5	99.0	9.7	-1.9	-1.05	4.51	1.9250	400.6086
2408	1509383546	54.7984	-113.5717	2133.2	1543.4	98.9	9.7	-1.8	-1.05	4.51	1.9238	399.8442
2409	1509383547	54.7983	-113.5701	2132.9	1540.6	99.1	9.7	-1.6	-1.05	4.51	1.9235	399.9470
2410	1509383548	54.7981	-113.5686	2132.1	1538.2	99.1	9.7	-1.6	-1.05	4.51	1.9235	400.5027
2411	1509383549	54.7980	-113.5671	2130.9	1536.9	98.8	9.8	-1.9	-1.05	4.51	1.9257	400.3651
2412	1509383550	54.7979	-113.5657	2129.3	1533.6	98.6	9.9	-2.2	-1.05	4.50	1.9241	400.4953
2413	1509383551	54.7977	-113.5644	2127.6	1530.7	98.9	9.7	-1.8	-1.06	4.50	1.9261	400.7021
2414	1509383552	54.7976	-113.5630	2125.9	1527.8	99.3	10.0	-1.4	-1.06	4.50	1.9254	400.3876
2415	1509383553	54.7975	-113.5615	2124.2	1527.2	99.2	10.0	-1.4	-1.06	4.50	1.9274	400.9520
2416	1509383554	54.7973	-113.5602	2123.0	1523.6	99.1	9.7	-1.4	-1.06	4.50	1.9251	400.9520
2417	1509383555	54.7972	-113.5587	2121.6	1519.6	99.2	9.8	-1.4	-1.06	4.50	1.9264	401.6612
2418	1509383556	54.7971	-113.5573	2120.3	1515.4	99.3	10.0	-1.3	-1.06	4.50	1.9245	400.7679
2419	1509383557	54.7969	-113.5559	2119.0	1511.8	99.5	9.7	-1.1	-1.06	4.49	1.9261	400.9016
2420	1509383558	54.7968	-113.5545	2117.7	1509.0	99.4	9.7	-1.1	-1.06	4.49	1.9262	401.5454
2421	1509383559	54.7967	-113.5531	2116.6	1506.2	99.3	9.9	-1.1	-1.06	4.49	1.9255	400.7990
2422	1509383560	54.7966	-113.5517	2115.5	1504.2	99.3	9.6	-0.8	-1.07	4.49	1.9250	400.9789
2423	1509383561	54.7964	-113.5504	2114.8	1503.4	99.4	9.6	-0.7	-1.07	4.49	1.9259	399.1396
2424	1509383562	54.7963	-113.5489	2114.1	1504.1	99.3	9.6	-0.7	-1.07	4.49	1.9260	399.3278
2425	1509383563	54.7962	-113.5474	2113.6	1502.6	99.1	9.6	-0.8	-1.07	4.49	1.9264	400.6547
2426	1509383564	54.7961	-113.5461	2113.2	1501.5	98.9	9.7	-0.9	-1.07	4.48	1.9252	402.0374
2427	1509383565	54.7959	-113.5447	2112.8	1499.8	98.9	9.3	-0.6	-1.07	4.48	1.9259	401.7818
2428	1509383566	54.7958	-113.5432	2112.4	1499.3	99.1	9.2	-0.3	-1.07	4.48	1.9261	401.2746
2429	1509383567	54.7957	-113.5418	2112.0	1497.6	98.9	9.2	-0.4	-1.07	4.48	1.9263	401.2746
2430	1509383568	54.7956	-113.5405	2111.7	1495.6	98.7	9.2	-0.5	-1.08	4.48	1.9266	401.2746
2431	1509383569	54.7955	-113.5390	2111.5	1496.5	98.6	9.2	-0.5	-1.08	4.48	1.9268	401.2746
2432	1509383570	54.7954	-113.5376	2111.5	1497.8	98.6	9.2	-0.4	-1.08	4.48	1.9255	400.8443
2433	1509383571	54.7952	-113.5361	2111.6	1500.6	98.6	9.1	-0.4	-1.08	4.48	1.9254	401.2890
2434	1509383572	54.7951	-113.5347	2111.6	1504.6	98.6	9.0	-0.4	-1.08	4.47	1.9258	401.2040
2435	1509383573	54.7950	-113.5334	2111.8	1508.0	98.5	9.3	-0.5	-1.08	4.47	1.9269	400.7715
2436	1509383574	54.7949	-113.5320	2112.0	1510.0	98.5	9.4	-0.6	-1.08	4.47	1.9260	400.7086
2437	1509383575	54.7949	-113.5318	2112.0	1510.0	98.5	9.4	-0.5	-1.08	4.47	1.9245	402.0363
2438	1509383576	54.7949	-113.5316	2112.1	1510.1	98.5	9.4	-0.5	-1.08	4.47	1.9247	401.0870
2439	1509383577	54.7949	-113.5314	2112.1	1510.1	98.6	9.4	-0.5	-1.09	4.47	1.9247	400.7828
2440	1509383578	54.7948	-113.5306	2112.2	1511.2	98.6	9.3	-0.5	-1.09	4.47	1.9258	401.0755
2441	1509383579	54.7947	-113.5291	2112.5	1511.5	98.8	9.3	-0.3	-1.09	4.46	1.9248	399.0772
2442	1509383580	54.7945	-113.5275	2112.8	1511.8	98.8	9.1	-0.3	-1.09	4.46	1.9253	401.4362
2443	1509383581	54.7944	-113.5260	2112.9	1512.2	98.7	9.1	-0.4	-1.09	4.46	1.9247	401.0057
2444	1509383582	54.7943	-113.5244	2112.7	1512.8	98.7	9.0	-0.6	-1.09	4.46	1.9250	400.4358
2445	1509383583	54.7941	-113.5229	2112.3	1511.2	98.9	9.0	-0.4	-1.09	4.46	1.9251	400.4358
2446	1509383584	54.7940	-113.5214	2111.9	1509.9	98.9	9.1	-0.4	-1.09	4.46	1.9259	400.4610
2447	1509383585	54.7939	-113.5198	2111.4	1509.4	98.9	9.0	-0.5	-1.09	4.46	1.9262	400.8284
2448	1509383586	54.7938	-113.5183	2111.0	1507.0	99.0	9.2	-0.6	-1.10	4.45	1.9247	401.1818
2449	1509383587	54.7936	-113.5167	2110.6	1505.3	99.1	9.4	-0.7	-1.10	4.45	1.9261	401.1818
2450	1509383588	54.7935	-113.5152	2110.3	1503.0	99.3	9.5	-0.6	-1.10	4.45	1.9258	399.2211
2451	1509383589	54.7934	-113.5136	2110.0	1502.7	99.4	9.5	-0.6	-1.10	4.45	1.9246	400.8516
2452	1509383590	54.7932	-113.5120	2109.7	1500.7	99.3	9.4	-0.6	-1.10	4.45	1.9245	400.5159
2453	1509383591	54.7931	-113.5106	2109.4	1499.6	99.4	9.4	-0.7	-1.10	4.45	1.9248	400.8137
2454	1509383592	54.7929	-113.5090	2109.2	1500.9	99.6	9.4	-0.6	-1.10	4.45	1.9256	400.5735
2455	1509383593	54.7928	-113.5075	2109.0	1501.9	99.8	9.4	-0.5	-1.10	4.44	1.9255	400.4442
2456	1509383594	54.7927	-113.5059	2108.9	1503.7	100.0	9.3	-0.5	-1.10	4.44	1.9242	400.9249
2457	1509383595	54.7925	-113.5044	2108.9	1505.7	100.0	9.2	-0.5	-1.11	4.44	1.9253	401.6551
2458	1509383596	54.7924	-113.5029	2108.7	1506.6	100.0	9.2	-0.5	-1.11	4.44	1.9259	400.3541
2459	1509383597	54.7922	-113.5013	2108.6	1506.6	100.1	9.1	-0.5	-1.11	4.44	1.9258	401.3264
2460	1509383598	54.7921	-113.4998	2108.5	1506.6	100.1	9.2	-0.4	-1.11	4.44	1.9244	401.1275
2461	1509383599	54.7919	-113.4983	2108.3	1507.3	100.1	9.2	-0.6	-1.11	4.44	1.9256	400.9246
2462	1509383600	54.7918	-113.4967	2108.2	1507.2	100.0	9.4	-0.8	-1.11	4.43	1.9247	399.9629
2463	1509383601	54.7916	-113.4952	2108.1	1507.0	100.0	9.4	-0.8	-1.11	4.43	1.9246	400.3856
2464	1509383602	54.7915	-113.4937	2108.0	1506.0	100.0	9.3	-0.9	-1.11	4.43	1.9247	398.3455
2465	1509383603	54.7913	-113.4922	2108.0	1504.0	100.0	9.2	-1.0	-1.12	4.43	1.9249	400.3281
2466	1509383604	54.7912	-113.4906	2107.8	1501.8	100.1	9.2	-1.1	-1.12	4.43	1.9263	399.9419
2467	1509383605	54.7910	-113.4891	2107.6	1499.1	100.0	9.1	-1.0	-1.12	4.43	1.9259	400.5349
2468	1509383606	54.7909	-113.4876	2107.2	1495.4	100.0	9.0	-1.1	-1.12	4.43	1.9253	400.6927
2469	1509383607	54.7907	-113.4860	2107.0	1491.0	100.1	9.0	-1.1	-1.12	4.42	1.9246	401.9488
2470	1509383608	54.7906	-113.4845	2106.9	1487.9	100.2	9.4	-1.2	-1.12	4.42	1.9259	401.9488
2471	1509383609	54.7904	-113.4830	2107.0	1489.0	100.2	9.3	-1.3	-1.12	4.42	1.9244	400.8931
2472	1509383610	54.7903	-113.4817	2107.2	1492.6	100.2	9.2	-1.2	-1.12	4.42	1.9240	400.6416
2473	1509383611	54.7901	-113.4803	2107.5	1498.6	100.2	9.2	-1.2	-1.12	4.42	1.9243	400.6416
2474	1509383612	54.7900	-113.4790	2107.9	1504.6	100.1	9.6	-1.4	-1.13	4.42	1.9250	400.7471
2475	1509383613	54.7899	-113.4775	2108.4	1513.2	100.0	9.4	-1.4	-1.13	4.42	1.9256	400.5590
2476	1509383614	54.7897	-113.4762	2108.9	1526.3	99.9	9.4	-1.4	-1.13	4.41	1.9257	399.7162
2477	1509383615	54.7896	-113.4749	2109.4	1536.1	99.9	9.7	-1.5	-1.13	4.41	1.9259	401.2066
2478	1509383616	54.7895	-113.4734	2110.0	1543.4	99.7	9.6	-1.7	-1.13	4.41	1.9254	400.8320
2479	1509383617	54.7893	-113.4721	2110.6	1551.3	99.7	9.5	-1.6	-1.13	4.41	1.9247	401.5384
2480	1509383618	54.7892	-113.4707	2111.0	1560.1	99.6	9.5	-1.7	-1.13	4.41	1.9256	401.5635
2481	1509383619	54.7891	-113.4694	2111.3	1568.2	99.6	9.4	-1.6	-1.13	4.41	1.9247	400.5276
2482	1509383620	54.7889	-113.4680	2111.4	1576.8	99.4	9.4	-1.7	-1.13	4.41	1.9248	400.2247
2483	1509383621	54.7888	-113.4666	2111.4	1587.8	99.4	9.4	-1.7	-1.14	4.41	1.9268	399.8653
2484	1509383622	54.7887	-113.4652	2111.2	1595.2	99.2	9.4	-1.7	-1.14	4.40	1.9251	400.4994
2485	1509383623	54.7885	-113.4639	2110.9	1596.9	99.1	9.4	-1.6	-1.14	4.40	1.9244	400.0903
2486	1509383624	54.7884	-113.4625	2110.4	1596.4	99.1	9.4	-1.6	-1.14	4.40	1.9244	401.0050
2487	1509383625	54.7883	-113.4611	2110.0	1592.5	98.9	9.4	-1.7	-1.14	4.40	1.9240	401.1434
2488	1509383626	54.7881	-113.4598	2109.6	1585.6	98.8	9.4	-1.7	-1.14	4.40	1.9242	401.1434
2489	1509383627	54.7880	-113.4584	2109.3	1577.9	98.6	9.5	-1.8	-1.14	4.40	1.9245	401.1434
2490	1509383628	54.7879	-113.4571	2109.0	1566.0	98.7	9.5	-1.6	-1.14	4.40	1.9247	401.1434
2491	1509383629	54.7878	-113.4557	2108.7	1554.4	98.7	9.6	-1.6	-1.14	4.39	1.9250	401.1434
2492	1509383630	54.7877	-113.4543	2108.5	1548.2	98.7	9.6	-1.4	-1.15	4.39	1.9252	401.1434
2493	1509383631	54.7875	-113.4529	2108.4	1540.4	98.6	9.6	-1.5	-1.15	4.39	1.9255	401.1434
2494	1509383632	54.7874	-113.4515	2108.3	1527.3	98.4	9.6	-1.6	-1.15	4.39	1.9257	401.1434
2495	1509383633	54.7873	-113.4504	2108.4	1513.3	98.3	9.5	-1.7	-1.15	4.39	1.9261	400.9785
2496	1509383634	54.7872	-113.4489	2108.6	1510.6	98.4	9.6	-1.4	-1.15	4.39	1.9244	400.8873
2497	1509383635	54.7872	-113.4487	2108.7	1510.7	98.4	9.6	-1.4	-1.15	4.39	1.9247	399.8843
2498	1509383636	54.7872	-113.4485	2108.7	1510.7	98.4	9.6	-1.4	-1.15	4.38	1.9264	400.8557
2499	1509383637	54.7871	-113.4483	2108.8	1510.8	98.4	9.6	-1.4	-1.15	4.38	1.9260	401.6695
2500	1509383638	54.7871	-113.4476	2109.0	1511.0	98.3	9.5	-1.5	-1.16	4.38	1.9253	401.6695
2501	1509383639	54.7870	-113.4461	2109.5	1510.5	98.2	9.4	-1.5	-1.16	4.38	1.9251	400.1250
2502	1509383640	54.7868	-113.4446	2110.1	1511.1	98.2	9.4	-1.5	-1.16	4.38	1.9264	400.1250
2503	1509383641	54.7867	-113.4432	2110.7	1510.7	98.3	9.4	-1.3	-1.16	4.38	1.9261	400.9933
2504	1509383642	54.7866	-113.4417	2111.4	1511.4	98.5	9.3	-1.2	-1.16	4.38	1.9272	402.5504
2505	1509383643	54.7865	-113.4402	2111.9	1510.9	98.5	9.2	-1.3	-1.16	4.37	1.9254	400.5640
2506	1509383644	54.7863	-113.4387	2112.2	1511.2	98.6	9.2	-1.2	-1.16	4.37	1.9248	400.1665
2507	1509383645	54.7862	-113.4372	2112.3	1510.3	98.7	9.2	-1.2	-1.16	4.37	1.9253	400.1665
2508	1509383646	54.7861	-113.4357	2112.1	1510.1	98.9	9.2	-1.1	-1.16	4.37	1.9258	401.4433
2509	1509383647	54.7859	-113.4342	2111.9	1509.9	98.9	9.2	-1.2	-1.17	4.37	1.9269	402.1318
2510	1509383648	54.7858	-113.4327	2111.8	1508.8	98.8	9.2	-1.4	-1.17	4.37	1.9254	401.0558
2511	1509383649	54.7857	-113.4311	2111.6	1508.6	98.9	9.3	-1.2	-1.17	4.37	1.9250	400.6536
2512	1509383650	54.7855	-113.4296	2111.5	1508.5	99.1	9.3	-1.1	-1.17	4.36	1.9241	400.1293
2513	1509383651	54.7854	-113.4281	2111.5	1508.5	99.2	9.4	-1.0	-1.17	4.36	1.9249	400.0279
2514	1509383652	54.7853	-113.4266	2111.5	1510.5	99.1	9.4	-1.2	-1.17	4.36	1.9249	400.7235
2515	1509383653	54.7851	-113.4251	2111.5	1511.5	99.1	9.4	-1.2	-1.17	4.36	1.9253	401.3837
2516	1509383654	54.7850	-113.4236	2111.6	1512.6	99.1	9.4	-1.3	-1.17	4.36	1.9251	400.7478
2517	1509383655	54.7848	-113.4221	2111.8	1512.8	99.3	9.4	-1.1	-1.17	4.36	1.9275	400.7478
2518	1509383656	54.7847	-113.4206	2112.1	1513.1	99.3	9.4	-1.2	-1.18	4.36	1.9246	401.0050
2519	1509383657	54.7846	-113.4191	2112.4	1514.4	99.3	9.4	-1.2	-1.18	4.35	1.9251	400.5640
2520	1509383658	54.7844	-113.4175	2112.6	1515.7	99.4	9.4	-1.3	-1.18	4.35	1.9248	401.0108
2521	1509383659	54.7843	-113.4160	2112.9	1515.9	99.5	9.4	-1.2	-1.18	4.35	1.9252	400.6517
2522	1509383660	54.7841	-113.4145	2113.1	1516.1	99.6	9.4	-1.2	-1.18	4.35	1.9251	400.9471
2523	1509383661	54.7840	-113.4130	2113.3	1516.3	99.7	9.4	-1.2	-1.18	4.35	1.9251	401.5947
2524	1509383662	54.7838	-113.4115	2113.5	1516.5	99.8	9.4	-1.3	-1.18	4.35	1.9259	400.4831
2525	1509383663	54.7837	-113.4100	2113.5	1516.5	100.0	9.5	-1.3	-1.18	4.35	1.9259	400.8763
2526	1509383664	54.7835	-113.4085	2113.5	1516.5	100.1	9.5	-1.2	-1.18	4.35	1.9245	400.5430
2527	1509383665	54.7834	-113.4070	2113.4	1516.4	100.1	9.5	-1.2	-1.19	4.34	1.9249	400.7043
2528	1509383666	54.7832	-113.4055	2113.0	1516.0	99.9	9.5	-1.4	-1.19	4.34	1.9253	400.3314
2529	1509383667	54.7831	-113.4039	2112.6	1515.6	99.9	9.5	-1.4	-1.19	4.34	1.9249	400.8852
2530	1509383668	54.7829	-113.4025	2112.1	1515.1	99.9	9.1	-1.3	-1.19	4.34	1.9250	400.6498
2531	1509383669	54.7828	-113.4009	2111.6	1514.6	100.1	9.2	-1.2	-1.19	4.34	1.9240	400.2709
2532	1509383670	54.7827	-113.3995	2111.0	1514.0	100.1	9.3	-1.3	-1.19	4.34	1.9259	399.4976
2533	1509383671	54.7825	-113.3982	2110.6	1513.6	100.1	9.4	-1.3	-1.19	4.34	1.9265	400.8920
2534	1509383672	54.7824	-113.3968	2110.2	1513.2	100.1	9.4	-1.3	-1.19	4.33	1.9245	400.9765
2535	1509383673	54.7822	-113.3955	2109.9	1512.9	100.2	9.4	-1.3	-1.20	4.33	1.9252	401.8180
2536	1509383674	54.7821	-113.3941	2109.6	1512.6	100.3	9.4	-1.4	-1.20	4.33	1.9253	400.9143
2537	1509383675	54.7820	-113.3927	2109.5	1511.5	100.4	9.5	-1.4	-1.20	4.33	1.9260	401.3106
2538	1509383676	54.7818	-113.3914	2109.5	1511.5	100.4	9.5	-1.3	-1.20	4.33	1.9265	400.8719
2539	1509383677	54.7817	-113.3900	2109.6	1511.6	100.5	9.4	-1.3	-1.20	4.33	1.9271	400.8328
2540	1509383678	54.7815	-113.3886	2109.8	1512.0	100.5	9.4	-1.3	-1.20	4.33	1.9255	399.9058
2541	1509383679	54.7814	-113.3872	2110.0	1513.0	100.4	9.5	-1.3	-1.20	4.32	1.9262	401.3972
2542	1509383680	54.7813	-113.3859	2110.2	1513.2	100.4	9.9	-1.5	-1.20	4.32	1.9254	399.8725
2543	1509383681	54.7811	-113.3845	2110.4	1513.7	100.4	9.8	-1.4	-1.20	4.32	1.9249	399.8725
2544	1509383682	54.7810	-113.3831	2110.7	1514.7	100.4	9.4	-1.3	-1.21	4.32	1.9252	401.3769
2545	1509383683	54.7808	-113.3818	2111.0	1515.0	100.3	9.8	-1.5	-1.21	4.32	1.9268	400.7662
2546	1509383684	54.7807	-113.3804	2111.3	1515.3	100.3	9.7	-1.4	-1.21	4.32	1.9253	399.7049
2547	1509383685	54.7806	-113.3792	2111.6	1516.6	100.2	9.7	-1.4	-1.21	4.32	1.9259	399.7049
2548	1509383686	54.7804	-113.3777	2112.0	1518.0	100.2	9.7	-1.4	-1.21	4.31	1.9258	400.7778
2549	1509383687	54.7803	-113.3763	2112.3	1519.3	100.1	9.7	-1.4	-1.21	4.31	1.9254	400.7778
2550	1509383688	54.7801	-113.3750	2112.6	1520.6	99.9	9.6	-1.4	-1.21	4.31	1.9250	400.7778
2551	1509383689	54.7800	-113.3736	2112.8	1520.8	99.7	9.6	-1.6	-1.21	4.31	1.9247	400.9759
2552	1509383690	54.7799	-113.3722	2112.8	1521.8	99.7	9.6	-1.4	-1.21	4.31	1.9258	400.7378
2553	1509383691	54.7797	-113.3708	2112.9	1521.9	99.7	9.6	-1.4	-1.22	4.31	1.9258	400.7561
2554	1509383692	54.7796	-113.3694	2112.8	1521.8	99.7	9.6	-1.5	-1.22	4.31	1.9260	400.0146
2555	1509383693	54.7795	-113.3681	2112.7	1521.7	99.5	9.6	-1.5	-1.22	4.30	1.9258	400.8478
2556	1509383694	54.7793	-113.3668	2112.6	1521.6	99.4	9.6	-1.5	-1.22	4.30	1.9259	399.5944
2557	1509383695	54.7793	-113.3666	2112.6	1521.6	99.4	9.6	-1.5	-1.22	4.30	1.9252	400.2062
2558	1509383696	54.7793	-113.3664	2112.5	1521.5	99.4	9.7	-1.5	-1.22	4.30	1.9262	400.6376
2559	1509383697	54.7793	-113.3662	2112.5	1521.5	99.5	9.7	-1.4	-1.22	4.30	1.9254	400.6505
2560	1509383698	54.7792	-113.3654	2112.4	1522.4	99.4	9.7	-1.5	-1.22	4.30	1.9263	401.1634
2561	1509383699	54.7791	-113.3638	2112.2	1521.2	99.4	9.7	-1.5	-1.23	4.30	1.9257	400.5394
2562	1509383700	54.7789	-113.3623	2112.0	1521.0	99.4	9.7	-1.5	-1.23	4.29	1.9256	400.2684
2563	1509383701	54.7788	-113.3608	2111.8	1520.8	99.3	9.8	-1.6	-1.23	4.29	1.9249	401.7829
2564	1509383702	54.7786	-113.3593	2111.6	1520.6	99.3	9.9	-1.6	-1.23	4.29	1.9261	401.0581
2565	1509383703	54.7785	-113.3577	2111.5	1521.5	99.5	9.8	-1.5	-1.23	4.29	1.9254	399.9407
2566	1509383704	54.7783	-113.3562	2111.5	1522.5	99.5	10.0	-1.5	-1.23	4.29	1.9253	400.6725
2567	1509383705	54.7782	-113.3547	2111.5	1523.5	99.5	10.0	-1.4	-1.23	4.29	1.9253	401.4355
2568	1509383706	54.7780	-113.3532	2111.6	1524.3	99.4	10.0	-1.5	-1.23	4.29	1.9253	400.3356
2569	1509383707	54.7779	-113.3517	2111.6	1524.6	99.5	10.0	-1.3	-1.23	4.28	1.9252	401.1925
2570	1509383708	54.7778	-113.3501	2111.6	1525.6	99.5	10.0	-1.4	-1.24	4.28	1.9260	401.1667
2571	1509383709	54.7776	-113.3486	2111.6	1526.6	99.6	10.0	-1.3	-1.24	4.28	1.9260	400.9632
2572	1509383710	54.7775	-113.3471	2111.6	1526.6	99.5	10.0	-1.3	-1.24	4.28	1.9249	400.4838
2573	1509383711	54.7773	-113.3455	2111.6	1527.6	99.5	10.1	-1.2	-1.24	4.28	1.9248	400.6536
2574	1509383712	54.7772	-113.3440	2111.6	1528.6	99.4	10.1	-1.4	-1.24	4.28	1.9248	400.4010
2575	1509383713	54.7770	-113.3425	2111.6	1526.6	99.4	10.1	-1.4	-1.24	4.28	1.9264	401.2543
2576	1509383714	54.7769	-113.3409	2111.6	1526.6	99.4	10.1	-1.4	-1.24	4.28	1.9262	400.7637
2577	1509383715	54.7767	-113.3394	2111.5	1525.5	99.5	10.1	-1.3	-1.24	4.27	1.9247	402.0070
2578	1509383716	54.7766	-113.3378	2111.5	1525.5	99.5	10.1	-1.4	-1.24	4.27	1.9262	401.1005
2579	1509383717	54.7765	-113.3363	2111.4	1525.4	99.6	10.2	-1.4	-1.25	4.27	1.9263	401.4796
2580	1509383718	54.7763	-113.3348	2111.4	1525.4	99.6	10.2	-1.4	-1.25	4.27	1.9261	400.5857
2581	1509383719	54.7762	-113.3333	2111.5	1525.5	99.6	10.2	-1.4	-1.25	4.27	1.9270	399.9671
2582	1509383720	54.7760	-113.3318	2111.7	1525.8	99.6	10.2	-1.3	-1.25	4.27	1.9249	399.8115
2583	1509383721	54.7759	-113.3303	2111.9	1527.2	99.5	10.2	-1.3	-1.25	4.27	1.9256	400.0989
2584	1509383722	54.7757	-113.3288	2112.2	1528.2	99.4	10.2	-1.5	-1.25	4.26	1.9262	400.9115
2585	1509383723	54.7756	-113.3272	2112.6	1529.6	99.4	10.2	-1.4	-1.25	4.26	1.9260	400.6281
2586	1509383724	54.7754	-113.3257	2112.8	1529.8	99.3	10.2	-1.4	-1.25	4.26	1.9245	401.2804
2587	1509383725	54.7753	-113.3241	2113.0	1530.0	99.3	10.2	-1.4	-1.25	4.26	1.9259	400.6464
2588	1509383726	54.7752	-113.3227	2113.2	1531.2	99.3	10.2	-1.3	-1.26	4.26	1.9264	400.4564
2589	1509383727	54.7750	-113.3213	2113.4	1531.4	99.2	10.2	-1.3	-1.26	4.26	1.9269	399.8389
2590	1509383728	54.7749	-113.3199	2113.6	1532.6	99.2	10.3	-1.2	-1.26	4.26	1.9262	402.1003
2591	1509383729	54.7748	-113.3185	2113.8	1532.8	99.1	10.3	-1.2	-1.26	4.25	1.9252	400.6387
2592	1509383730	54.7747	-113.3171	2113.9	1533.9	99.1	10.3	-1.1	-1.26	4.25	1.9252	400.3822
2593	1509383731	54.7745	-113.3157	2113.8	1533.8	99.2	10.4	-1.0	-1.26	4.25	1.9261	399.8372
2594	1509383732	54.7744	-113.3144	2113.7	1533.7	99.2	10.4	-1.1	-1.26	4.25	1.9263	401.0343
2595	1509383733	54.7743	-113.3130	2113.4	1533.4	99.2	10.5	-1.0	-1.26	4.25	1.9255	401.3318
2596	1509383734	54.7742	-113.3116	2113.1	1533.1	99.2	10.6	-1.0	-1.27	4.25	1.9281	400.5534
2597	1509383735	54.7740	-113.3102	2112.7	1532.7	99.2	10.6	-1.0	-1.27	4.25	1.9264	400.4866
2598	1509383736	54.7739	-113.3089	2112.3	1532.3	99.2	10.7	-1.0	-1.27	4.24	1.9254	401.9354
2599	1509383737	54.7738	-113.3074	2112.0	1532.0	99.1	10.7	-1.1	-1.27	4.24	1.9257	400.8595
2600	1509383738	54.7737	-113.3061	2111.6	1531.6	99.2	10.3	-0.9	-1.27	4.24	1.9252	400.4822
2601	1509383739	54.7736	-113.3047	2111.4	1531.4	99.3	10.4	-0.8	-1.27	4.24	1.9274	400.4822
2602	1509383740	54.7734	-113.3033	2111.3	1531.3	99.2	10.5	-0.9	-1.27	4.24	1.9254	400.2504
2603	1509383741	54.7733	-113.3019	2111.4	1531.4	99.2	10.5	-1.0	-1.27	4.24	1.9251	401.6294
2604	1509383742	54.7732	-113.3005	2111.6	1531.6	99.1	10.5	-1.0	-1.27	4.24	1.9252	401.6294
2605	1509383743	54.7731	-113.2991	2112.0	1533.0	99.1	10.5	-1.0	-1.28	4.23	1.9254	399.8065
2606	1509383744	54.7729	-113.2977	2112.4	1533.4	99.3	10.5	-1.0	-1.28	4.23	1.9262	400.2933
2607	1509383745	54.7728	-113.2963	2112.7	1534.7	99.3	10.5	-0.9	-1.28	4.23	1.9257	400.2933
2608	1509383746	54.7727	-113.2949	2112.9	1534.9	99.4	10.6	-0.9	-1.28	4.23	1.9242	401.6001
2609	1509383747	54.7726	-113.2935	2113.1	1536.0	99.4	10.5	-0.9	-1.28	4.23	1.9243	401.6001
2610	1509383748	54.7724	-113.2922	2113.2	1535.2	99.7	10.1	-0.4	-1.28	4.23	1.9244	401.6001
2611	1509383749	54.7723	-113.2908	2113.3	1535.3	99.7	10.6	-0.6	-1.28	4.23	1.9245	401.6001
2612	1509383750	54.7722	-113.2894	2113.5	1534.5	99.7	10.7	-0.6	-1.28	4.22	1.9258	400.7590
2613	1509383751	54.7721	-113.2880	2113.6	1534.6	99.6	10.7	-0.6	-1.28	4.22	1.9251	400.6484
2614	1509383752	54.7719	-113.2866	2113.7	1535.8	99.5	10.1	-0.6	-1.29	4.22	1.9251	400.4603
2615	1509383753	54.7718	-113.2853	2113.7	1534.7	99.6	10.2	-0.5	-1.29	4.22	1.9242	401.7829
2616	1509383754	54.7717	-113.2839	2113.7	1534.7	99.7	10.2	-0.5	-1.29	4.22	1.9260	400.5564
2617	1509383755	54.7717	-113.2837	2113.7	1534.7	99.7	10.2	-0.5	-1.29	4.22	1.9246	400.5716
2618	1509383756	54.7717	-113.2835	2113.7	1534.7	99.7	10.2	-0.5	-1.29	4.22	1.9250	401.4503
2619	1509383757	54.7716	-113.2833	2113.7	1534.7	99.7	10.2	-0.5	-1.29	4.22	1.9246	401.7594
2620	1509383758	54.7716	-113.2826	2113.7	1534.7	99.7	10.2	-0.6	-1.29	4.21	1.9245	401.2530
2621	1509383759	54.7714	-113.2811	2113.7	1534.7	99.7	10.7	-0.8	-1.29	4.21	1.9257	400.6923
2622	1509383760	54.7713	-113.2796	2113.4	1534.4	99.8	10.8	-0.7	-1.29	4.21	1.9244	400.7175
2623	1509383761	54.7712	-113.2780	2113.0	1533.0	99.9	10.4	-0.5	-1.30	4.21	1.9244	399.3074
2624	1509383762	54.7710	-113.2765	2112.6	1530.0	100.0	10.4	-0.5	-1.30	4.21	1.9257	400.9372
2625	1509383763	54.7709	-113.2749	2112.2	1524.3	99.9	10.4	-0.7	-1.30	4.21	1.9257	399.2983
2626	1509383764	54.7707	-113.2734	2111.9	1523.1	99.9	10.4	-0.7	-1.30	4.21	1.9245	400.5687
2627	1509383765	54.7706	-113.2718	2111.6	1530.9	99.7	10.3	-1.0	-1.30	4.20	1.9259	401.8332
2628	1509383766	54.7704	-113.2703	2111.4	1537.4	99.7	10.3	-1.0	-1.30	4.20	1.9257	401.0415
2629	1509383767	54.7703	-113.2687	2111.0	1542.0	99.9	10.4	-1.0	-1.30	4.20	1.9257	400.9253
2630	1509383768	54.7701	-113.2672	2110.8	1543.8	99.9	10.3	-1.1	-1.30	4.20	1.9257	400.3123
2631	1509383769	54.7700	-113.2657	2110.7	1543.7	99.9	10.3	-1.1	-1.31	4.20	1.9261	400.9159
2632	1509383770	54.7698	-113.2642	2110.6	1543.6	99.8	10.2	-1.3	-1.31	4.20	1.9252	400.8944
2633	1509383771	54.7697	-113.2626	2110.5	1544.5	99.9	10.1	-1.3	-1.31	4.20	1.9244	400.4440
2634	1509383772	54.7695	-113.2610	2110.5	1547.6	100.0	10.1	-1.3	-1.31	4.19	1.9260	399.5793
2635	1509383773	54.7694	-113.2595	2110.6	1552.3	100.0	10.0	-1.4	-1.31	4.19	1.9256	401.1643
2636	1509383774	54.7692	-113.2579	2110.9	1560.5	100.0	10.0	-1.5	-1.31	4.19	1.9259	399.8427
2637	1509383775	54.7691	-113.2564	2111.2	1564.0	100.0	10.3	-1.6	-1.31	4.19	1.9254	400.4918
2638	1509383776	54.7689	-113.2549	2111.6	1568.7	100.0	10.4	-1.6	-1.31	4.19	1.9260	400.7592
2639	1509383777	54.7688	-113.2533	2112.3	1576.1	100.0	10.3	-1.6	-1.31	4.19	1.9249	400.9519
2640	1509383778	54.7686	-113.2518	2112.9	1580.1	100.0	10.2	-1.6	-1.32	4.19	1.9265	401.7001
2641	1509383779	54.7685	-113.2503	2113.5	1584.5	99.9	10.1	-1.8	-1.32	4.18	1.9258	401.9667
2642	1509383780	54.7683	-113.2488	2114.0	1590.6	99.9	10.1	-1.8	-1.32	4.18	1.9259	401.1366
2643	1509383781	54.7681	-113.2473	2114.2	1597.0	99.9	10.1	-1.7	-1.32	4.18	1.9263	401.3898
2644	1509383782	54.7680	-113.2457	2114.2	1606.5	99.9	10.1	-1.6	-1.32	4.18	1.9262	401.0312
2645	1509383783	54.7678	-113.2442	2114.0	1608.9	99.8	10.1	-1.7	-1.32	4.18	1.9250	400.6838
2646	1509383784	54.7677	-113.2427	2113.6	1607.6	99.6	10.2	-1.7	-1.32	4.18	1.9252	400.6432
2647	1509383785	54.7675	-113.2412	2113.2	1605.1	99.4	10.2	-1.8	-1.32	4.18	1.9250	400.6671
2648	1509383786	54.7674	-113.2396	2112.6	1597.2	99.4	10.2	-1.7	-1.32	4.17	1.9266	399.8268
2649	1509383787	54.7672	-113.2380	2112.2	1581.8	99.6	10.0	-1.4	-1.33	4.17	1.9261	399.9813
2650	1509383788	54.7671	-113.2366	2112.0	1569.7	99.4	9.9	-1.5	-1.33	4.17	1.9260	402.2937
2651	1509383789	54.7670	-113.2351	2111.9	1556.2	99.3	9.8	-1.5	-1.33	4.17	1.9248	401.5814
2652	1509383790	54.7668	-113.2337	2111.9	1543.9	99.2	9.8	-1.6	-1.33	4.17	1.9259	399.6869
2653	1509383791	54.7667	-113.2323	2111.9	1533.3	99.2	9.8	-1.5	-1.33	4.17	1.9247	399.5609
2654	1509383792	54.7666	-113.2310	2111.9	1523.9	99.2	9.8	-1.4	-1.33	4.17	1.9244	401.1095
2655	1509383793	54.7664	-113.2296	2111.9	1517.0	99.2	9.8	-1.5	-1.33	4.16	1.9265	401.4857
2656	1509383794	54.7663	-113.2282	2111.9	1514.9	99.1	9.8	-1.5	-1.33	4.16	1.9259	398.9120
2657	1509383795	54.7662	-113.2268	2112.0	1515.3	99.0	9.8	-1.6	-1.33	4.16	1.9249	400.1662
2658	1509383796	54.7661	-113.2254	2112.1	1516.1	98.9	9.9	-1.8	-1.34	4.16	1.9276	399.6794
2659	1509383797	54.7659	-113.2240	2112.2	1517.2	99.0	10.2	-1.7	-1.34	4.16	1.9259	399.1215
2660	1509383798	54.7658	-113.2226	2112.4	1515.9	99.1	10.2	-1.6	-1.34	4.16	1.9252	401.1456
2661	1509383799	54.7657	-113.2212	2112.5	1514.5	99.1	10.1	-1.6	-1.34	4.16	1.9258	401.0861
2662	1509383800	54.7656	-113.2200	2112.7	1514.4	99.0	10.1	-1.7	-1.34	4.15	1.9251	399.6427
2663	1509383801	54.7654	-113.2185	2112.8	1514.8	98.9	10.1	-1.7	-1.34	4.15	1.9240	401.8477
2664	1509383802	54.7653	-113.2171	2112.9	1514.9	98.8	10.0	-1.7	-1.34	4.15	1.9242	400.8723
2665	1509383803	54.7652	-113.2157	2112.8	1514.8	98.8	10.0	-1.7	-1.34	4.15	1.9256	400.5674
2666	1509383804	54.7651	-113.2144	2112.6	1515.1	98.9	10.1	-1.7	-1.35	4.15	1.9257	400.6290
2667	1509383805	54.7649	-113.2129	2112.4	1515.4	98.9	10.0	-1.6	-1.35	4.15	1.9244	400.8381
2668	1509383806	54.7648	-113.2115	2112.2	1515.2	98.8	10.0	-1.6	-1.35	4.15	1.9243	399.4643
2669	1509383807	54.7647	-113.2101	2112.0	1516.0	98.6	10.0	-1.8	-1.35	4.15	1.9244	399.4643
2670	1509383808	54.7645	-113.2088	2111.7	1515.7	98.6	10.0	-1.8	-1.35	4.14	1.9246	399.4643
2671	1509383809	54.7644	-113.2074	2111.5	1515.5	98.7	10.1	-1.7	-1.35	4.14	1.9247	399.4643
2672	1509383810	54.7643	-113.2060	2111.3	1514.4	98.8	10.0	-1.7	-1.35	4.14	1.9249	399.4643
2673	1509383811	54.7642	-113.2046	2111.1	1514.1	98.8	10.0	-1.7	-1.35	4.14	1.9250	399.4643
2674	1509383812	54.7640	-113.2032	2111.0	1514.3	98.8	10.0	-1.7	-1.35	4.14	1.9252	399.4643
2675	1509383813	54.7639	-113.2019	2111.0	1514.0	98.6	10.0	-1.9	-1.36	4.14	1.9248	400.8461
2676	1509383814	54.7638	-113.2006	2111.1	1513.1	98.4	10.0	-2.0	-1.36	4.14	1.9259	400.7729
2677	1509383815	54.7638	-113.2005	2111.1	1513.1	98.4	10.0	-2.0	-1.36	4.13	1.9252	399.7117
2678	1509383816	54.7638	-113.2004	2111.1	1513.1	98.4	10.0	-2.0	-1.36	4.13	1.9249	401.7094
2679	1509383817	54.7638	-113.2003	2111.1	1513.1	98.4	10.0	-2.0	-1.36	4.13	1.9251	401.7094
2680	1509383818	54.7638	-113.2002	2111.2	1513.2	98.4	10.0	-2.0	-1.36	4.13	1.9249	400.6150
2681	1509383819	54.7638	-113.2001	2111.2	1513.2	98.4	10.0	-2.0	-1.36	4.13	1.9255	401.5744
2682	1509383820	54.7638	-113.2000	2111.2	1512.5	98.4	10.0	-2.0	-1.36	4.13	1.9251	400.7225
2683	1509383821	54.7637	-113.1999	2111.2	1512.5	98.4	10.0	-1.9	-1.36	4.13	1.9264	400.8990
2684	1509383822	54.7636	-113.1984	2111.4	1512.4	98.5	10.0	-1.9	-1.37	4.12	1.9266	400.6380
2685	1509383823	54.7635	-113.1969	2111.6	1511.6	98.6	9.4	-1.8	-1.37	4.12	1.9259	399.8622
2686	1509383824	54.7633	-113.1954	2111.9	1511.9	98.5	9.4	-1.8	-1.37	4.12	1.9252	399.8622
2687	1509383825	54.7632	-113.1938	2112.1	1512.1	98.7	9.4	-1.7	-1.37	4.12	1.9245	400.6865
2688	1509383826	54.7631	-113.1923	2112.2	1513.2	98.7	9.4	-1.7	-1.37	4.12	1.9241	400.5375
2689	1509383827	54.7629	-113.1907	2112.1	1512.4	98.9	9.5	-1.7	-1.37	4.12	1.9260	401.0319
2690	1509383828	54.7628	-113.1892	2112.0	1511.0	98.9	9.4	-1.8	-1.37	4.12	1.9257	402.0685
2691	1509383829	54.7626	-113.1877	2111.7	1510.9	99.1	9.5	-1.8	-1.37	4.11	1.9248	400.4035
2692	1509383830	54.7625	-113.1861	2111.4	1513.4	99.1	9.5	-2.0	-1.38	4.11	1.9251	400.4035
2693	1509383831	54.7623	-113.1846	2111.1	1512.0	99.3	9.5	-1.9	-1.38	4.11	1.9259	400.6610
2694	1509383832	54.7622	-113.1831	2110.9	1511.9	99.4	9.6	-2.0	-1.38	4.11	1.9254	398.6812
2695	1509383833	54.7621	-113.1816	2110.7	1511.7	99.6	9.6	-1.9	-1.38	4.11	1.9254	400.9646
2696	1509383834	54.7619	-113.1800	2110.5	1510.5	99.7	9.6	-1.9	-1.38	4.11	1.9272	400.2546
2697	1509383835	54.7617	-113.1785	2110.5	1509.5	99.7	9.5	-2.0	-1.38	4.11	1.9257	396.8620
2698	1509383836	54.7616	-113.1770	2110.7	1509.7	99.8	9.5	-2.0	-1.38	4.10	1.9244	400.3197
2699	1509383837	54.7614	-113.1755	2110.8	1509.8	99.9	9.5	-1.9	-1.38	4.10	1.9247	399.6794
2700	1509383838	54.7613	-113.1739	2111.2	1510.9	100.0	9.4	-2.0	-1.38	4.10	1.9247	400.1099
2701	1509383839	54.7611	-113.1724	2111.6	1511.6	100.1	9.4	-2.0	-1.39	4.10	1.9245	399.8210
2702	1509383840	54.7610	-113.1709	2112.1	1512.4	100.2	9.3	-1.9	-1.39	4.10	1.9254	399.8210
2703	1509383841	54.7608	-113.1693	2112.3	1514.3	100.1	9.3	-2.0	-1.39	4.10	1.9258	399.6139
2704	1509383842	54.7606	-113.1678	2112.5	1515.5	100.0	9.3	-2.0	-1.39	4.10	1.9254	400.9871
2705	1509383843	54.7605	-113.1663	2112.8	1514.8	100.0	9.3	-2.0	-1.39	4.09	1.9251	400.9871
2706	1509383844	54.7603	-113.1648	2113.0	1513.3	100.1	9.2	-1.9	-1.39	4.09	1.9255	400.8200
2707	1509383845	54.7602	-113.1634	2113.3	1513.3	100.1	9.3	-1.9	-1.39	4.09	1.9246	401.3825
2708	1509383846	54.7600	-113.1618	2113.4	1514.7	100.0	9.2	-1.9	-1.39	4.09	1.9263	401.2867
2709	1509383847	54.7598	-113.1602	2113.4	1516.5	99.9	9.2	-2.0	-1.39	4.09	1.9261	401.3786
2710	1509383848	54.7597	-113.1587	2113.2	1517.2	99.8	9.3	-2.0	-1.40	4.09	1.9253	399.8592
2711	1509383849	54.7595	-113.1572	2112.8	1516.8	99.8	9.4	-1.8	-1.40	4.09	1.9253	401.6833
2712	1509383850	54.7594	-113.1556	2112.3	1515.3	99.7	9.4	-1.9	-1.40	4.09	1.9246	400.5747
2713	1509383851	54.7592	-113.1541	2111.7	1512.8	99.8	9.6	-1.8	-1.40	4.08	1.9261	400.4532
2714	1509383852	54.7591	-113.1525	2111.2	1511.2	99.7	9.6	-1.8	-1.40	4.08	1.9246	400.9957
2715	1509383853	54.7589	-113.1511	2110.4	1508.1	99.6	9.3	-1.8	-1.40	4.08	1.9249	401.5463
2716	1509383854	54.7588	-113.1496	2109.7	1507.7	99.5	9.3	-1.7	-1.40	4.08	1.9263	401.2027
2717	1509383855	54.7586	-113.1480	2109.0	1511.0	99.4	9.3	-1.8	-1.40	4.08	1.9264	399.1518
2718	1509383856	54.7585	-113.1465	2108.5	1511.6	99.2	9.3	-1.8	-1.40	4.08	1.9255	401.0530
2719	1509383857	54.7583	-113.1449	2108.2	1512.2	99.1	9.4	-1.8	-1.41	4.08	1.9251	401.7349
2720	1509383858	54.7582	-113.1433	2108.1	1513.1	99.1	9.3	-1.8	-1.41	4.07	1.9259	401.5392
2721	1509383859	54.7580	-113.1417	2108.2	1513.2	98.9	9.3	-1.8	-1.41	4.07	1.9260	401.0885
2722	1509383860	54.7579	-113.1403	2108.6	1513.6	98.9	9.5	-1.8	-1.41	4.07	1.9253	401.0885
2723	1509383861	54.7577	-113.1387	2109.1	1514.1	98.8	9.6	-2.0	-1.41	4.07	1.9252	399.1594
2724	1509383862	54.7576	-113.1372	2109.9	1514.9	98.7	9.5	-2.0	-1.41	4.07	1.9248	400.9218
2725	1509383863	54.7575	-113.1357	2110.8	1514.8	98.6	9.3	-2.0	-1.41	4.07	1.9255	401.5247
2726	1509383864	54.7573	-113.1341	2111.8	1514.8	98.6	9.2	-2.1	-1.41	4.07	1.9277	401.1028
2727	1509383865	54.7572	-113.1327	2112.8	1515.8	98.5	9.3	-2.1	-1.42	4.06	1.9256	401.2020
2728	1509383866	54.7570	-113.1312	2113.7	1517.7	98.4	9.5	-2.2	-1.42	4.06	1.9251	399.8889
2729	1509383867	54.7569	-113.1296	2114.5	1518.5	98.3	9.4	-2.2	-1.42	4.06	1.9254	399.8889
2730	1509383868	54.7568	-113.1281	2115.1	1519.1	98.2	9.3	-2.1	-1.42	4.06	1.9257	399.8889
2731	1509383869	54.7566	-113.1266	2115.4	1517.4	98.1	9.3	-2.2	-1.42	4.06	1.9260	399.8889
2732	1509383870	54.7565	-113.1250	2115.4	1516.5	98.1	9.2	-2.3	-1.42	4.06	1.9247	400.3438
2733	1509383871	54.7564	-113.1235	2115.4	1514.4	98.0	9.3	-2.3	-1.42	4.06	1.9254	402.2285
2734	1509383872	54.7562	-113.1219	2115.3	1513.3	98.0	9.3	-2.3	-1.42	4.05	1.9248	399.2644
2735	1509383873	54.7561	-113.1204	2115.2	1513.5	97.9	9.3	-2.3	-1.42	4.05	1.9256	400.3301
2736	1509383874	54.7560	-113.1190	2115.2	1514.9	98.0	9.3	-2.3	-1.43	4.05	1.9254	400.0594
2737	1509383875	54.7558	-113.1176	2115.1	1515.1	97.9	9.2	-2.4	-1.43	4.05	1.9248	399.5520
2738	1509383876	54.7558	-113.1173	2115.1	1515.0	97.9	9.2	-2.4	-1.43	4.05	1.9255	401.2962
2739	1509383877	54.7558	-113.1171	2115.0	1515.0	97.9	9.2	-2.4	-1.43	4.05	1.9267	401.0792
2740	1509383878	54.7557	-113.1165	2114.9	1514.9	97.9	9.3	-2.4	-1.43	4.05	1.9258	400.6576
2741	1509383879	54.7556	-113.1150	2114.5	1515.5	98.0	9.3	-2.4	-1.43	4.04	1.9258	401.7714
2742	1509383880	54.7555	-113.1135	2114.1	1515.1	98.0	9.3	-2.5	-1.43	4.04	1.9261	400.4073
2743	1509383881	54.7554	-113.1120	2113.6	1514.6	98.1	8.9	-2.3	-1.43	4.04	1.9256	401.1207
2744	1509383882	54.7552	-113.1105	2113.0	1516.0	98.1	9.0	-2.4	-1.43	4.04	1.9255	401.1207
2745	1509383883	54.7551	-113.1090	2112.3	1516.3	98.1	9.1	-2.4	-1.44	4.04	1.9256	400.5749
2746	1509383884	54.7549	-113.1074	2111.6	1516.6	98.3	9.2	-2.4	-1.44	4.04	1.9259	401.0755
2747	1509383885	54.7548	-113.1059	2110.9	1516.6	98.3	9.2	-2.5	-1.44	4.04	1.9263	399.6337
2748	1509383886	54.7547	-113.1044	2110.1	1517.1	98.4	9.3	-2.5	-1.44	4.03	1.9260	399.5200
2749	1509383887	54.7545	-113.1029	2109.3	1518.3	98.5	9.4	-2.3	-1.44	4.03	1.9257	401.6618
2750	1509383888	54.7544	-113.1013	2108.5	1517.7	98.6	9.5	-2.3	-1.44	4.03	1.9246	401.3356
2751	1509383889	54.7542	-113.0998	2107.7	1517.7	98.9	9.6	-2.1	-1.44	4.03	1.9249	401.3917
2752	1509383890	54.7541	-113.0982	2107.3	1516.3	99.1	9.6	-2.2	-1.44	4.03	1.9254	399.3329
2753	1509383891	54.7539	-113.0967	2107.0	1516.0	99.2	9.7	-2.1	-1.44	4.03	1.9255	401.9396
2754	1509383892	54.7538	-113.0952	2106.9	1514.9	99.3	9.7	-2.1	-1.45	4.03	1.9253	401.8085
2755	1509383893	54.7536	-113.0937	2107.1	1515.2	99.5	9.6	-2.1	-1.45	4.03	1.9252	401.7427
2756	1509383894	54.7535	-113.0922	2107.4	1516.3	99.7	9.6	-2.0	-1.45	4.02	1.9251	400.0797
2757	1509383895	54.7533	-113.0907	2107.9	1516.9	99.7	9.5	-2.2	-1.45	4.02	1.9247	401.7198
2758	1509383896	54.7532	-113.0891	2108.4	1517.5	99.7	9.5	-2.2	-1.45	4.02	1.9254	400.1669
2759	1509383897	54.7530	-113.0876	2108.9	1517.1	99.8	9.4	-2.2	-1.45	4.02	1.9255	400.4238
2760	1509383898	54.7529	-113.0861	2109.3	1517.5	99.9	9.4	-2.2	-1.45	4.02	1.9242	401.2441
2761	1509383899	54.7527	-113.0845	2109.6	1517.6	100.0	9.3	-2.2	-1.45	4.02	1.9253	400.1564
2762	1509383900	54.7525	-113.0830	2109.9	1516.9	100.2	9.3	-2.2	-1.46	4.02	1.9252	400.6987
2763	1509383901	54.7524	-113.0814	2110.0	1517.0	100.3	9.3	-2.2	-1.46	4.01	1.9256	400.6987
2764	1509383902	54.7522	-113.0799	2110.1	1519.1	100.3	9.2	-2.3	-1.46	4.01	1.9271	399.9194
2765	1509383903	54.7520	-113.0784	2110.1	1520.2	100.3	9.2	-2.3	-1.46	4.01	1.9253	401.2507
2766	1509383904	54.7519	-113.0769	2110.0	1520.1	100.2	9.3	-2.2	-1.46	4.01	1.9254	401.1014
2767	1509383905	54.7517	-113.0754	2109.9	1519.9	100.1	9.3	-2.4	-1.46	4.01	1.9258	401.4206
2768	1509383906	54.7516	-113.0739	2109.8	1519.8	100.0	9.3	-2.3	-1.46	4.01	1.9251	400.4722
2769	1509383907	54.7514	-113.0724	2109.7	1518.8	100.0	9.3	-2.2	-1.46	4.01	1.9260	399.8350
2770	1509383908	54.7512	-113.0709	2109.7	1517.7	99.9	9.3	-2.3	-1.46	4.00	1.9256	401.0909
2771	1509383909	54.7511	-113.0694	2109.7	1516.7	99.8	9.3	-2.4	-1.47	4.00	1.9253	400.0134
2772	1509383910	54.7509	-113.0679	2109.9	1516.9	99.8	9.3	-2.3	-1.47	4.00	1.9260	401.2732
2773	1509383911	54.7508	-113.0664	2110.1	1516.7	99.9	9.7	-2.2	-1.47	4.00	1.9279	401.2905
2774	1509383912	54.7506	-113.0651	2110.3	1516.4	99.9	9.8	-2.0	-1.47	4.00	1.9242	400.3034
2775	1509383913	54.7505	-113.0636	2110.6	1514.9	99.8	9.7	-2.1	-1.47	4.00	1.9255	399.8634
2776	1509383914	54.7503	-113.0623	2110.8	1514.0	99.6	9.8	-2.0	-1.47	4.00	1.9246	399.7153
2777	1509383915	54.7502	-113.0610	2111.0	1514.2	99.5	9.8	-1.9	-1.47	3.99	1.9246	400.9086
2778	1509383916	54.7501	-113.0595	2111.1	1513.5	99.4	9.8	-1.9	-1.47	3.99	1.9257	399.6897
2779	1509383917	54.7499	-113.0582	2111.2	1513.6	99.3	9.5	-1.8	-1.47	3.99	1.9248	400.9189
2780	1509383918	54.7499	-113.0573	2111.3	1513.7	99.3	9.2	-1.8	-1.48	3.99	1.9250	400.3595
2781	1509383919	54.7497	-113.0558	2111.5	1513.3	99.1	9.2	-1.7	-1.48	3.99	1.9253	400.0319
2782	1509383920	54.7496	-113.0542	2111.7	1513.7	99.1	9.2	-1.5	-1.48	3.99	1.9253	400.2592
2783	1509383921	54.7494	-113.0527	2111.9	1513.1	99.0	9.2	-1.6	-1.48	3.99	1.9242	400.6413
2784	1509383922	54.7493	-113.0513	2112.1	1513.2	98.9	9.5	-1.7	-1.48	3.98	1.9241	400.6637
2785	1509383923	54.7492	-113.0498	2112.3	1514.4	98.6	9.4	-1.8	-1.48	3.98	1.9250	399.6453
2786	1509383924	54.7490	-113.0485	2112.5	1514.7	98.5	9.1	-1.8	-1.48	3.98	1.9254	401.0049
2787	1509383925	54.7489	-113.0471	2112.8	1515.0	98.4	9.4	-1.8	-1.48	3.98	1.9243	400.6835
2788	1509383926	54.7488	-113.0457	2113.0	1515.1	98.4	9.6	-1.8	-1.48	3.98	1.9246	400.9648
2789	1509383927	54.7487	-113.0444	2113.3	1515.4	98.2	9.2	-2.1	-1.49	3.98	1.9250	400.9648
2790	1509383928	54.7486	-113.0430	2113.4	1515.5	98.2	9.0	-2.0	-1.49	3.98	1.9253	400.9648
2791	1509383929	54.7484	-113.0416	2113.5	1514.5	98.1	8.9	-2.1	-1.49	3.97	1.9255	400.4011
2792	1509383930	54.7483	-113.0402	2113.6	1513.5	98.0	8.9	-2.2	-1.49	3.97	1.9253	400.9001
2793	1509383931	54.7482	-113.0389	2113.5	1512.5	98.1	8.9	-2.1	-1.49	3.97	1.9247	398.4340
2794	1509383932	54.7481	-113.0375	2113.5	1511.5	98.1	8.9	-2.2	-1.49	3.97	1.9249	399.1611
2795	1509383933	54.7479	-113.0361	2113.4	1511.3	98.1	9.1	-2.3	-1.49	3.97	1.9251	400.9324
2796	1509383934	54.7478	-113.0348	2113.2	1511.1	98.0	9.3	-2.4	-1.49	3.97	1.9254	401.0164
2797	1509383935	54.7478	-113.0346	2113.2	1511.0	98.0	9.3	-2.5	-1.50	3.97	1.9251	400.7051
2798	1509383936	54.7478	-113.0344	2113.1	1511.0	98.0	9.3	-2.5	-1.50	3.96	1.9260	400.4402
2799	1509383937	54.7478	-113.0343	2113.1	1511.0	98.0	9.3	-2.5	-1.50	3.96	1.9238	400.5399
2800	1509383938	54.7477	-113.0335	2113.0	1511.9	98.0	9.3	-2.5	-1.50	3.96	1.9243	400.6031
2801	1509383939	54.7476	-113.0320	2112.8	1511.7	97.9	9.3	-2.5	-1.50	3.96	1.9254	400.9440
2802	1509383940	54.7474	-113.0305	2112.3	1513.3	97.9	9.3	-2.6	-1.50	3.96	1.9252	400.5438
2803	1509383941	54.7473	-113.0290	2112.0	1513.9	97.9	9.3	-2.6	-1.50	3.96	1.9256	400.6219
2804	1509383942	54.7472	-113.0274	2111.7	1512.7	98.0	9.2	-2.7	-1.50	3.96	1.9252	401.2857
2805	1509383943	54.7470	-113.0259	2111.7	1512.7	98.0	9.2	-2.7	-1.50	3.96	1.9252	400.4516
2806	1509383944	54.7469	-113.0244	2111.8	1511.9	98.0	9.1	-2.6	-1.51	3.95	1.9253	400.5349
2807	1509383945	54.7468	-113.0228	2112.2	1513.2	97.9	9.1	-2.8	-1.51	3.95	1.9251	399.7508
2808	1509383946	54.7466	-113.0214	2112.7	1515.7	97.9	9.0	-2.8	-1.51	3.95	1.9272	398.1551
2809	1509383947	54.7465	-113.0199	2113.3	1517.4	97.9	9.1	-2.8	-1.51	3.95	1.9275	398.1551
2810	1509383948	54.7464	-113.0184	2114.1	1519.1	98.0	9.4	-2.8	-1.51	3.95	1.9277	400.8137
2811	1509383949	54.7462	-113.0168	2114.8	1521.8	98.0	9.3	-2.8	-1.51	3.95	1.9261	400.1839
2812	1509383950	54.7461	-113.0153	2115.0	1522.0	98.1	9.3	-2.8	-1.51	3.95	1.9257	400.8047
2813	1509383951	54.7459	-113.0138	2115.0	1522.0	98.1	9.2	-2.9	-1.51	3.94	1.9248	400.4889
2814	1509383952	54.7458	-113.0123	2114.7	1523.7	98.1	8.8	-2.8	-1.51	3.94	1.9250	400.6111
2815	1509383953	54.7457	-113.0108	2114.1	1524.1	98.0	8.9	-2.9	-1.52	3.94	1.9248	400.6329
2816	1509383954	54.7455	-113.0093	2113.3	1524.7	98.2	9.0	-2.8	-1.52	3.94	1.9265	402.2228
2817	1509383955	54.7454	-113.0078	2112.3	1525.4	98.2	9.1	-2.8	-1.52	3.94	1.9260	401.6980
2818	1509383956	54.7452	-113.0062	2111.3	1525.4	98.3	9.3	-2.8	-1.52	3.94	1.9262	400.9760
2819	1509383957	54.7451	-113.0047	2110.4	1526.3	98.3	9.4	-2.9	-1.52	3.94	1.9261	400.3420
2820	1509383958	54.7450	-113.0032	2109.7	1525.7	98.4	9.5	-2.9	-1.52	3.93	1.9245	401.1318
2821	1509383959	54.7448	-113.0017	2108.9	1524.9	98.6	9.1	-2.8	-1.52	3.93	1.9243	400.4315
2822	1509383960	54.7447	-113.0002	2108.1	1524.6	98.8	9.2	-2.7	-1.52	3.93	1.9250	400.0093
2823	1509383961	54.7445	-112.9986	2107.4	1524.2	99.1	9.3	-2.6	-1.53	3.93	1.9250	400.8327
2824	1509383962	54.7444	-112.9971	2106.8	1523.3	99.4	9.3	-2.4	-1.53	3.93	1.9252	400.6960
2825	1509383963	54.7442	-112.9956	2106.4	1523.3	99.6	9.5	-2.3	-1.53	3.93	1.9253	401.2428
2826	1509383964	54.7440	-112.9941	2106.2	1523.2	99.6	9.5	-2.4	-1.53	3.93	1.9257	400.8218
2827	1509383965	54.7439	-112.9925	2106.0	1522.1	99.7	9.5	-2.4	-1.53	3.92	1.9271	401.0391
2828	1509383966	54.7437	-112.9911	2106.0	1521.0	99.8	9.5	-2.4	-1.53	3.92	1.9249	401.1694
2829	1509383967	54.7436	-112.9895	2105.9	1520.9	99.9	9.5	-2.3	-1.53	3.92	1.9242	400.3073
2830	1509383968	54.7434	-112.9880	2105.7	1519.7	100.1	9.6	-2.2	-1.53	3.92	1.9263	398.7119
2831	1509383969	54.7433	-112.9866	2105.5	1519.5	100.2	9.6	-2.3	-1.53	3.92	1.9261	399.6690
2832	1509383970	54.7431	-112.9852	2105.4	1519.3	100.2	9.5	-2.3	-1.54	3.92	1.9252	401.1103
2833	1509383971	54.7430	-112.9838	2105.4	1519.4	100.2	9.5	-2.3	-1.54	3.92	1.9267	401.9190
2834	1509383972	54.7428	-112.9824	2105.5	1519.5	100.1	9.5	-2.4	-1.54	3.91	1.9246	400.6213
2835	1509383973	54.7427	-112.9811	2105.9	1519.9	100.1	9.4	-2.4	-1.54	3.91	1.9257	399.1545
2836	1509383974	54.7425	-112.9797	2106.4	1520.4	100.0	9.3	-2.3	-1.54	3.91	1.9251	399.9201
2837	1509383975	54.7424	-112.9783	2107.0	1522.0	99.9	9.6	-2.4	-1.54	3.91	1.9252	401.5982
2838	1509383976	54.7422	-112.9769	2107.4	1522.4	99.8	9.7	-2.4	-1.54	3.91	1.9258	401.7378
2839	1509383977	54.7421	-112.9755	2107.7	1522.7	99.7	9.6	-2.4	-1.54	3.91	1.9242	400.9195
2840	1509383978	54.7419	-112.9742	2107.9	1522.9	99.6	9.5	-2.4	-1.54	3.91	1.9247	400.5703
2841	1509383979	54.7418	-112.9728	2108.1	1523.1	99.6	9.5	-2.4	-1.55	3.90	1.9243	400.4422
2842	1509383980	54.7417	-112.9715	2108.3	1523.3	99.6	9.4	-2.2	-1.55	3.90	1.9241	400.7137
2843	1509383981	54.7415	-112.9700	2108.5	1523.5	99.5	9.4	-2.4	-1.55	3.90	1.9272	400.5145
2844	1509383982	54.7414	-112.9687	2108.7	1523.7	99.4	9.7	-2.5	-1.55	3.90	1.9258	400.5145
2845	1509383983	54.7412	-112.9674	2108.9	1524.9	99.3	9.8	-2.5	-1.55	3.90	1.9262	400.1804
2846	1509383984	54.7411	-112.9659	2109.0	1527.0	99.3	9.8	-2.5	-1.55	3.90	1.9242	400.5392
2847	1509383985	54.7410	-112.9645	2109.0	1527.0	99.3	9.8	-2.4	-1.55	3.90	1.9250	400.5392
2848	1509383986	54.7408	-112.9632	2109.1	1528.0	99.3	9.8	-2.3	-1.55	3.90	1.9248	400.1919
2849	1509383987	54.7407	-112.9618	2109.2	1528.4	99.3	9.7	-2.3	-1.55	3.89	1.9246	400.1919
2850	1509383988	54.7406	-112.9605	2109.4	1530.1	99.1	9.6	-2.4	-1.56	3.89	1.9245	400.1919
2851	1509383989	54.7404	-112.9591	2109.6	1530.6	99.1	9.6	-2.3	-1.56	3.89	1.9247	401.1149
2852	1509383990	54.7403	-112.9577	2109.7	1530.7	99.0	9.6	-2.3	-1.56	3.89	1.9248	400.3222
2853	1509383991	54.7401	-112.9563	2109.8	1529.8	98.9	9.5	-2.2	-1.56	3.89	1.9246	401.3972
2854	1509383992	54.7400	-112.9549	2109.8	1530.8	98.8	9.5	-2.4	-1.56	3.89	1.9243	400.2493
2855	1509383993	54.7399	-112.9536	2109.9	1528.8	98.7	9.5	-2.3	-1.56	3.89	1.9270	400.9626
2856	1509383994	54.7398	-112.9523	2110.0	1529.1	98.7	9.5	-2.4	-1.56	3.88	1.9261	400.6954
2857	1509383995	54.7398	-112.9521	2110.0	1528.7	98.6	9.6	-2.4	-1.56	3.88	1.9246	402.0067
2858	1509383996	54.7397	-112.9520	2110.1	1528.8	98.6	9.7	-2.4	-1.57	3.88	1.9266	400.9851
2859	1509383997	54.7397	-112.9518	2110.1	1529.1	98.6	9.9	-2.4	-1.57	3.88	1.9241	401.3370
2860	1509383998	54.7397	-112.9511	2110.2	1529.2	98.6	10.0	-2.4	-1.57	3.88	1.9255	401.7152
2861	1509383999	54.7395	-112.9496	2110.5	1530.5	98.6	9.9	-2.4	-1.57	3.88	1.9261	401.2034
2862	1509384000	54.7394	-112.9481	2111.0	1533.1	98.7	9.9	-2.2	-1.57	3.88	1.9255	401.2034
2863	1509384001	54.7392	-112.9466	2111.6	1535.4	98.8	9.8	-2.2	-1.57	3.87	1.9245	399.9874
2864	1509384002	54.7391	-112.9451	2112.4	1539.1	98.8	9.8	-2.2	-1.57	3.87	1.9244	401.4276
2865	1509384003	54.7390	-112.9436	2113.2	1541.4	98.6	9.7	-2.2	-1.57	3.87	1.9243	400.7275
2866	1509384004	54.7388	-112.9420	2114.0	1543.0	98.4	9.7	-2.2	-1.57	3.87	1.9253	400.4016
2867	1509384005	54.7387	-112.9405	2114.6	1543.6	98.4	9.7	-2.2	-1.58	3.87	1.9247	400.6401
2868	1509384006	54.7385	-112.9390	2115.1	1545.2	98.3	9.6	-2.2	-1.58	3.87	1.9247	400.6579
2869	1509384007	54.7384	-112.9375	2115.5	1546.7	98.4	9.5	-2.2	-1.58	3.87	1.9239	400.4425
2870	1509384008	54.7383	-112.9361	2115.5	1549.7	98.3	9.2	-2.1	-1.58	3.86	1.9244	400.4425
2871	1509384009	54.7381	-112.9345	2115.4	1551.4	98.3	9.3	-2.2	-1.58	3.86	1.9240	399.8007
2872	1509384010	54.7380	-112.9331	2114.9	1549.9	98.2	9.3	-2.2	-1.58	3.86	1.9238	399.7823
2873	1509384011	54.7379	-112.9315	2114.4	1547.3	98.3	9.5	-2.2	-1.58	3.86	1.9254	400.1964
2874	1509384012	54.7377	-112.9300	2113.8	1543.7	98.4	9.5	-2.1	-1.58	3.86	1.9259	400.6583
2875	1509384013	54.7376	-112.9284	2113.3	1541.1	98.4	9.2	-2.1	-1.58	3.86	1.9253	401.3641
2876	1509384014	54.7374	-112.9269	2112.9	1536.7	98.3	9.2	-2.2	-1.59	3.86	1.9255	399.6715
2877	1509384015	54.7373	-112.9254	2112.6	1534.9	98.4	9.2	-2.1	-1.59	3.85	1.9245	400.4066
2878	1509384016	54.7372	-112.9238	2112.4	1532.4	98.4	9.2	-2.2	-1.59	3.85	1.9251	400.7933
2879	1509384017	54.7370	-112.9223	2112.1	1531.2	98.5	9.3	-2.0	-1.59	3.85	1.9248	401.2904
2880	1509384018	54.7369	-112.9207	2111.7	1528.6	98.6	9.4	-1.9	-1.59	3.85	1.9250	401.3932
2881	1509384019	54.7368	-112.9193	2111.1	1527.1	98.7	9.4	-2.0	-1.59	3.85	1.9253	399.8475
2882	1509384020	54.7366	-112.9178	2110.6	1525.6	98.6	9.5	-2.0	-1.59	3.85	1.9240	400.3551
2883	1509384021	54.7365	-112.9163	2110.1	1524.1	98.5	9.6	-2.2	-1.59	3.85	1.9262	400.2886
2884	1509384022	54.7363	-112.9147	2109.6	1524.7	98.5	9.0	-2.3	-1.59	3.84	1.9245	399.9409
2885	1509384023	54.7362	-112.9131	2109.5	1524.6	98.7	9.5	-2.2	-1.60	3.84	1.9247	399.7316
2886	1509384024	54.7360	-112.9116	2109.4	1522.6	98.8	9.6	-2.1	-1.60	3.84	1.9243	400.1355
2887	1509384025	54.7359	-112.9100	2109.4	1522.3	98.9	9.6	-2.1	-1.60	3.84	1.9242	399.4486
2888	1509384026	54.7358	-112.9085	2109.3	1522.3	98.8	9.6	-2.1	-1.60	3.84	1.9246	401.8386
2889	1509384027	54.7356	-112.9070	2109.2	1522.3	98.8	9.6	-2.1	-1.60	3.84	1.9260	401.8386
2890	1509384028	54.7355	-112.9055	2109.2	1522.2	98.9	9.7	-2.0	-1.60	3.84	1.9238	402.1018
2891	1509384029	54.7354	-112.9043	2109.1	1522.1	98.8	9.3	-2.1	-1.60	3.83	1.9247	401.0315
2892	1509384030	54.7352	-112.9028	2109.1	1521.1	98.8	9.1	-2.0	-1.60	3.83	1.9247	401.2613
2893	1509384031	54.7351	-112.9014	2109.3	1521.0	99.0	9.1	-2.0	-1.61	3.83	1.9247	399.7088
2894	1509384032	54.7350	-112.9000	2109.5	1520.5	99.1	9.1	-1.9	-1.61	3.83	1.9248	400.9408
2895	1509384033	54.7348	-112.8987	2109.7	1521.7	99.2	9.1	-1.8	-1.61	3.83	1.9242	400.3772
2896	1509384034	54.7347	-112.8974	2110.0	1521.0	99.1	9.1	-1.9	-1.61	3.83	1.9245	401.0044
2897	1509384035	54.7346	-112.8959	2110.2	1522.2	99.1	9.4	-2.0	-1.61	3.83	1.9242	401.8119
2898	1509384036	54.7344	-112.8945	2110.3	1522.3	99.1	9.6	-2.0	-1.61	3.83	1.9243	401.0270
2899	1509384037	54.7343	-112.8932	2110.3	1523.2	99.1	9.5	-2.1	-1.61	3.82	1.9253	402.4080
2900	1509384038	54.7342	-112.8918	2110.1	1523.1	99.2	9.6	-2.1	-1.61	3.82	1.9250	400.3483
2901	1509384039	54.7340	-112.8904	2109.8	1522.8	99.2	9.5	-2.1	-1.61	3.82	1.9244	400.5026
2902	1509384040	54.7339	-112.8890	2109.6	1522.6	99.3	9.6	-2.1	-1.62	3.82	1.9237	400.9278
2903	1509384041	54.7338	-112.8877	2109.4	1524.5	99.4	9.6	-2.1	-1.62	3.82	1.9249	400.7262
2904	1509384042	54.7336	-112.8863	2109.4	1529.4	99.5	9.5	-2.2	-1.62	3.82	1.9229	400.8779
2905	1509384043	54.7335	-112.8850	2109.5	1527.3	99.6	9.5	-2.2	-1.62	3.82	1.9240	401.1463
2906	1509384044	54.7334	-112.8837	2109.7	1524.7	99.8	9.5	-2.0	-1.62	3.81	1.9236	399.8264
2907	1509384045	54.7332	-112.8822	2110.1	1523.1	99.8	9.5	-2.1	-1.62	3.81	1.9247	400.5125
2908	1509384046	54.7331	-112.8808	2110.4	1523.4	99.7	9.2	-2.2	-1.62	3.81	1.9246	400.9527
2909	1509384047	54.7329	-112.8794	2110.7	1523.4	99.7	8.8	-2.1	-1.62	3.81	1.9245	400.9527
2910	1509384048	54.7328	-112.8781	2110.9	1522.9	99.7	8.9	-2.0	-1.62	3.81	1.9244	400.9527
2911	1509384049	54.7326	-112.8767	2111.1	1523.1	99.8	9.1	-2.0	-1.63	3.81	1.9243	400.9527
2912	1509384050	54.7325	-112.8753	2111.2	1522.2	99.8	9.3	-2.0	-1.63	3.81	1.9246	400.4332
2913	1509384051	54.7324	-112.8741	2111.4	1522.4	99.7	9.3	-2.0	-1.63	3.80	1.9264	401.2800
2914	1509384052	54.7322	-112.8726	2111.5	1522.5	99.6	9.3	-2.1	-1.63	3.80	1.9249	400.7594
2915	1509384053	54.7321	-112.8712	2111.5	1522.5	99.6	9.3	-2.0	-1.63	3.80	1.9256	401.8171
2916	1509384054	54.7320	-112.8699	2111.5	1522.5	99.5	9.2	-2.1	-1.63	3.80	1.9243	400.0389
2917	1509384055	54.7319	-112.8698	2111.5	1521.4	99.5	9.2	-2.1	-1.63	3.80	1.9255	401.7073
2918	1509384056	54.7319	-112.8696	2111.6	1521.6	99.5	9.3	-2.1	-1.63	3.80	1.9257	401.2765
2919	1509384057	54.7319	-112.8694	2111.6	1521.6	99.5	9.3	-2.1	-1.63	3.80	1.9237	400.9210
2920	1509384058	54.7318	-112.8685	2111.6	1521.3	99.5	9.2	-2.1	-1.64	3.79	1.9249	400.8033
2921	1509384059	54.7317	-112.8670	2111.8	1520.8	99.4	9.3	-2.1	-1.64	3.79	1.9236	399.9014
2922	1509384060	54.7315	-112.8655	2112.2	1521.2	99.3	9.2	-2.1	-1.64	3.79	1.9246	401.1062
2923	1509384061	54.7314	-112.8639	2112.4	1520.4	99.1	9.1	-2.2	-1.64	3.79	1.9238	400.6019
2924	1509384062	54.7312	-112.8624	2112.7	1520.7	99.0	9.1	-2.2	-1.64	3.79	1.9254	401.3722
2925	1509384063	54.7311	-112.8609	2112.9	1519.9	98.8	9.0	-2.2	-1.64	3.79	1.9239	399.7963
2926	1509384064	54.7309	-112.8594	2113.1	1519.6	98.8	9.0	-2.1	-1.64	3.79	1.9234	399.0723
2927	1509384065	54.7308	-112.8579	2113.3	1519.3	98.7	9.0	-2.2	-1.64	3.78	1.9249	401.3686
2928	1509384066	54.7306	-112.8563	2113.4	1519.4	98.5	9.0	-2.2	-1.65	3.78	1.9255	401.3686
2929	1509384067	54.7305	-112.8548	2113.5	1519.5	98.4	9.0	-2.2	-1.65	3.78	1.9249	399.9365
2930	1509384068	54.7304	-112.8533	2113.5	1518.5	98.2	9.0	-2.2	-1.65	3.78	1.9249	399.9365
2931	1509384069	54.7302	-112.8518	2113.5	1517.5	98.1	9.0	-2.2	-1.65	3.78	1.9241	399.5283
2932	1509384070	54.7301	-112.8503	2113.4	1517.4	98.0	9.0	-2.2	-1.65	3.78	1.9241	400.5191
2933	1509384071	54.7300	-112.8488	2113.3	1516.3	97.9	9.0	-2.2	-1.65	3.78	1.9233	400.8610
2934	1509384072	54.7298	-112.8474	2113.1	1516.1	97.8	9.0	-2.2	-1.65	3.77	1.9236	398.8076
2935	1509384073	54.7297	-112.8458	2113.0	1516.0	97.7	8.5	-2.3	-1.65	3.77	1.9233	400.1075
2936	1509384074	54.7296	-112.8443	2112.9	1514.9	97.7	8.5	-2.2	-1.65	3.77	1.9232	399.7101
2937	1509384075	54.7295	-112.8427	2112.9	1514.9	97.7	8.5	-2.2	-1.66	3.77	1.9238	400.8638
2938	1509384076	54.7293	-112.8413	2112.9	1515.9	97.9	8.5	-2.0	-1.66	3.77	1.9240	401.2511
2939	1509384077	54.7292	-112.8397	2113.0	1516.0	98.0	8.5	-2.1	-1.66	3.77	1.9235	399.5455
2940	1509384078	54.7291	-112.8383	2112.9	1516.2	98.0	8.5	-2.0	-1.66	3.77	1.9231	400.2202
2941	1509384079	54.7289	-112.8367	2112.7	1516.7	98.0	8.5	-2.2	-1.66	3.77	1.9242	400.8508
2942	1509384080	54.7288	-112.8352	2112.3	1516.3	98.0	8.6	-2.2	-1.66	3.76	1.9240	400.4635
2943	1509384081	54.7287	-112.8337	2112.0	1516.0	98.1	8.6	-2.3	-1.66	3.76	1.9251	400.0764
2944	1509384082	54.7285	-112.8322	2111.7	1515.7	98.3	8.6	-2.2	-1.66	3.76	1.9255	400.2520
2945	1509384083	54.7284	-112.8307	2111.5	1515.5	98.4	8.6	-2.2	-1.66	3.76	1.9253	400.2520
2946	1509384084	54.7283	-112.8292	2111.2	1515.5	98.3	8.6	-2.2	-1.67	3.76	1.9257	400.4353
2947	1509384085	54.7281	-112.8276	2111.1	1516.1	98.2	8.6	-2.3	-1.67	3.76	1.9246	400.8733
2948	1509384086	54.7280	-112.8261	2110.9	1515.9	98.2	8.6	-2.3	-1.67	3.76	1.9248	400.7328
2949	1509384087	54.7279	-112.8247	2110.8	1515.8	98.3	8.5	-2.3	-1.67	3.75	1.9242	399.8261
2950	1509384088	54.7277	-112.8232	2110.8	1515.8	98.3	8.5	-2.4	-1.67	3.75	1.9253	400.5971
2951	1509384089	54.7276	-112.8218	2110.8	1515.8	98.3	8.6	-2.3	-1.67	3.75	1.9246	401.6675
2952	1509384090	54.7275	-112.8205	2110.8	1515.8	98.3	8.6	-2.3	-1.67	3.75	1.9250	399.5232
2953	1509384091	54.7273	-112.8192	2110.8	1515.8	98.3	8.5	-2.3	-1.67	3.75	1.9239	401.1309
2954	1509384092	54.7272	-112.8178	2111.0	1516.0	98.4	8.5	-2.3	-1.67	3.75	1.9230	400.0603
2955	1509384093	54.7271	-112.8163	2111.1	1516.1	98.4	8.5	-2.2	-1.68	3.75	1.9221	401.1970
2956	1509384094	54.7270	-112.8151	2111.2	1517.2	98.4	8.4	-2.2	-1.68	3.74	1.9241	401.4634
2957	1509384095	54.7268	-112.8137	2111.3	1517.3	98.4	8.4	-2.2	-1.68	3.74	1.9245	395.2824
2958	1509384096	54.7267	-112.8123	2111.3	1518.3	98.4	8.4	-2.3	-1.68	3.74	1.9230	398.2747
2959	1509384097	54.7266	-112.8109	2111.3	1518.3	98.4	8.4	-2.2	-1.68	3.74	1.9237	400.5432
2960	1509384098	54.7265	-112.8095	2111.1	1517.1	98.5	8.5	-2.2	-1.68	3.74	1.9226	400.7433
2961	1509384099	54.7263	-112.8082	2111.0	1516.0	98.5	8.4	-2.2	-1.68	3.74	1.9235	401.0152
2962	1509384100	54.7262	-112.8068	2110.8	1514.7	98.6	8.5	-2.2	-1.68	3.74	1.9236	400.2226
2963	1509384101	54.7261	-112.8054	2110.7	1514.7	98.6	8.5	-2.2	-1.69	3.73	1.9240	399.9720
2964	1509384102	54.7259	-112.8040	2110.7	1514.4	98.6	8.4	-2.2	-1.69	3.73	1.9237	401.0181
2965	1509384103	54.7258	-112.8027	2110.7	1513.7	98.6	8.4	-2.2	-1.69	3.73	1.9233	400.1018
2966	1509384104	54.7257	-112.8013	2110.9	1513.9	98.6	8.4	-2.3	-1.69	3.73	1.9235	399.9433
2967	1509384105	54.7256	-112.7999	2111.1	1513.1	98.6	8.3	-2.3	-1.69	3.73	1.9241	400.7768
2968	1509384106	54.7254	-112.7986	2111.3	1512.3	98.7	8.3	-2.2	-1.69	3.73	1.9243	399.8489
2969	1509384107	54.7253	-112.7972	2111.5	1513.5	98.7	8.2	-2.3	-1.69	3.73	1.9243	399.8489
2970	1509384108	54.7252	-112.7959	2111.7	1514.7	98.6	8.2	-2.3	-1.69	3.72	1.9244	399.8489
2971	1509384109	54.7250	-112.7945	2111.7	1514.7	98.6	8.2	-2.3	-1.69	3.72	1.9244	399.8489
2972	1509384110	54.7249	-112.7931	2111.6	1514.6	98.6	8.2	-2.4	-1.70	3.72	1.9246	400.7659
2973	1509384111	54.7248	-112.7917	2111.6	1514.6	98.7	8.2	-2.3	-1.70	3.72	1.9225	399.9687
2974	1509384112	54.7247	-112.7904	2111.5	1514.5	98.9	8.2	-2.2	-1.70	3.72	1.9228	401.4042
2975	1509384113	54.7245	-112.7890	2111.4	1514.4	99.0	8.3	-2.1	-1.70	3.72	1.9234	401.5898
2976	1509384114	54.7244	-112.7878	2111.2	1514.2	98.9	8.2	-2.2	-1.70	3.72	1.9253	400.7815
2977	1509384115	54.7244	-112.7876	2111.2	1514.2	98.9	8.2	-2.2	-1.70	3.71	1.9237	399.5570
2978	1509384116	54.7244	-112.7874	2111.2	1514.2	98.9	8.3	-2.2	-1.70	3.71	1.9229	399.5020
2979	1509384117	54.7243	-112.7872	2111.2	1514.2	98.9	8.3	-2.2	-1.70	3.71	1.9234	400.1019
2980	1509384118	54.7243	-112.7865	2111.1	1514.1	99.0	8.3	-2.2	-1.70	3.71	1.9234	399.1710
2981	1509384119	54.7241	-112.7850	2111.0	1513.7	99.0	8.3	-2.0	-1.71	3.71	1.9235	400.0025
2982	1509384120	54.7240	-112.7835	2110.9	1510.9	99.2	8.3	-2.0	-1.71	3.71	1.9239	400.8805
2983	1509384121	54.7238	-112.7820	2111.0	1510.0	99.1	8.4	-2.0	-1.71	3.71	1.9234	400.8805
2984	1509384122	54.7237	-112.7805	2111.3	1509.3	99.0	8.7	-2.1	-1.71	3.70	1.9236	400.8826
2985	1509384123	54.7235	-112.7790	2111.6	1509.6	98.9	8.7	-2.1	-1.71	3.70	1.9233	400.9197
2986	1509384124	54.7234	-112.7775	2111.9	1509.9	98.9	8.7	-2.2	-1.71	3.70	1.9240	401.3999
2987	1509384125	54.7233	-112.7760	2112.4	1510.4	99.1	8.6	-2.1	-1.71	3.70	1.9231	400.3128
2988	1509384126	54.7231	-112.7745	2112.9	1511.9	99.2	8.6	-2.0	-1.71	3.70	1.9236	400.6997
2989	1509384127	54.7230	-112.7730	2113.3	1512.3	99.2	8.6	-2.0	-1.72	3.70	1.9239	400.6087
2990	1509384128	54.7228	-112.7715	2113.7	1511.7	99.1	8.5	-2.1	-1.72	3.70	1.9236	400.4212
2991	1509384129	54.7227	-112.7700	2113.8	1512.8	99.1	8.5	-2.2	-1.72	3.70	1.9241	398.8844
2992	1509384130	54.7225	-112.7685	2113.8	1512.8	99.1	8.0	-2.1	-1.72	3.69	1.9236	399.5943
2993	1509384131	54.7224	-112.7669	2113.5	1512.5	99.2	8.0	-2.1	-1.72	3.69	1.9238	399.5943
2994	1509384132	54.7222	-112.7654	2113.0	1512.0	99.2	8.1	-2.1	-1.72	3.69	1.9250	401.0336
2995	1509384133	54.7221	-112.7639	2112.4	1511.4	99.2	8.2	-2.1	-1.72	3.69	1.9241	400.6725
2996	1509384134	54.7219	-112.7624	2111.5	1509.5	99.2	8.3	-2.1	-1.72	3.69	1.9235	400.5625
2997	1509384135	54.7218	-112.7609	2110.7	1508.1	99.3	8.4	-2.0	-1.72	3.69	1.9250	401.2404
2998	1509384136	54.7216	-112.7594	2109.7	1506.7	99.4	8.5	-2.0	-1.73	3.69	1.9247	401.8149
2999	1509384137	54.7215	-112.7579	2108.7	1504.7	99.4	8.6	-2.0	-1.73	3.68	1.9239	400.2958
3000	1509384138	54.7213	-112.7564	2108.0	1503.0	99.4	8.6	-2.1	-1.73	3.68	1.9237	400.2958
3001	1509384139	54.7212	-112.7548	2107.3	1503.3	99.5	8.7	-2.0	-1.73	3.68	1.9236	400.5418
3002	1509384140	54.7210	-112.7533	2106.9	1502.0	99.5	8.7	-2.0	-1.73	3.68	1.9244	401.3223
3003	1509384141	54.7209	-112.7517	2106.8	1501.8	99.5	8.7	-2.1	-1.73	3.68	1.9257	401.3223
3004	1509384142	54.7207	-112.7502	2106.8	1501.9	99.5	8.7	-2.1	-1.73	3.68	1.9243	402.1701
3005	1509384143	54.7205	-112.7487	2106.9	1501.9	99.6	8.7	-2.1	-1.73	3.68	1.9230	401.4806
3006	1509384144	54.7204	-112.7472	2107.0	1501.1	99.8	8.7	-2.0	-1.73	3.67	1.9222	400.1412
3007	1509384145	54.7202	-112.7457	2107.2	1500.0	100.0	8.6	-1.9	-1.74	3.67	1.9238	400.6909
3008	1509384146	54.7201	-112.7442	2107.4	1499.4	100.0	8.7	-1.9	-1.74	3.67	1.9247	400.8347
3009	1509384147	54.7199	-112.7427	2107.6	1499.6	100.0	8.6	-2.0	-1.74	3.67	1.9240	398.6893
3010	1509384148	54.7198	-112.7412	2107.8	1498.8	100.0	8.5	-2.0	-1.74	3.67	1.9236	401.2101
3011	1509384149	54.7196	-112.7399	2108.0	1498.0	100.1	8.5	-2.0	-1.74	3.67	1.9247	400.1199
3012	1509384150	54.7195	-112.7386	2108.3	1497.0	100.1	8.8	-2.0	-1.74	3.67	1.9230	400.1152
3013	1509384151	54.7193	-112.7371	2108.6	1497.3	100.1	8.9	-2.0	-1.74	3.66	1.9233	400.8607
3014	1509384152	54.7192	-112.7358	2108.8	1496.8	100.1	8.8	-2.1	-1.74	3.66	1.9234	399.4237
3015	1509384153	54.7191	-112.7345	2109.1	1497.1	100.1	8.8	-2.0	-1.74	3.66	1.9227	399.4237
3016	1509384154	54.7189	-112.7331	2109.3	1497.3	100.1	8.8	-2.0	-1.75	3.66	1.9229	400.7860
3017	1509384155	54.7188	-112.7318	2109.6	1497.6	100.1	8.7	-2.0	-1.75	3.66	1.9233	400.3167
3018	1509384156	54.7186	-112.7304	2109.7	1497.7	100.2	8.7	-1.9	-1.75	3.66	1.9242	400.6689
3019	1509384157	54.7185	-112.7290	2109.8	1496.1	100.1	8.7	-1.9	-1.75	3.66	1.9252	401.4765
3020	1509384158	54.7183	-112.7277	2109.8	1495.8	100.0	8.7	-2.0	-1.75	3.65	1.9237	400.4892
3021	1509384159	54.7182	-112.7263	2109.7	1494.7	99.8	9.0	-2.1	-1.75	3.65	1.9228	400.4892
3022	1509384160	54.7180	-112.7249	2109.5	1494.5	99.7	9.2	-2.2	-1.75	3.65	1.9235	401.4161
3023	1509384161	54.7179	-112.7235	2109.4	1494.4	99.7	9.2	-2.2	-1.75	3.65	1.9237	401.1947
3024	1509384162	54.7178	-112.7222	2109.2	1494.2	99.7	9.3	-2.1	-1.76	3.65	1.9237	400.6636
3025	1509384163	54.7176	-112.7208	2109.0	1494.0	99.8	9.3	-2.0	-1.76	3.65	1.9241	400.2094
3026	1509384164	54.7175	-112.7195	2108.7	1494.0	99.7	9.3	-2.1	-1.76	3.65	1.9242	400.8440
3027	1509384165	54.7174	-112.7182	2108.5	1494.5	99.6	9.4	-2.2	-1.76	3.64	1.9234	399.9940
3028	1509384166	54.7172	-112.7167	2108.3	1494.3	99.4	9.4	-2.2	-1.76	3.64	1.9235	399.9940
3029	1509384167	54.7171	-112.7154	2108.2	1493.2	99.4	9.4	-2.2	-1.76	3.64	1.9236	399.9940
3030	1509384168	54.7169	-112.7140	2108.3	1492.3	99.3	9.4	-2.2	-1.76	3.64	1.9237	399.9940
3031	1509384169	54.7168	-112.7126	2108.4	1492.3	99.3	9.4	-2.1	-1.76	3.64	1.9238	399.9940
3032	1509384170	54.7167	-112.7113	2108.7	1492.4	99.3	9.4	-2.1	-1.76	3.64	1.9239	399.9940
3033	1509384171	54.7165	-112.7099	2109.1	1491.1	99.2	9.4	-2.2	-1.77	3.64	1.9240	399.9940
3034	1509384172	54.7164	-112.7086	2109.6	1489.6	99.1	9.3	-2.2	-1.77	3.64	1.9241	399.9940
3035	1509384173	54.7163	-112.7073	2110.1	1490.1	99.1	9.3	-2.2	-1.77	3.63	1.9245	400.4958
3036	1509384174	54.7161	-112.7060	2110.7	1490.7	99.1	9.3	-2.2	-1.77	3.63	1.9245	400.6128
3037	1509384175	54.7161	-112.7059	2110.7	1490.7	99.1	9.3	-2.2	-1.77	3.63	1.9247	399.0984
3038	1509384176	54.7161	-112.7058	2110.8	1490.8	99.1	9.3	-2.2	-1.77	3.63	1.9247	400.3795
3039	1509384177	54.7161	-112.7057	2110.8	1490.8	99.1	9.3	-2.2	-1.77	3.63	1.9245	399.5550
3040	1509384178	54.7161	-112.7056	2110.8	1490.8	99.1	9.3	-2.1	-1.77	3.63	1.9239	400.6717
3041	1509384179	54.7161	-112.7055	2110.8	1490.8	99.1	9.3	-2.1	-1.77	3.63	1.9246	400.8820
3042	1509384180	54.7161	-112.7054	2110.9	1490.9	99.1	9.3	-2.1	-1.78	3.62	1.9250	400.4919
3043	1509384181	54.7161	-112.7051	2111.0	1491.0	99.1	9.3	-2.2	-1.78	3.62	1.9243	400.3583
3044	1509384182	54.7159	-112.7035	2111.4	1491.3	99.1	9.2	-2.2	-1.78	3.62	1.9247	399.2240
3045	1509384183	54.7158	-112.7020	2111.6	1491.6	99.1	9.3	-2.2	-1.78	3.62	1.9239	399.2240
3046	1509384184	54.7156	-112.7005	2111.6	1491.6	99.1	9.3	-2.1	-1.78	3.62	1.9251	399.6158
3047	1509384185	54.7155	-112.6990	2111.6	1490.6	99.1	9.3	-2.2	-1.78	3.62	1.9256	399.8221
3048	1509384186	54.7153	-112.6975	2111.4	1489.4	99.1	9.3	-2.2	-1.78	3.62	1.9247	400.8277
3049	1509384187	54.7152	-112.6959	2111.1	1488.1	99.2	8.9	-2.2	-1.78	3.61	1.9263	401.2192
3050	1509384188	54.7150	-112.6945	2110.8	1487.5	99.2	9.0	-2.3	-1.78	3.61	1.9241	400.9064
3051	1509384189	54.7149	-112.6929	2110.6	1487.6	99.1	9.0	-2.4	-1.79	3.61	1.9242	400.8891
3052	1509384190	54.7147	-112.6914	2110.3	1486.3	99.1	9.0	-2.5	-1.79	3.61	1.9248	400.4615
3053	1509384191	54.7146	-112.6899	2110.0	1486.0	99.1	9.1	-2.6	-1.79	3.61	1.9254	400.0339
3054	1509384192	54.7144	-112.6883	2109.8	1485.8	99.2	9.2	-2.6	-1.79	3.61	1.9250	400.9806
3055	1509384193	54.7143	-112.6868	2109.7	1484.7	99.3	9.2	-2.7	-1.79	3.61	1.9243	399.5161
3056	1509384194	54.7141	-112.6853	2109.6	1482.6	99.4	9.3	-2.6	-1.79	3.60	1.9238	401.5152
3057	1509384195	54.7140	-112.6838	2109.6	1481.9	99.4	9.3	-2.6	-1.79	3.60	1.9238	401.8728
3058	1509384196	54.7138	-112.6823	2109.7	1481.7	99.4	9.4	-2.6	-1.79	3.60	1.9242	400.2508
3059	1509384197	54.7136	-112.6808	2109.9	1480.9	99.5	9.8	-2.7	-1.80	3.60	1.9251	400.2508
3060	1509384198	54.7135	-112.6793	2110.1	1479.8	99.6	9.8	-2.6	-1.80	3.60	1.9256	400.1414
3061	1509384199	54.7133	-112.6777	2110.3	1479.4	99.8	9.8	-2.5	-1.80	3.60	1.9248	400.5972
3062	1509384200	54.7132	-112.6762	2110.5	1478.6	100.0	9.9	-2.3	-1.80	3.60	1.9258	400.5607
3063	1509384201	54.7130	-112.6747	2110.7	1476.6	99.9	9.8	-2.4	-1.80	3.59	1.9238	399.0119
3064	1509384202	54.7128	-112.6733	2110.7	1475.7	99.8	9.8	-2.4	-1.80	3.59	1.9242	400.1508
3065	1509384203	54.7127	-112.6717	2110.6	1475.7	99.7	9.8	-2.5	-1.80	3.59	1.9254	400.3987
3066	1509384204	54.7125	-112.6702	2110.5	1475.5	99.7	9.8	-2.5	-1.80	3.59	1.9254	400.9233
3067	1509384205	54.7124	-112.6687	2110.3	1475.3	99.7	9.8	-2.5	-1.80	3.59	1.9263	400.5930
3068	1509384206	54.7122	-112.6672	2110.1	1473.1	99.7	9.9	-2.5	-1.81	3.59	1.9263	400.2420
3069	1509384207	54.7121	-112.6657	2109.9	1472.9	99.6	9.9	-2.6	-1.81	3.59	1.9253	399.9478
3070	1509384208	54.7119	-112.6642	2109.7	1472.7	99.6	9.9	-2.6	-1.81	3.58	1.9239	401.1895
3071	1509384209	54.7117	-112.6627	2109.6	1473.6	99.8	9.9	-2.7	-1.81	3.58	1.9236	400.4423
3072	1509384210	54.7116	-112.6612	2109.4	1473.4	100.0	9.9	-2.5	-1.81	3.58	1.9241	400.6863
3073	1509384211	54.7114	-112.6597	2109.1	1474.1	100.1	10.0	-2.5	-1.81	3.58	1.9250	401.0632
3074	1509384212	54.7113	-112.6582	2108.8	1473.8	100.0	9.5	-2.6	-1.81	3.58	1.9249	401.0632
3075	1509384213	54.7111	-112.6567	2108.4	1473.4	100.0	9.5	-2.6	-1.81	3.58	1.9244	401.8060
3076	1509384214	54.7109	-112.6552	2108.1	1473.1	100.1	9.5	-2.6	-1.81	3.58	1.9232	400.7668
3077	1509384215	54.7108	-112.6536	2107.7	1472.7	100.2	9.5	-2.6	-1.82	3.57	1.9239	400.3343
3078	1509384216	54.7106	-112.6521	2107.3	1474.0	100.2	9.5	-2.5	-1.82	3.57	1.9243	400.7125
3079	1509384217	54.7104	-112.6506	2107.1	1475.8	100.0	9.5	-2.5	-1.82	3.57	1.9247	401.8721
3080	1509384218	54.7103	-112.6491	2107.1	1479.0	99.9	9.9	-2.6	-1.82	3.57	1.9241	400.1010
3081	1509384219	54.7101	-112.6475	2107.3	1481.4	99.8	9.9	-2.7	-1.82	3.57	1.9231	399.6264
3082	1509384220	54.7099	-112.6460	2107.9	1485.6	99.9	9.8	-2.5	-1.82	3.57	1.9228	399.2281
3083	1509384221	54.7098	-112.6445	2108.6	1487.7	99.8	9.7	-2.5	-1.82	3.57	1.9228	401.6241
3084	1509384222	54.7096	-112.6430	2109.4	1489.4	99.5	10.0	-2.7	-1.82	3.57	1.9228	401.1182
3085	1509384223	54.7095	-112.6414	2110.4	1491.4	99.3	10.0	-2.7	-1.82	3.56	1.9233	401.0633
3086	1509384224	54.7093	-112.6399	2111.3	1491.3	99.2	9.9	-2.7	-1.83	3.56	1.9242	400.8284
3087	1509384225	54.7092	-112.6384	2111.8	1490.8	99.3	9.8	-2.6	-1.83	3.56	1.9231	399.9516
3088	1509384226	54.7090	-112.6369	2112.0	1488.9	99.2	9.8	-2.6	-1.83	3.56	1.9228	399.9516
3089	1509384227	54.7089	-112.6353	2112.0	1487.0	99.1	9.8	-2.7	-1.83	3.56	1.9226	399.9516
3090	1509384228	54.7087	-112.6338	2111.7	1486.7	99.0	9.8	-2.7	-1.83	3.56	1.9224	399.9516
3091	1509384229	54.7085	-112.6323	2111.3	1486.3	98.9	9.8	-2.7	-1.83	3.56	1.9222	399.9516
3092	1509384230	54.7084	-112.6307	2110.7	1485.7	99.0	9.6	-2.5	-1.83	3.55	1.9227	398.8467
3093	1509384231	54.7082	-112.6292	2110.1	1484.3	99.0	9.4	-2.5	-1.83	3.55	1.9225	399.6935
3094	1509384232	54.7081	-112.6277	2109.6	1486.4	98.9	9.4	-2.4	-1.84	3.55	1.9223	400.3499
3095	1509384233	54.7080	-112.6262	2109.0	1489.0	98.8	9.4	-2.5	-1.84	3.55	1.9225	400.1950
3096	1509384234	54.7078	-112.6247	2108.5	1493.5	98.8	9.5	-2.5	-1.84	3.55	1.9216	400.5664
3097	1509384235	54.7077	-112.6238	2108.4	1495.4	98.8	9.5	-2.5	-1.84	3.55	1.9236	398.8781
3098	1509384236	54.7077	-112.6236	2108.3	1496.4	98.8	9.5	-2.5	-1.84	3.55	1.9224	400.1711
3099	1509384237	54.7077	-112.6233	2108.3	1497.0	98.8	9.5	-2.5	-1.84	3.54	1.9215	399.0112
3100	1509384238	54.7076	-112.6225	2108.2	1497.2	98.8	9.5	-2.5	-1.84	3.54	1.9219	399.8181
3101	1509384239	54.7074	-112.6209	2108.2	1497.2	98.8	10.0	-2.6	-1.84	3.54	1.9233	400.2547
3102	1509384240	54.7073	-112.6194	2108.5	1497.5	98.7	10.0	-2.6	-1.84	3.54	1.9231	400.0957
3103	1509384241	54.7072	-112.6179	2109.0	1498.0	98.6	9.9	-2.7	-1.85	3.54	1.9212	399.9630
3104	1509384242	54.7070	-112.6164	2109.8	1498.8	98.5	9.8	-2.7	-1.85	3.54	1.9217	399.9630
3105	1509384243	54.7069	-112.6149	2110.6	1499.6	98.6	9.8	-2.7	-1.85	3.54	1.9211	399.3124
3106	1509384244	54.7067	-112.6134	2111.4	1500.4	98.6	9.7	-2.7	-1.85	3.53	1.9213	399.8306
3107	1509384245	54.7066	-112.6119	2111.9	1500.9	98.6	9.7	-2.6	-1.85	3.53	1.9221	399.5801
3108	1509384246	54.7064	-112.6103	2111.9	1500.9	98.7	9.7	-2.5	-1.85	3.53	1.9232	400.6717
3109	1509384247	54.7063	-112.6089	2111.9	1500.9	98.7	9.7	-2.5	-1.85	3.53	1.9203	400.8247
3110	1509384248	54.7062	-112.6074	2111.7	1500.7	98.7	9.8	-2.6	-1.85	3.53	1.9222	399.2735
3111	1509384249	54.7060	-112.6059	2111.4	1500.4	98.7	9.9	-2.6	-1.85	3.53	1.9225	400.8702
3112	1509384250	54.7059	-112.6043	2111.1	1500.1	98.7	9.8	-2.6	-1.86	3.53	1.9220	401.5304
3113	1509384251	54.7057	-112.6028	2111.0	1500.0	98.7	9.5	-2.6	-1.86	3.52	1.9233	399.8701
3114	1509384252	54.7056	-112.6013	2110.9	1499.9	98.7	9.6	-2.6	-1.86	3.52	1.9222	399.8701
3115	1509384253	54.7054	-112.5998	2111.0	1500.0	98.7	10.0	-2.7	-1.86	3.52	1.9221	400.5362
3116	1509384254	54.7053	-112.5983	2111.2	1500.2	98.7	9.6	-2.6	-1.86	3.52	1.9245	400.3340
3117	1509384255	54.7051	-112.5967	2111.6	1500.6	98.8	9.5	-2.7	-1.86	3.52	1.9236	400.5895
3118	1509384256	54.7050	-112.5952	2112.0	1501.0	98.9	9.5	-2.6	-1.86	3.52	1.9235	400.5745
3119	1509384257	54.7048	-112.5937	2112.4	1501.4	99.0	9.6	-2.5	-1.86	3.52	1.9231	400.7755
3120	1509384258	54.7047	-112.5922	2112.8	1501.8	98.8	9.5	-2.6	-1.87	3.51	1.9247	399.1810
3121	1509384259	54.7046	-112.5908	2113.0	1502.0	98.8	9.6	-2.7	-1.87	3.51	1.9254	398.7981
3122	1509384260	54.7044	-112.5892	2113.0	1502.0	98.8	9.6	-2.8	-1.87	3.51	1.9245	400.5311
3123	1509384261	54.7042	-112.5877	2112.8	1501.8	99.1	9.7	-2.7	-1.87	3.51	1.9238	398.5003
3124	1509384262	54.7041	-112.5862	2112.5	1501.5	99.1	9.8	-2.7	-1.87	3.51	1.9234	400.9702
3125	1509384263	54.7039	-112.5846	2112.1	1502.1	99.2	9.9	-2.7	-1.87	3.51	1.9233	400.9570
3126	1509384264	54.7038	-112.5831	2111.7	1501.7	99.3	9.5	-2.7	-1.87	3.51	1.9239	400.3333
3127	1509384265	54.7036	-112.5816	2111.3	1501.3	99.4	9.5	-2.8	-1.87	3.51	1.9242	400.6442
3128	1509384266	54.7035	-112.5801	2110.9	1499.8	99.6	9.6	-2.8	-1.87	3.50	1.9247	400.4029
3129	1509384267	54.7033	-112.5787	2110.5	1500.5	99.8	9.6	-2.7	-1.88	3.50	1.9239	400.3637
3130	1509384268	54.7032	-112.5773	2110.2	1500.2	99.9	9.7	-2.6	-1.88	3.50	1.9226	400.7082
3131	1509384269	54.7030	-112.5759	2110.0	1500.0	100.0	9.4	-2.5	-1.88	3.50	1.9268	400.9063
3132	1509384270	54.7029	-112.5745	2109.7	1499.7	100.0	9.2	-2.5	-1.88	3.50	1.9264	401.3136
3133	1509384271	54.7027	-112.5731	2109.5	1499.5	100.0	9.3	-2.6	-1.88	3.50	1.9251	400.6218
3134	1509384272	54.7026	-112.5718	2109.3	1498.6	100.1	9.3	-2.7	-1.88	3.50	1.9246	400.3649
3135	1509384273	54.7024	-112.5704	2109.3	1499.0	100.2	9.3	-2.7	-1.88	3.49	1.9253	400.3999
3136	1509384274	54.7023	-112.5691	2109.3	1498.3	100.3	9.3	-2.7	-1.88	3.49	1.9266	398.2436
3137	1509384275	54.7021	-112.5676	2109.5	1497.5	100.4	9.3	-2.6	-1.88	3.49	1.9251	400.0827
3138	1509384276	54.7020	-112.5663	2109.8	1496.8	100.4	9.5	-2.8	-1.89	3.49	1.9251	399.9437
3139	1509384277	54.7018	-112.5649	2110.3	1495.4	100.5	9.6	-2.8	-1.89	3.49	1.9245	400.3180
3140	1509384278	54.7017	-112.5636	2110.8	1493.6	100.5	9.6	-2.8	-1.89	3.49	1.9247	399.3107
3141	1509384279	54.7015	-112.5623	2111.3	1492.4	100.5	9.5	-2.8	-1.89	3.49	1.9248	399.5141
3142	1509384280	54.7013	-112.5607	2111.7	1490.7	100.6	9.5	-2.8	-1.89	3.48	1.9259	400.6722
3143	1509384281	54.7012	-112.5594	2112.1	1490.1	100.6	9.4	-2.7	-1.89	3.48	1.9264	401.2540
3144	1509384282	54.7010	-112.5580	2112.4	1489.4	100.6	9.4	-2.7	-1.89	3.48	1.9268	401.8641
3145	1509384283	54.7009	-112.5566	2112.8	1491.3	100.5	9.4	-2.7	-1.89	3.48	1.9263	401.0670
3146	1509384284	54.7007	-112.5552	2113.0	1493.6	100.4	9.3	-2.8	-1.89	3.48	1.9248	400.5310
3147	1509384285	54.7006	-112.5539	2113.2	1495.2	100.3	9.3	-2.8	-1.90	3.48	1.9247	400.6832
3148	1509384286	54.7004	-112.5526	2113.2	1495.5	100.2	9.4	-2.7	-1.90	3.48	1.9245	399.7572
3149	1509384287	54.7003	-112.5512	2113.3	1496.3	100.1	9.3	-2.7	-1.90	3.47	1.9243	399.7572
3150	1509384288	54.7001	-112.5499	2113.3	1497.3	100.1	9.3	-2.6	-1.90	3.47	1.9240	399.7572
3151	1509384289	54.7000	-112.5485	2113.3	1498.3	100.0	9.3	-2.6	-1.90	3.47	1.9238	399.7572
3152	1509384290	54.6998	-112.5471	2113.3	1500.3	99.7	9.3	-2.7	-1.90	3.47	1.9242	400.4926
3153	1509384291	54.6997	-112.5458	2113.2	1501.9	99.6	9.3	-2.7	-1.90	3.47	1.9241	399.0454
3154	1509384292	54.6995	-112.5443	2113.2	1502.5	99.5	9.3	-2.7	-1.90	3.47	1.9230	400.7219
3155	1509384293	54.6994	-112.5430	2113.3	1503.3	99.4	9.3	-2.7	-1.91	3.47	1.9237	400.2790
3156	1509384294	54.6992	-112.5417	2113.3	1501.3	99.3	9.3	-2.7	-1.91	3.46	1.9237	399.9279
3157	1509384295	54.6992	-112.5416	2113.3	1500.6	99.3	9.3	-2.7	-1.91	3.46	1.9239	399.9893
3158	1509384296	54.6992	-112.5414	2113.4	1500.4	99.3	9.3	-2.6	-1.91	3.46	1.9238	400.1148
3159	1509384297	54.6992	-112.5412	2113.4	1500.5	99.3	9.3	-2.6	-1.91	3.46	1.9257	400.1148
3160	1509384298	54.6991	-112.5406	2113.5	1499.3	99.3	9.3	-2.6	-1.91	3.46	1.9245	399.2919
3161	1509384299	54.6990	-112.5391	2113.6	1494.6	99.0	9.2	-2.7	-1.91	3.46	1.9240	399.2919
3162	1509384300	54.6988	-112.5376	2113.7	1491.4	98.7	9.3	-2.8	-1.91	3.46	1.9258	401.3679
3163	1509384301	54.6987	-112.5361	2113.6	1485.5	98.6	9.2	-2.9	-1.91	3.45	1.9241	399.9092
3164	1509384302	54.6985	-112.5346	2113.5	1482.8	98.6	9.3	-3.0	-1.92	3.45	1.9245	400.4469
3165	1509384303	54.6984	-112.5331	2113.2	1477.9	98.7	9.3	-2.9	-1.92	3.45	1.9254	400.4469
3166	1509384304	54.6983	-112.5317	2113.1	1473.3	98.9	9.4	-2.8	-1.92	3.45	1.9260	399.3111
3167	1509384305	54.6981	-112.5301	2113.0	1469.8	99.0	9.4	-2.7	-1.92	3.45	1.9253	401.9942
3168	1509384306	54.6980	-112.5286	2112.9	1467.9	98.7	9.4	-2.9	-1.92	3.45	1.9254	401.9942
3169	1509384307	54.6978	-112.5271	2112.7	1465.7	98.7	9.5	-2.8	-1.92	3.45	1.9257	399.4090
3170	1509384308	54.6977	-112.5256	2112.5	1464.8	98.7	9.5	-2.9	-1.92	3.45	1.9252	399.5036
3171	1509384309	54.6975	-112.5241	2112.4	1461.5	98.8	9.6	-2.8	-1.92	3.44	1.9244	400.4711
3172	1509384310	54.6974	-112.5225	2112.3	1459.0	98.8	9.6	-2.9	-1.92	3.44	1.9257	399.2796
3173	1509384311	54.6972	-112.5210	2112.2	1457.2	98.8	9.7	-2.9	-1.93	3.44	1.9244	399.2796
3174	1509384312	54.6971	-112.5195	2112.1	1457.1	98.6	9.2	-2.9	-1.93	3.44	1.9264	401.1437
3175	1509384313	54.6969	-112.5180	2112.1	1460.5	98.7	9.1	-3.0	-1.93	3.44	1.9248	402.2142
3176	1509384314	54.6968	-112.5165	2112.0	1460.3	98.7	9.2	-3.0	-1.93	3.44	1.9251	401.1705
3177	1509384315	54.6966	-112.5150	2111.9	1459.8	98.9	9.2	-2.9	-1.93	3.44	1.9255	401.5056
3178	1509384316	54.6965	-112.5135	2111.8	1460.4	98.8	9.2	-3.0	-1.93	3.43	1.9247	400.9221
3179	1509384317	54.6963	-112.5119	2111.8	1463.8	98.7	9.3	-3.1	-1.93	3.43	1.9249	400.8517
3180	1509384318	54.6961	-112.5103	2111.8	1464.8	98.8	9.3	-3.1	-1.93	3.43	1.9245	400.4574
3181	1509384319	54.6960	-112.5088	2111.7	1468.2	98.9	9.3	-3.2	-1.93	3.43	1.9239	400.1292
3182	1509384320	54.6958	-112.5073	2111.7	1470.3	99.0	9.3	-3.2	-1.94	3.43	1.9238	401.1869
3183	1509384321	54.6957	-112.5057	2111.6	1475.1	99.0	9.3	-3.2	-1.94	3.43	1.9243	399.7540
3184	1509384322	54.6955	-112.5042	2111.5	1478.6	99.0	9.3	-3.3	-1.94	3.43	1.9249	400.6493
3185	1509384323	54.6954	-112.5028	2111.5	1480.5	99.1	9.3	-3.3	-1.94	3.42	1.9260	401.5666
3186	1509384324	54.6952	-112.5012	2111.4	1482.8	99.2	9.4	-3.3	-1.94	3.42	1.9262	401.9257
3187	1509384325	54.6950	-112.4996	2111.3	1484.0	99.2	9.4	-3.3	-1.94	3.42	1.9257	400.4899
3188	1509384326	54.6949	-112.4981	2111.2	1485.2	99.3	9.4	-3.3	-1.94	3.42	1.9247	400.4899
3189	1509384327	54.6947	-112.4965	2111.1	1485.1	99.3	9.4	-3.4	-1.94	3.42	1.9257	401.8755
3190	1509384328	54.6945	-112.4950	2111.0	1485.1	99.3	9.4	-3.4	-1.95	3.42	1.9242	401.6932
3191	1509384329	54.6944	-112.4935	2111.0	1486.3	99.3	9.4	-3.4	-1.95	3.42	1.9242	398.3837
3192	1509384330	54.6942	-112.4921	2111.0	1488.1	99.3	9.4	-3.5	-1.95	3.41	1.9247	400.6216
3193	1509384331	54.6941	-112.4907	2111.0	1487.9	99.3	9.5	-3.6	-1.95	3.41	1.9241	401.4628
3194	1509384332	54.6939	-112.4893	2110.9	1487.9	99.3	9.3	-3.6	-1.95	3.41	1.9249	400.5030
3195	1509384333	54.6938	-112.4880	2110.7	1487.7	99.3	9.0	-3.5	-1.95	3.41	1.9245	400.1141
3196	1509384334	54.6936	-112.4865	2110.5	1489.4	99.2	9.0	-3.6	-1.95	3.41	1.9245	399.8679
3197	1509384335	54.6935	-112.4851	2110.2	1493.9	99.2	9.1	-3.6	-1.95	3.41	1.9253	401.0107
3198	1509384336	54.6933	-112.4838	2109.8	1497.1	99.2	9.1	-3.5	-1.95	3.41	1.9235	399.9805
3199	1509384337	54.6932	-112.4824	2109.3	1498.3	99.1	9.1	-3.6	-1.96	3.40	1.9252	401.0447
3200	1509384338	54.6930	-112.4810	2108.9	1497.9	99.0	9.2	-3.8	-1.96	3.40	1.9245	400.8887
3201	1509384339	54.6929	-112.4796	2108.5	1497.5	99.1	9.2	-3.7	-1.96	3.40	1.9239	400.8154
3202	1509384340	54.6927	-112.4782	2108.1	1497.1	99.1	9.2	-3.8	-1.96	3.40	1.9242	400.8052
3203	1509384341	54.6926	-112.4769	2107.9	1496.9	99.1	9.2	-3.8	-1.96	3.40	1.9245	401.1524
3204	1509384342	54.6925	-112.4755	2108.0	1497.0	99.2	9.2	-3.7	-1.96	3.40	1.9253	400.2031
3205	1509384343	54.6923	-112.4741	2108.2	1497.2	99.1	9.2	-3.7	-1.96	3.40	1.9245	400.1818
3206	1509384344	54.6921	-112.4727	2108.6	1497.6	99.0	9.1	-3.7	-1.96	3.39	1.9239	399.8131
3207	1509384345	54.6920	-112.4713	2108.9	1497.9	98.9	9.0	-3.7	-1.96	3.39	1.9263	398.6666
3208	1509384346	54.6919	-112.4700	2109.1	1494.8	98.9	9.0	-3.7	-1.97	3.39	1.9261	398.6666
3209	1509384347	54.6917	-112.4686	2109.3	1494.0	98.9	9.0	-3.7	-1.97	3.39	1.9258	398.6666
3210	1509384348	54.6916	-112.4671	2109.3	1491.3	98.9	8.9	-3.7	-1.97	3.39	1.9255	398.6666
3211	1509384349	54.6914	-112.4658	2109.4	1491.0	98.9	8.9	-3.7	-1.97	3.39	1.9253	398.6666
3212	1509384350	54.6913	-112.4644	2109.5	1489.4	98.9	8.8	-3.8	-1.97	3.39	1.9250	398.6666
3213	1509384351	54.6911	-112.4631	2109.6	1488.9	98.9	8.8	-3.5	-1.97	3.38	1.9247	398.6666
3214	1509384352	54.6910	-112.4617	2109.8	1488.3	98.9	8.8	-3.5	-1.97	3.38	1.9245	398.6666
3215	1509384353	54.6908	-112.4602	2110.0	1487.8	99.0	8.8	-3.3	-1.97	3.38	1.9242	401.3379
3216	1509384354	54.6907	-112.4590	2110.3	1487.3	98.8	8.8	-3.4	-1.97	3.38	1.9241	399.1416
3217	1509384355	54.6907	-112.4589	2110.3	1487.3	98.8	8.9	-3.4	-1.98	3.38	1.9269	401.3089
3218	1509384356	54.6907	-112.4588	2110.3	1487.4	98.8	9.0	-3.4	-1.98	3.38	1.9250	399.7585
3219	1509384357	54.6907	-112.4587	2110.3	1487.4	98.8	9.0	-3.5	-1.98	3.38	1.9244	399.8721
3220	1509384358	54.6907	-112.4586	2110.4	1487.0	98.7	9.1	-3.5	-1.98	3.38	1.9241	400.6630
3221	1509384359	54.6907	-112.4585	2110.4	1487.1	98.7	9.2	-3.5	-1.98	3.37	1.9248	400.5039
3222	1509384360	54.6906	-112.4584	2110.4	1487.1	98.7	9.2	-3.5	-1.98	3.37	1.9241	400.6102
3223	1509384361	54.6906	-112.4583	2110.4	1486.6	98.7	9.1	-3.5	-1.98	3.37	1.9249	401.3518
3224	1509384362	54.6905	-112.4567	2110.6	1486.3	98.6	9.1	-3.5	-1.98	3.37	1.9237	399.4475
3225	1509384363	54.6903	-112.4552	2110.8	1484.8	98.5	9.2	-3.5	-1.99	3.37	1.9247	401.0550
3226	1509384364	54.6902	-112.4536	2111.0	1483.2	98.5	9.1	-3.5	-1.99	3.37	1.9250	401.1928
3227	1509384365	54.6900	-112.4521	2111.1	1481.4	98.5	9.1	-3.5	-1.99	3.37	1.9251	398.6635
3228	1509384366	54.6899	-112.4506	2111.2	1481.1	98.4	9.0	-3.6	-1.99	3.36	1.9259	399.0599
3229	1509384367	54.6897	-112.4491	2111.3	1482.3	98.1	8.9	-3.7	-1.99	3.36	1.9260	401.2835
3230	1509384368	54.6896	-112.4476	2111.5	1481.4	98.1	8.9	-3.7	-1.99	3.36	1.9252	401.3653
3231	1509384369	54.6894	-112.4460	2111.7	1480.7	98.1	8.9	-3.7	-1.99	3.36	1.9250	401.4141
3232	1509384370	54.6893	-112.4445	2111.7	1481.7	98.1	8.9	-3.6	-1.99	3.36	1.9246	401.2134
3233	1509384371	54.6891	-112.4430	2111.7	1482.6	98.1	8.9	-3.6	-1.99	3.36	1.9256	399.5110
3234	1509384372	54.6890	-112.4414	2111.5	1484.5	98.1	8.9	-3.5	-2.00	3.36	1.9241	401.1621
3235	1509384373	54.6888	-112.4398	2111.2	1485.2	98.0	8.9	-3.5	-2.00	3.35	1.9247	401.2111
3236	1509384374	54.6887	-112.4383	2110.9	1484.9	98.1	9.0	-3.4	-2.00	3.35	1.9252	399.2982
3237	1509384375	54.6885	-112.4367	2110.6	1484.6	98.1	9.0	-3.4	-2.00	3.35	1.9251	400.3689
3238	1509384376	54.6884	-112.4352	2110.4	1484.6	98.0	9.0	-3.4	-2.00	3.35	1.9254	400.6396
3239	1509384377	54.6882	-112.4336	2110.3	1486.3	97.9	9.1	-3.5	-2.00	3.35	1.9250	400.9137
3240	1509384378	54.6881	-112.4321	2110.3	1487.3	97.9	9.0	-3.4	-2.00	3.35	1.9253	400.4518
3241	1509384379	54.6879	-112.4306	2110.3	1488.3	97.8	9.1	-3.6	-2.00	3.35	1.9232	400.8442
3242	1509384380	54.6878	-112.4291	2110.4	1488.4	97.8	9.1	-3.5	-2.00	3.34	1.9239	400.1357
3243	1509384381	54.6876	-112.4275	2110.6	1488.6	97.9	9.1	-3.5	-2.01	3.34	1.9240	400.2672
3244	1509384382	54.6875	-112.4260	2110.7	1489.5	97.9	9.1	-3.4	-2.01	3.34	1.9232	399.6583
3245	1509384383	54.6873	-112.4244	2110.7	1489.9	97.7	8.9	-3.5	-2.01	3.34	1.9234	400.2976
3246	1509384384	54.6872	-112.4229	2110.8	1489.8	97.6	8.6	-3.5	-2.01	3.34	1.9243	401.3463
3247	1509384385	54.6871	-112.4213	2110.9	1490.9	97.5	8.6	-3.5	-2.01	3.34	1.9245	398.2376
3248	1509384386	54.6869	-112.4198	2111.1	1496.3	97.5	8.6	-3.5	-2.01	3.34	1.9249	400.9622
3249	1509384387	54.6868	-112.4182	2111.2	1498.4	97.5	8.6	-3.5	-2.01	3.33	1.9237	399.3877
3250	1509384388	54.6866	-112.4168	2111.3	1500.9	97.5	8.6	-3.5	-2.01	3.33	1.9232	400.3983
3251	1509384389	54.6865	-112.4153	2111.4	1499.4	97.5	8.6	-3.4	-2.02	3.33	1.9241	400.3983
3252	1509384390	54.6864	-112.4137	2111.3	1499.3	97.6	8.7	-3.4	-2.02	3.33	1.9244	401.0255
3253	1509384391	54.6862	-112.4121	2111.1	1501.1	97.6	8.7	-3.4	-2.02	3.33	1.9234	400.0286
3254	1509384392	54.6861	-112.4106	2110.8	1501.5	97.5	8.7	-3.5	-2.02	3.33	1.9231	400.8227
3255	1509384393	54.6859	-112.4091	2110.4	1502.4	97.5	8.4	-3.5	-2.02	3.33	1.9230	400.3099
3256	1509384394	54.6858	-112.4076	2109.9	1504.8	97.5	8.5	-3.6	-2.02	3.32	1.9239	400.1594
3257	1509384395	54.6857	-112.4060	2109.4	1511.6	97.6	8.6	-3.7	-2.02	3.32	1.9242	400.5190
3258	1509384396	54.6855	-112.4045	2108.9	1508.9	97.8	8.7	-3.4	-2.02	3.32	1.9235	399.6225
3259	1509384397	54.6854	-112.4030	2108.5	1504.5	97.8	8.7	-3.5	-2.02	3.32	1.9238	400.3602
3260	1509384398	54.6852	-112.4014	2108.2	1497.0	97.8	8.3	-3.6	-2.03	3.32	1.9232	399.8435
3261	1509384399	54.6851	-112.3999	2108.1	1497.8	97.8	8.3	-3.7	-2.03	3.32	1.9231	399.6359
3262	1509384400	54.6849	-112.3983	2108.3	1496.3	97.9	8.3	-3.7	-2.03	3.32	1.9243	399.3401
3263	1509384401	54.6848	-112.3968	2108.6	1497.6	98.1	8.3	-3.6	-2.03	3.32	1.9250	400.8038
3264	1509384402	54.6846	-112.3953	2109.1	1496.1	98.1	8.4	-3.6	-2.03	3.31	1.9250	401.0162
3265	1509384403	54.6845	-112.3937	2109.5	1496.5	98.1	8.3	-3.7	-2.03	3.31	1.9249	399.6598
3266	1509384404	54.6843	-112.3922	2109.7	1497.6	98.2	8.3	-3.7	-2.03	3.31	1.9242	400.7647
3267	1509384405	54.6842	-112.3906	2109.7	1498.7	98.3	8.3	-3.7	-2.03	3.31	1.9239	400.7117
3268	1509384406	54.6840	-112.3891	2109.6	1499.6	98.5	8.3	-3.6	-2.03	3.31	1.9237	400.8618
3269	1509384407	54.6839	-112.3876	2109.4	1499.4	98.5	8.4	-3.7	-2.04	3.31	1.9235	401.0119
3270	1509384408	54.6837	-112.3860	2109.3	1500.3	98.6	8.5	-3.6	-2.04	3.31	1.9234	401.1619
3271	1509384409	54.6835	-112.3844	2109.3	1500.4	98.6	8.5	-3.7	-2.04	3.30	1.9232	401.3120
3272	1509384410	54.6834	-112.3828	2109.4	1501.4	98.6	8.5	-3.7	-2.04	3.30	1.9230	401.4621
3273	1509384411	54.6832	-112.3813	2109.7	1503.7	98.6	8.6	-3.6	-2.04	3.30	1.9228	401.6121
3274	1509384412	54.6830	-112.3798	2110.1	1505.8	98.6	8.6	-3.6	-2.04	3.30	1.9226	401.7622
3275	1509384413	54.6829	-112.3782	2110.4	1507.1	98.5	8.2	-3.7	-2.04	3.30	1.9232	400.3986
3276	1509384414	54.6827	-112.3767	2110.6	1508.4	98.6	8.2	-3.7	-2.04	3.30	1.9234	401.3644
3277	1509384415	54.6826	-112.3759	2110.6	1508.6	98.6	8.2	-3.8	-2.04	3.30	1.9247	400.8179
3278	1509384416	54.6826	-112.3758	2110.6	1508.8	98.6	8.2	-3.8	-2.05	3.29	1.9232	400.3466
3279	1509384417	54.6826	-112.3757	2110.6	1508.8	98.6	8.2	-3.8	-2.05	3.29	1.9234	401.3771
3280	1509384418	54.6826	-112.3755	2110.7	1509.7	98.6	8.2	-3.8	-2.05	3.29	1.9245	401.0391
3281	1509384419	54.6826	-112.3754	2110.7	1509.7	98.6	8.2	-3.8	-2.05	3.29	1.9236	400.5049
3282	1509384420	54.6826	-112.3753	2110.7	1509.7	98.6	8.2	-3.8	-2.05	3.29	1.9235	400.5593
3283	1509384421	54.6826	-112.3750	2110.7	1509.7	98.6	8.2	-3.8	-2.05	3.29	1.9244	400.7078
3284	1509384422	54.6824	-112.3735	2110.8	1510.8	98.7	7.9	-3.8	-2.05	3.29	1.9242	400.9747
3285	1509384423	54.6822	-112.3718	2111.0	1512.0	98.8	7.8	-3.7	-2.05	3.28	1.9235	400.5407
3286	1509384424	54.6821	-112.3703	2111.1	1512.1	98.8	7.9	-3.7	-2.06	3.28	1.9227	401.3099
3287	1509384425	54.6819	-112.3687	2111.3	1514.3	98.8	8.0	-3.8	-2.06	3.28	1.9247	401.0707
3288	1509384426	54.6817	-112.3672	2111.5	1516.2	98.8	8.0	-3.8	-2.06	3.28	1.9232	398.4890
3289	1509384427	54.6816	-112.3657	2111.4	1516.8	98.9	7.9	-3.7	-2.06	3.28	1.9239	400.8839
3290	1509384428	54.6814	-112.3642	2111.2	1517.7	99.0	7.8	-3.6	-2.06	3.28	1.9232	400.7144
3291	1509384429	54.6812	-112.3626	2110.8	1518.8	99.0	7.9	-3.6	-2.06	3.28	1.9243	400.7919
3292	1509384430	54.6811	-112.3610	2110.3	1519.1	99.0	8.0	-3.6	-2.06	3.27	1.9235	400.6719
3293	1509384431	54.6809	-112.3594	2110.0	1519.7	98.9	8.1	-3.8	-2.06	3.27	1.9232	400.6719
3294	1509384432	54.6807	-112.3579	2109.7	1519.1	98.9	8.2	-3.7	-2.06	3.27	1.9233	401.3295
3295	1509384433	54.6806	-112.3563	2109.6	1519.9	99.1	8.3	-3.6	-2.07	3.27	1.9240	401.3373
3296	1509384434	54.6804	-112.3547	2109.7	1519.7	99.1	8.3	-3.6	-2.07	3.27	1.9229	401.3373
3297	1509384435	54.6802	-112.3531	2110.0	1520.6	99.2	8.3	-3.5	-2.07	3.27	1.9250	400.8077
3298	1509384436	54.6801	-112.3515	2110.6	1523.3	99.2	8.4	-3.4	-2.07	3.27	1.9238	401.2352
3299	1509384437	54.6799	-112.3500	2111.1	1525.4	99.2	8.4	-3.4	-2.07	3.26	1.9229	399.6435
3300	1509384438	54.6797	-112.3483	2111.3	1526.2	99.0	8.5	-3.5	-2.07	3.26	1.9245	400.1730
3301	1509384439	54.6795	-112.3467	2111.5	1528.5	99.0	8.5	-3.4	-2.07	3.26	1.9241	400.8661
3302	1509384440	54.6794	-112.3451	2111.5	1528.2	99.1	8.6	-3.5	-2.07	3.26	1.9244	400.6072
3303	1509384441	54.6792	-112.3435	2111.5	1528.1	99.0	8.6	-3.7	-2.07	3.26	1.9232	399.3775
3304	1509384442	54.6790	-112.3419	2111.6	1528.7	99.1	8.6	-3.5	-2.08	3.26	1.9239	399.5807
3305	1509384443	54.6789	-112.3404	2111.8	1528.8	99.1	8.2	-3.5	-2.08	3.26	1.9236	401.3175
3306	1509384444	54.6787	-112.3388	2112.0	1531.0	99.3	8.3	-3.3	-2.08	3.25	1.9230	400.2725
3307	1509384445	54.6785	-112.3373	2112.4	1531.3	99.1	8.3	-3.4	-2.08	3.25	1.9242	399.6380
3308	1509384446	54.6784	-112.3357	2112.7	1532.4	99.1	8.3	-3.4	-2.08	3.25	1.9234	400.8217
3309	1509384447	54.6782	-112.3342	2113.1	1533.9	98.9	8.3	-3.5	-2.08	3.25	1.9235	401.0613
3310	1509384448	54.6781	-112.3326	2113.4	1536.4	98.9	8.4	-3.5	-2.08	3.25	1.9247	400.6873
3311	1509384449	54.6779	-112.3311	2113.8	1537.8	98.9	8.3	-3.4	-2.08	3.25	1.9248	401.4564
3312	1509384450	54.6777	-112.3295	2114.1	1538.1	98.9	8.4	-3.4	-2.08	3.25	1.9239	401.4564
3313	1509384451	54.6776	-112.3279	2114.5	1538.5	98.8	8.4	-3.5	-2.09	3.25	1.9237	400.4378
3314	1509384452	54.6774	-112.3264	2115.0	1539.0	98.6	8.3	-3.6	-2.09	3.24	1.9249	400.2569
3315	1509384453	54.6772	-112.3248	2115.5	1539.5	98.6	8.3	-3.6	-2.09	3.24	1.9242	400.1615
3316	1509384454	54.6771	-112.3233	2116.1	1540.1	98.5	8.3	-3.6	-2.09	3.24	1.9250	400.4709
3317	1509384455	54.6769	-112.3217	2116.7	1540.7	98.4	8.3	-3.6	-2.09	3.24	1.9239	400.5462
3318	1509384456	54.6768	-112.3201	2117.2	1541.2	98.3	8.3	-3.6	-2.09	3.24	1.9249	401.1733
3319	1509384457	54.6766	-112.3185	2117.3	1541.3	98.1	8.4	-3.6	-2.09	3.24	1.9244	401.4083
3320	1509384458	54.6765	-112.3169	2117.0	1541.0	98.1	8.5	-3.6	-2.09	3.24	1.9244	400.0004
3321	1509384459	54.6763	-112.3153	2116.8	1540.8	98.1	8.6	-3.7	-2.10	3.23	1.9257	400.0004
3322	1509384460	54.6761	-112.3137	2116.7	1540.7	98.1	8.6	-3.6	-2.10	3.23	1.9234	399.2370
3323	1509384461	54.6760	-112.3120	2116.6	1540.6	98.1	8.7	-3.5	-2.10	3.23	1.9241	399.7845
3324	1509384462	54.6758	-112.3105	2116.4	1540.4	98.0	8.4	-3.4	-2.10	3.23	1.9245	401.3570
3325	1509384463	54.6757	-112.3088	2116.1	1540.1	98.0	8.4	-3.4	-2.10	3.23	1.9248	401.7944
3326	1509384464	54.6755	-112.3073	2115.8	1539.8	97.9	8.5	-3.4	-2.10	3.23	1.9233	399.5508
3327	1509384465	54.6754	-112.3057	2115.3	1540.0	97.9	8.6	-3.5	-2.10	3.23	1.9241	400.9202
3328	1509384466	54.6752	-112.3042	2114.7	1539.7	97.9	8.6	-3.6	-2.10	3.22	1.9259	400.7948
3329	1509384467	54.6751	-112.3026	2114.1	1538.1	98.0	8.7	-3.5	-2.10	3.22	1.9255	400.4977
3330	1509384468	54.6749	-112.3010	2113.7	1533.6	98.1	8.8	-3.5	-2.11	3.22	1.9252	400.2006
3331	1509384469	54.6748	-112.2994	2113.3	1531.4	98.2	8.9	-3.4	-2.11	3.22	1.9249	399.9260
3332	1509384470	54.6746	-112.2978	2113.2	1529.2	98.1	8.9	-3.5	-2.11	3.22	1.9231	400.9535
3333	1509384471	54.6745	-112.2962	2113.4	1527.4	98.1	8.9	-3.5	-2.11	3.22	1.9241	399.9864
3334	1509384472	54.6743	-112.2945	2113.7	1525.7	98.1	8.9	-3.5	-2.11	3.22	1.9244	400.6483
3335	1509384473	54.6741	-112.2928	2113.8	1524.8	98.1	9.0	-3.6	-2.11	3.21	1.9238	400.0906
3336	1509384474	54.6740	-112.2912	2113.8	1523.8	98.1	9.0	-3.6	-2.11	3.21	1.9237	399.8540
3337	1509384475	54.6739	-112.2906	2113.8	1523.8	98.2	9.0	-3.5	-2.11	3.21	1.9231	400.7179
3338	1509384476	54.6739	-112.2903	2113.8	1523.8	98.2	9.0	-3.5	-2.11	3.21	1.9237	400.3735
3339	1509384477	54.6739	-112.2901	2113.8	1522.7	98.2	9.0	-3.5	-2.12	3.21	1.9228	401.0159
3340	1509384478	54.6738	-112.2892	2113.8	1522.5	98.1	9.0	-3.6	-2.12	3.21	1.9230	400.8753
3341	1509384479	54.6736	-112.2876	2113.8	1520.5	98.1	9.0	-3.7	-2.12	3.21	1.9240	400.9232
3342	1509384480	54.6735	-112.2860	2113.8	1518.8	98.3	8.8	-3.6	-2.12	3.20	1.9225	400.6111
3343	1509384481	54.6733	-112.2843	2113.8	1517.8	98.4	8.5	-3.6	-2.12	3.20	1.9222	400.9094
3344	1509384482	54.6731	-112.2827	2113.8	1516.8	98.4	8.5	-3.6	-2.12	3.20	1.9227	399.9208
3345	1509384483	54.6730	-112.2811	2113.5	1516.5	98.3	8.5	-3.7	-2.12	3.20	1.9226	401.4901
3346	1509384484	54.6728	-112.2795	2113.0	1515.0	98.3	8.6	-3.9	-2.12	3.20	1.9240	400.3071
3347	1509384485	54.6727	-112.2779	2112.6	1514.5	98.4	8.7	-4.0	-2.12	3.20	1.9237	400.3071
3348	1509384486	54.6725	-112.2763	2112.1	1515.0	98.6	8.7	-3.9	-2.13	3.20	1.9234	399.6605
3349	1509384487	54.6723	-112.2747	2111.7	1515.5	98.6	8.8	-3.6	-2.13	3.19	1.9238	401.2022
3350	1509384488	54.6722	-112.2732	2111.3	1518.0	98.4	8.8	-3.8	-2.13	3.19	1.9242	401.0128
3351	1509384489	54.6720	-112.2717	2111.0	1518.9	98.3	8.9	-3.8	-2.13	3.19	1.9254	400.8757
3352	1509384490	54.6719	-112.2700	2110.9	1520.9	98.2	8.9	-3.9	-2.13	3.19	1.9253	400.9273
3353	1509384491	54.6717	-112.2684	2111.3	1522.3	98.2	8.9	-3.8	-2.13	3.19	1.9239	401.2501
3354	1509384492	54.6715	-112.2668	2112.0	1525.0	98.1	8.9	-3.7	-2.13	3.19	1.9242	401.0925
3355	1509384493	54.6714	-112.2652	2112.8	1526.8	98.0	9.3	-3.7	-2.13	3.19	1.9232	400.8394
3356	1509384494	54.6712	-112.2637	2113.3	1528.3	97.7	9.2	-3.8	-2.14	3.19	1.9242	400.1217
3357	1509384495	54.6711	-112.2620	2113.6	1530.6	97.6	8.7	-3.8	-2.14	3.18	1.9239	401.9355
3358	1509384496	54.6709	-112.2604	2113.6	1531.6	97.4	8.7	-3.8	-2.14	3.18	1.9246	399.9007
3359	1509384497	54.6708	-112.2588	2113.6	1532.5	97.5	8.7	-3.8	-2.14	3.18	1.9230	401.5812
3360	1509384498	54.6706	-112.2572	2113.5	1533.5	97.4	8.8	-3.8	-2.14	3.18	1.9229	401.4532
3361	1509384499	54.6705	-112.2557	2113.2	1534.3	97.4	8.8	-3.8	-2.14	3.18	1.9247	399.6095
3362	1509384500	54.6704	-112.2540	2112.9	1534.0	97.3	8.9	-3.8	-2.14	3.18	1.9233	400.0719
3363	1509384501	54.6702	-112.2524	2112.5	1533.6	97.2	8.9	-3.8	-2.14	3.18	1.9242	400.4532
3364	1509384502	54.6701	-112.2508	2112.0	1534.2	97.2	9.0	-3.8	-2.14	3.17	1.9237	400.5830
3365	1509384503	54.6699	-112.2492	2111.6	1534.6	97.2	9.1	-3.7	-2.15	3.17	1.9246	401.2658
3366	1509384504	54.6698	-112.2476	2111.2	1534.5	97.1	9.2	-3.7	-2.15	3.17	1.9256	400.2932
3367	1509384505	54.6696	-112.2460	2110.9	1533.9	97.0	9.2	-3.7	-2.15	3.17	1.9227	400.2932
3368	1509384506	54.6695	-112.2444	2110.7	1534.7	96.9	9.2	-3.8	-2.15	3.17	1.9226	400.0319
3369	1509384507	54.6694	-112.2428	2110.7	1534.7	96.8	9.2	-3.9	-2.15	3.17	1.9226	400.9508
3370	1509384508	54.6692	-112.2414	2111.0	1535.0	96.8	9.2	-4.0	-2.15	3.17	1.9231	400.6793
3371	1509384509	54.6691	-112.2399	2111.5	1537.5	96.8	9.2	-4.0	-2.15	3.16	1.9225	400.6557
3372	1509384510	54.6690	-112.2386	2112.0	1538.3	96.8	9.1	-4.0	-2.15	3.16	1.9224	400.8130
3373	1509384511	54.6689	-112.2370	2112.7	1538.7	96.8	9.0	-4.0	-2.15	3.16	1.9232	399.6499
3374	1509384512	54.6687	-112.2356	2113.4	1540.4	96.8	9.0	-4.0	-2.16	3.16	1.9245	401.1688
3375	1509384513	54.6686	-112.2342	2113.9	1540.9	96.9	8.9	-4.0	-2.16	3.16	1.9234	400.6762
3376	1509384514	54.6685	-112.2327	2114.3	1542.3	96.9	8.9	-3.9	-2.16	3.16	1.9232	400.6002
3377	1509384515	54.6683	-112.2312	2114.3	1542.3	97.0	8.9	-3.9	-2.16	3.16	1.9234	400.3708
3378	1509384516	54.6682	-112.2297	2114.1	1543.1	97.0	8.9	-3.8	-2.16	3.15	1.9264	401.3704
3379	1509384517	54.6681	-112.2283	2113.8	1542.8	97.0	9.0	-3.8	-2.16	3.15	1.9238	401.5154
3380	1509384518	54.6680	-112.2269	2113.5	1541.5	96.9	9.0	-4.0	-2.16	3.15	1.9240	399.7706
3381	1509384519	54.6678	-112.2254	2113.2	1541.2	96.9	9.0	-3.9	-2.16	3.15	1.9259	399.8387
3382	1509384520	54.6677	-112.2241	2113.1	1542.0	97.0	9.0	-4.0	-2.17	3.15	1.9249	400.7237
3383	1509384521	54.6676	-112.2225	2113.1	1542.1	97.0	8.8	-3.8	-2.17	3.15	1.9242	400.7237
3384	1509384522	54.6675	-112.2210	2113.1	1542.1	97.0	8.5	-3.7	-2.17	3.15	1.9246	400.7340
3385	1509384523	54.6673	-112.2196	2113.3	1542.3	96.9	8.5	-3.7	-2.17	3.14	1.9245	400.7340
3386	1509384524	54.6672	-112.2181	2113.3	1541.3	96.9	8.4	-3.7	-2.17	3.14	1.9242	400.7738
3387	1509384525	54.6671	-112.2167	2113.4	1541.4	96.9	8.4	-3.7	-2.17	3.14	1.9260	400.0128
3388	1509384526	54.6669	-112.2152	2113.4	1541.4	96.9	8.6	-3.7	-2.17	3.14	1.9259	399.6542
3389	1509384527	54.6668	-112.2138	2113.5	1540.5	96.9	8.9	-3.8	-2.17	3.14	1.9259	399.6542
3390	1509384528	54.6667	-112.2123	2113.5	1540.5	96.9	9.0	-3.7	-2.17	3.14	1.9258	399.6542
3391	1509384529	54.6666	-112.2109	2113.5	1540.5	96.8	8.9	-3.6	-2.18	3.14	1.9257	399.6542
3392	1509384530	54.6664	-112.2094	2113.4	1540.4	96.7	8.9	-3.7	-2.18	3.13	1.9273	400.3295
3393	1509384531	54.6663	-112.2081	2113.2	1540.2	96.6	8.9	-3.7	-2.18	3.13	1.9252	401.2138
3394	1509384532	54.6662	-112.2065	2113.0	1540.1	96.6	8.9	-3.7	-2.18	3.13	1.9246	400.9098
3395	1509384533	54.6661	-112.2050	2112.8	1538.8	96.6	8.9	-3.7	-2.18	3.13	1.9254	401.1227
3396	1509384534	54.6660	-112.2037	2112.6	1537.9	96.6	8.9	-3.8	-2.18	3.13	1.9245	400.4168
3397	1509384535	54.6660	-112.2035	2112.6	1537.6	96.6	8.9	-3.8	-2.18	3.13	1.9245	401.2503
3398	1509384536	54.6659	-112.2033	2112.6	1537.6	96.6	8.9	-3.9	-2.18	3.13	1.9243	401.1826
3399	1509384537	54.6659	-112.2031	2112.6	1537.6	96.6	8.9	-3.9	-2.18	3.12	1.9255	400.3480
3400	1509384538	54.6659	-112.2024	2112.6	1537.8	96.6	8.9	-3.8	-2.19	3.12	1.9278	400.4698
3401	1509384539	54.6657	-112.2008	2112.7	1536.7	96.7	8.9	-3.7	-2.19	3.12	1.9249	401.3554
3402	1509384540	54.6656	-112.1992	2112.9	1535.9	96.8	8.8	-3.7	-2.19	3.12	1.9252	400.2904
3403	1509384541	54.6655	-112.1976	2113.4	1534.4	96.8	8.8	-3.7	-2.19	3.12	1.9246	400.1881
3404	1509384542	54.6653	-112.1960	2113.9	1533.9	96.8	8.7	-3.7	-2.19	3.12	1.9252	399.9300
3405	1509384543	54.6652	-112.1944	2114.3	1533.5	96.9	8.7	-3.6	-2.19	3.12	1.9245	399.3554
3406	1509384544	54.6650	-112.1927	2114.6	1531.9	96.9	8.6	-3.6	-2.19	3.12	1.9259	400.6536
3407	1509384545	54.6649	-112.1912	2114.7	1531.4	96.9	8.7	-3.6	-2.19	3.11	1.9232	401.0866
3408	1509384546	54.6648	-112.1896	2114.6	1529.6	96.9	8.7	-3.7	-2.19	3.11	1.9235	400.8501
3409	1509384547	54.6646	-112.1880	2114.3	1529.3	96.8	8.3	-3.7	-2.20	3.11	1.9249	400.9016
3410	1509384548	54.6645	-112.1863	2114.2	1528.2	96.9	8.2	-3.9	-2.20	3.11	1.9250	400.4228
3411	1509384549	54.6643	-112.1847	2114.1	1527.2	97.0	8.3	-3.8	-2.20	3.11	1.9243	401.1634
3412	1509384550	54.6642	-112.1831	2114.3	1525.9	97.2	8.2	-3.7	-2.20	3.11	1.9241	399.7878
3413	1509384551	54.6640	-112.1814	2114.8	1525.4	97.1	8.6	-3.8	-2.20	3.11	1.9233	400.1929
3414	1509384552	54.6639	-112.1798	2115.2	1524.4	97.1	8.7	-3.8	-2.20	3.10	1.9232	398.9481
3415	1509384553	54.6638	-112.1782	2115.6	1524.6	97.1	8.3	-3.8	-2.20	3.10	1.9231	400.4762
3416	1509384554	54.6636	-112.1766	2115.9	1524.5	97.1	8.2	-3.8	-2.20	3.10	1.9230	401.3809
3417	1509384555	54.6635	-112.1750	2116.0	1524.0	97.0	8.2	-4.0	-2.21	3.10	1.9233	400.7172
3418	1509384556	54.6633	-112.1734	2115.9	1524.9	97.0	8.3	-4.0	-2.21	3.10	1.9237	400.7454
3419	1509384557	54.6632	-112.1718	2115.7	1526.0	96.9	8.3	-4.2	-2.21	3.10	1.9245	400.1587
3420	1509384558	54.6630	-112.1702	2115.3	1527.3	96.9	8.4	-4.2	-2.21	3.10	1.9224	399.7990
3421	1509384559	54.6629	-112.1687	2114.8	1527.8	97.0	8.5	-4.1	-2.21	3.09	1.9240	399.9031
3422	1509384560	54.6628	-112.1671	2114.4	1527.4	97.2	8.6	-4.0	-2.21	3.09	1.9245	400.6566
3423	1509384561	54.6626	-112.1654	2114.0	1527.0	97.2	8.6	-4.0	-2.21	3.09	1.9235	400.6906
3424	1509384562	54.6625	-112.1638	2113.7	1525.7	97.3	8.4	-4.0	-2.21	3.09	1.9235	400.3587
3425	1509384563	54.6623	-112.1622	2113.2	1524.2	97.3	8.2	-4.0	-2.21	3.09	1.9241	398.9660
3426	1509384564	54.6622	-112.1606	2112.7	1522.7	97.4	8.3	-3.9	-2.22	3.09	1.9247	400.0915
3427	1509384565	54.6620	-112.1590	2112.2	1521.2	97.4	8.4	-4.0	-2.22	3.09	1.9245	400.0915
3428	1509384566	54.6619	-112.1574	2111.6	1520.6	97.4	8.4	-4.0	-2.22	3.08	1.9232	400.1035
3429	1509384567	54.6617	-112.1558	2111.1	1519.1	97.4	8.4	-4.0	-2.22	3.08	1.9240	400.8561
3430	1509384568	54.6616	-112.1542	2110.7	1517.6	97.4	8.4	-4.1	-2.22	3.08	1.9249	400.5528
3431	1509384569	54.6614	-112.1528	2110.4	1515.3	97.4	8.5	-4.2	-2.22	3.08	1.9230	400.6100
3432	1509384570	54.6613	-112.1513	2110.3	1513.3	97.3	8.1	-4.3	-2.22	3.08	1.9246	401.2952
3433	1509384571	54.6612	-112.1498	2110.4	1511.7	97.4	7.8	-4.3	-2.22	3.08	1.9247	400.8259
3434	1509384572	54.6610	-112.1485	2110.6	1510.7	97.5	7.8	-4.4	-2.22	3.08	1.9238	401.9768
3435	1509384573	54.6609	-112.1471	2110.9	1509.8	97.5	7.9	-4.4	-2.23	3.07	1.9236	401.9768
3436	1509384574	54.6607	-112.1456	2111.1	1511.0	97.7	8.2	-4.4	-2.23	3.07	1.9230	401.2892
3437	1509384575	54.6606	-112.1440	2111.4	1513.4	97.7	8.1	-4.4	-2.23	3.07	1.9242	400.1486
3438	1509384576	54.6604	-112.1426	2111.6	1514.9	97.7	8.1	-4.5	-2.23	3.07	1.9234	399.9420
3439	1509384577	54.6603	-112.1412	2111.8	1515.8	97.7	8.1	-4.5	-2.23	3.07	1.9244	400.4066
3440	1509384578	54.6602	-112.1398	2112.0	1516.1	97.8	8.0	-4.4	-2.23	3.07	1.9238	400.4066
3441	1509384579	54.6600	-112.1383	2112.4	1515.7	97.9	7.9	-4.3	-2.23	3.07	1.9236	400.0262
3442	1509384580	54.6599	-112.1368	2112.9	1517.6	97.9	7.9	-4.2	-2.23	3.06	1.9230	399.9563
3443	1509384581	54.6597	-112.1354	2113.3	1517.9	97.8	7.8	-4.2	-2.23	3.06	1.9234	401.0026
3444	1509384582	54.6596	-112.1340	2113.6	1518.6	97.7	7.8	-4.2	-2.24	3.06	1.9231	400.3080
3445	1509384583	54.6594	-112.1325	2113.8	1518.8	97.7	7.8	-4.2	-2.24	3.06	1.9234	401.3766
3446	1509384584	54.6593	-112.1309	2113.8	1518.2	97.6	7.7	-4.2	-2.24	3.06	1.9236	401.8059
3447	1509384585	54.6591	-112.1296	2113.7	1517.6	97.5	7.7	-4.3	-2.24	3.06	1.9242	401.4642
3448	1509384586	54.6590	-112.1282	2113.7	1516.6	97.4	7.7	-4.4	-2.24	3.06	1.9228	401.1849
3449	1509384587	54.6589	-112.1267	2113.9	1517.9	97.2	7.6	-4.5	-2.24	3.06	1.9230	401.0316
3450	1509384588	54.6587	-112.1252	2114.1	1518.1	97.3	7.6	-4.5	-2.24	3.05	1.9231	400.8783
3451	1509384589	54.6586	-112.1238	2114.4	1520.7	97.1	7.5	-4.7	-2.24	3.05	1.9233	400.7250
3452	1509384590	54.6585	-112.1223	2114.7	1522.1	97.1	7.5	-4.4	-2.25	3.05	1.9250	400.6058
3453	1509384591	54.6583	-112.1209	2114.9	1522.6	97.1	7.5	-4.3	-2.25	3.05	1.9240	400.5983
3454	1509384592	54.6582	-112.1194	2115.0	1521.4	96.9	7.4	-4.5	-2.25	3.05	1.9232	400.9066
3455	1509384593	54.6581	-112.1179	2114.9	1520.9	96.9	7.4	-4.3	-2.25	3.05	1.9224	401.2433
3456	1509384594	54.6579	-112.1166	2114.6	1521.6	96.9	7.5	-4.3	-2.25	3.05	1.9229	401.1338
3457	1509384595	54.6579	-112.1164	2114.5	1521.6	96.9	7.5	-4.3	-2.25	3.04	1.9228	399.7650
3458	1509384596	54.6579	-112.1162	2114.5	1521.5	96.9	7.5	-4.2	-2.25	3.04	1.9231	400.8516
3459	1509384597	54.6579	-112.1160	2114.4	1521.4	96.9	7.5	-4.2	-2.25	3.04	1.9236	400.7538
3460	1509384598	54.6578	-112.1152	2114.2	1522.2	96.9	7.5	-4.1	-2.25	3.04	1.9232	401.3524
3461	1509384599	54.6577	-112.1136	2113.7	1523.8	96.8	7.6	-4.0	-2.26	3.04	1.9246	401.2737
3462	1509384600	54.6575	-112.1119	2113.2	1525.2	96.8	7.6	-3.9	-2.26	3.04	1.9239	399.4397
3463	1509384601	54.6574	-112.1103	2112.8	1524.8	96.5	7.6	-4.2	-2.26	3.04	1.9250	399.5787
3464	1509384602	54.6572	-112.1086	2112.6	1524.6	96.3	7.6	-4.2	-2.26	3.03	1.9233	400.8014
3465	1509384603	54.6571	-112.1071	2112.5	1525.5	96.3	7.6	-4.1	-2.26	3.03	1.9233	399.7882
3466	1509384604	54.6570	-112.1055	2112.5	1525.5	96.2	7.9	-4.2	-2.26	3.03	1.9231	400.3258
3467	1509384605	54.6568	-112.1038	2112.6	1524.9	96.1	8.1	-4.2	-2.26	3.03	1.9240	400.5967
3468	1509384606	54.6567	-112.1023	2112.6	1524.7	96.0	8.1	-4.2	-2.26	3.03	1.9236	395.8660
3469	1509384607	54.6566	-112.1007	2112.6	1524.3	95.9	8.1	-4.2	-2.26	3.03	1.9227	395.8660
3470	1509384608	54.6564	-112.0990	2112.6	1523.5	96.0	8.1	-4.1	-2.27	3.03	1.9251	400.6643
3471	1509384609	54.6563	-112.0975	2112.5	1524.5	96.0	8.0	-4.2	-2.27	3.02	1.9232	399.8546
3472	1509384610	54.6562	-112.0959	2112.3	1524.3	96.0	8.0	-4.0	-2.27	3.02	1.9239	399.9365
3473	1509384611	54.6560	-112.0942	2112.1	1524.4	96.0	8.1	-4.0	-2.27	3.02	1.9251	400.2078
3474	1509384612	54.6559	-112.0926	2111.9	1523.9	95.9	7.7	-4.1	-2.27	3.02	1.9258	398.2554
3475	1509384613	54.6558	-112.0911	2111.6	1522.6	95.8	7.5	-4.2	-2.27	3.02	1.9235	398.2554
3476	1509384614	54.6557	-112.0895	2111.4	1522.8	95.8	7.5	-4.2	-2.27	3.02	1.9241	400.6976
3477	1509384615	54.6555	-112.0878	2111.3	1524.3	95.8	7.5	-4.3	-2.27	3.02	1.9238	400.9630
3478	1509384616	54.6554	-112.0862	2111.2	1523.2	96.0	7.5	-4.2	-2.27	3.01	1.9239	400.1540
3479	1509384617	54.6553	-112.0846	2111.2	1523.8	95.9	7.5	-4.4	-2.28	3.01	1.9232	399.8990
3480	1509384618	54.6551	-112.0830	2111.2	1527.9	95.9	7.5	-4.4	-2.28	3.01	1.9242	399.8990
3481	1509384619	54.6550	-112.0814	2111.3	1530.3	96.0	7.4	-4.6	-2.28	3.01	1.9249	399.6049
3482	1509384620	54.6549	-112.0798	2111.4	1532.2	96.1	7.3	-4.6	-2.28	3.01	1.9236	399.3659
3483	1509384621	54.6547	-112.0782	2111.5	1533.6	96.2	7.3	-4.5	-2.28	3.01	1.9246	399.4691
3484	1509384622	54.6546	-112.0767	2111.7	1534.7	96.4	7.4	-4.3	-2.28	3.01	1.9250	401.5425
3485	1509384623	54.6545	-112.0751	2111.8	1537.1	96.4	7.3	-4.3	-2.28	3.00	1.9242	400.2136
3486	1509384624	54.6543	-112.0734	2111.9	1538.9	96.5	7.6	-4.3	-2.28	3.00	1.9239	400.3954
3487	1509384625	54.6542	-112.0718	2111.6	1538.6	96.5	7.8	-4.3	-2.29	3.00	1.9230	399.9210
3488	1509384626	54.6540	-112.0702	2110.3	1537.3	96.8	8.0	-4.1	-2.29	3.00	1.9235	399.4945
3489	1509384627	54.6539	-112.0688	2108.1	1535.8	96.9	7.9	-4.0	-2.29	3.00	1.9230	400.1570
3490	1509384628	54.6538	-112.0673	2104.9	1532.9	97.0	8.0	-4.0	-2.29	3.00	1.9240	401.4051
3491	1509384629	54.6536	-112.0658	2101.3	1528.4	97.0	8.1	-4.0	-2.29	3.00	1.9253	399.4737
3492	1509384630	54.6535	-112.0644	2097.6	1523.6	97.1	8.2	-4.0	-2.30	3.00	1.9244	399.4737
3493	1509384631	54.6534	-112.0629	2094.2	1520.2	97.1	8.2	-4.0	-2.31	3.01	1.9239	400.9865
3494	1509384632	54.6532	-112.0615	2091.0	1518.1	97.2	8.3	-4.0	-2.31	3.02	1.9248	400.4214
3495	1509384633	54.6531	-112.0600	2088.2	1514.3	97.4	8.4	-3.9	-2.31	3.02	1.9246	400.2563
3496	1509384634	54.6530	-112.0585	2085.5	1509.2	97.4	8.2	-3.9	-2.31	3.02	1.9257	400.0584
3497	1509384635	54.6528	-112.0570	2082.8	1504.8	97.5	8.3	-3.8	-2.31	3.03	1.9246	401.0625
3498	1509384636	54.6527	-112.0556	2080.4	1501.7	97.5	8.1	-3.9	-2.31	3.04	1.9234	400.1522
3499	1509384637	54.6526	-112.0544	2078.4	1499.9	97.5	8.2	-3.8	-2.31	3.04	1.9237	400.1627
3500	1509384638	54.6524	-112.0528	2075.6	1497.6	97.6	8.5	-3.7	-2.31	3.04	1.9234	400.7334
3501	1509384639	54.6523	-112.0511	2072.7	1494.7	97.8	8.7	-3.7	-2.30	3.06	1.9232	398.7999
3502	1509384640	54.6521	-112.0496	2069.7	1491.7	97.9	8.4	-3.5	-2.29	3.06	1.9238	400.2527
3503	1509384641	54.6520	-112.0481	2067.0	1490.0	97.9	8.5	-3.6	-2.29	3.06	1.9249	400.8896
3504	1509384642	54.6519	-112.0466	2064.2	1487.2	97.8	8.3	-3.8	-2.28	3.06	1.9239	401.1063
3505	1509384643	54.6517	-112.0450	2061.4	1483.4	97.9	8.4	-3.9	-2.27	3.06	1.9230	400.4672
3506	1509384644	54.6516	-112.0437	2059.4	1481.4	98.0	8.5	-4.1	-2.27	3.06	1.9262	400.9879
3507	1509384645	54.6514	-112.0421	2057.3	1479.0	98.1	8.6	-4.0	-2.26	3.06	1.9226	400.4734
3508	1509384646	54.6513	-112.0406	2055.5	1477.5	98.3	8.2	-4.0	-2.24	3.07	1.9235	400.2892
3509	1509384647	54.6511	-112.0391	2053.7	1475.7	98.4	8.3	-3.9	-2.23	3.08	1.9244	400.2892
3510	1509384648	54.6510	-112.0376	2051.9	1473.9	98.4	8.2	-4.0	-2.22	3.08	1.9253	400.2892
3511	1509384649	54.6508	-112.0361	2049.5	1471.5	98.4	8.3	-4.2	-2.19	3.08	1.9261	400.6740
3512	1509384650	54.6506	-112.0345	2047.0	1470.0	98.5	8.0	-4.2	-2.17	3.09	1.9241	398.6212
3513	1509384651	54.6505	-112.0330	2044.5	1468.5	98.8	8.0	-4.1	-2.15	3.10	1.9243	400.1130
3514	1509384652	54.6503	-112.0315	2042.3	1466.3	99.1	8.1	-3.9	-2.13	3.12	1.9244	401.2317
3515	1509384653	54.6501	-112.0300	2040.2	1464.2	99.2	8.2	-4.0	-2.11	3.12	1.9246	396.4580
3516	1509384654	54.6500	-112.0286	2038.6	1462.6	99.4	8.3	-3.9	-2.09	3.13	1.9245	400.0251
3517	1509384655	54.6500	-112.0284	2038.3	1462.3	99.4	8.3	-3.9	-2.08	3.13	1.9248	399.8289
3518	1509384656	54.6500	-112.0282	2038.1	1462.1	99.4	8.3	-3.9	-2.06	3.14	1.9248	400.6778
3519	1509384657	54.6499	-112.0279	2037.8	1461.8	99.4	8.3	-4.0	-2.04	3.15	1.9247	401.3554
3520	1509384658	54.6498	-112.0271	2037.0	1462.0	99.5	8.3	-3.9	-2.02	3.16	1.9248	400.9594
3521	1509384659	54.6497	-112.0255	2035.3	1461.3	99.7	8.1	-3.8	-2.00	3.16	1.9246	399.7870
3522	1509384660	54.6495	-112.0239	2033.5	1460.5	99.7	7.8	-3.6	-1.98	3.16	1.9247	400.0404
3523	1509384661	54.6493	-112.0222	2031.4	1459.4	99.8	7.9	-3.6	-1.96	3.16	1.9232	400.6664
3524	1509384662	54.6491	-112.0204	2028.8	1457.8	99.8	8.0	-3.6	-1.94	3.18	1.9244	400.3427
3525	1509384663	54.6489	-112.0187	2025.7	1455.7	99.8	8.1	-3.8	-1.92	3.18	1.9236	400.2145
3526	1509384664	54.6487	-112.0170	2022.6	1452.6	99.8	8.3	-3.8	-1.89	3.19	1.9242	400.1951
3527	1509384665	54.6485	-112.0153	2019.8	1451.1	99.8	8.3	-3.9	-1.86	3.20	1.9245	400.6317
3528	1509384666	54.6483	-112.0137	2017.3	1453.3	99.8	8.4	-3.8	-1.85	3.21	1.9251	400.6127
3529	1509384667	54.6481	-112.0120	2015.2	1457.9	99.7	8.4	-4.0	-1.83	3.22	1.9238	400.3001
3530	1509384668	54.6479	-112.0103	2013.3	1464.3	99.8	8.4	-4.0	-1.81	3.22	1.9236	400.0248
3531	1509384669	54.6477	-112.0086	2011.6	1468.6	100.0	8.5	-3.7	-1.80	3.24	1.9224	400.2304
3532	1509384670	54.6475	-112.0069	2009.8	1465.6	99.9	8.5	-3.7	-1.79	3.24	1.9227	400.9867
3533	1509384671	54.6473	-112.0053	2007.5	1459.5	99.8	8.6	-3.8	-1.78	3.26	1.9239	400.6649
3534	1509384672	54.6472	-112.0036	2004.8	1452.8	99.7	8.2	-3.8	-1.77	3.26	1.9237	401.3600
3535	1509384673	54.6470	-112.0018	2001.9	1446.7	99.6	8.3	-3.8	-1.74	3.26	1.9235	400.5348
3536	1509384674	54.6468	-112.0002	1999.1	1441.5	99.6	8.4	-3.8	-1.72	3.28	1.9220	400.3602
3537	1509384675	54.6466	-111.9985	1996.7	1437.6	99.5	8.5	-3.8	-1.70	3.28	1.9239	399.9254
3538	1509384676	54.6464	-111.9967	1994.6	1432.6	99.4	8.5	-3.8	-1.68	3.28	1.9235	397.7731
3539	1509384677	54.6462	-111.9949	1992.5	1427.8	99.1	8.6	-3.9	-1.65	3.28	1.9254	400.1118
3540	1509384678	54.6460	-111.9933	1990.4	1424.5	99.0	8.6	-3.9	-1.63	3.28	1.9278	400.1118
3541	1509384679	54.6458	-111.9916	1988.0	1420.9	98.9	8.7	-3.9	-1.61	3.28	1.9295	399.8787
3542	1509384680	54.6457	-111.9900	1985.2	1417.2	98.7	8.8	-3.9	-1.60	3.28	1.9290	399.8775
3543	1509384681	54.6455	-111.9883	1982.2	1413.1	98.4	8.5	-4.0	-1.59	3.30	1.9287	398.5626
3544	1509384682	54.6453	-111.9866	1979.5	1411.5	98.3	8.4	-4.2	-1.58	3.40	1.9271	399.7323
3545	1509384683	54.6451	-111.9848	1977.2	1409.2	98.2	8.4	-4.2	-1.58	3.53	1.9276	399.7987
3546	1509384684	54.6450	-111.9830	1975.0	1407.1	98.2	8.5	-4.1	-1.58	3.68	1.9286	399.1891
3547	1509384685	54.6448	-111.9814	1973.0	1402.0	98.1	8.4	-4.0	-1.58	3.83	1.9295	398.6252
3548	1509384686	54.6446	-111.9796	1970.9	1397.9	98.0	8.5	-4.0	-1.58	3.97	1.9291	399.7558
3549	1509384687	54.6445	-111.9780	1968.7	1393.7	97.9	8.1	-4.1	-1.58	4.15	1.9282	399.2408
3550	1509384688	54.6443	-111.9764	1966.3	1391.3	97.8	7.9	-4.0	-1.59	4.30	1.9287	398.8485
3551	1509384689	54.6442	-111.9749	1963.9	1389.6	97.9	7.9	-3.9	-1.60	4.45	1.9301	399.0791
3552	1509384690	54.6440	-111.9733	1961.3	1387.3	97.9	8.0	-3.8	-1.61	4.59	1.9293	399.4216
3553	1509384691	54.6439	-111.9718	1958.9	1384.9	97.9	8.0	-3.8	-1.62	4.74	1.9287	398.4425
3554	1509384692	54.6437	-111.9702	1956.4	1381.4	97.8	7.9	-3.8	-1.62	4.90	1.9283	398.4425
3555	1509384693	54.6436	-111.9687	1954.2	1377.1	97.7	7.6	-3.6	-1.63	5.06	1.9299	398.1750
3556	1509384694	54.6434	-111.9671	1952.2	1374.3	97.5	7.5	-3.6	-1.64	5.22	1.9293	398.2547
3557	1509384695	54.6433	-111.9656	1950.5	1371.5	97.5	7.4	-3.6	-1.66	5.38	1.9289	398.7448
3558	1509384696	54.6431	-111.9641	1948.7	1369.7	97.3	7.5	-3.7	-1.67	5.53	1.9293	398.6609
3559	1509384697	54.6430	-111.9625	1946.6	1367.6	97.1	7.9	-3.8	-1.68	5.68	1.9288	398.2892
3560	1509384698	54.6429	-111.9610	1944.2	1366.2	96.9	7.8	-3.9	-1.69	5.82	1.9289	398.2626
3561	1509384699	54.6427	-111.9594	1941.5	1363.5	96.9	7.5	-3.8	-1.70	5.97	1.9301	398.2235
3562	1509384700	54.6426	-111.9578	1938.6	1360.6	96.9	7.5	-3.7	-1.71	6.09	1.9288	398.5042
3563	1509384701	54.6425	-111.9563	1936.1	1356.1	96.9	7.5	-3.7	-1.72	6.25	1.9283	397.4064
3564	1509384702	54.6423	-111.9547	1933.6	1351.6	96.8	7.6	-3.6	-1.73	6.36	1.9297	397.4064
3565	1509384703	54.6422	-111.9532	1931.6	1351.6	96.8	7.5	-3.6	-1.74	6.50	1.9288	395.5485
3566	1509384704	54.6421	-111.9516	1929.7	1351.6	96.8	7.5	-3.4	-1.74	6.60	1.9296	395.5485
3567	1509384705	54.6419	-111.9501	1927.7	1351.8	96.8	7.5	-3.3	-1.74	6.72	1.9294	395.8622
3568	1509384706	54.6418	-111.9485	1925.7	1350.7	96.7	7.4	-3.3	-1.74	6.83	1.9289	399.3883
3569	1509384707	54.6417	-111.9470	1923.7	1349.7	96.7	7.0	-3.1	-1.74	6.94	1.9291	399.1632
3570	1509384708	54.6416	-111.9455	1921.7	1348.7	96.7	6.8	-3.0	-1.75	7.07	1.9292	398.9382
3571	1509384709	54.6414	-111.9439	1919.5	1346.5	96.8	6.8	-2.7	-1.76	7.22	1.9294	398.7131
3572	1509384710	54.6413	-111.9424	1917.5	1344.5	96.6	6.8	-2.7	-1.76	7.37	1.9301	399.2681
3573	1509384711	54.6412	-111.9410	1916.0	1344.0	96.4	7.1	-2.9	-1.76	7.52	1.9302	399.5138
3574	1509384712	54.6411	-111.9393	1914.2	1343.2	96.2	7.1	-3.0	-1.77	7.64	1.9286	399.2142
3575	1509384713	54.6410	-111.9377	1912.6	1342.6	96.2	7.0	-3.0	-1.76	7.76	1.9289	398.8920
3576	1509384714	54.6409	-111.9363	1911.3	1341.3	96.3	6.9	-2.6	-1.76	7.86	1.9297	397.6483
3577	1509384715	54.6408	-111.9361	1911.1	1341.1	96.3	6.9	-2.6	-1.77	7.97	1.9291	397.9208
3578	1509384716	54.6408	-111.9359	1910.8	1340.8	96.3	6.9	-2.6	-1.77	8.07	1.9296	398.4476
3579	1509384717	54.6408	-111.9356	1910.6	1340.6	96.3	6.9	-2.5	-1.78	8.17	1.9290	394.6000
3580	1509384718	54.6407	-111.9347	1909.5	1339.5	96.2	7.4	-2.6	-1.79	8.28	1.9288	398.7438
3581	1509384719	54.6406	-111.9330	1907.4	1338.5	96.0	7.3	-2.8	-1.79	8.38	1.9294	399.3190
3582	1509384720	54.6405	-111.9313	1904.9	1335.9	95.7	7.2	-3.1	-1.80	8.48	1.9302	398.6997
3583	1509384721	54.6404	-111.9296	1902.0	1334.0	95.6	7.3	-3.2	-1.80	8.58	1.9302	397.1079
3584	1509384722	54.6403	-111.9279	1898.9	1330.9	95.5	7.3	-3.4	-1.81	8.69	1.9288	397.9300
3585	1509384723	54.6401	-111.9262	1895.8	1328.8	95.3	7.2	-3.7	-1.82	8.79	1.9285	398.7651
3586	1509384724	54.6400	-111.9246	1893.3	1328.0	95.3	7.2	-3.8	-1.82	8.89	1.9292	398.4851
3587	1509384725	54.6399	-111.9229	1890.7	1324.8	95.3	7.2	-4.0	-1.82	8.95	1.9288	398.6650
3588	1509384726	54.6398	-111.9212	1888.3	1320.2	95.5	7.2	-3.9	-1.81	9.00	1.9295	398.2848
3589	1509384727	54.6396	-111.9195	1885.4	1317.4	95.6	7.2	-3.9	-1.79	9.05	1.9304	399.3301
3590	1509384728	54.6395	-111.9178	1882.2	1314.2	95.6	7.1	-3.8	-1.78	9.10	1.9290	398.3720
3591	1509384729	54.6394	-111.9160	1878.6	1309.6	95.8	6.8	-3.7	-1.79	9.16	1.9293	398.2303
3592	1509384730	54.6392	-111.9143	1874.9	1304.0	95.9	7.0	-3.6	-1.78	9.21	1.9285	398.2303
3593	1509384731	54.6391	-111.9127	1871.3	1299.1	96.1	7.1	-3.4	-1.77	9.26	1.9294	398.1185
3594	1509384732	54.6390	-111.9109	1867.7	1292.2	96.3	7.2	-3.1	-1.75	9.32	1.9291	398.7359
3595	1509384733	54.6388	-111.9092	1864.7	1286.6	96.4	7.2	-3.0	-1.75	9.38	1.9288	398.5792
3596	1509384734	54.6387	-111.9074	1861.8	1282.8	96.4	7.2	-3.0	-1.75	9.46	1.9280	398.4055
3597	1509384735	54.6386	-111.9057	1859.1	1279.7	96.4	7.3	-3.0	-1.73	9.53	1.9283	398.5125
3598	1509384736	54.6384	-111.9039	1856.5	1277.3	96.6	7.3	-2.8	-1.72	9.61	1.9272	399.6524
3599	1509384737	54.6383	-111.9022	1854.0	1275.6	96.8	7.3	-2.6	-1.71	9.73	1.9272	397.7854
3600	1509384738	54.6382	-111.9005	1850.9	1271.8	97.0	7.4	-2.3	-1.70	9.86	1.9272	398.4485
3601	1509384739	54.6380	-111.8987	1847.3	1269.3	97.3	7.5	-2.1	-1.69	10.00	1.9265	399.0310
3602	1509384740	54.6379	-111.8969	1843.4	1264.4	97.5	7.7	-1.8	-1.68	10.15	1.9277	399.0310
3603	1509384741	54.6377	-111.8952	1839.7	1261.8	97.7	7.5	-1.5	-1.68	10.31	1.9264	396.6460
3604	1509384742	54.6376	-111.8935	1835.9	1260.9	97.9	7.5	-1.3	-1.68	10.48	1.9282	398.5010
3605	1509384743	54.6375	-111.8918	1832.3	1258.3	98.0	7.6	-1.3	-1.68	10.66	1.9276	397.2156
3606	1509384744	54.6373	-111.8900	1828.7	1255.7	98.0	7.3	-1.3	-1.68	10.84	1.9268	397.2109
3607	1509384745	54.6372	-111.8883	1825.6	1254.7	98.1	7.2	-1.4	-1.68	11.09	1.9262	398.9925
3608	1509384746	54.6370	-111.8866	1822.5	1253.2	98.2	7.2	-1.4	-1.68	11.30	1.9260	397.7888
3609	1509384747	54.6369	-111.8851	1819.7	1251.5	98.3	7.2	-1.3	-1.68	11.52	1.9263	397.7888
3610	1509384748	54.6368	-111.8836	1816.6	1248.6	98.3	7.3	-1.3	-1.68	11.75	1.9275	398.7986
3611	1509384749	54.6366	-111.8820	1813.3	1245.3	98.4	7.3	-1.3	-1.68	12.00	1.9271	398.9008
3612	1509384750	54.6365	-111.8804	1809.6	1242.6	98.5	7.4	-1.2	-1.68	12.22	1.9281	398.2111
3613	1509384751	54.6364	-111.8790	1806.4	1239.4	98.7	7.6	-1.1	-1.68	12.44	1.9272	399.1583
3614	1509384752	54.6362	-111.8773	1802.5	1235.5	98.8	7.7	-1.0	-1.68	12.67	1.9259	398.0135
3615	1509384753	54.6361	-111.8758	1799.2	1232.2	99.0	7.6	-0.8	-1.68	12.94	1.9259	398.2907
3616	1509384754	54.6359	-111.8742	1796.2	1229.2	99.0	7.3	-0.7	-1.68	13.26	1.9262	398.7852
3617	1509384755	54.6358	-111.8726	1793.4	1226.4	99.0	7.2	-0.7	-1.69	13.63	1.9259	398.1768
3618	1509384756	54.6357	-111.8711	1790.8	1223.8	99.0	7.2	-0.7	-1.70	14.02	1.9254	398.0903
3619	1509384757	54.6355	-111.8695	1788.2	1221.2	99.0	7.3	-0.8	-1.71	14.36	1.9267	398.4620
3620	1509384758	54.6354	-111.8679	1785.0	1218.0	99.0	7.3	-0.8	-1.72	14.70	1.9250	398.4589
3621	1509384759	54.6352	-111.8663	1781.7	1214.7	99.0	7.2	-0.9	-1.73	15.05	1.9266	398.2465
3622	1509384760	54.6351	-111.8648	1777.9	1210.9	99.1	7.4	-0.9	-1.74	15.35	1.9261	398.6162
3623	1509384761	54.6350	-111.8633	1773.8	1205.7	99.1	7.4	-1.1	-1.75	15.65	1.9276	398.4249
3624	1509384762	54.6348	-111.8616	1770.1	1201.3	99.2	7.5	-1.2	-1.76	15.94	1.9256	399.2327
3625	1509384763	54.6347	-111.8601	1766.7	1197.7	99.5	7.6	-0.9	-1.76	16.22	1.9261	398.4547
3626	1509384764	54.6345	-111.8585	1763.3	1192.4	99.6	7.6	-0.9	-1.76	16.49	1.9252	398.3160
3627	1509384765	54.6344	-111.8569	1760.4	1187.2	99.6	7.6	-0.9	-1.76	16.75	1.9261	398.3160
3628	1509384766	54.6342	-111.8554	1757.6	1181.9	99.6	7.5	-0.9	-1.76	17.01	1.9263	398.1700
3629	1509384767	54.6341	-111.8538	1754.5	1177.4	99.6	7.5	-1.0	-1.76	17.25	1.9264	398.1620
3630	1509384768	54.6339	-111.8523	1751.4	1173.4	99.7	7.6	-1.0	-1.76	17.50	1.9264	398.1541
3631	1509384769	54.6337	-111.8507	1747.8	1168.1	99.8	7.6	-0.9	-1.76	17.72	1.9265	398.1461
3632	1509384770	54.6336	-111.8491	1744.4	1162.5	99.8	7.6	-0.9	-1.76	17.93	1.9273	397.5914
3633	1509384771	54.6334	-111.8475	1740.8	1157.8	99.8	7.6	-1.0	-1.76	18.13	1.9253	399.0552
3634	1509384772	54.6333	-111.8460	1737.7	1153.7	99.7	7.7	-1.0	-1.76	18.31	1.9279	397.6963
3635	1509384773	54.6331	-111.8444	1734.5	1148.0	99.7	7.6	-1.1	-1.76	18.47	1.9253	397.6297
3636	1509384774	54.6330	-111.8430	1731.8	1143.8	99.7	7.6	-1.0	-1.76	18.62	1.9256	397.2438
3637	1509384775	54.6330	-111.8428	1731.4	1143.4	99.7	7.6	-1.0	-1.74	18.77	1.9256	397.2438
3638	1509384776	54.6330	-111.8425	1730.9	1142.9	99.7	7.6	-1.0	-1.73	18.91	1.9253	398.8096
3639	1509384777	54.6329	-111.8423	1730.5	1142.6	99.7	7.6	-1.0	-1.72	19.06	1.9269	398.2806
3640	1509384778	54.6328	-111.8413	1728.7	1139.7	99.7	7.6	-0.9	-1.70	19.20	1.9264	398.4660
3641	1509384779	54.6327	-111.8396	1725.4	1136.5	99.7	7.6	-0.8	-1.69	19.34	1.9252	398.4660
3642	1509384780	54.6325	-111.8379	1721.8	1134.8	99.6	7.6	-0.8	-1.68	19.49	1.9278	398.1871
3643	1509384781	54.6323	-111.8361	1718.1	1132.1	99.6	7.3	-0.7	-1.67	19.63	1.9268	398.4340
3644	1509384782	54.6322	-111.8343	1714.2	1130.2	99.6	7.1	-0.7	-1.65	19.78	1.9259	398.7313
3645	1509384783	54.6320	-111.8326	1710.4	1125.4	99.6	7.2	-0.6	-1.64	19.92	1.9253	398.5233
3646	1509384784	54.6318	-111.8309	1706.5	1121.5	99.6	7.2	-0.6	-1.63	20.07	1.9260	397.5590
3647	1509384785	54.6317	-111.8291	1702.6	1119.1	99.6	7.2	-0.5	-1.61	20.21	1.9269	397.4430
3648	1509384786	54.6315	-111.8273	1699.1	1116.4	99.6	7.2	-0.5	-1.60	20.36	1.9264	398.0254
3649	1509384787	54.6313	-111.8256	1696.0	1114.7	99.6	7.1	-0.5	-1.59	20.50	1.9268	396.8636
3650	1509384788	54.6312	-111.8238	1692.8	1112.8	99.5	7.1	-0.5	-1.57	20.65	1.9274	398.6808
3651	1509384789	54.6310	-111.8220	1689.4	1110.1	99.6	7.1	-0.4	-1.56	20.79	1.9257	398.1350
3652	1509384790	54.6308	-111.8202	1685.8	1108.8	99.7	7.0	-0.1	-1.55	20.94	1.9269	398.3030
3653	1509384791	54.6307	-111.8185	1682.2	1102.9	99.7	6.6	-0.1	-1.54	21.08	1.9267	398.3030
3654	1509384792	54.6305	-111.8167	1678.4	1095.4	99.8	6.6	0.2	-1.52	21.23	1.9265	398.3425
3655	1509384793	54.6304	-111.8150	1674.9	1090.2	99.7	6.6	0.2	-1.51	21.37	1.9261	398.3866
3656	1509384794	54.6302	-111.8133	1671.8	1085.9	99.7	7.0	0.1	-1.50	21.53	1.9264	397.2582
3657	1509384795	54.6300	-111.8116	1668.9	1083.0	99.6	7.0	0.2	-1.49	21.68	1.9268	397.4112
3658	1509384796	54.6299	-111.8098	1666.0	1080.0	99.6	6.9	0.2	-1.48	21.83	1.9261	399.5114
3659	1509384797	54.6297	-111.8081	1662.9	1076.9	99.5	6.8	0.2	-1.47	21.96	1.9260	396.2038
3660	1509384798	54.6296	-111.8063	1659.2	1072.2	99.5	6.8	0.3	-1.46	22.09	1.9257	398.1653
3661	1509384799	54.6294	-111.8045	1654.9	1065.8	99.6	6.8	0.4	-1.45	22.22	1.9256	398.4866
3662	1509384800	54.6293	-111.8028	1650.5	1062.8	99.4	6.9	0.2	-1.42	22.33	1.9257	399.1839
3663	1509384801	54.6291	-111.8010	1646.0	1058.7	99.5	6.9	0.3	-1.40	22.46	1.9272	398.4768
3664	1509384802	54.6289	-111.7992	1642.0	1053.6	99.5	6.9	0.2	-1.38	22.57	1.9271	398.3529
3665	1509384803	54.6288	-111.7977	1638.8	1047.5	99.6	6.8	0.2	-1.38	22.66	1.9267	397.7707
3666	1509384804	54.6286	-111.7959	1635.5	1041.5	99.6	6.8	0.4	-1.36	22.74	1.9265	398.3194
3667	1509384805	54.6285	-111.7943	1632.3	1038.4	99.7	6.8	0.4	-1.34	22.83	1.9250	398.5285
3668	1509384806	54.6284	-111.7928	1629.0	1033.7	99.8	6.8	0.5	-1.32	22.94	1.9258	398.0026
3669	1509384807	54.6282	-111.7913	1625.4	1029.4	99.9	6.9	0.6	-1.32	23.05	1.9266	396.9957
3670	1509384808	54.6281	-111.7897	1621.3	1026.0	99.9	6.5	0.7	-1.31	23.15	1.9256	398.2691
3671	1509384809	54.6279	-111.7881	1617.2	1021.2	100.0	6.4	0.6	-1.30	23.26	1.9256	398.5632
3672	1509384810	54.6278	-111.7866	1613.4	1016.4	100.0	6.4	0.5	-1.29	23.35	1.9250	397.5113
3673	1509384811	54.6276	-111.7850	1609.7	1012.8	100.1	6.4	0.5	-1.28	23.44	1.9259	396.8763
3674	1509384812	54.6275	-111.7834	1606.6	1009.0	100.3	6.4	0.6	-1.27	23.53	1.9257	398.3696
3675	1509384813	54.6273	-111.7818	1603.4	1006.4	100.3	6.3	0.6	-1.26	23.61	1.9254	398.0240
3676	1509384814	54.6272	-111.7803	1600.6	1003.6	100.4	6.3	0.8	-1.25	23.67	1.9273	398.0240
3677	1509384815	54.6270	-111.7787	1597.5	999.5	100.4	6.2	0.7	-1.24	23.73	1.9252	397.6512
3678	1509384816	54.6269	-111.7772	1594.2	995.2	100.5	6.2	0.7	-1.23	23.80	1.9262	398.5329
3679	1509384817	54.6268	-111.7756	1590.6	989.9	100.7	6.2	0.8	-1.20	23.86	1.9263	398.5329
3680	1509384818	54.6266	-111.7741	1586.8	985.7	100.8	6.3	1.0	-1.18	23.91	1.9268	397.5532
3681	1509384819	54.6264	-111.7725	1583.1	982.1	100.9	6.3	1.1	-1.15	23.97	1.9249	397.5532
3682	1509384820	54.6263	-111.7710	1579.7	976.6	100.9	6.3	1.2	-1.12	24.04	1.9253	398.3601
3683	1509384821	54.6261	-111.7694	1576.5	974.5	101.0	6.3	1.2	-1.10	24.12	1.9250	397.6957
3684	1509384822	54.6260	-111.7678	1573.5	972.5	101.0	6.2	1.2	-1.08	24.20	1.9258	399.2963
3685	1509384823	54.6258	-111.7662	1570.8	970.9	101.1	6.3	1.4	-1.07	24.29	1.9255	397.5883
3686	1509384824	54.6257	-111.7648	1568.2	968.3	101.2	6.6	1.5	-1.06	24.40	1.9275	398.4892
3687	1509384825	54.6255	-111.7633	1565.2	962.2	101.2	6.1	1.7	-1.04	24.58	1.9256	398.7093
3688	1509384826	54.6254	-111.7616	1561.6	956.6	101.3	6.0	1.8	-1.03	24.79	1.9252	397.7854
3689	1509384827	54.6252	-111.7601	1558.1	953.0	101.2	5.6	1.8	-1.03	25.02	1.9250	397.7854
3690	1509384828	54.6251	-111.7585	1554.5	947.0	101.2	6.0	1.8	-1.02	25.28	1.9248	397.7854
3691	1509384829	54.6249	-111.7569	1551.0	942.4	101.2	6.0	1.8	-1.01	25.50	1.9247	397.7854
3692	1509384830	54.6248	-111.7555	1548.0	940.0	101.2	5.9	1.9	-1.00	25.70	1.9256	398.8014
3693	1509384831	54.6246	-111.7539	1544.8	937.9	101.2	5.9	1.9	-0.99	25.89	1.9244	397.7029
3694	1509384832	54.6245	-111.7523	1541.7	936.7	101.1	5.9	2.0	-0.99	26.07	1.9255	397.0594
3695	1509384833	54.6243	-111.7508	1538.7	938.3	100.9	5.8	1.8	-0.98	26.23	1.9247	397.1386
3696	1509384834	54.6242	-111.7493	1535.9	937.3	101.0	5.7	2.0	-0.97	26.39	1.9268	397.9035
3697	1509384835	54.6242	-111.7491	1535.5	936.8	101.0	5.7	1.9	-0.96	26.55	1.9273	396.5164
3698	1509384836	54.6241	-111.7489	1535.0	936.4	101.0	5.7	1.9	-0.95	26.70	1.9258	395.2209
3699	1509384837	54.6241	-111.7487	1534.6	936.1	101.0	5.7	1.9	-0.94	26.85	1.9259	397.5408
3700	1509384838	54.6240	-111.7479	1533.0	933.2	101.0	6.2	1.8	-0.93	27.00	1.9261	398.3725
3701	1509384839	54.6239	-111.7462	1529.4	929.4	101.1	6.2	2.1	-0.92	27.16	1.9254	397.1160
3702	1509384840	54.6237	-111.7445	1525.9	926.8	101.1	6.1	2.2	-0.92	27.31	1.9252	397.4222
3703	1509384841	54.6236	-111.7428	1522.5	921.4	101.0	6.1	2.2	-0.91	27.46	1.9249	397.5267
3704	1509384842	54.6234	-111.7411	1519.3	917.2	100.9	6.3	2.1	-0.90	27.61	1.9243	396.4957
3705	1509384843	54.6232	-111.7394	1516.6	913.9	100.9	6.5	2.3	-0.89	27.77	1.9247	397.0516
3706	1509384844	54.6231	-111.7376	1514.1	914.3	100.8	6.3	2.1	-0.88	27.92	1.9243	397.5065
3707	1509384845	54.6229	-111.7359	1512.2	916.5	100.8	6.4	2.3	-0.87	28.06	1.9254	397.5065
3708	1509384846	54.6228	-111.7342	1510.6	920.7	100.7	6.4	2.2	-0.86	28.17	1.9252	397.9108
3709	1509384847	54.6226	-111.7326	1509.7	920.7	100.6	6.3	2.1	-0.85	28.29	1.9247	397.5329
3710	1509384848	54.6225	-111.7308	1509.1	914.9	100.5	6.3	2.1	-0.85	28.43	1.9271	396.6509
3711	1509384849	54.6223	-111.7292	1508.7	909.7	100.6	6.3	2.4	-0.84	28.62	1.9240	397.9366
3712	1509384850	54.6222	-111.7275	1508.2	907.1	100.6	6.4	2.5	-0.83	28.79	1.9244	398.0708
3713	1509384851	54.6220	-111.7257	1507.2	904.2	100.4	6.1	2.4	-0.83	28.92	1.9240	395.5018
3714	1509384852	54.6219	-111.7240	1505.8	901.4	100.2	6.1	2.2	-0.83	29.07	1.9243	398.1978
3715	1509384853	54.6217	-111.7223	1504.3	901.8	100.3	6.3	2.3	-0.83	29.27	1.9250	397.3908
3716	1509384854	54.6216	-111.7207	1503.0	901.2	100.4	6.3	2.4	-0.83	29.51	1.9256	396.3086
3717	1509384855	54.6215	-111.7190	1502.2	902.2	100.3	6.4	2.1	-0.83	29.74	1.9260	399.0113
3718	1509384856	54.6213	-111.7173	1502.1	902.1	100.2	6.2	2.2	-0.83	29.92	1.9242	397.1160
3719	1509384857	54.6212	-111.7157	1502.5	903.5	100.1	6.3	2.1	-0.83	30.03	1.9245	397.6261
3720	1509384858	54.6210	-111.7140	1503.2	905.2	100.2	6.1	2.2	-0.83	30.11	1.9252	397.6261
3721	1509384859	54.6209	-111.7124	1503.5	903.0	100.2	6.2	2.1	-0.83	30.19	1.9258	398.6380
3722	1509384860	54.6208	-111.7108	1503.3	901.3	100.2	6.0	2.1	-0.83	30.26	1.9236	398.0268
3723	1509384861	54.6206	-111.7091	1502.4	899.1	100.2	5.8	2.0	-0.83	30.34	1.9249	398.2961
3724	1509384862	54.6205	-111.7075	1501.4	896.4	100.3	6.1	2.0	-0.84	30.42	1.9274	398.2961
3725	1509384863	54.6203	-111.7058	1499.9	896.9	100.3	6.0	2.0	-0.83	30.52	1.9249	397.9755
3726	1509384864	54.6202	-111.7042	1498.5	902.1	100.4	6.0	2.0	-0.83	30.61	1.9237	397.3104
3727	1509384865	54.6201	-111.7026	1497.5	906.5	100.5	5.9	2.2	-0.86	30.76	1.9251	397.6375
3728	1509384866	54.6199	-111.7009	1496.9	907.0	100.4	6.2	2.0	-0.87	30.92	1.9254	397.6799
3729	1509384867	54.6198	-111.6994	1497.0	908.1	100.5	6.0	2.1	-0.87	31.05	1.9254	397.9494
3730	1509384868	54.6197	-111.6979	1497.5	908.5	100.5	6.3	2.1	-0.87	31.12	1.9259	397.1817
3731	1509384869	54.6195	-111.6965	1498.1	909.1	100.5	6.1	2.0	-0.89	31.22	1.9245	398.1563
3732	1509384870	54.6194	-111.6950	1498.5	909.2	100.6	6.2	2.1	-0.89	31.26	1.9260	398.7713
3733	1509384871	54.6193	-111.6936	1498.8	910.5	100.6	6.1	2.1	-0.89	31.28	1.9262	397.7436
3734	1509384872	54.6191	-111.6921	1498.8	910.1	100.6	5.9	2.1	-0.90	31.29	1.9259	397.8703
3735	1509384873	54.6190	-111.6907	1498.3	910.7	100.8	6.4	2.2	-0.91	31.29	1.9250	397.8703
3736	1509384874	54.6189	-111.6892	1497.6	907.3	100.9	6.3	2.1	-0.91	31.35	1.9250	396.7362
3737	1509384875	54.6187	-111.6878	1496.7	907.0	101.0	6.2	2.3	-0.92	31.45	1.9243	397.8948
3738	1509384876	54.6186	-111.6864	1496.0	908.9	101.1	6.2	2.3	-0.93	31.58	1.9236	397.8948
3739	1509384877	54.6185	-111.6849	1495.6	909.7	101.0	6.5	2.1	-0.93	31.76	1.9247	397.1073
3740	1509384878	54.6183	-111.6834	1495.5	907.6	101.0	6.4	2.1	-0.94	31.91	1.9254	397.7438
3741	1509384879	54.6182	-111.6820	1496.0	907.7	101.2	6.2	2.3	-0.95	32.05	1.9262	397.6737
3742	1509384880	54.6181	-111.6806	1496.6	906.6	101.3	6.0	2.5	-0.97	32.17	1.9230	397.2223
3743	1509384881	54.6180	-111.6792	1497.3	906.3	101.4	6.3	2.6	-0.99	32.41	1.9245	398.4821
3744	1509384882	54.6178	-111.6777	1498.2	907.5	101.3	6.1	2.4	-1.00	32.69	1.9243	398.1418
3745	1509384883	54.6177	-111.6763	1499.0	911.0	101.3	5.9	2.5	-1.03	33.06	1.9250	397.5132
3746	1509384884	54.6176	-111.6749	1499.5	913.3	101.4	6.1	2.5	-1.04	33.28	1.9241	397.9745
3747	1509384885	54.6174	-111.6736	1500.0	912.4	101.5	6.1	2.7	-1.05	33.59	1.9244	397.8777
3748	1509384886	54.6173	-111.6721	1500.3	912.7	101.4	5.9	2.5	-1.07	33.91	1.9248	397.7810
3749	1509384887	54.6172	-111.6707	1500.1	910.8	101.6	5.8	2.7	-1.09	34.31	1.9251	397.6843
3750	1509384888	54.6170	-111.6693	1499.8	911.8	101.6	5.8	2.7	-1.11	34.66	1.9254	397.5875
3751	1509384889	54.6169	-111.6678	1499.5	911.2	101.7	5.6	2.8	-1.14	34.90	1.9256	397.4938
3752	1509384890	54.6168	-111.6664	1499.5	910.9	101.7	5.9	2.6	-1.16	35.00	1.9245	398.2484
3753	1509384891	54.6166	-111.6650	1499.7	902.9	101.6	5.9	2.5	-1.18	35.03	1.9244	398.1902
3754	1509384892	54.6165	-111.6636	1500.3	898.6	101.7	5.7	2.6	-1.20	35.05	1.9238	397.2203
3755	1509384893	54.6164	-111.6622	1501.2	895.5	102.0	5.5	2.8	-1.22	35.10	1.9252	397.2203
3756	1509384894	54.6162	-111.6610	1502.3	898.6	102.1	5.4	2.9	-1.24	35.24	1.9255	397.9712
3757	1509384895	54.6162	-111.6608	1502.5	899.4	102.1	5.5	2.9	-1.26	35.44	1.9254	399.0167
3758	1509384896	54.6162	-111.6606	1502.6	899.6	102.1	5.6	2.8	-1.28	35.64	1.9263	398.7652
3759	1509384897	54.6162	-111.6604	1502.8	900.8	102.0	5.7	2.8	-1.29	35.84	1.9245	398.6671
3760	1509384898	54.6161	-111.6597	1503.4	902.0	102.0	6.1	2.6	-1.31	36.04	1.9246	398.9675
3761	1509384899	54.6160	-111.6581	1504.3	904.9	102.0	6.0	2.7	-1.33	36.29	1.9252	397.7292
3762	1509384900	54.6158	-111.6567	1504.5	905.0	101.7	5.9	2.5	-1.34	36.45	1.9253	397.7292
3763	1509384901	54.6157	-111.6552	1504.1	905.8	101.8	5.8	2.6	-1.36	36.65	1.9251	398.4295
3764	1509384902	54.6155	-111.6536	1503.7	906.7	102.0	5.8	2.6	-1.38	36.79	1.9243	397.3789
3765	1509384903	54.6154	-111.6521	1503.5	909.5	102.0	5.7	2.6	-1.40	37.03	1.9243	399.3453
3766	1509384904	54.6152	-111.6506	1503.5	908.8	102.0	5.9	2.5	-1.42	37.25	1.9245	397.6681
3767	1509384905	54.6151	-111.6490	1503.5	907.5	102.1	6.1	2.4	-1.44	37.45	1.9247	398.4384
3768	1509384906	54.6149	-111.6474	1503.5	905.5	102.1	6.0	2.6	-1.46	37.62	1.9256	397.4712
3769	1509384907	54.6148	-111.6459	1503.7	904.7	102.1	6.1	2.5	-1.48	37.81	1.9259	397.7785
3770	1509384908	54.6146	-111.6444	1503.9	904.9	102.2	6.4	2.5	-1.50	38.03	1.9266	395.9087
3771	1509384909	54.6145	-111.6429	1504.0	905.0	102.3	6.3	2.5	-1.52	38.31	1.9258	398.1517
3772	1509384910	54.6143	-111.6414	1504.0	906.9	102.6	6.3	2.7	-1.55	38.61	1.9254	396.8104
3773	1509384911	54.6141	-111.6399	1503.8	908.8	102.5	6.1	2.8	-1.56	38.90	1.9249	397.2260
3774	1509384912	54.6140	-111.6384	1503.1	907.1	102.1	5.7	2.4	-1.57	39.16	1.9244	396.8728
3775	1509384913	54.6138	-111.6368	1502.4	907.4	102.1	5.7	2.1	-1.59	39.37	1.9260	398.6203
3776	1509384914	54.6137	-111.6353	1501.9	906.9	102.3	5.7	2.3	-1.60	39.56	1.9245	397.9684
3777	1509384915	54.6135	-111.6338	1501.7	906.0	102.5	5.9	2.4	-1.61	39.68	1.9247	397.9684
3778	1509384916	54.6134	-111.6323	1502.0	903.5	102.7	6.0	2.6	-1.62	39.81	1.9242	398.5594
3779	1509384917	54.6132	-111.6307	1502.3	901.1	102.6	5.8	2.5	-1.63	39.94	1.9255	397.8399
3780	1509384918	54.6130	-111.6292	1502.7	897.6	102.5	6.0	2.2	-1.64	40.07	1.9261	397.7752
3781	1509384919	54.6129	-111.6277	1503.3	897.3	102.7	5.9	2.4	-1.65	40.18	1.9255	397.7210
3782	1509384920	54.6127	-111.6261	1503.9	902.2	102.7	5.8	2.4	-1.66	40.31	1.9253	397.0911
3783	1509384921	54.6125	-111.6246	1504.3	904.3	102.6	5.6	2.3	-1.67	40.45	1.9258	398.3871
3784	1509384922	54.6124	-111.6230	1504.6	904.6	102.5	5.8	2.3	-1.68	40.61	1.9261	398.3753
3785	1509384923	54.6122	-111.6215	1504.8	903.7	102.7	6.2	2.4	-1.69	40.78	1.9256	398.1544
3786	1509384924	54.6121	-111.6199	1504.6	902.9	102.6	6.2	2.2	-1.70	40.97	1.9248	397.6670
3787	1509384925	54.6119	-111.6184	1504.2	901.9	102.5	6.2	2.0	-1.72	41.18	1.9258	398.9456
3788	1509384926	54.6117	-111.6169	1503.6	899.7	102.8	6.3	2.4	-1.74	41.41	1.9253	398.3962
3789	1509384927	54.6116	-111.6155	1503.0	897.0	103.1	6.4	2.6	-1.77	41.65	1.9247	398.0498
3790	1509384928	54.6115	-111.6143	1502.4	894.4	103.0	6.4	2.3	-1.78	41.84	1.9257	398.1836
3791	1509384929	54.6113	-111.6128	1501.4	891.4	102.9	6.5	2.2	-1.79	41.98	1.9259	398.1836
3792	1509384930	54.6112	-111.6115	1500.7	889.7	102.9	6.5	2.1	-1.81	42.09	1.9254	397.4482
3793	1509384931	54.6110	-111.6101	1500.2	889.2	103.0	6.5	2.0	-1.82	42.13	1.9250	397.5182
3794	1509384932	54.6108	-111.6087	1500.0	889.0	103.0	6.5	2.0	-1.83	42.15	1.9259	397.5215
3795	1509384933	54.6107	-111.6073	1500.3	889.3	103.1	6.4	2.0	-1.84	42.16	1.9254	397.8598
3796	1509384934	54.6105	-111.6060	1500.9	889.9	103.2	6.3	2.1	-1.85	42.16	1.9251	398.7077
3797	1509384935	54.6104	-111.6046	1501.6	888.6	103.3	5.7	2.1	-1.86	42.18	1.9251	398.2278
3798	1509384936	54.6102	-111.6032	1502.5	888.8	103.3	5.6	2.2	-1.86	42.24	1.9268	398.7208
3799	1509384937	54.6101	-111.6019	1503.3	889.3	103.3	6.0	2.1	-1.86	42.36	1.9243	397.8878
3800	1509384938	54.6099	-111.6006	1504.1	889.2	103.1	5.9	2.0	-1.87	42.55	1.9264	398.0956
3801	1509384939	54.6098	-111.5992	1504.7	887.5	103.2	6.4	2.0	-1.88	42.75	1.9261	397.0259
3802	1509384940	54.6096	-111.5978	1505.1	886.1	102.9	6.2	1.8	-1.88	42.94	1.9255	397.9704
3803	1509384941	54.6095	-111.5965	1505.2	886.2	103.0	6.3	1.9	-1.87	43.06	1.9252	398.0460
3804	1509384942	54.6093	-111.5951	1505.3	888.3	102.8	6.2	1.9	-1.87	43.15	1.9247	397.4479
3805	1509384943	54.6092	-111.5938	1505.1	887.8	102.9	6.3	2.0	-1.89	43.23	1.9249	397.8246
3806	1509384944	54.6090	-111.5924	1504.9	883.8	102.8	6.3	1.9	-1.90	43.33	1.9254	397.3114
3807	1509384945	54.6089	-111.5910	1504.8	882.8	102.6	6.2	1.7	-1.92	43.42	1.9261	398.0718
3808	1509384946	54.6087	-111.5897	1504.7	883.7	102.5	6.2	1.7	-1.92	43.50	1.9261	398.0718
3809	1509384947	54.6086	-111.5884	1504.8	883.9	102.4	5.7	1.7	-1.92	43.55	1.9261	398.0718
3810	1509384948	54.6084	-111.5870	1505.1	883.2	102.6	5.7	1.9	-1.91	43.59	1.9260	398.0718
3811	1509384949	54.6083	-111.5856	1505.6	884.4	102.7	6.2	2.0	-1.91	43.62	1.9260	398.0718
3812	1509384950	54.6081	-111.5843	1506.1	886.1	102.5	6.1	2.1	-1.92	43.65	1.9253	397.2209
3813	1509384951	54.6080	-111.5829	1506.6	888.6	102.3	6.0	1.9	-1.95	43.66	1.9256	397.8975
3814	1509384952	54.6079	-111.5816	1507.1	888.1	102.2	6.0	2.0	-1.96	43.68	1.9253	398.5409
3815	1509384953	54.6077	-111.5802	1507.5	888.9	102.2	6.0	2.2	-1.99	43.68	1.9255	398.4929
3816	1509384954	54.6076	-111.5790	1507.9	888.4	102.2	6.0	2.3	-2.00	43.67	1.9261	397.4710
3817	1509384955	54.6076	-111.5789	1507.9	888.4	102.2	6.0	2.3	-2.00	43.66	1.9255	397.1305
3818	1509384956	54.6076	-111.5788	1507.9	888.2	102.2	6.0	2.3	-2.00	43.65	1.9251	397.0710
3819	1509384957	54.6076	-111.5787	1507.9	888.2	102.2	6.0	2.3	-2.00	43.64	1.9251	396.9821
3820	1509384958	54.6076	-111.5786	1508.0	888.2	102.2	6.0	2.3	-2.00	43.63	1.9253	398.1307
3821	1509384959	54.6075	-111.5785	1508.0	888.3	102.2	6.0	2.3	-2.00	43.61	1.9263	398.1941
3822	1509384960	54.6075	-111.5784	1508.0	888.4	102.2	5.9	2.3	-2.00	43.60	1.9266	398.4086
3823	1509384961	54.6075	-111.5784	1508.0	888.4	102.2	5.9	2.3	-2.00	43.59	1.9263	398.3036
3824	1509384962	54.6074	-111.5768	1508.1	889.7	102.0	5.9	2.2	-2.00	43.58	1.9263	397.9984
3825	1509384963	54.6072	-111.5754	1507.9	890.9	101.8	5.9	2.1	-2.00	43.57	1.9251	397.9984
3826	1509384964	54.6071	-111.5738	1507.5	893.5	101.7	5.9	2.2	-1.99	43.55	1.9251	396.7218
3827	1509384965	54.6069	-111.5723	1507.3	897.1	101.3	5.9	2.0	-1.99	43.54	1.9243	398.1406
3828	1509384966	54.6068	-111.5707	1507.3	898.6	101.2	5.9	1.9	-1.99	43.53	1.9246	396.7761
3829	1509384967	54.6066	-111.5692	1507.5	898.3	101.1	5.9	1.9	-1.99	43.52	1.9241	397.4151
3830	1509384968	54.6065	-111.5677	1507.9	895.3	101.0	5.8	1.9	-1.99	43.51	1.9249	397.8596
3831	1509384969	54.6064	-111.5663	1508.5	891.5	100.9	5.7	1.8	-1.99	43.49	1.9238	399.5011
3832	1509384970	54.6062	-111.5648	1509.0	890.0	100.8	5.6	1.8	-1.99	43.48	1.9233	397.9162
3833	1509384971	54.6061	-111.5634	1509.2	892.4	100.8	5.6	1.9	-1.99	43.47	1.9245	397.6229
3834	1509384972	54.6060	-111.5619	1509.3	892.3	100.8	5.5	2.0	-1.99	43.46	1.9244	397.7949
3835	1509384973	54.6058	-111.5605	1509.2	892.2	100.8	5.8	2.0	-1.99	43.45	1.9247	397.7450
3836	1509384974	54.6057	-111.5589	1508.8	890.0	100.7	6.0	1.9	-1.99	43.43	1.9252	397.8547
3837	1509384975	54.6056	-111.5574	1508.3	887.5	100.5	5.8	1.9	-1.99	43.42	1.9242	397.5386
3838	1509384976	54.6054	-111.5560	1507.8	887.8	100.4	5.8	1.8	-1.99	43.41	1.9235	398.3504
3839	1509384977	54.6053	-111.5544	1507.1	893.6	100.6	6.2	1.9	-1.99	43.40	1.9251	397.5538
3840	1509384978	54.6052	-111.5529	1506.6	898.6	100.7	6.2	2.0	-1.99	43.39	1.9244	395.6980
3841	1509384979	54.6050	-111.5514	1506.0	904.1	100.7	6.2	1.9	-1.99	43.38	1.9242	397.5073
3842	1509384980	54.6049	-111.5499	1505.5	908.0	100.7	6.3	1.9	-1.98	43.36	1.9247	397.7253
3843	1509384981	54.6048	-111.5483	1504.9	912.2	100.7	6.3	1.8	-1.98	43.35	1.9256	396.2582
3844	1509384982	54.6046	-111.5469	1504.5	920.5	100.9	6.4	1.9	-1.98	43.34	1.9241	397.6689
3845	1509384983	54.6045	-111.5454	1504.1	920.1	101.0	6.4	1.9	-1.98	43.33	1.9260	397.6095
3846	1509384984	54.6043	-111.5439	1504.0	920.0	101.0	6.2	1.9	-1.98	43.32	1.9257	397.5666
3847	1509384985	54.6042	-111.5423	1503.9	919.9	101.0	5.9	2.0	-1.98	43.30	1.9238	397.5666
3848	1509384986	54.6041	-111.5409	1503.8	919.8	101.0	5.9	1.9	-1.98	43.29	1.9274	398.5264
3849	1509384987	54.6039	-111.5394	1503.5	919.5	101.2	5.9	1.9	-1.98	43.28	1.9254	397.2745
3850	1509384988	54.6038	-111.5378	1503.2	919.2	101.4	6.0	2.0	-1.98	43.27	1.9262	397.4602
3851	1509384989	54.6036	-111.5364	1502.8	918.8	101.6	6.0	2.0	-1.98	43.26	1.9246	397.4602
3852	1509384990	54.6035	-111.5349	1502.6	918.6	101.7	6.1	2.0	-1.98	43.24	1.9250	398.1604
3853	1509384991	54.6033	-111.5334	1502.4	918.4	102.0	6.0	2.1	-1.98	43.23	1.9240	397.3256
3854	1509384992	54.6032	-111.5318	1502.6	918.6	102.1	6.1	2.2	-1.98	43.22	1.9236	398.2251
3855	1509384993	54.6030	-111.5303	1502.8	918.8	102.1	6.0	2.1	-1.98	43.21	1.9238	396.3804
3856	1509384994	54.6029	-111.5287	1503.2	919.2	102.3	6.0	2.2	-1.98	43.20	1.9236	398.0298
3857	1509384995	54.6027	-111.5273	1503.7	919.7	102.4	6.4	2.0	-1.98	43.18	1.9245	398.2840
3858	1509384996	54.6026	-111.5258	1504.2	920.2	102.6	6.3	2.2	-1.97	43.17	1.9244	398.2840
3859	1509384997	54.6024	-111.5242	1504.8	920.8	102.5	6.3	2.1	-1.97	43.16	1.9246	396.5672
3860	1509384998	54.6022	-111.5227	1505.2	921.2	102.5	6.3	2.1	-1.97	43.15	1.9239	398.5474
3861	1509384999	54.6021	-111.5212	1505.5	921.5	102.5	6.2	2.1	-1.97	43.14	1.9245	397.3041
3862	1509385000	54.6019	-111.5198	1505.7	921.7	102.6	6.2	2.2	-1.97	43.12	1.9236	397.8472
3863	1509385001	54.6018	-111.5183	1505.7	921.7	102.6	6.2	2.2	-1.97	43.11	1.9250	397.9449
3864	1509385002	54.6016	-111.5168	1505.6	921.6	102.5	6.2	2.2	-1.97	43.10	1.9250	398.3668
3865	1509385003	54.6015	-111.5153	1505.5	921.5	102.4	6.2	2.1	-1.97	43.09	1.9240	398.1492
3866	1509385004	54.6013	-111.5138	1505.3	921.3	102.3	6.2	2.0	-1.97	43.08	1.9239	398.1492
3867	1509385005	54.6011	-111.5123	1505.0	921.0	102.4	6.3	2.2	-1.97	43.07	1.9249	397.1405
3868	1509385006	54.6010	-111.5107	1504.9	920.9	102.4	6.3	2.3	-1.97	43.05	1.9249	397.1405
3869	1509385007	54.6008	-111.5092	1504.9	920.9	102.4	6.3	2.3	-1.97	43.04	1.9250	397.1405
3870	1509385008	54.6007	-111.5077	1504.9	920.9	102.1	5.8	2.2	-1.97	43.03	1.9250	397.1405
3871	1509385009	54.6005	-111.5062	1505.0	921.0	101.9	5.8	2.2	-1.97	43.02	1.9250	397.1405
3872	1509385010	54.6004	-111.5047	1505.0	921.0	101.9	5.7	2.3	-1.97	43.01	1.9250	397.1405
3873	1509385011	54.6002	-111.5032	1505.2	921.1	101.8	5.7	2.3	-1.97	42.99	1.9251	397.1405
3874	1509385012	54.6001	-111.5017	1505.6	921.4	101.7	5.7	2.4	-1.96	42.98	1.9251	397.1405
3875	1509385013	54.5999	-111.5003	1506.0	921.1	101.6	5.6	2.3	-1.96	42.97	1.9275	397.8247
3876	1509385014	54.5998	-111.4988	1506.6	920.9	101.5	5.5	2.3	-1.96	42.96	1.9259	398.6800
3877	1509385015	54.5997	-111.4979	1506.8	921.1	101.4	5.5	2.3	-1.96	42.95	1.9265	397.9254
3878	1509385016	54.5997	-111.4978	1506.8	921.1	101.3	5.5	2.3	-1.96	42.93	1.9265	398.0858
3879	1509385017	54.5997	-111.4977	1506.9	921.2	101.3	5.5	2.3	-1.96	42.92	1.9269	398.0925
3880	1509385018	54.5997	-111.4976	1506.9	921.2	101.3	5.4	2.2	-1.96	42.91	1.9258	397.8466
3881	1509385019	54.5997	-111.4975	1506.9	921.2	101.3	5.4	2.2	-1.96	42.90	1.9251	398.1748
3882	1509385020	54.5997	-111.4973	1507.0	921.2	101.3	5.4	2.2	-1.96	42.89	1.9244	397.7875
3883	1509385021	54.5996	-111.4972	1507.0	921.3	101.3	5.4	2.2	-1.96	42.87	1.9247	398.2428
3884	1509385022	54.5995	-111.4958	1507.5	921.3	101.1	5.9	2.1	-1.96	42.86	1.9231	397.7941
3885	1509385023	54.5994	-111.4944	1508.2	915.7	100.8	6.1	2.1	-1.96	42.85	1.9237	397.4806
3886	1509385024	54.5992	-111.4929	1509.0	908.3	100.7	6.3	2.1	-1.96	42.84	1.9245	397.0379
3887	1509385025	54.5991	-111.4914	1509.6	906.3	100.7	5.8	2.3	-1.96	42.83	1.9235	397.1542
3888	1509385026	54.5990	-111.4899	1510.0	904.8	100.6	5.6	2.4	-1.96	42.81	1.9237	398.3633
3889	1509385027	54.5989	-111.4884	1509.9	902.6	100.4	5.6	2.3	-1.96	42.80	1.9244	398.7516
3890	1509385028	54.5987	-111.4869	1509.5	898.4	100.1	5.6	2.2	-1.96	42.79	1.9249	397.3294
3891	1509385029	54.5986	-111.4854	1508.7	896.7	100.0	5.7	2.1	-1.95	42.78	1.9274	397.1437
3892	1509385030	54.5985	-111.4839	1508.1	896.2	100.0	5.8	2.1	-1.95	42.77	1.9258	398.5778
3893	1509385031	54.5984	-111.4824	1507.5	894.5	100.0	5.8	2.2	-1.95	42.76	1.9269	396.4462
3894	1509385032	54.5983	-111.4810	1507.2	894.1	100.1	5.9	2.3	-1.95	42.74	1.9269	397.9392
3895	1509385033	54.5981	-111.4795	1507.0	892.9	100.1	5.6	2.3	-1.95	42.73	1.9259	398.4249
3896	1509385034	54.5980	-111.4780	1506.8	892.8	100.0	5.7	2.2	-1.95	42.72	1.9266	397.3773
3897	1509385035	54.5979	-111.4765	1506.6	890.6	100.0	5.9	2.2	-1.95	42.71	1.9247	398.5120
3898	1509385036	54.5978	-111.4750	1506.3	890.2	100.0	5.9	2.3	-1.95	42.70	1.9244	398.0264
3899	1509385037	54.5976	-111.4734	1505.9	887.7	100.0	5.9	2.2	-1.95	42.68	1.9247	398.0264
3900	1509385038	54.5975	-111.4720	1505.6	885.6	100.1	6.0	2.3	-1.95	42.67	1.9240	397.2764
3901	1509385039	54.5974	-111.4705	1505.3	884.4	100.0	5.9	2.1	-1.95	42.66	1.9241	397.2149
3902	1509385040	54.5973	-111.4690	1505.2	883.2	100.2	5.9	2.1	-1.95	42.65	1.9240	397.6383
3903	1509385041	54.5972	-111.4675	1505.0	883.0	100.3	5.9	2.1	-1.95	42.64	1.9245	397.9209
3904	1509385042	54.5970	-111.4660	1504.8	881.8	100.3	5.9	2.1	-1.95	42.62	1.9261	398.9290
3905	1509385043	54.5969	-111.4645	1504.5	881.4	100.3	5.9	1.9	-1.95	42.61	1.9280	397.8682
3906	1509385044	54.5968	-111.4630	1504.1	880.4	100.4	5.9	1.9	-1.95	42.60	1.9270	396.7626
3907	1509385045	54.5966	-111.4615	1504.1	880.8	100.6	5.9	1.8	-1.94	42.59	1.9272	396.7626
3908	1509385046	54.5965	-111.4599	1504.2	881.3	100.6	5.8	1.8	-1.94	42.58	1.9276	396.7288
3909	1509385047	54.5964	-111.4585	1504.4	882.7	100.7	5.7	1.8	-1.94	42.56	1.9267	398.1537
3910	1509385048	54.5962	-111.4570	1504.8	885.8	100.8	5.7	1.8	-1.94	42.55	1.9283	397.5698
3911	1509385049	54.5961	-111.4555	1505.2	888.1	100.8	5.6	1.8	-1.94	42.54	1.9283	397.7240
3912	1509385050	54.5960	-111.4540	1505.7	889.7	100.9	5.6	1.8	-1.94	42.53	1.9263	396.6107
3913	1509385051	54.5958	-111.4525	1506.2	891.9	101.0	5.5	1.8	-1.94	42.52	1.9253	399.4148
3914	1509385052	54.5957	-111.4510	1506.6	892.5	101.0	5.5	1.7	-1.94	42.50	1.9259	397.4417
3915	1509385053	54.5955	-111.4495	1506.8	894.8	101.1	5.4	1.7	-1.94	42.49	1.9272	397.3614
3916	1509385054	54.5954	-111.4480	1506.7	894.7	101.1	5.5	1.7	-1.94	42.48	1.9267	398.6115
3917	1509385055	54.5952	-111.4464	1506.4	893.5	101.2	5.5	1.8	-1.94	42.47	1.9258	397.7719
3918	1509385056	54.5951	-111.4449	1506.1	891.2	101.3	5.4	1.7	-1.94	42.46	1.9251	397.8622
3919	1509385057	54.5950	-111.4434	1505.6	889.6	101.4	5.0	1.8	-1.94	42.45	1.9244	397.0376
3920	1509385058	54.5948	-111.4419	1505.2	886.0	101.5	5.1	1.8	-1.94	42.43	1.9242	394.8138
3921	1509385059	54.5947	-111.4404	1504.7	884.7	101.5	4.6	1.9	-1.94	42.42	1.9229	397.5283
3922	1509385060	54.5945	-111.4389	1504.4	884.4	101.6	4.6	1.9	-1.94	42.41	1.9226	397.6413
3923	1509385061	54.5944	-111.4375	1504.2	885.2	101.7	4.5	1.9	-1.93	42.40	1.9245	397.8107
3924	1509385062	54.5942	-111.4360	1504.4	884.4	101.8	4.5	1.8	-1.93	42.39	1.9235	397.9555
3925	1509385063	54.5941	-111.4345	1504.8	882.8	101.8	4.4	1.8	-1.93	42.37	1.9225	398.5834
3926	1509385064	54.5939	-111.4330	1505.4	882.4	101.8	4.8	1.7	-1.93	42.36	1.9234	398.2875
3927	1509385065	54.5938	-111.4315	1506.3	882.3	101.9	4.7	1.7	-1.93	42.35	1.9240	396.3387
3928	1509385066	54.5936	-111.4300	1507.3	881.4	102.0	4.5	1.8	-1.93	42.34	1.9236	397.7002
3929	1509385067	54.5934	-111.4286	1508.4	880.4	102.0	4.4	1.9	-1.93	42.33	1.9233	397.7002
3930	1509385068	54.5933	-111.4271	1509.4	879.7	101.9	4.8	1.8	-1.93	42.31	1.9230	397.7002
3931	1509385069	54.5931	-111.4257	1510.2	879.2	101.8	4.7	1.8	-1.93	42.30	1.9227	397.7002
3932	1509385070	54.5930	-111.4242	1510.8	877.7	101.7	4.6	1.7	-1.93	42.29	1.9229	397.1955
3933	1509385071	54.5928	-111.4228	1510.9	876.9	101.6	4.6	1.7	-1.93	42.28	1.9240	395.1007
3934	1509385072	54.5927	-111.4213	1510.5	876.5	101.5	4.7	1.7	-1.93	42.27	1.9228	399.1861
3935	1509385073	54.5925	-111.4197	1509.9	872.9	101.3	4.7	1.5	-1.93	42.25	1.9235	398.0234
3936	1509385074	54.5924	-111.4182	1509.4	870.5	101.2	4.8	1.5	-1.93	42.24	1.9233	397.3166
3937	1509385075	54.5923	-111.4172	1509.0	870.9	101.1	4.9	1.5	-1.93	42.23	1.9234	398.0741
3938	1509385076	54.5923	-111.4170	1508.9	871.2	101.1	4.9	1.5	-1.93	42.22	1.9247	398.3380
3939	1509385077	54.5923	-111.4168	1508.8	871.9	101.1	4.9	1.5	-1.93	42.21	1.9256	398.1825
3940	1509385078	54.5922	-111.4160	1508.4	872.5	101.1	4.9	1.6	-1.92	42.19	1.9256	397.6933
3941	1509385079	54.5920	-111.4145	1507.6	871.6	101.1	5.0	1.7	-1.92	42.18	1.9249	396.7370
3942	1509385080	54.5919	-111.4131	1506.9	869.8	101.2	5.1	1.8	-1.92	42.17	1.9246	397.8396
3943	1509385081	54.5918	-111.4116	1506.2	870.1	101.1	5.2	1.7	-1.92	42.16	1.9245	397.4483
3944	1509385082	54.5916	-111.4101	1505.4	871.8	101.0	5.2	1.7	-1.92	42.15	1.9230	396.6384
3945	1509385083	54.5915	-111.4086	1504.4	872.9	100.9	5.4	1.7	-1.92	42.14	1.9228	398.1351
3946	1509385084	54.5913	-111.4071	1503.3	871.3	100.9	5.5	1.6	-1.92	42.12	1.9245	397.9760
3947	1509385085	54.5912	-111.4056	1502.4	869.7	101.0	5.6	1.7	-1.92	42.11	1.9241	397.9760
3948	1509385086	54.5910	-111.4041	1501.8	869.5	101.1	5.4	1.8	-1.92	42.10	1.9225	397.9760
3949	1509385087	54.5909	-111.4026	1501.4	871.3	101.3	5.2	1.9	-1.92	42.09	1.9227	397.8434
3950	1509385088	54.5908	-111.4012	1501.3	870.6	101.2	5.1	1.8	-1.92	42.08	1.9224	397.4478
3951	1509385089	54.5906	-111.3997	1501.1	867.3	101.2	5.2	1.7	-1.92	42.06	1.9234	398.3728
3952	1509385090	54.5905	-111.3982	1500.8	868.4	101.1	5.2	1.7	-1.92	42.05	1.9234	398.1018
3953	1509385091	54.5903	-111.3967	1500.6	871.6	101.2	5.2	1.6	-1.92	42.04	1.9236	397.2743
3954	1509385092	54.5902	-111.3952	1500.7	869.3	101.4	5.2	1.8	-1.92	42.03	1.9231	397.8926
3955	1509385093	54.5900	-111.3937	1501.2	868.8	101.5	5.1	1.8	-1.92	42.02	1.9235	398.0219
3956	1509385094	54.5899	-111.3922	1502.0	868.3	101.5	5.0	1.8	-1.91	42.00	1.9234	397.4088
3957	1509385095	54.5897	-111.3908	1502.8	868.3	101.5	4.9	1.8	-1.91	41.99	1.9227	398.0195
3958	1509385096	54.5896	-111.3893	1503.6	866.5	101.4	5.0	1.7	-1.91	41.98	1.9219	397.5034
3959	1509385097	54.5895	-111.3878	1504.2	866.2	101.5	5.3	1.7	-1.91	41.97	1.9231	397.5422
3960	1509385098	54.5893	-111.3864	1504.8	863.7	101.6	5.3	1.8	-1.91	41.96	1.9234	397.3665
3961	1509385099	54.5892	-111.3849	1505.2	862.3	101.5	5.2	1.7	-1.91	41.94	1.9222	397.1832
3962	1509385100	54.5890	-111.3834	1505.4	862.4	101.4	5.2	1.6	-1.91	41.93	1.9233	398.1684
3963	1509385101	54.5889	-111.3819	1505.3	862.2	101.4	5.2	1.6	-1.91	41.92	1.9241	398.6562
3964	1509385102	54.5887	-111.3805	1504.8	862.8	101.4	5.2	1.6	-1.91	41.91	1.9233	398.6562
3965	1509385103	54.5886	-111.3789	1503.9	861.9	101.4	5.3	1.4	-1.91	41.90	1.9239	397.2476
3966	1509385104	54.5884	-111.3774	1503.0	861.0	101.5	5.4	1.4	-1.91	41.88	1.9243	397.3985
3967	1509385105	54.5883	-111.3759	1502.2	861.8	101.6	5.5	1.4	-1.91	41.87	1.9248	396.7966
3968	1509385106	54.5881	-111.3745	1501.9	861.3	101.6	5.5	1.2	-1.91	41.86	1.9271	396.7966
3969	1509385107	54.5880	-111.3731	1501.7	858.0	101.6	5.4	1.1	-1.91	41.85	1.9241	397.5680
3970	1509385108	54.5878	-111.3717	1501.4	856.4	101.6	5.4	1.0	-1.91	41.84	1.9262	398.0541
3971	1509385109	54.5877	-111.3704	1501.2	854.8	101.5	5.5	0.9	-1.91	41.82	1.9249	397.0902
3972	1509385110	54.5876	-111.3691	1500.9	854.7	101.7	5.5	0.9	-1.90	41.81	1.9242	396.9849
3973	1509385111	54.5874	-111.3679	1500.8	856.2	101.8	5.5	0.9	-1.90	41.80	1.9248	397.2833
3974	1509385112	54.5873	-111.3664	1500.8	856.0	102.0	5.5	0.9	-1.90	41.79	1.9241	397.4580
3975	1509385113	54.5871	-111.3650	1500.7	853.8	102.1	5.5	1.0	-1.90	41.78	1.9253	398.5827
3976	1509385114	54.5870	-111.3637	1500.8	851.8	102.2	5.4	1.1	-1.90	41.77	1.9254	397.1443
3977	1509385115	54.5868	-111.3624	1501.0	851.7	102.4	5.5	1.3	-1.90	41.75	1.9258	397.3764
3978	1509385116	54.5867	-111.3611	1501.2	853.4	102.4	5.4	1.2	-1.90	41.74	1.9257	397.3764
3979	1509385117	54.5865	-111.3597	1501.5	854.8	102.5	5.4	1.4	-1.90	41.73	1.9258	396.5575
3980	1509385118	54.5864	-111.3584	1501.8	858.2	102.5	5.3	1.3	-1.90	41.72	1.9266	395.1547
3981	1509385119	54.5862	-111.3570	1502.0	861.0	102.6	5.4	1.4	-1.90	41.71	1.9262	397.9795
3982	1509385120	54.5861	-111.3559	1502.2	862.3	102.6	5.3	1.3	-1.90	41.69	1.9243	397.8780
3983	1509385121	54.5859	-111.3544	1502.2	861.9	102.6	5.7	1.2	-1.90	41.68	1.9238	398.6737
3984	1509385122	54.5858	-111.3530	1502.2	860.5	102.5	5.8	1.1	-1.90	41.67	1.9237	397.6986
3985	1509385123	54.5856	-111.3517	1502.3	860.9	102.5	5.9	1.1	-1.90	41.66	1.9248	398.3148
3986	1509385124	54.5855	-111.3504	1502.5	861.5	102.4	5.8	1.0	-1.90	41.65	1.9257	397.5760
3987	1509385125	54.5853	-111.3493	1502.7	863.0	102.4	5.8	0.9	-1.90	41.63	1.9251	396.6722
3988	1509385126	54.5852	-111.3479	1502.9	863.8	102.5	5.8	1.0	-1.90	41.62	1.9247	397.9369
3989	1509385127	54.5850	-111.3465	1503.3	865.0	102.4	5.8	1.0	-1.89	41.61	1.9246	397.9369
3990	1509385128	54.5849	-111.3451	1503.7	865.8	102.3	5.8	0.9	-1.89	41.60	1.9245	397.9369
3991	1509385129	54.5847	-111.3437	1504.1	866.1	102.4	5.8	1.1	-1.89	41.59	1.9244	397.9369
3992	1509385130	54.5846	-111.3423	1504.4	867.4	102.4	5.5	1.3	-1.89	41.57	1.9243	397.9369
3993	1509385131	54.5844	-111.3410	1504.8	867.8	102.5	5.4	1.6	-1.89	41.56	1.9242	397.9369
3994	1509385132	54.5843	-111.3397	1505.2	868.2	102.4	5.3	1.5	-1.89	41.55	1.9241	397.9369
3995	1509385133	54.5841	-111.3383	1505.6	867.6	102.2	5.3	1.4	-1.89	41.54	1.9249	397.6224
3996	1509385134	54.5840	-111.3371	1506.0	868.0	102.0	5.3	1.5	-1.89	41.53	1.9230	397.8951
3997	1509385135	54.5840	-111.3370	1506.0	868.0	102.0	5.3	1.5	-1.89	41.51	1.9232	396.4663
3998	1509385136	54.5840	-111.3369	1506.1	868.1	102.0	5.3	1.5	-1.89	41.50	1.9225	397.5727
3999	1509385137	54.5840	-111.3368	1506.1	868.1	102.0	5.3	1.5	-1.89	41.49	1.9232	397.8127
4000	1509385138	54.5840	-111.3367	1506.1	868.1	102.0	5.3	1.5	-1.89	41.48	1.9227	397.4695
4001	1509385139	54.5839	-111.3366	1506.1	868.1	102.0	5.3	1.5	-1.89	41.47	1.9241	397.2867
4002	1509385140	54.5839	-111.3365	1506.2	868.2	102.0	5.3	1.5	-1.89	41.46	1.9232	397.9061
4003	1509385141	54.5839	-111.3363	1506.2	868.2	102.0	5.3	1.5	-1.89	41.44	1.9240	397.9079
4004	1509385142	54.5838	-111.3349	1506.5	868.5	101.9	5.3	1.6	-1.89	41.43	1.9261	397.8965
4005	1509385143	54.5836	-111.3334	1506.8	868.8	101.8	4.8	1.7	-1.88	41.42	1.9249	397.8965
4006	1509385144	54.5835	-111.3319	1506.9	868.9	101.6	4.8	1.6	-1.88	41.41	1.9243	399.2476
4007	1509385145	54.5833	-111.3304	1506.9	866.9	101.4	5.0	1.6	-1.88	41.40	1.9235	398.0501
4008	1509385146	54.5832	-111.3289	1506.9	865.2	101.4	5.3	1.7	-1.88	41.38	1.9249	397.8445
4009	1509385147	54.5830	-111.3274	1506.9	863.9	101.3	5.3	1.7	-1.88	41.37	1.9236	398.0409
4010	1509385148	54.5829	-111.3259	1507.1	864.1	101.1	5.3	1.7	-1.88	41.36	1.9227	398.5520
4011	1509385149	54.5827	-111.3245	1507.4	866.7	100.9	5.3	1.8	-1.88	41.35	1.9228	397.8884
4012	1509385150	54.5826	-111.3229	1507.7	869.0	100.8	5.3	2.0	-1.88	41.34	1.9233	397.0999
4013	1509385151	54.5825	-111.3215	1508.0	870.7	100.6	5.3	2.0	-1.88	41.32	1.9224	397.7442
4014	1509385152	54.5823	-111.3200	1508.3	869.3	100.5	5.2	2.0	-1.88	41.31	1.9231	397.7577
4015	1509385153	54.5822	-111.3184	1508.3	868.0	100.4	5.3	2.1	-1.88	41.30	1.9240	397.7016
4016	1509385154	54.5821	-111.3170	1508.0	866.0	100.2	5.3	2.0	-1.88	41.29	1.9227	396.5841
4017	1509385155	54.5819	-111.3154	1507.4	865.4	100.0	5.4	1.9	-1.88	41.28	1.9228	396.3392
4018	1509385156	54.5818	-111.3139	1506.5	862.6	99.8	5.4	1.8	-1.88	41.26	1.9223	396.8654
4019	1509385157	54.5817	-111.3124	1505.8	860.1	99.8	5.5	1.8	-1.88	41.25	1.9227	397.2385
4020	1509385158	54.5816	-111.3110	1505.2	859.2	99.8	5.5	1.7	-1.88	41.24	1.9242	397.2639
4021	1509385159	54.5814	-111.3094	1504.9	857.3	99.7	5.6	1.7	-1.87	41.23	1.9224	397.2639
4022	1509385160	54.5813	-111.3080	1504.8	857.8	99.7	5.6	1.6	-1.87	41.22	1.9223	397.4609
4023	1509385161	54.5812	-111.3065	1504.7	857.7	99.7	5.6	1.6	-1.87	41.20	1.9223	397.8360
4024	1509385162	54.5811	-111.3050	1504.6	858.8	99.8	6.1	1.4	-1.87	41.19	1.9230	397.8005
4025	1509385163	54.5810	-111.3035	1504.4	859.5	99.9	6.1	1.4	-1.87	41.18	1.9231	397.3588
4026	1509385164	54.5808	-111.3020	1503.9	859.9	100.0	5.6	1.5	-1.87	41.17	1.9232	396.7449
4027	1509385165	54.5807	-111.3005	1503.5	861.2	100.2	5.7	1.5	-1.87	41.16	1.9232	398.3739
4028	1509385166	54.5806	-111.2991	1503.1	864.0	100.1	5.6	1.3	-1.87	41.15	1.9228	397.6660
4029	1509385167	54.5804	-111.2975	1502.9	867.9	100.2	5.7	1.3	-1.87	41.13	1.9253	397.7643
4030	1509385168	54.5803	-111.2960	1502.8	870.9	100.4	5.7	1.4	-1.87	41.12	1.9236	397.5075
4031	1509385169	54.5802	-111.2946	1502.7	872.8	100.5	5.7	1.3	-1.87	41.11	1.9244	397.9591
4032	1509385170	54.5800	-111.2931	1502.6	873.5	100.5	5.6	1.2	-1.87	41.10	1.9235	398.6593
4033	1509385171	54.5799	-111.2915	1502.6	876.6	100.6	5.7	1.1	-1.87	41.09	1.9232	397.7691
4034	1509385172	54.5797	-111.2900	1502.6	878.8	100.8	5.6	1.1	-1.87	41.07	1.9231	396.7726
4035	1509385173	54.5796	-111.2885	1502.7	882.8	101.0	5.7	1.2	-1.87	41.06	1.9224	397.5168
4036	1509385174	54.5794	-111.2870	1503.1	886.1	101.1	5.7	1.2	-1.87	41.05	1.9240	397.3288
4037	1509385175	54.5793	-111.2855	1503.5	889.5	101.2	5.7	1.3	-1.87	41.04	1.9229	397.3750
4038	1509385176	54.5791	-111.2840	1503.9	892.0	101.3	5.6	1.3	-1.86	41.03	1.9224	398.7030
4039	1509385177	54.5790	-111.2825	1504.4	893.4	101.4	5.5	1.2	-1.86	41.01	1.9225	396.9944
4040	1509385178	54.5789	-111.2811	1504.8	894.8	101.6	5.5	1.3	-1.86	41.00	1.9233	397.9628
4041	1509385179	54.5787	-111.2795	1505.4	896.4	101.7	5.4	1.4	-1.86	40.99	1.9224	398.3775
4042	1509385180	54.5785	-111.2781	1505.6	897.6	101.8	5.4	1.5	-1.86	40.98	1.9231	397.1023
4043	1509385181	54.5784	-111.2766	1505.7	898.7	101.7	5.5	1.4	-1.86	40.97	1.9232	398.0282
4044	1509385182	54.5782	-111.2751	1505.7	899.7	101.7	5.5	1.2	-1.86	40.95	1.9240	397.3745
4045	1509385183	54.5781	-111.2736	1505.7	900.7	101.8	5.4	1.3	-1.86	40.94	1.9228	397.7542
4046	1509385184	54.5779	-111.2722	1505.8	901.8	101.9	5.4	1.3	-1.86	40.93	1.9229	397.7542
4047	1509385185	54.5778	-111.2707	1505.9	903.9	101.9	5.5	1.3	-1.86	40.92	1.9236	398.5878
4048	1509385186	54.5776	-111.2693	1506.0	906.1	101.7	5.4	1.2	-1.86	40.91	1.9234	398.5878
4049	1509385187	54.5775	-111.2678	1505.9	908.0	101.6	5.4	1.3	-1.86	40.89	1.9231	398.5878
4050	1509385188	54.5773	-111.2663	1505.7	908.0	101.5	5.5	1.2	-1.86	40.88	1.9229	398.5878
4051	1509385189	54.5772	-111.2648	1505.3	907.3	101.4	5.5	1.2	-1.86	40.87	1.9226	398.5878
4052	1509385190	54.5770	-111.2633	1504.9	908.9	101.5	5.5	1.2	-1.86	40.86	1.9241	397.5084
4053	1509385191	54.5768	-111.2618	1504.3	911.7	101.5	5.6	1.1	-1.86	40.85	1.9250	397.5035
4054	1509385192	54.5767	-111.2603	1503.7	913.7	101.4	5.6	1.1	-1.85	40.84	1.9228	397.7705
4055	1509385193	54.5765	-111.2588	1503.2	912.2	101.3	5.7	1.1	-1.85	40.82	1.9228	398.2041
4056	1509385194	54.5764	-111.2574	1502.7	910.6	101.3	5.7	1.0	-1.85	40.81	1.9227	397.3641
4057	1509385195	54.5763	-111.2566	1502.6	911.6	101.3	5.7	1.0	-1.85	40.80	1.9225	398.4673
4058	1509385196	54.5763	-111.2565	1502.6	911.6	101.3	5.7	1.0	-1.85	40.79	1.9228	397.5337
4059	1509385197	54.5763	-111.2564	1502.6	911.5	101.3	5.7	1.0	-1.85	40.78	1.9228	396.8031
4060	1509385198	54.5763	-111.2563	1502.5	911.5	101.3	5.7	1.0	-1.85	40.76	1.9228	398.0340
4061	1509385199	54.5763	-111.2562	1502.5	911.5	101.3	5.7	1.0	-1.85	40.75	1.9233	398.9423
4062	1509385200	54.5763	-111.2561	1502.5	910.4	101.3	5.7	1.0	-1.85	40.74	1.9230	398.5129
4063	1509385201	54.5763	-111.2560	1502.5	910.4	101.3	5.7	1.0	-1.85	40.73	1.9230	397.2628
4064	1509385202	54.5761	-111.2546	1502.4	909.4	101.4	5.7	0.9	-1.85	40.72	1.9223	397.7981
4065	1509385203	54.5760	-111.2531	1502.5	906.8	101.6	5.7	1.0	-1.85	40.70	1.9253	395.3809
4066	1509385204	54.5758	-111.2516	1502.7	904.7	101.6	5.6	1.0	-1.85	40.69	1.9235	398.4475
4067	1509385205	54.5756	-111.2501	1502.7	902.9	101.6	5.6	1.0	-1.85	40.68	1.9238	397.9693
4068	1509385206	54.5755	-111.2487	1502.5	902.6	101.7	5.7	1.1	-1.85	40.67	1.9228	397.4804
4069	1509385207	54.5753	-111.2473	1502.2	903.2	101.7	5.7	1.1	-1.85	40.66	1.9229	397.9028
4070	1509385208	54.5752	-111.2458	1501.9	903.8	101.8	5.7	1.0	-1.84	40.64	1.9225	397.9477
4071	1509385209	54.5750	-111.2443	1501.6	903.6	101.8	5.8	0.9	-1.84	40.63	1.9232	398.4076
4072	1509385210	54.5749	-111.2428	1501.4	903.4	101.9	5.7	0.9	-1.84	40.62	1.9236	398.5237
4073	1509385211	54.5747	-111.2412	1501.3	904.3	101.9	5.7	0.9	-1.84	40.61	1.9228	397.6940
4074	1509385212	54.5745	-111.2397	1501.2	905.2	101.9	5.7	0.8	-1.84	40.60	1.9231	400.2762
4075	1509385213	54.5744	-111.2382	1501.3	906.3	102.0	5.7	0.8	-1.84	40.58	1.9232	397.8779
4076	1509385214	54.5742	-111.2367	1501.5	906.5	102.0	5.8	0.6	-1.84	40.57	1.9237	398.0495
4077	1509385215	54.5740	-111.2352	1501.9	905.9	102.3	6.1	0.7	-1.84	40.56	1.9224	398.7987
4078	1509385216	54.5739	-111.2338	1502.3	906.3	102.4	6.1	0.8	-1.84	40.55	1.9241	397.9820
4079	1509385217	54.5737	-111.2323	1502.7	906.7	102.5	6.0	0.8	-1.84	40.54	1.9232	398.3427
4080	1509385218	54.5735	-111.2308	1503.1	905.0	102.4	5.9	0.8	-1.84	40.53	1.9227	398.8446
4081	1509385219	54.5734	-111.2293	1503.2	904.2	102.4	5.9	0.7	-1.84	40.51	1.9255	398.2879
4082	1509385220	54.5732	-111.2278	1503.4	903.8	102.4	5.8	0.7	-1.84	40.50	1.9246	399.0423
4083	1509385221	54.5730	-111.2263	1503.5	903.5	102.5	5.8	0.7	-1.84	40.49	1.9239	398.2868
4084	1509385222	54.5729	-111.2248	1503.7	903.7	102.4	5.9	0.6	-1.84	40.48	1.9233	398.0426
4085	1509385223	54.5727	-111.2234	1503.9	904.9	102.4	5.9	0.6	-1.84	40.47	1.9234	397.6279
4086	1509385224	54.5725	-111.2219	1504.1	905.1	102.5	5.8	0.6	-1.84	40.45	1.9229	398.1038
4087	1509385225	54.5723	-111.2204	1504.2	906.2	102.5	5.8	0.6	-1.83	40.44	1.9224	397.6739
4088	1509385226	54.5722	-111.2188	1504.6	905.6	102.5	5.8	0.6	-1.83	40.43	1.9247	396.8790
4089	1509385227	54.5720	-111.2173	1505.0	906.0	102.6	5.4	0.7	-1.83	40.42	1.9255	396.0873
4090	1509385228	54.5718	-111.2159	1505.2	906.1	102.6	5.3	0.7	-1.83	40.41	1.9244	398.3940
4091	1509385229	54.5716	-111.2144	1505.3	905.3	102.6	5.4	0.7	-1.83	40.39	1.9227	396.2430
4092	1509385230	54.5715	-111.2129	1505.2	904.9	102.6	5.5	0.6	-1.83	40.38	1.9222	396.2430
4093	1509385231	54.5713	-111.2114	1505.3	904.3	102.6	5.9	0.6	-1.83	40.37	1.9243	398.3038
4094	1509385232	54.5711	-111.2100	1505.5	905.5	102.6	5.9	0.5	-1.83	40.36	1.9242	395.9507
4095	1509385233	54.5709	-111.2085	1505.7	906.8	102.6	5.8	0.4	-1.83	40.35	1.9240	395.9507
4096	1509385234	54.5708	-111.2070	1506.0	908.7	102.6	5.8	0.4	-1.83	40.33	1.9232	396.9287
4097	1509385235	54.5706	-111.2056	1506.4	910.3	102.5	5.8	0.5	-1.83	40.32	1.9236	397.6285
4098	1509385236	54.5704	-111.2041	1506.8	911.8	102.3	5.7	0.4	-1.83	40.31	1.9234	396.8650
4099	1509385237	54.5703	-111.2026	1507.2	914.3	102.1	5.7	0.4	-1.83	40.30	1.9234	397.4448
4100	1509385238	54.5701	-111.2011	1507.6	914.9	102.0	5.6	0.4	-1.83	40.29	1.9242	397.3304
4101	1509385239	54.5699	-111.1996	1507.9	915.9	102.0	5.2	0.6	-1.83	40.27	1.9239	396.4455
4102	1509385240	54.5698	-111.1981	1508.2	917.2	101.9	5.2	0.6	-1.83	40.26	1.9238	397.6015
4103	1509385241	54.5696	-111.1967	1508.2	917.2	101.8	5.2	0.7	-1.82	40.25	1.9245	397.2720
4104	1509385242	54.5694	-111.1952	1508.2	918.3	101.5	5.2	0.5	-1.82	40.24	1.9228	398.1404
4105	1509385243	54.5693	-111.1937	1508.2	922.6	101.4	5.2	0.6	-1.82	40.23	1.9234	398.3703
4106	1509385244	54.5691	-111.1922	1508.1	932.6	101.3	5.2	0.6	-1.82	40.21	1.9231	397.7945
4107	1509385245	54.5690	-111.1907	1508.0	946.4	101.2	5.2	0.6	-1.82	40.20	1.9261	397.6562
4108	1509385246	54.5688	-111.1892	1507.8	950.9	101.2	5.3	0.6	-1.82	40.19	1.9254	397.6562
4109	1509385247	54.5687	-111.1878	1507.7	952.0	101.1	5.3	0.5	-1.82	40.18	1.9247	397.6562
4110	1509385248	54.5685	-111.1863	1507.6	954.6	100.9	5.3	0.5	-1.82	40.17	1.9240	397.6562
4111	1509385249	54.5684	-111.1848	1507.5	955.5	100.8	5.4	0.5	-1.82	40.16	1.9233	397.7051
4112	1509385250	54.5682	-111.1833	1507.5	956.5	100.7	5.3	0.5	-1.82	40.14	1.9243	398.2339
4113	1509385251	54.5681	-111.1818	1507.6	956.6	100.5	5.4	0.5	-1.82	40.13	1.9234	396.8825
4114	1509385252	54.5679	-111.1803	1507.7	953.7	100.5	5.4	0.4	-1.82	40.12	1.9232	397.2368
4115	1509385253	54.5678	-111.1788	1507.9	935.5	100.5	5.0	0.6	-1.82	40.11	1.9234	397.4488
4116	1509385254	54.5676	-111.1773	1508.1	920.4	100.5	4.8	0.7	-1.82	40.10	1.9237	397.2635
4117	1509385255	54.5675	-111.1764	1508.2	914.2	100.4	4.9	0.7	-1.82	40.08	1.9235	397.6670
4118	1509385256	54.5675	-111.1761	1508.2	914.2	100.4	4.8	0.7	-1.82	40.07	1.9227	396.6391
4119	1509385257	54.5675	-111.1759	1508.2	913.1	100.4	4.8	0.7	-1.81	40.06	1.9234	396.6452
4120	1509385258	54.5674	-111.1751	1508.3	910.9	100.4	4.8	0.8	-1.81	40.05	1.9229	397.4955
4121	1509385259	54.5673	-111.1736	1508.5	908.5	100.3	4.9	0.8	-1.81	40.04	1.9236	398.1839
4122	1509385260	54.5671	-111.1721	1508.5	906.5	100.2	4.8	0.8	-1.81	40.02	1.9225	397.9726
4123	1509385261	54.5670	-111.1707	1508.5	901.8	100.0	5.1	0.6	-1.81	40.01	1.9229	396.7914
4124	1509385262	54.5669	-111.1692	1508.3	897.0	99.8	5.3	0.5	-1.81	40.00	1.9246	397.7360
4125	1509385263	54.5667	-111.1676	1508.2	891.3	99.8	5.3	0.3	-1.81	39.99	1.9236	398.2173
4126	1509385264	54.5666	-111.1661	1508.1	890.8	99.8	5.3	0.4	-1.81	39.98	1.9240	397.7249
4127	1509385265	54.5664	-111.1647	1507.9	889.9	99.9	5.3	0.5	-1.81	39.96	1.9238	398.4645
4128	1509385266	54.5663	-111.1632	1507.9	889.9	99.8	5.4	0.5	-1.81	39.95	1.9233	395.8499
4129	1509385267	54.5662	-111.1618	1507.8	888.8	99.6	5.3	0.4	-1.81	39.94	1.9237	397.0881
4130	1509385268	54.5660	-111.1603	1507.7	888.1	99.6	5.4	0.4	-1.81	39.93	1.9230	397.2459
4131	1509385269	54.5659	-111.1588	1507.7	886.6	99.6	5.4	0.3	-1.81	39.92	1.9233	397.6606
4132	1509385270	54.5658	-111.1572	1507.6	883.8	99.8	5.5	0.4	-1.81	39.90	1.9237	397.7634
4133	1509385271	54.5656	-111.1558	1507.3	883.2	99.8	5.4	0.4	-1.81	39.89	1.9231	398.5293
4134	1509385272	54.5655	-111.1543	1506.9	881.9	99.8	5.6	0.3	-1.81	39.88	1.9235	397.3104
4135	1509385273	54.5654	-111.1528	1506.3	883.3	99.8	5.5	0.3	-1.81	39.87	1.9231	397.5109
4136	1509385274	54.5652	-111.1513	1505.8	884.5	99.8	5.1	0.3	-1.80	39.86	1.9243	397.2716
4137	1509385275	54.5651	-111.1498	1505.2	886.5	99.8	5.1	0.3	-1.80	39.85	1.9229	397.2716
4138	1509385276	54.5650	-111.1483	1504.7	890.0	99.8	5.2	0.2	-1.80	39.83	1.9233	397.9850
4139	1509385277	54.5648	-111.1469	1504.4	893.6	99.8	5.3	0.2	-1.80	39.82	1.9245	396.3091
4140	1509385278	54.5647	-111.1454	1504.0	895.0	99.8	5.3	0.3	-1.80	39.81	1.9235	397.3952
4141	1509385279	54.5645	-111.1440	1503.6	895.6	99.8	5.3	0.2	-1.80	39.80	1.9239	398.0848
4142	1509385280	54.5644	-111.1425	1503.2	894.5	99.8	5.3	0.1	-1.80	39.79	1.9232	397.6278
4143	1509385281	54.5643	-111.1411	1502.9	892.6	99.9	5.3	0.2	-1.80	39.77	1.9241	396.5779
4144	1509385282	54.5641	-111.1395	1502.5	888.8	100.0	5.3	0.2	-1.80	39.76	1.9241	398.2704
4145	1509385283	54.5640	-111.1380	1502.1	887.4	100.1	5.4	0.2	-1.80	39.75	1.9249	397.7829
4146	1509385284	54.5639	-111.1366	1501.7	888.7	100.1	5.4	0.1	-1.80	39.74	1.9226	397.8093
4147	1509385285	54.5637	-111.1351	1501.3	889.3	100.0	5.9	-0.1	-1.80	39.73	1.9249	397.8260
4148	1509385286	54.5636	-111.1336	1501.0	891.0	100.0	5.9	0.0	-1.80	39.71	1.9253	398.3535
4149	1509385287	54.5634	-111.1321	1500.7	892.7	100.0	5.9	0.0	-1.80	39.70	1.9240	397.8078
4150	1509385288	54.5633	-111.1306	1500.6	894.6	99.9	5.9	0.0	-1.80	39.69	1.9233	396.3220
4151	1509385289	54.5631	-111.1293	1500.5	895.6	99.7	5.8	-0.1	-1.80	39.68	1.9257	396.9194
4152	1509385290	54.5630	-111.1279	1500.5	894.5	99.5	5.9	-0.1	-1.79	39.67	1.9232	397.5480
4153	1509385291	54.5629	-111.1266	1500.6	892.7	99.3	5.8	-0.1	-1.79	39.65	1.9247	397.0852
4154	1509385292	54.5628	-111.1252	1500.6	890.3	99.1	5.8	-0.2	-1.79	39.64	1.9236	397.0852
4155	1509385293	54.5627	-111.1238	1500.6	888.6	98.9	5.8	-0.1	-1.79	39.63	1.9238	397.8525
4156	1509385294	54.5625	-111.1225	1500.7	888.7	98.6	5.8	-0.2	-1.79	39.62	1.9234	397.8566
4157	1509385295	54.5624	-111.1211	1500.8	889.0	98.3	5.7	-0.2	-1.79	39.61	1.9242	397.5466
4158	1509385296	54.5623	-111.1198	1501.1	891.1	98.0	6.1	-0.2	-1.79	39.59	1.9241	398.8561
4159	1509385297	54.5622	-111.1184	1501.4	893.7	97.7	6.2	-0.1	-1.79	39.58	1.9236	397.7638
4160	1509385298	54.5621	-111.1171	1501.7	896.7	97.4	6.1	-0.1	-1.79	39.57	1.9228	397.8016
4161	1509385299	54.5620	-111.1158	1501.9	899.9	97.0	6.1	-0.2	-1.79	39.56	1.9233	396.8667
4162	1509385300	54.5619	-111.1144	1502.2	902.2	96.4	6.0	-0.3	-1.79	39.55	1.9244	398.4379
4163	1509385301	54.5619	-111.1129	1502.4	903.4	95.9	6.0	-0.2	-1.79	39.54	1.9246	397.8313
4164	1509385302	54.5618	-111.1116	1502.7	903.7	95.5	6.0	-0.2	-1.79	39.52	1.9247	397.2744
4165	1509385303	54.5617	-111.1103	1503.0	904.0	95.1	5.9	-0.2	-1.79	39.51	1.9266	398.6879
4166	1509385304	54.5617	-111.1089	1503.3	905.3	94.5	6.0	-0.3	-1.79	39.50	1.9233	397.8590
4167	1509385305	54.5616	-111.1075	1503.6	905.6	94.1	5.9	-0.3	-1.79	39.49	1.9243	397.8413
4168	1509385306	54.5615	-111.1062	1503.8	904.8	93.7	5.9	-0.3	-1.78	39.48	1.9249	397.7285
4169	1509385307	54.5615	-111.1048	1504.0	905.0	93.4	5.9	-0.3	-1.78	39.46	1.9249	397.7285
4170	1509385308	54.5615	-111.1035	1504.3	904.4	93.2	5.9	-0.4	-1.78	39.45	1.9248	397.7285
4171	1509385309	54.5614	-111.1021	1504.6	901.9	93.0	5.9	-0.4	-1.78	39.44	1.9248	397.7285
4172	1509385310	54.5614	-111.1008	1505.0	900.0	93.0	5.9	-0.2	-1.78	39.43	1.9242	397.2320
4173	1509385311	54.5613	-111.0994	1505.5	900.5	93.0	5.8	-0.2	-1.78	39.42	1.9239	397.8242
4174	1509385312	54.5613	-111.0981	1506.0	902.6	93.0	5.8	-0.2	-1.78	39.40	1.9248	397.8842
4175	1509385313	54.5612	-111.0967	1506.6	909.0	93.0	6.1	-0.2	-1.78	39.39	1.9232	398.5867
4176	1509385314	54.5612	-111.0954	1507.4	916.4	93.0	6.3	-0.2	-1.78	39.38	1.9234	396.2690
4177	1509385315	54.5612	-111.0952	1507.5	917.8	93.0	6.3	-0.3	-1.78	39.37	1.9248	397.2534
4178	1509385316	54.5612	-111.0950	1507.6	917.9	93.0	6.2	-0.3	-1.78	39.36	1.9240	397.2534
4179	1509385317	54.5612	-111.0948	1507.7	919.3	93.0	6.2	-0.3	-1.78	39.34	1.9241	397.9485
4180	1509385318	54.5612	-111.0940	1507.9	922.6	92.9	6.3	-0.4	-1.78	39.33	1.9251	398.8274
4181	1509385319	54.5611	-111.0925	1508.2	925.2	92.9	6.2	-0.6	-1.78	39.32	1.9258	398.8835
4182	1509385320	54.5611	-111.0910	1508.0	925.1	93.1	6.3	-0.6	-1.78	39.31	1.9239	397.2056
4183	1509385321	54.5610	-111.0895	1507.4	925.4	93.4	6.1	-0.6	-1.78	39.30	1.9250	398.2850
4184	1509385322	54.5610	-111.0880	1506.7	924.7	93.7	5.9	-0.6	-1.77	39.28	1.9247	398.2850
4185	1509385323	54.5609	-111.0865	1506.1	924.1	94.1	6.1	-0.6	-1.77	39.27	1.9238	397.9142
4186	1509385324	54.5608	-111.0850	1505.5	924.5	94.5	6.1	-0.6	-1.77	39.26	1.9234	397.9712
4187	1509385325	54.5608	-111.0835	1505.0	924.0	95.0	6.2	-0.5	-1.77	39.25	1.9247	397.9712
4188	1509385326	54.5607	-111.0819	1504.6	923.6	95.4	6.2	-0.5	-1.77	39.24	1.9248	397.0372
4189	1509385327	54.5606	-111.0804	1504.2	923.2	95.8	6.3	-0.5	-1.77	39.23	1.9251	397.5214
4190	1509385328	54.5605	-111.0790	1503.6	922.6	96.1	6.3	-0.4	-1.77	39.21	1.9234	398.3705
4191	1509385329	54.5604	-111.0775	1502.8	922.8	96.3	6.5	-0.5	-1.77	39.20	1.9246	398.3705
4192	1509385330	54.5603	-111.0760	1501.9	921.9	96.7	6.5	-0.6	-1.77	39.19	1.9229	398.3981
4193	1509385331	54.5602	-111.0745	1501.2	921.2	97.1	6.6	-0.4	-1.77	39.18	1.9229	398.4258
4194	1509385332	54.5601	-111.0730	1500.6	920.6	97.5	6.6	-0.5	-1.77	39.17	1.9231	397.7116
4195	1509385333	54.5600	-111.0715	1500.4	920.4	97.8	6.6	-0.5	-1.77	39.15	1.9250	397.3969
4196	1509385334	54.5599	-111.0700	1500.4	919.4	98.1	6.6	-0.5	-1.77	39.14	1.9240	398.2578
4197	1509385335	54.5598	-111.0685	1500.7	917.8	98.3	6.6	-0.6	-1.77	39.13	1.9236	398.4372
4198	1509385336	54.5596	-111.0669	1500.9	914.6	98.7	6.5	-0.6	-1.77	39.12	1.9247	398.1085
4199	1509385337	54.5595	-111.0654	1500.9	910.9	99.1	6.6	-0.6	-1.77	39.11	1.9248	397.7781
4200	1509385338	54.5594	-111.0639	1500.5	907.4	99.5	6.6	-0.7	-1.77	39.09	1.9235	398.0094
4201	1509385339	54.5592	-111.0624	1500.1	903.3	99.9	6.7	-0.7	-1.76	39.08	1.9234	397.5160
4202	1509385340	54.5591	-111.0609	1499.6	899.8	100.4	6.8	-0.6	-1.76	39.07	1.9246	398.4275
4203	1509385341	54.5589	-111.0593	1499.5	896.4	100.8	6.8	-0.7	-1.76	39.06	1.9233	402.3433
4204	1509385342	54.5587	-111.0578	1499.8	893.8	101.3	6.8	-0.7	-1.76	39.05	1.9238	399.6847
4205	1509385343	54.5585	-111.0562	1500.3	893.4	101.8	6.8	-0.7	-1.76	39.03	1.9228	397.5999
4206	1509385344	54.5584	-111.0547	1501.1	893.1	102.3	6.7	-0.5	-1.76	39.02	1.9222	397.5999
4207	1509385345	54.5582	-111.0532	1501.8	894.8	102.6	6.7	-0.5	-1.76	39.01	1.9230	397.3171
4208	1509385346	54.5580	-111.0519	1502.4	895.4	102.9	6.7	-0.2	-1.76	39.00	1.9232	398.7774
4209	1509385347	54.5579	-111.0506	1502.9	894.9	103.1	6.7	-0.2	-1.76	38.99	1.9231	397.5748
4210	1509385348	54.5577	-111.0491	1503.1	895.3	103.2	6.7	-0.1	-1.76	38.97	1.9237	397.7127
4211	1509385349	54.5575	-111.0478	1503.1	896.5	103.4	6.8	-0.1	-1.76	38.96	1.9249	396.8415
4212	1509385350	54.5573	-111.0465	1502.8	898.5	103.5	6.7	0.0	-1.76	38.95	1.9243	397.4778
4213	1509385351	54.5572	-111.0452	1502.3	900.3	103.6	7.0	0.1	-1.76	38.94	1.9234	397.4778
4214	1509385352	54.5570	-111.0438	1501.8	899.8	103.6	7.0	0.0	-1.76	38.93	1.9240	398.2328
4215	1509385353	54.5568	-111.0424	1501.2	898.7	103.8	7.1	0.2	-1.76	38.92	1.9236	396.5472
4216	1509385354	54.5566	-111.0411	1500.8	897.8	103.8	7.2	0.1	-1.76	38.90	1.9232	397.8584
4217	1509385355	54.5565	-111.0397	1500.6	896.7	103.8	7.1	0.1	-1.75	38.89	1.9248	398.0817
4218	1509385356	54.5563	-111.0384	1500.4	895.3	103.8	7.2	0.0	-1.75	38.88	1.9243	398.5548
4219	1509385357	54.5561	-111.0371	1500.3	893.3	103.6	7.1	-0.2	-1.75	38.87	1.9238	398.5548
4220	1509385358	54.5559	-111.0357	1500.3	893.4	103.5	7.1	-0.4	-1.75	38.86	1.9248	396.6935
4221	1509385359	54.5558	-111.0344	1500.6	894.3	103.7	7.1	-0.4	-1.75	38.79	1.9226	397.6466
4222	1509385360	54.5556	-111.0330	1501.0	894.0	103.9	7.0	0.0	-1.76	38.50	1.9234	398.4226
4223	1509385361	54.5554	-111.0318	1501.6	895.6	103.9	7.1	0.0	-1.77	38.46	1.9231	398.4226
4224	1509385362	54.5552	-111.0304	1502.2	895.5	103.7	6.9	0.0	-1.78	38.46	1.9237	397.9470
4225	1509385363	54.5551	-111.0291	1502.8	893.2	103.6	6.9	-0.1	-1.79	38.39	1.9246	398.2245
4226	1509385364	54.5549	-111.0277	1503.3	890.1	103.3	7.3	-0.4	-1.80	38.17	1.9239	397.6102
4227	1509385365	54.5547	-111.0263	1503.6	888.6	103.3	7.2	-0.4	-1.81	37.95	1.9233	398.7395
4228	1509385366	54.5545	-111.0249	1503.8	886.1	103.2	7.2	-0.4	-1.81	37.73	1.9230	397.1677
4229	1509385367	54.5544	-111.0236	1503.6	886.0	103.0	7.2	-0.4	-1.81	37.42	1.9232	397.1677
4230	1509385368	54.5542	-111.0224	1503.3	884.3	102.8	7.2	-0.5	-1.82	37.03	1.9235	397.1677
4231	1509385369	54.5540	-111.0210	1502.9	885.2	102.7	7.3	-0.6	-1.83	36.66	1.9237	397.1677
4232	1509385370	54.5539	-111.0196	1502.7	887.7	102.6	7.4	-0.5	-1.83	36.34	1.9231	398.5264
4233	1509385371	54.5537	-111.0183	1502.7	888.7	102.5	7.4	-0.4	-1.83	36.13	1.9249	396.1071
4234	1509385372	54.5536	-111.0170	1503.0	890.3	102.3	6.9	-0.3	-1.83	35.97	1.9246	396.5277
4235	1509385373	54.5534	-111.0155	1503.6	888.9	102.1	6.8	-0.3	-1.83	35.90	1.9241	398.1025
4236	1509385374	54.5532	-111.0143	1504.1	889.6	101.8	6.8	-0.2	-1.83	35.99	1.9241	398.2243
4237	1509385375	54.5532	-111.0141	1504.2	889.7	101.8	6.8	-0.2	-1.83	36.10	1.9248	398.2243
4238	1509385376	54.5532	-111.0139	1504.3	889.8	101.7	6.8	-0.2	-1.83	36.20	1.9225	397.5612
4239	1509385377	54.5532	-111.0137	1504.4	889.0	101.7	6.7	-0.2	-1.83	36.31	1.9239	397.6455
4240	1509385378	54.5531	-111.0130	1504.9	889.5	101.5	6.7	-0.2	-1.83	36.41	1.9232	397.8181
4241	1509385379	54.5529	-111.0115	1505.9	893.6	101.3	6.6	-0.2	-1.83	36.52	1.9234	397.6686
4242	1509385380	54.5528	-111.0100	1506.9	895.2	101.2	6.6	-0.1	-1.82	36.63	1.9242	397.6621
4243	1509385381	54.5526	-111.0085	1507.9	896.2	101.1	6.9	0.1	-1.82	36.73	1.9244	397.8235
4244	1509385382	54.5525	-111.0070	1508.9	898.6	100.7	6.6	0.1	-1.82	36.84	1.9232	395.6183
4245	1509385383	54.5523	-111.0056	1509.7	899.4	100.5	6.8	0.3	-1.82	36.94	1.9233	398.3118
4246	1509385384	54.5522	-111.0041	1510.1	898.1	100.1	6.9	0.0	-1.82	37.02	1.9233	397.9857
4247	1509385385	54.5520	-111.0026	1510.3	895.9	99.9	6.6	0.0	-1.82	37.01	1.9230	398.0842
4248	1509385386	54.5519	-111.0011	1510.1	894.4	99.5	6.4	-0.2	-1.83	36.96	1.9241	398.7983
4249	1509385387	54.5518	-110.9996	1509.9	892.4	99.4	6.4	-0.2	-1.84	36.89	1.9239	396.8235
4250	1509385388	54.5516	-110.9982	1509.4	892.1	99.2	6.5	-0.2	-1.84	36.84	1.9239	397.5707
4251	1509385389	54.5515	-110.9967	1509.2	890.9	99.3	6.5	-0.1	-1.84	36.79	1.9249	397.5707
4252	1509385390	54.5514	-110.9952	1509.1	893.1	99.2	6.6	-0.1	-1.84	36.76	1.9234	397.1136
4253	1509385391	54.5512	-110.9936	1509.2	895.2	99.0	6.6	-0.1	-1.84	36.76	1.9244	396.3259
4254	1509385392	54.5511	-110.9921	1509.3	897.3	98.8	6.6	-0.1	-1.84	36.74	1.9236	398.7450
4255	1509385393	54.5510	-110.9906	1509.4	897.4	98.7	6.6	-0.2	-1.84	36.74	1.9249	396.4552
4256	1509385394	54.5509	-110.9891	1509.5	896.0	98.7	6.7	-0.1	-1.84	36.74	1.9238	396.0933
4257	1509385395	54.5507	-110.9876	1509.4	895.3	98.8	6.7	0.0	-1.84	36.76	1.9244	396.5202
4258	1509385396	54.5506	-110.9860	1509.3	893.8	98.8	6.8	0.1	-1.84	36.98	1.9248	398.5661
4259	1509385397	54.5505	-110.9845	1508.9	891.9	98.9	7.0	0.4	-1.84	37.47	1.9243	398.4580
4260	1509385398	54.5503	-110.9829	1508.3	891.3	98.9	6.8	0.4	-1.84	38.21	1.9243	396.1512
4261	1509385399	54.5502	-110.9814	1507.6	891.9	98.9	6.6	0.6	-1.84	39.12	1.9246	398.2962
4262	1509385400	54.5501	-110.9799	1506.6	891.6	99.1	6.7	0.8	-1.83	40.29	1.9236	398.3043
4263	1509385401	54.5500	-110.9784	1505.7	891.3	99.2	6.7	0.8	-1.86	41.26	1.9251	397.5498
4264	1509385402	54.5499	-110.9769	1505.0	890.7	99.3	6.5	0.9	-1.83	42.34	1.9250	397.5331
4265	1509385403	54.5497	-110.9754	1504.6	890.2	99.3	6.5	1.0	-1.87	43.54	1.9237	397.5331
4266	1509385404	54.5496	-110.9738	1504.3	892.3	99.3	6.5	1.0	-1.88	44.53	1.9249	398.4267
4267	1509385405	54.5495	-110.9723	1504.3	894.0	99.4	6.5	1.0	-1.90	45.42	1.9249	398.4267
4268	1509385406	54.5494	-110.9708	1504.3	896.8	99.4	6.4	0.9	-1.93	46.10	1.9245	397.8333
4269	1509385407	54.5492	-110.9694	1504.4	898.8	99.6	6.4	0.8	-1.97	46.69	1.9247	398.3602
4270	1509385408	54.5491	-110.9680	1504.6	901.2	99.8	6.4	1.0	-1.99	47.19	1.9252	396.9824
4271	1509385409	54.5490	-110.9667	1504.7	902.3	99.7	6.4	0.8	-2.01	47.53	1.9237	397.6130
4272	1509385410	54.5489	-110.9652	1504.8	904.8	99.6	6.3	0.6	-2.04	47.64	1.9229	398.2799
4273	1509385411	54.5488	-110.9639	1504.8	904.8	99.7	6.2	0.4	-2.05	47.58	1.9239	398.3934
4274	1509385412	54.5486	-110.9625	1504.7	903.7	99.8	6.2	0.3	-2.08	47.22	1.9232	397.8662
4275	1509385413	54.5485	-110.9612	1504.5	904.5	99.9	6.2	0.2	-2.10	46.74	1.9233	397.5388
4276	1509385414	54.5484	-110.9598	1504.4	903.9	100.1	6.2	0.2	-2.10	46.30	1.9233	398.0258
4277	1509385415	54.5482	-110.9584	1504.2	904.1	100.5	6.2	0.2	-2.12	45.97	1.9231	396.7062
4278	1509385416	54.5481	-110.9571	1504.1	903.1	100.7	6.1	0.3	-2.13	45.71	1.9231	397.4615
4279	1509385417	54.5480	-110.9557	1503.9	901.9	101.0	6.1	0.4	-2.14	45.46	1.9240	396.6646
4280	1509385418	54.5478	-110.9543	1503.8	901.8	101.1	6.1	0.4	-2.14	45.19	1.9227	396.3039
4281	1509385419	54.5477	-110.9530	1503.7	901.7	101.0	6.7	0.1	-2.15	44.82	1.9224	396.9665
4282	1509385420	54.5476	-110.9517	1503.7	901.7	101.0	6.6	0.0	-2.16	44.36	1.9229	396.9224
4283	1509385421	54.5474	-110.9503	1503.8	901.5	101.1	6.6	0.0	-2.16	43.90	1.9233	398.0906
4284	1509385422	54.5473	-110.9490	1503.9	900.0	101.2	6.6	0.1	-2.16	43.53	1.9233	397.0009
4285	1509385423	54.5471	-110.9477	1504.0	900.0	101.3	6.6	0.2	-2.16	43.33	1.9235	397.3878
4286	1509385424	54.5470	-110.9462	1504.1	900.1	101.2	6.6	0.1	-2.16	43.17	1.9241	397.6014
4287	1509385425	54.5469	-110.9451	1504.3	901.3	101.1	6.5	-0.1	-2.16	42.88	1.9227	397.2390
4288	1509385426	54.5467	-110.9437	1504.3	902.7	101.0	6.5	-0.3	-2.16	42.47	1.9227	397.2390
4289	1509385427	54.5466	-110.9422	1504.5	906.1	101.0	6.5	-0.5	-2.16	41.84	1.9227	397.2390
4290	1509385428	54.5464	-110.9408	1504.6	907.8	101.2	6.4	-0.5	-2.16	41.33	1.9227	397.2390
4291	1509385429	54.5462	-110.9394	1504.8	912.1	101.3	6.4	-0.4	-2.16	40.89	1.9227	397.2390
4292	1509385430	54.5461	-110.9382	1505.0	915.6	101.5	6.4	-0.2	-2.16	40.64	1.9248	398.7234
4293	1509385431	54.5460	-110.9368	1505.3	919.9	101.5	6.5	0.0	-2.16	40.62	1.9239	398.4912
4294	1509385432	54.5458	-110.9354	1505.6	921.6	101.5	6.4	0.2	-2.16	40.91	1.9246	397.9166
4295	1509385433	54.5457	-110.9341	1506.0	922.0	101.5	6.1	0.3	-2.16	41.51	1.9235	396.8746
4296	1509385434	54.5455	-110.9328	1506.4	923.4	101.4	6.0	0.4	-2.16	42.18	1.9234	397.8334
4297	1509385435	54.5455	-110.9326	1506.5	923.5	101.4	6.0	0.4	-2.16	42.84	1.9243	398.1972
4298	1509385436	54.5455	-110.9324	1506.5	923.5	101.4	6.0	0.4	-2.16	43.49	1.9245	397.3023
4299	1509385437	54.5455	-110.9322	1506.6	923.6	101.4	5.9	0.4	-2.16	44.15	1.9245	397.3526
4300	1509385438	54.5454	-110.9314	1506.8	923.8	101.4	5.9	0.6	-2.16	44.76	1.9240	398.3945
4301	1509385439	54.5452	-110.9299	1507.3	924.3	101.2	6.0	0.5	-2.16	45.27	1.9233	397.8059
4302	1509385440	54.5451	-110.9285	1507.9	924.2	101.1	5.9	0.7	-2.16	45.69	1.9243	397.0805
4303	1509385441	54.5449	-110.9270	1508.4	925.4	100.9	5.8	0.6	-2.17	45.96	1.9246	397.0805
4304	1509385442	54.5448	-110.9255	1508.7	925.7	100.7	5.8	0.7	-2.18	46.09	1.9237	397.5203
4305	1509385443	54.5446	-110.9240	1508.9	925.9	100.5	5.8	0.6	-2.18	46.15	1.9236	398.4212
4306	1509385444	54.5445	-110.9225	1508.8	925.8	100.2	5.8	0.5	-2.18	46.23	1.9255	397.2224
4307	1509385445	54.5443	-110.9209	1508.5	926.5	100.1	5.8	0.6	-2.20	46.38	1.9247	398.3868
4308	1509385446	54.5442	-110.9194	1508.0	927.0	100.1	5.9	0.5	-2.20	46.61	1.9251	397.1955
4309	1509385447	54.5441	-110.9179	1507.3	926.3	100.1	6.0	0.6	-2.20	46.93	1.9261	397.3635
4310	1509385448	54.5439	-110.9165	1506.6	925.6	100.0	6.0	0.5	-2.22	47.39	1.9249	397.8661
4311	1509385449	54.5438	-110.9150	1505.7	925.7	100.0	6.1	0.7	-2.22	47.85	1.9238	397.8226
4312	1509385450	54.5437	-110.9135	1504.7	924.7	100.0	6.2	0.7	-2.24	48.32	1.9237	397.4316
4313	1509385451	54.5435	-110.9120	1503.8	923.8	100.0	6.1	0.7	-2.24	48.67	1.9242	397.6604
4314	1509385452	54.5434	-110.9104	1503.1	923.1	99.9	5.7	0.6	-2.26	48.84	1.9236	397.3120
4315	1509385453	54.5432	-110.9089	1502.8	922.8	100.0	5.8	0.5	-2.26	48.85	1.9240	397.9248
4316	1509385454	54.5431	-110.9073	1502.7	922.7	100.1	5.7	0.5	-2.26	48.78	1.9247	398.7116
4317	1509385455	54.5429	-110.9057	1502.8	923.8	100.2	5.7	0.6	-2.28	48.58	1.9248	398.4072
4318	1509385456	54.5428	-110.9042	1502.9	923.9	100.3	5.7	0.7	-2.28	48.55	1.9249	398.3477
4319	1509385457	54.5427	-110.9027	1502.9	923.9	100.4	5.7	0.6	-2.28	48.54	1.9251	398.3477
4320	1509385458	54.5425	-110.9012	1503.0	924.0	100.5	5.6	0.6	-2.30	48.66	1.9247	397.8839
4321	1509385459	54.5424	-110.8997	1503.3	923.2	100.6	5.6	0.5	-2.30	48.76	1.9255	396.8534
4322	1509385460	54.5422	-110.8982	1503.6	923.6	100.7	5.6	0.5	-2.31	48.89	1.9245	396.6370
4323	1509385461	54.5421	-110.8968	1503.9	923.9	101.0	5.6	0.7	-2.32	49.16	1.9232	397.1152
4324	1509385462	54.5419	-110.8953	1504.5	925.5	101.1	5.5	0.8	-2.32	49.47	1.9234	397.2240
4325	1509385463	54.5418	-110.8937	1505.1	926.1	101.3	5.5	1.0	-2.32	49.70	1.9248	398.2279
4326	1509385464	54.5416	-110.8922	1505.6	927.3	101.3	5.4	1.0	-2.33	49.84	1.9231	398.4076
4327	1509385465	54.5414	-110.8906	1506.3	928.3	101.4	5.3	1.0	-2.34	49.99	1.9243	396.9644
4328	1509385466	54.5413	-110.8893	1506.8	928.8	101.5	5.2	1.1	-2.34	50.12	1.9241	397.3892
4329	1509385467	54.5412	-110.8879	1507.2	929.2	101.5	5.1	1.1	-2.35	50.22	1.9243	398.2642
4330	1509385468	54.5410	-110.8865	1507.4	929.4	101.6	5.1	1.1	-2.36	50.33	1.9245	398.2545
4331	1509385469	54.5409	-110.8852	1507.5	929.3	101.6	5.6	1.1	-2.36	50.42	1.9257	398.5818
4332	1509385470	54.5407	-110.8838	1507.4	928.4	101.5	5.6	1.0	-2.35	50.52	1.9250	398.7056
4333	1509385471	54.5406	-110.8825	1507.0	927.0	101.5	5.6	0.9	-2.37	50.58	1.9240	397.7041
4334	1509385472	54.5405	-110.8811	1506.6	926.6	101.6	5.5	0.8	-2.39	50.61	1.9239	398.3165
4335	1509385473	54.5403	-110.8799	1505.9	926.9	101.6	5.7	0.8	-2.38	50.62	1.9236	397.8681
4336	1509385474	54.5402	-110.8784	1504.9	926.2	101.7	5.7	0.7	-2.38	50.65	1.9255	397.7171
4337	1509385475	54.5400	-110.8771	1503.9	925.2	101.8	5.8	0.7	-2.40	50.73	1.9240	396.7359
4338	1509385476	54.5399	-110.8757	1503.1	924.8	101.8	5.8	0.5	-2.40	50.82	1.9243	396.7359
4339	1509385477	54.5397	-110.8744	1502.5	923.5	101.8	5.8	0.5	-2.39	50.91	1.9237	396.6699
4340	1509385478	54.5396	-110.8731	1502.1	923.1	101.9	5.9	0.5	-2.43	50.97	1.9236	397.2455
4341	1509385479	54.5394	-110.8717	1502.2	924.2	102.1	5.9	0.6	-2.44	51.04	1.9232	397.3030
4342	1509385480	54.5393	-110.8704	1502.5	923.8	102.2	5.9	0.7	-2.44	51.04	1.9237	398.2833
4343	1509385481	54.5391	-110.8690	1503.0	924.8	102.3	5.8	0.9	-2.44	51.06	1.9237	397.8541
4344	1509385482	54.5390	-110.8676	1503.5	924.5	102.4	5.8	1.0	-2.45	51.06	1.9235	398.1754
4345	1509385483	54.5388	-110.8663	1504.0	925.0	102.4	5.7	0.8	-2.45	51.05	1.9237	393.1146
4346	1509385484	54.5387	-110.8650	1504.4	925.4	102.5	5.7	0.9	-2.45	51.04	1.9237	397.1308
4347	1509385485	54.5385	-110.8636	1504.8	926.8	102.8	5.8	1.1	-2.48	51.05	1.9252	397.4241
4348	1509385486	54.5383	-110.8623	1505.1	927.1	103.0	5.8	1.4	-2.49	51.06	1.9247	398.2736
4349	1509385487	54.5382	-110.8609	1505.3	926.2	103.2	5.8	1.5	-2.50	51.09	1.9241	398.2736
4350	1509385488	54.5380	-110.8596	1505.4	926.4	103.0	5.8	1.5	-2.51	51.17	1.9235	398.2736
4351	1509385489	54.5379	-110.8583	1505.2	925.5	102.9	5.8	1.5	-2.51	51.27	1.9230	398.2736
4352	1509385490	54.5377	-110.8569	1505.0	925.0	102.7	5.9	1.4	-2.52	51.39	1.9240	396.6149
4353	1509385491	54.5376	-110.8556	1504.7	924.7	102.7	5.9	1.5	-2.54	51.52	1.9232	397.6999
4354	1509385492	54.5374	-110.8542	1504.2	925.2	102.5	5.8	1.2	-2.55	51.63	1.9234	398.5346
4355	1509385493	54.5373	-110.8529	1503.6	924.6	102.4	5.9	1.2	-2.56	51.71	1.9235	398.6058
4356	1509385494	54.5371	-110.8516	1503.1	924.1	102.3	5.9	1.1	-2.57	51.72	1.9245	398.6058
4357	1509385495	54.5371	-110.8514	1503.0	924.0	102.2	5.9	1.1	-2.57	51.71	1.9239	398.9619
4358	1509385496	54.5371	-110.8512	1502.9	923.9	102.2	5.9	1.1	-2.57	51.70	1.9232	397.5432
4359	1509385497	54.5371	-110.8510	1502.8	923.8	102.2	5.9	1.0	-2.57	51.69	1.9240	397.9907
4360	1509385498	54.5370	-110.8502	1502.5	923.5	102.1	5.9	1.0	-2.57	51.68	1.9250	397.6943
4361	1509385499	54.5368	-110.8487	1502.2	924.2	101.9	5.8	0.7	-2.57	51.66	1.9251	397.6943
4362	1509385500	54.5367	-110.8472	1502.1	924.1	101.8	5.8	0.6	-2.58	51.65	1.9240	397.8759
4363	1509385501	54.5365	-110.8457	1502.5	924.5	101.8	5.7	0.5	-2.58	51.64	1.9244	396.4233
4364	1509385502	54.5363	-110.8442	1503.0	925.0	101.9	5.6	0.6	-2.58	51.63	1.9233	397.0666
4365	1509385503	54.5362	-110.8428	1503.6	925.6	101.8	5.6	0.6	-2.58	51.61	1.9235	398.0630
4366	1509385504	54.5360	-110.8413	1504.4	926.7	101.8	5.4	0.7	-2.58	51.60	1.9233	398.0193
4367	1509385505	54.5358	-110.8398	1505.1	927.4	101.7	5.7	0.6	-2.60	51.60	1.9245	398.3553
4368	1509385506	54.5357	-110.8382	1505.7	928.4	101.5	5.8	0.5	-2.60	51.60	1.9262	398.3553
4369	1509385507	54.5355	-110.8368	1505.8	928.8	101.4	5.7	0.4	-2.60	51.61	1.9260	397.4217
4370	1509385508	54.5354	-110.8353	1505.6	927.6	101.4	5.8	0.6	-2.61	51.66	1.9236	398.3809
4371	1509385509	54.5352	-110.8339	1505.1	927.0	101.3	5.8	0.5	-2.61	51.70	1.9235	398.6627
4372	1509385510	54.5351	-110.8324	1504.4	925.7	101.2	5.6	0.4	-2.59	51.71	1.9237	398.3871
4373	1509385511	54.5349	-110.8309	1503.8	925.8	101.1	5.4	0.5	-2.58	51.71	1.9237	398.8917
4374	1509385512	54.5347	-110.8294	1503.4	925.4	101.1	5.5	0.7	-2.61	51.73	1.9235	395.9134
4375	1509385513	54.5346	-110.8279	1503.1	925.1	100.8	5.5	0.5	-2.60	51.74	1.9240	397.2257
4376	1509385514	54.5344	-110.8264	1502.9	924.9	100.6	5.5	0.4	-2.61	51.75	1.9250	397.8429
4377	1509385515	54.5343	-110.8249	1503.1	924.1	100.5	5.7	0.3	-2.63	51.76	1.9240	396.8209
4378	1509385516	54.5341	-110.8234	1503.3	923.3	100.5	5.9	0.3	-2.62	51.77	1.9242	397.3019
4379	1509385517	54.5340	-110.8218	1503.6	922.6	100.6	5.9	0.4	-2.62	51.79	1.9242	397.3795
4380	1509385518	54.5338	-110.8204	1504.0	923.0	100.5	5.9	0.4	-2.60	51.79	1.9248	397.7842
4381	1509385519	54.5337	-110.8189	1504.3	923.3	100.3	5.6	0.3	-2.62	51.79	1.9247	396.6883
4382	1509385520	54.5336	-110.8174	1504.4	924.3	100.3	5.3	0.3	-2.60	51.80	1.9239	396.1017
4383	1509385521	54.5334	-110.8159	1504.3	925.1	100.4	5.5	0.4	-2.61	51.84	1.9242	398.1389
4384	1509385522	54.5333	-110.8144	1504.1	926.1	100.5	5.7	0.4	-2.61	51.90	1.9235	398.5106
4385	1509385523	54.5331	-110.8129	1503.8	927.8	100.5	5.4	0.5	-2.60	51.99	1.9237	398.1781
4386	1509385524	54.5330	-110.8113	1503.4	927.4	100.5	5.4	0.5	-2.60	52.06	1.9245	398.5013
4387	1509385525	54.5328	-110.8098	1503.0	927.0	100.6	5.4	0.5	-2.62	52.10	1.9244	397.2442
4388	1509385526	54.5327	-110.8084	1502.7	927.7	100.5	5.4	0.3	-2.62	52.12	1.9231	398.1182
4389	1509385527	54.5325	-110.8071	1502.4	927.4	100.6	5.5	0.3	-2.63	52.13	1.9231	397.0041
4390	1509385528	54.5324	-110.8057	1502.3	927.3	100.8	5.6	0.3	-2.64	52.13	1.9221	397.5289
4391	1509385529	54.5323	-110.8044	1502.3	926.2	101.0	5.9	0.4	-2.65	52.09	1.9233	397.5979
4392	1509385530	54.5321	-110.8030	1502.3	925.3	101.1	6.0	0.5	-2.65	51.91	1.9228	398.8349
4393	1509385531	54.5320	-110.8017	1501.9	925.9	101.1	6.0	0.4	-2.65	51.57	1.9237	398.1129
4394	1509385532	54.5319	-110.8004	1500.5	925.8	101.2	6.1	0.5	-2.65	51.14	1.9230	397.5850
4395	1509385533	54.5317	-110.7990	1497.8	923.1	101.2	5.8	0.4	-2.65	50.76	1.9234	398.7857
4396	1509385534	54.5316	-110.7977	1494.5	920.5	101.4	6.3	0.4	-2.65	50.56	1.9239	399.3894
4397	1509385535	54.5314	-110.7963	1490.0	916.7	101.5	6.3	0.4	-2.65	50.46	1.9236	397.6445
4398	1509385536	54.5313	-110.7952	1486.4	913.4	101.6	6.6	0.4	-2.65	50.42	1.9238	397.1504
4399	1509385537	54.5312	-110.7937	1481.8	908.8	101.6	6.5	0.4	-2.65	50.52	1.9249	397.9536
4400	1509385538	54.5310	-110.7922	1477.4	904.4	101.8	6.6	0.6	-2.65	50.83	1.9250	397.5696
4401	1509385539	54.5308	-110.7907	1473.8	900.8	101.8	6.4	0.8	-2.65	51.18	1.9229	397.8022
4402	1509385540	54.5307	-110.7894	1470.8	898.8	101.9	6.7	0.7	-2.65	51.48	1.9233	398.5850
4403	1509385541	54.5305	-110.7880	1468.1	897.1	102.0	6.4	0.8	-2.65	51.68	1.9246	398.7627
4404	1509385542	54.5304	-110.7867	1465.4	894.4	101.9	6.6	0.6	-2.65	51.79	1.9243	398.1972
4405	1509385543	54.5302	-110.7853	1462.4	890.4	102.0	6.8	0.8	-2.63	51.86	1.9237	397.4708
4406	1509385544	54.5301	-110.7838	1459.1	886.1	102.0	6.6	0.7	-2.61	51.89	1.9238	397.2245
4407	1509385545	54.5299	-110.7823	1456.0	883.0	102.0	6.8	0.8	-2.60	51.92	1.9227	397.2390
4408	1509385546	54.5298	-110.7810	1453.1	880.1	102.1	6.6	0.9	-2.59	51.93	1.9227	397.7319
4409	1509385547	54.5296	-110.7796	1450.1	877.1	102.1	6.7	0.9	-2.57	51.92	1.9227	397.8298
4410	1509385548	54.5294	-110.7781	1447.0	873.1	102.1	6.6	0.9	-2.56	51.83	1.9226	397.9278
4411	1509385549	54.5293	-110.7767	1444.1	870.1	102.1	6.6	1.0	-2.55	51.63	1.9226	398.0257
4412	1509385550	54.5291	-110.7752	1441.3	868.3	102.1	6.4	1.0	-2.54	51.41	1.9226	398.1237
4413	1509385551	54.5290	-110.7738	1438.6	865.6	102.0	6.4	0.9	-2.52	51.22	1.9225	397.7676
4414	1509385552	54.5288	-110.7724	1435.9	862.9	102.1	6.6	0.9	-2.49	51.04	1.9227	398.4373
4415	1509385553	54.5287	-110.7709	1433.3	860.3	102.2	6.5	1.0	-2.46	50.85	1.9228	398.1228
4416	1509385554	54.5285	-110.7697	1431.1	858.1	102.4	6.3	1.1	-2.46	50.79	1.9234	398.2171
4417	1509385555	54.5285	-110.7695	1430.6	857.6	102.5	6.4	1.2	-2.45	50.80	1.9243	398.7909
4418	1509385556	54.5285	-110.7693	1430.2	857.2	102.5	6.4	1.2	-2.45	50.80	1.9241	398.1705
4419	1509385557	54.5284	-110.7691	1429.8	856.8	102.6	6.4	1.2	-2.45	50.80	1.9228	398.6879
4420	1509385558	54.5284	-110.7684	1428.6	855.6	102.6	6.0	1.3	-2.45	50.80	1.9247	398.6623
4421	1509385559	54.5282	-110.7668	1425.5	852.2	102.8	6.2	1.4	-2.45	50.81	1.9231	398.1234
4422	1509385560	54.5280	-110.7651	1422.4	848.4	102.9	6.2	1.7	-2.45	50.81	1.9238	398.1234
4423	1509385561	54.5278	-110.7636	1419.4	844.1	103.1	6.0	1.9	-2.45	50.81	1.9241	398.3265
4424	1509385562	54.5276	-110.7619	1416.2	840.1	103.2	6.2	1.9	-2.45	50.81	1.9226	398.0798
4425	1509385563	54.5274	-110.7603	1412.8	836.5	103.2	6.1	2.0	-2.45	50.82	1.9224	398.0798
4426	1509385564	54.5273	-110.7587	1409.0	833.7	103.2	6.0	2.0	-2.44	50.82	1.9242	397.9538
4427	1509385565	54.5271	-110.7571	1404.7	830.7	103.2	6.1	2.0	-2.44	50.82	1.9238	397.9538
4428	1509385566	54.5269	-110.7555	1400.1	827.1	103.2	6.0	2.0	-2.44	50.82	1.9230	396.1936
4429	1509385567	54.5267	-110.7538	1395.8	821.7	103.2	6.2	2.0	-2.44	50.82	1.9241	398.2705
4430	1509385568	54.5265	-110.7521	1391.9	818.0	103.0	5.9	2.1	-2.44	50.83	1.9243	398.4710
4431	1509385569	54.5263	-110.7505	1389.0	816.3	103.0	5.9	2.0	-2.44	50.83	1.9250	396.7897
4432	1509385570	54.5261	-110.7488	1386.5	816.4	102.9	5.9	2.1	-2.44	50.83	1.9253	397.6646
4433	1509385571	54.5260	-110.7473	1384.1	816.4	102.9	5.9	2.1	-2.44	50.83	1.9234	396.8697
4434	1509385572	54.5258	-110.7456	1381.6	815.3	103.1	5.5	2.5	-2.44	50.84	1.9260	396.8697
4435	1509385573	54.5256	-110.7441	1378.5	811.7	103.1	5.5	2.6	-2.43	50.84	1.9254	396.2239
4436	1509385574	54.5254	-110.7424	1374.8	808.8	102.9	5.5	2.4	-2.43	50.84	1.9259	398.7019
4437	1509385575	54.5252	-110.7408	1370.7	804.7	102.7	5.7	2.4	-2.43	50.84	1.9239	397.7251
4438	1509385576	54.5250	-110.7391	1367.1	801.1	102.8	5.8	2.6	-2.43	50.85	1.9244	396.7166
4439	1509385577	54.5249	-110.7374	1363.8	797.6	102.7	5.9	2.7	-2.43	50.85	1.9243	397.5394
4440	1509385578	54.5247	-110.7358	1360.8	794.8	102.6	5.9	2.7	-2.43	50.85	1.9241	398.7428
4441	1509385579	54.5245	-110.7341	1357.5	791.5	102.3	5.9	2.7	-2.43	50.85	1.9257	398.2747
4442	1509385580	54.5244	-110.7325	1354.2	788.2	102.1	6.0	2.7	-2.43	50.86	1.9228	396.7811
4443	1509385581	54.5242	-110.7308	1350.3	784.5	101.9	6.1	2.6	-2.43	50.86	1.9244	397.9738
4444	1509385582	54.5240	-110.7292	1346.2	780.9	101.8	6.2	2.6	-2.43	50.86	1.9234	397.2018
4445	1509385583	54.5239	-110.7276	1341.9	775.9	101.6	6.4	2.5	-2.42	50.86	1.9234	398.5431
4446	1509385584	54.5237	-110.7259	1337.7	771.7	101.5	6.6	2.5	-2.42	50.87	1.9237	397.4175
4447	1509385585	54.5236	-110.7243	1333.8	767.8	101.4	6.6	2.6	-2.42	50.87	1.9230	399.6690
4448	1509385586	54.5234	-110.7227	1330.3	763.4	101.3	6.7	2.6	-2.42	50.87	1.9245	397.1139
4449	1509385587	54.5233	-110.7212	1326.9	760.8	101.2	6.8	2.5	-2.42	50.87	1.9250	397.6664
4450	1509385588	54.5231	-110.7197	1323.7	759.4	101.3	6.8	2.6	-2.42	50.87	1.9230	398.1826
4451	1509385589	54.5230	-110.7182	1320.2	757.2	101.2	6.9	2.6	-2.42	50.88	1.9229	398.2496
4452	1509385590	54.5229	-110.7167	1316.6	756.6	101.3	6.8	2.8	-2.42	50.88	1.9233	398.0437
4453	1509385591	54.5227	-110.7152	1312.7	755.2	101.1	6.6	2.6	-2.42	50.88	1.9237	398.3653
4454	1509385592	54.5226	-110.7137	1308.9	749.2	101.3	6.9	2.8	-2.41	50.88	1.9257	399.0165
4455	1509385593	54.5225	-110.7122	1305.2	745.2	101.3	7.4	2.6	-2.41	50.89	1.9243	397.9107
4456	1509385594	54.5223	-110.7108	1301.8	741.8	101.4	7.4	2.6	-2.41	50.89	1.9236	397.0563
4457	1509385595	54.5222	-110.7092	1298.3	738.3	101.4	7.5	2.6	-2.41	50.89	1.9248	398.9579
4458	1509385596	54.5220	-110.7077	1295.3	734.3	101.4	7.5	2.6	-2.41	50.89	1.9253	399.0108
4459	1509385597	54.5219	-110.7063	1292.6	731.6	101.4	7.5	2.5	-2.41	50.90	1.9238	398.7129
4460	1509385598	54.5218	-110.7046	1289.6	730.3	101.3	7.5	2.4	-2.41	50.90	1.9242	398.5313
4461	1509385599	54.5216	-110.7031	1286.5	727.5	101.5	7.7	2.4	-2.41	50.90	1.9246	398.0446
4462	1509385600	54.5215	-110.7016	1282.9	721.9	101.6	7.7	2.5	-2.41	50.90	1.9230	397.2794
4463	1509385601	54.5213	-110.7002	1279.4	718.4	101.7	7.8	2.4	-2.41	50.91	1.9237	397.3863
4464	1509385602	54.5212	-110.6990	1276.4	715.4	101.8	7.9	2.3	-2.40	50.91	1.9238	398.7458
4465	1509385603	54.5211	-110.6973	1272.4	711.5	101.9	8.1	2.3	-2.40	50.91	1.9249	396.8303
4466	1509385604	54.5209	-110.6957	1268.8	707.8	102.1	8.1	2.2	-2.40	50.91	1.9236	397.1671
4467	1509385605	54.5207	-110.6941	1265.5	705.4	102.5	8.2	2.6	-2.40	50.92	1.9233	398.7799
4468	1509385606	54.5206	-110.6926	1262.5	703.6	102.6	8.3	2.5	-2.40	50.92	1.9233	398.7799
4469	1509385607	54.5204	-110.6912	1259.6	702.6	102.8	8.4	2.7	-2.40	50.92	1.9234	398.7799
4470	1509385608	54.5203	-110.6896	1256.1	700.1	102.9	8.4	2.6	-2.40	50.92	1.9234	398.7799
4471	1509385609	54.5201	-110.6881	1252.5	697.5	103.0	8.5	2.5	-2.40	50.92	1.9234	398.7799
4472	1509385610	54.5199	-110.6866	1248.6	693.7	103.1	8.6	2.5	-2.40	50.93	1.9234	398.7799
4473	1509385611	54.5198	-110.6850	1244.4	690.4	103.2	8.7	2.6	-2.39	50.93	1.9235	398.7799
4474	1509385612	54.5196	-110.6839	1241.1	688.1	103.2	8.5	2.6	-2.39	50.93	1.9235	398.7799
4475	1509385613	54.5195	-110.6823	1236.8	683.8	103.3	8.4	2.5	-2.39	50.93	1.9238	397.4756
4476	1509385614	54.5193	-110.6806	1232.5	679.5	103.4	8.5	2.5	-2.39	50.94	1.9233	398.2007
4477	1509385615	54.5193	-110.6805	1232.2	679.2	103.4	8.5	2.5	-2.39	50.94	1.9240	397.9775
4478	1509385616	54.5192	-110.6804	1232.0	679.0	103.4	8.5	2.5	-2.39	50.94	1.9238	396.8727
4479	1509385617	54.5192	-110.6803	1231.7	678.7	103.5	8.5	2.5	-2.39	50.94	1.9237	399.2361
4480	1509385618	54.5192	-110.6802	1231.4	678.4	103.5	8.5	2.5	-2.39	50.95	1.9244	397.7977
4481	1509385619	54.5192	-110.6801	1231.2	678.2	103.5	8.5	2.5	-2.39	50.95	1.9243	398.4202
4482	1509385620	54.5192	-110.6800	1230.9	677.9	103.5	8.5	2.5	-2.38	50.95	1.9252	397.6735
4483	1509385621	54.5192	-110.6799	1230.6	677.6	103.5	8.5	2.5	-2.38	50.95	1.9257	396.3824
4484	1509385622	54.5190	-110.6784	1227.2	673.2	103.5	8.6	2.5	-2.38	50.96	1.9253	398.1609
4485	1509385623	54.5188	-110.6767	1224.2	670.2	103.5	9.6	2.2	-2.38	50.96	1.9242	398.4370
4486	1509385624	54.5186	-110.6751	1221.9	667.9	103.5	9.4	2.2	-2.38	50.96	1.9239	398.1983
4487	1509385625	54.5185	-110.6734	1220.3	667.3	103.4	9.3	2.0	-2.38	50.96	1.9248	398.1330
4488	1509385626	54.5183	-110.6718	1219.0	666.0	103.4	9.6	2.0	-2.38	50.97	1.9255	397.9778
4489	1509385627	54.5181	-110.6700	1217.7	664.7	103.4	9.5	2.1	-2.38	50.97	1.9237	398.1857
4490	1509385628	54.5179	-110.6684	1216.3	663.3	103.3	9.8	1.9	-2.38	50.97	1.9244	398.3285
4491	1509385629	54.5177	-110.6667	1215.0	662.0	103.4	9.7	2.0	-2.38	50.97	1.9248	397.4214
4492	1509385630	54.5175	-110.6650	1214.1	661.1	103.3	9.5	2.1	-2.37	50.97	1.9242	397.7204
4493	1509385631	54.5173	-110.6634	1213.7	660.2	103.2	9.6	1.9	-2.37	50.98	1.9251	398.1570
4494	1509385632	54.5171	-110.6618	1213.8	659.8	103.2	9.4	2.0	-2.37	50.98	1.9252	398.2157
4495	1509385633	54.5170	-110.6600	1214.1	660.1	103.0	9.0	1.9	-2.37	50.98	1.9237	397.6680
4496	1509385634	54.5168	-110.6584	1214.2	660.2	103.1	8.8	2.0	-2.37	50.98	1.9260	396.7020
4497	1509385635	54.5166	-110.6567	1214.0	659.0	103.0	8.5	2.0	-2.37	50.99	1.9247	397.1665
4498	1509385636	54.5164	-110.6551	1213.5	658.5	103.0	8.9	2.0	-2.37	50.99	1.9251	397.1665
4499	1509385637	54.5162	-110.6534	1212.7	656.6	102.9	8.8	2.1	-2.37	50.99	1.9252	398.6301
4500	1509385638	54.5161	-110.6518	1211.6	655.6	102.7	8.6	1.9	-2.37	50.99	1.9238	396.5280
4501	1509385639	54.5159	-110.6502	1210.4	655.4	102.5	8.8	1.8	-2.36	51.00	1.9254	397.7385
4502	1509385640	54.5157	-110.6486	1209.2	654.2	102.4	8.8	1.8	-2.36	51.00	1.9243	397.7385
4503	1509385641	54.5155	-110.6469	1208.2	653.2	102.2	8.7	1.8	-2.36	51.00	1.9250	397.4662
4504	1509385642	54.5154	-110.6453	1207.6	652.6	102.1	8.5	1.9	-2.36	51.00	1.9243	397.9458
4505	1509385643	54.5152	-110.6437	1207.3	652.3	101.8	8.7	1.8	-2.36	51.01	1.9244	398.1171
4506	1509385644	54.5151	-110.6421	1207.2	652.2	101.6	8.6	1.7	-2.36	51.01	1.9249	398.7634
4507	1509385645	54.5149	-110.6405	1207.3	651.3	101.4	8.7	1.7	-2.36	51.01	1.9252	398.3209
4508	1509385646	54.5147	-110.6388	1207.3	651.0	101.3	8.7	1.7	-2.36	51.01	1.9244	398.3459
4509	1509385647	54.5146	-110.6372	1207.3	650.3	101.1	8.5	1.8	-2.36	51.02	1.9236	398.7173
4510	1509385648	54.5144	-110.6356	1207.3	649.3	100.9	8.4	1.7	-2.36	51.02	1.9238	397.7611
4511	1509385649	54.5143	-110.6340	1207.3	648.3	100.7	8.4	1.7	-2.35	51.02	1.9239	397.7611
4512	1509385650	54.5141	-110.6323	1207.2	647.2	100.5	8.5	1.7	-2.35	51.02	1.9238	398.1951
4513	1509385651	54.5140	-110.6308	1207.0	646.0	100.5	8.3	1.7	-2.35	51.02	1.9244	398.3307
4514	1509385652	54.5139	-110.6292	1206.7	645.7	100.4	8.2	1.7	-2.35	51.03	1.9241	397.2689
4515	1509385653	54.5137	-110.6275	1206.4	645.4	100.3	8.3	1.6	-2.35	51.03	1.9248	397.4036
4516	1509385654	54.5136	-110.6260	1206.2	645.2	100.2	8.5	1.7	-2.35	51.03	1.9246	397.4036
4517	1509385655	54.5135	-110.6244	1206.0	645.0	100.1	8.3	1.6	-2.35	51.03	1.9237	397.5147
4518	1509385656	54.5133	-110.6229	1205.7	644.7	100.1	8.2	1.6	-2.35	51.04	1.9256	397.8789
4519	1509385657	54.5132	-110.6213	1205.4	644.1	100.2	8.3	1.6	-2.35	51.04	1.9252	398.4598
4520	1509385658	54.5131	-110.6197	1205.3	644.3	100.2	8.4	1.4	-2.34	51.04	1.9240	399.1456
4521	1509385659	54.5129	-110.6181	1205.4	646.4	100.2	8.1	1.3	-2.34	51.04	1.9243	397.9777
4522	1509385660	54.5128	-110.6165	1205.5	647.5	100.5	8.1	1.7	-2.34	51.05	1.9241	397.4380
4523	1509385661	54.5126	-110.6149	1205.6	648.6	100.5	7.9	1.5	-2.34	51.05	1.9256	398.2385
4524	1509385662	54.5125	-110.6133	1205.5	648.5	100.6	7.8	1.7	-2.34	51.05	1.9251	398.4265
4525	1509385663	54.5124	-110.6117	1205.3	648.3	100.5	7.6	1.6	-2.34	51.05	1.9260	396.6160
4526	1509385664	54.5122	-110.6102	1205.0	648.0	100.2	7.7	1.3	-2.34	51.06	1.9245	398.2329
4527	1509385665	54.5121	-110.6086	1204.7	647.7	100.5	8.0	1.7	-2.34	51.06	1.9257	398.2329
4528	1509385666	54.5119	-110.6071	1204.6	646.6	100.3	7.8	1.3	-2.34	51.06	1.9259	398.3952
4529	1509385667	54.5118	-110.6055	1204.6	646.6	100.4	7.7	1.6	-2.33	51.06	1.9258	398.3952
4530	1509385668	54.5117	-110.6039	1204.7	646.7	100.5	7.7	1.7	-2.33	51.07	1.9256	398.3952
4531	1509385669	54.5115	-110.6023	1204.9	646.9	100.7	7.6	2.0	-2.33	51.07	1.9254	398.3952
4532	1509385670	54.5114	-110.6007	1205.0	647.0	100.6	7.4	1.8	-2.33	51.07	1.9253	398.3952
4533	1509385671	54.5112	-110.5991	1205.1	647.1	100.6	7.4	1.9	-2.33	51.07	1.9251	398.3952
4534	1509385672	54.5111	-110.5975	1205.1	646.1	100.5	7.3	1.6	-2.33	51.07	1.9250	398.3952
4535	1509385673	54.5110	-110.5959	1205.2	646.2	100.7	7.5	1.6	-2.33	51.08	1.9248	398.3952
4536	1509385674	54.5108	-110.5944	1205.7	646.7	100.6	6.9	1.7	-2.33	51.08	1.9257	398.1612
4537	1509385675	54.5107	-110.5931	1205.9	646.9	100.8	6.7	1.8	-2.33	51.08	1.9240	398.8679
4538	1509385676	54.5107	-110.5930	1205.9	646.9	100.8	6.6	1.9	-2.33	51.08	1.9251	397.8193
4539	1509385677	54.5107	-110.5929	1205.9	646.9	100.8	6.5	1.9	-2.32	51.09	1.9246	397.0648
4540	1509385678	54.5107	-110.5928	1206.0	647.0	100.8	6.5	1.9	-2.32	51.09	1.9241	398.0658
4541	1509385679	54.5107	-110.5927	1206.0	647.0	100.8	6.4	1.9	-2.32	51.09	1.9233	397.7644
4542	1509385680	54.5107	-110.5926	1206.0	647.0	100.8	6.3	1.9	-2.32	51.09	1.9242	398.1568
4543	1509385681	54.5106	-110.5922	1206.0	647.1	100.9	6.2	1.9	-2.32	51.10	1.9237	398.0731
4544	1509385682	54.5105	-110.5907	1206.2	646.2	101.1	7.6	1.8	-2.32	51.10	1.9240	397.6986
4545	1509385683	54.5103	-110.5892	1206.4	645.4	101.2	7.9	1.6	-2.32	51.10	1.9238	398.2663
4546	1509385684	54.5102	-110.5877	1206.5	645.9	101.5	7.5	2.0	-2.32	51.10	1.9246	398.2873
4547	1509385685	54.5101	-110.5861	1206.7	645.8	101.6	7.8	1.8	-2.32	51.11	1.9245	398.2873
4548	1509385686	54.5099	-110.5846	1206.7	646.3	101.2	7.3	1.3	-2.31	51.11	1.9251	398.9690
4549	1509385687	54.5098	-110.5831	1206.3	646.0	101.5	7.1	1.4	-2.31	51.11	1.9259	398.5126
4550	1509385688	54.5096	-110.5816	1205.7	645.7	101.8	7.1	1.1	-2.31	51.11	1.9250	398.3149
4551	1509385689	54.5094	-110.5800	1204.8	645.4	102.5	7.1	1.6	-2.31	51.11	1.9256	394.4245
4552	1509385690	54.5093	-110.5785	1204.1	645.1	102.7	7.7	1.5	-2.31	51.12	1.9259	398.3667
4553	1509385691	54.5091	-110.5770	1203.4	645.4	102.6	7.7	1.4	-2.31	51.12	1.9253	398.2175
4554	1509385692	54.5089	-110.5755	1202.9	645.9	102.6	7.6	1.2	-2.31	51.12	1.9260	396.4077
4555	1509385693	54.5088	-110.5739	1202.8	646.8	102.8	8.0	1.1	-2.31	51.12	1.9252	398.1990
4556	1509385694	54.5086	-110.5724	1202.8	647.0	103.3	7.6	1.6	-2.31	51.13	1.9251	395.5725
4557	1509385695	54.5084	-110.5709	1202.6	646.9	103.4	7.5	1.6	-2.31	51.13	1.9248	398.0305
4558	1509385696	54.5082	-110.5694	1202.5	648.4	103.4	7.5	1.5	-2.30	51.13	1.9253	398.8760
4559	1509385697	54.5081	-110.5679	1202.1	649.1	103.6	7.9	1.5	-2.30	51.13	1.9244	398.4793
4560	1509385698	54.5079	-110.5663	1202.0	651.0	103.4	7.9	1.1	-2.30	51.14	1.9242	398.3421
4561	1509385699	54.5077	-110.5648	1202.1	653.0	104.0	8.0	1.8	-2.30	51.14	1.9245	397.8043
4562	1509385700	54.5075	-110.5633	1202.3	653.3	103.8	8.2	1.3	-2.30	51.14	1.9244	397.0845
4563	1509385701	54.5073	-110.5618	1202.5	653.5	104.1	8.3	1.5	-2.30	51.14	1.9246	398.7043
4564	1509385702	54.5071	-110.5603	1202.8	653.8	103.9	8.0	1.1	-2.30	51.15	1.9255	398.7043
4565	1509385703	54.5070	-110.5588	1202.7	653.7	104.0	8.1	1.3	-2.30	51.15	1.9246	397.7586
4566	1509385704	54.5068	-110.5572	1202.7	653.7	104.4	8.1	1.5	-2.30	51.15	1.9260	397.6930
4567	1509385705	54.5066	-110.5557	1202.8	653.8	104.2	8.0	1.2	-2.29	51.15	1.9252	397.9982
4568	1509385706	54.5064	-110.5542	1202.9	653.9	104.4	7.7	1.6	-2.29	51.16	1.9257	398.8800
4569	1509385707	54.5062	-110.5526	1202.9	653.9	104.4	7.9	1.6	-2.29	51.16	1.9271	400.7835
4570	1509385708	54.5060	-110.5511	1202.7	653.7	104.5	8.0	1.5	-2.29	51.16	1.9256	398.0831
4571	1509385709	54.5058	-110.5495	1202.5	653.5	104.3	7.9	1.2	-2.29	51.16	1.9253	398.1527
4572	1509385710	54.5056	-110.5480	1202.5	653.5	104.4	7.9	1.4	-2.29	51.16	1.9261	398.2590
4573	1509385711	54.5054	-110.5465	1202.7	653.8	104.6	7.8	1.5	-2.29	51.17	1.9256	398.2625
4574	1509385712	54.5052	-110.5450	1203.0	654.1	104.9	8.2	1.7	-2.29	51.17	1.9241	397.0450
4575	1509385713	54.5050	-110.5435	1203.5	654.6	104.5	8.5	1.3	-2.29	51.17	1.9236	397.4527
4576	1509385714	54.5048	-110.5420	1203.8	654.9	104.2	8.5	0.9	-2.28	51.17	1.9241	398.6277
4577	1509385715	54.5046	-110.5405	1204.3	655.3	104.2	8.8	1.0	-2.28	51.18	1.9254	398.2647
4578	1509385716	54.5045	-110.5391	1204.9	655.9	104.4	8.6	1.2	-2.28	51.18	1.9260	398.3764
4579	1509385717	54.5043	-110.5376	1205.6	656.4	104.4	8.5	1.7	-2.28	51.18	1.9258	398.3081
4580	1509385718	54.5041	-110.5360	1205.9	656.5	103.5	8.4	1.6	-2.28	51.18	1.9252	398.3235
4581	1509385719	54.5039	-110.5345	1205.5	656.1	102.6	8.4	1.5	-2.28	51.19	1.9257	398.9162
4582	1509385720	54.5038	-110.5331	1205.1	654.8	101.7	8.4	1.2	-2.28	51.19	1.9251	396.9877
4583	1509385721	54.5036	-110.5315	1205.1	654.7	101.5	8.3	1.3	-2.28	51.19	1.9246	399.1392
4584	1509385722	54.5035	-110.5299	1205.7	654.4	101.2	8.3	1.2	-2.28	51.19	1.9241	398.3065
4585	1509385723	54.5033	-110.5284	1206.3	654.8	101.4	8.3	1.7	-2.28	51.20	1.9248	399.4971
4586	1509385724	54.5032	-110.5269	1207.3	656.5	101.1	8.4	1.6	-2.27	51.20	1.9250	398.8080
4587	1509385725	54.5030	-110.5255	1208.2	656.6	100.7	8.3	1.3	-2.27	51.20	1.9246	397.5041
4588	1509385726	54.5029	-110.5239	1209.3	656.7	100.5	8.2	1.4	-2.27	51.20	1.9245	397.5718
4589	1509385727	54.5028	-110.5225	1210.6	657.7	100.8	8.5	1.8	-2.27	51.21	1.9244	397.5718
4590	1509385728	54.5026	-110.5210	1211.6	658.6	100.7	8.5	2.3	-2.27	51.21	1.9243	397.5718
4591	1509385729	54.5025	-110.5194	1212.4	660.3	99.6	8.6	2.0	-2.27	51.21	1.9242	398.3721
4592	1509385730	54.5024	-110.5178	1212.6	661.5	98.6	8.9	1.8	-2.27	51.21	1.9264	398.5729
4593	1509385731	54.5023	-110.5163	1213.0	661.8	97.8	8.7	1.5	-2.27	51.21	1.9272	398.7736
4594	1509385732	54.5022	-110.5148	1213.4	662.4	97.2	8.4	1.3	-2.27	51.22	1.9263	398.7735
4595	1509385733	54.5021	-110.5132	1214.0	663.1	97.2	8.3	1.5	-2.26	51.22	1.9245	398.9459
4596	1509385734	54.5020	-110.5117	1214.5	663.6	97.2	8.3	1.7	-2.26	51.22	1.9251	398.2047
4597	1509385735	54.5020	-110.5109	1214.7	663.8	97.0	8.3	1.6	-2.26	51.22	1.9246	398.6798
4598	1509385736	54.5020	-110.5107	1214.7	663.9	97.0	8.3	1.6	-2.26	51.23	1.9247	398.1600
4599	1509385737	54.5020	-110.5104	1214.8	663.9	96.9	8.3	1.6	-2.26	51.23	1.9247	398.4393
4600	1509385738	54.5019	-110.5097	1214.8	664.0	96.9	8.3	1.8	-2.26	51.23	1.9258	398.4393
4601	1509385739	54.5019	-110.5082	1214.6	662.7	96.5	8.3	1.5	-2.26	51.23	1.9262	398.3424
4602	1509385740	54.5018	-110.5066	1214.2	661.7	96.4	8.5	1.6	-2.26	51.24	1.9255	398.0263
4603	1509385741	54.5017	-110.5051	1213.9	660.0	96.4	8.4	1.8	-2.26	51.24	1.9252	398.0263
4604	1509385742	54.5016	-110.5035	1213.4	657.6	96.2	8.0	1.9	-2.26	51.24	1.9247	398.1708
4605	1509385743	54.5016	-110.5019	1212.8	655.8	96.1	8.2	1.8	-2.25	51.24	1.9251	398.4737
4606	1509385744	54.5015	-110.5004	1212.2	655.2	96.1	8.2	2.1	-2.25	51.25	1.9249	397.7078
4607	1509385745	54.5014	-110.4989	1211.7	655.7	96.1	8.3	2.3	-2.25	51.25	1.9248	396.8076
4608	1509385746	54.5014	-110.4973	1211.4	657.3	95.6	8.4	1.8	-2.25	51.25	1.9258	397.9465
4609	1509385747	54.5013	-110.4958	1211.2	657.0	95.5	8.4	1.9	-2.25	51.25	1.9262	399.5122
4610	1509385748	54.5012	-110.4943	1211.0	655.9	95.7	7.9	2.2	-2.25	51.26	1.9247	399.5122
4611	1509385749	54.5012	-110.4927	1211.1	656.0	95.7	7.8	2.1	-2.25	51.26	1.9245	398.0751
4612	1509385750	54.5011	-110.4912	1211.0	657.0	95.4	7.8	2.1	-2.25	51.26	1.9241	398.0638
4613	1509385751	54.5011	-110.4896	1210.9	657.8	95.2	7.8	1.9	-2.25	51.26	1.9243	398.0656
4614	1509385752	54.5010	-110.4881	1210.8	659.0	95.1	7.8	1.9	-2.24	51.26	1.9252	397.5937
4615	1509385753	54.5010	-110.4866	1210.9	659.3	95.2	7.7	2.0	-2.24	51.27	1.9258	397.5519
4616	1509385754	54.5009	-110.4851	1211.4	660.6	95.1	7.7	1.9	-2.24	51.27	1.9257	397.5519
4617	1509385755	54.5009	-110.4835	1212.1	660.3	95.1	8.0	2.0	-2.24	51.27	1.9263	398.3615
4618	1509385756	54.5008	-110.4820	1213.1	660.3	94.9	8.0	1.8	-2.24	51.27	1.9255	398.6723
4619	1509385757	54.5008	-110.4805	1213.8	660.0	94.8	8.0	1.7	-2.24	51.28	1.9246	397.0644
4620	1509385758	54.5007	-110.4790	1214.7	661.9	94.5	7.9	1.4	-2.24	51.28	1.9249	397.0644
4621	1509385759	54.5007	-110.4774	1215.2	661.9	94.8	7.9	1.8	-2.24	51.28	1.9256	397.1473
4622	1509385760	54.5006	-110.4759	1215.1	661.7	94.6	8.0	1.6	-2.24	51.28	1.9260	399.4716
4623	1509385761	54.5006	-110.4743	1214.5	658.9	94.7	8.2	1.9	-2.23	51.29	1.9263	398.6616
4624	1509385762	54.5005	-110.4728	1213.7	657.2	94.6	8.2	1.9	-2.23	51.29	1.9258	399.2433
4625	1509385763	54.5005	-110.4713	1213.0	655.8	94.6	8.0	2.0	-2.23	51.29	1.9280	398.1139
4626	1509385764	54.5004	-110.4697	1211.9	655.9	94.5	7.9	2.1	-2.23	51.29	1.9244	398.1147
4627	1509385765	54.5004	-110.4682	1210.9	657.1	94.0	8.0	1.4	-2.23	51.30	1.9261	397.2445
4628	1509385766	54.5003	-110.4667	1210.1	657.1	94.0	8.2	1.4	-2.23	51.30	1.9259	397.9028
4629	1509385767	54.5003	-110.4655	1209.4	656.6	94.2	8.2	1.6	-2.23	51.30	1.9262	397.9557
4630	1509385768	54.5003	-110.4640	1209.0	656.2	94.1	8.3	1.5	-2.23	51.30	1.9249	398.4898
4631	1509385769	54.5002	-110.4625	1208.8	655.5	94.3	8.4	1.7	-2.23	51.31	1.9259	398.3732
4632	1509385770	54.5002	-110.4611	1208.7	655.3	94.3	8.4	1.9	-2.23	51.31	1.9256	398.3732
4633	1509385771	54.5001	-110.4597	1208.8	655.4	94.6	8.2	2.1	-2.22	51.31	1.9272	399.2808
4634	1509385772	54.5001	-110.4583	1208.9	655.7	94.2	7.8	1.5	-2.22	51.31	1.9249	397.9914
4635	1509385773	54.5000	-110.4570	1209.3	656.3	94.4	8.0	1.9	-2.22	51.31	1.9250	397.6726
4636	1509385774	54.5000	-110.4555	1209.4	657.1	94.3	8.4	1.7	-2.22	51.32	1.9262	399.4455
4637	1509385775	54.5000	-110.4541	1209.1	657.9	94.2	8.3	1.5	-2.22	51.32	1.9261	398.8290
4638	1509385776	54.4999	-110.4528	1208.6	657.7	94.1	8.4	1.3	-2.22	51.32	1.9253	399.4415
4639	1509385777	54.4999	-110.4514	1207.8	658.0	94.1	8.4	1.3	-2.22	51.32	1.9255	397.9202
4640	1509385778	54.4998	-110.4500	1207.4	657.8	94.1	8.6	1.3	-2.22	51.33	1.9260	398.0048
4641	1509385779	54.4998	-110.4485	1206.9	658.2	94.6	8.5	1.9	-2.22	51.33	1.9264	397.4563
4642	1509385780	54.4998	-110.4471	1206.3	657.3	94.6	7.9	2.0	-2.21	51.33	1.9252	398.8633
4643	1509385781	54.4997	-110.4457	1206.0	656.7	94.5	7.5	1.9	-2.21	51.33	1.9240	398.9837
4644	1509385782	54.4997	-110.4445	1205.8	655.7	94.1	7.4	1.6	-2.21	51.34	1.9253	397.8518
4645	1509385783	54.4996	-110.4430	1205.7	651.8	94.2	7.4	1.7	-2.21	51.34	1.9259	397.8518
4646	1509385784	54.4996	-110.4415	1205.9	649.7	94.0	7.2	1.4	-2.21	51.34	1.9265	397.9775
4647	1509385785	54.4996	-110.4402	1206.5	650.5	93.9	7.1	1.3	-2.21	51.34	1.9254	398.3942
4648	1509385786	54.4995	-110.4387	1207.5	653.1	94.2	6.9	1.8	-2.21	51.35	1.9258	398.3942
4649	1509385787	54.4995	-110.4373	1208.6	656.0	94.5	6.9	2.1	-2.21	51.35	1.9261	398.3942
4650	1509385788	54.4994	-110.4360	1209.7	659.1	94.2	7.2	1.8	-2.21	51.35	1.9265	398.3942
4651	1509385789	54.4994	-110.4346	1210.7	659.7	94.2	7.1	2.1	-2.21	51.35	1.9269	398.3942
4652	1509385790	54.4994	-110.4332	1211.3	661.4	93.8	6.9	1.9	-2.20	51.36	1.9269	398.5462
4653	1509385791	54.4993	-110.4318	1211.4	660.4	93.8	7.1	1.8	-2.20	51.36	1.9256	398.3228
4654	1509385792	54.4993	-110.4304	1211.7	661.7	93.6	7.5	1.6	-2.20	51.36	1.9253	398.9234
4655	1509385793	54.4993	-110.4291	1212.2	662.5	93.6	7.4	1.8	-2.20	51.36	1.9244	397.7228
4656	1509385794	54.4993	-110.4278	1212.7	662.9	93.4	7.4	1.7	-2.20	51.36	1.9247	398.2901
4657	1509385795	54.4992	-110.4276	1212.8	662.9	93.4	7.5	1.7	-2.20	51.37	1.9246	398.6104
4658	1509385796	54.4992	-110.4275	1212.9	662.9	93.4	7.6	1.7	-2.20	51.37	1.9248	398.1885
4659	1509385797	54.4992	-110.4273	1212.9	662.9	93.4	7.7	1.7	-2.20	51.37	1.9243	398.2520
4660	1509385798	54.4992	-110.4267	1213.2	662.4	93.3	8.3	1.5	-2.20	51.37	1.9262	397.4552
4661	1509385799	54.4992	-110.4251	1213.8	662.7	93.2	7.7	1.4	-2.19	51.38	1.9242	398.9723
4662	1509385800	54.4992	-110.4236	1213.8	662.1	93.5	7.5	1.7	-2.19	51.38	1.9270	399.9568
4663	1509385801	54.4991	-110.4221	1213.3	661.6	93.0	7.4	1.3	-2.19	51.38	1.9265	398.9682
4664	1509385802	54.4991	-110.4207	1212.2	662.0	93.6	7.4	2.1	-2.19	51.38	1.9254	398.8300
4665	1509385803	54.4991	-110.4192	1211.1	660.8	93.5	7.4	1.9	-2.19	51.39	1.9254	397.8051
4666	1509385804	54.4990	-110.4176	1210.1	660.0	92.9	7.4	1.2	-2.19	51.39	1.9249	398.3580
4667	1509385805	54.4990	-110.4161	1209.5	659.2	93.1	7.6	1.5	-2.19	51.39	1.9255	398.4068
4668	1509385806	54.4990	-110.4146	1209.0	658.6	93.8	7.5	2.4	-2.19	51.39	1.9258	399.1439
4669	1509385807	54.4990	-110.4130	1208.6	657.3	93.8	7.2	2.6	-2.19	51.40	1.9249	397.9015
4670	1509385808	54.4989	-110.4115	1208.5	657.2	92.8	7.0	1.7	-2.18	51.40	1.9246	397.7704
4671	1509385809	54.4989	-110.4100	1208.3	658.7	92.6	7.2	1.5	-2.18	51.40	1.9255	398.4138
4672	1509385810	54.4989	-110.4085	1208.5	660.4	92.6	7.3	1.5	-2.18	51.40	1.9247	397.8948
4673	1509385811	54.4989	-110.4070	1208.9	662.6	92.8	7.1	1.7	-2.18	51.41	1.9254	399.9691
4674	1509385812	54.4988	-110.4055	1209.2	663.9	92.7	6.9	1.7	-2.18	51.41	1.9244	398.6508
4675	1509385813	54.4988	-110.4040	1209.4	664.2	92.6	6.9	1.6	-2.18	51.41	1.9243	398.1476
4676	1509385814	54.4988	-110.4025	1209.6	664.6	92.6	6.9	1.8	-2.18	51.41	1.9248	398.2893
4677	1509385815	54.4988	-110.4010	1209.6	664.6	92.5	7.0	1.8	-2.18	51.41	1.9249	398.9785
4678	1509385816	54.4988	-110.3995	1209.2	664.4	92.4	7.2	1.7	-2.18	51.42	1.9261	398.9785
4679	1509385817	54.4988	-110.3980	1208.6	663.9	92.1	7.4	1.5	-2.18	51.42	1.9251	398.0538
4680	1509385818	54.4987	-110.3965	1208.5	663.9	92.3	7.4	2.0	-2.17	51.42	1.9261	398.2562
4681	1509385819	54.4987	-110.3951	1208.4	663.8	92.2	7.3	1.9	-2.17	51.42	1.9261	397.8219
4682	1509385820	54.4987	-110.3936	1208.4	663.8	92.4	7.3	2.1	-2.17	51.43	1.9262	398.5591
4683	1509385821	54.4987	-110.3921	1208.7	663.9	91.8	7.2	1.3	-2.17	51.43	1.9257	398.8546
4684	1509385822	54.4987	-110.3907	1208.6	663.5	92.0	7.1	1.6	-2.17	51.43	1.9246	398.9583
4685	1509385823	54.4987	-110.3892	1208.7	663.8	92.5	6.9	2.2	-2.17	51.43	1.9259	397.6922
4686	1509385824	54.4987	-110.3877	1208.8	665.1	91.8	6.8	1.6	-2.17	51.44	1.9267	398.2285
4687	1509385825	54.4987	-110.3863	1208.6	665.4	92.5	6.8	2.6	-2.17	51.44	1.9264	397.9672
4688	1509385826	54.4987	-110.3849	1207.4	663.9	91.7	6.7	1.8	-2.17	51.44	1.9260	397.8545
4689	1509385827	54.4987	-110.3837	1205.5	661.0	92.4	6.7	2.7	-2.16	51.44	1.9258	398.9835
4690	1509385828	54.4987	-110.3823	1204.1	658.6	92.0	6.9	2.0	-2.16	51.45	1.9259	397.7487
4691	1509385829	54.4987	-110.3811	1203.1	657.7	92.1	7.0	2.3	-2.16	51.45	1.9250	397.9944
4692	1509385830	54.4986	-110.3797	1202.1	656.7	91.9	7.1	2.4	-2.16	51.45	1.9252	398.5051
4693	1509385831	54.4986	-110.3785	1200.7	655.5	92.1	6.9	2.8	-2.16	51.45	1.9263	398.7721
4694	1509385832	54.4987	-110.3773	1199.4	654.2	91.2	7.1	2.1	-2.16	51.45	1.9266	398.3949
4695	1509385833	54.4987	-110.3760	1197.9	652.7	90.6	7.2	1.9	-2.16	51.46	1.9255	398.5237
4696	1509385834	54.4987	-110.3748	1197.0	651.7	90.5	7.0	1.8	-2.16	51.46	1.9253	398.8460
4697	1509385835	54.4987	-110.3736	1196.2	651.1	90.0	7.2	1.4	-2.16	51.46	1.9254	399.0222
4698	1509385836	54.4987	-110.3724	1194.2	649.2	90.7	7.0	2.5	-2.16	51.46	1.9254	399.0968
4699	1509385837	54.4987	-110.3711	1190.1	645.1	89.9	7.0	1.9	-2.15	51.47	1.9252	399.1711
4700	1509385838	54.4987	-110.3700	1184.4	640.2	89.3	7.5	1.5	-2.15	51.47	1.9266	399.1368
4701	1509385839	54.4988	-110.3687	1176.6	632.3	89.3	7.4	1.6	-2.15	51.47	1.9256	399.0971
4702	1509385840	54.4988	-110.3675	1170.1	625.8	89.8	7.5	1.8	-2.15	51.47	1.9270	398.7112
4703	1509385841	54.4988	-110.3662	1163.0	618.8	89.8	7.7	1.7	-2.15	51.48	1.9260	398.9729
4704	1509385842	54.4988	-110.3649	1156.6	612.4	90.0	7.9	1.7	-2.15	51.48	1.9251	398.9729
4705	1509385843	54.4988	-110.3638	1150.9	606.8	90.3	7.9	1.7	-2.15	51.48	1.9272	398.9417
4706	1509385844	54.4988	-110.3625	1145.7	601.6	90.8	7.9	1.9	-2.15	51.48	1.9260	399.1149
4707	1509385845	54.4988	-110.3613	1140.6	596.5	90.7	7.9	1.7	-2.15	51.49	1.9266	399.1149
4708	1509385846	54.4988	-110.3602	1135.0	589.9	90.6	8.0	1.7	-2.14	51.49	1.9267	398.5693
4709	1509385847	54.4989	-110.3588	1127.5	581.4	90.5	8.1	1.6	-2.14	51.49	1.9266	398.6075
4710	1509385848	54.4989	-110.3575	1121.1	575.0	89.9	8.3	1.1	-2.14	51.49	1.9264	398.6457
4711	1509385849	54.4989	-110.3563	1115.6	568.5	89.5	7.8	1.0	-2.14	51.50	1.9262	398.6839
4712	1509385850	54.4989	-110.3551	1109.8	562.7	90.3	7.3	2.0	-2.14	51.50	1.9260	398.7221
4713	1509385851	54.4989	-110.3538	1103.9	556.7	90.0	7.3	1.8	-2.14	51.50	1.9258	398.7603
4714	1509385852	54.4989	-110.3526	1098.1	551.0	89.6	7.3	1.5	-2.14	51.50	1.9256	398.7985
4715	1509385853	54.4989	-110.3514	1092.0	544.9	89.3	7.6	1.3	-2.14	51.50	1.9266	399.9526
4716	1509385854	54.4990	-110.3502	1086.2	539.1	88.9	8.0	1.2	-2.14	51.51	1.9270	398.5364
4717	1509385855	54.4990	-110.3501	1085.8	538.7	88.9	8.0	1.3	-2.13	51.51	1.9255	401.4216
4718	1509385856	54.4990	-110.3500	1085.4	538.2	88.9	8.0	1.3	-2.13	51.51	1.9269	399.0655
4719	1509385857	54.4990	-110.3499	1084.9	537.8	89.0	8.0	1.3	-2.13	51.51	1.9266	398.8580
4720	1509385858	54.4990	-110.3499	1084.5	537.4	89.0	7.9	1.4	-2.13	51.52	1.9272	398.9569
4721	1509385859	54.4990	-110.3498	1084.1	537.0	89.0	8.0	1.4	-2.13	51.52	1.9267	398.7006
4722	1509385860	54.4990	-110.3497	1083.7	536.6	89.0	8.0	1.5	-2.13	51.52	1.9262	398.7730
4723	1509385861	54.4990	-110.3496	1083.2	536.2	89.0	7.5	1.5	-2.13	51.52	1.9262	399.8421
4724	1509385862	54.4990	-110.3486	1078.0	531.0	88.9	7.6	1.4	-2.13	51.53	1.9273	399.2692
4725	1509385863	54.4990	-110.3472	1070.6	524.6	87.9	7.9	0.6	-2.13	51.53	1.9278	399.1618
4726	1509385864	54.4991	-110.3458	1062.8	516.8	88.9	8.0	1.6	-2.13	51.53	1.9288	400.1528
4727	1509385865	54.4991	-110.3444	1055.0	509.0	88.9	8.2	1.0	-2.12	51.53	1.9280	398.9576
4728	1509385866	54.4991	-110.3430	1047.5	499.8	90.3	8.8	2.0	-2.12	51.54	1.9302	399.2246
4729	1509385867	54.4991	-110.3416	1040.6	491.7	90.1	9.3	1.5	-2.12	51.54	1.9285	399.5978
4730	1509385868	54.4991	-110.3402	1033.3	483.4	90.5	9.6	1.8	-2.12	51.54	1.9293	399.3025
4731	1509385869	54.4991	-110.3388	1026.2	475.2	90.1	10.0	1.1	-2.12	51.54	1.9291	399.7838
4732	1509385870	54.4992	-110.3374	1020.0	469.5	90.5	10.2	1.6	-2.12	51.55	1.9283	401.1628
4733	1509385871	54.4992	-110.3359	1013.4	463.5	90.5	10.2	1.4	-2.12	51.55	1.9289	399.7894
4734	1509385872	54.4992	-110.3346	1007.3	457.6	90.9	10.1	1.7	-2.12	51.55	1.9305	400.3037
4735	1509385873	54.4992	-110.3332	1001.3	452.4	90.7	9.7	1.3	-2.12	51.55	1.9309	399.6947
4736	1509385874	54.4992	-110.3318	994.8	444.9	90.7	9.9	1.2	-2.11	51.55	1.9319	399.3538
4737	1509385875	54.4992	-110.3305	988.2	438.5	90.7	9.9	1.0	-2.11	51.56	1.9323	399.3538
4738	1509385876	54.4992	-110.3290	981.3	431.4	90.8	10.1	1.1	-2.11	51.56	1.9309	399.0403
4739	1509385877	54.4992	-110.3276	973.8	422.8	91.1	10.5	1.2	-2.11	51.56	1.9280	400.8915
4740	1509385878	54.4992	-110.3263	966.6	414.2	91.3	11.2	1.2	-2.11	51.56	1.9262	399.2353
4741	1509385879	54.4992	-110.3249	959.6	406.2	91.6	12.2	1.1	-2.11	51.57	1.9261	400.7734
4742	1509385880	54.4992	-110.3235	953.0	399.8	92.0	13.1	1.2	-2.11	51.57	1.9262	400.4797
4743	1509385881	54.4991	-110.3221	947.1	394.1	92.8	13.8	1.6	-2.11	51.57	1.9259	400.1724
4744	1509385882	54.4991	-110.3208	943.6	391.5	93.5	13.3	2.2	-2.11	51.57	1.9266	400.3213
4745	1509385883	54.4991	-110.3194	940.5	388.3	93.6	12.9	2.2	-2.11	51.58	1.9260	400.3874
4746	1509385884	54.4991	-110.3181	937.1	386.5	94.2	13.0	2.7	-2.10	51.58	1.9257	398.4867
4747	1509385885	54.4991	-110.3168	933.0	383.9	94.6	12.9	2.9	-2.10	51.58	1.9266	399.2852
4748	1509385886	54.4990	-110.3155	929.5	381.4	94.4	13.0	2.6	-2.10	51.58	1.9262	398.2082
4749	1509385887	54.4990	-110.3143	926.0	377.9	94.7	12.8	2.9	-2.10	51.59	1.9239	398.7122
4750	1509385888	54.4990	-110.3130	923.0	374.2	94.4	12.9	2.6	-2.10	51.59	1.9242	398.7122
4751	1509385889	54.4990	-110.3117	920.4	371.5	94.5	12.9	2.6	-2.10	51.59	1.9245	399.1106
4752	1509385890	54.4990	-110.3105	918.5	368.5	94.9	12.9	2.7	-2.10	51.59	1.9256	399.4954
4753	1509385891	54.4989	-110.3092	917.3	368.3	94.9	12.5	2.6	-2.10	51.60	1.9257	399.4954
4754	1509385892	54.4989	-110.3081	916.4	368.3	94.8	12.6	2.4	-2.10	51.60	1.9270	401.5829
4755	1509385893	54.4989	-110.3069	915.2	369.2	94.7	12.1	2.3	-2.09	51.60	1.9274	402.9001
4756	1509385894	54.4989	-110.3058	914.1	369.0	94.7	11.9	2.3	-2.09	51.60	1.9275	402.0294
4757	1509385895	54.4988	-110.3046	912.4	368.3	94.7	11.7	2.2	-2.09	51.60	1.9279	401.2432
4758	1509385896	54.4988	-110.3034	910.6	365.6	94.9	11.1	2.3	-2.09	51.61	1.9273	401.4907
4759	1509385897	54.4988	-110.3022	908.9	363.8	95.1	10.8	2.3	-2.09	51.61	1.9265	400.6247
4760	1509385898	54.4988	-110.3011	906.6	361.4	95.6	10.8	2.6	-2.09	51.61	1.9271	401.3540
4761	1509385899	54.4987	-110.2999	904.3	358.0	95.9	10.4	2.6	-2.09	51.61	1.9303	401.3540
4762	1509385900	54.4987	-110.2988	901.8	355.4	95.8	10.4	2.4	-2.09	51.62	1.9295	403.3304
4763	1509385901	54.4987	-110.2977	899.4	352.0	96.1	10.0	2.6	-2.09	51.62	1.9308	402.8185
4764	1509385902	54.4986	-110.2966	896.7	349.6	95.9	9.7	2.5	-2.08	51.62	1.9320	402.8185
4765	1509385903	54.4986	-110.2955	892.5	345.5	95.7	9.3	2.5	-2.08	51.62	1.9343	403.1505
4766	1509385904	54.4986	-110.2944	887.4	341.3	95.4	8.8	2.5	-2.08	51.63	1.9344	402.1385
4767	1509385905	54.4986	-110.2933	881.7	336.6	95.6	8.5	2.5	-2.08	51.63	1.9349	402.1385
4768	1509385906	54.4985	-110.2922	876.6	332.5	95.7	8.2	2.6	-2.08	51.63	1.9337	402.5570
4769	1509385907	54.4985	-110.2911	872.2	328.0	96.5	8.5	2.9	-2.08	51.63	1.9339	402.5570
4770	1509385908	54.4985	-110.2900	868.4	324.4	96.3	8.7	2.7	-2.08	51.64	1.9341	402.5570
4771	1509385909	54.4984	-110.2889	864.6	319.0	96.9	8.8	3.2	-2.08	51.64	1.9343	402.5570
4772	1509385910	54.4984	-110.2878	861.1	314.5	95.6	8.5	1.9	-2.08	51.64	1.9341	402.1363
4773	1509385911	54.4984	-110.2867	857.6	310.2	95.9	8.4	2.5	-2.08	51.64	1.9409	401.8132
4774	1509385912	54.4983	-110.2856	853.8	306.5	96.5	8.2	2.9	-2.07	51.65	1.9400	401.6967
4775	1509385913	54.4983	-110.2846	850.8	304.5	95.7	7.7	2.3	-2.07	51.65	1.9399	402.0127
4776	1509385914	54.4983	-110.2835	848.3	303.1	95.7	6.9	2.8	-2.07	51.65	1.9402	402.0127
4777	1509385915	54.4982	-110.2827	846.4	302.1	96.9	6.9	3.7	-2.07	51.65	1.9372	401.8342
4778	1509385916	54.4982	-110.2826	846.0	301.6	96.9	6.9	3.6	-2.07	51.65	1.9348	401.5195
4779	1509385917	54.4982	-110.2824	845.6	301.6	96.9	7.0	3.5	-2.07	51.66	1.9356	400.2237
4780	1509385918	54.4982	-110.2820	844.5	300.8	96.4	7.2	2.8	-2.07	51.66	1.9384	401.0063
4781	1509385919	54.4982	-110.2809	842.3	300.2	96.4	8.1	2.8	-2.07	51.66	1.9372	401.3099
4782	1509385920	54.4982	-110.2799	839.5	299.7	96.2	7.3	2.6	-2.07	51.66	1.9390	401.3099
4783	1509385921	54.4981	-110.2788	836.2	297.8	96.1	7.7	2.5	-2.06	51.67	1.9419	400.8445
4784	1509385922	54.4981	-110.2778	832.8	294.4	97.0	8.0	2.8	-2.06	51.67	1.9398	400.9074
4785	1509385923	54.4981	-110.2768	830.4	291.2	97.1	7.8	2.4	-2.06	51.67	1.9391	400.9074
4786	1509385924	54.4980	-110.2757	827.9	287.1	97.9	7.6	3.0	-2.06	51.67	1.9435	399.2174
4787	1509385925	54.4980	-110.2747	824.8	283.2	97.9	7.4	3.0	-2.06	51.68	1.9466	400.5373
4788	1509385926	54.4979	-110.2736	821.7	279.2	96.6	7.3	2.2	-2.06	51.68	1.9439	399.7081
4789	1509385927	54.4979	-110.2726	819.6	276.0	96.7	7.3	2.4	-2.06	51.68	1.9446	400.6888
4790	1509385928	54.4979	-110.2716	817.5	272.8	96.9	7.6	2.3	-2.06	51.68	1.9458	399.7342
4791	1509385929	54.4978	-110.2706	815.4	270.6	97.6	7.5	3.0	-2.06	51.69	1.9441	400.2932
4792	1509385930	54.4978	-110.2696	813.8	268.9	97.7	6.9	3.1	-2.06	51.69	1.9442	399.7455
4793	1509385931	54.4977	-110.2685	811.9	265.9	97.7	6.7	3.2	-2.05	51.69	1.9447	399.3140
4794	1509385932	54.4977	-110.2675	810.4	264.4	97.2	6.5	2.8	-2.05	51.69	1.9448	400.4413
4795	1509385933	54.4977	-110.2665	809.1	263.1	97.6	6.8	3.1	-2.05	51.70	1.9434	400.8124
4796	1509385934	54.4976	-110.2655	808.3	262.2	97.5	6.8	2.9	-2.05	51.70	1.9468	400.2497
4797	1509385935	54.4976	-110.2646	807.5	260.7	96.2	6.5	2.1	-2.05	51.70	1.9648	400.6405
4798	1509385936	54.4975	-110.2635	806.4	259.2	96.3	6.4	2.1	-2.05	51.70	1.9772	400.9479
4799	1509385937	54.4975	-110.2626	805.4	258.0	96.2	5.9	2.0	-2.05	51.70	1.9657	400.9479
4800	1509385938	54.4975	-110.2616	804.7	257.1	95.6	5.4	0.9	-2.05	51.71	1.9545	399.7238
4801	1509385939	54.4974	-110.2606	804.5	256.8	95.6	5.4	0.9	-2.05	51.71	1.9495	399.0529
4802	1509385940	54.4974	-110.2596	804.1	256.5	98.8	6.4	3.4	-2.04	51.71	1.9456	399.3291
4803	1509385941	54.4973	-110.2586	803.1	255.8	97.8	6.8	2.1	-2.04	51.71	1.9631	400.5357
4804	1509385942	54.4973	-110.2576	802.4	255.3	97.1	6.5	1.7	-2.04	51.72	1.9646	400.2348
4805	1509385943	54.4972	-110.2566	802.0	255.9	99.0	6.7	3.0	-2.04	51.72	1.9591	401.5874
4806	1509385944	54.4972	-110.2556	801.4	255.3	97.6	6.6	1.2	-2.04	51.72	1.9531	401.5983
4807	1509385945	54.4971	-110.2547	801.2	256.2	96.1	7.1	0.6	-2.04	51.72	1.9497	400.6230
4808	1509385946	54.4971	-110.2537	798.9	253.8	98.9	7.9	2.9	-2.04	51.73	1.9522	399.9407
4809	1509385947	54.4970	-110.2527	796.5	252.4	98.3	8.0	1.8	-2.04	51.73	1.9637	401.6738
4810	1509385948	54.4970	-110.2517	794.5	250.6	97.4	7.9	1.7	-2.04	51.73	1.9629	401.6738
4811	1509385949	54.4969	-110.2509	793.0	249.1	98.2	7.4	2.1	-2.03	51.73	1.9635	400.1115
4812	1509385950	54.4969	-110.2499	792.4	248.4	97.4	6.2	1.4	-2.03	51.74	1.9645	400.3655
4813	1509385951	54.4968	-110.2490	792.2	247.7	97.9	5.7	1.6	-2.03	51.74	1.9585	400.3136
4814	1509385952	54.4968	-110.2482	791.6	246.1	98.8	6.3	2.2	-2.03	51.74	1.9552	399.2666
4815	1509385953	54.4967	-110.2473	790.8	244.7	99.2	6.8	2.4	-2.03	51.74	1.9613	399.0222
4816	1509385954	54.4967	-110.2464	790.0	244.3	98.1	6.7	1.5	-2.03	51.74	1.9624	401.0174
4817	1509385955	54.4966	-110.2455	789.6	244.3	97.5	6.6	1.2	-2.03	51.75	1.9614	400.0669
4818	1509385956	54.4966	-110.2446	789.3	244.3	98.2	6.7	2.2	-2.03	51.75	1.9585	399.4595
4819	1509385957	54.4965	-110.2437	789.6	245.2	97.4	6.5	1.7	-2.03	51.75	1.9585	401.2873
4820	1509385958	54.4965	-110.2428	788.8	245.4	96.3	6.0	1.3	-2.03	51.75	1.9683	401.0552
4821	1509385959	54.4965	-110.2420	786.5	243.3	97.6	5.5	2.4	-2.02	51.76	1.9923	401.4043
4822	1509385960	54.4964	-110.2411	784.4	241.1	97.9	5.6	2.0	-2.02	51.76	1.9943	401.2631
4823	1509385961	54.4964	-110.2402	783.0	239.8	97.3	5.1	0.6	-2.02	51.76	1.9983	400.6049
4824	1509385962	54.4963	-110.2392	780.9	237.7	101.6	5.5	2.3	-2.02	51.76	1.9972	402.2487
4825	1509385963	54.4962	-110.2384	778.7	235.5	105.2	6.0	1.8	-2.02	51.77	2.0052	402.2487
4826	1509385964	54.4961	-110.2376	777.6	234.3	106.4	5.1	0.0	-2.02	51.77	2.0045	401.0782
4827	1509385965	54.4959	-110.2367	776.1	232.8	111.1	4.4	0.7	-2.02	51.77	2.0069	401.0782
4828	1509385966	54.4958	-110.2359	774.5	230.8	116.2	4.7	1.3	-2.02	51.77	2.0100	401.8557
4829	1509385967	54.4955	-110.2350	772.6	227.8	121.8	5.2	1.8	-2.02	51.78	2.0086	401.8557
4830	1509385968	54.4953	-110.2343	771.0	226.1	126.3	4.8	1.5	-2.01	51.78	2.0072	401.8557
4831	1509385969	54.4950	-110.2335	769.3	224.2	129.3	4.2	1.0	-2.01	51.78	2.0017	401.1477
4832	1509385970	54.4947	-110.2329	766.8	220.8	134.0	4.7	1.3	-2.01	51.78	1.9922	400.7952
4833	1509385971	54.4943	-110.2322	763.3	216.6	139.4	4.8	1.4	-2.01	51.79	1.9840	400.4694
4834	1509385972	54.4940	-110.2316	760.7	213.5	143.1	4.4	1.7	-2.01	51.79	1.9827	401.7102
4835	1509385973	54.4936	-110.2310	757.5	210.4	148.9	5.2	2.6	-2.01	51.79	1.9843	402.1768
4836	1509385974	54.4932	-110.2306	755.4	208.3	153.9	5.4	2.6	-2.01	51.79	1.9856	401.1041
4837	1509385975	54.4931	-110.2305	755.2	207.1	154.4	5.4	2.6	-2.01	51.79	1.9858	401.5623
4838	1509385976	54.4931	-110.2305	755.1	208.1	154.9	5.4	2.6	-2.01	51.80	1.9841	401.3936
4839	1509385977	54.4930	-110.2304	754.9	207.9	155.4	5.4	2.6	-2.01	51.80	1.9849	400.3201
4840	1509385978	54.4928	-110.2302	754.0	206.2	156.6	5.3	2.8	-2.00	51.80	1.9984	402.3443
4841	1509385979	54.4923	-110.2297	750.4	202.3	159.1	5.1	2.7	-2.00	51.80	1.9908	402.0991
4842	1509385980	54.4918	-110.2293	746.2	197.9	162.0	5.5	3.1	-2.00	51.81	1.9888	402.2742
4843	1509385981	54.4913	-110.2289	742.2	193.2	163.1	4.6	2.9	-2.00	51.81	1.9973	402.2373
4844	1509385982	54.4908	-110.2286	739.6	189.6	163.8	4.0	2.2	-2.00	51.81	1.9976	401.8755
4845	1509385983	54.4902	-110.2283	736.8	185.8	165.1	4.3	2.2	-2.00	51.81	1.9890	402.1562
4846	1509385984	54.4897	-110.2280	734.0	183.0	167.2	5.3	2.7	-2.00	51.82	1.9906	401.3214
4847	1509385985	54.4892	-110.2277	731.1	180.1	167.7	4.4	2.6	-2.00	51.82	1.9938	401.5118
4848	1509385986	54.4887	-110.2274	729.3	177.6	167.4	3.5	2.6	-2.00	51.82	1.9940	400.5138
4849	1509385987	54.4882	-110.2271	727.5	175.5	169.9	5.0	2.5	-1.99	51.82	1.9891	400.7567
4850	1509385988	54.4877	-110.2269	726.3	172.9	170.5	4.9	1.9	-1.99	51.83	2.0029	402.6809
4851	1509385989	54.4872	-110.2267	725.7	172.7	171.6	4.8	1.5	-1.99	51.83	2.0051	402.6809
4852	1509385990	54.4867	-110.2265	724.8	171.0	173.5	5.1	1.2	-1.99	51.83	2.0069	402.4598
4853	1509385991	54.4862	-110.2263	723.7	169.7	175.0	4.7	1.3	-1.99	51.83	2.0183	401.6763
4854	1509385992	54.4857	-110.2262	722.7	169.5	175.6	3.5	2.1	-1.99	51.84	2.0275	401.9970
4855	1509385993	54.4852	-110.2261	720.7	166.4	178.6	3.6	2.6	-1.99	51.84	2.0274	401.9970
4856	1509385994	54.4847	-110.2260	718.9	164.7	183.6	4.5	2.4	-1.99	51.84	2.0245	401.2864
4857	1509385995	54.4842	-110.2260	717.5	162.4	186.9	3.9	2.2	-1.99	51.84	2.0243	401.2864
4858	1509385996	54.4838	-110.2261	714.7	159.7	189.3	3.6	2.3	-1.99	51.84	2.0226	401.9335
4859	1509385997	54.4833	-110.2262	712.0	158.0	192.1	3.2	1.8	-1.98	51.85	2.0241	401.5494
4860	1509385998	54.4828	-110.2263	709.6	155.6	196.3	4.0	1.9	-1.98	51.85	2.0257	402.2093
4861	1509385999	54.4824	-110.2265	707.6	155.4	200.6	4.9	2.9	-1.98	51.85	2.0291	401.8834
4862	1509386000	54.4820	-110.2268	706.1	154.0	204.3	4.9	3.2	-1.98	51.85	2.0278	402.6815
4863	1509386001	54.4815	-110.2271	704.0	152.9	207.9	4.7	2.9	-1.98	51.86	2.0246	402.8878
4864	1509386002	54.4811	-110.2274	701.8	151.8	211.4	4.4	3.0	-1.98	51.86	2.0286	403.1847
4865	1509386003	54.4807	-110.2278	699.6	151.3	217.1	5.6	2.1	-1.98	51.86	2.0299	401.2548
4866	1509386004	54.4804	-110.2282	697.2	149.2	219.7	4.8	2.6	-1.98	51.86	2.0315	402.0291
4867	1509386005	54.4800	-110.2287	693.6	146.6	222.4	3.6	2.7	-1.98	51.87	2.0342	402.0291
4868	1509386006	54.4797	-110.2292	690.2	143.2	228.5	4.5	1.7	-1.97	51.87	2.0467	402.4674
4869	1509386007	54.4795	-110.2297	687.5	140.5	232.8	5.0	1.2	-1.97	51.87	2.0466	402.4694
4870	1509386008	54.4793	-110.2302	684.5	137.4	234.1	4.2	1.8	-1.97	51.87	2.0473	402.2377
4871	1509386009	54.4790	-110.2308	681.0	134.5	236.3	4.0	1.8	-1.97	51.88	2.0482	404.0066
4872	1509386010	54.4788	-110.2313	678.1	132.1	239.2	4.3	1.7	-1.97	51.88	2.0523	402.2139
4873	1509386011	54.4786	-110.2319	675.0	128.9	241.6	4.3	1.8	-1.97	51.88	2.0518	403.2552
4874	1509386012	54.4785	-110.2324	672.3	127.2	244.4	4.5	1.4	-1.97	51.88	2.0522	403.2552
4875	1509386013	54.4783	-110.2330	669.5	124.5	247.2	4.3	1.1	-1.97	51.89	2.0503	401.8988
4876	1509386014	54.4782	-110.2335	666.6	121.6	249.8	4.1	0.8	-1.97	51.89	2.0506	403.1651
4877	1509386015	54.4780	-110.2342	662.9	117.9	253.8	3.7	0.3	-1.96	51.89	2.0449	402.1967
4878	1509386016	54.4779	-110.2348	659.1	114.1	258.0	3.9	-0.8	-1.96	51.89	2.0431	401.4594
4879	1509386017	54.4779	-110.2354	656.5	110.5	261.4	3.6	-0.8	-1.96	51.89	2.0454	401.8416
4880	1509386018	54.4778	-110.2361	653.1	107.1	263.6	3.4	-0.3	-1.96	51.90	2.0427	403.2047
4881	1509386019	54.4778	-110.2367	650.3	104.3	266.5	3.5	-0.4	-1.96	51.90	2.0327	401.9797
4882	1509386020	54.4777	-110.2373	648.1	101.6	268.6	4.0	-0.7	-1.96	51.90	2.0268	402.2523
4883	1509386021	54.4777	-110.2379	646.1	99.1	267.2	4.4	0.7	-1.96	51.90	2.0221	403.1992
4884	1509386022	54.4777	-110.2386	643.5	96.5	265.4	4.7	2.0	-1.96	51.91	2.0247	401.8719
4885	1509386023	54.4777	-110.2391	640.8	93.8	267.3	4.5	0.9	-1.96	51.91	2.0257	402.0752
4886	1509386024	54.4777	-110.2398	638.2	91.2	268.0	4.2	0.9	-1.96	51.91	2.0136	402.0752
4887	1509386025	54.4777	-110.2404	635.7	88.4	266.7	3.7	1.8	-1.95	51.91	2.0165	401.9827
4888	1509386026	54.4777	-110.2410	633.3	85.3	266.5	3.4	1.6	-1.95	51.92	2.0168	401.9827
4889	1509386027	54.4777	-110.2415	630.8	82.8	267.3	3.4	0.9	-1.95	51.92	2.0171	401.9827
4890	1509386028	54.4777	-110.2421	628.7	80.7	268.0	3.5	0.5	-1.95	51.92	2.0175	401.9827
4891	1509386029	54.4777	-110.2428	626.7	78.5	268.8	3.2	0.2	-1.95	51.92	2.0178	401.9827
4892	1509386030	54.4777	-110.2434	624.8	75.8	268.3	3.2	0.6	-1.95	51.93	2.0182	401.9827
4893	1509386031	54.4777	-110.2439	622.6	73.6	268.0	3.4	0.9	-1.95	51.93	2.0185	401.9827
4894	1509386032	54.4776	-110.2445	620.0	71.0	268.0	3.6	0.8	-1.95	51.93	2.0188	401.9827
4895	1509386033	54.4776	-110.2451	617.5	68.5	268.6	3.6	0.5	-1.95	51.93	2.0265	402.1070
4896	1509386034	54.4776	-110.2457	614.2	65.2	268.2	3.5	1.1	-1.94	51.94	2.0274	401.2325
4897	1509386035	54.4776	-110.2457	613.9	64.9	268.2	3.5	1.1	-1.94	51.94	2.0059	402.0832
4898	1509386036	54.4776	-110.2457	613.6	64.6	268.1	3.6	1.2	-1.94	51.94	2.0034	401.3474
4899	1509386037	54.4776	-110.2458	613.3	64.3	268.0	3.6	1.3	-1.94	51.94	2.0053	403.0364
4900	1509386038	54.4776	-110.2458	612.9	63.9	267.9	3.7	1.3	-1.94	51.94	2.0067	401.8418
4901	1509386039	54.4776	-110.2459	612.6	63.6	267.8	3.7	1.4	-1.94	51.95	2.0079	401.4989
4902	1509386040	54.4776	-110.2459	612.3	63.3	267.8	3.8	1.5	-1.94	51.95	2.0060	401.5877
4903	1509386041	54.4776	-110.2459	612.0	63.0	267.7	3.8	1.5	-1.94	51.95	2.0050	402.4530
4904	1509386042	54.4776	-110.2464	608.8	59.8	267.3	2.9	1.8	-1.94	51.95	2.0061	402.2136
4905	1509386043	54.4776	-110.2471	605.2	56.2	268.9	2.7	1.0	-1.94	51.96	2.0062	402.1009
4906	1509386044	54.4776	-110.2478	602.7	53.7	269.5	2.1	0.6	-1.93	51.96	2.0047	402.5398
4907	1509386045	54.4776	-110.2484	601.1	52.2	268.1	1.6	1.4	-1.93	51.96	2.0046	401.7446
4908	1509386046	54.4776	-110.2490	599.2	50.3	268.3	2.1	1.1	-1.93	51.96	2.0061	401.8788
4909	1509386047	54.4776	-110.2497	596.6	47.7	267.8	2.2	1.6	-1.93	51.97	2.0061	401.8946
4910	1509386048	54.4776	-110.2504	594.1	45.9	267.1	2.3	1.8	-1.93	51.97	2.0040	401.7733
4911	1509386049	54.4776	-110.2510	591.4	43.3	268.5	2.5	0.4	-1.93	51.97	2.0045	402.5446
4912	1509386050	54.4776	-110.2517	589.3	41.3	269.4	2.7	0.1	-1.93	51.97	2.0039	402.4530
4913	1509386051	54.4776	-110.2523	587.2	39.3	267.9	3.1	1.2	-1.93	51.98	2.0050	402.4021
4914	1509386052	54.4776	-110.2529	584.4	36.4	267.3	3.5	1.6	-1.93	51.98	2.0056	401.3321
4915	1509386053	54.4776	-110.2536	581.7	34.1	268.0	2.8	1.1	-1.92	51.98	2.0042	400.5585
4916	1509386054	54.4776	-110.2542	579.0	32.0	268.5	2.6	1.1	-1.92	51.98	2.0002	401.9929
4917	1509386055	54.4776	-110.2549	575.9	29.1	267.7	2.3	1.4	-1.92	51.99	1.9963	402.3993
4918	1509386056	54.4776	-110.2556	572.4	26.5	269.0	2.0	0.3	-1.92	51.99	1.9966	401.8465
4919	1509386057	54.4776	-110.2562	569.6	23.6	269.0	2.5	0.8	-1.92	51.99	1.9974	401.3130
4920	1509386058	54.4776	-110.2569	567.3	21.7	266.7	3.1	2.0	-1.92	51.99	1.9946	401.1428
4921	1509386059	54.4776	-110.2576	565.2	20.2	267.8	2.4	1.0	-1.92	51.99	1.9933	401.5429
4922	1509386060	54.4776	-110.2583	563.5	18.5	269.4	2.0	-0.2	-1.92	52.00	1.9917	400.8550
4923	1509386061	54.4776	-110.2589	561.6	16.6	270.5	1.7	-0.6	-1.92	52.00	1.9918	401.3356
4924	1509386062	54.4776	-110.2596	559.0	15.0	271.0	1.3	-0.8	-1.91	52.00	1.9909	401.8820
4925	1509386063	54.4776	-110.2602	556.9	12.9	270.6	0.9	-0.3	-1.91	52.00	1.9905	400.3013
4926	1509386064	54.4776	-110.2609	553.8	9.8	270.5	0.0	-0.2	-1.91	52.01	1.9917	401.3514
4927	1509386065	54.4776	-110.2615	551.3	7.3	270.3	-0.7	-0.3	-1.91	52.01	1.9908	401.4587
4928	1509386066	54.4776	-110.2621	549.0	5.0	270.5	-1.1	-0.5	-1.91	52.01	1.9907	401.3886
4929	1509386067	54.4776	-110.2627	547.1	3.1	270.5	-1.5	-0.4	-1.91	52.01	1.9902	401.9259
4930	1509386068	54.4776	-110.2633	546.0	2.0	270.6	-1.5	-0.4	-1.91	52.02	1.9890	400.9782
4931	1509386069	54.4776	-110.2639	545.6	1.6	270.6	-1.2	-0.5	-1.91	52.02	1.9919	400.9455
4932	1509386070	54.4776	-110.2645	545.3	1.3	270.8	-1.3	-0.6	-1.91	52.02	1.9930	401.3055
4933	1509386071	54.4776	-110.2651	545.1	1.1	271.2	-1.1	-0.5	-1.91	52.02	1.9937	400.1851
4934	1509386072	54.4776	-110.2656	545.1	1.1	270.3	-1.1	0.1	-1.90	52.03	1.9932	400.8073
4935	1509386073	54.4776	-110.2662	545.1	1.1	269.3	-1.5	0.4	-1.90	52.03	1.9930	400.8073
4936	1509386074	54.4776	-110.2667	545.1	1.1	269.3	-1.6	0.3	-1.90	52.03	1.9939	400.3486
4937	1509386075	54.4776	-110.2672	545.1	1.1	269.8	-1.8	0.1	-1.90	52.03	1.9938	400.5590
4938	1509386076	54.4776	-110.2677	545.1	1.1	269.5	-1.6	0.1	-1.90	52.04	1.9949	400.9377
4939	1509386077	54.4776	-110.2682	545.1	0.4	269.5	-1.4	0.1	-1.90	52.04	1.9904	401.3736
4940	1509386078	54.4776	-110.2686	545.1	0.4	269.9	-1.2	0.1	-1.90	52.04	1.9854	400.0052
4941	1509386079	54.4776	-110.2690	545.1	0.4	269.8	-0.6	0.2	-1.90	52.04	1.9846	401.6059
4942	1509386080	54.4776	-110.2694	545.1	0.4	270.0	0.0	0.1	-1.90	52.04	1.9874	400.8636
4943	1509386081	54.4776	-110.2698	545.1	1.1	269.7	0.0	0.1	-1.89	52.05	1.9862	399.9745
4944	1509389183	54.4776	-110.2644	545.2	1.2	268.9	0.1	0.3	0.70	56.61	1.9448	400.6512
4945	1509389184	54.4776	-110.2647	545.2	1.2	269.3	0.0	0.3	0.70	56.74	1.9453	401.9897
4946	1509389185	54.4776	-110.2651	545.2	1.2	269.2	0.3	0.4	0.70	56.81	1.9462	401.4149
4947	1509389186	54.4776	-110.2655	545.2	1.2	269.1	-0.3	0.3	0.70	56.87	1.9451	400.3852
4948	1509389187	54.4776	-110.2659	545.2	1.2	269.3	-0.3	0.4	0.70	56.97	1.9457	400.5197
4949	1509389188	54.4776	-110.2663	545.2	1.2	269.1	-0.4	0.5	0.70	57.09	1.9464	400.9741
4950	1509389189	54.4776	-110.2667	545.2	1.2	269.2	-0.6	0.5	0.70	57.12	1.9461	400.8134
4951	1509389190	54.4776	-110.2672	545.2	1.2	269.7	-0.6	0.2	0.70	57.26	1.9457	398.5610
4952	1509389191	54.4776	-110.2677	545.2	1.2	269.9	-0.4	0.4	0.70	57.43	1.9464	399.9494
4953	1509389192	54.4776	-110.2682	545.2	0.5	269.3	-0.5	0.7	0.70	57.51	1.9466	401.6823
4954	1509389193	54.4776	-110.2688	545.3	0.6	269.2	-0.4	0.6	0.70	57.55	1.9492	412.4869
4955	1509389194	54.4776	-110.2693	545.2	0.5	268.6	-0.2	0.7	0.70	57.60	1.9485	407.0160
4956	1509389195	54.4776	-110.2699	545.3	1.3	268.7	-0.1	0.6	0.70	57.66	1.9481	405.3398
4957	1509389196	54.4776	-110.2705	545.7	1.7	267.9	-0.1	1.2	0.70	57.57	1.9455	400.9303
4958	1509389197	54.4776	-110.2711	546.2	2.2	268.0	0.0	1.4	0.70	57.22	1.9445	401.1511
4959	1509389198	54.4776	-110.2717	547.4	3.4	269.3	0.5	0.7	0.70	56.84	1.9457	400.9155
4960	1509389199	54.4776	-110.2723	549.1	5.1	268.8	0.7	1.5	0.70	56.50	1.9473	400.1429
4961	1509389200	54.4776	-110.2730	551.1	7.1	267.9	0.5	2.0	0.72	56.20	1.9462	400.1670
4962	1509389201	54.4776	-110.2736	552.4	8.4	269.5	0.4	1.0	0.72	56.00	1.9467	400.3849
4963	1509389202	54.4776	-110.2743	553.8	9.8	269.7	0.6	1.0	0.72	55.95	1.9472	400.9680
4964	1509389203	54.4776	-110.2749	556.4	12.4	268.3	0.7	1.6	0.72	55.95	1.9469	400.6362
4965	1509389204	54.4776	-110.2756	559.2	15.2	268.6	1.0	1.3	0.73	55.95	1.9475	401.0996
4966	1509389205	54.4776	-110.2763	561.7	17.7	268.1	1.1	1.4	0.74	55.95	1.9482	400.8235
4967	1509389206	54.4776	-110.2770	564.5	20.5	268.8	1.7	1.0	0.74	55.81	1.9491	400.0558
4968	1509389207	54.4776	-110.2777	567.5	23.5	269.9	2.3	0.6	0.74	55.52	1.9494	400.1584
4969	1509389208	54.4776	-110.2784	570.6	26.6	269.0	2.2	1.4	0.74	55.22	1.9519	401.1273
4970	1509389209	54.4776	-110.2791	574.0	30.0	268.3	2.3	1.9	0.75	55.00	1.9598	400.6911
4971	1509389210	54.4776	-110.2798	578.1	35.1	267.1	2.8	2.8	0.76	54.85	1.9604	400.5866
4972	1509389211	54.4776	-110.2805	582.1	39.1	267.5	2.9	2.6	0.76	54.73	1.9592	400.4976
4973	1509389212	54.4776	-110.2812	585.6	42.6	267.1	2.4	3.0	0.76	54.65	1.9641	400.4881
4974	1509389213	54.4777	-110.2819	588.9	46.7	266.7	1.9	3.0	0.76	54.60	1.9665	400.3906
4975	1509389214	54.4777	-110.2827	592.4	51.4	266.8	2.1	2.8	0.76	54.57	1.9695	401.0611
4976	1509389215	54.4777	-110.2834	595.9	56.0	265.9	2.3	3.3	0.76	54.52	1.9661	400.2551
4977	1509389216	54.4776	-110.2841	599.4	60.4	266.1	2.6	3.1	0.76	54.48	1.9660	399.9446
4978	1509389217	54.4776	-110.2849	603.0	65.0	266.5	2.7	2.6	0.76	54.49	1.9883	400.5504
4979	1509389218	54.4776	-110.2856	606.7	67.3	267.0	2.4	1.9	0.76	54.66	1.9982	400.8753
4980	1509389219	54.4776	-110.2863	610.2	70.2	266.7	2.2	1.9	0.76	54.81	2.0041	400.4429
4981	1509389220	54.4776	-110.2871	613.3	71.3	266.8	2.2	1.8	0.76	54.86	1.9981	401.1073
4982	1509389221	54.4776	-110.2879	616.6	73.6	267.5	1.5	1.6	0.76	54.87	1.9983	400.7999
4983	1509389222	54.4776	-110.2886	620.4	77.4	267.1	1.9	2.3	0.77	54.87	2.0011	400.7999
4984	1509389223	54.4776	-110.2894	624.4	81.4	265.7	2.9	3.3	0.78	54.85	2.0033	400.3611
4985	1509389224	54.4776	-110.2901	628.5	84.5	266.0	3.2	2.9	0.78	54.79	1.9962	399.6379
4986	1509389225	54.4776	-110.2909	632.7	88.7	266.0	2.9	2.6	0.76	54.70	1.9948	401.2230
4987	1509389226	54.4776	-110.2917	636.3	91.6	266.0	2.1	2.5	0.77	54.64	2.0015	400.7501
4988	1509389227	54.4776	-110.2924	639.3	94.3	266.5	2.3	2.0	0.75	54.64	2.0112	400.3922
4989	1509389228	54.4776	-110.2932	642.2	97.2	266.5	2.5	2.0	0.73	54.64	1.9999	400.7845
4990	1509389229	54.4775	-110.2940	644.9	99.9	266.8	2.6	1.5	0.71	54.64	2.0052	400.7845
4991	1509389230	54.4775	-110.2948	647.3	102.3	266.4	2.4	0.8	0.70	54.68	2.0316	401.1702
4992	1509389231	54.4775	-110.2956	650.0	105.0	263.4	2.1	1.5	0.69	54.70	2.0106	401.2986
4993	1509389232	54.4774	-110.2964	652.8	107.8	259.4	1.7	2.0	0.68	54.75	2.0120	400.9284
4994	1509389233	54.4774	-110.2971	655.3	110.3	257.2	2.0	1.7	0.66	54.82	2.0222	399.7963
4995	1509389234	54.4773	-110.2979	658.2	113.2	254.4	1.6	1.7	0.64	54.87	2.0571	401.5564
4996	1509389235	54.4771	-110.2987	660.9	115.9	251.8	1.2	1.9	0.64	54.93	2.0550	401.6991
4997	1509389236	54.4770	-110.2995	663.4	118.4	250.0	1.3	1.7	0.61	55.00	2.0523	399.9667
4998	1509389237	54.4768	-110.3003	665.9	120.9	248.5	1.4	1.6	0.59	55.09	2.0587	401.0105
4999	1509389238	54.4767	-110.3010	668.4	123.4	247.1	1.4	1.7	0.57	55.23	2.0737	400.9194
5000	1509389239	54.4765	-110.3018	671.5	127.3	246.3	1.5	1.7	0.55	55.43	2.0740	399.7806
5001	1509389240	54.4763	-110.3026	674.1	130.1	246.1	1.7	1.5	0.53	55.56	2.0735	399.8482
5002	1509389241	54.4761	-110.3034	676.7	132.7	245.4	1.3	1.3	0.51	55.66	2.0793	400.7559
5003	1509389242	54.4759	-110.3041	679.7	135.7	244.4	0.8	1.6	0.48	55.72	2.0471	399.9081
5004	1509389243	54.4757	-110.3049	683.3	139.3	243.6	0.8	2.1	0.48	55.80	1.9962	399.8212
5005	1509389244	54.4754	-110.3057	686.5	142.5	241.7	0.7	3.3	0.46	55.87	1.9866	401.3662
5006	1509389245	54.4752	-110.3065	690.2	147.2	241.0	1.6	3.6	0.44	55.89	1.9655	398.8584
5007	1509389246	54.4750	-110.3073	694.0	151.0	240.6	1.2	3.2	0.44	55.85	1.9611	401.3827
5008	1509389247	54.4748	-110.3080	697.0	154.0	239.8	0.8	3.0	0.42	55.76	1.9681	401.2310
5009	1509389248	54.4745	-110.3088	699.3	156.3	239.7	0.6	2.8	0.41	55.70	1.9967	400.8519
5010	1509389249	54.4743	-110.3096	702.2	159.2	238.8	0.6	3.5	0.40	55.67	2.0257	400.8381
5011	1509389250	54.4740	-110.3103	705.0	162.0	238.8	1.0	3.4	0.39	55.67	2.0363	399.6645
5012	1509389251	54.4738	-110.3111	708.0	165.0	237.8	0.4	4.0	0.37	55.70	2.0304	399.6645
5013	1509389252	54.4735	-110.3119	711.0	168.1	237.8	0.8	3.9	0.35	55.77	2.0104	401.1970
5014	1509389253	54.4733	-110.3126	713.8	171.5	238.4	0.9	3.4	0.34	55.84	1.9867	400.5524
5015	1509389254	54.4730	-110.3134	716.6	174.6	238.1	1.1	3.5	0.33	55.88	1.9738	398.8592
5016	1509389255	54.4728	-110.3142	719.0	177.0	238.2	1.4	3.4	0.30	55.90	1.9645	401.1336
5017	1509389256	54.4725	-110.3150	721.2	179.2	237.8	1.3	3.4	0.27	55.91	1.9600	400.7359
5018	1509389257	54.4722	-110.3158	723.0	181.0	238.5	1.5	2.4	0.25	55.91	1.9548	400.7649
5019	1509389258	54.4720	-110.3165	724.5	182.5	238.2	1.0	2.4	0.24	55.93	1.9577	401.6944
5020	1509389259	54.4717	-110.3173	726.0	184.0	237.4	1.1	2.9	0.22	55.95	1.9610	401.7707
5021	1509389260	54.4714	-110.3181	727.1	184.1	236.6	1.5	3.4	0.20	55.98	1.9623	401.7707
5022	1509389261	54.4711	-110.3189	728.0	185.0	235.8	1.8	3.5	0.19	56.01	1.9627	400.3639
5023	1509389262	54.4708	-110.3197	729.5	186.5	234.9	1.6	3.6	0.18	56.05	1.9599	400.8358
5024	1509389263	54.4705	-110.3205	730.8	188.8	235.1	1.8	2.9	0.16	56.08	1.9524	400.5994
5025	1509389264	54.4702	-110.3213	733.0	191.0	234.3	1.8	3.4	0.15	56.11	1.9494	400.5994
5026	1509389265	54.4699	-110.3220	736.2	194.2	234.0	1.8	3.5	0.15	56.13	1.9481	400.5427
5027	1509389266	54.4696	-110.3228	739.4	197.4	233.5	1.5	3.6	0.15	56.16	1.9486	401.2757
5028	1509389267	54.4693	-110.3236	742.0	200.0	233.1	1.4	3.4	0.13	56.18	1.9459	399.1105
5029	1509389268	54.4690	-110.3243	743.9	201.9	232.6	1.5	3.5	0.12	56.19	1.9456	400.9486
5030	1509389269	54.4687	-110.3251	745.7	203.7	231.9	1.2	3.8	0.10	56.20	1.9451	401.1865
5031	1509389270	54.4683	-110.3259	747.3	205.3	231.6	1.1	4.1	0.08	56.22	1.9453	401.3497
5032	1509389271	54.4680	-110.3266	748.5	206.5	233.3	2.0	2.7	0.05	56.24	1.9457	401.1258
5033	1509389272	54.4677	-110.3274	749.9	207.9	233.3	1.9	2.8	0.03	56.23	1.9462	400.2538
5034	1509389273	54.4674	-110.3282	751.6	209.6	232.4	1.7	3.3	0.01	56.21	1.9468	401.0608
5035	1509389274	54.4670	-110.3290	753.8	211.8	232.7	1.8	2.9	0.00	56.21	1.9474	400.6971
5036	1509389275	54.4667	-110.3298	755.8	214.8	232.5	1.2	2.7	-0.01	56.21	1.9570	401.2531
5037	1509389276	54.4664	-110.3306	757.6	216.6	232.5	1.1	2.4	-0.02	56.22	1.9539	402.0741
5038	1509389277	54.4660	-110.3313	759.2	218.2	232.5	1.4	2.4	-0.04	56.30	1.9532	401.2247
5039	1509389278	54.4657	-110.3321	760.4	220.4	232.8	1.9	2.3	-0.06	56.41	1.9888	401.0954
5040	1509389279	54.4653	-110.3329	762.2	222.2	231.7	1.1	2.9	-0.06	56.50	2.0038	401.3618
5041	1509389280	54.4650	-110.3337	763.9	224.9	231.4	0.6	2.6	-0.06	56.54	2.0043	401.2067
5042	1509389281	54.4647	-110.3345	766.1	228.1	231.0	0.5	2.7	-0.08	56.57	2.0114	400.7435
5043	1509389282	54.4643	-110.3353	767.6	229.6	230.9	0.8	2.6	-0.08	56.61	1.9740	400.3032
5044	1509389283	54.4639	-110.3361	769.2	230.5	230.7	0.9	2.7	-0.10	56.69	1.9537	400.5120
5045	1509389284	54.4636	-110.3369	770.7	231.8	230.7	1.3	3.1	-0.10	56.76	1.9492	401.4311
5046	1509389285	54.4632	-110.3377	772.6	232.9	230.6	2.1	3.4	-0.11	56.80	1.9480	400.5183
5047	1509389286	54.4628	-110.3385	774.5	233.8	231.0	2.4	3.3	-0.12	56.79	1.9484	400.1224
5048	1509389287	54.4625	-110.3392	776.7	234.7	230.1	2.1	3.9	-0.13	56.73	1.9477	400.6184
5049	1509389288	54.4621	-110.3400	779.1	236.1	230.7	3.0	3.5	-0.12	56.64	1.9452	400.3675
5050	1509389289	54.4617	-110.3408	781.3	238.3	230.6	3.2	3.5	-0.13	56.58	1.9453	401.1307
5051	1509389290	54.4614	-110.3416	783.6	240.6	231.2	3.3	2.8	-0.13	56.50	1.9483	401.6398
5052	1509389291	54.4610	-110.3424	786.0	243.0	229.9	2.2	3.9	-0.14	56.43	1.9474	400.8099
5053	1509389292	54.4606	-110.3432	788.1	245.1	230.0	2.2	3.8	-0.15	56.40	1.9465	400.2378
5054	1509389293	54.4602	-110.3440	790.4	246.4	230.4	2.4	3.7	-0.15	56.38	1.9470	401.0158
5055	1509389294	54.4599	-110.3448	792.5	248.5	230.5	2.3	4.3	-0.16	56.37	1.9460	401.0158
5056	1509389295	54.4595	-110.3456	793.9	250.9	231.3	2.4	4.1	-0.16	56.39	1.9453	400.1348
5057	1509389296	54.4592	-110.3464	795.3	252.3	232.1	2.7	4.2	-0.17	56.39	1.9453	400.7036
5058	1509389297	54.4588	-110.3473	797.1	254.1	232.3	2.5	4.6	-0.17	56.39	1.9463	400.5980
5059	1509389298	54.4585	-110.3481	799.4	256.4	232.9	2.5	4.5	-0.17	56.34	1.9455	399.3626
5060	1509389299	54.4581	-110.3489	801.8	258.8	233.2	2.6	4.4	-0.18	56.30	1.9464	400.3644
5061	1509389300	54.4578	-110.3498	804.1	261.1	233.7	2.9	4.0	-0.19	56.28	1.9469	401.7645
5062	1509389301	54.4574	-110.3506	806.5	263.5	233.9	2.9	3.9	-0.19	56.28	1.9464	400.6637
5063	1509389302	54.4571	-110.3515	809.0	266.0	234.1	2.6	3.6	-0.20	56.30	1.9469	400.5894
5064	1509389303	54.4568	-110.3523	812.1	269.1	234.9	2.9	3.2	-0.21	56.36	1.9456	400.9706
5065	1509389304	54.4564	-110.3532	815.4	272.4	234.7	2.3	3.3	-0.23	56.45	1.9469	399.9501
5066	1509389305	54.4561	-110.3540	818.8	275.8	234.4	2.0	3.6	-0.24	56.53	1.9460	401.3194
5067	1509389306	54.4558	-110.3548	821.6	277.6	234.6	2.1	3.5	-0.25	56.59	1.9481	400.2355
5068	1509389307	54.4554	-110.3557	824.4	280.4	234.0	1.3	3.8	-0.27	56.64	1.9482	399.5060
5069	1509389308	54.4551	-110.3566	826.8	282.8	234.7	2.5	3.2	-0.29	56.73	1.9478	399.7715
5070	1509389309	54.4548	-110.3574	828.7	284.7	235.5	2.7	2.3	-0.31	56.88	1.9430	400.3491
5071	1509389310	54.4544	-110.3583	830.3	285.3	234.8	3.2	3.0	-0.32	57.00	1.9435	400.0299
5072	1509389311	54.4541	-110.3591	831.4	286.4	235.0	3.3	2.7	-0.33	57.04	1.9446	399.5935
5073	1509389312	54.4537	-110.3599	832.5	287.5	233.1	2.3	4.1	-0.34	57.02	1.9437	401.0566
5074	1509389313	54.4534	-110.3608	833.9	288.9	233.4	3.0	3.9	-0.35	56.91	1.9399	399.9153
5075	1509389314	54.4530	-110.3616	835.6	290.6	234.0	3.4	3.3	-0.35	56.86	1.9403	399.6275
5076	1509389315	54.4527	-110.3625	836.4	291.4	235.0	4.1	2.6	-0.35	56.79	1.9411	400.9797
5077	1509389316	54.4523	-110.3634	837.6	293.5	234.2	3.6	3.4	-0.36	56.61	1.9421	400.1111
5078	1509389317	54.4520	-110.3642	839.3	295.3	234.7	4.2	3.0	-0.37	56.35	1.9450	400.3401
5079	1509389318	54.4516	-110.3651	840.7	296.7	234.6	4.3	3.0	-0.37	56.17	1.9441	400.4270
5080	1509389319	54.4513	-110.3659	842.5	298.5	233.8	3.4	3.7	-0.37	56.08	1.9460	399.6229
5081	1509389320	54.4509	-110.3668	844.4	300.4	233.4	2.6	3.7	-0.37	56.07	1.9441	400.0075
5082	1509389321	54.4506	-110.3676	845.6	301.6	234.7	3.2	2.9	-0.37	56.13	1.9405	400.6535
5083	1509389322	54.4502	-110.3685	846.5	303.5	235.0	3.9	3.0	-0.37	56.22	1.9379	399.7681
5084	1509389323	54.4498	-110.3694	847.9	305.9	235.3	4.4	3.0	-0.37	56.24	1.9328	397.9420
5085	1509389324	54.4495	-110.3703	849.4	307.4	235.9	5.0	2.6	-0.36	56.14	1.9329	398.5204
5086	1509389325	54.4491	-110.3711	851.3	310.3	236.5	5.3	2.1	-0.38	55.86	1.9334	399.9828
5087	1509389326	54.4488	-110.3720	853.6	312.6	236.2	5.3	2.5	-0.36	55.46	1.9352	399.7588
5088	1509389327	54.4484	-110.3729	855.8	314.8	236.4	5.6	2.7	-0.37	54.92	1.9351	399.5760
5089	1509389328	54.4481	-110.3737	858.4	317.4	235.7	4.9	3.3	-0.36	54.51	1.9354	399.4497
5090	1509389329	54.4477	-110.3746	860.8	319.8	236.3	5.4	2.6	-0.35	54.28	1.9352	399.6963
5091	1509389330	54.4474	-110.3755	862.7	321.7	236.2	5.4	2.9	-0.35	54.13	1.9340	399.4472
5092	1509389331	54.4471	-110.3763	865.3	325.3	236.0	5.5	3.0	-0.35	53.97	1.9332	400.4322
5093	1509389332	54.4467	-110.3772	867.6	327.6	236.3	5.7	2.6	-0.34	53.80	1.9336	400.6499
5094	1509389333	54.4464	-110.3781	869.6	329.6	236.6	5.8	2.4	-0.32	53.64	1.9327	400.6499
5095	1509389334	54.4460	-110.3790	871.6	331.9	236.9	6.0	2.3	-0.30	53.46	1.9333	398.1734
5096	1509389335	54.4457	-110.3798	873.6	334.3	236.9	6.0	2.3	-0.29	53.26	1.9350	398.4261
5097	1509389336	54.4453	-110.3807	875.9	336.9	236.8	6.0	2.5	-0.27	53.11	1.9360	399.8686
5098	1509389337	54.4450	-110.3816	877.9	340.6	236.5	5.7	3.0	-0.27	52.99	1.9355	400.5090
5099	1509389338	54.4446	-110.3824	879.8	343.8	236.5	5.7	3.0	-0.25	52.95	1.9374	400.3324
5100	1509389339	54.4443	-110.3833	881.8	347.1	236.8	5.4	2.8	-0.24	52.94	1.9347	400.7066
5101	1509389340	54.4440	-110.3841	883.7	350.9	236.7	5.3	2.8	-0.24	52.96	1.9355	398.6777
5102	1509389341	54.4436	-110.3850	885.5	356.6	237.1	5.5	2.3	-0.23	53.02	1.9351	400.2082
5103	1509389342	54.4433	-110.3859	887.1	362.8	236.7	5.6	2.8	-0.22	53.06	1.9326	400.0221
5104	1509389343	54.4429	-110.3868	888.7	365.7	236.9	5.7	2.6	-0.23	53.06	1.9306	398.7351
5105	1509389344	54.4426	-110.3876	890.0	368.1	237.4	6.0	1.9	-0.23	53.05	1.9327	398.3817
5106	1509389345	54.4423	-110.3885	891.2	369.2	237.8	6.5	1.6	-0.23	52.91	1.9292	397.9573
5107	1509389346	54.4419	-110.3894	892.3	370.5	237.8	6.6	1.6	-0.22	52.62	1.9309	400.5050
5108	1509389347	54.4416	-110.3903	893.4	372.4	237.8	6.9	1.8	-0.21	52.32	1.9307	400.5287
5109	1509389348	54.4412	-110.3911	894.9	374.9	237.6	7.0	2.0	-0.19	52.02	1.9289	400.8297
5110	1509389349	54.4409	-110.3920	896.5	376.8	237.6	7.0	2.0	-0.17	51.80	1.9288	399.4110
5111	1509389350	54.4406	-110.3928	898.1	379.8	237.5	7.1	1.8	-0.15	51.55	1.9291	398.4479
5112	1509389351	54.4402	-110.3938	899.8	383.2	238.0	7.3	1.4	-0.13	51.28	1.9293	399.5823
5113	1509389352	54.4398	-110.3946	901.6	387.2	237.8	7.3	1.4	-0.11	50.95	1.9285	399.7099
5114	1509389353	54.4395	-110.3955	903.6	392.6	237.9	7.0	1.2	-0.07	50.65	1.9272	399.5070
5115	1509389354	54.4392	-110.3963	905.6	397.9	237.8	7.0	1.2	-0.05	50.41	1.9285	399.1121
5116	1509389355	54.4388	-110.3972	907.4	401.4	238.0	7.4	1.1	-0.03	50.21	1.9277	397.6523
5117	1509389356	54.4384	-110.3981	909.2	405.3	237.7	7.3	1.4	0.00	50.04	1.9292	399.1620
5118	1509389357	54.4381	-110.3990	910.9	407.5	237.9	7.5	1.0	0.03	49.88	1.9297	398.9574
5119	1509389358	54.4378	-110.3998	912.4	408.2	237.7	7.4	1.3	0.06	49.75	1.9272	398.7115
5120	1509389359	54.4374	-110.4007	914.1	406.8	237.2	7.1	1.7	0.09	49.66	1.9270	399.3642
5121	1509389360	54.4370	-110.4016	915.8	403.5	237.5	7.3	1.3	0.12	49.58	1.9269	399.1795
5122	1509389361	54.4367	-110.4025	917.5	396.9	237.8	7.6	1.0	0.14	49.49	1.9279	398.0116
5123	1509389362	54.4363	-110.4033	919.0	383.9	237.8	7.6	1.1	0.16	49.34	1.9272	398.0152
5124	1509389363	54.4360	-110.4042	920.5	380.8	237.9	7.7	1.3	0.18	49.21	1.9275	398.4762
5125	1509389364	54.4356	-110.4050	921.9	380.0	237.9	7.8	1.4	0.22	49.10	1.9267	399.0790
5126	1509389365	54.4353	-110.4059	923.2	380.2	238.0	7.9	1.2	0.22	48.98	1.9270	398.8453
5127	1509389366	54.4349	-110.4068	924.5	381.5	238.0	7.9	1.1	0.23	48.87	1.9278	398.5600
5128	1509389367	54.4346	-110.4076	925.7	382.0	238.2	8.1	1.0	0.24	48.76	1.9285	398.9224
5129	1509389368	54.4343	-110.4085	926.8	382.8	238.1	8.1	1.2	0.25	48.69	1.9280	399.5321
5130	1509389369	54.4339	-110.4094	928.0	384.0	237.9	8.1	1.5	0.29	48.65	1.9266	399.1117
5131	1509389370	54.4336	-110.4102	929.1	385.1	238.2	7.9	1.1	0.28	48.62	1.9281	398.9644
5132	1509389371	54.4332	-110.4111	930.1	386.1	238.3	8.1	1.1	0.30	48.60	1.9270	398.9644
5133	1509389372	54.4329	-110.4119	931.0	387.0	238.3	8.1	1.1	0.31	48.58	1.9271	399.3898
5134	1509389373	54.4325	-110.4128	931.6	387.6	238.4	8.2	1.2	0.32	48.55	1.9271	398.5805
5135	1509389374	54.4322	-110.4136	932.2	388.2	238.3	8.3	1.2	0.33	48.52	1.9263	399.2887
5136	1509389375	54.4319	-110.4144	932.7	388.7	238.4	8.4	1.2	0.36	48.49	1.9260	399.7630
5137	1509389376	54.4315	-110.4153	933.2	389.2	238.5	8.5	1.3	0.36	48.49	1.9266	399.5495
5138	1509389377	54.4312	-110.4162	933.6	389.6	238.6	8.4	1.4	0.34	48.49	1.9264	399.6721
5139	1509389378	54.4308	-110.4170	933.9	389.9	238.8	8.5	1.4	0.36	48.49	1.9241	399.5084
5140	1509389379	54.4305	-110.4179	934.4	390.4	239.0	8.6	1.5	0.38	48.47	1.9273	399.5084
5141	1509389380	54.4302	-110.4188	934.7	390.7	239.3	8.7	1.3	0.39	48.43	1.9254	397.6773
5142	1509389381	54.4298	-110.4196	935.0	390.0	239.4	8.4	1.2	0.43	48.38	1.9259	398.4873
5143	1509389382	54.4295	-110.4205	935.0	390.0	239.6	8.3	1.3	0.43	48.33	1.9264	399.4226
5144	1509389383	54.4292	-110.4214	934.8	389.8	240.0	8.3	1.2	0.46	48.25	1.9277	399.1200
5145	1509389384	54.4289	-110.4222	934.3	389.3	240.2	8.3	1.0	0.44	48.22	1.9285	399.4706
5146	1509389385	54.4285	-110.4231	933.1	388.1	239.9	8.0	1.2	0.46	48.21	1.9273	398.2862
5147	1509389386	54.4282	-110.4240	931.9	386.9	239.7	8.0	1.4	0.46	48.21	1.9275	397.5528
5148	1509389387	54.4279	-110.4248	930.7	385.7	239.8	8.2	1.3	0.46	48.26	1.9255	397.5528
5149	1509389388	54.4276	-110.4257	929.7	384.7	239.9	8.2	1.0	0.46	48.32	1.9264	398.8829
5150	1509389389	54.4272	-110.4266	928.5	383.5	239.9	8.5	0.8	0.46	48.34	1.9256	398.8417
5151	1509389390	54.4269	-110.4274	927.3	382.3	239.3	8.4	1.2	0.46	48.33	1.9262	398.9055
5152	1509389391	54.4266	-110.4283	926.0	381.0	239.1	8.3	1.1	0.48	48.34	1.9256	399.1307
5153	1509389392	54.4262	-110.4292	924.7	379.7	239.1	8.4	1.1	0.48	48.36	1.9274	399.4943
5154	1509389393	54.4259	-110.4300	923.7	378.7	239.1	8.7	1.2	0.48	48.38	1.9287	399.6227
5155	1509389394	54.4255	-110.4309	922.6	377.6	239.0	8.5	1.0	0.50	48.39	1.9283	399.1957
5156	1509389395	54.4252	-110.4318	921.6	376.6	238.7	8.0	1.0	0.50	48.37	1.9280	399.2492
5157	1509389396	54.4249	-110.4326	920.4	374.4	238.5	7.9	1.0	0.50	48.37	1.9283	399.2013
5158	1509389397	54.4245	-110.4335	919.1	374.1	238.5	8.0	0.9	0.52	48.36	1.9288	399.5357
5159	1509389398	54.4242	-110.4344	918.2	373.2	238.4	8.0	0.9	0.52	48.34	1.9283	399.5629
5160	1509389399	54.4238	-110.4352	917.5	372.5	238.1	7.9	1.1	0.52	48.32	1.9294	399.9095
5161	1509389400	54.4235	-110.4361	917.3	372.3	237.8	7.7	1.4	0.52	48.31	1.9297	399.0937
5162	1509389401	54.4231	-110.4370	917.0	372.0	237.5	7.5	1.5	0.52	48.31	1.9317	399.7157
5163	1509389402	54.4228	-110.4378	916.5	371.5	237.3	7.1	1.5	0.52	48.41	1.9318	399.2580
5164	1509389403	54.4224	-110.4387	915.8	369.8	236.8	6.9	1.9	0.52	48.62	1.9331	399.9744
5165	1509389404	54.4221	-110.4395	915.1	369.1	236.6	7.0	2.0	0.52	48.88	1.9332	400.3354
5166	1509389405	54.4217	-110.4404	914.5	367.8	236.1	6.7	2.4	0.52	49.16	1.9330	399.4025
5167	1509389406	54.4214	-110.4413	914.2	369.2	236.0	6.1	2.4	0.52	49.47	1.9337	400.4631
5168	1509389407	54.4210	-110.4421	913.6	369.6	236.3	6.1	2.4	0.52	49.78	1.9361	399.7242
5169	1509389408	54.4207	-110.4430	912.4	369.4	237.0	6.1	2.3	0.51	50.07	1.9414	399.7500
5170	1509389409	54.4203	-110.4439	910.9	368.9	237.3	5.7	2.7	0.49	50.37	1.9441	400.2165
5171	1509389410	54.4200	-110.4447	909.8	369.5	237.6	5.5	3.0	0.47	50.77	1.9409	400.9224
5172	1509389411	54.4197	-110.4456	909.1	369.1	237.5	4.7	3.1	0.43	51.31	1.9404	400.0896
5173	1509389412	54.4193	-110.4465	907.7	368.0	238.2	5.0	2.3	0.38	51.89	1.9362	401.9312
5174	1509389413	54.4190	-110.4474	906.3	366.6	238.6	5.0	2.1	0.33	52.39	1.9376	401.0982
5175	1509389414	54.4187	-110.4483	905.9	365.9	238.2	5.1	2.7	0.27	52.71	1.9393	401.0982
5176	1509389415	54.4183	-110.4492	905.2	365.2	239.8	6.4	1.4	0.22	52.85	1.9417	401.0468
5177	1509389416	54.4180	-110.4501	904.7	364.7	238.3	5.7	2.9	0.18	52.93	1.9402	400.0987
5178	1509389417	54.4177	-110.4510	904.4	364.2	237.5	5.1	3.2	0.13	53.09	1.9359	400.6023
5179	1509389418	54.4174	-110.4519	904.2	363.3	237.8	5.4	2.4	0.08	53.28	1.9355	400.6023
5180	1509389419	54.4170	-110.4527	903.5	361.5	238.1	6.1	2.0	0.05	53.41	1.9350	399.6198
5181	1509389420	54.4167	-110.4536	902.6	359.6	237.4	6.0	2.4	0.02	53.47	1.9345	399.9198
5182	1509389421	54.4163	-110.4545	902.2	358.2	236.6	5.8	2.6	0.00	53.49	1.9348	399.3121
5183	1509389422	54.4160	-110.4554	901.1	356.1	237.2	6.3	1.8	-0.02	53.48	1.9359	400.2289
5184	1509389423	54.4156	-110.4563	899.5	353.5	236.5	5.8	2.2	-0.04	53.45	1.9367	401.4261
5185	1509389424	54.4153	-110.4571	898.2	352.2	236.1	5.6	2.3	-0.06	53.39	1.9360	400.7450
5186	1509389425	54.4149	-110.4580	897.4	350.4	235.7	5.5	2.4	-0.05	53.36	1.9348	401.8806
5187	1509389426	54.4146	-110.4589	896.7	349.7	235.4	5.6	2.8	-0.05	53.36	1.9364	401.1505
5188	1509389427	54.4142	-110.4597	896.0	349.0	235.9	6.4	2.3	-0.07	53.37	1.9341	400.6927
5189	1509389428	54.4139	-110.4606	895.2	348.2	235.6	6.2	2.7	-0.07	53.38	1.9335	400.8454
5190	1509389429	54.4135	-110.4615	894.8	347.9	236.0	6.5	2.5	-0.08	53.38	1.9329	399.5572
5191	1509389430	54.4131	-110.4623	894.5	348.5	236.1	6.6	2.5	-0.08	53.35	1.9331	399.5572
5192	1509389431	54.4128	-110.4632	893.8	347.8	236.6	7.1	2.0	-0.08	53.21	1.9321	400.2089
5193	1509389432	54.4124	-110.4640	893.3	347.3	236.4	6.9	2.1	-0.11	52.97	1.9306	400.1718
5194	1509389433	54.4121	-110.4649	892.9	346.9	236.5	6.8	1.9	-0.12	52.68	1.9296	400.0645
5195	1509389434	54.4117	-110.4658	892.5	346.0	236.9	7.1	1.7	-0.12	52.39	1.9295	399.3133
5196	1509389435	54.4114	-110.4666	892.4	345.4	237.0	7.3	1.6	-0.12	52.11	1.9288	400.2415
5197	1509389436	54.4110	-110.4675	892.6	345.6	237.4	7.7	1.3	-0.10	51.83	1.9270	399.8182
5198	1509389437	54.4107	-110.4683	892.6	345.6	237.5	8.0	1.3	-0.08	51.48	1.9270	400.0368
5199	1509389438	54.4103	-110.4691	892.5	346.5	237.4	8.1	1.5	-0.06	51.07	1.9262	400.6156
5200	1509389439	54.4100	-110.4700	892.6	346.6	237.3	8.2	1.6	-0.03	50.67	1.9285	400.5981
5201	1509389440	54.4096	-110.4709	892.3	347.4	237.5	8.1	1.3	0.01	50.29	1.9269	399.1655
5202	1509389441	54.4093	-110.4717	891.9	346.9	237.4	8.1	1.5	0.05	49.91	1.9262	399.1865
5203	1509389442	54.4089	-110.4725	891.3	346.3	237.5	8.3	1.5	0.10	49.54	1.9264	400.3134
5204	1509389443	54.4086	-110.4733	890.8	345.8	237.5	8.4	1.5	0.16	49.21	1.9271	399.8017
5205	1509389444	54.4083	-110.4742	889.9	344.9	237.4	7.9	1.4	0.20	48.94	1.9273	399.3986
5206	1509389445	54.4079	-110.4750	889.1	344.1	237.2	7.9	1.6	0.24	48.75	1.9276	400.5810
5207	1509389446	54.4076	-110.4759	888.3	343.2	237.3	8.0	1.7	0.29	48.65	1.9291	400.5810
5208	1509389447	54.4072	-110.4767	887.3	342.3	236.8	7.5	1.8	0.34	48.60	1.9306	400.1111
5209	1509389448	54.4069	-110.4775	886.5	340.4	236.9	7.7	1.6	0.37	48.56	1.9305	400.1479
5210	1509389449	54.4065	-110.4783	885.8	339.8	236.4	7.5	2.1	0.40	48.55	1.9311	399.1152
5211	1509389450	54.4062	-110.4792	885.1	339.1	236.2	7.1	2.0	0.42	48.55	1.9301	399.7017
5212	1509389451	54.4058	-110.4800	884.6	338.6	236.5	7.2	1.8	0.44	48.58	1.9302	399.7680
5213	1509389452	54.4055	-110.4808	884.1	338.1	236.3	7.3	2.0	0.46	48.64	1.9316	400.0227
5214	1509389453	54.4051	-110.4816	884.2	338.2	236.3	7.1	1.8	0.47	48.69	1.9322	400.6823
5215	1509389454	54.4048	-110.4825	884.2	339.2	236.3	7.2	1.7	0.48	48.73	1.9309	400.0032
5216	1509389455	54.4044	-110.4833	883.9	339.9	235.9	6.9	2.3	0.48	48.79	1.9314	399.7656
5217	1509389456	54.4041	-110.4841	883.7	340.7	235.8	7.1	2.3	0.48	48.88	1.9310	399.2084
5218	1509389457	54.4038	-110.4849	883.3	340.3	236.2	7.4	1.9	0.48	48.98	1.9310	399.8795
5219	1509389458	54.4034	-110.4857	883.1	340.1	236.1	7.5	1.9	0.49	49.05	1.9332	399.8734
5220	1509389459	54.4031	-110.4865	882.8	339.8	236.2	7.4	1.8	0.50	49.08	1.9331	399.3792
5221	1509389460	54.4027	-110.4873	882.4	339.4	235.6	7.0	2.4	0.50	49.12	1.9304	398.8966
5222	1509389461	54.4024	-110.4881	882.2	339.2	235.6	7.0	2.3	0.50	49.22	1.9305	399.3329
5223	1509389462	54.4021	-110.4889	881.5	338.5	235.8	7.2	2.2	0.50	49.43	1.9311	397.8175
5224	1509389463	54.4018	-110.4896	880.6	337.6	236.0	7.4	1.9	0.50	49.56	1.9308	397.8175
5225	1509389464	54.4014	-110.4905	879.4	336.4	235.9	7.4	1.9	0.50	49.60	1.9308	401.2806
5226	1509389465	54.4010	-110.4913	877.9	333.9	235.7	7.2	1.9	0.51	49.61	1.9304	398.2943
5227	1509389466	54.4007	-110.4921	876.3	332.3	235.6	7.1	2.0	0.53	49.62	1.9311	399.8575
5228	1509389467	54.4003	-110.4929	874.7	329.7	235.3	6.9	2.1	0.53	49.64	1.9316	400.5962
5229	1509389468	54.4000	-110.4937	873.5	328.5	235.4	6.8	2.3	0.52	49.70	1.9325	400.5962
5230	1509389469	54.3996	-110.4945	872.2	327.1	235.4	6.8	2.2	0.51	49.80	1.9323	400.3245
5231	1509389470	54.3993	-110.4953	870.6	324.7	235.8	6.9	2.1	0.50	49.92	1.9343	400.6157
5232	1509389471	54.3989	-110.4961	868.5	322.6	235.6	6.6	2.3	0.49	50.07	1.9334	400.7654
5233	1509389472	54.3986	-110.4969	866.1	320.1	235.6	6.4	2.3	0.47	50.22	1.9342	399.3650
5234	1509389473	54.3983	-110.4977	863.8	317.8	235.6	6.2	2.3	0.46	50.39	1.9343	399.8242
5235	1509389474	54.3979	-110.4986	861.7	315.7	235.7	6.1	2.1	0.44	50.59	1.9331	399.6006
5236	1509389475	54.3976	-110.4993	859.8	313.7	235.7	6.1	2.2	0.44	50.78	1.9339	400.2373
5237	1509389476	54.3972	-110.5002	857.2	311.2	236.0	6.4	2.1	0.44	50.86	1.9349	399.4909
5238	1509389477	54.3969	-110.5011	854.8	308.7	235.8	6.1	2.5	0.42	50.94	1.9348	398.9692
5239	1509389478	54.3965	-110.5018	852.9	306.8	235.7	5.9	2.4	0.42	51.04	1.9351	399.7125
5240	1509389479	54.3962	-110.5027	851.0	305.1	235.7	5.9	2.4	0.40	51.13	1.9355	400.1390
5241	1509389480	54.3958	-110.5035	849.3	303.3	235.4	5.6	2.6	0.40	51.20	1.9343	399.8577
5242	1509389481	54.3955	-110.5043	847.8	301.8	235.5	5.7	2.5	0.38	51.27	1.9356	399.0506
5243	1509389482	54.3952	-110.5052	846.3	301.3	235.7	5.8	2.2	0.38	51.36	1.9345	399.8578
5244	1509389483	54.3948	-110.5060	844.9	299.9	235.9	5.8	2.2	0.38	51.43	1.9351	400.8178
5245	1509389484	54.3945	-110.5068	843.5	298.5	235.7	5.6	2.5	0.37	51.49	1.9377	400.4487
5246	1509389485	54.3941	-110.5077	842.1	297.1	236.0	5.8	2.2	0.36	51.56	1.9364	400.6440
5247	1509389486	54.3938	-110.5085	840.6	295.6	235.7	5.9	2.0	0.36	51.71	1.9362	400.6440
5248	1509389487	54.3934	-110.5093	839.3	294.3	234.3	5.8	2.3	0.36	51.86	1.9375	399.3767
5249	1509389488	54.3931	-110.5101	838.2	293.2	232.5	5.6	2.0	0.34	52.09	1.9391	399.3767
5250	1509389489	54.3927	-110.5109	836.8	291.2	230.7	5.5	1.8	0.34	52.22	1.9447	400.1484
5251	1509389490	54.3923	-110.5117	834.1	288.1	228.1	5.1	2.6	0.34	52.43	1.9441	400.1484
5252	1509389491	54.3919	-110.5124	831.1	285.1	225.7	4.4	3.3	0.32	52.67	1.9419	399.8832
5253	1509389492	54.3914	-110.5131	828.6	281.6	224.4	4.1	3.3	0.30	52.97	1.9413	401.0282
5254	1509389493	54.3910	-110.5138	827.1	280.1	224.3	4.5	3.2	0.28	53.22	1.9402	400.2401
5255	1509389494	54.3906	-110.5146	825.5	279.2	224.3	4.7	3.4	0.26	53.40	1.9422	400.5815
5256	1509389495	54.3901	-110.5153	824.4	278.4	224.1	4.5	3.2	0.23	53.51	1.9422	399.8350
5257	1509389496	54.3897	-110.5160	823.3	277.3	224.3	4.6	2.7	0.22	53.59	1.9410	399.9362
5258	1509389497	54.3892	-110.5167	822.2	276.2	223.7	4.3	3.0	0.21	53.64	1.9418	399.9362
5259	1509389498	54.3888	-110.5174	820.7	274.7	223.7	4.5	2.9	0.19	53.66	1.9446	400.6655
5260	1509389499	54.3884	-110.5180	819.4	273.4	223.4	4.5	2.9	0.18	53.69	1.9437	400.6655
5261	1509389500	54.3879	-110.5188	817.9	271.9	222.5	4.1	3.2	0.17	53.72	1.9426	400.8016
5262	1509389501	54.3875	-110.5194	817.4	271.4	222.3	4.4	3.2	0.16	53.78	1.9427	400.2098
5263	1509389502	54.3870	-110.5201	819.2	273.2	222.1	4.7	3.6	0.15	53.84	1.9424	399.8540
5264	1509389503	54.3866	-110.5208	823.3	277.3	222.0	5.1	3.7	0.14	53.90	1.9411	400.0480
5265	1509389504	54.3861	-110.5214	828.4	282.4	222.3	5.3	3.6	0.14	53.94	1.9440	400.0455
5266	1509389505	54.3857	-110.5221	831.8	285.8	222.4	5.0	3.2	0.13	53.95	1.9491	400.2517
5267	1509389506	54.3852	-110.5228	834.2	288.7	222.3	4.8	3.4	0.13	53.96	1.9521	399.9413
5268	1509389507	54.3848	-110.5234	836.1	290.8	222.0	4.7	3.3	0.11	54.03	1.9525	399.9073
5269	1509389508	54.3844	-110.5240	838.1	293.1	222.0	4.8	3.6	0.10	54.18	1.9434	399.2063
5270	1509389509	54.3840	-110.5247	839.9	294.9	220.9	4.0	4.0	0.10	54.33	1.9405	400.7725
5271	1509389510	54.3835	-110.5253	841.1	296.1	221.9	4.8	2.8	0.11	54.43	1.9421	400.7823
5272	1509389511	54.3831	-110.5259	841.9	295.8	220.8	3.8	3.3	0.08	54.51	1.9455	400.4642
5273	1509389512	54.3827	-110.5265	842.5	296.5	220.6	3.9	3.3	0.04	54.58	1.9465	400.4436
5274	1509389513	54.3822	-110.5271	843.1	296.4	221.1	4.4	3.2	0.02	54.67	1.9474	400.7850
5275	1509389514	54.3818	-110.5278	844.0	296.7	220.5	4.1	3.6	-0.01	54.81	1.9453	400.7470
5276	1509389515	54.3814	-110.5284	845.0	297.0	221.0	4.7	3.1	-0.03	54.97	1.9443	400.7323
5277	1509389516	54.3809	-110.5290	845.3	296.2	221.1	4.9	2.6	-0.04	55.09	1.9468	400.4141
5278	1509389517	54.3805	-110.5296	845.5	295.5	220.5	4.7	2.6	-0.04	55.18	1.9446	401.1393
5279	1509389518	54.3801	-110.5302	846.0	296.0	219.8	4.6	2.8	-0.08	55.25	1.9394	400.5729
5280	1509389519	54.3796	-110.5307	846.3	295.3	219.4	4.8	2.7	-0.11	55.35	1.9364	399.9035
5281	1509389520	54.3792	-110.5313	846.4	295.4	219.4	5.2	2.3	-0.13	55.38	1.9349	399.5995
5282	1509389521	54.3788	-110.5319	846.1	295.1	219.0	5.5	2.6	-0.15	55.35	1.9340	400.9734
5283	1509389522	54.3783	-110.5324	845.9	294.9	218.1	5.3	2.9	-0.16	55.20	1.9339	400.7015
5284	1509389523	54.3779	-110.5330	845.8	294.8	218.2	5.7	2.6	-0.18	54.97	1.9335	399.3906
5285	1509389524	54.3774	-110.5336	845.7	294.0	218.1	5.8	2.5	-0.19	54.70	1.9339	400.5480
5286	1509389525	54.3770	-110.5341	845.8	293.8	218.6	6.5	2.0	-0.19	54.38	1.9325	400.0012
5287	1509389526	54.3765	-110.5347	846.4	294.4	217.9	6.1	2.4	-0.18	54.03	1.9326	399.5620
5288	1509389527	54.3761	-110.5352	847.0	295.7	217.7	6.0	2.3	-0.18	53.70	1.9322	400.7294
5289	1509389528	54.3756	-110.5357	847.7	296.7	217.8	6.2	2.0	-0.18	53.45	1.9334	400.4509
5290	1509389529	54.3751	-110.5363	848.3	297.3	217.3	6.0	2.2	-0.19	53.24	1.9331	400.4389
5291	1509389530	54.3747	-110.5368	848.9	298.9	217.2	6.1	2.3	-0.18	53.01	1.9325	401.9104
5292	1509389531	54.3742	-110.5373	849.4	299.4	216.9	6.1	2.3	-0.18	52.86	1.9322	399.3760
5293	1509389532	54.3737	-110.5379	849.7	299.7	216.9	6.3	2.3	-0.18	52.70	1.9333	399.6975
5294	1509389533	54.3733	-110.5384	849.8	299.8	217.1	6.5	2.2	-0.18	52.51	1.9338	399.6975
5295	1509389534	54.3728	-110.5389	849.6	299.6	216.9	6.3	2.4	-0.18	52.31	1.9328	401.1281
5296	1509389535	54.3724	-110.5394	849.3	299.3	217.4	6.5	2.1	-0.16	52.14	1.9332	401.3995
5297	1509389536	54.3719	-110.5399	848.9	298.9	217.6	6.5	2.1	-0.14	52.01	1.9346	400.7498
5298	1509389537	54.3714	-110.5405	848.3	298.3	217.4	6.2	2.3	-0.13	51.94	1.9347	400.3630
5299	1509389538	54.3710	-110.5410	847.7	297.7	217.0	5.8	2.6	-0.11	51.91	1.9351	399.8774
5300	1509389539	54.3705	-110.5415	847.4	297.4	217.5	6.1	2.4	-0.10	51.92	1.9370	399.2870
5301	1509389540	54.3701	-110.5421	847.2	297.2	217.8	6.1	2.6	-0.09	52.00	1.9351	401.0224
5302	1509389541	54.3696	-110.5426	846.7	296.7	217.9	6.1	2.7	-0.08	52.13	1.9337	401.0224
5303	1509389542	54.3692	-110.5431	846.4	295.4	218.6	6.5	2.3	-0.08	52.25	1.9349	399.4029
5304	1509389543	54.3687	-110.5437	845.9	294.9	218.4	6.1	2.2	-0.07	52.33	1.9366	401.2228
5305	1509389544	54.3683	-110.5442	845.6	294.6	217.6	5.7	2.7	-0.06	52.40	1.9361	401.3552
5306	1509389545	54.3678	-110.5448	845.7	293.7	217.8	6.0	2.6	-0.06	52.48	1.9357	401.3552
5307	1509389546	54.3674	-110.5453	845.6	293.6	217.8	6.1	2.8	-0.06	52.56	1.9329	401.3616
5308	1509389547	54.3669	-110.5458	845.4	292.4	217.9	6.4	2.7	-0.05	52.60	1.9350	399.3523
5309	1509389548	54.3665	-110.5463	845.4	292.4	218.2	6.8	2.5	-0.04	52.59	1.9353	399.9265
5310	1509389549	54.3660	-110.5469	846.4	292.1	218.3	6.5	2.4	-0.04	52.46	1.9342	399.1555
5311	1509389550	54.3656	-110.5474	847.8	292.9	218.4	6.4	2.4	-0.04	52.31	1.9345	401.4363
5312	1509389551	54.3652	-110.5479	849.4	294.4	218.7	6.8	2.5	-0.04	52.19	1.9352	399.6526
5313	1509389552	54.3647	-110.5484	851.1	296.1	218.8	6.8	2.4	-0.02	52.09	1.9361	400.1088
5314	1509389553	54.3643	-110.5490	852.6	296.5	218.7	6.6	3.0	-0.01	52.03	1.9348	401.1707
5315	1509389554	54.3639	-110.5495	854.2	297.2	218.6	6.4	3.0	0.00	52.01	1.9335	400.8381
5316	1509389555	54.3635	-110.5500	855.7	298.7	219.0	6.6	2.6	0.01	52.01	1.9347	400.4880
5317	1509389556	54.3630	-110.5505	857.0	299.0	219.1	6.4	2.6	-0.01	52.01	1.9371	400.7336
5318	1509389557	54.3626	-110.5511	858.0	300.0	219.1	6.4	2.9	0.00	52.01	1.9357	399.3527
5319	1509389558	54.3622	-110.5516	858.8	299.8	219.4	6.2	2.6	0.00	52.02	1.9373	400.3417
5320	1509389559	54.3618	-110.5521	859.4	300.4	219.4	6.2	2.9	-0.01	52.07	1.9385	400.6952
5321	1509389560	54.3614	-110.5526	859.8	300.8	219.4	6.1	3.1	0.01	52.16	1.9383	400.8816
5322	1509389561	54.3610	-110.5531	859.9	299.9	219.6	6.1	3.3	0.02	52.32	1.9362	401.3298
5323	1509389562	54.3606	-110.5536	860.1	300.1	220.2	6.0	2.7	0.01	52.47	1.9376	400.3997
5324	1509389563	54.3602	-110.5542	860.5	300.5	220.6	6.1	2.7	0.00	52.61	1.9394	402.2389
5325	1509389564	54.3598	-110.5547	861.1	300.4	220.6	6.1	2.9	0.00	52.72	1.9387	400.7503
5326	1509389565	54.3594	-110.5552	861.9	300.9	220.6	6.0	3.1	-0.02	52.83	1.9390	401.8872
5327	1509389566	54.3590	-110.5558	862.8	301.8	220.4	5.5	3.1	-0.04	52.98	1.9393	401.1111
5328	1509389567	54.3586	-110.5563	863.6	302.6	220.9	5.8	2.9	-0.04	53.09	1.9370	400.9829
5329	1509389568	54.3582	-110.5568	864.2	303.2	221.0	5.8	2.9	-0.06	53.26	1.9390	400.9829
5330	1509389569	54.3578	-110.5573	864.2	303.2	221.4	6.0	2.8	-0.06	53.38	1.9416	401.1851
5331	1509389570	54.3574	-110.5579	864.1	303.1	221.0	5.8	3.0	-0.08	53.47	1.9425	400.2401
5332	1509389571	54.3570	-110.5584	864.0	303.0	220.0	5.2	3.5	-0.09	53.56	1.9411	400.9740
5333	1509389572	54.3566	-110.5590	863.5	302.5	219.9	5.2	3.2	-0.10	53.64	1.9422	400.2296
5334	1509389573	54.3562	-110.5595	862.9	301.9	220.2	5.8	3.1	-0.11	53.76	1.9439	401.4003
5335	1509389574	54.3558	-110.5600	862.3	301.3	219.7	5.7	3.4	-0.13	53.89	1.9449	401.0329
5336	1509389575	54.3554	-110.5605	861.7	300.7	218.3	4.5	3.7	-0.15	54.07	1.9439	402.0077
5337	1509389576	54.3550	-110.5611	861.0	300.0	219.3	5.3	2.7	-0.16	54.27	1.9442	400.2244
5338	1509389577	54.3546	-110.5616	860.6	299.6	218.3	4.7	3.2	-0.18	54.50	1.9465	399.7379
5339	1509389578	54.3542	-110.5621	859.7	298.7	218.3	4.9	3.3	-0.20	54.66	1.9465	401.3378
5340	1509389579	54.3538	-110.5626	858.7	297.7	218.3	4.8	3.2	-0.22	54.82	1.9467	400.9712
5341	1509389580	54.3534	-110.5631	857.8	296.8	217.8	4.6	3.4	-0.24	54.98	1.9418	401.0258
5342	1509389581	54.3530	-110.5637	857.1	296.1	217.7	5.0	3.3	-0.26	55.20	1.9430	400.5699
5343	1509389582	54.3525	-110.5642	856.2	296.2	217.4	4.9	3.1	-0.28	55.31	1.9480	401.2787
5344	1509389583	54.3521	-110.5647	855.2	295.2	217.3	4.9	2.8	-0.30	55.38	1.9542	401.3653
5345	1509389584	54.3517	-110.5652	853.8	293.8	217.2	4.9	2.7	-0.31	55.43	1.9511	400.9405
5346	1509389585	54.3513	-110.5657	852.4	292.4	215.6	4.1	3.7	-0.33	55.56	1.9493	400.6459
5347	1509389586	54.3508	-110.5662	850.8	290.8	215.9	4.6	3.5	-0.34	55.81	1.9502	400.6459
5348	1509389587	54.3504	-110.5667	849.2	289.2	216.5	4.8	3.0	-0.35	56.01	1.9498	400.6319
5349	1509389588	54.3500	-110.5672	848.1	288.8	215.5	4.3	3.1	-0.36	56.14	1.9510	401.0210
5350	1509389589	54.3495	-110.5677	847.0	288.0	215.5	4.4	2.9	-0.37	56.21	1.9550	402.8418
5351	1509389590	54.3491	-110.5682	845.9	286.9	214.1	3.5	3.9	-0.37	56.29	1.9577	401.1157
5352	1509389591	54.3486	-110.5687	845.6	286.6	213.7	3.2	3.5	-0.38	56.40	1.9534	400.1389
5353	1509389592	54.3482	-110.5692	845.9	287.9	214.3	4.1	2.7	-0.39	56.61	1.9479	399.5925
5354	1509389593	54.3478	-110.5697	846.0	288.3	214.3	4.5	3.1	-0.41	56.76	1.9477	400.3404
5355	1509389594	54.3473	-110.5702	846.0	289.0	214.0	4.2	3.3	-0.42	56.81	1.9468	400.3404
5356	1509389595	54.3469	-110.5706	846.2	290.2	214.7	4.6	3.1	-0.44	56.79	1.9469	401.3928
5357	1509389596	54.3464	-110.5711	847.1	291.1	214.7	4.5	3.3	-0.44	56.64	1.9459	401.0689
5358	1509389597	54.3460	-110.5717	848.2	292.2	215.2	4.9	3.3	-0.45	56.51	1.9455	400.6483
5359	1509389598	54.3455	-110.5721	849.2	294.2	215.5	5.1	3.3	-0.46	56.43	1.9425	400.6483
5360	1509389599	54.3451	-110.5726	850.1	295.1	215.4	5.2	3.3	-0.46	56.37	1.9409	399.3005
5361	1509389600	54.3446	-110.5731	851.3	296.3	215.6	5.5	3.4	-0.47	56.23	1.9400	399.3005
5362	1509389601	54.3442	-110.5736	852.9	297.9	215.2	5.3	3.8	-0.46	56.00	1.9380	400.9728
5363	1509389602	54.3438	-110.5741	854.4	299.4	215.9	5.9	3.6	-0.46	55.78	1.9356	400.6186
5364	1509389603	54.3434	-110.5746	855.3	300.6	216.4	6.3	3.4	-0.46	55.56	1.9392	400.2737
5365	1509389604	54.3429	-110.5751	856.5	302.5	216.1	6.1	3.2	-0.47	55.32	1.9374	400.2737
5366	1509389605	54.3425	-110.5756	858.0	304.0	215.8	5.8	3.0	-0.46	55.11	1.9366	398.7210
5367	1509389606	54.3420	-110.5761	859.4	305.4	216.1	5.9	2.9	-0.46	54.91	1.9372	398.7831
5368	1509389607	54.3416	-110.5765	860.3	306.3	216.1	5.9	3.0	-0.46	54.75	1.9377	399.5659
5369	1509389608	54.3412	-110.5770	861.1	307.1	215.9	5.8	3.2	-0.46	54.59	1.9393	399.6445
5370	1509389609	54.3407	-110.5775	861.9	307.9	215.7	5.6	3.4	-0.46	54.49	1.9381	399.9334
5371	1509389610	54.3403	-110.5780	862.6	308.6	215.7	5.6	3.4	-0.46	54.44	1.9375	401.1312
5372	1509389611	54.3399	-110.5784	863.3	309.3	215.8	5.8	3.3	-0.46	54.41	1.9383	399.4717
5373	1509389612	54.3394	-110.5789	863.9	310.9	215.9	6.0	3.3	-0.46	54.34	1.9370	400.1587
5374	1509389613	54.3390	-110.5794	864.2	311.2	215.3	5.5	3.7	-0.46	54.27	1.9381	400.1252
5375	1509389614	54.3386	-110.5799	864.7	312.7	215.5	5.6	3.2	-0.46	54.23	1.9379	400.8370
5376	1509389615	54.3382	-110.5804	865.7	313.7	215.7	5.6	3.1	-0.46	54.22	1.9362	400.0094
5377	1509389616	54.3377	-110.5808	866.9	314.9	215.9	6.0	3.3	-0.45	54.22	1.9328	399.8365
5378	1509389617	54.3373	-110.5813	868.1	316.1	216.6	6.6	3.3	-0.42	54.18	1.9345	399.6420
5379	1509389618	54.3369	-110.5818	869.4	317.4	216.4	6.6	3.5	-0.42	54.04	1.9326	398.3816
5380	1509389619	54.3364	-110.5823	870.7	318.7	216.9	6.8	3.2	-0.43	53.81	1.9337	398.1314
5381	1509389620	54.3360	-110.5827	871.9	319.9	217.2	6.6	3.1	-0.42	53.55	1.9332	401.1905
5382	1509389621	54.3356	-110.5832	873.0	321.0	217.5	6.7	3.2	-0.42	53.31	1.9317	399.9970
5383	1509389622	54.3352	-110.5837	874.0	322.0	217.6	6.7	3.2	-0.42	53.11	1.9339	400.0950
5384	1509389623	54.3348	-110.5842	875.1	323.1	217.5	6.6	3.3	-0.44	52.97	1.9319	398.9787
5385	1509389624	54.3343	-110.5847	876.1	324.1	217.4	6.5	3.2	-0.42	52.87	1.9313	398.3338
5386	1509389625	54.3339	-110.5852	877.2	326.1	217.3	6.4	2.9	-0.42	52.77	1.9331	399.4409
5387	1509389626	54.3335	-110.5856	878.5	327.5	216.8	6.4	3.1	-0.40	52.66	1.9325	399.7303
5388	1509389627	54.3331	-110.5861	879.3	328.3	217.1	6.6	2.9	-0.40	52.55	1.9313	400.2576
5389	1509389628	54.3327	-110.5866	880.1	329.1	217.0	6.6	3.1	-0.40	52.42	1.9322	400.2576
5390	1509389629	54.3323	-110.5871	881.3	330.3	217.2	6.9	2.9	-0.38	52.30	1.9320	400.3055
5391	1509389630	54.3318	-110.5875	882.4	331.4	217.1	6.9	2.9	-0.36	52.20	1.9327	400.3055
5392	1509389631	54.3314	-110.5880	883.2	332.2	216.8	6.7	3.0	-0.36	52.09	1.9336	398.9281
5393	1509389632	54.3310	-110.5885	883.8	332.8	216.8	6.7	3.0	-0.34	51.98	1.9330	399.7380
5394	1509389633	54.3306	-110.5890	884.7	333.7	216.5	6.7	3.2	-0.33	51.92	1.9340	399.1790
5395	1509389634	54.3301	-110.5894	885.8	334.8	216.1	6.6	3.4	-0.32	51.90	1.9336	399.5850
5396	1509389635	54.3297	-110.5899	886.9	336.9	216.2	6.8	3.0	-0.31	51.90	1.9330	398.6494
5397	1509389636	54.3293	-110.5903	887.5	337.5	216.3	6.9	2.9	-0.30	51.88	1.9321	399.6022
5398	1509389637	54.3289	-110.5908	887.6	337.7	216.2	6.8	2.9	-0.29	51.85	1.9342	398.6215
5399	1509389638	54.3285	-110.5913	887.5	336.5	216.6	6.9	3.2	-0.28	51.77	1.9344	398.8736
5400	1509389639	54.3281	-110.5917	887.4	336.4	216.3	6.2	3.6	-0.28	51.74	1.9317	398.7084
5401	1509389640	54.3276	-110.5922	887.1	336.1	218.1	6.7	3.1	-0.26	51.72	1.9313	400.1984
5402	1509389641	54.3272	-110.5927	887.3	336.3	218.9	6.6	3.1	-0.26	51.71	1.9293	399.1151
5403	1509389642	54.3268	-110.5932	887.3	336.3	219.7	7.4	3.0	-0.26	51.68	1.9297	399.4010
5404	1509389643	54.3264	-110.5937	887.3	336.3	220.1	7.6	2.6	-0.24	51.53	1.9310	399.4010
5405	1509389644	54.3260	-110.5942	887.0	336.0	219.1	7.1	2.8	-0.24	51.33	1.9339	399.4809
5406	1509389645	54.3256	-110.5947	886.0	335.0	218.8	7.1	3.0	-0.24	51.15	1.9361	399.9286
5407	1509389646	54.3251	-110.5952	885.1	334.1	218.3	6.8	3.0	-0.24	51.07	1.9371	401.1557
5408	1509389647	54.3247	-110.5958	884.3	333.3	217.2	5.9	3.3	-0.23	51.07	1.9369	400.6284
5409	1509389648	54.3243	-110.5963	883.4	332.4	216.7	5.6	3.3	-0.22	51.25	1.9362	399.4903
5410	1509389649	54.3239	-110.5967	882.7	331.7	216.4	5.8	3.5	-0.22	51.58	1.9360	398.4706
5411	1509389650	54.3234	-110.5972	882.3	331.3	216.6	6.1	3.2	-0.22	51.80	1.9352	399.3314
5412	1509389651	54.3230	-110.5977	881.8	330.8	216.4	6.2	3.3	-0.22	51.91	1.9342	398.7781
5413	1509389652	54.3226	-110.5982	881.6	330.6	216.3	6.3	3.3	-0.22	51.93	1.9354	398.7781
5414	1509389653	54.3221	-110.5987	881.2	329.2	216.2	6.5	3.3	-0.21	51.93	1.9352	400.1080
5415	1509389654	54.3217	-110.5992	880.8	328.8	216.1	6.6	3.3	-0.20	51.88	1.9346	399.2824
5416	1509389655	54.3212	-110.5997	880.2	327.2	215.7	6.3	3.3	-0.21	51.82	1.9337	399.6126
5417	1509389656	54.3208	-110.6002	879.7	326.7	215.6	6.3	3.1	-0.20	51.77	1.9332	399.6126
5418	1509389657	54.3203	-110.6007	879.8	326.8	215.5	6.1	3.1	-0.20	51.75	1.9356	399.7631
5419	1509389658	54.3199	-110.6012	879.5	325.5	215.7	6.6	3.0	-0.20	51.75	1.9350	400.3407
5420	1509389659	54.3194	-110.6017	879.2	325.2	215.4	6.6	3.1	-0.19	51.74	1.9349	399.7817
5421	1509389660	54.3189	-110.6021	878.9	324.9	215.1	6.5	3.0	-0.19	51.72	1.9378	400.4731
5422	1509389661	54.3185	-110.6026	878.7	324.7	214.7	6.2	3.0	-0.19	51.72	1.9386	400.0084
5423	1509389662	54.3180	-110.6031	878.4	324.4	214.0	5.6	3.4	-0.18	51.78	1.9393	398.8861
5424	1509389663	54.3176	-110.6036	878.0	324.0	214.0	5.6	3.2	-0.18	51.95	1.9403	399.4409
5425	1509389664	54.3171	-110.6041	877.5	323.5	214.4	5.6	3.0	-0.17	52.18	1.9405	400.0840
5426	1509389665	54.3167	-110.6045	876.9	322.9	214.6	5.8	3.0	-0.15	52.37	1.9421	399.0641
5427	1509389666	54.3162	-110.6051	876.1	322.1	215.1	6.2	2.8	-0.14	52.50	1.9421	401.0532
5428	1509389667	54.3157	-110.6055	875.5	321.5	214.9	6.2	3.1	-0.14	52.61	1.9407	401.0532
5429	1509389668	54.3153	-110.6060	875.1	322.3	215.5	6.6	3.0	-0.13	52.65	1.9395	400.0422
5430	1509389669	54.3148	-110.6065	874.5	321.6	215.6	6.8	3.0	-0.15	52.69	1.9335	399.4481
5431	1509389670	54.3143	-110.6070	873.3	320.3	216.4	7.6	2.6	-0.15	52.71	1.9347	399.4594
5432	1509389671	54.3139	-110.6075	871.6	319.6	215.9	6.8	3.0	-0.14	52.61	1.9369	400.1326
5433	1509389672	54.3134	-110.6080	869.3	317.3	216.6	7.0	3.1	-0.14	52.38	1.9391	400.6830
5434	1509389673	54.3130	-110.6085	867.1	315.1	218.1	7.4	2.9	-0.16	52.17	1.9441	400.2783
5435	1509389674	54.3125	-110.6090	865.2	313.4	218.5	6.5	3.4	-0.16	52.12	1.9455	400.9658
5436	1509389675	54.3121	-110.6096	863.6	312.6	219.7	6.1	3.5	-0.16	52.17	1.9462	400.3341
5437	1509389676	54.3117	-110.6101	862.3	311.3	221.5	6.4	3.2	-0.16	52.43	1.9431	400.5061
5438	1509389677	54.3113	-110.6107	860.8	309.8	222.5	6.2	3.7	-0.16	52.80	1.9409	399.4220
5439	1509389678	54.3109	-110.6113	858.6	307.6	224.5	6.4	2.7	-0.16	53.10	1.9420	400.2199
5440	1509389679	54.3105	-110.6119	856.3	305.3	225.8	6.4	3.0	-0.16	53.19	1.9434	400.6329
5441	1509389680	54.3102	-110.6125	854.2	303.4	227.0	6.1	3.1	-0.17	53.22	1.9420	401.5442
5442	1509389681	54.3098	-110.6131	851.9	300.9	228.8	6.6	2.9	-0.17	53.22	1.9410	401.0037
5443	1509389682	54.3095	-110.6137	849.3	298.3	229.5	5.8	3.3	-0.17	53.28	1.9425	400.1527
5444	1509389683	54.3091	-110.6144	846.8	296.8	231.1	5.5	3.2	-0.16	53.39	1.9445	399.8092
5445	1509389684	54.3088	-110.6151	844.5	294.5	233.6	6.3	2.8	-0.16	53.45	1.9457	401.1277
5446	1509389685	54.3085	-110.6157	842.2	292.1	234.5	5.5	3.4	-0.17	53.50	1.9469	400.6797
5447	1509389686	54.3082	-110.6164	839.7	290.4	236.4	5.8	3.3	-0.17	53.58	1.9511	401.0800
5448	1509389687	54.3080	-110.6171	837.5	288.5	238.7	5.8	3.1	-0.17	53.70	1.9527	400.5504
5449	1509389688	54.3077	-110.6178	835.3	285.6	239.5	5.1	3.8	-0.17	53.91	1.9527	402.1131
5450	1509389689	54.3075	-110.6186	833.4	284.1	241.6	5.5	3.5	-0.17	54.15	1.9523	400.3457
5451	1509389690	54.3073	-110.6193	830.8	280.8	243.4	5.4	3.1	-0.17	54.42	1.9507	401.2759
5452	1509389691	54.3071	-110.6201	827.6	277.6	244.8	5.4	3.0	-0.17	54.65	1.9470	399.8332
5453	1509389692	54.3069	-110.6208	824.1	274.1	246.2	5.4	2.8	-0.18	54.84	1.9482	400.5773
5454	1509389693	54.3067	-110.6216	820.2	270.2	247.6	5.6	2.4	-0.18	54.94	1.9479	399.6610
5455	1509389694	54.3065	-110.6224	816.1	266.1	248.3	5.5	2.5	-0.19	55.01	1.9475	399.5730
5456	1509389695	54.3063	-110.6231	812.4	263.4	248.9	5.4	2.9	-0.20	55.04	1.9478	399.9795
5457	1509389696	54.3062	-110.6239	809.5	260.5	250.3	5.5	3.0	-0.21	55.06	1.9511	400.2337
5458	1509389697	54.3060	-110.6247	806.2	257.5	251.4	5.1	3.5	-0.21	55.09	1.9550	401.2703
5459	1509389698	54.3059	-110.6255	802.8	253.9	252.6	4.9	3.4	-0.22	55.18	1.9532	400.6245
5460	1509389699	54.3058	-110.6263	798.1	248.1	254.8	5.2	2.9	-0.22	55.29	1.9559	401.0039
5461	1509389700	54.3057	-110.6271	794.3	244.0	256.2	5.0	3.1	-0.22	55.43	1.9552	402.2323
5462	1509389701	54.3056	-110.6279	790.8	239.8	257.7	5.1	3.2	-0.23	55.58	1.9542	400.1785
5463	1509389702	54.3055	-110.6287	787.8	237.8	258.7	5.1	3.8	-0.23	55.72	1.9571	401.0597
5464	1509389703	54.3054	-110.6296	785.7	235.7	260.5	5.3	3.8	-0.23	55.83	1.9576	400.4521
5465	1509389704	54.3054	-110.6304	784.6	234.6	262.5	5.2	3.4	-0.24	55.93	1.9579	401.6641
5466	1509389705	54.3053	-110.6312	784.1	233.1	264.1	5.3	2.5	-0.25	56.05	1.9579	400.9795
5467	1509389706	54.3053	-110.6320	783.5	232.5	264.5	5.0	2.6	-0.25	56.18	1.9558	400.9915
5468	1509389707	54.3053	-110.6328	783.2	232.2	264.0	4.9	3.4	-0.26	56.29	1.9548	400.9307
5469	1509389708	54.3053	-110.6336	782.2	231.2	264.7	5.2	3.3	-0.26	56.41	1.9582	400.5835
5470	1509389709	54.3053	-110.6343	781.6	230.6	265.0	5.4	3.5	-0.28	56.51	1.9614	401.0122
5471	1509389710	54.3052	-110.6351	781.2	229.5	264.5	5.5	4.0	-0.28	56.58	1.9617	399.9018
5472	1509389711	54.3052	-110.6359	780.5	228.8	265.4	5.0	3.5	-0.29	56.68	1.9579	400.1324
5473	1509389712	54.3052	-110.6366	779.8	228.3	265.3	4.4	3.9	-0.30	56.87	1.9570	401.5475
5474	1509389713	54.3052	-110.6373	779.0	228.0	264.6	4.6	4.4	-0.31	57.06	1.9549	400.1943
5475	1509389714	54.3052	-110.6381	778.2	227.2	264.5	4.8	4.4	-0.31	57.19	1.9551	400.9038
5476	1509389715	54.3052	-110.6388	777.4	226.4	264.2	4.4	4.6	-0.32	57.25	1.9556	400.8899
5477	1509389716	54.3052	-110.6395	776.1	224.4	264.2	4.5	4.5	-0.33	57.27	1.9550	400.2536
5478	1509389717	54.3052	-110.6403	774.7	222.7	264.1	4.5	4.6	-0.34	57.28	1.9572	400.5621
5479	1509389718	54.3052	-110.6410	773.4	221.4	263.9	4.6	4.8	-0.35	57.28	1.9583	399.7756
5480	1509389719	54.3052	-110.6417	771.7	219.7	264.1	4.7	4.4	-0.35	57.28	1.9574	400.7065
5481	1509389720	54.3052	-110.6424	769.9	217.9	264.2	4.7	4.2	-0.35	57.29	1.9582	401.0545
5482	1509389721	54.3052	-110.6432	767.7	215.7	262.6	4.8	5.1	-0.36	57.33	1.9587	401.0860
5483	1509389722	54.3051	-110.6439	765.6	213.6	263.0	4.9	4.4	-0.34	57.41	1.9599	400.2230
5484	1509389723	54.3051	-110.6446	764.0	212.0	263.1	5.1	4.3	-0.34	57.48	1.9604	400.9939
5485	1509389724	54.3051	-110.6453	762.5	210.5	262.8	4.7	4.4	-0.35	57.55	1.9598	401.0822
5486	1509389725	54.3051	-110.6460	760.9	208.9	263.4	4.8	3.9	-0.38	57.62	1.9584	400.2342
5487	1509389726	54.3051	-110.6468	759.3	207.3	263.3	4.9	4.0	-0.37	57.69	1.9607	400.8663
5488	1509389727	54.3051	-110.6475	757.6	205.6	262.7	4.5	4.2	-0.36	57.74	1.9624	400.3965
5489	1509389728	54.3050	-110.6482	755.7	203.7	262.9	4.0	3.9	-0.38	57.78	1.9617	400.3965
5490	1509389729	54.3050	-110.6489	753.5	201.5	262.4	3.9	4.2	-0.38	57.86	1.9591	400.6809
5491	1509389730	54.3050	-110.6496	751.6	199.6	262.4	4.2	4.1	-0.38	58.00	1.9590	401.0768
5492	1509389731	54.3050	-110.6503	749.5	197.5	261.5	4.1	4.7	-0.38	58.12	1.9597	400.6418
5493	1509389732	54.3049	-110.6510	746.8	194.8	260.8	3.7	5.1	-0.39	58.16	1.9603	402.0441
5494	1509389733	54.3049	-110.6517	744.5	192.5	261.4	3.6	4.6	-0.39	58.17	1.9596	400.4253
5495	1509389734	54.3049	-110.6525	742.6	190.6	262.9	3.7	3.8	-0.39	58.18	1.9618	400.6462
5496	1509389735	54.3049	-110.6531	741.4	189.4	263.0	3.4	4.0	-0.39	58.16	1.9636	400.9212
5497	1509389736	54.3048	-110.6539	740.2	188.2	262.8	2.8	4.2	-0.39	58.17	1.9642	401.2717
5498	1509389737	54.3048	-110.6546	739.0	187.0	263.8	2.7	3.5	-0.39	58.21	1.9665	401.4944
5499	1509389738	54.3048	-110.6553	737.8	185.8	264.7	2.7	3.2	-0.39	58.24	1.9652	401.8870
5500	1509389739	54.3048	-110.6560	737.0	185.0	264.5	2.6	3.4	-0.41	58.36	1.9668	401.4868
5501	1509389740	54.3048	-110.6567	736.5	184.5	265.2	2.5	3.2	-0.41	58.49	1.9664	401.0984
5502	1509389741	54.3048	-110.6575	736.1	183.1	264.8	2.5	3.7	-0.41	58.64	1.9648	401.0244
5503	1509389742	54.3048	-110.6582	735.3	182.3	264.9	3.0	3.8	-0.41	58.77	1.9654	400.2792
5504	1509389743	54.3048	-110.6589	734.6	181.6	265.1	3.4	4.1	-0.41	58.85	1.9658	401.5205
5505	1509389744	54.3048	-110.6596	734.0	181.0	264.0	3.0	4.9	-0.41	58.88	1.9668	402.0159
5506	1509389745	54.3048	-110.6604	733.4	180.4	265.1	3.1	3.9	-0.41	58.88	1.9651	400.5175
5507	1509389746	54.3048	-110.6611	732.8	179.8	266.3	3.0	3.0	-0.41	58.88	1.9645	400.3299
5508	1509389747	54.3048	-110.6618	732.3	179.3	265.5	2.9	3.6	-0.41	58.87	1.9644	400.9787
5509	1509389748	54.3048	-110.6625	731.9	178.9	264.9	2.8	4.2	-0.41	58.86	1.9644	400.9012
5510	1509389749	54.3048	-110.6633	731.6	178.6	265.0	2.8	4.2	-0.41	58.84	1.9647	400.8793
5511	1509389750	54.3048	-110.6640	731.5	178.5	265.4	3.7	4.1	-0.41	58.82	1.9656	401.8514
5512	1509389751	54.3048	-110.6647	732.1	178.8	265.7	3.8	4.1	-0.41	58.78	1.9591	401.0079
5513	1509389752	54.3048	-110.6655	732.6	178.6	265.4	3.8	4.2	-0.41	58.76	1.9587	401.0026
5514	1509389753	54.3048	-110.6662	732.8	178.8	265.7	3.8	4.0	-0.41	58.71	1.9586	399.7541
5515	1509389754	54.3048	-110.6670	732.9	178.9	265.2	3.8	4.3	-0.41	58.60	1.9613	401.3543
5516	1509389755	54.3048	-110.6677	732.2	178.2	264.5	3.6	5.0	-0.41	58.39	1.9621	400.5450
5517	1509389756	54.3048	-110.6684	731.3	177.3	265.8	4.2	4.0	-0.41	58.26	1.9624	401.7937
5518	1509389757	54.3048	-110.6692	730.6	176.6	266.4	3.8	3.7	-0.41	58.17	1.9621	401.6820
5519	1509389758	54.3048	-110.6699	729.7	175.7	265.5	3.7	4.5	-0.41	58.12	1.9593	401.7168
5520	1509389759	54.3048	-110.6706	728.3	174.3	266.3	4.1	4.1	-0.41	58.10	1.9573	401.2799
5521	1509389760	54.3048	-110.6714	726.9	172.9	266.1	4.2	4.3	-0.41	58.08	1.9589	400.7935
5522	1509389761	54.3048	-110.6721	725.9	171.9	266.1	4.4	4.3	-0.40	58.04	1.9623	401.0961
5523	1509389762	54.3048	-110.6728	725.1	171.1	266.4	4.5	4.3	-0.39	57.97	1.9638	400.7905
5524	1509389763	54.3048	-110.6736	724.6	171.3	265.7	4.1	4.7	-0.39	57.91	1.9650	400.7763
5525	1509389764	54.3048	-110.6743	724.1	170.2	266.3	4.1	4.1	-0.39	57.88	1.9609	399.7778
5526	1509389765	54.3048	-110.6750	723.7	169.8	267.0	4.3	3.4	-0.39	57.87	1.9614	401.4855
5527	1509389766	54.3048	-110.6757	722.6	168.6	267.1	4.4	3.2	-0.39	57.87	1.9645	401.4621
5528	1509389767	54.3048	-110.6765	720.5	166.5	266.5	4.3	3.5	-0.38	57.87	1.9672	402.0402
5529	1509389768	54.3048	-110.6772	717.8	163.8	266.4	4.1	3.3	-0.37	57.87	1.9672	400.6471
5530	1509389769	54.3048	-110.6779	715.0	161.0	266.4	3.9	3.2	-0.37	57.90	1.9653	400.6471
5531	1509389770	54.3048	-110.6787	712.0	157.7	266.0	4.2	3.5	-0.36	57.96	1.9628	401.3578
5532	1509389771	54.3048	-110.6794	710.0	155.0	266.2	4.6	3.2	-0.36	58.04	1.9629	401.7707
5533	1509389772	54.3048	-110.6801	709.1	154.0	267.0	4.8	2.7	-0.35	58.08	1.9624	401.2009
5534	1509389773	54.3048	-110.6808	708.7	153.7	267.9	5.2	2.3	-0.35	58.10	1.9661	400.9297
5535	1509389774	54.3048	-110.6815	708.8	153.8	267.6	5.7	2.9	-0.34	58.11	1.9657	401.0905
5536	1509389775	54.3048	-110.6822	709.1	154.1	267.8	5.6	2.6	-0.33	58.13	1.9650	401.0905
5537	1509389776	54.3048	-110.6829	709.3	154.3	268.8	5.5	1.8	-0.33	58.18	1.9651	401.3953
5538	1509389777	54.3049	-110.6836	709.1	154.2	267.9	5.6	2.6	-0.31	58.26	1.9657	401.7097
5539	1509389778	54.3049	-110.6842	708.9	152.9	268.3	5.4	2.2	-0.28	58.34	1.9654	401.1059
5540	1509389779	54.3049	-110.6849	708.4	152.4	269.0	5.1	1.7	-0.28	58.41	1.9676	401.1059
5541	1509389780	54.3049	-110.6856	707.4	151.4	267.7	4.8	2.6	-0.27	58.49	1.9703	401.0927
5542	1509389781	54.3049	-110.6862	706.0	149.7	266.4	4.4	3.4	-0.26	58.57	1.9684	400.5068
5543	1509389782	54.3049	-110.6868	704.9	148.6	266.0	4.0	3.4	-0.27	58.66	1.9685	401.9167
5544	1509389783	54.3049	-110.6875	703.8	146.8	266.4	3.9	3.0	-0.26	58.77	1.9686	401.4744
5545	1509389784	54.3049	-110.6882	702.4	145.4	266.0	4.1	3.4	-0.28	58.89	1.9682	401.7106
5546	1509389785	54.3049	-110.6888	700.9	143.9	265.3	4.5	3.7	-0.29	58.99	1.9694	402.9854
5547	1509389786	54.3049	-110.6894	697.8	141.5	266.5	4.4	2.9	-0.29	59.03	1.9700	401.9182
5548	1509389787	54.3049	-110.6901	693.2	137.1	267.2	4.4	2.5	-0.28	59.04	1.9693	402.0166
5549	1509389788	54.3049	-110.6907	689.6	133.6	266.2	4.2	3.2	-0.27	59.06	1.9677	400.5516
5550	1509389789	54.3049	-110.6914	687.4	131.4	265.4	4.0	3.5	-0.26	59.09	1.9682	400.0680
5551	1509389790	54.3049	-110.6921	685.6	129.6	266.3	4.4	2.7	-0.26	59.10	1.9693	401.7243
5552	1509389791	54.3049	-110.6927	684.0	127.8	265.5	4.2	3.4	-0.26	59.08	1.9682	401.7243
5553	1509389792	54.3049	-110.6934	682.5	125.5	264.0	4.1	4.3	-0.27	59.08	1.9705	401.1006
5554	1509389793	54.3049	-110.6941	681.0	124.0	264.4	4.1	3.8	-0.26	59.08	1.9683	401.1006
5555	1509389794	54.3049	-110.6948	679.8	121.8	264.5	4.1	3.7	-0.26	59.08	1.9666	401.3563
5556	1509389795	54.3049	-110.6954	678.3	120.3	264.9	4.2	3.4	-0.26	59.08	1.9713	402.7967
5557	1509389796	54.3048	-110.6961	676.8	118.8	265.5	3.6	3.0	-0.25	59.08	1.9729	402.7967
5558	1509389797	54.3048	-110.6968	675.9	117.9	265.0	3.5	3.6	-0.24	59.08	1.9736	402.0137
5559	1509389798	54.3048	-110.6974	674.7	116.7	265.5	3.3	3.6	-0.24	59.13	1.9704	401.2429
5560	1509389799	54.3048	-110.6981	673.3	115.3	266.5	3.3	3.0	-0.24	59.24	1.9698	401.5000
5561	1509389800	54.3048	-110.6988	672.1	114.1	266.3	3.8	3.3	-0.24	59.29	1.9716	402.2363
5562	1509389801	54.3048	-110.6995	670.9	112.9	267.7	4.1	2.3	-0.25	59.32	1.9727	401.8397
5563	1509389802	54.3048	-110.7001	670.2	112.2	268.6	4.2	1.9	-0.24	59.32	1.9736	401.2137
5564	1509389803	54.3049	-110.7008	669.4	111.0	267.3	3.7	2.8	-0.23	59.32	1.9722	401.2137
5565	1509389804	54.3049	-110.7015	668.3	109.3	267.1	3.7	2.8	-0.22	59.32	1.9717	402.4038
5566	1509389805	54.3049	-110.7022	667.4	108.4	267.2	3.4	2.4	-0.22	59.32	1.9720	401.9250
5567	1509389806	54.3049	-110.7028	666.4	108.1	267.3	3.4	2.3	-0.21	59.32	1.9730	402.1765
5568	1509389807	54.3049	-110.7035	664.7	106.7	267.4	3.4	2.2	-0.21	59.34	1.9704	402.1765
5569	1509389808	54.3049	-110.7041	662.2	104.2	267.0	2.9	2.5	-0.20	59.38	1.9697	401.1610
5570	1509389809	54.3049	-110.7048	659.3	101.3	266.5	3.2	2.9	-0.19	59.40	1.9707	401.7650
5571	1509389810	54.3049	-110.7055	656.9	98.9	267.4	3.9	2.2	-0.18	59.40	1.9717	401.7517
5572	1509389811	54.3049	-110.7062	654.9	96.9	267.6	4.0	2.3	-0.18	59.37	1.9719	401.4832
5573	1509389812	54.3049	-110.7068	653.1	94.9	266.6	3.7	3.1	-0.16	59.32	1.9721	402.4518
5574	1509389813	54.3049	-110.7075	651.3	92.3	266.7	3.3	2.6	-0.15	59.30	1.9714	401.7999
5575	1509389814	54.3049	-110.7081	649.7	90.7	267.2	3.3	2.2	-0.14	59.31	1.9699	401.0488
5576	1509389815	54.3049	-110.7088	647.4	88.4	265.7	3.3	3.1	-0.13	59.33	1.9722	401.8065
5577	1509389816	54.3049	-110.7094	645.0	86.0	265.2	3.4	3.3	-0.12	59.34	1.9730	402.7501
5578	1509389817	54.3049	-110.7101	642.6	83.6	265.2	3.6	3.0	-0.10	59.34	1.9715	401.1762
5579	1509389818	54.3048	-110.7107	640.1	81.1	265.8	3.5	2.4	-0.09	59.33	1.9709	401.2164
5580	1509389819	54.3048	-110.7114	637.7	79.4	265.3	3.2	2.8	-0.08	59.32	1.9708	400.4098
5581	1509389820	54.3048	-110.7120	634.9	77.0	264.9	3.3	2.9	-0.07	59.32	1.9715	400.4098
5582	1509389821	54.3048	-110.7127	631.9	73.9	265.6	3.2	2.5	-0.06	59.31	1.9738	401.0072
5583	1509389822	54.3048	-110.7133	629.2	71.2	266.1	3.0	2.2	-0.04	59.29	1.9727	400.8348
5584	1509389823	54.3048	-110.7139	626.6	68.6	266.4	3.2	2.2	-0.04	59.25	1.9722	401.5493
5585	1509389824	54.3048	-110.7146	624.2	66.2	266.6	3.2	2.2	-0.02	59.20	1.9737	402.1767
5586	1509389825	54.3048	-110.7152	622.3	65.3	267.4	2.9	1.8	0.00	59.17	1.9733	401.9667
5587	1509389826	54.3048	-110.7159	620.5	63.5	268.8	2.6	1.2	0.02	59.16	1.9728	402.0016
5588	1509389827	54.3048	-110.7165	618.5	61.5	268.1	2.9	1.9	0.02	59.16	1.9721	400.6962
5589	1509389828	54.3048	-110.7171	616.2	59.2	267.2	2.4	2.4	0.03	59.16	1.9705	402.3968
5590	1509389829	54.3048	-110.7177	613.1	57.1	267.3	2.4	2.4	0.04	59.16	1.9698	401.0638
5591	1509389830	54.3048	-110.7183	609.8	53.8	267.7	2.4	2.1	0.08	59.14	1.9698	401.5304
5592	1509389831	54.3048	-110.7190	607.2	51.5	267.7	2.6	2.1	0.07	59.12	1.9707	402.1278
5593	1509389832	54.3048	-110.7196	605.3	50.3	267.3	2.1	2.1	0.09	59.09	1.9752	401.4383
5594	1509389833	54.3048	-110.7202	603.8	48.8	266.3	2.0	2.6	0.12	59.06	1.9729	401.9359
5595	1509389834	54.3048	-110.7208	602.0	47.0	265.5	1.9	2.7	0.12	59.03	1.9723	401.5037
5596	1509389835	54.3048	-110.7215	599.8	44.8	267.2	2.9	1.4	0.14	59.05	1.9663	402.1198
5597	1509389836	54.3048	-110.7221	598.1	43.1	268.6	3.6	0.7	0.16	59.05	1.9674	401.6789
5598	1509389837	54.3048	-110.7227	596.1	40.1	268.2	3.9	1.4	0.18	59.08	1.9704	401.5252
5599	1509389838	54.3048	-110.7233	594.4	38.5	268.3	3.8	1.4	0.20	59.05	1.9717	401.2055
5600	1509389839	54.3048	-110.7240	592.7	35.7	267.5	2.5	2.0	0.20	58.94	1.9683	400.5349
5601	1509389840	54.3048	-110.7246	590.8	33.1	267.3	1.6	1.7	0.23	58.75	1.9648	401.7611
5602	1509389841	54.3048	-110.7252	588.2	30.2	268.2	2.2	1.3	0.25	58.69	1.9651	401.3611
5603	1509389842	54.3048	-110.7258	586.0	28.0	268.1	2.7	1.5	0.27	58.58	1.9646	400.3882
5604	1509389843	54.3048	-110.7264	584.1	26.1	267.3	2.7	2.0	0.30	58.38	1.9639	401.1086
5605	1509389844	54.3048	-110.7270	582.4	24.4	266.8	3.1	2.2	0.33	58.14	1.9640	400.4411
5606	1509389845	54.3048	-110.7276	581.2	23.2	266.9	2.7	2.1	0.37	57.87	1.9627	401.4970
5607	1509389846	54.3048	-110.7282	579.4	21.4	267.4	2.5	1.8	0.40	57.66	1.9621	400.4671
5608	1509389847	54.3048	-110.7288	577.7	19.7	266.9	3.2	2.1	0.42	57.47	1.9620	401.2034
5609	1509389848	54.3048	-110.7294	575.5	17.5	265.7	3.5	2.7	0.44	57.33	1.9618	401.2034
5610	1509389849	54.3048	-110.7300	573.3	15.3	267.0	3.3	1.9	0.44	57.22	1.9617	401.8401
5611	1509389850	54.3048	-110.7306	570.6	12.6	267.4	3.3	1.9	0.46	57.11	1.9629	400.6343
5612	1509389851	54.3048	-110.7312	568.0	10.0	268.0	3.3	1.4	0.48	57.05	1.9626	400.9762
5613	1509389852	54.3048	-110.7317	565.6	8.3	268.6	3.6	1.1	0.49	56.97	1.9621	401.4506
5614	1509389853	54.3048	-110.7323	563.7	6.7	268.3	3.1	1.1	0.51	56.92	1.9619	401.0684
5615	1509389854	54.3048	-110.7329	562.3	5.3	268.9	2.3	0.6	0.53	56.90	1.9623	401.5803
5616	1509389855	54.3048	-110.7334	561.6	4.6	269.8	2.0	0.0	0.55	57.00	1.9637	401.2562
5617	1509389856	54.3048	-110.7340	561.2	4.2	270.2	1.9	-0.4	0.57	57.21	1.9644	402.0373
5618	1509389857	54.3048	-110.7345	560.8	3.8	270.0	2.0	0.0	0.59	57.37	1.9628	401.4834
5619	1509389858	54.3048	-110.7350	560.4	3.4	269.6	1.6	0.2	0.61	57.51	1.9631	401.0746
5620	1509389859	54.3048	-110.7355	560.2	3.2	270.5	1.8	-0.1	0.64	57.66	1.9627	401.4792
5621	1509389860	54.3048	-110.7360	560.2	2.2	270.1	1.1	0.3	0.67	57.72	1.9635	401.1667
5622	1509389861	54.3048	-110.7365	560.2	2.2	269.6	0.7	0.2	0.69	57.73	1.9637	400.0377
5623	1509389862	54.3048	-110.7369	560.3	2.3	270.3	0.2	-0.1	0.72	57.73	1.9625	401.2943
5624	1509389863	54.3048	-110.7374	560.2	2.2	269.9	0.5	0.2	0.73	57.75	1.9637	400.1167
5625	1509389864	54.3048	-110.7379	560.3	2.3	269.8	1.3	0.3	0.75	57.84	1.9631	400.9808
5626	1509389865	54.3048	-110.7383	560.3	2.3	269.4	1.7	0.3	0.76	57.88	1.9650	401.3189
5627	1509389866	54.3048	-110.7387	560.3	2.3	269.0	1.6	0.4	0.78	57.85	1.9635	400.4841
5628	1509389867	54.3048	-110.7391	560.3	2.3	269.1	2.0	0.3	0.80	57.78	1.9627	400.9660
5629	1509389868	54.3048	-110.7395	560.3	2.3	269.4	2.0	0.2	0.82	57.72	1.9624	401.9171
5630	1509389869	54.3048	-110.7399	560.2	3.2	269.6	1.9	0.1	0.85	57.67	1.9638	401.7400
5631	1509389870	54.3048	-110.7402	560.2	3.2	269.7	2.7	0.1	0.88	57.58	1.9637	401.2888
5632	1509389871	54.3048	-110.7406	560.2	3.2	269.6	2.6	0.2	0.90	57.42	1.9635	400.9390
5633	1509389872	54.3048	-110.7409	560.2	3.2	269.8	2.2	0.1	0.92	57.24	1.9635	400.0362
5634	1509389873	54.3048	-110.7413	560.3	3.3	270.1	1.7	0.1	0.93	57.09	1.9644	400.1819
5635	1509389874	54.3048	-110.7416	560.3	3.3	270.2	2.0	0.0	0.94	56.97	1.9643	401.2737
5636	1509389875	54.3048	-110.7419	560.3	3.3	269.9	1.9	0.2	0.95	56.88	1.9631	399.8706
5637	1509389876	54.3048	-110.7422	560.3	3.3	269.6	1.5	0.1	0.96	56.84	1.9637	400.0878
5638	1509389877	54.3048	-110.7425	560.2	3.2	269.6	1.4	0.2	0.97	56.86	1.9639	401.5505
5639	1509391639	54.3048	-110.7333	560.5	3.5	269.1	-0.7	0.3	1.85	54.63	1.9537	400.9263
5640	1509391640	54.3048	-110.7337	560.5	3.5	269.2	-0.8	0.3	1.85	54.63	1.9536	400.1308
5641	1509391641	54.3048	-110.7340	560.6	3.6	269.0	-0.9	0.4	1.85	54.62	1.9550	401.9893
5642	1509391642	54.3048	-110.7344	560.6	3.6	269.1	-0.9	0.3	1.85	54.61	1.9552	401.3833
5643	1509391643	54.3048	-110.7348	560.6	3.6	269.3	-0.9	0.4	1.85	54.61	1.9552	400.4097
5644	1509391644	54.3048	-110.7353	560.6	3.6	269.2	-1.0	0.4	1.85	54.67	1.9587	400.2186
5645	1509391645	54.3048	-110.7357	560.6	2.7	269.3	-1.4	0.4	1.85	54.69	1.9585	400.4529
5646	1509391646	54.3048	-110.7362	560.6	2.6	269.4	-1.4	0.4	1.84	54.69	1.9573	401.2280
5647	1509391647	54.3048	-110.7367	560.7	2.7	269.4	-1.7	0.2	1.83	54.69	1.9618	401.2443
5648	1509391648	54.3048	-110.7372	560.7	2.7	268.8	-2.0	0.3	1.83	54.65	1.9601	401.1973
5649	1509391649	54.3048	-110.7378	560.8	2.8	269.2	-1.6	0.3	1.83	54.55	1.9624	401.1575
5650	1509391650	54.3048	-110.7383	560.8	2.8	268.6	-1.2	0.6	1.83	54.44	1.9627	400.9441
5651	1509391651	54.3048	-110.7389	560.9	2.9	268.6	-1.2	0.6	1.83	54.31	1.9604	400.3798
5652	1509391652	54.3048	-110.7395	560.9	2.9	267.4	-1.6	1.2	1.83	54.22	1.9623	400.1798
5653	1509391653	54.3048	-110.7401	561.2	4.2	266.5	-1.4	2.1	1.83	54.18	1.9630	402.2137
5654	1509391654	54.3048	-110.7407	561.8	4.8	267.4	-0.8	2.0	1.83	54.16	1.9601	401.0308
5655	1509391655	54.3048	-110.7413	562.6	5.6	268.7	-0.5	1.5	1.83	54.13	1.9592	401.3042
5656	1509391656	54.3048	-110.7420	563.4	6.4	267.8	-0.5	2.4	1.83	53.98	1.9613	400.4169
5657	1509391657	54.3048	-110.7426	564.4	7.4	266.9	-1.1	2.7	1.83	53.76	1.9610	401.5405
5658	1509391658	54.3048	-110.7433	565.4	7.4	268.7	-0.6	1.2	1.83	53.60	1.9618	401.2415
5659	1509391659	54.3048	-110.7439	567.6	9.6	267.6	0.0	2.0	1.83	53.54	1.9619	400.8315
5660	1509391660	54.3048	-110.7446	570.0	12.0	266.5	0.3	2.8	1.83	53.45	1.9609	400.6590
5661	1509391661	54.3048	-110.7453	571.3	13.3	267.4	0.1	2.1	1.83	53.20	1.9560	400.2578
5662	1509391662	54.3048	-110.7460	572.5	14.5	266.2	-0.1	3.0	1.84	52.91	1.9579	400.3947
5663	1509391663	54.3048	-110.7467	574.4	16.4	265.2	0.4	3.5	1.85	52.68	1.9643	400.2509
5664	1509391664	54.3048	-110.7474	577.2	19.2	265.8	0.2	3.2	1.85	52.50	1.9607	400.9615
5665	1509391665	54.3048	-110.7482	580.4	22.1	266.4	0.0	2.8	1.87	52.34	1.9710	401.8710
5666	1509391666	54.3048	-110.7489	583.7	24.6	266.3	0.1	3.1	1.88	52.23	1.9786	401.8710
5667	1509391667	54.3048	-110.7496	586.6	27.7	266.4	0.8	3.1	1.88	52.18	1.9847	402.1286
5668	1509391668	54.3048	-110.7503	589.8	30.8	266.8	0.5	3.2	1.87	52.17	1.9749	401.1699
5669	1509391669	54.3048	-110.7510	592.9	33.9	267.3	0.3	2.9	1.88	52.18	1.9611	401.1699
5670	1509391670	54.3048	-110.7518	596.8	38.5	267.4	1.2	3.4	1.88	52.22	1.9550	400.3590
5671	1509391671	54.3048	-110.7526	600.8	42.8	267.4	1.5	3.6	1.87	52.22	1.9516	401.2460
5672	1509391672	54.3048	-110.7533	604.7	46.7	268.4	2.0	3.1	1.88	52.17	1.9496	400.4384
5673	1509391673	54.3048	-110.7541	608.8	50.8	267.4	1.8	4.7	1.86	52.08	1.9488	400.2959
5674	1509391674	54.3049	-110.7548	613.1	55.1	267.8	1.8	5.0	1.87	52.01	1.9468	400.9161
5675	1509391675	54.3049	-110.7555	617.6	60.3	270.1	1.9	4.3	1.87	51.93	1.9463	399.6584
5676	1509391676	54.3050	-110.7563	622.3	65.3	273.0	1.9	4.2	1.88	51.87	1.9468	399.6022
5677	1509391677	54.3050	-110.7571	626.7	69.7	276.5	1.9	3.8	1.87	51.83	1.9468	400.4610
5678	1509391678	54.3051	-110.7577	630.2	73.2	279.9	2.1	3.2	1.85	51.79	1.9462	400.6556
5679	1509391679	54.3052	-110.7585	634.2	77.2	284.3	1.7	3.1	1.85	51.74	1.9475	401.0411
5680	1509391680	54.3054	-110.7593	638.2	81.2	287.1	1.3	4.3	1.85	51.68	1.9468	398.4121
5681	1509391681	54.3056	-110.7600	642.1	85.1	291.7	1.8	3.2	1.85	51.65	1.9478	400.1584
5682	1509391682	54.3058	-110.7606	645.8	88.8	296.7	1.6	2.7	1.85	51.66	1.9488	401.5948
5683	1509391683	54.3061	-110.7613	650.6	93.7	299.4	2.1	3.5	1.85	51.68	1.9473	400.0988
5684	1509391684	54.3063	-110.7620	655.1	98.1	303.2	2.1	3.4	1.85	51.72	1.9470	400.2246
5685	1509391685	54.3066	-110.7626	659.6	102.1	307.1	2.5	3.3	1.85	51.85	1.9471	399.8428
5686	1509391686	54.3069	-110.7632	664.4	106.7	310.8	2.5	3.7	1.84	51.96	1.9462	399.9065
5687	1509391687	54.3073	-110.7637	669.0	111.0	316.0	1.6	3.1	1.83	52.11	1.9491	400.2986
5688	1509391688	54.3077	-110.7642	673.0	115.1	321.3	1.5	2.6	1.83	52.21	1.9477	400.4544
5689	1509391689	54.3081	-110.7646	677.2	119.2	324.2	2.6	3.3	1.81	52.28	1.9471	401.7417
5690	1509391690	54.3085	-110.7650	681.5	123.5	329.4	2.2	2.8	1.80	52.34	1.9461	399.4344
5691	1509391691	54.3089	-110.7654	685.3	127.3	334.5	2.3	2.3	1.78	52.39	1.9436	399.0359
5692	1509391692	54.3094	-110.7657	688.7	130.7	338.3	3.1	2.7	1.77	52.43	1.9446	398.9946
5693	1509391693	54.3098	-110.7659	692.1	134.1	343.0	3.2	3.0	1.76	52.45	1.9445	400.2709
5694	1509391694	54.3103	-110.7660	695.6	137.6	348.3	2.9	3.1	1.74	52.44	1.9437	399.9203
5695	1509391695	54.3108	-110.7661	698.9	140.9	353.3	2.6	3.2	1.73	52.27	1.9423	400.8498
5696	1509391696	54.3113	-110.7661	702.3	144.3	357.5	2.7	3.6	1.71	52.04	1.9433	400.8498
5697	1509391697	54.3118	-110.7661	705.6	147.5	0.0	3.5	4.1	1.69	51.82	1.9442	400.0321
5698	1509391698	54.3123	-110.7660	708.7	150.7	2.1	4.1	4.2	1.67	51.66	1.9431	401.1128
5699	1509391699	54.3129	-110.7659	712.4	154.4	5.0	3.7	3.8	1.65	51.57	1.9447	400.2244
5700	1509391700	54.3134	-110.7658	716.3	158.3	7.0	3.7	3.6	1.63	51.52	1.9447	400.7690
5701	1509391701	54.3138	-110.7656	720.4	162.4	8.5	3.4	3.7	1.63	51.52	1.9444	400.7570
5702	1509391702	54.3144	-110.7654	724.5	167.5	10.2	2.8	3.9	1.61	51.62	1.9443	400.3017
5703	1509391703	54.3149	-110.7652	728.2	171.1	11.9	2.0	4.2	1.57	51.92	1.9435	401.0767
5704	1509391704	54.3154	-110.7650	730.9	174.9	12.7	2.1	4.2	1.55	52.19	1.9444	401.0767
5705	1509391705	54.3159	-110.7648	733.6	177.6	12.7	2.7	4.0	1.53	52.38	1.9431	400.8143
5706	1509391706	54.3164	-110.7646	736.7	181.7	13.2	2.8	4.0	1.51	52.47	1.9440	400.0786
5707	1509391707	54.3169	-110.7643	739.4	184.4	13.5	2.8	4.2	1.49	52.50	1.9430	400.0084
5708	1509391708	54.3174	-110.7641	742.2	187.2	13.2	3.4	4.4	1.47	52.52	1.9444	400.2167
5709	1509391709	54.3179	-110.7638	745.1	190.1	13.6	3.5	4.5	1.45	52.53	1.9434	400.6628
5710	1509391710	54.3185	-110.7636	747.9	192.9	13.9	3.8	4.7	1.43	52.54	1.9437	401.1153
5711	1509391711	54.3190	-110.7633	751.0	196.0	14.3	4.2	4.6	1.41	52.55	1.9436	400.9542
5712	1509391712	54.3195	-110.7630	754.0	199.0	15.3	4.0	4.3	1.41	52.55	1.9428	400.0064
5713	1509391713	54.3200	-110.7628	756.2	201.2	16.3	3.8	4.2	1.39	52.52	1.9422	401.0125
5714	1509391714	54.3205	-110.7624	758.3	203.3	17.3	4.1	4.1	1.35	52.46	1.9436	401.4244
5715	1509391715	54.3210	-110.7621	760.2	205.2	18.0	4.7	4.1	1.33	52.38	1.9445	401.4211
5716	1509391716	54.3216	-110.7618	761.8	206.8	19.8	4.3	3.9	1.30	52.29	1.9434	401.3692
5717	1509391717	54.3221	-110.7614	763.5	208.5	21.6	3.6	3.6	1.26	52.24	1.9425	400.9518
5718	1509391718	54.3226	-110.7610	765.7	209.7	23.1	3.4	3.6	1.24	52.24	1.9442	400.8263
5719	1509391719	54.3231	-110.7606	768.7	212.7	24.0	3.4	3.6	1.22	52.23	1.9452	400.5800
5720	1509391720	54.3236	-110.7602	771.7	215.7	24.8	3.6	3.4	1.19	52.27	1.9428	400.9594
5721	1509391721	54.3241	-110.7597	774.8	218.8	25.7	3.8	3.9	1.17	52.34	1.9428	401.2156
5722	1509391722	54.3246	-110.7593	778.1	222.1	27.3	3.2	4.3	1.15	52.37	1.9429	401.6477
5723	1509391723	54.3251	-110.7588	781.5	225.5	26.8	4.2	3.9	1.13	52.44	1.9429	401.3679
5724	1509391724	54.3256	-110.7583	783.8	227.8	26.1	5.1	3.7	1.11	52.47	1.9433	401.0811
5725	1509391725	54.3261	-110.7579	785.9	229.9	27.0	4.6	3.6	1.09	52.47	1.9421	401.1420
5726	1509391726	54.3266	-110.7574	788.2	231.2	28.6	3.4	3.7	1.07	52.47	1.9424	400.6216
5727	1509391727	54.3271	-110.7569	790.1	232.1	29.7	3.1	4.3	1.04	52.49	1.9439	400.1633
5728	1509391728	54.3276	-110.7564	792.1	234.1	29.7	3.5	4.5	1.02	52.51	1.9431	401.0154
5729	1509391729	54.3281	-110.7559	793.9	234.9	30.3	3.3	4.5	1.00	52.60	1.9436	401.6359
5730	1509391730	54.3286	-110.7553	795.5	235.5	30.3	3.6	3.9	0.98	52.75	1.9442	399.0999
5731	1509391731	54.3291	-110.7548	797.8	237.8	31.1	3.0	3.3	0.96	52.90	1.9434	400.0032
5732	1509391732	54.3296	-110.7543	800.7	239.7	31.8	2.8	3.2	0.95	53.06	1.9445	400.2583
5733	1509391733	54.3301	-110.7537	803.4	242.6	32.1	3.3	3.1	0.93	53.21	1.9426	401.3714
5734	1509391734	54.3307	-110.7532	806.0	244.1	32.8	3.2	3.5	0.93	53.34	1.9427	400.5095
5735	1509391735	54.3312	-110.7526	808.0	245.0	34.2	2.1	3.4	0.91	53.41	1.9417	401.7752
5736	1509391736	54.3316	-110.7520	810.5	247.4	34.2	2.6	3.1	0.89	53.44	1.9420	401.4697
5737	1509391737	54.3321	-110.7514	813.6	249.5	34.6	2.7	3.2	0.87	53.31	1.9440	402.1010
5738	1509391738	54.3326	-110.7508	816.7	251.7	34.9	3.3	3.4	0.85	52.91	1.9426	402.3416
5739	1509391739	54.3331	-110.7502	819.4	253.4	34.6	4.5	3.4	0.84	52.53	1.9418	402.3416
5740	1509391740	54.3336	-110.7496	821.8	256.0	35.5	4.2	3.8	0.83	52.19	1.9416	401.3605
5741	1509391741	54.3341	-110.7490	824.3	258.2	36.3	4.2	4.4	0.81	52.02	1.9430	400.4656
5742	1509391742	54.3346	-110.7483	827.9	261.0	35.8	4.6	3.7	0.78	51.95	1.9432	400.4656
5743	1509391743	54.3351	-110.7477	831.9	264.1	36.8	3.9	4.1	0.77	52.00	1.9449	400.6188
5744	1509391744	54.3356	-110.7471	835.5	267.4	37.1	3.4	3.6	0.76	52.18	1.9448	400.8591
5745	1509391745	54.3360	-110.7464	839.2	270.7	37.2	3.6	3.4	0.74	52.44	1.9442	401.6970
5746	1509391746	54.3365	-110.7458	842.1	272.1	37.7	4.0	4.2	0.73	52.66	1.9435	401.4912
5747	1509391747	54.3370	-110.7451	844.5	274.6	37.3	5.0	4.4	0.72	52.80	1.9445	400.0745
5748	1509391748	54.3375	-110.7445	846.8	277.8	37.1	5.1	4.4	0.71	52.88	1.9440	400.0745
5749	1509391749	54.3380	-110.7438	848.6	280.6	37.7	4.5	4.4	0.70	52.95	1.9438	401.4979
5750	1509391750	54.3385	-110.7432	850.6	282.6	37.0	5.2	4.0	0.68	53.05	1.9434	401.2633
5751	1509391751	54.3390	-110.7425	852.5	284.4	37.0	5.2	3.9	0.66	53.10	1.9426	402.4755
5752	1509391752	54.3394	-110.7418	854.1	286.0	36.7	5.6	3.5	0.64	53.00	1.9421	402.4755
5753	1509391753	54.3399	-110.7412	856.1	289.0	37.2	5.1	3.7	0.61	52.74	1.9404	401.7884
5754	1509391754	54.3404	-110.7405	857.7	291.7	37.8	4.8	3.6	0.59	52.55	1.9400	401.3749
5755	1509391755	54.3409	-110.7398	859.2	293.9	37.5	5.3	3.5	0.57	52.43	1.9402	401.3749
5756	1509391756	54.3414	-110.7391	860.6	295.9	38.0	5.3	3.5	0.55	52.34	1.9420	401.0701
5757	1509391757	54.3419	-110.7384	862.2	298.1	38.2	5.3	3.4	0.54	52.25	1.9411	400.5020
5758	1509391758	54.3423	-110.7378	863.9	301.2	38.9	5.0	3.7	0.52	52.15	1.9414	402.0699
5759	1509391759	54.3428	-110.7370	865.1	303.1	38.8	5.2	3.6	0.49	52.07	1.9427	401.0310
5760	1509391760	54.3433	-110.7363	865.9	305.0	38.8	5.2	3.6	0.49	52.03	1.9402	400.9582
5761	1509391761	54.3438	-110.7357	866.8	305.8	38.4	5.6	3.6	0.49	51.99	1.9404	401.6036
5762	1509391762	54.3443	-110.7350	867.7	307.8	38.5	5.5	3.7	0.49	51.99	1.9426	401.6068
5763	1509391763	54.3448	-110.7342	868.8	309.0	38.8	5.1	3.9	0.48	51.99	1.9420	402.2459
5764	1509391764	54.3453	-110.7336	869.7	309.7	38.3	5.1	3.5	0.45	51.99	1.9422	401.0551
5765	1509391765	54.3458	-110.7328	870.7	311.0	38.2	5.1	3.7	0.46	52.02	1.9390	399.9983
5766	1509391766	54.3462	-110.7322	871.5	311.5	37.7	5.7	3.7	0.45	52.11	1.9402	400.7048
5767	1509391767	54.3467	-110.7315	872.3	313.0	37.6	5.4	3.4	0.45	52.16	1.9405	401.4480
5768	1509391768	54.3472	-110.7308	873.1	314.1	37.5	5.2	3.6	0.44	52.17	1.9415	401.3594
5769	1509391769	54.3477	-110.7301	873.6	314.8	37.5	4.6	3.6	0.42	52.16	1.9415	401.8160
5770	1509391770	54.3482	-110.7294	874.5	316.6	37.5	4.3	3.9	0.42	52.16	1.9429	400.6434
5771	1509391771	54.3487	-110.7288	875.4	318.4	37.1	4.5	3.8	0.42	52.26	1.9429	401.8014
5772	1509391772	54.3492	-110.7281	876.6	320.4	36.6	4.1	3.5	0.38	52.53	1.9402	401.7727
5773	1509391773	54.3497	-110.7274	877.2	321.2	37.0	4.0	4.4	0.37	52.80	1.9407	400.0122
5774	1509391774	54.3502	-110.7267	877.3	321.3	35.2	5.3	3.0	0.36	52.94	1.9415	401.4944
5775	1509391775	54.3508	-110.7261	877.8	321.8	35.5	4.8	3.4	0.35	52.96	1.9407	400.9003
5776	1509391776	54.3513	-110.7254	878.6	322.6	37.0	3.6	3.8	0.34	52.96	1.9400	399.8016
5777	1509391777	54.3518	-110.7247	879.3	323.3	36.0	4.7	2.9	0.34	52.97	1.9427	400.6006
5778	1509391778	54.3523	-110.7241	880.4	325.4	37.2	3.8	3.6	0.32	52.99	1.9416	402.3006
5779	1509391779	54.3528	-110.7234	881.0	326.0	38.1	3.9	4.2	0.31	53.00	1.9405	401.4321
5780	1509391780	54.3533	-110.7227	881.4	327.4	36.8	5.6	3.7	0.30	52.99	1.9423	401.4321
5781	1509391781	54.3538	-110.7220	882.1	328.1	37.6	4.6	4.1	0.29	53.02	1.9405	400.5618
5782	1509391782	54.3543	-110.7213	882.2	329.2	38.2	4.3	4.5	0.30	52.99	1.9401	400.6143
5783	1509391783	54.3548	-110.7206	881.8	328.8	36.8	5.0	3.6	0.28	52.90	1.9398	400.8583
5784	1509391784	54.3553	-110.7199	881.6	329.6	37.8	4.3	4.7	0.28	52.89	1.9409	401.2106
5785	1509391785	54.3558	-110.7192	881.3	329.3	36.6	5.3	3.9	0.28	52.87	1.9422	400.4020
5786	1509391786	54.3564	-110.7185	880.4	329.4	37.1	5.0	4.3	0.27	52.87	1.9426	401.3423
5787	1509391787	54.3569	-110.7178	880.0	329.0	37.3	4.6	3.6	0.26	52.86	1.9429	400.8595
5788	1509391788	54.3574	-110.7171	879.8	328.8	37.8	3.8	3.2	0.26	52.98	1.9431	400.6647
5789	1509391789	54.3579	-110.7164	880.1	329.1	38.7	3.2	3.5	0.25	53.32	1.9437	400.1535
5790	1509391790	54.3584	-110.7157	880.6	329.6	38.8	3.2	3.6	0.24	53.71	1.9437	400.5449
5791	1509391791	54.3589	-110.7150	881.0	330.0	39.1	2.9	4.2	0.24	53.95	1.9410	400.5006
5792	1509391792	54.3594	-110.7143	880.9	329.9	37.9	4.1	3.7	0.23	54.02	1.9410	400.4615
5793	1509391793	54.3600	-110.7136	881.2	331.2	37.4	4.1	3.6	0.22	54.03	1.9442	400.9289
5794	1509391794	54.3605	-110.7129	880.5	330.5	38.6	3.1	4.1	0.20	53.99	1.9442	401.2003
5795	1509391795	54.3610	-110.7122	879.6	329.6	37.7	3.9	3.5	0.20	53.95	1.9432	401.0700
5796	1509391796	54.3615	-110.7115	880.0	329.0	39.0	2.5	4.1	0.19	53.97	1.9422	400.7575
5797	1509391797	54.3620	-110.7108	880.7	329.7	38.8	2.8	3.5	0.18	54.15	1.9424	400.3072
5798	1509391798	54.3625	-110.7101	881.1	329.1	37.7	3.5	3.2	0.18	54.33	1.9413	399.4493
5799	1509391799	54.3631	-110.7094	880.8	328.8	38.2	3.3	4.3	0.18	54.42	1.9424	399.4493
5800	1509391800	54.3636	-110.7087	880.6	328.6	37.2	4.3	3.9	0.17	54.43	1.9409	400.8310
5801	1509391801	54.3641	-110.7080	880.9	328.9	37.0	4.1	4.1	0.16	54.32	1.9416	399.2692
5802	1509391802	54.3647	-110.7073	882.0	329.9	37.4	3.5	4.4	0.16	54.15	1.9416	399.4235
5803	1509391803	54.3652	-110.7066	883.3	332.3	35.6	4.3	3.6	0.16	54.06	1.9413	399.6148
5804	1509391804	54.3657	-110.7059	884.7	333.7	35.1	3.4	4.0	0.16	54.03	1.9411	400.1942
5805	1509391805	54.3662	-110.7053	885.5	334.5	34.4	2.6	3.9	0.15	54.02	1.9410	400.2431
5806	1509391806	54.3668	-110.7046	886.0	335.0	32.1	3.5	3.9	0.14	54.00	1.9445	399.7421
5807	1509391807	54.3674	-110.7040	886.8	335.8	30.6	3.2	3.4	0.14	53.95	1.9411	399.7782
5808	1509391808	54.3679	-110.7035	887.2	336.2	28.7	4.2	3.4	0.14	53.89	1.9409	400.4902
5809	1509391809	54.3685	-110.7029	887.5	336.5	27.5	4.1	3.6	0.14	53.85	1.9423	399.8863
5810	1509391810	54.3691	-110.7024	888.0	337.0	26.4	4.2	3.6	0.14	53.85	1.9425	400.0169
5811	1509391811	54.3697	-110.7018	888.6	337.6	25.0	5.0	3.6	0.14	53.84	1.9433	399.9913
5812	1509391812	54.3703	-110.7013	889.5	338.5	24.2	4.8	3.6	0.14	53.80	1.9415	399.8839
5813	1509391813	54.3709	-110.7008	890.6	339.6	23.8	4.6	3.6	0.14	53.72	1.9421	400.1710
5814	1509391814	54.3715	-110.7003	891.7	339.7	23.0	4.8	3.4	0.14	53.64	1.9424	400.5494
5815	1509391815	54.3721	-110.6998	892.8	340.8	23.5	3.8	3.6	0.13	53.61	1.9410	400.4391
5816	1509391816	54.3726	-110.6994	894.2	342.2	22.5	4.4	3.2	0.11	53.63	1.9414	399.5314
5817	1509391817	54.3732	-110.6989	895.4	344.7	22.3	4.0	3.3	0.12	53.70	1.9419	399.5861
5818	1509391818	54.3738	-110.6985	896.5	348.5	21.7	3.5	3.4	0.11	53.76	1.9413	399.6869
5819	1509391819	54.3744	-110.6980	896.1	353.9	19.6	3.8	3.4	0.10	53.78	1.9407	399.4121
5820	1509391820	54.3751	-110.6976	895.2	368.6	17.3	3.8	3.6	0.10	53.74	1.9403	399.0285
5821	1509391821	54.3757	-110.6973	894.1	376.5	14.4	4.5	3.3	0.08	53.68	1.9418	398.1919
5822	1509391822	54.3763	-110.6970	893.2	381.2	13.2	3.1	3.5	0.08	53.67	1.9428	398.1919
5823	1509391823	54.3769	-110.6967	892.2	382.1	10.7	3.6	3.4	0.08	53.67	1.9416	399.2884
5824	1509391824	54.3776	-110.6965	891.4	382.3	7.8	3.7	3.0	0.07	53.77	1.9425	398.6680
5825	1509391825	54.3782	-110.6963	891.0	383.0	6.7	2.5	3.1	0.06	53.83	1.9410	400.8080
5826	1509391826	54.3789	-110.6962	889.7	381.7	4.5	3.6	3.3	0.06	53.89	1.9417	399.9011
5827	1509391827	54.3795	-110.6960	886.9	376.9	3.4	3.8	3.5	0.06	54.01	1.9407	400.8323
5828	1509391828	54.3802	-110.6959	884.1	372.5	3.5	2.8	3.5	0.05	54.08	1.9409	400.2699
5829	1509391829	54.3809	-110.6958	881.6	365.1	1.5	3.9	3.4	0.04	54.08	1.9401	400.9138
5830	1509391830	54.3815	-110.6957	880.5	357.7	1.3	3.1	3.1	0.03	54.04	1.9406	400.4139
5831	1509391831	54.3822	-110.6957	879.2	349.2	0.0	3.8	3.0	0.03	53.93	1.9409	400.2786
5832	1509391832	54.3828	-110.6956	878.0	340.0	358.9	4.2	3.0	0.04	53.80	1.9419	400.2786
5833	1509391833	54.3835	-110.6956	876.2	334.4	358.7	3.7	2.9	0.04	53.56	1.9405	400.9060
5834	1509391834	54.3842	-110.6956	875.0	330.4	357.6	4.2	3.1	0.04	53.42	1.9418	400.8898
5835	1509391835	54.3849	-110.6956	873.5	326.4	357.7	4.0	3.3	0.04	53.35	1.9408	399.6358
5836	1509391836	54.3856	-110.6955	872.0	322.7	357.5	4.1	3.5	0.04	53.34	1.9411	401.5190
5837	1509391837	54.3862	-110.6955	870.9	319.9	358.2	3.1	3.1	0.04	53.36	1.9421	400.9881
5838	1509391838	54.3869	-110.6955	870.0	319.1	357.8	3.4	3.3	0.04	53.47	1.9425	400.2151
5839	1509391839	54.3876	-110.6955	869.2	317.3	357.9	3.1	3.5	0.04	53.53	1.9424	398.9481
5840	1509391840	54.3883	-110.6955	868.8	315.8	357.3	3.6	3.6	0.04	53.55	1.9423	399.8642
5841	1509391841	54.3890	-110.6955	868.0	314.7	357.2	3.2	3.6	0.04	53.54	1.9412	399.5425
5842	1509391842	54.3897	-110.6955	867.2	313.2	356.7	3.4	3.2	0.05	53.48	1.9437	398.6081
5843	1509391843	54.3903	-110.6955	866.8	312.8	355.8	3.7	3.3	0.06	53.40	1.9530	401.7690
5844	1509391844	54.3910	-110.6956	866.7	312.7	355.0	4.0	3.2	0.06	53.31	1.9618	401.5290
5845	1509391845	54.3917	-110.6956	866.7	313.7	355.0	3.4	2.7	0.06	53.24	1.9638	400.7274
5846	1509391846	54.3924	-110.6957	866.3	314.2	355.3	2.7	2.6	0.06	53.22	1.9649	400.0509
5847	1509391847	54.3931	-110.6957	865.4	314.7	354.5	3.6	2.8	0.06	53.32	1.9597	399.3029
5848	1509391848	54.3938	-110.6958	864.6	315.6	354.7	3.0	2.9	0.06	53.50	1.9505	400.3733
5849	1509391849	54.3944	-110.6958	863.9	315.2	354.7	3.3	2.9	0.07	53.54	1.9459	400.4105
5850	1509391850	54.3951	-110.6959	863.4	313.6	354.4	3.7	3.0	0.08	53.50	1.9457	399.9478
5851	1509391851	54.3958	-110.6959	862.9	311.9	354.5	3.8	2.6	0.08	53.26	1.9480	400.3178
5852	1509391852	54.3965	-110.6960	862.2	311.2	354.5	3.6	2.9	0.09	53.17	1.9501	400.5106
5853	1509391853	54.3972	-110.6960	861.0	311.0	354.8	2.9	3.2	0.10	53.16	1.9440	399.5715
5854	1509391854	54.3979	-110.6961	859.9	309.9	354.3	3.0	3.3	0.10	53.20	1.9430	399.9604
5855	1509391855	54.3986	-110.6962	859.0	309.0	353.9	3.1	3.1	0.11	53.26	1.9432	400.6234
5856	1509391856	54.3993	-110.6962	858.3	308.3	353.3	3.5	3.0	0.12	53.28	1.9421	400.6234
5857	1509391857	54.4000	-110.6963	857.7	306.7	353.3	3.2	3.1	0.14	53.26	1.9429	399.6721
5858	1509391858	54.4007	-110.6964	857.9	306.5	352.8	3.6	3.1	0.15	53.23	1.9435	400.0966
5859	1509391859	54.4014	-110.6965	857.9	305.8	352.4	3.6	3.1	0.16	53.18	1.9432	399.6693
5860	1509391860	54.4021	-110.6966	857.5	305.5	352.6	3.0	3.1	0.16	53.14	1.9441	400.1641
5861	1509391861	54.4027	-110.6967	856.9	304.9	352.5	2.8	3.2	0.16	53.14	1.9448	400.5936
5862	1509391862	54.4034	-110.6968	856.3	304.3	352.5	2.7	3.3	0.17	53.29	1.9435	399.7965
5863	1509391863	54.4041	-110.6969	854.9	302.9	351.7	3.3	3.6	0.18	53.42	1.9426	400.0445
5864	1509391864	54.4048	-110.6971	853.4	301.4	351.3	3.3	3.6	0.19	53.43	1.9423	400.4009
5865	1509391865	54.4055	-110.6972	851.7	299.7	351.1	3.4	3.4	0.20	53.23	1.9437	400.4009
5866	1509391866	54.4062	-110.6973	849.8	298.8	350.9	3.3	3.5	0.20	53.00	1.9453	400.3870
5867	1509391867	54.4069	-110.6974	848.1	297.1	351.3	2.7	3.1	0.21	52.89	1.9453	400.1272
5868	1509391868	54.4076	-110.6976	846.0	295.0	350.3	3.7	2.9	0.22	52.79	1.9471	400.2439
5869	1509391869	54.4083	-110.6977	844.6	294.6	350.0	3.7	2.7	0.22	52.68	1.9453	400.5176
5870	1509391870	54.4090	-110.6979	843.9	294.2	350.5	2.8	3.2	0.22	52.64	1.9438	400.2924
5871	1509391871	54.4097	-110.6980	843.1	294.1	349.4	4.2	3.4	0.23	52.60	1.9448	399.7403
5872	1509391872	54.4104	-110.6982	842.8	295.8	349.2	4.1	3.4	0.24	52.39	1.9452	400.5261
5873	1509391873	54.4111	-110.6983	842.8	297.5	349.4	4.0	2.8	0.24	51.98	1.9460	400.1375
5874	1509391874	54.4118	-110.6985	842.7	300.3	348.8	4.6	3.3	0.27	51.57	1.9456	399.8400
5875	1509391875	54.4125	-110.6986	842.6	301.9	349.1	4.2	3.2	0.30	51.30	1.9442	400.8830
5876	1509391876	54.4132	-110.6988	842.8	305.1	349.1	4.2	3.2	0.29	51.19	1.9447	399.8137
5877	1509391877	54.4139	-110.6990	842.7	305.2	349.7	3.5	3.0	0.32	51.12	1.9446	399.3619
5878	1509391878	54.4146	-110.6991	842.3	304.3	349.6	3.4	3.0	0.32	51.04	1.9431	399.9974
5879	1509391879	54.4153	-110.6993	841.9	303.9	349.6	3.4	3.1	0.32	50.94	1.9437	401.0985
5880	1509391880	54.4160	-110.6994	840.8	302.3	349.7	3.6	3.2	0.34	50.89	1.9444	399.9956
5881	1509391881	54.4167	-110.6996	839.3	296.8	349.8	3.7	3.0	0.36	50.84	1.9477	400.3212
5882	1509391882	54.4174	-110.6997	837.6	290.4	350.2	3.5	3.0	0.36	50.81	1.9479	400.1261
5883	1509391883	54.4181	-110.6999	835.9	284.4	350.4	3.3	3.1	0.39	50.81	1.9464	400.5916
5884	1509391884	54.4188	-110.7000	834.1	281.8	350.3	3.4	3.3	0.40	50.89	1.9461	400.9196
5885	1509391885	54.4195	-110.7002	833.1	280.2	350.8	2.7	3.6	0.41	51.07	1.9463	400.5882
5886	1509391886	54.4202	-110.7003	832.7	280.7	350.1	3.6	3.4	0.42	51.20	1.9456	399.8883
5887	1509391887	54.4209	-110.7005	832.2	281.9	350.4	3.7	2.9	0.43	51.24	1.9478	401.3795
5888	1509391888	54.4216	-110.7006	831.1	282.2	350.9	3.8	2.9	0.44	51.25	1.9484	400.5125
5889	1509391889	54.4224	-110.7007	830.5	283.6	352.7	2.2	2.6	0.44	51.33	1.9476	400.9788
5890	1509391890	54.4231	-110.7008	830.2	286.6	354.0	1.2	2.3	0.46	51.64	1.9471	401.3903
5891	1509391891	54.4238	-110.7009	829.7	287.7	353.8	1.9	2.5	0.46	52.03	1.9445	401.3461
5892	1509391892	54.4245	-110.7010	828.7	288.7	354.2	1.5	2.8	0.46	52.34	1.9459	399.5475
5893	1509391893	54.4252	-110.7011	827.8	287.8	353.6	2.3	3.3	0.48	52.39	1.9471	399.8636
5894	1509391894	54.4259	-110.7012	826.9	286.2	353.1	3.0	3.2	0.48	52.39	1.9471	401.5176
5895	1509391895	54.4266	-110.7013	825.6	284.3	353.3	2.7	2.8	0.48	52.39	1.9478	400.0212
5896	1509391896	54.4273	-110.7014	823.7	281.7	353.8	2.2	2.4	0.48	52.34	1.9502	400.0755
5897	1509391897	54.4281	-110.7015	821.3	279.3	353.4	2.6	2.2	0.50	52.14	1.9507	400.4385
5898	1509391898	54.4288	-110.7016	819.4	277.4	354.7	0.9	2.2	0.50	52.00	1.9499	399.3552
5899	1509391899	54.4295	-110.7017	817.1	275.1	354.2	1.7	2.7	0.50	52.11	1.9490	400.0228
5900	1509391900	54.4302	-110.7018	814.5	271.8	353.8	2.4	3.3	0.51	52.38	1.9442	400.3551
5901	1509391901	54.4310	-110.7019	811.9	267.9	354.8	2.3	3.0	0.52	52.49	1.9456	400.4999
5902	1509391902	54.4317	-110.7020	809.8	264.8	355.4	2.4	3.3	0.52	52.27	1.9456	400.6796
5903	1509391903	54.4324	-110.7020	807.2	260.9	356.3	2.1	3.4	0.53	51.89	1.9429	400.5987
5904	1509391904	54.4331	-110.7020	804.2	256.2	356.5	2.4	3.6	0.54	51.63	1.9440	399.8368
5905	1509391905	54.4339	-110.7021	801.1	253.1	356.8	3.0	3.3	0.55	51.48	1.9443	400.2959
5906	1509391906	54.4347	-110.7021	798.7	249.7	358.7	2.2	3.0	0.56	51.35	1.9462	400.2959
5907	1509391907	54.4354	-110.7021	796.4	245.4	0.0	3.1	3.2	0.58	51.27	1.9472	401.0507
5908	1509391908	54.4362	-110.7020	794.6	242.6	2.0	3.1	3.1	0.60	51.26	1.9468	399.3282
5909	1509391909	54.4369	-110.7019	793.0	240.9	4.0	2.8	2.8	0.60	51.24	1.9474	399.3716
5910	1509391910	54.4376	-110.7017	791.3	240.3	5.2	2.5	3.0	0.62	51.23	1.9480	400.1943
5911	1509391911	54.4384	-110.7016	789.5	239.5	6.7	2.2	3.1	0.64	51.22	1.9476	400.1943
5912	1509391912	54.4391	-110.7014	788.2	238.2	7.4	2.2	2.6	0.66	51.20	1.9512	401.1906
5913	1509391913	54.4399	-110.7012	787.1	237.1	8.6	1.5	2.6	0.68	51.19	1.9598	400.4105
5914	1509391914	54.4406	-110.7010	786.7	236.7	8.5	2.2	2.3	0.70	51.16	1.9658	401.1639
5915	1509391915	54.4413	-110.7007	787.1	238.1	9.4	1.6	2.2	0.72	51.12	1.9622	400.3624
5916	1509391916	54.4421	-110.7005	787.8	238.8	10.1	1.3	2.6	0.74	51.12	1.9568	400.7760
5917	1509391917	54.4428	-110.7003	787.7	237.7	9.9	2.2	2.9	0.76	51.12	1.9523	401.6821
5918	1509391918	54.4435	-110.7000	786.5	236.5	10.2	1.9	2.6	0.77	51.11	1.9503	400.1057
5919	1509391919	54.4443	-110.6998	785.8	236.5	10.6	1.6	2.5	0.79	51.08	1.9527	399.5070
5920	1509391920	54.4450	-110.6995	785.7	236.7	10.1	2.2	2.3	0.83	51.01	1.9516	399.5070
5921	1509391921	54.4457	-110.6993	785.5	236.5	10.6	1.7	2.8	0.86	50.89	1.9486	400.7852
5922	1509391922	54.4464	-110.6990	785.2	237.2	10.2	2.1	2.7	0.86	50.69	1.9487	400.0162
5923	1509391923	54.4472	-110.6988	784.8	237.8	9.7	2.3	2.9	0.87	50.46	1.9496	400.2973
5924	1509391924	54.4479	-110.6985	784.5	238.5	8.9	2.9	3.3	0.90	50.29	1.9512	400.9478
5925	1509391925	54.4486	-110.6983	783.9	237.9	9.1	2.0	3.2	0.91	50.18	1.9498	401.0217
5926	1509391926	54.4494	-110.6981	782.3	236.3	8.3	2.6	3.0	0.92	50.16	1.9514	400.6674
5927	1509391927	54.4501	-110.6979	780.4	234.4	7.7	2.8	3.1	0.94	50.22	1.9506	401.0813
5928	1509391928	54.4508	-110.6977	778.4	232.7	7.5	2.3	3.3	0.95	50.32	1.9504	400.4686
5929	1509391929	54.4516	-110.6975	776.4	231.4	7.2	2.0	2.8	0.96	50.37	1.9518	399.3752
5930	1509391930	54.4523	-110.6973	774.6	230.5	7.2	1.6	2.4	0.96	50.37	1.9534	400.5793
5931	1509391931	54.4530	-110.6971	773.2	229.2	6.3	2.6	2.1	0.96	50.39	1.9523	399.9392
5932	1509391932	54.4538	-110.6970	772.3	227.3	6.6	2.4	2.2	0.97	50.43	1.9496	400.8636
5933	1509391933	54.4545	-110.6968	771.7	225.7	6.3	2.7	2.3	0.98	50.44	1.9503	399.9417
5934	1509391934	54.4552	-110.6966	771.5	225.5	6.5	2.4	2.4	0.99	50.49	1.9488	400.2653
5935	1509391935	54.4560	-110.6964	771.3	224.3	6.7	2.0	2.2	0.99	50.49	1.9508	400.2451
5936	1509391936	54.4567	-110.6962	770.5	223.5	7.0	2.0	2.0	1.01	50.41	1.9519	400.8814
5937	1509391937	54.4575	-110.6961	768.7	221.7	7.8	1.3	2.6	1.01	50.16	1.9517	400.8663
5938	1509391938	54.4582	-110.6959	766.4	219.4	7.3	2.2	3.1	1.03	49.99	1.9505	398.9756
5939	1509391939	54.4589	-110.6957	764.6	216.9	7.0	3.0	3.3	1.03	49.82	1.9504	400.2053
5940	1509391940	54.4597	-110.6955	763.4	216.4	7.7	2.8	3.5	1.03	49.67	1.9505	401.5046
5941	1509391941	54.4604	-110.6953	762.0	214.9	8.3	2.6	3.6	1.05	49.59	1.9511	400.1449
5942	1509391942	54.4611	-110.6950	760.4	214.4	9.0	2.2	3.6	1.05	49.57	1.9524	399.2323
5943	1509391943	54.4619	-110.6948	759.3	213.3	9.7	2.0	3.2	1.06	49.53	1.9511	400.0523
5944	1509391944	54.4626	-110.6946	758.3	212.3	10.2	2.1	3.2	1.07	49.40	1.9511	399.3312
5945	1509391945	54.4633	-110.6943	757.7	210.2	10.9	1.9	3.2	1.07	49.31	1.9526	399.5164
5946	1509391946	54.4640	-110.6941	757.0	209.0	11.3	1.8	3.3	1.08	49.28	1.9524	397.9963
5947	1509391947	54.4648	-110.6938	756.0	207.7	11.0	1.8	3.3	1.09	49.29	1.9538	400.4957
5948	1509391948	54.4655	-110.6935	755.0	206.0	10.7	2.0	3.3	1.09	49.32	1.9511	401.1378
5949	1509391949	54.4662	-110.6933	754.4	204.1	11.2	0.9	3.1	1.10	49.48	1.9507	399.4186
5950	1509391950	54.4670	-110.6930	752.7	198.7	10.5	1.4	3.1	1.11	49.64	1.9507	400.5655
5951	1509391951	54.4677	-110.6928	751.3	194.6	9.7	1.8	3.5	1.12	49.85	1.9506	400.2182
5952	1509391952	54.4684	-110.6925	750.8	193.7	9.9	1.3	3.6	1.13	49.89	1.9515	400.2166
5953	1509391953	54.4692	-110.6923	749.9	194.9	9.7	1.2	4.1	1.14	49.90	1.9510	399.7704
5954	1509391954	54.4699	-110.6921	748.4	194.7	8.3	2.4	4.0	1.16	49.87	1.9542	400.7780
5955	1509391955	54.4707	-110.6919	747.3	196.7	8.3	1.9	4.0	1.17	49.77	1.9541	400.9975
5956	1509391956	54.4714	-110.6917	746.4	197.6	7.8	2.4	4.0	1.18	49.67	1.9543	400.4448
5957	1509391957	54.4722	-110.6915	745.0	197.0	7.9	2.0	4.0	1.18	49.61	1.9505	399.7476
5958	1509391958	54.4729	-110.6913	743.4	196.4	7.9	2.2	4.1	1.19	49.59	1.9508	400.9149
5959	1509391959	54.4736	-110.6911	742.1	195.1	7.6	2.4	3.6	1.20	49.58	1.9516	400.5044
5960	1509391960	54.4744	-110.6909	741.0	194.0	8.6	1.3	3.2	1.21	49.61	1.9501	401.2553
5961	1509391961	54.4751	-110.6907	739.9	192.9	8.8	1.3	3.1	1.21	49.67	1.9502	401.2553
5962	1509391962	54.4758	-110.6905	738.9	191.9	9.1	1.2	3.1	1.22	49.80	1.9518	400.4032
5963	1509391963	54.4766	-110.6903	738.1	191.1	9.3	1.0	3.1	1.23	50.06	1.9507	400.6199
5964	1509391964	54.4773	-110.6900	737.3	190.3	10.1	0.2	3.2	1.23	50.37	1.9509	401.1239
5965	1509391965	54.4781	-110.6898	736.8	189.8	9.4	1.0	2.5	1.24	50.60	1.9508	399.1665
5966	1509391966	54.4788	-110.6896	736.0	189.0	9.8	0.4	2.6	1.25	50.71	1.9498	399.1665
5967	1509391967	54.4795	-110.6894	734.9	187.9	9.9	0.1	2.6	1.27	50.74	1.9511	399.8230
5968	1509391968	54.4803	-110.6892	733.7	186.7	9.6	0.4	2.6	1.27	50.73	1.9523	399.8230
5969	1509391969	54.4810	-110.6890	732.1	185.1	8.9	1.4	2.9	1.28	50.65	1.9518	399.8337
5970	1509391970	54.4818	-110.6887	730.4	183.4	8.9	1.3	3.4	1.29	50.50	1.9514	400.7281
5971	1509391971	54.4825	-110.6885	728.6	181.6	8.7	1.8	3.9	1.29	50.35	1.9520	398.8950
5972	1509391972	54.4832	-110.6883	727.4	180.4	8.6	1.6	3.8	1.29	50.22	1.9516	399.8189
5973	1509391973	54.4840	-110.6881	726.1	178.0	9.4	0.7	4.1	1.29	50.10	1.9509	401.2576
5974	1509391974	54.4847	-110.6879	724.7	175.7	9.0	1.5	4.1	1.29	50.05	1.9508	400.0882
5975	1509391975	54.4855	-110.6877	723.3	172.3	9.2	1.4	4.3	1.29	50.00	1.9525	400.0882
5976	1509391976	54.4862	-110.6875	721.7	167.6	9.3	1.4	4.0	1.29	49.92	1.9525	401.3652
5977	1509391977	54.4869	-110.6872	720.5	164.9	9.1	1.6	3.8	1.31	49.84	1.9524	400.7333
5978	1509391978	54.4877	-110.6870	720.0	162.1	9.5	1.4	4.0	1.31	49.81	1.9510	399.8918
5979	1509391979	54.4884	-110.6868	719.1	160.0	9.5	1.4	4.0	1.32	49.80	1.9541	399.8918
5980	1509391980	54.4892	-110.6866	718.2	159.8	9.7	1.3	3.7	1.35	49.80	1.9569	400.6293
5981	1509391981	54.4899	-110.6864	717.9	161.0	10.0	0.8	3.6	1.35	49.80	1.9572	400.6293
5982	1509391982	54.4906	-110.6861	717.9	161.9	10.0	1.0	3.2	1.35	49.80	1.9547	399.3616
5983	1509391983	54.4914	-110.6859	717.7	161.4	9.4	2.3	3.3	1.37	49.79	1.9562	400.4183
5984	1509391984	54.4921	-110.6857	717.8	161.8	9.5	2.3	3.2	1.37	49.75	1.9601	400.0554
5985	1509391985	54.4928	-110.6854	717.6	163.6	10.4	1.6	3.3	1.38	49.62	1.9609	399.6277
5986	1509391986	54.4936	-110.6852	716.8	163.7	9.6	2.8	3.5	1.38	49.45	1.9621	401.0059
5987	1509391987	54.4943	-110.6849	715.8	164.0	9.9	2.5	3.5	1.37	49.31	1.9627	401.1020
5988	1509391988	54.4950	-110.6847	714.4	163.1	10.3	2.2	3.6	1.39	49.12	1.9619	400.1720
5989	1509391989	54.4958	-110.6844	712.4	162.0	10.9	1.7	3.8	1.39	49.00	1.9603	399.9587
5990	1509391990	54.4965	-110.6842	710.6	158.5	10.7	2.1	3.7	1.39	48.92	1.9600	400.3013
5991	1509391991	54.4972	-110.6839	709.3	155.3	11.2	1.8	3.8	1.39	48.89	1.9588	400.3013
5992	1509391992	54.4980	-110.6836	707.8	152.2	11.4	1.7	3.8	1.41	48.89	1.9598	400.8448
5993	1509391993	54.4987	-110.6834	706.4	149.5	12.0	1.1	3.9	1.41	49.02	1.9600	400.9780
5994	1509391994	54.4994	-110.6831	704.9	146.9	11.8	1.2	3.4	1.41	49.15	1.9584	400.9780
5995	1509391995	54.5002	-110.6828	703.7	145.7	11.5	1.2	3.4	1.41	49.26	1.9600	401.8271
5996	1509391996	54.5009	-110.6826	702.7	144.5	11.4	1.1	3.4	1.42	49.36	1.9607	401.1209
5997	1509391997	54.5016	-110.6823	702.5	144.3	11.1	1.0	3.2	1.43	49.40	1.9600	399.9541
5998	1509391998	54.5023	-110.6820	702.8	144.6	10.4	1.6	2.9	1.43	49.42	1.9603	400.7452
5999	1509391999	54.5031	-110.6818	703.0	144.1	10.4	1.6	3.2	1.44	49.42	1.9605	400.8020
6000	1509392000	54.5038	-110.6816	704.5	145.6	10.7	1.5	2.9	1.45	49.42	1.9601	401.0821
6001	1509392001	54.5045	-110.6813	706.3	147.3	11.4	0.9	2.2	1.45	49.46	1.9590	400.2625
6002	1509392002	54.5052	-110.6810	707.8	148.8	11.6	0.9	3.0	1.45	49.68	1.9587	400.2625
6003	1509392003	54.5060	-110.6808	708.6	150.6	11.1	1.2	3.3	1.46	49.84	1.9592	401.3078
6004	1509392004	54.5067	-110.6805	708.9	151.5	10.3	1.8	4.0	1.47	49.92	1.9604	401.3078
6005	1509392005	54.5074	-110.6803	709.3	152.3	10.3	1.2	3.6	1.47	49.92	1.9602	400.3456
6006	1509392006	54.5081	-110.6801	710.4	153.4	9.9	1.7	3.7	1.47	49.92	1.9598	400.3456
6007	1509392007	54.5088	-110.6799	711.3	153.3	9.6	2.0	4.1	1.47	49.92	1.9595	400.0801
6008	1509392008	54.5095	-110.6796	711.7	153.7	9.9	2.0	4.1	1.47	49.92	1.9604	400.8073
6009	1509392009	54.5102	-110.6794	712.6	154.6	9.6	2.5	3.9	1.47	49.87	1.9617	400.5584
6010	1509392010	54.5110	-110.6791	713.7	156.8	9.9	2.0	3.9	1.47	49.81	1.9612	400.4073
6011	1509392011	54.5117	-110.6789	714.6	157.9	10.5	1.5	3.8	1.47	49.84	1.9604	400.1100
6012	1509392012	54.5124	-110.6787	715.5	159.5	10.7	1.2	3.3	1.47	50.02	1.9603	400.8834
6013	1509392013	54.5131	-110.6784	715.9	159.9	10.9	1.2	3.1	1.47	50.22	1.9612	401.4918
6014	1509392014	54.5138	-110.6782	715.6	160.6	10.8	1.4	3.5	1.46	50.30	1.9618	400.7135
6015	1509392015	54.5145	-110.6780	715.0	160.0	10.5	1.4	3.9	1.45	50.37	1.9598	401.5444
6016	1509392016	54.5152	-110.6777	714.2	159.2	10.3	1.6	3.8	1.45	50.41	1.9605	401.5444
6017	1509392017	54.5159	-110.6775	713.6	158.6	10.0	1.8	3.2	1.45	50.46	1.9599	400.3353
6018	1509392018	54.5166	-110.6772	713.3	159.3	10.7	1.0	3.0	1.44	50.54	1.9592	401.1283
6019	1509392019	54.5173	-110.6770	713.4	159.4	10.7	1.3	2.7	1.43	50.72	1.9606	401.9069
6020	1509392020	54.5180	-110.6768	713.0	159.0	11.3	0.8	2.5	1.43	50.89	1.9593	401.1561
6021	1509392021	54.5187	-110.6765	712.5	158.5	11.4	0.8	2.0	1.42	51.02	1.9602	398.8093
6022	1509392022	54.5194	-110.6763	712.3	158.2	12.2	0.1	1.8	1.41	51.07	1.9600	398.8093
6023	1509392023	54.5201	-110.6760	711.6	158.6	12.2	0.7	2.2	1.42	51.09	1.9613	399.8723
6024	1509392024	54.5208	-110.6757	711.1	158.1	13.0	0.2	2.7	1.41	51.13	1.9607	400.3104
6025	1509392025	54.5215	-110.6755	710.2	157.2	13.3	0.3	2.8	1.43	51.17	1.9597	400.9449
6026	1509392026	54.5223	-110.6752	709.5	156.5	13.0	1.0	3.1	1.43	51.21	1.9604	401.4084
6027	1509392027	54.5229	-110.6749	708.8	155.8	12.9	1.1	2.9	1.41	51.20	1.9611	401.4411
6028	1509392028	54.5236	-110.6746	708.3	155.3	13.3	0.9	2.5	1.41	51.14	1.9617	400.8137
6029	1509392029	54.5244	-110.6743	707.8	154.8	12.9	1.7	2.4	1.40	51.06	1.9633	400.9747
6030	1509392030	54.5251	-110.6740	707.5	154.5	13.7	1.0	2.7	1.41	51.03	1.9645	400.6101
6031	1509392031	54.5257	-110.6737	707.9	154.9	14.4	0.1	2.5	1.39	51.07	1.9649	401.4880
6032	1509392032	54.5264	-110.6734	708.5	155.2	14.7	-0.4	2.5	1.41	51.25	1.9631	400.9753
6033	1509392033	54.5271	-110.6731	708.4	154.4	13.9	0.5	2.4	1.39	51.42	1.9609	401.5531
6034	1509392034	54.5278	-110.6728	707.8	152.8	13.8	0.6	2.8	1.39	51.48	1.9630	401.5531
6035	1509392035	54.5285	-110.6725	707.0	151.3	13.9	0.8	2.8	1.39	51.47	1.9654	401.6375
6036	1509392036	54.5292	-110.6722	706.7	149.6	13.8	0.7	2.6	1.38	51.40	1.9658	400.1817
6037	1509392037	54.5299	-110.6719	706.4	148.1	13.7	0.7	2.1	1.37	51.33	1.9663	401.1431
6038	1509392038	54.5306	-110.6717	706.2	145.9	13.9	0.7	2.1	1.37	51.30	1.9651	401.1431
6039	1509392039	54.5313	-110.6713	705.7	143.7	14.5	0.3	2.6	1.37	51.39	1.9656	401.1915
6040	1509392040	54.5320	-110.6710	705.0	142.0	15.0	0.0	3.3	1.37	51.54	1.9650	401.3774
6041	1509392041	54.5327	-110.6707	704.6	139.8	14.8	0.3	3.3	1.38	51.66	1.9641	400.3025
6042	1509392042	54.5334	-110.6704	704.3	138.7	14.7	0.4	2.7	1.39	51.73	1.9646	401.1906
6043	1509392043	54.5341	-110.6701	704.3	138.1	14.4	0.8	2.5	1.38	51.77	1.9647	400.9422
6044	1509392044	54.5348	-110.6698	704.0	136.7	14.4	0.8	2.0	1.38	51.80	1.9646	400.8384
6045	1509392045	54.5355	-110.6695	703.6	135.6	14.3	1.0	2.2	1.38	51.80	1.9654	400.8439
6046	1509392046	54.5362	-110.6692	703.0	134.0	14.6	0.5	2.1	1.35	51.81	1.9656	401.3702
6047	1509392047	54.5368	-110.6689	702.7	132.6	15.0	0.0	2.1	1.35	51.85	1.9667	398.9536
6048	1509392048	54.5375	-110.6686	702.2	132.2	14.8	0.3	2.0	1.35	51.92	1.9648	400.2506
6049	1509392049	54.5382	-110.6683	702.3	132.2	15.1	-0.1	2.4	1.35	52.00	1.9631	401.7341
6050	1509392050	54.5389	-110.6680	702.0	133.0	14.5	0.3	2.9	1.35	52.03	1.9633	401.7248
6051	1509392051	54.5396	-110.6677	701.1	132.1	13.3	0.6	2.6	1.35	52.02	1.9646	401.4812
6052	1509392052	54.5403	-110.6674	700.5	130.5	12.9	0.2	2.5	1.34	52.00	1.9641	400.9975
6053	1509392053	54.5410	-110.6671	699.8	129.8	12.4	-0.1	2.5	1.35	51.93	1.9627	401.0335
6054	1509392054	54.5417	-110.6669	699.3	128.3	11.5	0.1	2.7	1.35	51.90	1.9627	400.5804
6055	1509392055	54.5424	-110.6667	699.4	128.5	10.7	0.2	2.6	1.35	51.88	1.9630	400.6938
6056	1509392056	54.5431	-110.6664	700.3	128.3	9.9	0.8	2.4	1.35	51.80	1.9631	401.2545
6057	1509392057	54.5438	-110.6662	701.6	129.6	9.1	1.2	2.5	1.35	51.66	1.9632	401.4559
6058	1509392058	54.5445	-110.6660	703.8	129.8	8.9	1.0	2.5	1.35	51.50	1.9635	400.8689
6059	1509392059	54.5452	-110.6658	705.3	130.3	8.8	0.5	2.3	1.35	51.41	1.9641	401.5908
6060	1509392060	54.5459	-110.6657	706.4	130.5	8.3	0.5	2.3	1.35	51.40	1.9638	401.0696
6061	1509392061	54.5466	-110.6655	707.7	130.7	7.7	0.7	2.5	1.35	51.51	1.9638	399.4870
6062	1509392062	54.5473	-110.6653	708.6	130.3	8.6	-0.3	2.5	1.33	51.73	1.9660	400.3614
6063	1509392063	54.5480	-110.6651	709.5	129.2	8.9	-0.3	2.4	1.33	51.88	1.9658	400.7210
6064	1509392064	54.5487	-110.6650	710.1	126.5	8.6	0.2	2.2	1.33	51.99	1.9643	401.2224
6065	1509392065	54.5493	-110.6648	711.4	126.8	8.3	0.9	1.8	1.33	52.04	1.9637	400.4203
6066	1509392066	54.5500	-110.6646	712.8	128.8	7.4	1.8	1.7	1.33	52.05	1.9644	400.4203
6067	1509392067	54.5507	-110.6644	713.7	130.7	8.8	0.1	2.4	1.33	52.03	1.9663	400.0299
6068	1509392068	54.5514	-110.6643	714.2	130.1	8.2	1.2	2.5	1.32	51.98	1.9651	401.2249
6069	1509392069	54.5521	-110.6641	715.4	128.7	8.4	0.8	2.0	1.31	51.97	1.9658	401.1995
6070	1509392070	54.5528	-110.6639	717.5	129.6	9.0	0.5	1.7	1.30	51.98	1.9665	400.1990
6071	1509392071	54.5534	-110.6637	721.4	132.3	9.2	0.6	1.7	1.29	52.04	1.9658	401.6468
6072	1509392072	54.5541	-110.6635	724.8	135.4	9.9	0.0	1.4	1.28	52.12	1.9659	400.1077
6073	1509392073	54.5548	-110.6633	727.2	137.4	9.7	0.6	2.1	1.26	52.16	1.9664	401.2716
6074	1509392074	54.5555	-110.6631	728.9	141.2	9.8	0.3	2.6	1.24	52.18	1.9673	401.3724
6075	1509392075	54.5561	-110.6629	729.3	143.3	9.8	-0.2	2.6	1.23	52.22	1.9666	400.7244
6076	1509392076	54.5568	-110.6627	728.5	141.2	8.3	0.6	2.6	1.21	52.25	1.9666	400.8567
6077	1509392077	54.5575	-110.6626	727.6	137.5	6.7	1.3	2.6	1.21	52.27	1.9672	401.9949
6078	1509392078	54.5581	-110.6624	727.1	132.2	5.8	1.4	2.3	1.19	52.29	1.9680	401.2751
6079	1509392079	54.5588	-110.6623	726.7	128.3	4.4	1.9	1.7	1.17	52.29	1.9663	401.6196
6080	1509392080	54.5595	-110.6622	727.0	127.0	4.5	1.0	1.8	1.16	52.34	1.9643	401.8214
6081	1509392081	54.5602	-110.6621	727.3	127.3	4.2	0.8	1.8	1.15	52.40	1.9653	401.2539
6082	1509392082	54.5608	-110.6620	726.9	128.9	2.6	1.8	1.8	1.13	52.43	1.9662	401.6475
6083	1509392083	54.5615	-110.6619	726.5	131.9	2.4	0.6	1.9	1.12	52.41	1.9651	400.5040
6084	1509392084	54.5622	-110.6619	727.5	131.8	0.6	0.7	2.0	1.11	52.35	1.9655	400.0931
6085	1509392085	54.5629	-110.6619	729.9	128.3	358.4	1.7	2.6	1.10	52.31	1.9659	401.6023
6086	1509392086	54.5636	-110.6619	731.8	125.5	358.3	0.7	3.1	1.09	52.31	1.9667	399.9515
6087	1509392087	54.5642	-110.6619	734.0	123.1	357.5	1.1	3.1	1.07	52.31	1.9677	398.3583
6088	1509392088	54.5649	-110.6620	736.7	123.6	356.6	1.6	3.2	1.04	52.31	1.9650	401.0100
6089	1509392089	54.5655	-110.6620	737.9	124.9	357.4	1.0	3.4	1.03	52.34	1.9667	401.4990
6090	1509392090	54.5662	-110.6620	738.1	123.1	357.4	1.2	3.4	1.00	52.44	1.9663	400.7663
6091	1509392091	54.5669	-110.6621	739.0	122.1	357.6	1.1	3.3	0.98	52.52	1.9665	401.5679
6092	1509392092	54.5676	-110.6621	741.5	121.8	356.8	1.7	3.3	0.96	52.58	1.9679	401.2967
6093	1509392093	54.5682	-110.6621	743.5	123.2	357.2	1.1	2.8	0.95	52.60	1.9674	400.9927
6094	1509392094	54.5689	-110.6622	745.4	123.4	357.6	0.9	2.4	0.97	52.67	1.9667	400.6970
6095	1509392095	54.5695	-110.6622	747.4	123.4	357.3	1.3	2.7	0.94	52.84	1.9700	401.4857
6096	1509392096	54.5702	-110.6622	749.0	123.3	357.5	1.3	2.9	0.91	53.01	1.9704	400.9994
6097	1509392097	54.5709	-110.6623	750.2	123.3	358.7	0.3	2.5	0.89	53.14	1.9682	401.6212
6098	1509392098	54.5715	-110.6623	751.2	123.2	358.8	0.6	2.6	0.88	53.28	1.9676	401.7523
6099	1509392099	54.5722	-110.6623	752.6	124.6	358.9	0.9	2.8	0.87	53.44	1.9666	401.7176
6100	1509392100	54.5728	-110.6623	753.5	124.5	359.0	1.1	3.0	0.83	53.54	1.9662	401.8243
6101	1509392101	54.5735	-110.6623	753.7	124.7	358.8	1.8	3.4	0.79	53.60	1.9662	401.7211
6102	1509392102	54.5741	-110.6623	754.4	125.2	359.0	2.0	3.3	0.76	53.61	1.9664	401.9047
6103	1509392103	54.5748	-110.6623	755.6	125.6	-0.6	1.7	3.3	0.75	53.51	1.9679	401.4584
6104	1509392104	54.5755	-110.6622	756.3	125.3	0.3	0.8	3.3	0.74	53.47	1.9685	400.9625
6105	1509392105	54.5761	-110.6622	756.5	124.5	0.5	1.0	2.9	0.72	53.49	1.9685	400.8137
6106	1509392106	54.5768	-110.6622	757.0	124.3	0.5	1.2	2.9	0.70	53.52	1.9682	401.4094
6107	1509392107	54.5774	-110.6622	757.6	124.6	0.4	1.3	2.4	0.68	53.59	1.9702	401.8946
6108	1509392108	54.5781	-110.6621	759.1	125.1	0.9	1.1	1.7	0.68	53.72	1.9694	400.7270
6109	1509392109	54.5787	-110.6621	762.5	127.5	1.2	0.9	1.6	0.66	53.91	1.9698	401.6094
6110	1509392110	54.5794	-110.6621	765.7	130.7	1.1	0.7	1.3	0.64	54.07	1.9688	399.5891
6111	1509392111	54.5800	-110.6620	768.3	134.3	0.5	0.9	1.7	0.63	54.15	1.9683	401.3652
6112	1509392112	54.5806	-110.6620	770.9	136.9	359.1	1.6	1.9	0.61	54.21	1.9692	401.2735
6113	1509392113	54.5813	-110.6620	772.8	137.8	358.9	1.1	2.3	0.59	54.25	1.9700	400.9727
6114	1509392114	54.5819	-110.6620	773.9	138.3	359.1	0.9	2.8	0.57	54.35	1.9684	401.4011
6115	1509392115	54.5826	-110.6620	775.1	137.2	358.8	1.1	2.9	0.55	54.49	1.9697	401.5751
6116	1509392116	54.5832	-110.6620	776.8	137.5	-0.6	0.9	2.8	0.53	54.60	1.9693	401.2121
6117	1509392117	54.5839	-110.6620	778.3	137.3	358.7	1.9	3.2	0.50	54.67	1.9687	401.8737
6118	1509392118	54.5845	-110.6620	779.8	137.8	1.2	-0.1	3.1	0.48	54.71	1.9684	401.1185
6119	1509392119	54.5851	-110.6620	781.6	139.6	1.2	0.4	3.4	0.46	54.75	1.9676	401.6562
6120	1509392120	54.5858	-110.6620	782.9	140.9	-0.3	1.8	3.5	0.44	54.79	1.9659	402.1037
6121	1509392121	54.5864	-110.6619	784.0	142.0	0.3	1.2	3.6	0.42	54.80	1.9679	401.2402
6122	1509392122	54.5870	-110.6619	784.9	142.9	0.1	1.7	3.5	0.40	54.81	1.9681	401.4398
6123	1509392123	54.5877	-110.6619	786.0	144.0	0.0	1.9	3.1	0.38	54.82	1.9677	401.3138
6124	1509392124	54.5883	-110.6619	787.0	144.5	0.2	1.6	2.7	0.36	54.86	1.9675	402.6992
6125	1509392125	54.5890	-110.6618	787.5	144.5	0.4	1.3	2.3	0.33	54.97	1.9672	400.9968
6126	1509392126	54.5896	-110.6618	788.1	145.1	0.6	1.0	2.5	0.31	55.12	1.9674	400.5586
6127	1509392127	54.5903	-110.6618	788.7	145.7	0.9	0.9	2.8	0.29	55.24	1.9685	401.4510
6128	1509392128	54.5909	-110.6617	789.5	147.4	0.5	1.3	2.8	0.26	55.34	1.9687	402.5200
6129	1509392129	54.5915	-110.6617	790.7	148.7	1.0	0.7	2.6	0.23	55.43	1.9692	401.5218
6130	1509392130	54.5921	-110.6617	791.8	149.8	0.0	2.1	2.5	0.21	55.47	1.9683	401.2022
6131	1509392131	54.5928	-110.6617	792.9	151.9	0.4	1.5	3.1	0.20	55.48	1.9688	401.6196
6132	1509392132	54.5935	-110.6616	794.1	153.1	0.1	2.1	3.3	0.19	55.48	1.9693	401.8637
6133	1509392133	54.5941	-110.6616	795.4	154.4	-0.1	2.6	3.2	0.17	55.46	1.9699	400.7312
6134	1509392134	54.5947	-110.6615	796.7	155.7	0.9	2.1	3.0	0.15	55.42	1.9709	401.7285
6135	1509392135	54.5954	-110.6615	798.4	157.4	1.6	2.1	2.7	0.13	55.39	1.9718	400.7944
6136	1509392136	54.5960	-110.6614	800.0	159.0	2.3	1.6	3.0	0.11	55.40	1.9706	400.7944
6137	1509392137	54.5967	-110.6613	801.2	160.2	3.4	0.9	3.2	0.09	55.43	1.9697	401.4220
6138	1509392138	54.5973	-110.6613	802.1	161.1	2.0	2.2	3.5	0.06	55.47	1.9716	400.9688
6139	1509392139	54.5979	-110.6612	802.9	161.9	2.9	1.4	3.4	0.04	55.53	1.9711	401.1125
6140	1509392140	54.5986	-110.6611	804.1	163.1	2.2	2.1	3.0	0.03	55.60	1.9721	400.5564
6141	1509392141	54.5992	-110.6611	805.1	163.4	2.9	1.1	2.9	0.03	55.64	1.9726	402.2284
6142	1509392142	54.5998	-110.6610	805.7	163.4	1.8	1.7	2.5	0.00	55.64	1.9722	401.5103
6143	1509392143	54.6005	-110.6609	806.5	163.5	0.4	2.5	2.4	-0.01	55.64	1.9692	402.2454
6144	1509392144	54.6011	-110.6609	807.4	162.4	0.6	1.7	2.2	-0.01	55.62	1.9719	401.6683
6145	1509392145	54.6017	-110.6609	807.7	162.1	1.0	0.9	2.7	-0.01	55.61	1.9724	401.0004
6146	1509392146	54.6024	-110.6608	808.2	161.1	-0.3	2.5	2.6	-0.04	55.61	1.9707	400.5018
6147	1509392147	54.6030	-110.6608	808.7	161.7	0.1	2.4	1.8	-0.05	55.63	1.9714	400.2470
6148	1509392148	54.6037	-110.6608	809.3	160.6	1.0	1.6	1.8	-0.08	55.66	1.9702	400.2470
6149	1509392149	54.6043	-110.6607	809.7	160.8	1.4	1.0	2.3	-0.09	55.67	1.9717	401.9799
6150	1509392150	54.6049	-110.6607	810.2	160.2	1.6	0.7	2.9	-0.11	55.68	1.9731	401.9799
6151	1509392151	54.6056	-110.6606	810.5	159.4	0.3	1.9	2.9	-0.11	55.70	1.9719	400.5320
6152	1509392152	54.6062	-110.6606	810.9	159.9	0.2	1.8	2.6	-0.13	55.73	1.9721	401.8292
6153	1509392153	54.6069	-110.6606	811.2	159.2	0.0	2.1	3.0	-0.13	55.74	1.9713	401.5997
6154	1509392154	54.6075	-110.6605	811.3	159.3	0.3	1.5	3.3	-0.13	55.74	1.9691	402.3799
6155	1509392155	54.6082	-110.6605	811.4	159.4	0.9	1.1	2.8	-0.14	55.76	1.9692	402.2025
6156	1509392156	54.6088	-110.6605	811.9	159.9	0.0	1.8	2.4	-0.15	55.85	1.9698	402.0672
6157	1509392157	54.6095	-110.6605	812.1	160.1	0.4	1.2	2.5	-0.16	55.98	1.9709	401.2082
6158	1509392158	54.6101	-110.6604	812.3	161.3	-0.1	1.6	2.6	-0.17	56.17	1.9729	401.5493
6159	1509392159	54.6108	-110.6604	812.1	161.4	0.5	1.1	2.8	-0.17	56.25	1.9747	402.1396
6160	1509392160	54.6113	-110.6604	811.7	161.7	-0.7	2.7	3.0	-0.18	56.29	1.9752	403.4585
6161	1509392161	54.6121	-110.6603	811.8	163.8	-0.5	2.6	2.8	-0.19	56.29	1.9749	401.1323
6162	1509392162	54.6127	-110.6603	811.3	164.2	-0.1	2.7	3.1	-0.21	56.31	1.9777	401.6578
6163	1509392163	54.6134	-110.6603	810.4	164.3	-0.4	3.2	3.3	-0.22	56.31	1.9770	401.3195
6164	1509392164	54.6140	-110.6602	810.0	165.0	0.2	2.9	3.1	-0.23	56.26	1.9763	400.3759
6165	1509392165	54.6147	-110.6602	810.2	165.2	0.3	3.1	3.0	-0.25	56.19	1.9768	401.4017
6166	1509392166	54.6153	-110.6601	810.0	164.0	1.3	2.2	2.9	-0.25	56.13	1.9763	402.0574
6167	1509392167	54.6160	-110.6601	809.5	163.1	0.9	2.7	2.9	-0.25	56.08	1.9750	402.3917
6168	1509392168	54.6167	-110.6600	808.5	161.5	0.7	2.9	2.7	-0.25	56.10	1.9769	402.1138
6169	1509392169	54.6174	-110.6599	806.7	159.1	1.8	1.5	2.4	-0.27	56.10	1.9785	401.2541
6170	1509392170	54.6180	-110.6599	805.6	157.6	1.5	1.7	2.4	-0.27	56.13	1.9803	401.6847
6171	1509392171	54.6187	-110.6598	804.6	156.6	0.9	1.7	2.4	-0.28	56.18	1.9818	401.4518
6172	1509392172	54.6194	-110.6598	802.9	155.0	0.5	2.0	2.3	-0.29	56.17	1.9788	401.8922
6173	1509392173	54.6200	-110.6598	801.5	152.5	-0.6	3.0	2.3	-0.29	56.17	1.9776	402.5171
6174	1509392174	54.6207	-110.6597	801.0	152.0	0.7	1.6	1.5	-0.29	56.17	1.9780	399.3796
6175	1509392175	54.6214	-110.6597	800.7	151.7	1.0	1.5	1.3	-0.29	56.19	1.9794	402.6012
6176	1509392176	54.6221	-110.6596	800.7	150.7	1.5	1.2	1.9	-0.29	56.25	1.9813	401.0826
6177	1509392177	54.6227	-110.6596	800.0	150.0	1.5	1.4	2.5	-0.29	56.27	1.9820	400.1382
6178	1509392178	54.6234	-110.6595	799.2	149.2	1.3	1.3	3.2	-0.29	56.27	1.9816	400.1382
6179	1509392179	54.6241	-110.6595	798.7	149.8	0.7	2.1	3.3	-0.29	56.23	1.9824	401.8575
6180	1509392180	54.6248	-110.6594	798.2	149.2	0.6	2.0	2.8	-0.29	56.14	1.9840	402.2165
6181	1509392181	54.6254	-110.6594	799.0	151.0	0.6	2.2	3.2	-0.29	56.06	1.9842	401.3047
6182	1509392182	54.6262	-110.6594	800.5	152.5	0.6	2.2	2.5	-0.29	56.00	1.9856	401.8261
6183	1509392183	54.6268	-110.6593	801.9	153.8	1.6	1.1	2.4	-0.29	55.95	1.9857	401.4470
6184	1509392184	54.6275	-110.6593	802.8	155.8	1.1	1.8	2.8	-0.29	55.91	1.9896	400.1859
6185	1509392185	54.6282	-110.6592	804.0	157.0	1.1	1.7	2.1	-0.29	55.88	1.9877	401.6005
6186	1509392186	54.6289	-110.6592	805.5	158.5	0.5	2.3	2.4	-0.29	55.86	1.9839	401.4559
6187	1509392187	54.6295	-110.6591	806.5	159.5	0.7	1.8	2.4	-0.29	55.84	1.9843	400.3167
6188	1509392188	54.6302	-110.6591	807.3	160.3	1.6	1.0	2.8	-0.29	55.82	1.9868	401.2717
6189	1509392189	54.6309	-110.6590	807.8	160.9	1.3	1.5	2.5	-0.29	55.81	1.9896	402.2864
6190	1509392190	54.6316	-110.6590	808.4	160.8	1.2	1.9	2.2	-0.27	55.79	1.9877	402.3526
6191	1509392191	54.6322	-110.6589	809.3	161.2	1.3	1.8	2.1	-0.27	55.79	1.9864	401.7471
6192	1509392192	54.6329	-110.6589	810.1	161.1	1.6	1.5	2.2	-0.27	55.81	1.9860	401.5775
6193	1509392193	54.6336	-110.6588	810.8	161.8	1.9	1.3	2.2	-0.27	55.87	1.9864	402.1995
6194	1509392194	54.6343	-110.6588	811.3	162.3	1.9	1.4	2.6	-0.27	55.97	1.9886	401.1499
6195	1509392195	54.6349	-110.6587	811.7	162.7	2.2	1.4	2.8	-0.27	56.05	1.9902	402.5526
6196	1509392196	54.6356	-110.6586	812.5	163.5	2.2	1.6	2.5	-0.28	56.10	1.9911	401.3513
6197	1509392197	54.6363	-110.6586	813.9	165.2	2.1	2.2	2.3	-0.29	56.11	1.9925	401.5351
6198	1509392198	54.6370	-110.6585	815.0	168.1	1.8	2.7	2.5	-0.29	56.10	1.9943	401.4300
6199	1509392199	54.6376	-110.6584	815.9	169.8	1.3	3.2	2.3	-0.29	56.07	1.9927	401.6440
6200	1509392200	54.6383	-110.6583	817.4	172.5	1.5	2.5	1.9	-0.28	56.04	1.9932	401.4634
6201	1509392201	54.6390	-110.6583	818.7	176.0	2.1	2.0	2.0	-0.26	56.03	1.9951	402.0100
6202	1509392202	54.6396	-110.6582	820.1	179.1	0.7	3.5	2.0	-0.26	56.03	1.9927	402.1357
6203	1509392203	54.6403	-110.6581	821.5	182.5	1.6	2.5	1.6	-0.26	56.01	1.9921	401.6380
6204	1509392204	54.6410	-110.6581	822.7	185.4	1.7	2.5	1.7	-0.26	55.96	1.9938	401.1918
6205	1509392205	54.6416	-110.6580	823.9	187.9	1.9	2.4	2.1	-0.28	55.92	1.9955	401.2910
6206	1509392206	54.6423	-110.6579	825.1	191.2	1.4	3.0	2.1	-0.26	55.91	1.9966	402.1872
6207	1509392207	54.6430	-110.6578	826.3	193.3	1.0	3.4	2.4	-0.27	55.90	1.9970	399.9494
6208	1509392208	54.6437	-110.6578	827.0	195.0	0.7	3.8	3.0	-0.28	55.84	1.9963	400.0635
6209	1509392209	54.6443	-110.6577	827.6	196.5	0.9	3.4	3.0	-0.29	55.70	1.9967	401.0019
6210	1509392210	54.6450	-110.6576	827.7	196.7	1.3	3.1	2.8	-0.30	55.58	1.9971	401.1814
6211	1509392211	54.6456	-110.6575	826.5	196.5	0.8	3.8	2.9	-0.30	55.50	1.9980	401.1814
6212	1509392212	54.6463	-110.6575	824.0	194.0	1.0	3.5	2.8	-0.30	55.46	1.9967	401.9655
6213	1509392213	54.6470	-110.6574	821.2	191.2	0.9	3.3	2.8	-0.31	55.44	1.9968	402.1131
6214	1509392214	54.6477	-110.6573	818.0	188.0	-0.2	3.7	2.8	-0.32	55.42	1.9977	400.6748
6215	1509392215	54.6484	-110.6573	814.9	184.9	358.8	3.9	3.3	-0.33	55.44	1.9958	399.4326
6216	1509392216	54.6491	-110.6573	812.5	182.5	358.4	3.7	3.2	-0.33	55.49	1.9969	401.8265
6217	1509392217	54.6498	-110.6572	811.1	181.1	359.0	2.6	2.9	-0.33	55.53	1.9964	403.0683
6218	1509392218	54.6504	-110.6572	811.2	181.2	358.5	3.3	2.9	-0.33	55.57	1.9973	402.4923
6219	1509392219	54.6511	-110.6572	811.4	180.4	358.4	3.7	2.9	-0.33	55.59	1.9982	401.7592
6220	1509392220	54.6518	-110.6572	811.5	180.5	359.0	3.5	2.4	-0.33	55.60	1.9987	401.7728
6221	1509392221	54.6525	-110.6571	811.9	180.9	0.4	2.0	1.8	-0.33	55.61	2.0001	400.4250
6222	1509392222	54.6532	-110.6571	812.8	180.8	0.9	1.6	1.8	-0.33	55.61	1.9998	401.9166
6223	1509392223	54.6539	-110.6570	813.3	180.2	1.4	1.1	1.9	-0.33	55.61	2.0008	402.4111
6224	1509392224	54.6546	-110.6570	814.0	181.0	1.8	1.0	2.4	-0.33	55.62	2.0000	401.0919
6225	1509392225	54.6553	-110.6569	814.3	180.7	1.0	2.4	2.8	-0.33	55.64	2.0006	401.2378
6226	1509392226	54.6560	-110.6569	814.4	179.9	0.9	3.0	3.0	-0.33	55.63	1.9996	402.1618
6227	1509392227	54.6567	-110.6568	814.2	179.3	0.8	3.7	3.2	-0.33	55.60	2.0015	402.3081
6228	1509392228	54.6574	-110.6567	813.2	177.2	0.9	3.6	3.0	-0.31	55.51	2.0020	402.1757
6229	1509392229	54.6581	-110.6567	810.6	174.1	1.3	2.8	3.0	-0.31	55.44	2.0012	400.6258
6230	1509392230	54.6588	-110.6566	808.9	171.9	1.2	2.3	2.7	-0.31	55.37	2.0000	401.3452
6231	1509392231	54.6595	-110.6565	807.0	169.0	0.1	3.0	2.6	-0.29	55.27	2.0004	402.2034
6232	1509392232	54.6602	-110.6565	805.5	167.5	-0.4	3.3	3.1	-0.29	55.14	2.0009	402.0967
6233	1509392233	54.6609	-110.6565	803.6	164.6	358.8	4.2	3.6	-0.29	54.94	2.0013	401.3091
6234	1509392234	54.6616	-110.6564	803.5	163.5	358.8	4.0	3.4	-0.28	54.79	2.0020	401.8843
6235	1509392235	54.6623	-110.6564	803.5	163.5	-0.3	3.0	2.8	-0.27	54.68	2.0028	402.3340
6236	1509392236	54.6630	-110.6563	804.3	163.3	-0.3	2.8	2.5	-0.27	54.64	2.0047	402.8128
6237	1509392237	54.6637	-110.6563	804.9	163.9	-0.3	3.2	2.2	-0.26	54.61	2.0041	402.5094
6238	1509392238	54.6644	-110.6563	805.3	163.3	0.4	2.3	1.6	-0.25	54.60	2.0046	402.9573
6239	1509392239	54.6651	-110.6562	805.4	162.4	1.1	2.0	1.3	-0.25	54.61	2.0047	400.2983
6240	1509392240	54.6659	-110.6562	806.1	164.1	1.4	1.9	1.4	-0.25	54.67	2.0054	402.1225
6241	1509392241	54.6666	-110.6561	806.1	164.1	1.4	2.2	2.0	-0.24	54.75	2.0057	403.6325
6242	1509392242	54.6673	-110.6560	806.0	164.2	1.1	2.4	2.4	-0.23	54.79	2.0032	401.5189
6243	1509392243	54.6680	-110.6560	805.8	164.8	1.1	2.8	2.4	-0.23	54.80	2.0042	400.8459
6244	1509392244	54.6687	-110.6559	806.3	165.3	0.8	3.1	2.8	-0.23	54.74	2.0032	401.1775
6245	1509392245	54.6694	-110.6558	806.8	166.8	2.2	1.7	2.2	-0.22	54.58	2.0052	401.6567
6246	1509392246	54.6701	-110.6558	807.2	168.2	1.4	3.0	2.5	-0.21	54.49	2.0071	402.1425
6247	1509392247	54.6708	-110.6557	807.2	168.2	1.2	3.2	2.1	-0.21	54.46	2.0066	402.0866
6248	1509392248	54.6715	-110.6556	807.1	168.1	2.2	2.1	2.7	-0.21	54.46	2.0061	402.6719
6249	1509392249	54.6722	-110.6555	807.5	168.5	1.5	2.5	3.0	-0.21	54.47	2.0040	403.3203
6250	1509392250	54.6729	-110.6555	808.6	169.6	0.4	3.2	2.9	-0.21	54.51	2.0030	402.8112
6251	1509392251	54.6736	-110.6554	808.5	169.5	0.4	2.7	2.5	-0.20	54.58	2.0038	401.6341
6252	1509392252	54.6743	-110.6554	808.1	168.1	-0.6	3.2	2.9	-0.19	54.63	2.0042	402.8677
6253	1509392253	54.6750	-110.6553	807.9	167.2	-0.3	2.2	3.0	-0.18	54.65	2.0039	402.6700
6254	1509392254	54.6757	-110.6553	807.1	165.8	0.0	1.5	3.1	-0.17	54.66	2.0045	402.1595
6255	1509392255	54.6764	-110.6553	806.9	163.9	359.2	2.0	3.1	-0.16	54.68	2.0024	401.9187
6256	1509392256	54.6771	-110.6553	806.9	162.9	-0.4	1.4	3.1	-0.17	54.70	2.0030	402.4476
6257	1509392257	54.6778	-110.6553	806.8	162.8	359.1	1.9	3.2	-0.16	54.75	2.0048	402.0342
6258	1509392258	54.6786	-110.6553	806.3	162.3	-0.1	1.3	2.8	-0.17	54.79	2.0036	402.8305
6259	1509392259	54.6793	-110.6552	805.6	161.6	0.8	1.3	2.8	-0.16	54.84	2.0022	401.6653
6260	1509392260	54.6800	-110.6552	806.1	162.1	1.2	1.5	3.1	-0.16	54.90	2.0016	401.6507
6261	1509392261	54.6807	-110.6551	806.1	162.1	1.6	1.6	3.2	-0.16	54.96	2.0022	401.3332
6262	1509392262	54.6814	-110.6551	805.6	161.6	0.5	3.1	3.3	-0.17	54.99	2.0026	401.3332
6263	1509392263	54.6821	-110.6550	805.0	161.0	0.6	3.0	3.0	-0.16	55.00	2.0047	401.6290
6264	1509392264	54.6828	-110.6550	804.7	160.7	0.7	2.9	2.8	-0.17	54.99	2.0033	402.8577
6265	1509392265	54.6835	-110.6549	804.3	160.3	1.3	2.1	2.9	-0.19	54.96	2.0020	402.4410
6266	1509392266	54.6842	-110.6548	804.0	161.0	1.2	2.5	3.0	-0.19	54.92	2.0022	402.3611
6267	1509392267	54.6849	-110.6548	804.2	161.5	1.2	2.5	3.3	-0.19	54.89	2.0039	402.2443
6268	1509392268	54.6856	-110.6547	804.0	163.0	1.2	2.8	3.2	-0.19	54.85	2.0036	401.5884
6269	1509392269	54.6863	-110.6546	803.7	163.7	0.7	3.3	3.0	-0.19	54.74	2.0038	401.8791
6270	1509392270	54.6870	-110.6546	803.8	164.8	1.2	2.7	2.6	-0.19	54.64	2.0033	402.1075
6271	1509392271	54.6877	-110.6545	803.4	165.4	1.4	2.4	2.6	-0.19	54.58	2.0035	402.1569
6272	1509392272	54.6885	-110.6544	802.5	165.5	1.5	1.9	2.4	-0.19	54.58	2.0014	401.3796
6273	1509392273	54.6892	-110.6544	802.3	166.3	1.5	1.5	2.9	-0.19	54.58	2.0038	402.3963
6274	1509392274	54.6899	-110.6543	801.9	165.9	0.7	2.2	3.4	-0.19	54.74	2.0033	402.1263
6275	1509392275	54.6906	-110.6543	801.3	165.3	0.3	2.6	3.4	-0.19	54.84	2.0061	403.4158
6276	1509392276	54.6913	-110.6542	800.7	164.0	0.1	3.0	3.4	-0.19	54.85	2.0057	402.4977
6277	1509392277	54.6920	-110.6542	799.5	162.5	0.5	2.8	3.1	-0.19	54.82	2.0065	402.3255
6278	1509392278	54.6927	-110.6541	797.7	160.7	0.7	2.8	3.3	-0.19	54.77	2.0067	403.1261
6279	1509392279	54.6934	-110.6541	795.4	158.4	0.8	2.9	3.0	-0.19	54.74	2.0068	400.9073
6280	1509392280	54.6941	-110.6540	793.3	156.3	0.9	2.8	2.7	-0.19	54.74	2.0069	402.2473
6281	1509392281	54.6948	-110.6540	791.9	155.0	1.2	2.4	2.9	-0.18	54.74	2.0060	403.2747
6282	1509392282	54.6956	-110.6539	791.1	155.1	1.2	2.2	3.0	-0.17	54.76	2.0064	402.1618
6283	1509392283	54.6963	-110.6538	789.6	153.6	1.6	2.1	3.0	-0.17	54.81	2.0066	402.1618
6284	1509392284	54.6970	-110.6538	788.9	151.9	1.5	2.6	3.0	-0.17	54.83	2.0058	401.5541
6285	1509392285	54.6977	-110.6537	788.4	151.4	2.3	1.6	3.0	-0.17	54.84	2.0069	402.2181
6286	1509392286	54.6984	-110.6536	788.0	151.0	2.5	1.7	3.1	-0.17	54.84	2.0062	403.6316
6287	1509392287	54.6992	-110.6535	787.5	150.5	2.7	1.2	3.2	-0.17	54.84	2.0057	400.3543
6288	1509392288	54.6999	-110.6535	787.0	150.0	2.1	1.9	3.1	-0.17	54.84	2.0055	402.1163
6289	1509392289	54.7006	-110.6534	787.0	150.0	1.7	2.1	2.6	-0.17	54.86	2.0049	400.9918
6290	1509392290	54.7013	-110.6533	787.4	149.8	1.8	1.9	2.3	-0.15	54.86	2.0052	402.6389
6291	1509392291	54.7020	-110.6533	788.5	149.5	1.9	1.5	2.1	-0.15	54.86	2.0090	401.9152
6292	1509392292	54.7028	-110.6532	789.8	149.9	1.8	1.4	2.1	-0.14	54.88	2.0081	401.2550
6293	1509392293	54.7035	-110.6531	790.1	148.2	1.2	2.1	2.4	-0.13	54.88	2.0057	402.2946
6294	1509392294	54.7042	-110.6531	789.8	147.7	1.0	2.0	2.5	-0.12	54.82	2.0082	401.8627
6295	1509392295	54.7049	-110.6530	789.3	147.3	0.6	1.8	2.1	-0.11	54.70	2.0101	402.1159
6296	1509392296	54.7056	-110.6530	788.9	147.2	0.2	1.7	2.2	-0.10	54.63	2.0119	402.3528
6297	1509392297	54.7063	-110.6530	788.4	147.4	-0.5	2.4	2.4	-0.09	54.60	2.0117	402.4728
6298	1509392298	54.7070	-110.6529	788.2	149.2	-0.6	2.3	2.6	-0.08	54.55	2.0083	402.4398
6299	1509392299	54.7077	-110.6529	788.3	149.3	359.3	2.3	2.8	-0.07	54.48	2.0094	402.4398
6300	1509392300	54.7084	-110.6529	788.3	150.3	-0.3	1.7	2.7	-0.07	54.45	2.0067	401.5613
6301	1509392301	54.7092	-110.6529	787.9	149.9	-0.5	1.7	2.8	-0.05	54.44	2.0100	402.1117
6302	1509392302	54.7099	-110.6529	787.6	150.6	-0.6	1.5	2.4	-0.05	54.45	2.0104	402.1885
6303	1509392303	54.7106	-110.6529	786.9	149.9	-0.5	1.5	2.5	-0.04	54.51	2.0076	400.5522
6304	1509392304	54.7113	-110.6529	786.5	149.5	358.6	2.3	2.6	-0.04	54.55	2.0060	402.6638
6305	1509392305	54.7120	-110.6528	786.8	150.8	-0.3	1.2	2.1	-0.04	54.58	2.0053	402.3798
6306	1509392306	54.7127	-110.6528	788.4	153.1	-0.5	1.6	2.0	-0.03	54.60	2.0080	402.2278
6307	1509392307	54.7134	-110.6528	789.5	155.4	0.7	0.6	2.2	-0.02	54.65	2.0086	401.5462
6308	1509392308	54.7141	-110.6528	789.7	157.0	-0.2	2.1	2.4	-0.02	54.68	2.0088	401.8426
6309	1509392309	54.7148	-110.6528	790.0	159.0	0.3	1.6	2.6	-0.02	54.69	2.0086	401.6716
6310	1509392310	54.7155	-110.6527	791.0	161.0	0.7	1.2	2.5	-0.02	54.67	2.0089	401.8825
6311	1509392311	54.7162	-110.6527	792.6	162.6	0.0	2.0	2.8	0.01	54.63	2.0087	402.6698
6312	1509392312	54.7169	-110.6527	794.4	164.4	0.2	1.8	2.9	0.03	54.58	2.0076	401.6883
6313	1509392313	54.7176	-110.6526	795.5	165.5	-0.1	2.1	2.7	0.01	54.54	2.0079	402.7896
6314	1509392314	54.7183	-110.6526	796.0	166.0	-0.1	2.0	3.0	0.01	54.54	2.0081	402.8701
6315	1509392315	54.7190	-110.6526	796.1	166.1	-0.2	2.1	2.6	0.01	54.54	2.0085	403.1610
6316	1509392316	54.7197	-110.6525	795.9	165.9	-0.2	2.2	2.6	0.02	54.55	2.0108	403.4033
6317	1509392317	54.7204	-110.6525	796.4	166.4	-0.2	2.1	2.6	0.02	54.60	2.0120	403.6813
6318	1509392318	54.7211	-110.6525	796.6	166.6	-0.2	2.2	2.5	0.02	54.62	2.0105	403.6813
6319	1509392319	54.7218	-110.6525	796.4	166.4	-0.5	2.4	2.4	0.00	54.65	2.0110	403.0476
6320	1509392320	54.7225	-110.6524	796.5	166.5	-0.6	2.3	2.4	0.00	54.68	2.0112	403.3329
6321	1509392321	54.7232	-110.6524	795.8	165.8	-0.5	2.0	2.0	0.00	54.68	2.0099	403.4858
6322	1509392322	54.7239	-110.6524	795.0	164.7	-0.6	1.7	2.0	0.00	54.67	2.0096	403.5149
6323	1509392323	54.7246	-110.6524	794.5	161.8	359.3	1.5	2.0	0.00	54.69	2.0099	402.9163
6324	1509392324	54.7253	-110.6524	793.7	158.3	359.1	1.5	2.1	0.00	54.69	2.0105	402.7211
6325	1509392325	54.7260	-110.6524	793.0	156.4	358.9	1.8	2.6	-0.01	54.71	2.0084	402.0997
6326	1509392326	54.7267	-110.6524	792.5	157.5	358.7	2.0	2.7	0.00	54.71	2.0075	403.6895
6327	1509392327	54.7274	-110.6524	791.6	161.6	-0.5	1.3	2.8	0.00	54.70	2.0066	402.6584
6328	1509392328	54.7281	-110.6523	790.6	160.6	0.0	1.1	2.9	0.00	54.72	2.0084	400.8880
6329	1509392329	54.7288	-110.6523	790.5	160.5	0.4	0.7	2.8	0.00	54.72	2.0091	402.6485
6330	1509392330	54.7295	-110.6523	790.7	160.7	0.2	1.1	2.4	0.00	54.72	2.0075	401.7152
6331	1509392331	54.7302	-110.6523	791.4	161.4	0.0	1.4	2.4	0.00	54.72	2.0065	402.6551
6332	1509392332	54.7309	-110.6523	792.3	162.3	0.6	0.7	2.6	0.01	54.72	2.0062	402.8461
6333	1509392333	54.7315	-110.6522	792.7	162.7	0.5	0.9	2.9	0.02	54.72	2.0040	403.3186
6334	1509392334	54.7323	-110.6522	792.2	162.2	1.0	0.2	3.1	0.02	54.75	2.0035	403.4587
6335	1509392335	54.7330	-110.6522	792.1	162.1	0.8	0.4	3.1	0.02	54.84	2.0038	402.5884
6336	1509392336	54.7336	-110.6522	792.4	162.4	0.3	0.8	3.4	0.02	55.00	2.0054	403.1723
6337	1509392337	54.7343	-110.6522	792.6	162.6	0.2	0.8	3.4	0.02	55.21	2.0068	402.5591
6338	1509392338	54.7350	-110.6521	793.0	163.0	-0.1	1.1	3.2	0.02	55.45	2.0088	403.3455
6339	1509392339	54.7357	-110.6521	792.9	162.9	-0.2	1.3	3.2	0.02	55.59	2.0145	404.0232
6340	1509392340	54.7364	-110.6521	793.3	163.3	-0.4	1.7	3.1	0.02	55.64	2.0175	402.3483
6341	1509392341	54.7371	-110.6521	793.5	163.5	-0.4	1.7	3.1	0.02	55.58	2.0147	402.3483
6342	1509392342	54.7378	-110.6521	794.0	160.0	-0.1	1.5	3.2	0.02	55.30	2.0127	403.3173
6343	1509392343	54.7385	-110.6520	795.1	159.0	0.2	1.2	3.5	0.02	55.05	2.0122	403.4964
6344	1509392344	54.7392	-110.6520	796.4	159.7	0.6	0.9	3.4	0.02	54.97	2.0126	403.1352
6345	1509392345	54.7399	-110.6520	797.8	160.8	0.3	1.4	3.3	0.02	54.99	2.0118	403.1352
6346	1509392346	54.7406	-110.6520	798.8	159.8	0.1	1.7	3.2	0.02	55.16	2.0099	403.9437
6347	1509392347	54.7413	-110.6519	799.8	157.5	0.2	1.9	3.1	0.03	55.29	2.0117	403.5270
6348	1509392348	54.7420	-110.6519	801.3	155.0	0.3	3.0	2.9	0.04	55.36	2.0125	403.6695
6349	1509392349	54.7427	-110.6518	802.9	155.6	3.1	2.9	1.6	0.04	55.38	2.0160	402.9844
6350	1509392350	54.7433	-110.6517	803.8	156.5	7.0	3.4	1.9	0.04	55.34	2.0156	403.0954
6351	1509392351	54.7440	-110.6514	804.4	156.5	13.1	2.8	1.8	0.04	55.21	2.0104	403.2195
6352	1509392352	54.7447	-110.6511	806.0	157.0	18.7	2.4	2.5	0.04	54.99	2.0109	403.5370
6353	1509392353	54.7453	-110.6506	808.3	160.2	22.7	2.6	2.7	0.04	54.98	2.0125	404.2550
6354	1509392354	54.7459	-110.6501	811.0	162.2	26.6	2.2	2.6	0.04	55.01	2.0145	403.6561
6355	1509392355	54.7465	-110.6495	814.0	164.0	29.1	2.8	2.5	0.04	55.06	2.0143	404.0975
6356	1509392356	54.7471	-110.6489	815.6	165.6	32.5	2.6	2.9	0.04	55.03	2.0152	405.1376
6357	1509392357	54.7477	-110.6483	817.2	167.5	36.3	2.6	2.8	0.04	54.95	2.0152	402.8745
6358	1509392358	54.7482	-110.6475	818.8	169.4	39.3	3.2	2.5	0.04	54.89	2.0132	403.0490
6359	1509392359	54.7487	-110.6467	820.0	171.2	42.3	3.1	2.7	0.04	54.85	2.0115	403.5067
6360	1509392360	54.7492	-110.6459	820.3	171.9	45.8	2.0	2.6	0.04	54.81	2.0105	402.3047
6361	1509392361	54.7496	-110.6451	821.1	173.1	47.8	2.4	1.5	0.04	54.82	2.0088	403.7772
6362	1509392362	54.7501	-110.6442	822.1	173.8	51.4	2.1	1.6	0.04	55.02	2.0088	402.4079
6363	1509392363	54.7505	-110.6433	822.2	174.0	54.5	2.1	1.8	0.04	55.28	2.0080	402.9509
6364	1509392364	54.7509	-110.6423	820.8	172.2	57.5	1.9	1.8	0.04	55.47	2.0070	402.8212
6365	1509392365	54.7512	-110.6413	819.8	169.7	60.7	1.6	1.7	0.04	55.64	2.0083	404.0809
6366	1509392366	54.7516	-110.6403	819.0	167.2	62.8	1.5	1.6	0.04	55.75	2.0080	403.2988
6367	1509392367	54.7519	-110.6392	818.4	165.9	64.8	1.4	2.3	0.03	55.83	2.0078	402.7980
6368	1509392368	54.7522	-110.6382	818.3	165.7	66.0	1.4	2.3	0.02	55.88	2.0080	402.3204
6369	1509392369	54.7524	-110.6371	818.4	164.6	66.1	1.8	1.6	0.01	55.90	2.0088	404.6876
6370	1509392370	54.7527	-110.6360	818.8	164.3	67.1	1.9	2.0	0.00	55.91	2.0107	403.4277
6371	1509392371	54.7530	-110.6349	818.9	164.0	67.4	2.4	1.6	0.00	55.91	2.0095	404.1207
6372	1509392372	54.7532	-110.6339	818.8	163.8	68.1	2.7	1.5	0.00	55.87	2.0095	403.5039
6373	1509392373	54.7535	-110.6328	818.6	162.7	69.3	2.8	1.7	0.00	55.78	2.0092	403.3868
6374	1509392374	54.7537	-110.6317	818.1	161.1	71.3	2.2	2.0	-0.03	55.68	2.0103	403.3390
6375	1509392375	54.7539	-110.6306	817.4	160.5	72.4	2.1	1.4	-0.04	55.62	2.0089	404.0211
6376	1509392376	54.7541	-110.6295	816.9	160.0	74.5	2.1	1.7	-0.04	55.58	2.0086	403.0860
6377	1509392377	54.7543	-110.6283	816.2	160.2	77.2	2.2	2.4	-0.05	55.57	2.0099	403.8657
6378	1509392378	54.7545	-110.6271	815.3	158.3	78.7	2.8	1.7	-0.07	55.56	2.0100	403.5119
6379	1509392379	54.7546	-110.6260	814.5	157.5	81.4	2.3	2.4	-0.06	55.55	2.0114	403.7673
6380	1509392380	54.7547	-110.6248	814.4	156.4	83.5	2.8	2.3	-0.06	55.53	2.0113	403.1393
6381	1509392381	54.7548	-110.6237	814.7	155.7	84.8	2.8	2.1	-0.06	55.49	2.0093	403.0393
6382	1509392382	54.7549	-110.6225	814.7	154.7	86.4	2.8	2.7	-0.06	55.42	2.0099	403.7057
6383	1509392383	54.7549	-110.6213	814.9	153.9	86.8	2.4	2.0	-0.07	55.33	2.0115	403.0598
6384	1509392384	54.7550	-110.6201	815.2	155.2	88.2	2.3	2.9	-0.07	55.25	2.0139	402.7640
6385	1509392385	54.7550	-110.6190	814.9	154.9	87.6	3.4	2.0	-0.07	55.20	2.0092	403.9470
6386	1509392386	54.7551	-110.6179	814.4	155.3	87.5	3.1	1.9	-0.08	55.15	2.0095	403.3401
6387	1509392387	54.7551	-110.6166	813.8	154.8	88.2	3.1	2.6	-0.10	55.10	2.0108	403.2588
6388	1509392388	54.7552	-110.6154	813.8	154.7	87.8	3.2	1.8	-0.10	55.07	2.0120	403.0376
6389	1509392389	54.7552	-110.6143	813.6	153.6	88.2	2.8	2.1	-0.11	55.03	2.0086	402.5297
6390	1509392390	54.7552	-110.6131	813.4	153.4	88.1	2.8	2.0	-0.11	55.01	2.0073	403.1229
6391	1509392391	54.7553	-110.6119	813.5	153.1	88.7	2.6	2.5	-0.10	55.00	2.0079	403.5131
6392	1509392392	54.7553	-110.6107	814.5	153.4	88.9	2.1	2.6	-0.11	54.97	2.0083	404.6264
6393	1509392393	54.7554	-110.6096	815.3	153.3	89.6	1.9	3.4	-0.10	54.95	2.0085	403.2671
6394	1509392394	54.7554	-110.6084	816.0	153.0	89.3	2.1	2.9	-0.10	54.92	2.0094	403.9765
6395	1509392395	54.7554	-110.6072	816.6	153.6	89.5	2.3	3.4	-0.11	54.89	2.0086	402.0634
6396	1509392396	54.7555	-110.6060	817.3	153.3	89.2	2.2	2.8	-0.11	54.82	2.0072	402.8339
6397	1509392397	54.7555	-110.6049	818.1	153.4	89.1	2.4	2.7	-0.11	54.75	2.0067	402.8861
6398	1509392398	54.7555	-110.6037	818.7	153.7	88.5	2.5	2.0	-0.11	54.72	2.0075	404.7214
6399	1509392399	54.7556	-110.6025	819.0	153.1	88.4	2.6	1.8	-0.11	54.72	2.0073	402.8336
6400	1509392400	54.7556	-110.6014	819.9	154.0	88.5	2.4	1.8	-0.11	54.80	2.0063	403.7932
6401	1509392401	54.7556	-110.6002	820.9	154.0	88.1	1.9	1.5	-0.11	54.93	2.0058	403.7932
6402	1509392402	54.7557	-110.5991	821.7	153.7	88.0	1.8	1.3	-0.11	55.03	2.0083	401.6856
6403	1509392403	54.7557	-110.5978	822.4	153.4	87.9	2.1	1.1	-0.11	55.12	2.0081	401.6856
6404	1509392404	54.7557	-110.5967	822.7	152.7	88.9	2.1	1.8	-0.11	55.18	2.0075	402.8578
6405	1509392405	54.7558	-110.5955	822.6	152.7	89.9	2.1	2.4	-0.11	55.18	2.0058	403.0394
6406	1509392406	54.7558	-110.5943	822.4	152.4	90.9	2.1	3.4	-0.11	55.18	2.0057	402.5357
6407	1509392407	54.7558	-110.5932	822.7	152.7	90.1	2.0	2.6	-0.11	55.18	2.0059	402.1615
6408	1509392408	54.7558	-110.5920	824.0	153.0	88.4	2.1	1.1	-0.11	55.16	2.0060	403.2647
6409	1509392409	54.7559	-110.5908	824.0	152.1	89.2	1.9	2.4	-0.12	55.16	2.0060	403.4373
6410	1509392410	54.7559	-110.5896	825.0	153.0	88.5	1.6	1.6	-0.12	55.16	2.0063	402.8273
6411	1509392411	54.7559	-110.5885	826.6	154.6	88.7	2.0	2.1	-0.12	55.16	2.0061	403.1011
6412	1509392412	54.7560	-110.5873	827.8	155.4	88.8	2.3	2.1	-0.12	55.17	2.0064	403.6476
6413	1509392413	54.7560	-110.5862	829.1	156.1	88.5	2.1	1.9	-0.12	55.18	2.0055	403.6476
6414	1509392414	54.7560	-110.5851	830.4	156.4	89.2	1.5	2.4	-0.12	55.18	2.0057	402.8598
6415	1509392415	54.7560	-110.5838	832.1	157.0	89.4	1.4	2.5	-0.12	55.17	2.0059	402.8598
6416	1509392416	54.7561	-110.5827	833.3	158.3	89.4	1.8	2.3	-0.12	55.15	2.0058	403.0170
6417	1509392417	54.7561	-110.5815	834.4	159.1	89.1	2.2	2.0	-0.12	55.14	2.0071	401.6268
6418	1509392418	54.7561	-110.5804	835.2	160.1	89.0	2.5	2.0	-0.13	55.14	2.0062	403.0975
6419	1509392419	54.7562	-110.5792	836.4	162.4	89.4	2.4	2.5	-0.13	55.14	2.0083	403.0975
6420	1509392420	54.7562	-110.5781	837.6	163.6	89.8	1.9	3.0	-0.13	55.16	2.0068	403.9447
6421	1509392421	54.7562	-110.5769	838.6	164.6	89.1	1.8	2.1	-0.13	55.16	2.0075	402.8867
6422	1509392422	54.7563	-110.5758	839.4	165.4	88.4	2.2	1.4	-0.14	55.17	2.0080	403.0229
6423	1509392423	54.7563	-110.5746	840.3	166.3	88.6	2.3	2.0	-0.15	55.21	2.0068	402.3548
6424	1509392424	54.7563	-110.5734	841.0	167.0	89.2	1.8	2.7	-0.15	55.26	2.0059	403.9593
6425	1509392425	54.7564	-110.5723	841.6	167.6	88.3	2.2	2.1	-0.15	55.31	2.0054	402.5083
6426	1509392426	54.7564	-110.5711	841.9	167.9	88.3	2.3	2.2	-0.15	55.35	2.0056	403.0758
6427	1509392427	54.7564	-110.5700	841.5	168.0	88.6	2.0	2.6	-0.15	55.37	2.0050	403.0758
6428	1509392428	54.7565	-110.5689	841.2	168.2	88.1	2.4	2.1	-0.16	55.39	2.0035	402.3226
6429	1509392429	54.7565	-110.5677	840.7	166.7	88.5	2.3	3.0	-0.16	55.41	2.0046	402.3642
6430	1509392430	54.7566	-110.5666	840.6	167.1	87.9	1.6	2.5	-0.15	55.45	2.0041	402.3642
6431	1509392431	54.7566	-110.5654	841.4	168.0	87.3	1.2	2.0	-0.17	55.49	2.0051	402.4081
6432	1509392432	54.7567	-110.5642	841.5	168.4	87.9	1.6	2.7	-0.16	55.52	2.0035	400.0773
6433	1509392433	54.7567	-110.5631	841.9	168.2	87.5	1.8	2.4	-0.17	55.52	2.0050	403.1270
6434	1509392434	54.7568	-110.5619	842.5	168.5	86.9	2.1	1.6	-0.17	55.51	2.0048	403.6660
6435	1509392435	54.7568	-110.5608	843.5	168.8	86.5	2.5	1.3	-0.16	55.50	2.0047	402.4019
6436	1509392436	54.7569	-110.5596	843.8	168.9	88.0	2.8	2.3	-0.17	55.49	2.0043	402.6478
6437	1509392437	54.7569	-110.5584	843.2	167.2	87.7	2.7	1.3	-0.16	55.47	2.0070	402.4153
6438	1509392438	54.7569	-110.5573	842.5	165.8	88.9	2.6	2.4	-0.17	55.47	2.0055	402.8957
6439	1509392439	54.7570	-110.5561	841.8	164.8	89.3	2.7	2.8	-0.19	55.46	2.0034	402.8597
6440	1509392440	54.7570	-110.5549	841.3	163.3	88.5	2.5	2.2	-0.20	55.46	2.0043	403.1497
6441	1509392441	54.7570	-110.5538	840.6	162.6	88.6	2.4	2.5	-0.22	55.45	2.0048	403.8711
6442	1509392442	54.7571	-110.5526	839.1	161.1	88.8	2.3	2.9	-0.23	55.39	2.0037	402.9083
6443	1509392443	54.7571	-110.5514	838.4	161.4	89.0	2.0	2.7	-0.23	55.32	2.0073	402.0964
6444	1509392444	54.7571	-110.5503	838.0	160.0	88.2	1.8	1.8	-0.23	55.31	2.0070	402.3985
6445	1509392445	54.7572	-110.5491	837.7	159.7	88.4	1.8	2.0	-0.23	55.30	2.0034	402.3855
6446	1509392446	54.7572	-110.5479	837.6	159.6	88.2	2.1	1.7	-0.23	55.36	2.0018	403.7310
6447	1509392447	54.7573	-110.5468	837.5	159.5	88.5	2.3	2.0	-0.23	55.46	2.0019	403.1110
6448	1509392448	54.7573	-110.5456	837.4	159.4	88.5	2.0	1.8	-0.25	55.53	2.0026	402.0199
6449	1509392449	54.7573	-110.5444	836.8	158.8	88.6	2.1	1.8	-0.25	55.59	2.0007	402.9218
6450	1509392450	54.7574	-110.5432	836.1	159.1	88.6	2.1	2.0	-0.25	55.61	2.0035	402.7281
6451	1509392451	54.7574	-110.5421	835.1	158.1	88.8	1.8	2.5	-0.25	55.63	2.0022	402.2622
6452	1509392452	54.7574	-110.5409	833.8	156.9	89.0	1.9	2.6	-0.25	55.65	2.0022	402.2458
6453	1509392453	54.7575	-110.5397	833.1	155.8	88.8	2.1	2.5	-0.25	55.65	2.0017	402.1495
6454	1509392454	54.7575	-110.5385	832.4	155.4	89.2	2.2	2.9	-0.26	55.65	2.0012	401.8348
6455	1509392455	54.7575	-110.5373	831.2	153.5	88.6	2.3	2.1	-0.27	55.65	2.0012	403.7738
6456	1509392456	54.7576	-110.5361	830.1	152.1	89.5	2.3	2.7	-0.27	55.65	2.0020	402.9999
6457	1509392457	54.7576	-110.5349	828.9	151.3	90.2	3.0	3.0	-0.27	55.63	2.0019	402.4877
6458	1509392458	54.7576	-110.5337	827.5	149.5	90.9	2.7	3.2	-0.27	55.61	2.0014	402.9898
6459	1509392459	54.7576	-110.5325	826.0	147.2	91.3	2.8	3.3	-0.28	55.59	2.0000	402.6356
6460	1509392460	54.7576	-110.5313	825.2	146.3	90.6	2.9	2.4	-0.29	55.59	2.0007	402.0509
6461	1509392461	54.7577	-110.5301	824.2	144.2	90.9	3.0	2.7	-0.29	55.57	2.0010	402.4406
6462	1509392462	54.7577	-110.5290	823.3	142.3	91.0	2.7	2.9	-0.29	55.54	2.0014	402.4406
6463	1509392463	54.7577	-110.5277	822.7	141.8	90.4	2.7	2.4	-0.29	55.50	2.0018	402.5885
6464	1509392464	54.7577	-110.5265	822.3	140.7	90.7	2.7	3.0	-0.29	55.47	2.0005	402.8312
6465	1509392465	54.7577	-110.5253	821.8	140.1	90.6	2.8	3.1	-0.29	55.45	2.0000	402.5944
6466	1509392466	54.7577	-110.5241	821.3	140.6	90.0	2.8	2.8	-0.29	55.38	2.0000	403.1525
6467	1509392467	54.7578	-110.5229	821.0	140.1	90.0	2.9	3.0	-0.29	55.28	2.0009	403.3722
6468	1509392468	54.7578	-110.5217	820.6	138.6	89.9	2.9	3.1	-0.29	55.17	2.0009	402.9527
6469	1509392469	54.7578	-110.5205	820.2	137.2	89.9	2.5	3.2	-0.29	55.07	2.0025	402.8803
6470	1509392470	54.7579	-110.5193	819.7	135.7	89.6	2.4	3.0	-0.28	54.96	2.0013	403.6374
6471	1509392471	54.7579	-110.5181	819.2	137.1	89.5	2.5	2.9	-0.27	54.87	2.0027	403.5824
6472	1509392472	54.7579	-110.5169	818.6	146.3	89.3	2.1	2.4	-0.27	54.81	2.0029	402.4238
6473	1509392473	54.7580	-110.5156	818.1	154.7	90.0	2.0	2.6	-0.27	54.80	2.0045	402.0349
6474	1509392474	54.7580	-110.5144	817.5	161.9	90.8	1.7	2.9	-0.27	54.80	2.0035	403.0207
6475	1509392475	54.7580	-110.5132	817.1	163.1	91.5	1.5	2.9	-0.26	54.80	2.0070	401.7385
6476	1509392476	54.7580	-110.5120	817.4	162.4	91.2	1.4	2.4	-0.25	54.80	2.0061	401.9243
6477	1509392477	54.7580	-110.5108	817.6	159.6	91.7	1.4	2.9	-0.24	54.80	2.0051	402.6989
6478	1509392478	54.7580	-110.5096	817.8	155.8	90.9	1.4	1.9	-0.23	54.80	2.0049	402.1995
6479	1509392479	54.7580	-110.5084	817.9	148.5	91.1	1.3	2.0	-0.21	54.78	2.0053	403.0241
6480	1509392480	54.7580	-110.5072	818.4	139.4	91.9	1.3	2.7	-0.20	54.73	2.0051	402.0515
6481	1509392481	54.7580	-110.5060	819.2	136.3	92.1	1.4	2.8	-0.21	54.66	2.0059	402.8651
6482	1509392482	54.7580	-110.5048	819.8	135.0	92.1	1.8	2.7	-0.19	54.60	2.0072	403.2019
6483	1509392483	54.7580	-110.5036	820.2	134.2	91.0	2.1	1.9	-0.18	54.57	2.0060	403.1698
6484	1509392484	54.7580	-110.5024	821.1	133.9	91.3	2.1	2.3	-0.20	54.56	2.0067	402.2033
6485	1509392485	54.7580	-110.5012	821.6	133.3	90.9	2.0	2.2	-0.21	54.58	2.0078	401.8174
6486	1509392486	54.7580	-110.4999	822.0	133.1	90.8	1.9	2.3	-0.19	54.58	2.0065	402.3471
6487	1509392487	54.7580	-110.4987	822.6	132.9	90.6	1.9	2.1	-0.19	54.57	2.0059	402.8667
6488	1509392488	54.7581	-110.4976	825.1	136.1	90.2	1.8	1.8	-0.18	54.53	2.0056	402.1791
6489	1509392489	54.7581	-110.4964	829.5	141.4	90.5	1.5	1.9	-0.17	54.51	2.0065	402.6597
6490	1509392490	54.7581	-110.4952	833.6	146.3	91.1	1.9	2.1	-0.17	54.47	2.0055	402.4080
6491	1509392491	54.7581	-110.4941	837.4	148.9	91.8	2.1	2.4	-0.17	54.46	2.0051	403.4365
6492	1509392492	54.7581	-110.4929	839.9	150.7	92.4	2.4	2.7	-0.17	54.46	2.0057	402.0935
6493	1509392493	54.7581	-110.4917	841.8	151.5	92.7	2.7	2.9	-0.17	54.47	2.0061	402.1877
6494	1509392494	54.7581	-110.4905	843.3	153.2	92.3	2.6	2.7	-0.17	54.49	2.0081	402.1873
6495	1509392495	54.7581	-110.4894	844.6	155.6	91.7	2.5	2.3	-0.17	54.51	2.0069	402.1717
6496	1509392496	54.7581	-110.4882	845.8	157.5	91.5	2.4	2.2	-0.17	54.59	2.0059	402.2945
6497	1509392497	54.7581	-110.4871	847.0	158.9	91.5	2.9	2.2	-0.17	54.66	2.0075	402.4037
6498	1509392498	54.7581	-110.4859	847.6	160.5	91.6	2.9	2.5	-0.17	54.73	2.0058	402.7524
6499	1509392499	54.7581	-110.4848	847.6	162.3	91.4	2.9	2.5	-0.17	54.75	2.0055	402.7024
6500	1509392500	54.7581	-110.4836	847.8	163.5	90.4	2.9	1.6	-0.19	54.83	2.0042	402.7902
6501	1509392501	54.7581	-110.4824	848.2	163.3	90.8	2.5	2.2	-0.19	54.90	2.0056	401.4091
6502	1509392502	54.7581	-110.4813	848.3	163.0	91.6	2.5	2.7	-0.19	54.98	2.0058	401.6596
6503	1509392503	54.7581	-110.4801	848.1	162.2	91.4	2.6	2.3	-0.21	55.00	2.0046	402.5134
6504	1509392504	54.7581	-110.4789	847.9	161.6	91.9	2.7	2.4	-0.21	55.02	2.0027	401.6436
6505	1509392505	54.7581	-110.4778	847.8	160.8	92.2	2.7	2.4	-0.23	55.05	2.0023	402.7216
6506	1509392506	54.7581	-110.4767	847.7	160.7	92.8	3.3	2.8	-0.25	55.08	2.0029	402.7254
6507	1509392507	54.7581	-110.4754	847.2	159.2	93.0	3.1	3.0	-0.27	55.09	2.0021	401.8756
6508	1509392508	54.7581	-110.4743	846.9	157.9	92.3	3.1	2.5	-0.29	55.10	2.0042	402.4463
6509	1509392509	54.7581	-110.4731	846.6	157.6	92.6	3.6	2.8	-0.30	55.09	2.0071	404.7151
6510	1509392510	54.7581	-110.4719	846.3	158.4	92.4	3.8	2.8	-0.31	55.08	2.0071	402.5630
6511	1509392511	54.7581	-110.4708	846.0	158.0	92.6	3.8	3.1	-0.31	55.08	2.0031	402.1879
6512	1509392512	54.7581	-110.4696	846.0	158.6	92.1	3.5	2.5	-0.32	55.08	2.0064	402.1879
6513	1509392513	54.7581	-110.4685	846.1	159.1	91.5	3.4	1.8	-0.33	55.10	2.0084	403.1347
6514	1509392514	54.7581	-110.4673	846.3	159.3	91.4	3.2	1.6	-0.33	55.10	2.0088	401.9615
6515	1509392515	54.7581	-110.4661	846.3	158.3	91.6	3.0	1.9	-0.33	55.12	2.0094	402.7392
6516	1509392516	54.7581	-110.4649	846.4	157.6	92.1	2.8	2.4	-0.34	55.16	2.0085	402.1514
6517	1509392517	54.7581	-110.4637	846.6	157.5	92.3	2.5	2.5	-0.35	55.20	2.0074	402.3646
6518	1509392518	54.7581	-110.4625	846.5	158.5	92.3	2.5	2.5	-0.35	55.22	2.0071	401.5657
6519	1509392519	54.7581	-110.4614	846.4	160.1	92.3	2.6	2.4	-0.35	55.25	2.0081	402.5368
6520	1509392520	54.7581	-110.4602	846.1	161.3	92.2	2.9	2.7	-0.35	55.26	2.0099	403.2698
6521	1509392521	54.7581	-110.4590	845.8	162.4	92.0	3.1	2.8	-0.35	55.27	2.0110	403.0993
6522	1509392522	54.7581	-110.4578	846.1	164.8	90.7	2.7	1.6	-0.35	55.32	2.0100	402.4909
6523	1509392523	54.7581	-110.4567	846.9	166.6	90.4	2.6	1.6	-0.35	55.42	2.0092	402.2873
6524	1509392524	54.7581	-110.4555	847.3	169.0	91.0	2.3	2.2	-0.37	55.52	2.0096	402.1386
6525	1509392525	54.7581	-110.4543	847.3	169.0	90.5	2.3	1.4	-0.37	55.57	2.0088	400.7121
6526	1509392526	54.7581	-110.4532	847.3	169.0	91.2	2.3	2.3	-0.37	55.60	2.0073	402.8093
6527	1509392527	54.7581	-110.4519	847.1	169.7	91.4	2.3	2.3	-0.37	55.60	2.0053	400.7189
6528	1509392528	54.7581	-110.4507	847.8	170.4	92.1	2.2	3.2	-0.37	55.60	2.0055	400.7189
6529	1509392529	54.7581	-110.4495	848.6	170.1	92.2	2.2	3.4	-0.36	55.59	2.0062	402.3182
6530	1509392530	54.7581	-110.4484	849.2	169.9	91.6	2.5	2.5	-0.34	55.57	2.0064	402.9990
6531	1509392531	54.7581	-110.4472	850.1	169.7	91.5	1.9	2.1	-0.35	55.55	2.0049	402.0393
6532	1509392532	54.7581	-110.4460	850.5	171.2	91.4	1.9	2.1	-0.35	55.54	2.0054	403.5559
6533	1509392533	54.7581	-110.4449	850.0	174.4	91.8	2.0	2.6	-0.34	55.55	2.0052	402.8272
6534	1509392534	54.7581	-110.4437	848.9	176.5	91.7	2.2	2.7	-0.35	55.56	2.0028	402.3491
6535	1509392535	54.7581	-110.4425	848.0	177.0	91.5	2.2	2.5	-0.37	55.58	1.9994	402.6650
6536	1509392536	54.7582	-110.4413	847.3	176.0	91.1	1.9	2.1	-0.38	55.60	1.9980	402.5523
6537	1509392537	54.7582	-110.4401	846.6	174.3	91.8	1.5	2.9	-0.39	55.61	1.9992	402.2986
6538	1509392538	54.7582	-110.4389	846.2	174.2	91.5	1.4	2.7	-0.39	55.60	2.0001	402.4703
6539	1509392539	54.7582	-110.4378	846.2	175.8	91.7	1.4	3.1	-0.39	55.62	2.0003	402.6849
6540	1509392540	54.7582	-110.4366	845.8	177.4	91.6	1.5	2.7	-0.39	55.62	1.9991	401.9664
6541	1509392541	54.7582	-110.4354	845.8	179.1	90.9	1.5	1.7	-0.39	55.63	1.9998	401.9429
6542	1509392542	54.7582	-110.4342	846.2	181.7	90.9	2.0	1.4	-0.39	55.65	1.9991	402.3480
6543	1509392543	54.7582	-110.4330	846.0	184.7	91.1	2.1	1.4	-0.39	55.63	1.9973	401.3661
6544	1509392544	54.7582	-110.4318	846.0	187.7	91.6	1.8	2.1	-0.39	55.63	1.9960	402.5658
6545	1509392545	54.7582	-110.4306	846.4	190.2	91.6	1.6	2.1	-0.39	55.62	1.9982	402.1187
6546	1509392546	54.7582	-110.4295	846.8	193.4	91.8	1.5	2.4	-0.39	55.58	1.9973	401.9069
6547	1509392547	54.7582	-110.4283	846.7	196.5	92.0	1.6	2.5	-0.39	55.53	1.9964	402.0514
6548	1509392548	54.7582	-110.4271	846.3	198.2	92.1	1.6	2.5	-0.39	55.48	1.9961	402.0514
6549	1509392549	54.7582	-110.4259	846.0	199.7	92.0	1.9	2.4	-0.39	55.46	1.9964	402.0709
6550	1509392550	54.7582	-110.4247	845.8	199.5	91.3	2.2	1.7	-0.39	55.46	1.9964	400.8948
6551	1509392551	54.7582	-110.4235	844.7	198.4	91.4	2.4	1.9	-0.39	55.46	1.9969	402.5181
6552	1509392552	54.7582	-110.4223	842.0	196.1	91.6	2.6	2.4	-0.39	55.46	1.9958	402.2865
6553	1509392553	54.7582	-110.4211	838.2	192.9	91.4	2.6	2.3	-0.39	55.48	1.9977	402.2865
6554	1509392554	54.7582	-110.4199	834.3	189.2	91.3	2.7	2.2	-0.39	55.48	1.9956	402.9875
6555	1509392555	54.7582	-110.4187	831.0	186.6	92.2	3.1	2.9	-0.39	55.46	1.9955	403.2373
6556	1509392556	54.7582	-110.4175	828.6	183.5	91.9	3.2	2.5	-0.39	55.43	1.9951	401.3249
6557	1509392557	54.7582	-110.4163	827.0	182.0	92.0	3.0	2.9	-0.39	55.31	1.9955	401.3249
6558	1509392558	54.7582	-110.4150	824.8	179.8	91.9	3.0	2.8	-0.39	55.15	1.9930	402.2945
6559	1509392559	54.7582	-110.4138	822.2	177.1	91.9	3.0	3.1	-0.39	55.00	1.9931	402.5507
6560	1509392560	54.7582	-110.4126	820.2	175.9	90.8	3.4	1.9	-0.39	54.91	1.9914	402.4919
6561	1509392561	54.7582	-110.4113	819.5	175.4	90.2	2.9	1.4	-0.39	54.86	1.9929	402.4137
6562	1509392562	54.7582	-110.4101	819.2	175.9	91.5	2.6	2.6	-0.38	54.81	1.9914	402.7067
6563	1509392563	54.7582	-110.4088	819.2	177.8	91.1	3.1	1.9	-0.36	54.79	1.9921	402.0586
6564	1509392564	54.7582	-110.4076	819.2	179.9	91.6	3.0	2.3	-0.34	54.78	1.9926	402.2534
6565	1509392565	54.7582	-110.4064	819.0	182.7	91.8	3.0	2.3	-0.33	54.75	1.9922	402.4232
6566	1509392566	54.7582	-110.4051	818.7	184.5	91.9	3.0	2.3	-0.32	54.70	1.9930	402.6719
6567	1509392567	54.7582	-110.4039	818.4	185.3	91.8	3.5	2.3	-0.31	54.62	1.9909	402.5725
6568	1509392568	54.7582	-110.4027	818.1	186.1	92.2	3.5	2.7	-0.30	54.50	1.9893	402.5939
6569	1509392569	54.7582	-110.4014	817.5	185.5	92.5	3.4	3.1	-0.29	54.39	1.9896	400.5919
6570	1509392570	54.7582	-110.4002	817.3	185.3	92.8	2.9	3.5	-0.29	54.31	1.9908	402.6444
6571	1509392571	54.7582	-110.3990	817.3	185.3	92.7	2.3	3.4	-0.28	54.24	1.9899	402.0818
6572	1509392572	54.7582	-110.3978	817.1	184.1	92.1	2.5	2.6	-0.27	54.19	1.9893	403.0634
6573	1509392573	54.7582	-110.3966	817.4	183.4	91.7	2.5	2.0	-0.26	54.11	1.9906	403.0634
6574	1509392574	54.7582	-110.3953	817.5	181.5	92.2	2.9	2.6	-0.25	54.02	1.9913	401.6331
6575	1509392575	54.7582	-110.3941	816.5	177.6	91.8	3.1	1.9	-0.23	53.96	1.9926	401.6331
6576	1509392576	54.7582	-110.3928	814.3	172.3	92.3	3.4	2.6	-0.22	53.93	1.9907	402.0148
6577	1509392577	54.7582	-110.3916	811.8	166.8	91.7	3.2	1.9	-0.20	53.91	1.9899	402.0131
6578	1509392578	54.7582	-110.3904	810.0	164.0	91.4	2.9	2.0	-0.18	53.91	1.9891	402.0371
6579	1509392579	54.7582	-110.3891	808.2	163.2	92.5	2.8	3.1	-0.18	53.90	1.9881	403.5775
6580	1509392580	54.7582	-110.3879	807.5	162.5	91.6	2.4	2.1	-0.15	53.88	1.9894	402.4949
6581	1509392581	54.7582	-110.3867	806.5	160.5	92.6	2.3	3.4	-0.14	53.84	1.9894	402.7747
6582	1509392582	54.7582	-110.3855	805.4	159.4	91.6	2.4	2.2	-0.14	53.81	1.9893	401.9393
6583	1509392583	54.7582	-110.3842	804.2	157.2	92.1	2.3	2.9	-0.14	53.82	1.9886	401.0417
6584	1509392584	54.7582	-110.3830	804.1	157.1	91.7	1.9	2.6	-0.12	53.80	1.9881	402.0550
6585	1509392585	54.7582	-110.3817	804.1	157.1	91.4	2.2	2.5	-0.10	53.76	1.9877	402.1475
6586	1509392586	54.7582	-110.3805	803.3	157.3	91.6	2.3	2.8	-0.10	53.70	1.9881	401.6472
6587	1509392587	54.7582	-110.3793	802.3	156.3	91.0	2.0	2.2	-0.08	53.65	1.9870	402.4797
6588	1509392588	54.7582	-110.3780	801.6	154.6	90.9	2.2	2.0	-0.07	53.58	1.9871	401.7645
6589	1509392589	54.7582	-110.3767	801.2	154.2	90.9	2.5	2.2	-0.05	53.51	1.9869	398.9407
6590	1509392590	54.7582	-110.3755	800.8	152.8	90.9	2.7	2.1	-0.03	53.45	1.9848	402.6009
6591	1509392591	54.7582	-110.3742	800.0	152.3	91.5	2.9	2.6	-0.02	53.36	1.9823	402.3920
6592	1509392592	54.7583	-110.3731	799.8	152.8	91.9	2.5	3.2	-0.02	53.26	1.9841	402.6091
6593	1509392593	54.7583	-110.3718	799.6	152.7	91.9	1.7	3.3	-0.01	53.21	1.9865	403.1625
6594	1509392594	54.7583	-110.3706	799.3	153.3	91.6	1.8	2.9	-0.01	53.20	1.9848	403.1625
6595	1509392595	54.7583	-110.3693	799.3	153.3	91.4	2.2	2.7	0.01	53.20	1.9851	401.7367
6596	1509392596	54.7583	-110.3680	799.5	153.5	91.4	1.9	2.7	0.02	53.18	1.9860	401.7367
6597	1509392597	54.7583	-110.3668	799.5	153.5	92.3	1.4	3.8	0.03	53.12	1.9858	402.8868
6598	1509392598	54.7583	-110.3656	799.8	153.8	91.1	1.2	2.4	0.04	53.08	1.9851	401.8670
6599	1509392599	54.7583	-110.3644	801.1	154.2	91.0	1.2	2.3	0.06	53.06	1.9846	401.7225
6600	1509392600	54.7583	-110.3632	801.2	152.8	91.3	1.6	2.6	0.08	53.05	1.9835	403.0935
6601	1509392601	54.7583	-110.3619	801.0	151.0	91.6	2.0	2.9	0.11	53.03	1.9847	401.5908
6602	1509392602	54.7583	-110.3607	801.6	150.6	91.1	1.9	2.3	0.12	53.00	1.9831	401.3413
6603	1509392603	54.7583	-110.3594	802.2	151.2	91.1	2.3	2.2	0.14	52.94	1.9819	402.6506
6604	1509392604	54.7583	-110.3582	803.4	151.5	91.0	2.2	2.2	0.14	52.84	1.9821	401.9572
6605	1509392605	54.7583	-110.3570	804.5	153.5	91.1	1.5	2.5	0.16	52.73	1.9811	402.0499
6606	1509392606	54.7584	-110.3558	805.9	155.9	91.1	1.3	2.4	0.18	52.64	1.9813	401.5031
6607	1509392607	54.7584	-110.3546	807.3	158.3	91.6	1.5	3.1	0.19	52.57	1.9821	402.7554
6608	1509392608	54.7584	-110.3534	808.6	160.4	91.3	1.9	2.6	0.20	52.50	1.9805	402.2712
6609	1509392609	54.7584	-110.3522	809.4	161.4	90.9	1.8	2.1	0.20	52.47	1.9809	402.4128
6610	1509392610	54.7584	-110.3509	810.7	162.7	90.8	1.6	2.1	0.20	52.49	1.9792	401.8858
6611	1509392611	54.7584	-110.3498	811.9	163.8	91.3	1.5	2.8	0.20	52.51	1.9789	402.5594
6612	1509392612	54.7584	-110.3486	812.2	164.1	91.4	1.4	2.7	0.20	52.57	1.9794	403.3692
6613	1509392613	54.7584	-110.3474	812.7	164.6	90.5	1.7	1.7	0.22	52.65	1.9762	403.0880
6614	1509392614	54.7584	-110.3462	813.0	165.0	90.7	1.8	1.6	0.22	52.81	1.9759	402.5578
6615	1509392615	54.7584	-110.3450	813.7	164.8	90.4	1.7	1.2	0.22	52.98	1.9760	403.3225
6616	1509392616	54.7584	-110.3437	814.2	165.2	91.2	1.7	2.3	0.22	53.07	1.9766	403.3225
6617	1509392617	54.7584	-110.3426	814.1	165.1	91.3	1.7	2.2	0.22	53.13	1.9763	402.9997
6618	1509392618	54.7584	-110.3414	813.8	163.7	91.7	1.7	2.6	0.22	53.17	1.9767	402.2226
6619	1509392619	54.7584	-110.3402	813.6	163.8	92.1	2.0	2.5	0.22	53.21	1.9776	402.5233
6620	1509392620	54.7584	-110.3390	813.3	164.3	91.7	2.0	2.1	0.21	53.24	1.9775	403.6597
6621	1509392621	54.7584	-110.3378	812.6	163.6	91.9	1.9	2.5	0.20	53.28	1.9770	402.8250
6622	1509392622	54.7584	-110.3366	811.6	162.6	91.0	1.9	1.5	0.20	53.32	1.9782	402.0955
6623	1509392623	54.7584	-110.3354	811.1	162.1	90.3	2.2	0.4	0.20	53.37	1.9754	402.9133
6624	1509392624	54.7584	-110.3342	810.7	161.7	91.2	2.6	1.0	0.20	53.42	1.9743	403.4457
6625	1509392625	54.7584	-110.3330	810.0	160.0	93.0	2.8	2.7	0.20	53.50	1.9756	403.0640
6626	1509392626	54.7584	-110.3318	809.3	159.3	91.7	2.6	1.3	0.20	53.59	1.9759	402.8277
6627	1509392627	54.7584	-110.3306	809.1	158.1	92.1	2.2	2.2	0.20	53.65	1.9767	402.6164
6628	1509392628	54.7584	-110.3294	808.8	157.7	91.9	2.2	2.1	0.18	53.67	1.9766	403.6326
6629	1509392629	54.7584	-110.3282	808.4	157.3	91.8	2.4	2.3	0.18	53.68	1.9768	403.0111
6630	1509392630	54.7584	-110.3270	808.1	157.1	92.1	2.8	2.7	0.17	53.66	1.9768	403.0594
6631	1509392631	54.7584	-110.3257	808.0	157.0	91.1	2.6	1.7	0.17	53.64	1.9766	403.3023
6632	1509392632	54.7584	-110.3245	808.0	157.0	91.2	2.3	1.0	0.17	53.60	1.9768	403.0585
6633	1509392633	54.7584	-110.3234	807.4	156.4	92.4	2.7	0.4	0.16	53.59	1.9775	403.7902
6634	1509392634	54.7584	-110.3221	806.3	155.3	97.7	2.6	1.3	0.16	53.58	1.9762	403.3495
6635	1509392635	54.7582	-110.3210	806.6	156.5	102.5	2.4	1.0	0.16	53.56	1.9769	403.5756
6636	1509392636	54.7581	-110.3198	807.5	157.5	107.2	2.9	1.8	0.18	53.57	1.9756	403.2423
6637	1509392637	54.7579	-110.3187	808.5	159.5	110.4	3.0	2.7	0.18	53.59	1.9783	402.7327
6638	1509392638	54.7577	-110.3175	809.8	161.8	111.0	3.0	3.1	0.16	53.61	1.9790	401.6667
6639	1509392639	54.7575	-110.3164	810.4	163.5	109.4	2.9	3.3	0.16	53.62	1.9798	401.9120
6640	1509392640	54.7573	-110.3153	811.0	164.0	104.5	2.9	2.5	0.16	53.61	1.9772	402.5685
6641	1509392641	54.7572	-110.3141	812.0	164.0	99.7	2.8	2.4	0.15	53.57	1.9772	403.1188
6642	1509392642	54.7571	-110.3129	813.1	165.1	95.9	2.6	2.0	0.16	53.51	1.9757	403.9620
6643	1509392643	54.7571	-110.3118	813.4	166.4	93.0	2.0	0.8	0.16	53.49	1.9766	403.9620
6644	1509392644	54.7570	-110.3106	814.0	167.0	92.9	1.8	2.2	0.13	53.49	1.9766	403.0978
6645	1509392645	54.7570	-110.3094	815.7	168.7	92.2	2.0	2.2	0.12	53.52	1.9761	404.2663
6646	1509392646	54.7570	-110.3082	818.0	172.0	91.4	1.8	1.8	0.11	53.58	1.9772	403.5314
6647	1509392647	54.7570	-110.3070	819.4	175.4	90.7	2.2	1.3	0.12	53.63	1.9754	403.2294
6648	1509392648	54.7570	-110.3059	819.2	176.2	90.4	2.8	1.3	0.12	53.70	1.9751	402.3603
6649	1509392649	54.7571	-110.3047	818.3	177.3	89.0	3.4	0.3	0.11	53.75	1.9740	403.1867
6650	1509392650	54.7571	-110.3035	818.0	179.1	88.1	3.6	0.3	0.11	53.75	1.9744	403.3251
6651	1509392651	54.7571	-110.3023	818.3	181.9	88.2	3.3	0.6	0.12	53.59	1.9750	403.4869
6652	1509392652	54.7571	-110.3012	818.0	185.0	89.0	3.1	1.5	0.12	53.50	1.9739	404.1963
6653	1509392653	54.7572	-110.3000	817.9	189.7	89.1	2.5	1.7	0.12	53.46	1.9751	404.7162
6654	1509392654	54.7572	-110.2988	818.3	192.3	89.9	2.0	2.3	0.12	53.47	1.9748	404.3622
6655	1509392655	54.7572	-110.2976	818.9	194.9	89.2	2.0	0.1	0.11	53.50	1.9765	403.8361
6656	1509392656	54.7572	-110.2964	818.9	196.6	92.1	2.0	0.9	0.10	53.60	1.9753	404.7520
6657	1509392657	54.7572	-110.2953	817.9	195.9	97.6	2.8	2.2	0.09	53.68	1.9750	403.5616
6658	1509392658	54.7571	-110.2941	817.4	195.8	100.5	3.1	0.1	0.09	53.73	1.9761	405.5092
6659	1509392659	54.7569	-110.2929	817.6	195.5	106.6	2.7	0.0	0.09	53.74	1.9756	404.9387
6660	1509392660	54.7567	-110.2919	818.4	195.4	113.1	1.8	-0.6	0.09	53.74	1.9755	405.3643
6661	1509392661	54.7564	-110.2908	819.2	195.4	120.3	1.3	-0.1	0.10	53.76	1.9761	406.8781
6662	1509392662	54.7560	-110.2899	818.5	192.6	128.3	1.7	0.6	0.10	53.78	1.9767	404.5329
6663	1509392663	54.7556	-110.2890	816.0	187.7	135.4	1.8	1.3	0.09	53.80	1.9783	405.5029
6664	1509392664	54.7551	-110.2882	811.5	181.0	142.4	1.5	1.6	0.09	53.81	1.9779	405.2293
6665	1509392665	54.7546	-110.2876	805.8	174.0	149.1	1.1	0.9	0.09	53.81	1.9779	407.2029
6666	1509392666	54.7540	-110.2870	799.6	167.6	157.0	1.2	0.9	0.10	53.80	1.9803	407.2029
6667	1509392667	54.7534	-110.2866	794.2	162.6	164.4	1.5	1.1	0.10	53.80	1.9784	406.9091
6668	1509392668	54.7527	-110.2864	789.9	161.9	170.6	0.8	1.0	0.09	53.82	1.9773	407.1502
6669	1509392669	54.7521	-110.2862	786.3	161.0	175.9	0.6	1.3	0.09	53.82	1.9778	408.8084
6670	1509392670	54.7514	-110.2862	782.6	160.3	181.7	1.2	1.4	0.09	53.82	1.9767	408.8084
6671	1509392671	54.7507	-110.2863	780.6	160.1	185.6	2.0	1.5	0.10	53.82	1.9765	406.3116
6672	1509392672	54.7500	-110.2864	778.6	159.1	186.0	1.4	1.5	0.09	53.77	1.9766	406.6280
6673	1509392673	54.7494	-110.2865	776.3	158.1	186.9	1.9	1.6	0.10	53.68	1.9769	406.6280
6674	1509392674	54.7487	-110.2866	774.2	156.4	187.1	1.9	1.4	0.10	53.57	1.9744	409.5356
6675	1509392675	54.7481	-110.2867	773.2	154.4	187.5	2.7	1.7	0.10	53.42	1.9731	408.1749
6676	1509392676	54.7473	-110.2868	772.8	153.9	186.4	2.3	2.0	0.11	53.28	1.9730	406.9866
6677	1509392677	54.7467	-110.2869	773.1	154.1	184.7	1.6	1.6	0.13	53.18	1.9730	406.4585
6678	1509392678	54.7460	-110.2870	773.2	154.2	183.6	1.5	1.6	0.15	53.10	1.9723	406.5857
6679	1509392679	54.7453	-110.2870	772.4	153.4	183.1	1.7	1.5	0.17	53.05	1.9705	405.7459
6680	1509392680	54.7446	-110.2870	771.3	153.3	182.7	1.8	1.4	0.17	52.98	1.9728	405.8152
6681	1509392681	54.7439	-110.2871	770.5	152.4	182.5	2.0	1.9	0.19	52.91	1.9703	406.1164
6682	1509392682	54.7432	-110.2871	770.3	152.3	181.7	1.1	2.2	0.20	52.85	1.9714	406.1164
6683	1509392683	54.7425	-110.2871	770.5	152.5	182.3	1.7	2.3	0.21	52.80	1.9714	406.0894
6684	1509392684	54.7419	-110.2871	770.8	153.1	182.3	1.6	2.1	0.22	52.76	1.9727	404.6762
6685	1509392685	54.7412	-110.2872	771.4	154.4	182.6	1.9	2.1	0.23	52.73	1.9706	405.4241
6686	1509392686	54.7405	-110.2872	771.9	155.9	183.1	2.2	2.3	0.24	52.71	1.9697	405.0774
6687	1509392687	54.7398	-110.2872	772.9	156.9	183.2	1.8	2.6	0.24	52.71	1.9697	405.0362
6688	1509392688	54.7392	-110.2873	773.6	157.6	183.3	1.5	2.7	0.25	52.68	1.9713	405.3367
6689	1509392689	54.7385	-110.2873	773.6	156.5	184.3	2.2	2.5	0.26	52.64	1.9721	404.3943
6690	1509392690	54.7378	-110.2874	773.7	155.7	184.8	2.3	2.3	0.26	52.61	1.9710	406.0129
6691	1509392691	54.7372	-110.2874	773.8	154.8	184.9	2.1	2.5	0.26	52.58	1.9701	405.5073
6692	1509392692	54.7365	-110.2875	773.9	155.5	185.2	2.3	2.5	0.25	52.57	1.9709	405.4649
6693	1509392693	54.7358	-110.2876	774.1	156.1	185.3	2.3	2.5	0.25	52.56	1.9721	404.9209
6694	1509392694	54.7352	-110.2877	774.5	156.6	185.7	2.8	2.7	0.26	52.54	1.9705	406.0979
6695	1509392695	54.7345	-110.2877	775.6	157.5	185.0	2.1	2.9	0.27	52.53	1.9693	405.1385
6696	1509392696	54.7338	-110.2878	776.7	159.7	185.2	2.8	2.9	0.28	52.53	1.9698	404.8487
6697	1509392697	54.7332	-110.2879	777.0	160.0	184.8	2.6	2.6	0.28	52.53	1.9687	405.2111
6698	1509392698	54.7325	-110.2879	777.2	161.2	184.4	2.5	2.6	0.29	52.51	1.9705	403.9820
6699	1509392699	54.7318	-110.2880	777.3	162.2	184.5	2.7	2.3	0.30	52.48	1.9707	403.9820
6700	1509392700	54.7312	-110.2880	777.6	163.6	184.3	2.5	2.3	0.29	52.44	1.9705	405.9664
6701	1509392701	54.7305	-110.2881	778.2	164.2	184.1	2.2	2.5	0.30	52.41	1.9680	405.6471
6702	1509392702	54.7299	-110.2881	779.2	165.2	183.8	1.7	2.1	0.30	52.39	1.9669	405.1311
6703	1509392703	54.7292	-110.2882	779.4	165.4	183.7	1.6	2.3	0.30	52.40	1.9681	405.1311
6704	1509392704	54.7286	-110.2882	779.4	165.3	184.1	1.9	2.2	0.29	52.46	1.9670	404.0921
6705	1509392705	54.7279	-110.2883	780.3	165.3	183.5	1.3	1.9	0.28	52.58	1.9659	404.2109
6706	1509392706	54.7273	-110.2883	780.8	166.0	184.1	2.3	2.3	0.27	52.68	1.9661	405.3904
6707	1509392707	54.7266	-110.2884	781.2	165.2	184.6	2.7	2.4	0.28	52.72	1.9664	405.1981
6708	1509392708	54.7259	-110.2884	781.7	165.7	183.8	1.9	2.5	0.28	52.74	1.9659	405.8063
6709	1509392709	54.7253	-110.2885	782.1	166.1	184.1	2.2	2.1	0.28	52.74	1.9662	404.1173
6710	1509392710	54.7247	-110.2885	782.5	166.5	183.2	1.0	2.0	0.28	52.76	1.9658	404.4819
6711	1509392711	54.7240	-110.2886	782.5	166.5	183.8	1.7	2.1	0.28	52.75	1.9655	403.8437
6712	1509392712	54.7233	-110.2886	782.7	167.8	183.2	0.9	2.1	0.28	52.76	1.9658	402.6179
6713	1509392713	54.7227	-110.2887	782.9	167.9	183.5	1.4	2.2	0.28	52.77	1.9655	402.7598
6714	1509392714	54.7220	-110.2887	783.2	168.2	183.4	1.3	2.2	0.28	52.78	1.9648	403.3998
6715	1509392715	54.7214	-110.2888	783.9	168.9	183.9	1.8	2.3	0.28	52.80	1.9653	404.2979
6716	1509392716	54.7207	-110.2888	785.0	170.7	183.9	1.9	2.6	0.28	52.82	1.9649	404.2632
6717	1509392717	54.7201	-110.2889	785.5	171.5	183.9	1.6	2.7	0.30	52.84	1.9654	405.2144
6718	1509392718	54.7194	-110.2889	786.7	173.2	183.7	1.3	2.3	0.30	52.87	1.9640	404.1173
6719	1509392719	54.7188	-110.2890	787.6	174.6	184.0	1.5	2.2	0.28	52.91	1.9650	404.7457
6720	1509392720	54.7181	-110.2890	787.7	175.5	183.4	0.9	1.9	0.27	52.94	1.9631	403.7183
6721	1509392721	54.7175	-110.2891	787.6	175.7	184.1	1.8	1.5	0.28	52.95	1.9638	403.4746
6722	1509392722	54.7168	-110.2891	787.9	176.8	183.9	1.8	1.5	0.27	52.97	1.9640	404.1702
6723	1509392723	54.7162	-110.2892	788.1	178.1	184.7	2.7	1.4	0.27	52.99	1.9654	404.5162
6724	1509392724	54.7156	-110.2892	788.4	178.4	183.7	1.7	1.9	0.28	53.01	1.9650	404.9442
6725	1509392725	54.7149	-110.2893	788.7	179.7	184.3	2.3	2.1	0.28	53.02	1.9646	404.5861
6726	1509392726	54.7143	-110.2893	789.5	180.5	184.1	1.8	2.0	0.28	53.02	1.9642	405.0620
6727	1509392727	54.7136	-110.2894	790.2	181.2	183.6	1.2	1.7	0.28	53.09	1.9641	406.0499
6728	1509392728	54.7130	-110.2895	790.7	182.7	183.7	1.2	1.7	0.28	53.25	1.9629	405.8020
6729	1509392729	54.7123	-110.2895	790.9	182.9	183.6	1.0	1.6	0.28	53.35	1.9638	404.2891
6730	1509392730	54.7117	-110.2896	789.6	182.6	184.0	1.4	1.6	0.27	53.38	1.9632	405.4721
6731	1509392731	54.7110	-110.2896	787.3	180.3	184.2	1.6	1.6	0.26	53.41	1.9636	406.3521
6732	1509392732	54.7104	-110.2897	784.8	177.8	183.9	1.5	1.6	0.26	53.43	1.9637	406.3323
6733	1509392733	54.7097	-110.2897	782.4	175.4	183.9	1.5	2.3	0.25	53.45	1.9638	405.8570
6734	1509392734	54.7090	-110.2898	779.6	172.6	183.7	1.5	2.4	0.24	53.46	1.9635	406.4326
6735	1509392735	54.7084	-110.2899	776.9	169.9	184.2	1.8	2.4	0.24	53.46	1.9640	406.9205
6736	1509392736	54.7077	-110.2899	774.6	167.6	183.8	1.2	1.8	0.24	53.45	1.9640	407.3501
6737	1509392737	54.7071	-110.2900	772.6	165.6	184.1	1.3	2.0	0.24	53.43	1.9648	406.7592
6738	1509392738	54.7064	-110.2900	770.8	164.8	183.6	0.9	1.8	0.24	53.41	1.9645	407.7738
6739	1509392739	54.7057	-110.2901	768.3	161.9	183.9	1.4	2.1	0.24	53.38	1.9657	406.8417
6740	1509392740	54.7050	-110.2902	765.5	158.5	183.9	1.3	1.8	0.25	53.33	1.9653	407.4297
6741	1509392741	54.7044	-110.2902	763.5	156.5	183.8	1.2	1.6	0.26	53.28	1.9652	407.5899
6742	1509392742	54.7037	-110.2903	762.9	155.9	183.4	0.7	1.4	0.25	53.26	1.9644	408.0171
6743	1509392743	54.7030	-110.2903	762.9	155.9	183.7	1.1	1.4	0.26	53.26	1.9649	406.4532
6744	1509392744	54.7024	-110.2904	762.7	155.7	183.7	1.1	2.0	0.27	53.26	1.9643	406.4532
6745	1509392745	54.7017	-110.2905	763.2	156.2	184.0	1.7	2.1	0.26	53.25	1.9652	408.3254
6746	1509392746	54.7010	-110.2905	763.8	156.8	184.3	1.7	1.2	0.26	53.12	1.9659	407.8571
6747	1509392747	54.7003	-110.2906	764.5	157.5	183.7	0.9	0.8	0.26	53.00	1.9676	407.8571
6748	1509392748	54.6996	-110.2906	764.7	157.7	184.5	1.9	1.1	0.26	52.93	1.9671	407.4370
6749	1509392749	54.6990	-110.2907	765.2	158.2	184.3	1.7	1.3	0.28	52.90	1.9664	407.9554
6750	1509392750	54.6983	-110.2908	765.5	158.4	184.4	1.7	1.5	0.27	52.92	1.9670	408.3501
6751	1509392751	54.6976	-110.2908	765.6	159.8	184.0	1.1	1.1	0.28	52.91	1.9672	408.8088
6752	1509392752	54.6970	-110.2909	765.7	161.8	183.9	1.1	1.8	0.29	52.91	1.9663	407.7178
6753	1509392753	54.6963	-110.2910	765.5	163.5	184.0	1.2	1.8	0.29	52.96	1.9663	408.7119
6754	1509392754	54.6956	-110.2910	765.0	163.9	184.4	1.4	1.6	0.29	53.04	1.9668	409.4416
6755	1509392755	54.6949	-110.2911	765.3	163.3	183.9	0.7	1.6	0.29	53.08	1.9658	408.6429
6756	1509392756	54.6943	-110.2912	765.5	162.5	184.5	1.5	1.3	0.29	53.14	1.9659	408.8523
6757	1509392757	54.6936	-110.2912	765.1	162.1	184.8	1.6	1.5	0.31	53.24	1.9677	408.9154
6758	1509392758	54.6929	-110.2913	765.3	161.3	184.9	1.5	1.8	0.31	53.31	1.9653	408.5839
6759	1509392759	54.6923	-110.2914	765.5	160.5	185.3	1.9	1.9	0.31	53.32	1.9630	407.3139
6760	1509392760	54.6916	-110.2915	765.9	161.8	185.4	1.9	1.9	0.32	53.32	1.9634	408.1590
6761	1509392761	54.6909	-110.2916	766.1	162.1	185.8	2.4	1.7	0.32	53.27	1.9649	408.1590
6762	1509392762	54.6903	-110.2916	766.0	162.0	185.8	2.4	1.5	0.32	53.05	1.9654	408.8495
6763	1509392763	54.6896	-110.2917	766.2	161.9	185.3	2.0	1.5	0.32	52.92	1.9669	408.7338
6764	1509392764	54.6890	-110.2918	766.5	161.5	185.1	1.8	1.6	0.32	52.84	1.9662	408.7338
6765	1509392765	54.6883	-110.2919	766.6	162.4	184.9	1.8	1.9	0.32	52.82	1.9658	408.4084
6766	1509392766	54.6876	-110.2919	766.9	164.2	185.0	2.1	2.1	0.32	52.83	1.9656	409.6191
6767	1509392767	54.6869	-110.2920	767.2	166.3	184.7	2.0	1.8	0.33	52.91	1.9654	409.6191
6768	1509392768	54.6863	-110.2921	767.0	166.0	184.7	2.2	1.9	0.33	53.05	1.9641	409.4612
6769	1509392769	54.6856	-110.2921	766.8	166.7	184.6	2.2	2.3	0.33	53.12	1.9642	408.5909
6770	1509392770	54.6850	-110.2922	766.8	168.5	184.8	2.2	2.3	0.34	53.15	1.9627	410.2431
6771	1509392771	54.6843	-110.2923	766.4	168.5	185.4	2.6	2.3	0.34	53.16	1.9614	408.0210
6772	1509392772	54.6836	-110.2923	766.0	167.0	185.1	2.1	2.4	0.34	53.16	1.9608	408.2522
6773	1509392773	54.6830	-110.2924	765.8	166.8	185.7	2.8	2.3	0.34	53.13	1.9630	407.7634
6774	1509392774	54.6823	-110.2925	765.4	166.4	185.6	2.5	2.3	0.34	53.05	1.9635	407.8582
6775	1509392775	54.6816	-110.2926	764.5	165.5	185.7	2.5	2.3	0.34	52.93	1.9637	408.8628
6776	1509392776	54.6810	-110.2927	763.3	164.3	185.7	2.3	2.1	0.34	52.86	1.9641	407.9506
6777	1509392777	54.6803	-110.2927	762.7	163.7	186.0	2.6	1.6	0.34	52.87	1.9639	409.2610
6778	1509392778	54.6796	-110.2928	762.2	164.2	185.4	2.1	1.5	0.34	53.01	1.9626	407.4630
6779	1509392779	54.6790	-110.2929	761.4	163.4	185.5	2.4	1.2	0.34	53.20	1.9620	408.1744
6780	1509392780	54.6783	-110.2930	760.0	161.0	185.8	2.6	1.0	0.34	53.29	1.9619	408.5382
6781	1509392781	54.6776	-110.2931	758.1	159.1	185.4	2.4	1.3	0.34	53.36	1.9605	407.4588
6782	1509392782	54.6770	-110.2931	756.3	157.3	185.3	2.5	1.7	0.34	53.38	1.9587	406.8212
6783	1509392783	54.6763	-110.2932	754.8	155.8	185.2	2.5	2.1	0.34	53.38	1.9579	407.3389
6784	1509392784	54.6756	-110.2933	753.9	155.6	185.1	2.7	2.7	0.34	53.35	1.9580	407.3389
6785	1509392785	54.6749	-110.2933	753.7	155.7	185.2	2.8	2.4	0.34	53.25	1.9577	405.5173
6786	1509392786	54.6743	-110.2934	753.0	155.0	185.1	2.5	2.4	0.35	53.10	1.9574	406.1277
6787	1509392787	54.6736	-110.2935	753.0	155.0	184.7	2.2	2.0	0.36	52.99	1.9580	406.3865
6788	1509392788	54.6729	-110.2935	753.1	155.1	185.3	3.0	2.1	0.37	52.89	1.9586	406.4102
6789	1509392789	54.6723	-110.2936	753.8	155.8	183.5	1.4	1.6	0.38	52.80	1.9591	406.9427
6790	1509392790	54.6716	-110.2936	755.2	157.2	183.4	1.5	1.5	0.39	52.75	1.9588	404.8018
6791	1509392791	54.6709	-110.2937	756.1	158.1	183.2	1.5	1.5	0.40	52.73	1.9573	405.1867
6792	1509392792	54.6702	-110.2937	755.7	158.7	184.6	3.4	1.4	0.41	52.73	1.9573	405.4386
6793	1509392793	54.6696	-110.2938	755.6	158.6	184.4	3.1	1.8	0.43	52.68	1.9554	406.2598
6794	1509392794	54.6689	-110.2938	755.7	158.7	184.0	2.6	2.1	0.44	52.42	1.9555	406.1823
6795	1509392795	54.6683	-110.2939	755.5	157.8	184.9	3.3	1.7	0.44	52.21	1.9568	406.1823
6796	1509392796	54.6676	-110.2939	754.8	156.8	185.0	2.8	1.8	0.45	52.09	1.9564	406.7435
6797	1509392797	54.6669	-110.2940	754.0	156.0	185.6	3.1	2.3	0.46	52.05	1.9577	405.6082
6798	1509392798	54.6663	-110.2940	753.5	156.5	185.8	3.2	2.3	0.46	52.02	1.9592	406.7338
6799	1509392799	54.6656	-110.2941	753.0	156.0	185.7	2.9	1.7	0.47	52.00	1.9588	406.0226
6800	1509392800	54.6649	-110.2942	752.8	156.5	185.1	2.4	1.3	0.48	52.01	1.9599	406.6492
6801	1509392801	54.6643	-110.2942	752.4	156.4	186.2	3.8	1.7	0.49	52.07	1.9603	406.1725
6802	1509392802	54.6636	-110.2943	752.1	156.1	185.3	2.7	2.4	0.51	52.15	1.9606	405.9629
6803	1509392803	54.6629	-110.2944	751.3	156.3	185.3	2.8	2.3	0.53	52.19	1.9630	406.1040
6804	1509392804	54.6623	-110.2944	750.5	155.5	185.5	3.0	2.2	0.52	52.25	1.9620	406.4371
6805	1509392805	54.6616	-110.2945	750.2	156.2	185.2	3.0	2.1	0.53	52.37	1.9621	405.3723
6806	1509392806	54.6610	-110.2946	749.4	155.4	185.0	3.0	2.2	0.54	52.47	1.9628	406.1590
6807	1509392807	54.6603	-110.2946	748.9	155.2	185.2	3.4	2.2	0.54	52.53	1.9643	406.0505
6808	1509392808	54.6596	-110.2947	748.7	155.7	184.7	2.8	2.1	0.53	52.54	1.9637	404.1171
6809	1509392809	54.6589	-110.2947	748.1	155.0	183.5	1.9	1.7	0.56	52.60	1.9638	404.1309
6810	1509392810	54.6583	-110.2948	747.2	155.2	184.0	2.4	1.7	0.57	52.73	1.9670	405.1424
6811	1509392811	54.6576	-110.2948	746.8	155.8	184.0	2.3	1.5	0.55	52.91	1.9686	403.6747
6812	1509392812	54.6569	-110.2949	746.1	156.1	184.2	2.4	1.0	0.54	53.11	1.9707	403.1390
6813	1509392813	54.6562	-110.2949	745.9	155.9	183.9	1.9	1.0	0.54	53.33	1.9739	403.9082
6814	1509392814	54.6556	-110.2950	745.7	156.6	184.0	2.2	0.9	0.55	53.54	1.9756	402.6279
6815	1509392815	54.6549	-110.2950	744.8	156.2	184.2	2.5	1.4	0.56	53.79	1.9749	403.4845
6816	1509392816	54.6542	-110.2951	744.4	156.3	183.3	1.4	2.0	0.56	54.04	1.9775	401.9962
6817	1509392817	54.6536	-110.2951	744.5	157.9	183.5	1.4	1.6	0.57	54.23	1.9770	403.5140
6818	1509392818	54.6529	-110.2952	744.4	158.4	183.6	1.5	1.6	0.58	54.33	1.9783	403.7839
6819	1509392819	54.6522	-110.2952	744.4	159.4	184.1	2.1	2.1	0.58	54.40	1.9767	402.7121
6820	1509392820	54.6515	-110.2953	744.4	161.0	184.3	2.2	2.1	0.59	54.55	1.9761	403.1539
6821	1509392821	54.6509	-110.2953	743.9	162.2	184.3	2.4	1.5	0.60	54.87	1.9777	403.1539
6822	1509392822	54.6502	-110.2954	742.6	165.9	184.5	2.7	1.2	0.60	55.29	1.9760	403.6177
6823	1509392823	54.6495	-110.2954	740.6	167.6	184.0	2.0	1.0	0.62	55.55	1.9753	403.9800
6824	1509392824	54.6489	-110.2955	738.5	165.5	183.8	1.8	1.2	0.62	55.53	1.9771	402.6523
6825	1509392825	54.6482	-110.2955	736.4	163.4	184.8	2.9	1.0	0.64	55.27	1.9770	404.2425
6826	1509392826	54.6475	-110.2956	735.1	162.1	184.0	2.0	1.4	0.64	54.86	1.9773	402.7617
6827	1509392827	54.6468	-110.2956	733.9	160.9	184.1	2.3	1.8	0.66	54.46	1.9783	403.7384
6828	1509392828	54.6461	-110.2957	732.7	159.7	183.7	1.9	1.9	0.66	54.17	1.9787	402.8868
6829	1509392829	54.6454	-110.2957	731.9	158.9	184.0	2.1	1.5	0.67	53.98	1.9788	402.4060
6830	1509392830	54.6448	-110.2958	731.0	158.0	184.2	2.4	1.3	0.68	53.84	1.9799	402.5698
6831	1509392831	54.6441	-110.2958	730.2	157.2	184.0	2.2	1.4	0.68	53.75	1.9794	402.3492
6832	1509392832	54.6434	-110.2959	729.5	156.5	184.0	2.1	1.6	0.69	53.69	1.9786	403.5898
6833	1509392833	54.6427	-110.2959	728.4	155.4	183.9	2.2	1.8	0.70	53.59	1.9777	403.8750
6834	1509392834	54.6420	-110.2960	727.1	154.1	184.5	2.8	1.6	0.71	53.47	1.9783	403.1260
6835	1509392835	54.6414	-110.2960	725.7	152.7	184.3	2.4	1.7	0.72	53.27	1.9773	404.2843
6836	1509392836	54.6407	-110.2961	725.1	152.1	183.6	1.7	1.5	0.74	53.23	1.9769	403.2737
6837	1509392837	54.6400	-110.2961	725.0	152.0	183.8	1.9	1.2	0.74	53.31	1.9775	403.2737
6838	1509392838	54.6393	-110.2962	723.8	150.8	184.7	2.7	1.4	0.74	53.56	1.9745	402.7654
6839	1509392839	54.6386	-110.2963	722.1	149.1	184.7	2.5	1.3	0.75	53.59	1.9717	404.7011
6840	1509392840	54.6379	-110.2963	720.7	147.7	184.4	2.0	1.5	0.76	53.41	1.9723	403.6025
6841	1509392841	54.6372	-110.2964	720.1	147.1	184.7	2.4	1.9	0.77	52.96	1.9717	403.2708
6842	1509392842	54.6365	-110.2964	719.4	146.4	185.4	3.1	1.8	0.78	52.49	1.9705	403.5809
6843	1509392843	54.6358	-110.2965	718.6	145.6	185.5	3.0	1.4	0.79	52.08	1.9704	402.3191
6844	1509392844	54.6352	-110.2966	718.1	145.1	185.7	3.0	1.5	0.80	51.75	1.9760	403.2979
6845	1509392845	54.6345	-110.2967	717.4	144.4	185.1	2.3	1.5	0.82	51.51	1.9777	403.2979
6846	1509392846	54.6338	-110.2967	716.7	143.7	185.8	3.0	1.5	0.83	51.34	1.9783	403.6946
6847	1509392847	54.6331	-110.2968	716.1	143.1	185.8	3.0	1.5	0.84	51.26	1.9733	402.9191
6848	1509392848	54.6324	-110.2969	715.2	142.2	185.8	3.2	1.5	0.87	51.24	1.9793	403.2248
6849	1509392849	54.6317	-110.2970	714.5	141.5	185.5	3.0	1.1	0.89	51.25	1.9796	404.6909
6850	1509392850	54.6310	-110.2970	714.1	141.1	185.2	2.7	1.1	0.90	51.31	1.9828	404.6909
6851	1509392851	54.6304	-110.2971	713.8	140.8	184.5	1.8	0.7	0.92	51.52	1.9839	405.0496
6852	1509392852	54.6297	-110.2971	713.3	140.3	184.7	2.2	0.7	0.93	51.84	1.9854	405.6477
6853	1509392853	54.6290	-110.2972	712.6	139.6	184.3	2.0	1.3	0.94	52.05	1.9866	404.8208
6854	1509392854	54.6283	-110.2973	712.6	139.6	184.1	1.7	1.3	0.96	52.22	1.9858	405.5398
6855	1509392855	54.6276	-110.2973	712.8	139.8	183.7	1.3	1.4	0.97	52.54	1.9863	405.4984
6856	1509392856	54.6270	-110.2974	712.5	139.5	184.6	2.1	0.9	0.98	52.77	1.9890	404.4827
6857	1509392857	54.6263	-110.2974	712.0	139.0	184.0	1.5	0.9	0.99	52.87	1.9870	404.1312
6858	1509392858	54.6256	-110.2975	711.5	138.5	184.3	1.9	0.8	1.00	52.92	1.9845	404.7850
6859	1509392859	54.6249	-110.2976	711.8	138.8	183.9	1.3	1.0	1.01	52.95	1.9839	405.3312
6860	1509392860	54.6242	-110.2976	713.2	140.2	184.6	2.0	1.2	1.01	52.88	1.9845	405.5188
6861	1509392861	54.6235	-110.2977	715.5	142.5	184.4	1.5	1.3	1.02	52.63	1.9854	405.0323
6862	1509392862	54.6229	-110.2978	718.5	145.5	185.3	2.2	1.2	1.02	52.34	1.9857	405.9722
6863	1509392863	54.6222	-110.2978	721.9	148.9	185.3	2.0	1.4	1.02	52.13	1.9853	405.0028
6864	1509392864	54.6216	-110.2979	724.1	151.1	185.5	2.3	1.7	1.02	52.01	1.9833	405.4646
6865	1509392865	54.6209	-110.2980	726.3	153.3	184.9	1.5	1.8	1.03	51.95	1.9833	405.5116
6866	1509392866	54.6202	-110.2981	728.3	155.3	183.8	0.5	1.4	1.04	51.94	1.9822	404.2070
6867	1509392867	54.6196	-110.2981	729.6	156.6	184.3	1.3	1.3	1.04	52.05	1.9792	404.4583
6868	1509392868	54.6189	-110.2982	730.1	157.1	184.6	1.9	1.4	1.04	52.19	1.9782	404.3130
6869	1509392869	54.6183	-110.2983	730.2	157.2	184.4	1.6	1.2	1.04	52.25	1.9789	402.8870
6870	1509392870	54.6176	-110.2983	729.8	156.8	183.6	0.8	0.9	1.04	52.30	1.9801	405.2342
6871	1509392871	54.6169	-110.2984	729.0	156.0	184.1	1.9	0.8	1.04	52.41	1.9806	404.9980
6872	1509392872	54.6163	-110.2984	727.6	154.6	184.0	1.8	0.8	1.06	52.50	1.9800	404.8402
6873	1509392873	54.6156	-110.2985	726.8	153.8	183.3	1.1	0.4	1.07	52.52	1.9791	404.8517
6874	1509392874	54.6150	-110.2985	726.1	153.1	184.0	1.8	0.5	1.06	52.54	1.9790	403.3699
6875	1509392875	54.6143	-110.2986	725.4	152.4	184.0	1.6	1.0	1.04	52.55	1.9773	405.3778
6876	1509392876	54.6136	-110.2987	725.4	152.4	184.6	1.8	1.5	1.05	52.55	1.9789	405.8956
6877	1509392877	54.6130	-110.2987	725.2	152.2	185.2	2.1	2.1	1.04	52.55	1.9781	406.7549
6878	1509392878	54.6123	-110.2988	725.3	152.3	185.6	2.0	2.4	1.03	52.55	1.9762	404.9516
6879	1509392879	54.6117	-110.2989	725.3	152.3	186.3	2.2	1.9	1.02	52.56	1.9744	403.8334
6880	1509392880	54.6110	-110.2990	725.4	152.4	186.5	1.9	1.5	1.01	52.54	1.9747	404.0051
6881	1509392881	54.6103	-110.2991	725.4	152.4	186.7	1.7	1.1	1.00	52.54	1.9737	404.4738
6882	1509392882	54.6097	-110.2992	725.1	152.1	186.5	1.7	1.1	1.00	52.71	1.9739	403.8143
6883	1509392883	54.6090	-110.2993	724.2	151.2	186.2	2.1	1.5	1.00	52.88	1.9753	403.8143
6884	1509392884	54.6083	-110.2994	723.5	150.5	185.6	2.3	1.5	1.00	52.92	1.9740	402.9317
6885	1509392885	54.6077	-110.2995	723.4	150.4	184.5	2.0	1.5	0.98	52.87	1.9722	404.1674
6886	1509392886	54.6070	-110.2995	723.1	150.1	184.4	2.4	0.8	0.98	52.69	1.9717	403.4242
6887	1509392887	54.6064	-110.2996	722.4	149.4	183.5	1.6	1.3	0.97	52.63	1.9711	403.2861
6888	1509392888	54.6057	-110.2996	722.2	149.2	182.7	1.1	1.3	0.96	52.78	1.9708	401.7850
6889	1509392889	54.6050	-110.2996	722.4	149.4	183.3	2.1	1.8	0.96	53.10	1.9713	403.6057
6890	1509392890	54.6044	-110.2997	722.9	149.9	183.4	2.4	1.9	0.96	53.23	1.9730	401.3700
6891	1509392891	54.6037	-110.2997	723.7	150.7	183.1	2.2	2.1	0.95	53.21	1.9715	401.2146
6892	1509392892	54.6030	-110.2997	724.2	151.2	183.6	2.8	2.1	0.94	53.01	1.9710	403.6813
6893	1509392893	54.6024	-110.2998	724.1	151.1	183.1	2.0	1.7	0.94	52.90	1.9702	403.6813
6894	1509392894	54.6017	-110.2998	724.0	151.0	183.2	1.8	1.6	0.94	52.89	1.9690	402.8320
6895	1509392895	54.6011	-110.2998	724.0	151.0	183.8	2.1	1.6	0.92	52.95	1.9700	401.0696
6896	1509392896	54.6004	-110.2999	724.5	151.5	183.8	1.9	1.7	0.92	53.08	1.9688	402.4043
6897	1509392897	54.5997	-110.2999	724.8	151.8	185.0	3.3	1.6	0.92	53.07	1.9682	403.0173
6898	1509392898	54.5991	-110.3000	724.5	151.5	184.5	2.9	1.7	0.92	52.91	1.9684	402.8202
6899	1509392899	54.5984	-110.3000	724.1	151.1	183.9	2.3	1.3	0.92	52.77	1.9676	404.0771
6900	1509392900	54.5978	-110.3001	723.3	150.3	183.5	1.6	1.0	0.91	52.74	1.9682	403.2252
6901	1509392901	54.5971	-110.3001	722.2	149.2	183.5	1.7	1.7	0.90	52.75	1.9658	401.5990
6902	1509392902	54.5964	-110.3002	721.3	148.3	183.7	2.2	1.6	0.90	52.78	1.9667	403.4571
6903	1509392903	54.5958	-110.3002	720.1	147.1	183.2	2.0	1.9	0.90	52.79	1.9667	403.3153
6904	1509392904	54.5951	-110.3002	719.0	143.5	183.0	2.3	2.6	0.90	52.79	1.9673	403.2575
6905	1509392905	54.5944	-110.3003	718.2	141.1	182.7	2.3	2.5	0.90	52.79	1.9675	403.9042
6906	1509392906	54.5938	-110.3003	717.5	140.5	182.8	2.6	2.5	0.90	52.79	1.9667	402.3432
6907	1509392907	54.5931	-110.3003	717.0	140.9	182.8	2.5	2.6	0.90	52.78	1.9664	400.7804
6908	1509392908	54.5924	-110.3003	716.5	141.5	182.2	1.8	2.0	0.89	52.76	1.9675	402.4160
6909	1509392909	54.5918	-110.3003	715.6	140.6	182.7	2.3	2.0	0.88	52.74	1.9664	402.4160
6910	1509392910	54.5911	-110.3004	715.3	139.3	182.4	1.7	2.1	0.88	52.73	1.9666	403.0537
6911	1509392911	54.5904	-110.3004	715.4	139.4	182.3	1.9	2.0	0.88	52.74	1.9657	402.6792
6912	1509392912	54.5898	-110.3004	714.7	138.0	183.1	2.9	2.2	0.88	52.75	1.9652	402.9726
6913	1509392913	54.5891	-110.3004	714.7	136.0	182.1	1.7	2.3	0.88	52.76	1.9654	403.0822
6914	1509392914	54.5884	-110.3004	714.4	134.4	182.7	2.4	2.2	0.88	52.77	1.9661	404.5274
6915	1509392915	54.5878	-110.3005	715.0	133.0	182.1	1.3	1.8	0.88	52.80	1.9646	402.5095
6916	1509392916	54.5872	-110.3005	716.3	132.3	183.2	2.3	1.4	0.89	52.83	1.9654	403.2056
6917	1509392917	54.5865	-110.3005	717.8	133.8	183.3	2.0	1.2	0.90	52.86	1.9659	403.4621
6918	1509392918	54.5858	-110.3005	718.6	136.2	182.9	1.7	1.4	0.91	52.87	1.9648	402.8145
6919	1509392919	54.5851	-110.3006	719.4	138.4	183.1	1.8	1.5	0.90	52.87	1.9650	402.7296
6920	1509392920	54.5845	-110.3006	720.1	139.1	183.3	2.0	1.6	0.91	52.87	1.9643	402.3972
6921	1509392921	54.5838	-110.3007	720.5	139.5	184.3	3.2	2.2	0.89	52.85	1.9650	402.3972
6922	1509392922	54.5832	-110.3007	721.5	141.5	183.5	2.1	2.4	0.90	52.81	1.9651	403.3570
6923	1509392923	54.5825	-110.3007	722.6	142.9	183.6	2.2	1.8	0.88	52.81	1.9654	403.4363
6924	1509392924	54.5818	-110.3008	722.3	143.3	184.1	2.6	1.2	0.88	52.83	1.9647	403.4363
6925	1509392925	54.5812	-110.3008	721.4	142.4	184.3	2.9	0.6	0.88	52.83	1.9638	401.0519
6926	1509392926	54.5805	-110.3009	721.5	143.5	183.8	2.4	0.6	0.88	52.85	1.9626	401.0519
6927	1509392927	54.5799	-110.3009	722.1	144.1	184.3	2.7	1.1	0.88	52.89	1.9639	402.2178
6928	1509392928	54.5792	-110.3009	722.7	144.7	184.2	2.4	1.2	0.88	52.97	1.9629	403.0066
6929	1509392929	54.5786	-110.3010	723.1	145.0	184.0	2.0	0.9	0.88	53.03	1.9621	402.6668
6930	1509392930	54.5779	-110.3010	723.6	145.5	183.1	1.0	0.9	0.88	53.04	1.9607	402.7380
6931	1509392931	54.5773	-110.3011	723.7	145.6	182.6	0.7	0.9	0.88	53.05	1.9606	401.5098
6932	1509392932	54.5766	-110.3011	723.7	145.7	183.0	1.1	0.8	0.88	53.10	1.9611	400.6166
6933	1509392933	54.5760	-110.3012	723.1	145.1	183.5	1.7	1.1	0.89	53.18	1.9624	401.3626
6934	1509392934	54.5753	-110.3012	722.5	145.5	183.7	1.8	1.2	0.88	53.23	1.9626	400.1611
6935	1509392935	54.5747	-110.3013	722.6	146.6	183.9	2.1	1.5	0.88	53.24	1.9617	401.3638
6936	1509392936	54.5740	-110.3013	723.3	148.3	184.1	2.2	1.8	0.88	53.24	1.9613	402.0544
6937	1509392937	54.5733	-110.3014	723.7	148.4	184.2	2.4	1.8	0.88	53.24	1.9600	401.0691
6938	1509392938	54.5727	-110.3014	723.7	146.2	185.2	3.2	1.8	0.88	53.24	1.9626	402.1367
6939	1509392939	54.5720	-110.3015	724.1	145.1	184.9	2.7	2.0	0.88	53.24	1.9614	400.7944
6940	1509392940	54.5714	-110.3015	724.8	143.8	185.0	2.4	1.7	0.86	53.24	1.9614	400.5730
6941	1509392941	54.5708	-110.3016	726.5	146.6	184.0	1.2	1.1	0.86	53.24	1.9620	400.3234
6942	1509392942	54.5701	-110.3016	728.2	149.3	185.1	2.9	1.1	0.86	53.25	1.9627	400.3234
6943	1509392943	54.5694	-110.3017	729.2	149.5	185.0	2.8	1.6	0.86	53.26	1.9621	401.1587
6944	1509392944	54.5688	-110.3018	731.1	151.1	183.7	1.3	1.9	0.86	53.26	1.9632	399.5959
6945	1509392945	54.5682	-110.3018	734.6	154.6	183.2	0.3	1.6	0.86	53.26	1.9643	400.3847
6946	1509392946	54.5675	-110.3019	737.6	157.6	183.5	-0.5	1.3	0.86	53.27	1.9627	401.6321
6947	1509392947	54.5669	-110.3020	738.8	157.8	187.7	1.3	1.1	0.86	53.36	1.9629	401.2979
6948	1509392948	54.5663	-110.3021	739.5	157.5	191.7	1.3	0.8	0.86	53.45	1.9627	400.8209
6949	1509392949	54.5656	-110.3024	741.5	158.4	195.9	1.7	0.6	0.86	53.55	1.9651	400.8203
6950	1509392950	54.5650	-110.3027	745.0	162.0	198.3	1.6	0.9	0.84	53.65	1.9657	400.8971
6951	1509392951	54.5644	-110.3030	747.3	164.3	198.6	0.5	1.5	0.84	53.74	1.9644	401.0376
6952	1509392952	54.5638	-110.3034	748.2	165.2	200.5	1.2	1.2	0.84	53.82	1.9645	401.0488
6953	1509392953	54.5633	-110.3037	747.4	164.5	202.4	1.7	1.5	0.82	53.87	1.9621	400.9294
6954	1509392954	54.5627	-110.3042	746.9	163.9	203.6	0.9	2.3	0.81	53.92	1.9623	400.6536
6955	1509392955	54.5621	-110.3046	746.9	163.9	205.6	0.7	2.3	0.79	54.03	1.9630	400.2965
6956	1509392956	54.5616	-110.3051	746.3	163.2	208.7	1.4	1.9	0.78	54.17	1.9625	401.1631
6957	1509392957	54.5610	-110.3056	744.9	161.9	210.7	0.8	2.0	0.76	54.29	1.9621	399.5063
6958	1509392958	54.5605	-110.3062	742.4	160.4	213.6	1.3	2.6	0.75	54.37	1.9626	400.2336
6959	1509392959	54.5600	-110.3069	740.5	158.6	217.0	2.0	2.7	0.74	54.39	1.9634	400.4040
6960	1509392960	54.5595	-110.3075	739.9	157.0	219.8	2.3	2.7	0.73	54.37	1.9644	400.2283
6961	1509392961	54.5590	-110.3082	739.4	156.2	222.1	2.8	2.3	0.72	54.30	1.9654	401.8003
6962	1509392962	54.5585	-110.3090	739.2	154.9	223.5	2.0	2.3	0.72	54.27	1.9647	401.6090
6963	1509392963	54.5581	-110.3098	739.4	153.9	224.9	1.9	2.5	0.72	54.28	1.9630	400.4784
6964	1509392964	54.5576	-110.3105	739.8	153.8	225.8	1.3	2.5	0.71	54.33	1.9642	400.7531
6965	1509392965	54.5572	-110.3113	740.1	153.1	227.0	1.1	2.5	0.72	54.42	1.9619	400.1600
6966	1509392966	54.5568	-110.3121	739.7	152.1	228.5	1.2	2.3	0.72	54.49	1.9635	400.0576
6967	1509392967	54.5564	-110.3130	739.3	152.3	230.1	1.1	2.3	0.72	54.52	1.9643	400.7670
6968	1509392968	54.5560	-110.3138	739.7	152.1	231.4	1.0	2.6	0.71	54.53	1.9652	401.7067
6969	1509392969	54.5556	-110.3147	740.4	153.1	233.3	1.3	2.3	0.68	54.58	1.9630	400.8118
6970	1509392970	54.5553	-110.3156	740.5	153.7	235.7	1.7	1.9	0.68	54.67	1.9630	400.6997
6971	1509392971	54.5549	-110.3165	740.5	155.0	237.0	1.5	2.2	0.68	54.71	1.9634	400.8314
6972	1509392972	54.5546	-110.3175	740.4	155.4	239.0	1.3	2.0	0.66	54.75	1.9639	401.6799
6973	1509392973	54.5543	-110.3184	740.3	155.5	241.0	1.1	1.7	0.66	54.79	1.9630	400.5366
6974	1509392974	54.5540	-110.3194	739.4	155.1	243.1	1.4	2.0	0.66	54.87	1.9626	400.7264
6975	1509392975	54.5537	-110.3203	738.5	155.5	245.7	2.0	1.9	0.66	54.90	1.9631	400.5045
6976	1509392976	54.5535	-110.3213	738.2	156.6	247.6	1.9	2.0	0.68	54.80	1.9636	399.5703
6977	1509392977	54.5533	-110.3224	737.4	157.1	249.7	1.9	1.7	0.68	54.63	1.9633	401.1397
6978	1509392978	54.5531	-110.3234	736.1	154.7	251.2	1.6	2.0	0.68	54.55	1.9646	400.8758
6979	1509392979	54.5529	-110.3245	734.4	153.4	252.7	1.3	2.2	0.67	54.46	1.9634	402.0366
6980	1509392980	54.5527	-110.3256	732.8	152.9	254.9	1.2	1.6	0.64	54.41	1.9659	401.3761
6981	1509392981	54.5526	-110.3266	731.8	151.1	255.6	0.8	2.2	0.64	54.40	1.9669	400.6170
6982	1509392982	54.5524	-110.3277	730.8	150.8	257.1	0.9	2.0	0.64	54.39	1.9653	401.8735
6983	1509392983	54.5523	-110.3288	730.4	150.4	257.5	1.1	2.9	0.64	54.42	1.9651	401.0991
6984	1509392984	54.5522	-110.3300	730.5	151.5	258.7	1.3	2.4	0.64	54.57	1.9668	400.5477
6985	1509392985	54.5521	-110.3310	730.9	152.9	259.2	1.9	2.5	0.64	54.71	1.9654	402.1889
6986	1509392986	54.5520	-110.3321	731.3	154.3	259.6	1.8	2.7	0.64	54.77	1.9636	402.1889
6987	1509392987	54.5519	-110.3332	731.3	154.5	259.9	1.8	3.2	0.64	54.78	1.9647	401.5115
6988	1509392988	54.5518	-110.3343	730.7	154.3	261.8	1.9	1.9	0.64	54.76	1.9641	402.6734
6989	1509392989	54.5517	-110.3354	729.8	154.4	261.8	1.1	3.1	0.64	54.62	1.9648	401.1935
6990	1509392990	54.5517	-110.3366	728.4	154.8	263.1	1.0	2.6	0.64	54.56	1.9655	401.0176
6991	1509392991	54.5516	-110.3377	726.7	155.7	265.4	1.4	1.6	0.64	54.55	1.9640	401.2606
6992	1509392992	54.5516	-110.3388	725.8	159.2	266.0	1.3	2.3	0.64	54.53	1.9627	400.3819
6993	1509392993	54.5516	-110.3399	724.7	163.3	267.7	1.6	1.6	0.64	54.48	1.9647	400.8279
6994	1509392994	54.5516	-110.3411	722.5	166.1	268.6	1.9	2.3	0.64	54.38	1.9635	400.9869
6995	1509392995	54.5516	-110.3422	720.9	166.9	270.3	1.8	2.3	0.66	54.26	1.9635	400.9280
6996	1509392996	54.5516	-110.3433	719.9	163.8	271.7	1.3	2.9	0.66	54.18	1.9660	400.3282
6997	1509392997	54.5517	-110.3445	719.4	157.2	273.7	1.5	2.4	0.68	54.13	1.9634	400.3282
6998	1509392998	54.5518	-110.3456	718.9	151.7	275.9	1.6	2.1	0.69	54.08	1.9637	400.2399
6999	1509392999	54.5519	-110.3468	719.2	149.8	276.6	1.8	3.3	0.70	54.02	1.9627	400.3030
7000	1509393000	54.5520	-110.3479	719.7	146.7	278.4	1.7	2.1	0.71	53.94	1.9618	401.7324
7001	1509393001	54.5521	-110.3490	719.4	148.6	278.2	2.3	3.1	0.72	53.84	1.9611	400.3999
7002	1509393002	54.5522	-110.3501	719.6	146.1	278.4	2.6	3.1	0.73	53.74	1.9634	400.5040
7003	1509393003	54.5524	-110.3512	720.3	147.9	279.0	2.5	2.6	0.74	53.65	1.9623	400.7124
7004	1509393004	54.5525	-110.3523	722.1	147.3	279.2	2.1	2.4	0.76	53.58	1.9619	401.3981
7005	1509393005	54.5526	-110.3535	724.0	138.7	279.7	1.7	2.2	0.76	53.56	1.9627	401.2371
7006	1509393006	54.5527	-110.3546	725.3	131.0	279.9	1.5	2.2	0.77	53.56	1.9606	401.1430
7007	1509393007	54.5529	-110.3557	725.8	123.7	279.8	1.9	2.5	0.78	53.57	1.9609	400.5713
7008	1509393008	54.5530	-110.3568	725.5	120.8	279.9	1.8	2.3	0.78	53.61	1.9605	400.5713
7009	1509393009	54.5532	-110.3579	724.8	117.8	279.8	1.5	2.5	0.79	53.64	1.9602	400.4129
7010	1509393010	54.5533	-110.3590	724.5	115.0	279.4	1.7	2.6	0.80	53.66	1.9617	400.4129
7011	1509393011	54.5534	-110.3601	724.3	111.8	279.5	2.0	2.6	0.80	53.66	1.9665	400.5629
7012	1509393012	54.5536	-110.3612	724.0	109.0	279.0	2.2	2.9	0.81	53.63	1.9661	400.9004
7013	1509393013	54.5537	-110.3623	723.8	106.8	279.1	2.6	2.6	0.82	53.53	1.9611	401.0792
7014	1509393014	54.5538	-110.3634	724.3	106.4	279.0	2.8	2.9	0.85	53.38	1.9619	399.3655
7015	1509393015	54.5540	-110.3645	725.5	107.8	278.4	3.1	3.5	0.84	53.23	1.9613	399.3655
7016	1509393016	54.5541	-110.3657	727.1	112.3	278.7	3.1	3.5	0.85	53.13	1.9603	400.1473
7017	1509393017	54.5542	-110.3667	730.6	119.3	278.7	2.7	3.5	0.85	53.05	1.9610	400.0792
7018	1509393018	54.5543	-110.3678	734.5	124.1	279.1	2.7	3.1	0.86	53.03	1.9622	399.9657
7019	1509393019	54.5545	-110.3689	738.4	130.4	279.0	2.8	3.4	0.86	53.04	1.9622	400.3244
7020	1509393020	54.5546	-110.3700	742.6	137.8	279.1	2.6	3.3	0.87	53.05	1.9624	400.8742
7021	1509393021	54.5547	-110.3711	746.0	145.2	279.6	2.4	2.7	0.86	53.05	1.9623	401.1644
7022	1509393022	54.5549	-110.3721	748.8	150.1	279.0	2.4	3.3	0.86	53.03	1.9655	400.9418
7023	1509393023	54.5550	-110.3732	751.2	154.2	279.1	2.5	2.9	0.84	53.03	1.9617	401.3017
7024	1509393024	54.5551	-110.3742	752.9	156.9	279.0	2.6	2.9	0.84	53.06	1.9627	400.7495
7025	1509393025	54.5553	-110.3753	754.3	158.3	279.1	2.2	3.0	0.84	53.15	1.9646	401.9472
7026	1509393026	54.5554	-110.3763	755.5	159.5	278.8	1.8	3.4	0.84	53.29	1.9674	403.3510
7027	1509393027	54.5555	-110.3774	756.9	161.9	278.9	1.3	3.1	0.84	53.46	1.9687	403.9045
7028	1509393028	54.5556	-110.3784	758.3	163.5	279.1	0.7	2.7	0.84	53.68	1.9693	404.8098
7029	1509393029	54.5558	-110.3794	758.9	164.9	279.1	1.2	2.7	0.84	53.95	1.9706	404.8098
7030	1509393030	54.5559	-110.3805	759.9	167.5	279.4	1.2	2.7	0.82	54.24	1.9719	405.7640
7031	1509393031	54.5560	-110.3816	761.1	170.9	279.3	1.8	2.9	0.82	54.42	1.9728	402.5729
7032	1509393032	54.5561	-110.3826	761.9	175.5	279.1	1.8	2.9	0.80	54.45	1.9736	403.2629
7033	1509393033	54.5563	-110.3837	761.7	178.7	278.8	1.8	3.2	0.78	54.43	1.9725	403.7353
7034	1509393034	54.5564	-110.3847	760.7	176.6	278.9	1.6	3.0	0.76	54.29	1.9699	400.4518
7035	1509393035	54.5565	-110.3858	760.5	173.7	279.1	1.4	2.8	0.75	54.29	1.9701	400.7760
7036	1509393036	54.5566	-110.3868	759.4	168.3	279.1	1.6	2.7	0.73	54.33	1.9700	401.4300
7037	1509393037	54.5568	-110.3879	757.9	163.2	278.9	1.9	2.8	0.72	54.46	1.9692	401.8281
7038	1509393038	54.5569	-110.3890	756.7	161.0	278.6	1.4	3.0	0.72	54.56	1.9688	401.6712
7039	1509393039	54.5570	-110.3900	755.6	157.6	279.8	1.2	1.3	0.73	54.64	1.9687	401.6543
7040	1509393040	54.5571	-110.3911	754.7	156.7	279.1	1.6	1.9	0.70	54.74	1.9684	400.8790
7041	1509393041	54.5573	-110.3922	754.2	155.1	278.5	1.5	2.6	0.68	54.85	1.9683	400.4535
7042	1509393042	54.5574	-110.3933	754.6	154.5	278.1	1.6	3.0	0.67	54.92	1.9693	401.0299
7043	1509393043	54.5575	-110.3944	755.4	154.3	277.9	1.9	3.1	0.66	54.95	1.9699	401.0299
7044	1509393044	54.5576	-110.3954	755.3	152.3	278.1	2.1	2.6	0.66	54.96	1.9705	405.1578
7045	1509393045	54.5577	-110.3965	755.3	151.5	278.7	2.3	2.3	0.65	54.97	1.9709	401.3819
7046	1509393046	54.5578	-110.3976	755.6	151.6	278.4	2.3	3.1	0.64	54.98	1.9722	399.8545
7047	1509393047	54.5580	-110.3987	755.4	151.4	278.8	2.2	3.0	0.64	54.96	1.9719	401.5922
7048	1509393048	54.5581	-110.3997	755.2	149.8	279.5	2.1	2.6	0.62	54.94	1.9714	400.6630
7049	1509393049	54.5582	-110.4008	755.2	149.9	280.8	1.9	1.5	0.62	54.86	1.9722	400.7124
7050	1509393050	54.5584	-110.4019	755.4	149.4	281.1	1.7	1.4	0.62	54.83	1.9711	401.4991
7051	1509393051	54.5585	-110.4030	755.9	150.2	280.2	1.5	2.1	0.62	54.83	1.9714	402.0582
7052	1509393052	54.5586	-110.4040	755.4	149.4	280.0	1.3	2.1	0.62	54.85	1.9718	401.2138
7053	1509393053	54.5588	-110.4051	754.8	148.8	279.2	1.3	2.6	0.61	54.93	1.9729	400.9694
7054	1509393054	54.5589	-110.4062	754.1	148.1	278.9	1.3	2.6	0.60	55.00	1.9725	401.1612
7055	1509393055	54.5590	-110.4073	753.6	147.6	279.4	1.6	1.8	0.60	55.02	1.9708	402.3340
7056	1509393056	54.5591	-110.4084	753.0	147.0	278.6	2.2	2.9	0.60	55.03	1.9735	402.3340
7057	1509393057	54.5593	-110.4095	753.0	148.0	277.6	2.3	3.8	0.60	55.02	1.9715	399.7198
7058	1509393058	54.5594	-110.4105	753.5	149.4	278.3	1.8	2.9	0.60	54.97	1.9711	399.7198
7059	1509393059	54.5595	-110.4116	753.6	150.6	277.6	2.4	3.6	0.60	54.83	1.9735	399.5511
7060	1509393060	54.5596	-110.4127	753.4	151.4	278.4	2.3	2.9	0.60	54.70	1.9750	401.0272
7061	1509393061	54.5598	-110.4138	754.9	152.5	279.3	2.5	2.5	0.60	54.58	1.9733	400.4502
7062	1509393062	54.5599	-110.4149	757.5	156.3	279.8	1.7	2.4	0.60	54.53	1.9735	399.0839
7063	1509393063	54.5600	-110.4159	758.7	156.1	280.5	1.7	1.8	0.60	54.51	1.9757	401.1797
7064	1509393064	54.5602	-110.4170	759.2	156.6	279.3	1.4	3.1	0.60	54.49	1.9766	400.6484
7065	1509393065	54.5603	-110.4181	759.5	153.5	280.0	1.2	2.2	0.60	54.49	1.9770	400.3885
7066	1509393066	54.5604	-110.4192	760.0	153.0	280.1	1.2	2.0	0.60	54.51	1.9764	400.6844
7067	1509393067	54.5605	-110.4202	760.4	152.4	279.9	1.2	2.1	0.60	54.61	1.9784	400.3671
7068	1509393068	54.5607	-110.4213	760.8	151.4	279.1	1.2	2.9	0.60	54.77	1.9767	400.7391
7069	1509393069	54.5608	-110.4224	761.4	153.2	278.9	1.3	3.2	0.60	54.90	1.9763	401.3151
7070	1509393070	54.5609	-110.4234	762.0	154.8	278.8	1.3	3.5	0.60	54.99	1.9773	400.8527
7071	1509393071	54.5610	-110.4244	763.1	157.2	278.9	1.5	3.5	0.60	55.06	1.9794	400.3286
7072	1509393072	54.5612	-110.4256	764.9	159.9	279.8	1.5	2.8	0.58	55.12	1.9808	399.7832
7073	1509393073	54.5613	-110.4266	766.0	161.9	280.3	1.0	2.6	0.58	55.19	1.9809	400.6800
7074	1509393074	54.5615	-110.4277	767.1	163.2	279.9	1.0	3.1	0.59	55.28	1.9800	399.2443
7075	1509393075	54.5616	-110.4288	768.4	165.8	280.0	1.4	2.9	0.58	55.37	1.9790	401.0855
7076	1509393076	54.5617	-110.4299	769.4	163.1	280.2	1.2	2.8	0.58	55.41	1.9785	400.5695
7077	1509393077	54.5619	-110.4309	769.9	163.6	279.8	1.1	3.3	0.58	55.43	1.9818	400.6872
7078	1509393078	54.5620	-110.4320	770.5	162.5	279.9	1.0	3.1	0.58	55.44	1.9815	400.1449
7079	1509393079	54.5622	-110.4331	771.2	163.5	280.4	1.2	2.6	0.60	55.42	1.9814	400.4113
7080	1509393080	54.5623	-110.4341	771.7	161.8	280.2	1.5	2.7	0.60	55.38	1.9818	400.4113
7081	1509393081	54.5624	-110.4352	772.2	161.8	279.9	1.6	3.1	0.59	55.33	1.9837	400.3547
7082	1509393082	54.5626	-110.4362	773.0	162.4	279.6	1.7	3.3	0.60	55.30	1.9853	400.5354
7083	1509393083	54.5627	-110.4374	773.6	163.9	279.9	1.3	2.8	0.61	55.29	1.9858	400.5354
7084	1509393084	54.5628	-110.4384	773.8	163.7	279.8	1.1	2.6	0.59	55.28	1.9866	400.8559
7085	1509393085	54.5630	-110.4395	773.3	165.3	279.0	1.3	3.1	0.57	55.29	1.9855	399.3942
7086	1509393086	54.5631	-110.4406	772.2	163.8	278.1	1.3	3.7	0.56	55.32	1.9809	400.7245
7087	1509393087	54.5632	-110.4416	771.2	164.2	278.4	1.6	3.3	0.56	55.31	1.9835	401.1945
7088	1509393088	54.5634	-110.4427	769.9	163.7	278.3	2.2	3.7	0.56	55.32	1.9872	400.8397
7089	1509393089	54.5635	-110.4438	768.4	163.8	278.5	1.9	3.4	0.54	55.31	1.9861	401.4559
7090	1509393090	54.5636	-110.4449	765.9	162.4	279.5	1.5	2.7	0.54	55.08	1.9880	400.7998
7091	1509393091	54.5637	-110.4460	763.9	161.5	278.7	1.5	3.8	0.54	54.97	1.9904	400.4694
7092	1509393092	54.5639	-110.4471	763.0	162.0	279.6	1.6	2.5	0.54	54.85	1.9847	400.5108
7093	1509393093	54.5640	-110.4482	762.7	162.4	279.8	1.5	2.1	0.54	54.81	1.9893	400.7352
7094	1509393094	54.5641	-110.4493	761.7	162.1	278.7	2.0	3.2	0.54	54.80	1.9909	400.7352
7095	1509393095	54.5643	-110.4504	760.8	161.1	278.3	1.9	3.2	0.54	54.74	1.9913	401.5739
7096	1509393096	54.5644	-110.4515	760.4	161.4	278.3	1.3	3.0	0.54	54.63	1.9939	401.5866
7097	1509393097	54.5645	-110.4526	760.1	161.1	278.2	1.2	3.0	0.54	54.57	1.9960	400.1470
7098	1509393098	54.5646	-110.4538	759.4	161.4	278.7	1.6	2.3	0.54	54.57	1.9986	399.6360
7099	1509393099	54.5648	-110.4549	759.1	162.3	278.8	1.0	2.5	0.54	54.60	1.9947	399.5638
7100	1509393100	54.5649	-110.4560	759.6	163.6	279.0	0.9	2.3	0.54	54.67	1.9926	400.0910
7101	1509393101	54.5650	-110.4571	759.7	164.7	279.1	0.9	2.3	0.54	54.76	1.9922	400.8943
7102	1509393102	54.5651	-110.4582	759.2	164.2	278.7	0.4	2.7	0.54	54.81	1.9906	400.3415
7103	1509393103	54.5653	-110.4593	759.4	164.4	279.1	0.7	2.5	0.54	54.84	1.9862	400.6470
7104	1509393104	54.5654	-110.4604	759.4	165.4	278.3	0.9	3.5	0.55	54.71	1.9848	401.3020
7105	1509393105	54.5655	-110.4615	759.2	166.2	278.1	1.7	3.7	0.56	54.42	1.9870	400.3410
7106	1509393106	54.5656	-110.4627	759.5	166.4	278.3	2.1	3.6	0.56	54.15	1.9888	401.6179
7107	1509393107	54.5658	-110.4638	760.2	167.1	278.2	1.8	3.8	0.56	53.85	1.9898	400.0336
7108	1509393108	54.5659	-110.4649	760.5	166.8	278.6	1.6	3.5	0.56	53.65	1.9870	400.0336
7109	1509393109	54.5660	-110.4660	761.1	168.1	278.6	1.3	3.6	0.56	53.60	1.9861	400.9827
7110	1509393110	54.5662	-110.4671	761.2	167.2	278.8	1.1	3.5	0.56	53.56	1.9877	400.2267
7111	1509393111	54.5663	-110.4682	760.8	166.8	278.7	1.1	3.6	0.56	53.50	1.9892	400.2267
7112	1509393112	54.5664	-110.4693	760.0	166.0	279.4	0.8	2.7	0.56	53.41	1.9884	401.0686
7113	1509393113	54.5666	-110.4705	759.5	166.2	278.9	0.9	3.4	0.56	53.37	1.9915	400.7139
7114	1509393114	54.5667	-110.4716	758.3	164.5	279.3	0.7	2.9	0.58	53.36	1.9917	401.6155
7115	1509393115	54.5668	-110.4727	757.5	164.4	278.6	0.7	3.7	0.58	53.37	1.9916	400.5186
7116	1509393116	54.5670	-110.4738	757.1	164.1	278.6	0.6	3.5	0.58	53.40	1.9921	400.7124
7117	1509393117	54.5671	-110.4749	756.4	163.4	278.6	0.4	3.4	0.58	53.44	1.9921	400.8381
7118	1509393118	54.5672	-110.4761	755.6	162.6	278.9	0.3	3.0	0.58	53.49	1.9920	399.8965
7119	1509393119	54.5673	-110.4772	755.3	161.1	279.3	0.2	2.3	0.58	53.53	1.9942	401.4654
7120	1509393120	54.5675	-110.4783	754.8	159.4	279.5	0.2	2.0	0.58	53.59	1.9955	400.4796
7121	1509393121	54.5676	-110.4794	753.9	157.2	279.1	0.4	2.4	0.58	53.69	1.9960	400.4796
7122	1509393122	54.5677	-110.4806	752.6	155.7	279.1	0.2	2.5	0.58	53.82	1.9938	400.3951
7123	1509393123	54.5679	-110.4817	751.7	153.7	279.5	0.0	2.5	0.60	53.92	1.9901	400.0136
7124	1509393124	54.5680	-110.4828	750.8	151.8	279.5	0.1	2.7	0.60	53.96	1.9908	400.6726
7125	1509393125	54.5681	-110.4840	750.1	150.2	279.5	0.6	2.9	0.60	53.96	1.9882	401.6230
7126	1509393126	54.5683	-110.4851	749.5	149.6	279.1	0.9	3.3	0.60	53.91	1.9874	401.3675
7127	1509393127	54.5684	-110.4862	749.1	149.2	279.7	0.7	2.4	0.60	53.83	1.9867	401.3675
7128	1509393128	54.5685	-110.4873	748.9	149.0	279.7	0.3	2.0	0.60	53.81	1.9859	400.5699
7129	1509393129	54.5687	-110.4885	748.1	148.1	279.8	-0.2	2.0	0.62	53.80	1.9852	400.6145
7130	1509393130	54.5688	-110.4897	746.5	146.5	279.5	0.1	2.5	0.63	53.80	1.9832	401.6888
7131	1509393131	54.5689	-110.4908	745.6	146.6	279.7	0.1	2.4	0.64	53.80	1.9811	399.5821
7132	1509393132	54.5691	-110.4920	744.9	146.6	279.3	0.1	2.7	0.64	53.78	1.9811	400.4053
7133	1509393133	54.5692	-110.4931	744.6	145.9	279.6	0.0	2.2	0.65	53.66	1.9766	399.9765
7134	1509393134	54.5693	-110.4942	744.5	145.4	279.0	0.2	2.8	0.66	53.53	1.9738	400.4816
7135	1509393135	54.5695	-110.4954	745.1	145.1	278.9	0.8	2.7	0.67	53.41	1.9738	400.0447
7136	1509393136	54.5696	-110.4965	745.4	146.5	278.7	0.9	2.9	0.68	53.30	1.9723	400.7815
7137	1509393137	54.5697	-110.4977	745.6	147.1	278.5	0.5	3.3	0.68	53.20	1.9732	401.0734
7138	1509393138	54.5699	-110.4988	746.0	147.8	278.5	0.1	3.3	0.69	53.11	1.9714	400.8025
7139	1509393139	54.5700	-110.5000	746.6	148.5	278.2	-0.4	3.7	0.71	53.03	1.9661	402.0267
7140	1509393140	54.5701	-110.5011	746.9	147.9	278.9	0.0	2.9	0.71	52.95	1.9655	400.8575
7141	1509393141	54.5702	-110.5023	747.4	147.5	278.4	0.2	3.7	0.71	52.85	1.9645	400.6482
7142	1509393142	54.5704	-110.5034	748.5	147.5	278.6	0.8	3.3	0.72	52.74	1.9616	401.2172
7143	1509393143	54.5705	-110.5045	749.5	148.4	279.2	0.5	2.9	0.73	52.66	1.9638	400.7457
7144	1509393144	54.5706	-110.5057	750.1	149.1	279.4	0.2	3.1	0.75	52.64	1.9640	401.6335
7145	1509393145	54.5708	-110.5068	749.7	148.0	280.0	0.0	2.8	0.73	52.64	1.9629	400.3193
7146	1509393146	54.5709	-110.5080	749.3	148.4	280.3	0.4	2.9	0.76	52.65	1.9640	401.3370
7147	1509393147	54.5711	-110.5091	749.3	147.2	280.6	0.6	3.0	0.76	52.67	1.9624	400.8632
7148	1509393148	54.5712	-110.5102	749.3	147.3	280.6	0.4	3.3	0.74	52.69	1.9580	401.1569
7149	1509393149	54.5714	-110.5113	749.4	146.4	280.5	0.8	3.3	0.74	52.71	1.9610	401.3508
7150	1509393150	54.5715	-110.5125	749.6	147.6	281.5	0.7	2.0	0.74	52.79	1.9616	400.4178
7151	1509393151	54.5717	-110.5136	749.7	147.7	280.5	0.5	3.0	0.76	52.87	1.9582	400.4507
7152	1509393152	54.5718	-110.5147	751.2	149.9	280.0	0.5	3.0	0.76	52.91	1.9597	400.6976
7153	1509393153	54.5720	-110.5158	753.6	152.6	279.6	0.9	2.9	0.76	52.95	1.9604	401.3124
7154	1509393154	54.5721	-110.5170	756.0	156.0	278.9	1.0	3.6	0.76	52.96	1.9601	400.7288
7155	1509393155	54.5722	-110.5181	758.1	159.1	278.3	0.9	4.3	0.76	52.97	1.9588	400.7288
7156	1509393156	54.5724	-110.5192	760.4	162.6	278.7	0.7	4.2	0.76	52.98	1.9545	400.5667
7157	1509393157	54.5725	-110.5203	762.0	166.5	278.8	0.5	3.9	0.76	53.00	1.9523	400.3727
7158	1509393158	54.5726	-110.5214	763.6	170.7	280.3	0.4	2.3	0.76	53.07	1.9529	400.3207
7159	1509393159	54.5728	-110.5225	765.3	174.3	280.2	0.4	2.7	0.75	53.27	1.9537	400.8877
7160	1509393160	54.5729	-110.5236	766.8	175.9	280.2	0.1	2.9	0.74	53.49	1.9529	400.9127
7161	1509393161	54.5731	-110.5247	768.4	174.3	280.3	0.3	2.9	0.74	53.67	1.9533	401.0467
7162	1509393162	54.5732	-110.5258	769.5	171.9	280.1	0.5	3.0	0.72	53.80	1.9520	400.3941
7163	1509393163	54.5734	-110.5269	769.6	168.6	279.8	0.8	3.1	0.72	53.91	1.9522	400.4472
7164	1509393164	54.5735	-110.5279	769.2	167.2	280.1	0.5	2.5	0.70	54.04	1.9502	400.0207
7165	1509393165	54.5736	-110.5291	768.4	165.4	279.6	0.1	3.2	0.70	54.15	1.9529	400.7712
7166	1509393166	54.5738	-110.5301	768.3	164.3	279.4	0.5	3.2	0.68	54.28	1.9522	400.3579
7167	1509393167	54.5739	-110.5313	767.7	162.7	279.5	0.5	3.0	0.67	54.39	1.9517	400.5492
7168	1509393168	54.5740	-110.5322	767.1	162.1	278.7	0.5	3.7	0.66	54.45	1.9527	400.0229
7169	1509393169	54.5742	-110.5335	766.7	160.7	279.1	0.3	3.3	0.65	54.50	1.9543	400.0229
7170	1509393170	54.5743	-110.5345	766.7	160.7	278.7	0.4	3.8	0.63	54.52	1.9529	401.0158
7171	1509393171	54.5744	-110.5357	766.7	160.7	278.7	0.8	3.7	0.62	54.55	1.9519	401.3940
7172	1509393172	54.5746	-110.5368	766.8	160.8	278.7	0.9	3.7	0.62	54.55	1.9509	400.9542
7173	1509393173	54.5747	-110.5379	766.8	159.8	279.1	0.8	3.3	0.61	54.55	1.9519	401.6638
7174	1509393174	54.5748	-110.5390	767.0	158.9	278.7	0.9	4.1	0.60	54.57	1.9525	401.2500
7175	1509393175	54.5750	-110.5400	767.2	158.8	278.6	0.9	4.2	0.59	54.59	1.9519	400.4994
7176	1509393176	54.5751	-110.5412	767.7	158.7	278.7	1.3	4.0	0.58	54.59	1.9517	401.3905
7177	1509393177	54.5752	-110.5423	768.3	159.3	278.7	1.5	3.9	0.58	54.54	1.9516	401.5533
7178	1509393178	54.5754	-110.5434	769.0	160.0	279.0	1.5	3.4	0.57	54.38	1.9515	400.1009
7179	1509393179	54.5755	-110.5445	770.1	160.1	279.0	1.6	3.2	0.56	54.23	1.9521	401.0314
7180	1509393180	54.5756	-110.5456	771.1	160.1	278.9	1.4	3.2	0.56	54.12	1.9630	410.8297
7181	1509393181	54.5758	-110.5467	772.0	160.9	278.5	1.4	3.9	0.56	54.01	1.9680	403.5674
7182	1509393182	54.5759	-110.5478	773.1	161.1	279.3	1.4	2.5	0.54	53.89	1.9690	403.5674
7183	1509393183	54.5760	-110.5489	774.6	161.6	279.5	1.0	2.3	0.54	53.81	1.9732	401.1261
7184	1509393184	54.5762	-110.5500	777.0	163.0	278.4	0.8	3.2	0.54	53.79	1.9735	404.0192
7185	1509393185	54.5763	-110.5511	778.8	164.1	278.8	0.4	2.7	0.54	53.80	1.9844	421.1977
7186	1509393186	54.5764	-110.5522	779.6	164.6	278.7	0.4	3.0	0.55	53.91	1.9786	415.3363
7187	1509393187	54.5765	-110.5533	780.5	165.5	279.2	0.7	2.4	0.56	54.13	1.9587	428.2019
7188	1509393188	54.5767	-110.5544	781.2	166.2	279.5	1.2	2.4	0.56	54.28	1.9542	418.9387
7189	1509393189	54.5768	-110.5555	781.2	166.2	278.8	2.2	3.2	0.57	54.23	1.9578	403.8484
7190	1509393190	54.5769	-110.5565	780.6	164.6	278.0	2.5	4.1	0.56	53.94	1.9631	402.4671
7191	1509393191	54.5770	-110.5576	780.5	163.5	278.1	2.2	3.9	0.55	53.57	1.9661	401.6887
7192	1509393192	54.5772	-110.5588	780.3	163.3	278.5	1.9	3.4	0.57	53.38	1.9676	401.0743
7193	1509393193	54.5773	-110.5598	779.5	161.5	278.1	1.2	3.8	0.56	53.33	1.9623	401.8233
7194	1509393194	54.5774	-110.5609	778.3	160.6	279.8	0.5	1.8	0.56	53.32	1.9570	400.8724
7195	1509393195	54.5776	-110.5620	776.6	158.6	279.8	1.3	2.1	0.56	53.34	1.9552	401.4080
7196	1509393196	54.5777	-110.5631	775.2	156.6	277.5	2.5	4.3	0.56	53.34	1.9529	402.0645
7197	1509393197	54.5778	-110.5642	774.9	155.9	277.5	2.9	4.2	0.56	53.22	1.9543	401.7092
7198	1509393198	54.5779	-110.5653	774.2	155.2	277.4	2.4	4.2	0.54	52.87	1.9540	401.8891
7199	1509393199	54.5780	-110.5664	774.2	155.2	277.0	1.8	4.1	0.54	52.50	1.9536	400.9596
7200	1509393200	54.5782	-110.5675	775.1	156.4	277.0	2.0	4.1	0.54	52.31	1.9538	400.9596
7201	1509393201	54.5783	-110.5686	776.1	157.1	276.9	1.5	4.2	0.54	52.29	1.9555	399.4774
7202	1509393202	54.5784	-110.5697	776.2	157.2	277.4	1.3	3.6	0.54	52.39	1.9553	399.4774
7203	1509393203	54.5785	-110.5708	775.4	156.1	277.4	1.2	3.7	0.54	52.71	1.9544	400.4109
7204	1509393204	54.5786	-110.5720	775.2	156.2	277.2	1.2	3.8	0.54	52.85	1.9549	401.2675
7205	1509393205	54.5788	-110.5731	774.8	155.8	278.0	1.0	3.1	0.54	53.04	1.9562	401.1538
7206	1509393206	54.5789	-110.5742	774.5	155.5	277.4	1.5	3.8	0.54	53.25	1.9558	401.3054
7207	1509393207	54.5790	-110.5753	774.8	155.7	277.3	1.6	3.8	0.54	53.49	1.9550	401.0861
7208	1509393208	54.5791	-110.5764	775.2	157.2	278.1	1.1	3.1	0.54	53.70	1.9570	401.5219
7209	1509393209	54.5792	-110.5774	775.3	159.2	278.0	0.9	3.1	0.54	53.91	1.9563	401.2702
7210	1509393210	54.5794	-110.5786	775.0	160.4	277.7	0.9	3.5	0.54	54.11	1.9567	401.4140
7211	1509393211	54.5795	-110.5797	774.8	161.8	277.5	1.2	3.7	0.54	54.23	1.9558	401.0699
7212	1509393212	54.5796	-110.5808	775.0	162.0	278.1	1.3	3.1	0.54	54.33	1.9579	401.6334
7213	1509393213	54.5797	-110.5819	774.8	161.8	277.3	1.4	4.1	0.52	54.45	1.9586	400.9423
7214	1509393214	54.5798	-110.5831	774.1	163.8	277.9	0.9	3.2	0.52	54.58	1.9582	400.9423
7215	1509393215	54.5800	-110.5841	773.0	161.6	278.2	0.5	3.1	0.50	54.67	1.9586	400.9329
7216	1509393216	54.5801	-110.5853	771.5	160.2	277.6	0.3	3.5	0.50	54.76	1.9587	400.8916
7217	1509393217	54.5802	-110.5864	770.2	157.2	277.7	0.3	3.3	0.50	54.83	1.9579	400.8231
7218	1509393218	54.5803	-110.5875	768.8	156.7	277.6	0.6	3.5	0.48	54.85	1.9585	402.4812
7219	1509393219	54.5804	-110.5886	767.1	160.1	278.1	0.7	3.1	0.47	54.87	1.9585	401.5952
7220	1509393220	54.5806	-110.5898	765.5	167.0	277.9	0.6	3.7	0.46	54.87	1.9583	399.8359
7221	1509393221	54.5807	-110.5909	764.3	172.8	278.7	0.5	2.9	0.46	54.85	1.9580	401.4724
7222	1509393222	54.5808	-110.5920	763.3	172.0	279.7	0.4	2.0	0.46	54.83	1.9583	401.6615
7223	1509393223	54.5809	-110.5932	762.1	163.5	279.2	0.0	3.0	0.46	54.84	1.9598	400.1441
7224	1509393224	54.5811	-110.5943	760.9	152.4	278.7	0.1	3.5	0.46	54.85	1.9594	400.1441
7225	1509393225	54.5812	-110.5954	760.3	146.3	278.3	0.6	4.0	0.45	54.85	1.9593	401.1406
7226	1509393226	54.5813	-110.5966	759.7	149.4	278.7	0.9	3.3	0.44	54.82	1.9587	400.6236
7227	1509393227	54.5815	-110.5977	759.3	157.9	278.6	0.9	3.2	0.44	54.75	1.9593	400.9987
7228	1509393228	54.5816	-110.5989	760.2	169.9	277.8	0.6	3.6	0.44	54.64	1.9599	400.9916
7229	1509393229	54.5817	-110.6000	762.8	174.3	277.6	1.0	3.4	0.44	54.56	1.9596	400.5440
7230	1509393230	54.5818	-110.6011	765.8	176.7	278.1	1.2	2.8	0.44	54.50	1.9608	400.6214
7231	1509393231	54.5820	-110.6023	767.7	172.7	278.4	0.9	2.9	0.44	54.42	1.9612	401.1422
7232	1509393232	54.5821	-110.6034	769.3	169.6	278.5	0.6	2.9	0.45	54.36	1.9616	401.8695
7233	1509393233	54.5822	-110.6045	771.4	164.4	278.7	0.8	2.7	0.46	54.32	1.9611	400.3811
7234	1509393234	54.5823	-110.6056	772.9	158.1	278.7	0.5	3.0	0.45	54.33	1.9618	400.9687
7235	1509393235	54.5825	-110.6067	774.4	157.9	277.8	0.4	4.5	0.46	54.37	1.9607	401.7111
7236	1509393236	54.5826	-110.6078	776.3	156.3	278.6	0.9	3.7	0.46	54.37	1.9612	401.4468
7237	1509393237	54.5827	-110.6089	777.7	156.4	279.9	0.6	3.0	0.46	54.34	1.9633	401.0688
7238	1509393238	54.5829	-110.6100	778.5	155.8	280.2	0.5	2.8	0.46	54.23	1.9624	401.1909
7239	1509393239	54.5830	-110.6111	779.2	155.2	280.6	0.6	2.9	0.46	54.21	1.9609	400.4264
7240	1509393240	54.5832	-110.6122	780.0	156.0	279.9	0.8	3.8	0.46	54.23	1.9634	400.9934
7241	1509393241	54.5833	-110.6133	780.9	156.9	280.1	0.5	3.6	0.46	54.25	1.9620	400.8047
7242	1509393242	54.5835	-110.6144	781.6	157.6	280.4	0.6	3.3	0.46	54.27	1.9631	400.4565
7243	1509393243	54.5836	-110.6155	782.1	159.1	280.8	0.7	2.8	0.45	54.32	1.9624	400.2257
7244	1509393244	54.5838	-110.6166	782.6	159.6	281.1	0.4	2.4	0.44	54.39	1.9617	400.7109
7245	1509393245	54.5839	-110.6177	782.8	158.8	280.8	0.1	2.8	0.44	54.46	1.9637	402.0570
7246	1509393246	54.5840	-110.6188	782.1	158.1	280.0	0.4	3.6	0.44	54.53	1.9646	401.6449
7247	1509393247	54.5842	-110.6199	780.7	155.7	279.7	0.7	3.9	0.43	54.55	1.9644	401.8635
7248	1509393248	54.5843	-110.6210	780.1	154.1	280.1	0.5	3.2	0.42	54.56	1.9643	401.2375
7249	1509393249	54.5845	-110.6221	780.0	153.0	280.1	0.2	3.2	0.42	54.60	1.9646	401.0688
7250	1509393250	54.5846	-110.6232	780.0	153.0	279.3	0.5	3.8	0.41	54.66	1.9649	402.0375
7251	1509393251	54.5848	-110.6243	780.3	153.3	279.4	0.7	3.3	0.40	54.67	1.9648	401.7369
7252	1509393252	54.5849	-110.6254	780.8	153.8	279.1	0.8	3.6	0.40	54.67	1.9657	400.2170
7253	1509393253	54.5850	-110.6265	780.6	153.6	279.1	0.8	3.4	0.40	54.68	1.9669	400.2170
7254	1509393254	54.5852	-110.6277	780.0	153.0	279.5	0.8	2.8	0.40	54.71	1.9657	401.6144
7255	1509393255	54.5853	-110.6288	779.0	152.0	279.2	0.2	2.9	0.39	54.77	1.9667	401.1785
7256	1509393256	54.5854	-110.6299	778.0	151.0	279.0	0.0	2.7	0.40	54.83	1.9678	402.0485
7257	1509393257	54.5856	-110.6310	777.3	151.3	279.0	-0.2	2.5	0.40	54.89	1.9672	401.0856
7258	1509393258	54.5857	-110.6321	776.8	150.8	278.6	-0.3	2.8	0.39	54.96	1.9649	401.7726
7259	1509393259	54.5858	-110.6332	776.0	150.0	278.4	-0.3	3.1	0.40	55.04	2.0076	400.8456
7260	1509393260	54.5859	-110.6343	775.3	150.3	278.4	0.0	3.2	0.40	55.07	2.0430	402.0514
7261	1509393261	54.5861	-110.6355	774.8	150.8	278.2	0.5	3.1	0.40	55.07	2.0308	401.4711
7262	1509393262	54.5862	-110.6366	774.3	152.6	278.3	0.4	2.8	0.39	55.01	2.0020	401.4534
7263	1509393263	54.5863	-110.6377	774.0	155.0	278.3	0.3	2.8	0.37	54.88	1.9705	400.9850
7264	1509393264	54.5864	-110.6389	775.2	155.8	277.9	0.5	3.4	0.36	54.80	1.9679	401.6655
7265	1509393265	54.5865	-110.6400	776.8	154.6	278.0	1.2	3.2	0.35	54.72	1.9660	401.0548
7266	1509393266	54.5867	-110.6412	778.2	153.6	278.4	1.0	3.2	0.35	54.65	1.9667	402.4852
7267	1509393267	54.5868	-110.6423	779.8	155.2	277.7	0.9	4.7	0.35	54.57	1.9672	401.1159
7268	1509393268	54.5869	-110.6434	781.8	157.2	278.8	0.6	5.0	0.35	54.52	1.9668	401.6329
7269	1509393269	54.5871	-110.6445	783.2	154.2	281.8	0.7	4.8	0.35	54.48	1.9664	401.7264
7270	1509393270	54.5873	-110.6456	783.8	151.5	285.8	0.8	4.9	0.35	54.48	1.9675	401.7264
7271	1509393271	54.5875	-110.6467	784.8	151.1	291.6	1.1	3.5	0.35	54.47	1.9689	400.8285
7272	1509393272	54.5878	-110.6477	787.1	151.1	296.2	1.7	3.9	0.34	54.47	1.9685	402.0675
7273	1509393273	54.5882	-110.6487	789.7	151.6	301.6	1.0	3.3	0.34	54.47	1.9674	402.2653
7274	1509393274	54.5886	-110.6495	791.3	151.3	307.0	1.1	3.0	0.33	54.47	1.9674	402.2653
7275	1509393275	54.5890	-110.6504	793.5	151.5	311.5	1.7	3.3	0.33	54.47	1.9684	402.4128
7276	1509393276	54.5895	-110.6512	796.6	153.6	314.3	2.3	3.9	0.34	54.39	1.9686	402.4549
7277	1509393277	54.5900	-110.6519	798.9	154.2	316.5	2.4	4.4	0.34	54.21	1.9695	401.8139
7278	1509393278	54.5905	-110.6526	799.1	154.1	319.1	1.9	4.3	0.34	54.14	1.9690	400.7598
7279	1509393279	54.5911	-110.6533	797.6	151.9	321.8	1.7	4.1	0.33	54.08	1.9683	400.2965
7280	1509393280	54.5916	-110.6540	797.2	151.2	324.9	2.0	3.9	0.33	54.07	1.9696	400.4359
7281	1509393281	54.5922	-110.6545	801.1	155.1	329.2	2.4	2.8	0.33	54.19	1.9703	401.4643
7282	1509393282	54.5928	-110.6550	810.1	164.1	333.9	3.0	1.7	0.32	54.38	1.9710	401.8711
7283	1509393283	54.5934	-110.6554	822.3	177.0	337.0	3.9	1.8	0.32	54.47	1.9705	401.9625
7284	1509393284	54.5940	-110.6558	833.9	189.4	340.0	2.8	1.9	0.31	54.49	1.9703	400.9805
7285	1509393285	54.5946	-110.6561	842.1	199.1	341.4	2.8	2.7	0.30	54.49	1.9705	402.3714
7286	1509393286	54.5952	-110.6563	848.2	206.9	342.5	2.5	3.0	0.27	54.49	1.9697	401.7252
7287	1509393287	54.5958	-110.6566	852.8	211.8	343.6	2.4	3.0	0.24	54.48	1.9694	401.6066
7288	1509393288	54.5964	-110.6568	858.8	217.8	342.8	3.8	3.0	0.22	54.49	1.9692	401.1605
7289	1509393289	54.5969	-110.6571	865.9	224.9	343.2	3.4	2.9	0.20	54.58	1.9714	400.4878
7290	1509393290	54.5975	-110.6573	871.7	230.7	342.3	3.9	3.6	0.16	54.72	1.9717	401.0790
7291	1509393291	54.5981	-110.6575	874.6	233.6	342.2	3.3	3.9	0.12	54.87	1.9742	402.1949
7292	1509393292	54.5987	-110.6578	875.4	234.4	341.4	3.7	4.4	0.07	55.04	1.9760	400.4514
7293	1509393293	54.5992	-110.6581	876.0	234.3	339.9	4.6	5.1	0.02	55.21	1.9770	401.7873
7294	1509393294	54.5998	-110.6583	876.6	234.3	340.7	3.4	4.5	-0.02	55.38	1.9758	402.5803
7295	1509393295	54.6004	-110.6586	877.0	234.0	339.9	3.5	4.5	-0.06	55.53	1.9746	402.9037
7296	1509393296	54.6010	-110.6589	877.9	233.9	339.8	2.9	3.6	-0.11	55.71	1.9743	402.9500
7297	1509393297	54.6015	-110.6592	879.7	234.8	339.3	3.0	3.6	-0.15	55.92	1.9762	402.1687
7298	1509393298	54.6021	-110.6595	881.9	235.9	337.9	3.8	3.8	-0.19	56.14	1.9751	402.5798
7299	1509393299	54.6027	-110.6598	883.5	236.6	337.8	3.4	3.4	-0.23	56.31	1.9698	402.8943
7300	1509393300	54.6033	-110.6602	883.8	235.8	336.5	4.1	4.3	-0.27	56.43	1.9700	401.1530
7301	1509393301	54.6038	-110.6605	883.2	234.2	337.7	3.5	3.9	-0.30	56.58	1.9694	401.5493
7302	1509393302	54.6044	-110.6608	882.1	233.2	340.6	2.7	3.8	-0.30	56.81	1.9692	402.5244
7303	1509393303	54.6050	-110.6611	882.0	232.0	342.8	2.9	3.5	-0.34	57.12	1.9709	403.0843
7304	1509393304	54.6056	-110.6613	883.3	233.0	347.0	1.6	2.7	-0.38	57.46	1.9723	402.7179
7305	1509393305	54.6062	-110.6615	884.9	233.9	348.8	2.2	3.8	-0.42	57.76	1.9705	401.9620
7306	1509393306	54.6068	-110.6616	886.1	235.2	349.2	3.9	4.2	-0.47	57.97	1.9710	401.4977
7307	1509393307	54.6074	-110.6617	886.6	235.0	352.0	3.3	4.3	-0.50	58.06	1.9723	401.1014
7308	1509393308	54.6080	-110.6618	887.2	235.1	354.5	3.2	4.0	-0.51	58.11	1.9717	401.7094
7309	1509393309	54.6086	-110.6618	888.0	237.0	356.6	2.3	3.9	-0.52	58.18	1.9732	403.0840
7310	1509393310	54.6093	-110.6619	888.2	237.7	357.1	2.7	4.1	-0.56	58.29	1.9749	402.4835
7311	1509393311	54.6099	-110.6619	888.4	238.4	356.9	3.3	4.4	-0.59	58.38	1.9759	402.0397
7312	1509393312	54.6105	-110.6619	888.9	239.9	357.2	3.4	4.1	-0.59	58.44	1.9770	401.8470
7313	1509393313	54.6112	-110.6618	889.3	241.3	357.4	3.8	4.1	-0.61	58.50	1.9791	401.9527
7314	1509393314	54.6118	-110.6618	891.1	243.6	358.8	3.4	3.4	-0.65	58.54	1.9804	401.3872
7315	1509393315	54.6124	-110.6618	895.0	248.0	0.4	2.4	3.2	-0.67	58.57	1.9828	403.1437
7316	1509393316	54.6130	-110.6617	899.3	253.3	0.2	2.8	3.5	-0.69	58.55	1.9844	401.5166
7317	1509393317	54.6136	-110.6617	903.1	257.1	358.7	4.2	4.0	-0.72	58.54	1.9833	402.7088
7318	1509393318	54.6142	-110.6617	905.9	259.9	358.5	4.4	4.1	-0.74	58.49	1.9841	402.7088
7319	1509393319	54.6148	-110.6616	908.5	261.9	358.9	4.2	3.6	-0.76	58.38	1.9865	403.1944
7320	1509393320	54.6155	-110.6616	910.8	263.8	359.0	4.4	3.3	-0.78	58.25	1.9888	401.9672
7321	1509393321	54.6161	-110.6615	912.6	264.7	359.1	4.5	3.5	-0.79	58.15	1.9888	402.3713
7322	1509393322	54.6167	-110.6614	914.7	266.6	358.5	5.5	4.0	-0.81	58.04	1.9889	403.0572
7323	1509393323	54.6173	-110.6614	916.5	268.2	358.7	5.2	4.1	-0.81	57.88	1.9906	403.3697
7324	1509393324	54.6179	-110.6613	917.4	268.4	-0.5	4.4	3.9	-0.83	57.71	1.9909	402.4114
7325	1509393325	54.6186	-110.6613	917.8	268.8	358.3	5.6	4.1	-0.84	57.55	1.9921	402.7482
7326	1509393326	54.6192	-110.6612	918.0	268.0	358.6	5.1	4.1	-0.85	57.41	1.9925	401.6275
7327	1509393327	54.6198	-110.6612	917.9	267.9	359.2	4.6	4.0	-0.86	57.33	1.9928	402.9577
7328	1509393328	54.6204	-110.6611	918.3	268.4	358.4	5.1	4.0	-0.86	57.32	1.9931	402.3643
7329	1509393329	54.6210	-110.6611	918.8	267.8	-0.7	4.1	3.8	-0.86	57.32	1.9927	403.0613
7330	1509393330	54.6216	-110.6610	919.1	268.1	359.3	4.2	4.0	-0.87	57.36	1.9932	403.0687
7331	1509393331	54.6223	-110.6609	919.1	268.1	358.9	4.4	4.2	-0.88	57.47	1.9949	401.0319
7332	1509393332	54.6229	-110.6609	919.1	269.2	-0.5	3.8	3.9	-0.88	57.54	1.9953	401.4181
7333	1509393333	54.6235	-110.6608	919.0	269.0	358.9	4.5	3.9	-0.89	57.58	1.9951	401.2349
7334	1509393334	54.6241	-110.6608	919.0	269.0	358.1	5.1	3.7	-0.90	57.60	1.9954	401.2443
7335	1509393335	54.6248	-110.6608	918.1	269.1	358.4	4.5	4.0	-0.90	57.60	1.9959	402.1643
7336	1509393336	54.6254	-110.6607	916.0	267.0	357.9	4.9	4.0	-0.91	57.60	1.9976	402.4836
7337	1509393337	54.6261	-110.6607	913.6	264.6	358.2	4.8	4.0	-0.92	57.59	1.9966	402.4049
7338	1509393338	54.6267	-110.6606	911.5	263.6	357.8	5.1	4.4	-0.92	57.53	1.9951	402.9706
7339	1509393339	54.6273	-110.6606	909.8	261.8	358.3	4.3	4.3	-0.92	57.43	1.9951	402.7414
7340	1509393340	54.6280	-110.6606	907.5	259.5	358.4	4.2	4.3	-0.94	57.34	1.9943	402.2603
7341	1509393341	54.6286	-110.6605	904.6	257.6	357.8	4.7	3.9	-0.93	57.28	1.9934	402.0108
7342	1509393342	54.6293	-110.6605	901.7	253.6	358.0	4.3	4.2	-0.93	57.26	1.9939	401.6985
7343	1509393343	54.6300	-110.6605	899.3	251.3	358.1	4.0	3.7	-0.91	57.25	1.9944	399.4642
7344	1509393344	54.6306	-110.6604	898.7	250.4	357.4	4.7	3.7	-0.91	57.24	1.9973	402.6113
7345	1509393345	54.6313	-110.6604	899.2	250.2	357.6	4.4	3.3	-0.92	57.24	1.9973	402.4826
7346	1509393346	54.6320	-110.6604	899.1	250.1	358.0	4.2	3.4	-0.91	57.24	1.9968	400.4041
7347	1509393347	54.6326	-110.6604	898.8	249.8	357.6	4.9	3.5	-0.93	57.24	1.9965	401.0365
7348	1509393348	54.6333	-110.6603	898.4	249.4	358.4	4.5	3.7	-0.94	57.22	2.0000	400.9488
7349	1509393349	54.6340	-110.6603	898.4	249.4	-0.5	3.4	3.8	-0.94	57.16	2.0010	401.5521
7350	1509393350	54.6347	-110.6603	898.6	249.6	-0.7	3.6	3.9	-0.94	57.10	1.9997	402.3480
7351	1509393351	54.6354	-110.6602	898.9	248.9	358.3	4.5	3.9	-0.94	57.06	2.0005	400.3778
7352	1509393352	54.6360	-110.6602	899.4	249.4	358.9	3.6	3.9	-0.94	57.03	2.0007	402.4401
7353	1509393353	54.6367	-110.6601	899.7	249.9	358.9	3.6	4.0	-0.94	56.99	2.0008	401.9438
7354	1509393354	54.6374	-110.6601	899.8	250.8	358.8	3.6	3.7	-0.94	56.94	2.0009	402.9408
7355	1509393355	54.6381	-110.6601	899.7	252.9	358.7	3.6	3.6	-0.92	56.88	2.0008	401.3151
7356	1509393356	54.6387	-110.6601	900.1	254.1	358.1	4.3	3.7	-0.91	56.82	2.0023	401.8345
7357	1509393357	54.6394	-110.6600	900.8	256.4	358.1	4.4	4.0	-0.91	56.78	2.0035	401.1558
7358	1509393358	54.6401	-110.6600	900.6	259.1	359.0	3.8	4.1	-0.89	56.75	2.0045	401.8505
7359	1509393359	54.6408	-110.6599	900.3	260.3	359.0	4.4	3.9	-0.89	56.72	2.0048	401.6573
7360	1509393360	54.6414	-110.6599	900.8	263.1	0.0	3.5	3.9	-0.89	56.68	2.0046	399.9578
7361	1509393361	54.6421	-110.6598	901.6	264.5	-0.7	4.2	3.9	-0.90	56.66	2.0031	400.2644
7362	1509393362	54.6428	-110.6598	901.9	267.0	359.2	4.3	3.7	-0.90	56.64	2.0031	402.1626
7363	1509393363	54.6434	-110.6597	902.1	267.0	-0.3	3.4	3.4	-0.88	56.62	2.0037	400.9405
7364	1509393364	54.6441	-110.6597	902.1	268.1	-0.4	3.3	3.5	-0.87	56.61	2.0033	400.9713
7365	1509393365	54.6448	-110.6596	902.4	269.4	358.7	4.2	3.7	-0.87	56.59	2.0045	401.7779
7366	1509393366	54.6455	-110.6596	902.2	270.2	358.3	4.2	4.1	-0.87	56.55	2.0012	400.8650
7367	1509393367	54.6462	-110.6596	899.4	267.4	358.9	3.6	4.0	-0.88	56.53	2.0009	401.2419
7368	1509393368	54.6469	-110.6595	896.2	264.2	358.2	4.1	4.0	-0.88	56.54	1.9997	401.2006
7369	1509393369	54.6476	-110.6595	893.5	261.5	358.7	3.5	4.0	-0.89	56.58	2.0002	402.7571
7370	1509393370	54.6483	-110.6595	891.5	259.5	359.2	3.0	4.8	-0.90	56.66	1.9972	400.8595
7371	1509393371	54.6490	-110.6595	890.2	258.2	-0.4	3.0	4.5	-0.90	56.70	1.9991	402.1673
7372	1509393372	54.6497	-110.6594	889.8	258.8	-0.4	3.2	4.2	-0.90	56.77	1.9978	401.1975
7373	1509393373	54.6503	-110.6594	889.6	258.6	0.7	2.3	3.7	-0.90	56.87	1.9987	401.1216
7374	1509393374	54.6511	-110.6593	889.0	257.4	0.0	3.2	4.4	-0.90	57.10	1.9984	401.2354
7375	1509393375	54.6518	-110.6593	888.7	256.7	0.2	2.9	3.9	-0.90	57.17	1.9979	401.3196
7376	1509393376	54.6525	-110.6592	889.9	257.9	0.5	2.3	3.9	-0.89	57.18	1.9985	401.6292
7377	1509393377	54.6532	-110.6592	890.4	257.4	1.1	1.9	3.8	-0.88	57.17	1.9994	400.5870
7378	1509393378	54.6539	-110.6591	891.1	257.5	359.2	3.8	3.7	-0.88	57.14	2.0009	401.0680
7379	1509393379	54.6546	-110.6591	891.4	257.4	0.0	2.7	3.3	-0.88	57.05	2.0036	401.7967
7380	1509393380	54.6553	-110.6590	891.7	256.7	-0.6	3.4	3.6	-0.87	56.89	2.0054	399.9427
7381	1509393381	54.6560	-110.6590	892.0	257.0	358.8	3.7	3.7	-0.86	56.75	2.0017	401.3581
7382	1509393382	54.6567	-110.6590	892.2	256.1	359.3	3.1	3.3	-0.84	56.65	2.0023	401.7230
7383	1509393383	54.6574	-110.6589	892.6	256.6	359.2	3.1	3.6	-0.84	56.57	2.0006	401.7230
7384	1509393384	54.6581	-110.6589	892.1	255.2	-0.7	3.5	3.8	-0.84	56.52	2.0016	401.5070
7385	1509393385	54.6588	-110.6589	892.1	254.1	-0.6	3.8	3.9	-0.82	56.48	2.0009	401.3845
7386	1509393386	54.6595	-110.6588	892.7	254.7	0.7	2.7	3.9	-0.82	56.45	2.0001	401.2359
7387	1509393387	54.6602	-110.6587	893.3	254.3	0.4	3.4	3.9	-0.81	56.45	1.9985	400.9736
7388	1509393388	54.6609	-110.6587	893.5	254.5	0.5	3.2	3.7	-0.80	56.43	1.9976	400.9874
7389	1509393389	54.6616	-110.6586	894.3	254.3	1.2	2.6	3.4	-0.79	56.43	1.9979	401.4242
7390	1509393390	54.6623	-110.6586	895.2	255.2	0.3	3.6	3.6	-0.79	56.42	1.9983	401.3613
7391	1509393391	54.6630	-110.6585	895.6	255.6	1.1	2.6	3.9	-0.79	56.41	1.9986	401.5446
7392	1509393392	54.6637	-110.6584	896.1	255.1	1.2	2.4	3.8	-0.78	56.38	1.9993	400.5527
7393	1509393393	54.6644	-110.6584	897.0	256.0	0.1	3.3	3.8	-0.77	56.36	1.9973	401.2581
7394	1509393394	54.6651	-110.6583	897.5	255.5	0.0	2.9	3.7	-0.77	56.35	1.9964	400.8967
7395	1509393395	54.6658	-110.6583	897.9	255.9	0.2	2.5	3.7	-0.77	56.35	1.9967	400.8079
7396	1509393396	54.6665	-110.6582	898.2	256.3	0.1	2.4	3.7	-0.77	56.36	1.9989	401.5348
7397	1509393397	54.6672	-110.6582	898.8	257.8	0.0	2.4	3.7	-0.76	56.37	1.9974	401.6166
7398	1509393398	54.6679	-110.6582	899.2	258.2	0.0	2.3	3.7	-0.75	56.38	1.9961	401.0957
7399	1509393399	54.6686	-110.6581	899.3	259.3	0.1	2.0	3.8	-0.75	56.40	1.9985	401.4392
7400	1509393400	54.6693	-110.6581	899.6	259.6	359.2	3.2	4.2	-0.75	56.42	1.9987	401.4392
7401	1509393401	54.6700	-110.6581	900.7	261.7	359.1	3.3	4.0	-0.75	56.43	1.9960	400.9692
7402	1509393402	54.6707	-110.6580	901.9	263.2	-0.1	2.5	3.4	-0.75	56.42	1.9964	401.1659
7403	1509393403	54.6714	-110.6580	902.3	264.3	359.1	3.7	3.5	-0.74	56.39	1.9961	402.5872
7404	1509393404	54.6721	-110.6580	902.3	264.3	-0.2	3.2	3.5	-0.73	56.34	1.9980	400.1444
7405	1509393405	54.6728	-110.6579	902.5	264.5	-0.4	3.9	3.5	-0.73	56.27	1.9925	401.2937
7406	1509393406	54.6735	-110.6578	903.7	265.7	-0.3	3.9	3.3	-0.72	56.20	1.9952	401.6695
7407	1509393407	54.6742	-110.6578	905.0	267.1	-0.3	4.5	3.1	-0.71	56.14	1.9937	399.6179
7408	1509393408	54.6749	-110.6577	908.2	268.9	-0.6	5.0	3.2	-0.71	56.03	1.9941	399.6179
7409	1509393409	54.6756	-110.6577	911.7	270.6	0.2	4.3	3.5	-0.71	55.86	1.9969	401.4413
7410	1509393410	54.6763	-110.6576	914.8	272.8	-0.2	4.8	3.7	-0.72	55.66	1.9990	402.1242
7411	1509393411	54.6770	-110.6575	917.0	273.7	0.3	3.8	3.1	-0.73	55.57	2.0008	401.1385
7412	1509393412	54.6777	-110.6575	918.3	274.3	0.5	3.5	3.5	-0.73	55.51	2.0012	400.5003
7413	1509393413	54.6783	-110.6574	919.1	274.1	0.0	3.9	4.0	-0.73	55.51	1.9992	402.1665
7414	1509393414	54.6790	-110.6573	919.3	274.3	0.3	3.6	3.5	-0.73	55.74	1.9973	400.1820
7415	1509393415	54.6797	-110.6573	918.9	273.9	-0.6	4.6	3.6	-0.73	55.86	1.9992	400.1820
7416	1509393416	54.6804	-110.6572	918.4	273.4	359.0	4.7	3.3	-0.73	55.90	1.9980	401.6133
7417	1509393417	54.6811	-110.6572	916.3	271.3	359.3	4.3	3.1	-0.73	55.87	2.0070	400.5879
7418	1509393418	54.6818	-110.6571	912.7	267.7	358.8	4.6	3.5	-0.74	55.78	2.0081	401.5981
7419	1509393419	54.6825	-110.6571	908.5	263.5	-0.6	3.9	3.8	-0.73	55.76	2.0072	402.0691
7420	1509393420	54.6832	-110.6570	904.3	259.3	0.5	3.2	3.9	-0.72	55.95	2.0053	401.0511
7421	1509393421	54.6839	-110.6569	901.5	257.8	0.6	3.6	4.1	-0.71	56.29	2.0060	401.9201
7422	1509393422	54.6846	-110.6569	899.0	257.0	0.8	3.6	4.5	-0.71	56.55	2.0075	402.0355
7423	1509393423	54.6853	-110.6568	895.8	254.8	0.7	3.8	4.6	-0.72	56.66	2.0098	402.3381
7424	1509393424	54.6860	-110.6567	894.0	254.1	0.9	3.5	4.3	-0.72	56.67	2.0114	402.5558
7425	1509393425	54.6867	-110.6567	892.9	253.9	0.9	3.4	4.2	-0.74	56.65	2.0115	403.1498
7426	1509393426	54.6875	-110.6566	891.6	253.6	1.0	3.1	4.1	-0.75	56.62	2.0096	403.1498
7427	1509393427	54.6882	-110.6565	890.3	253.3	1.3	2.6	4.0	-0.75	56.59	2.0083	401.3694
7428	1509393428	54.6889	-110.6565	888.5	252.5	1.3	2.5	3.9	-0.75	56.57	2.0092	402.4236
7429	1509393429	54.6896	-110.6564	886.4	250.4	0.9	2.7	3.5	-0.75	56.57	2.0082	402.7273
7430	1509393430	54.6903	-110.6563	885.0	248.0	1.0	2.3	3.6	-0.75	56.56	2.0088	402.2089
7431	1509393431	54.6911	-110.6563	883.8	246.8	1.3	1.9	4.1	-0.75	56.59	2.0095	400.8951
7432	1509393432	54.6918	-110.6562	882.7	245.7	1.7	1.7	4.0	-0.75	56.61	2.0106	401.1818
7433	1509393433	54.6926	-110.6561	881.0	243.3	1.8	2.3	4.1	-0.75	56.67	2.0100	400.6212
7434	1509393434	54.6933	-110.6561	879.9	241.8	1.2	3.0	4.3	-0.75	56.74	2.0091	401.1588
7435	1509393435	54.6940	-110.6560	879.6	241.6	1.1	2.9	4.0	-0.74	56.76	2.0093	402.0298
7436	1509393436	54.6947	-110.6559	879.0	242.0	1.2	2.7	4.0	-0.73	56.75	2.0095	402.6692
7437	1509393437	54.6955	-110.6559	878.2	241.2	0.8	3.2	4.0	-0.73	56.72	2.0103	400.7427
7438	1509393438	54.6962	-110.6558	877.9	241.9	0.8	3.0	3.9	-0.73	56.68	2.0113	401.3594
7439	1509393439	54.6969	-110.6557	877.5	240.5	1.0	2.5	3.5	-0.73	56.64	2.0081	403.2092
7440	1509393440	54.6977	-110.6557	877.2	240.2	0.7	2.7	3.4	-0.73	56.59	2.0086	402.1603
7441	1509393441	54.6984	-110.6556	877.5	240.5	-0.5	3.6	3.3	-0.73	56.48	2.0090	402.3890
7442	1509393442	54.6991	-110.6556	877.7	240.7	-0.1	3.0	3.2	-0.73	56.31	2.0091	403.2705
7443	1509393443	54.6999	-110.6555	877.6	240.6	-0.4	3.4	3.2	-0.73	56.12	2.0087	402.4883
7444	1509393444	54.7006	-110.6555	877.1	240.1	-0.4	3.4	3.3	-0.73	55.98	2.0109	402.1014
7445	1509393445	54.7013	-110.6554	876.0	239.0	0.5	2.7	2.9	-0.73	55.95	2.0078	402.0800
7446	1509393446	54.7021	-110.6554	875.3	238.3	0.7	3.0	3.3	-0.72	55.95	2.0054	401.6748
7447	1509393447	54.7028	-110.6553	874.7	236.7	1.3	2.4	3.5	-0.71	55.99	2.0054	403.4780
7448	1509393448	54.7035	-110.6553	873.5	233.8	1.3	2.6	3.6	-0.71	56.03	2.0054	403.4030
7449	1509393449	54.7042	-110.6552	873.2	231.2	1.1	2.7	3.5	-0.71	56.05	2.0053	402.8081
7450	1509393450	54.7050	-110.6551	874.1	231.0	1.3	2.5	3.3	-0.70	56.05	2.0056	403.7428
7451	1509393451	54.7057	-110.6551	875.4	231.4	1.0	2.7	3.0	-0.69	56.05	2.0070	403.7511
7452	1509393452	54.7064	-110.6550	876.9	233.1	1.1	2.4	3.2	-0.69	56.04	2.0063	403.3981
7453	1509393453	54.7072	-110.6549	878.1	235.1	0.7	2.7	3.5	-0.69	56.00	2.0082	403.1271
7454	1509393454	54.7079	-110.6549	879.2	237.1	0.5	3.0	3.5	-0.69	55.92	2.0092	404.1521
7455	1509393455	54.7086	-110.6548	880.4	239.8	0.4	3.2	3.4	-0.68	55.83	2.0076	403.7287
7456	1509393456	54.7093	-110.6548	881.6	241.5	0.6	2.9	3.2	-0.67	55.76	2.0056	403.5074
7457	1509393457	54.7100	-110.6547	882.1	243.1	0.4	3.2	3.2	-0.67	55.72	2.0092	404.1655
7458	1509393458	54.7108	-110.6547	882.0	243.0	0.2	3.3	3.1	-0.66	55.67	2.0078	404.6166
7459	1509393459	54.7115	-110.6546	881.8	243.9	0.5	2.8	3.2	-0.65	55.63	2.0057	403.9143
7460	1509393460	54.7122	-110.6545	881.7	243.7	0.0	3.4	3.1	-0.65	55.59	2.0049	404.5364
7461	1509393461	54.7129	-110.6545	881.7	245.7	0.0	3.4	3.1	-0.65	55.54	2.0096	405.7734
7462	1509393462	54.7137	-110.6544	881.8	248.8	-0.2	3.7	3.0	-0.64	55.48	2.0090	403.5219
7463	1509393463	54.7144	-110.6544	882.3	250.2	0.2	3.4	3.2	-0.63	55.41	2.0094	403.8712
7464	1509393464	54.7151	-110.6543	882.7	252.7	0.4	3.4	3.5	-0.63	55.35	2.0088	402.7387
7465	1509393465	54.7158	-110.6543	882.8	252.8	0.7	3.0	3.5	-0.62	55.32	2.0090	404.2264
7466	1509393466	54.7165	-110.6542	882.8	252.8	1.0	2.9	3.4	-0.61	55.31	2.0100	403.9751
7467	1509393467	54.7172	-110.6541	883.4	253.4	0.4	3.5	3.3	-0.58	55.32	2.0101	403.0457
7468	1509393468	54.7180	-110.6541	884.0	254.0	1.0	3.0	3.2	-0.57	55.34	2.0096	403.8986
7469	1509393469	54.7187	-110.6540	884.2	254.2	0.7	3.3	3.2	-0.58	55.36	2.0106	403.8771
7470	1509393470	54.7194	-110.6539	883.5	253.5	1.0	2.9	3.3	-0.57	55.35	2.0098	404.7603
7471	1509393471	54.7201	-110.6539	882.2	252.2	0.5	3.4	3.4	-0.56	55.33	2.0090	404.1915
7472	1509393472	54.7208	-110.6538	881.1	251.1	0.5	3.3	3.4	-0.55	55.26	2.0111	404.6680
7473	1509393473	54.7215	-110.6538	880.1	250.1	0.7	3.0	3.0	-0.55	55.18	2.0108	402.6795
7474	1509393474	54.7223	-110.6537	878.4	248.4	0.7	2.9	3.1	-0.54	55.12	2.0108	405.2050
7475	1509393475	54.7230	-110.6536	876.9	246.9	0.5	3.1	3.3	-0.53	55.09	2.0136	405.0476
7476	1509393476	54.7237	-110.6536	876.0	246.0	0.4	2.9	3.4	-0.53	55.08	2.0143	403.8344
7477	1509393477	54.7244	-110.6535	875.3	245.3	0.5	2.8	3.4	-0.53	55.10	2.0141	403.0582
7478	1509393478	54.7252	-110.6535	875.0	243.9	0.6	2.6	3.4	-0.53	55.10	2.0120	403.0582
7479	1509393479	54.7259	-110.6534	874.5	241.6	0.8	2.3	3.4	-0.53	55.11	2.0137	404.2858
7480	1509393480	54.7266	-110.6534	873.4	241.0	0.7	2.5	3.6	-0.52	55.16	2.0141	404.2858
7481	1509393481	54.7273	-110.6533	872.3	242.3	1.0	2.2	3.6	-0.51	55.24	2.0148	404.2195
7482	1509393482	54.7280	-110.6533	871.5	241.5	1.3	2.0	3.2	-0.51	55.33	2.0161	404.0366
7483	1509393483	54.7288	-110.6532	870.7	240.7	1.3	1.9	3.3	-0.51	55.44	2.0160	405.4780
7484	1509393484	54.7295	-110.6531	870.3	240.3	1.1	2.2	3.2	-0.51	55.58	2.0156	405.0629
7485	1509393485	54.7302	-110.6531	870.1	240.1	1.2	2.0	3.2	-0.49	55.67	2.0191	404.9104
7486	1509393486	54.7309	-110.6530	870.0	240.0	1.2	2.0	3.2	-0.49	55.74	2.0177	404.4673
7487	1509393487	54.7317	-110.6530	870.1	240.1	0.7	2.5	3.1	-0.49	55.76	2.0163	405.1711
7488	1509393488	54.7324	-110.6529	870.0	240.0	0.7	2.4	3.0	-0.49	55.78	2.0150	403.1447
7489	1509393489	54.7331	-110.6529	869.8	239.8	0.9	2.4	3.0	-0.49	55.78	2.0174	408.4321
7490	1509393490	54.7338	-110.6528	869.4	239.4	1.1	2.2	3.0	-0.49	55.78	2.0182	408.4612
7491	1509393491	54.7346	-110.6527	869.5	239.5	1.4	2.1	3.0	-0.49	55.78	2.0182	405.7355
7492	1509393492	54.7353	-110.6527	869.9	239.9	1.2	2.4	2.9	-0.49	55.78	2.0246	403.6732
7493	1509393493	54.7360	-110.6526	870.2	240.2	1.8	1.7	3.2	-0.48	55.75	2.0241	403.8420
7494	1509393494	54.7367	-110.6526	869.9	239.9	1.6	2.1	3.3	-0.47	55.74	2.0172	403.4684
7495	1509393495	54.7374	-110.6525	869.3	239.3	1.7	2.0	3.4	-0.47	55.74	2.0179	403.9131
7496	1509393496	54.7382	-110.6524	869.0	233.6	1.8	2.0	3.3	-0.47	55.74	2.0192	403.2541
7497	1509393497	54.7389	-110.6523	869.4	233.4	2.1	1.7	3.3	-0.47	55.74	2.0192	404.8774
7498	1509393498	54.7396	-110.6523	869.9	233.9	2.1	1.8	3.2	-0.47	55.74	2.0193	400.8557
7499	1509393499	54.7403	-110.6522	870.3	232.3	1.4	2.5	3.4	-0.47	55.73	2.0187	403.3189
7500	1509393500	54.7410	-110.6521	872.3	232.7	1.6	2.3	3.2	-0.47	55.71	2.0178	403.4430
7501	1509393501	54.7418	-110.6521	876.6	232.0	2.0	1.9	2.7	-0.47	55.70	2.0175	403.3721
7502	1509393502	54.7424	-110.6520	881.5	235.1	1.7	2.5	2.7	-0.47	55.71	2.0185	404.7314
7503	1509393503	54.7432	-110.6519	885.9	237.9	2.4	1.8	2.9	-0.47	55.74	2.0190	404.4161
7504	1509393504	54.7439	-110.6518	889.1	241.8	2.1	2.5	3.0	-0.47	55.78	2.0197	405.5921
7505	1509393505	54.7446	-110.6518	891.7	245.4	2.2	2.5	3.1	-0.47	55.82	2.0165	404.6439
7506	1509393506	54.7453	-110.6517	893.8	249.0	1.9	2.9	3.0	-0.47	55.85	2.0127	403.9805
7507	1509393507	54.7459	-110.6516	895.6	251.3	2.0	2.8	3.3	-0.47	55.86	2.0126	403.9805
7508	1509393508	54.7466	-110.6515	897.0	253.0	1.9	3.1	3.1	-0.47	55.86	2.0103	404.4555
7509	1509393509	54.7473	-110.6514	897.9	253.4	1.7	3.3	3.0	-0.47	55.84	2.0125	404.4412
7510	1509393510	54.7480	-110.6513	898.4	252.8	1.6	3.5	2.8	-0.47	55.82	2.0127	403.6909
7511	1509393511	54.7487	-110.6512	899.2	254.2	2.0	2.9	2.5	-0.47	55.79	2.0112	403.8606
7512	1509393512	54.7494	-110.6512	899.4	254.9	2.1	2.6	2.9	-0.47	55.78	2.0119	404.2581
7513	1509393513	54.7501	-110.6511	899.4	253.3	1.6	3.0	2.9	-0.47	55.81	2.0124	403.7506
7514	1509393514	54.7508	-110.6510	899.1	252.1	1.9	2.4	3.1	-0.46	55.93	2.0123	403.3706
7515	1509393515	54.7515	-110.6509	899.2	250.7	1.9	2.7	3.1	-0.45	56.10	2.0126	404.1101
7516	1509393516	54.7521	-110.6508	898.6	249.0	1.8	3.8	3.2	-0.46	56.25	2.0132	403.7378
7517	1509393517	54.7528	-110.6507	897.4	247.7	5.5	4.1	3.1	-0.47	56.37	2.0149	403.8915
7518	1509393518	54.7535	-110.6505	896.9	246.0	10.8	4.3	2.9	-0.47	56.48	2.0147	404.3798
7519	1509393519	54.7542	-110.6501	896.6	246.5	18.0	3.1	3.0	-0.49	56.58	2.0153	405.6934
7520	1509393520	54.7548	-110.6497	897.0	246.9	24.2	3.4	2.6	-0.50	56.64	2.0134	404.0922
7521	1509393521	54.7554	-110.6491	898.9	247.9	30.2	3.6	1.9	-0.51	56.65	2.0097	405.1956
7522	1509393522	54.7560	-110.6484	902.0	251.0	36.7	3.1	1.4	-0.53	56.65	2.0080	405.1364
7523	1509393523	54.7565	-110.6476	905.8	253.8	43.3	3.2	0.9	-0.53	56.61	2.0001	405.6042
7524	1509393524	54.7570	-110.6468	909.6	257.6	50.4	3.5	1.0	-0.55	56.52	1.9946	405.8632
7525	1509393525	54.7574	-110.6458	912.3	260.3	58.5	3.2	1.6	-0.55	56.42	1.9913	405.0878
7526	1509393526	54.7577	-110.6447	913.9	261.9	65.6	3.9	1.7	-0.55	56.25	1.9937	405.0878
7527	1509393527	54.7579	-110.6436	913.0	260.0	70.7	4.5	2.1	-0.57	56.03	1.9945	405.3869
7528	1509393528	54.7581	-110.6426	909.3	256.3	76.5	4.6	2.5	-0.57	55.81	2.0000	405.3869
7529	1509393529	54.7583	-110.6414	904.7	250.7	81.8	4.1	1.4	-0.57	55.67	2.0065	405.6211
7530	1509393530	54.7583	-110.6402	900.2	246.2	88.1	3.4	2.0	-0.57	55.61	2.0088	404.1334
7531	1509393531	54.7584	-110.6391	896.7	242.7	92.6	3.2	2.8	-0.57	55.62	2.0100	404.7628
7532	1509393532	54.7583	-110.6378	894.3	239.3	94.5	3.0	2.6	-0.57	55.74	2.0097	403.6379
7533	1509393533	54.7583	-110.6366	891.7	235.7	94.9	2.8	2.2	-0.57	55.92	2.0096	403.1921
7534	1509393534	54.7583	-110.6354	889.5	233.5	96.4	2.9	2.9	-0.57	56.02	2.0093	403.8146
7535	1509393535	54.7582	-110.6342	888.8	231.8	96.2	2.7	2.2	-0.57	56.05	2.0083	402.9102
7536	1509393536	54.7582	-110.6330	888.1	231.1	97.0	2.5	2.8	-0.57	56.05	2.0085	404.1403
7537	1509393537	54.7581	-110.6318	887.4	230.4	97.1	2.6	2.9	-0.57	56.05	2.0057	404.1715
7538	1509393538	54.7580	-110.6306	886.7	229.7	97.1	2.8	3.3	-0.57	56.04	2.0059	404.0560
7539	1509393539	54.7580	-110.6294	885.2	228.2	96.6	2.9	3.2	-0.57	56.05	2.0063	404.7570
7540	1509393540	54.7579	-110.6282	883.2	226.2	95.1	3.0	2.3	-0.57	56.03	2.0067	403.7479
7541	1509393541	54.7579	-110.6270	881.2	224.2	95.0	2.9	2.7	-0.57	56.04	2.0051	403.2173
7542	1509393542	54.7579	-110.6258	879.1	222.1	94.8	3.0	2.8	-0.57	56.02	2.0043	403.5852
7543	1509393543	54.7578	-110.6245	877.5	220.5	94.4	2.8	2.5	-0.55	55.96	2.0033	403.8923
7544	1509393544	54.7578	-110.6233	876.0	218.0	94.2	2.8	2.4	-0.55	55.87	2.0049	401.5647
7545	1509393545	54.7578	-110.6221	874.8	215.8	94.2	2.5	2.5	-0.55	55.74	2.0027	403.5768
7546	1509393546	54.7577	-110.6208	873.8	214.8	94.3	2.6	2.5	-0.55	55.63	1.9995	404.3915
7547	1509393547	54.7577	-110.6196	873.1	214.1	94.2	2.7	2.3	-0.55	55.56	2.0025	402.9115
7548	1509393548	54.7577	-110.6184	872.5	213.5	94.6	2.7	2.8	-0.53	55.46	2.0038	405.4979
7549	1509393549	54.7577	-110.6172	873.1	214.1	94.8	2.5	3.0	-0.53	55.36	2.0046	403.6467
7550	1509393550	54.7576	-110.6159	876.1	217.1	94.0	2.5	2.2	-0.52	55.31	2.0035	401.5444
7551	1509393551	54.7576	-110.6147	879.4	219.4	94.0	2.2	2.8	-0.51	55.30	2.0041	403.0610
7552	1509393552	54.7576	-110.6135	882.1	221.0	93.0	1.8	2.3	-0.51	55.31	2.0038	402.8734
7553	1509393553	54.7576	-110.6123	884.5	222.5	91.9	2.0	1.7	-0.50	55.39	2.0042	402.6053
7554	1509393554	54.7576	-110.6111	886.0	224.0	92.3	1.9	2.7	-0.49	55.54	2.0043	402.5211
7555	1509393555	54.7576	-110.6098	886.3	223.4	91.8	2.4	2.1	-0.49	55.64	2.0039	403.7872
7556	1509393556	54.7576	-110.6086	886.1	222.1	91.6	2.0	1.9	-0.49	55.74	2.0028	403.3313
7557	1509393557	54.7576	-110.6074	887.0	223.0	91.9	1.6	2.5	-0.49	55.83	2.0034	402.1529
7558	1509393558	54.7576	-110.6062	890.0	226.0	92.0	1.6	2.8	-0.49	55.91	2.0012	402.1529
7559	1509393559	54.7576	-110.6050	893.5	229.5	91.5	1.8	2.4	-0.49	55.97	2.0000	403.7249
7560	1509393560	54.7576	-110.6038	896.9	232.9	92.0	2.0	2.9	-0.49	55.99	1.9998	403.9919
7561	1509393561	54.7576	-110.6027	898.9	233.9	91.6	2.4	2.4	-0.49	55.99	2.0007	402.7349
7562	1509393562	54.7576	-110.6015	899.6	233.8	91.3	2.5	2.3	-0.49	55.98	1.9999	404.4406
7563	1509393563	54.7576	-110.6003	899.9	232.9	91.5	2.2	2.7	-0.49	55.97	1.9997	402.8707
7564	1509393564	54.7576	-110.5991	899.7	230.8	91.1	2.0	2.2	-0.49	55.98	1.9994	402.9050
7565	1509393565	54.7576	-110.5979	899.3	228.6	91.1	2.1	2.2	-0.49	56.04	1.9995	402.9509
7566	1509393566	54.7576	-110.5967	898.6	227.6	91.1	2.1	2.0	-0.49	56.16	1.9997	403.7384
7567	1509393567	54.7576	-110.5956	898.6	227.6	91.5	1.9	2.5	-0.49	56.30	1.9981	403.7384
7568	1509393568	54.7576	-110.5944	899.6	229.6	91.4	1.7	2.3	-0.49	56.45	1.9983	403.3150
7569	1509393569	54.7576	-110.5932	900.8	230.8	91.6	1.9	2.5	-0.49	56.55	1.9997	403.1950
7570	1509393570	54.7576	-110.5920	902.4	231.4	92.2	1.9	3.4	-0.49	56.60	1.9981	403.0695
7571	1509393571	54.7576	-110.5908	904.1	232.1	91.6	2.4	3.0	-0.51	56.63	1.9965	403.0376
7572	1509393572	54.7576	-110.5896	905.1	232.1	91.0	2.8	2.6	-0.50	56.65	1.9953	402.7581
7573	1509393573	54.7577	-110.5884	906.0	232.0	91.2	3.2	3.1	-0.51	56.65	1.9925	401.2044
7574	1509393574	54.7577	-110.5873	907.0	233.0	90.8	3.6	2.9	-0.51	56.65	1.9910	404.1046
7575	1509393575	54.7577	-110.5861	908.2	235.2	90.4	3.7	2.6	-0.53	56.64	1.9917	404.0031
7576	1509393576	54.7577	-110.5849	909.0	235.0	89.9	4.1	2.2	-0.54	56.56	1.9880	405.1824
7577	1509393577	54.7577	-110.5837	909.6	235.6	89.5	4.2	2.0	-0.56	56.44	1.9847	405.1189
7578	1509393578	54.7578	-110.5826	909.5	235.5	89.8	4.2	2.2	-0.56	56.29	1.9823	404.5256
7579	1509393579	54.7578	-110.5814	909.1	235.1	90.4	3.9	2.4	-0.58	56.11	1.9835	405.4347
7580	1509393580	54.7578	-110.5802	908.9	234.9	91.1	3.9	2.6	-0.58	55.91	1.9936	403.4532
7581	1509393581	54.7578	-110.5790	909.1	235.1	91.1	3.4	2.6	-0.57	55.74	1.9958	402.9199
7582	1509393582	54.7578	-110.5778	909.8	235.8	91.5	2.9	3.3	-0.57	55.65	1.9933	401.7169
7583	1509393583	54.7578	-110.5767	910.5	236.5	91.0	2.4	3.0	-0.57	55.61	1.9890	401.9209
7584	1509393584	54.7578	-110.5755	911.3	236.3	90.8	2.9	2.9	-0.59	55.62	1.9929	402.6299
7585	1509393585	54.7579	-110.5743	911.5	236.5	90.9	3.4	2.7	-0.59	55.74	1.9957	403.9313
7586	1509393586	54.7579	-110.5731	912.1	237.1	90.7	3.5	2.2	-0.59	55.81	1.9944	403.5893
7587	1509393587	54.7579	-110.5719	912.4	237.4	91.3	3.0	2.6	-0.59	55.83	1.9967	401.3469
7588	1509393588	54.7579	-110.5707	912.4	237.4	90.7	3.1	1.7	-0.59	55.90	1.9968	402.2276
7589	1509393589	54.7579	-110.5695	912.3	237.3	91.2	2.2	2.0	-0.59	56.00	1.9954	402.9809
7590	1509393590	54.7579	-110.5684	912.2	238.2	92.0	1.6	2.7	-0.60	56.08	1.9957	402.9809
7591	1509393591	54.7579	-110.5672	912.2	238.2	92.9	1.6	3.3	-0.61	56.14	1.9946	403.3732
7592	1509393592	54.7579	-110.5660	912.5	238.5	93.3	1.6	3.4	-0.61	56.19	1.9945	403.5913
7593	1509393593	54.7579	-110.5648	912.9	238.9	93.6	1.6	3.6	-0.61	56.23	1.9924	403.6220
7594	1509393594	54.7579	-110.5636	913.5	239.5	93.4	1.9	3.3	-0.61	56.29	1.9919	403.0781
7595	1509393595	54.7579	-110.5624	913.4	239.4	93.6	2.1	3.6	-0.61	56.31	1.9906	402.9124
7596	1509393596	54.7578	-110.5612	913.5	239.5	93.9	2.5	3.7	-0.63	56.33	1.9902	404.1789
7597	1509393597	54.7578	-110.5601	913.7	238.7	92.8	2.6	2.4	-0.63	56.33	1.9929	403.5582
7598	1509393598	54.7578	-110.5589	914.0	239.0	93.2	2.4	2.9	-0.63	56.33	1.9933	403.3337
7599	1509393599	54.7578	-110.5577	915.4	239.4	93.2	2.1	3.1	-0.63	56.33	1.9928	403.9335
7600	1509393600	54.7578	-110.5565	917.3	240.3	93.0	2.1	2.8	-0.63	56.33	1.9893	404.5277
7601	1509393601	54.7578	-110.5553	919.5	241.5	92.6	2.4	2.6	-0.63	56.32	1.9908	403.0341
7602	1509393602	54.7578	-110.5542	921.6	243.6	92.9	2.5	3.1	-0.63	56.34	1.9926	403.9127
7603	1509393603	54.7578	-110.5530	923.6	245.6	92.4	2.2	2.7	-0.63	56.30	1.9928	403.1729
7604	1509393604	54.7578	-110.5518	925.2	248.3	93.0	2.3	3.6	-0.64	56.25	1.9951	402.8538
7605	1509393605	54.7578	-110.5506	926.1	247.0	93.1	2.8	3.7	-0.65	56.25	1.9944	403.0787
7606	1509393606	54.7578	-110.5495	927.1	248.1	91.6	3.0	2.4	-0.65	56.24	1.9926	403.9411
7607	1509393607	54.7578	-110.5483	928.6	250.6	92.0	2.9	3.1	-0.65	56.27	1.9917	403.3301
7608	1509393608	54.7578	-110.5471	929.5	251.5	91.9	3.0	2.9	-0.65	56.35	1.9919	404.0759
7609	1509393609	54.7578	-110.5460	929.6	251.6	91.5	3.5	2.5	-0.65	56.40	1.9928	401.8631
7610	1509393610	54.7578	-110.5448	929.2	251.2	91.3	3.6	2.4	-0.65	56.41	1.9929	404.4873
7611	1509393611	54.7578	-110.5436	929.2	251.2	91.1	3.2	2.5	-0.67	56.42	1.9914	403.8567
7612	1509393612	54.7578	-110.5425	929.5	251.4	91.4	3.3	2.9	-0.67	56.45	1.9905	403.8126
7613	1509393613	54.7578	-110.5413	930.2	252.2	90.5	3.8	2.0	-0.67	56.50	1.9901	404.0322
7614	1509393614	54.7578	-110.5401	930.9	252.9	91.2	3.8	2.8	-0.67	56.55	1.9899	404.0322
7615	1509393615	54.7579	-110.5389	931.8	253.8	91.2	3.3	2.7	-0.67	56.55	1.9854	404.0427
7616	1509393616	54.7579	-110.5378	932.6	254.6	91.0	4.3	2.4	-0.69	56.55	1.9861	404.1514
7617	1509393617	54.7579	-110.5366	933.4	255.4	90.4	4.3	1.8	-0.69	56.53	1.9806	404.5935
7618	1509393618	54.7579	-110.5354	933.5	255.5	91.2	4.5	2.3	-0.69	56.48	1.9766	404.6975
7619	1509393619	54.7579	-110.5342	933.0	255.0	91.1	4.7	2.1	-0.69	56.39	1.9803	405.5954
7620	1509393620	54.7579	-110.5330	931.6	252.6	91.5	5.0	2.6	-0.69	56.26	1.9770	404.4019
7621	1509393621	54.7579	-110.5319	930.1	251.1	91.2	4.3	2.0	-0.69	56.11	1.9726	404.1562
7622	1509393622	54.7579	-110.5307	929.4	249.4	90.9	4.3	1.3	-0.69	55.97	1.9848	404.5418
7623	1509393623	54.7579	-110.5295	928.9	247.9	92.3	4.5	2.7	-0.69	55.82	1.9905	403.6427
7624	1509393624	54.7579	-110.5283	927.9	246.9	92.6	3.9	2.8	-0.69	55.67	1.9921	403.8014
7625	1509393625	54.7579	-110.5272	927.3	245.3	92.5	3.7	3.0	-0.69	55.60	1.9930	403.4473
7626	1509393626	54.7579	-110.5259	927.1	245.1	92.2	4.2	2.9	-0.69	55.58	1.9914	403.8352
7627	1509393627	54.7579	-110.5247	927.0	245.0	91.3	4.4	2.1	-0.69	55.61	1.9903	403.7469
7628	1509393628	54.7579	-110.5235	926.4	245.4	91.6	4.3	2.8	-0.69	55.67	1.9895	400.9846
7629	1509393629	54.7579	-110.5223	925.8	243.8	91.4	4.3	2.9	-0.69	55.73	1.9889	403.4800
7630	1509393630	54.7579	-110.5211	925.4	243.4	91.2	4.5	2.8	-0.69	55.79	1.9886	403.8870
7631	1509393631	54.7579	-110.5199	924.7	241.8	90.9	4.7	2.5	-0.69	55.82	1.9885	403.7754
7632	1509393632	54.7580	-110.5187	924.4	240.4	91.5	4.5	3.1	-0.69	55.84	1.9897	403.3695
7633	1509393633	54.7580	-110.5175	924.4	247.7	91.0	4.1	2.6	-0.69	55.85	1.9883	402.8861
7634	1509393634	54.7580	-110.5162	924.1	256.1	91.3	3.7	2.8	-0.69	55.85	1.9863	403.6476
7635	1509393635	54.7580	-110.5150	923.8	264.2	91.7	3.5	2.8	-0.69	55.83	1.9897	402.2208
7636	1509393636	54.7580	-110.5138	924.1	270.1	91.7	3.4	2.5	-0.69	55.79	1.9912	402.6645
7637	1509393637	54.7580	-110.5126	924.1	269.8	92.1	3.5	3.1	-0.69	55.73	1.9894	402.8759
7638	1509393638	54.7580	-110.5114	923.7	266.7	92.1	3.5	3.0	-0.69	55.67	1.9921	403.5313
7639	1509393639	54.7580	-110.5102	922.5	263.1	92.2	3.5	3.2	-0.69	55.65	1.9924	403.8399
7640	1509393640	54.7580	-110.5089	920.9	255.6	92.4	3.4	3.3	-0.69	55.63	1.9913	403.8295
7641	1509393641	54.7580	-110.5077	919.3	243.8	92.3	3.4	3.5	-0.69	55.62	1.9919	401.2612
7642	1509393642	54.7580	-110.5065	917.7	236.8	91.9	3.3	3.4	-0.68	55.62	1.9928	403.2190
7643	1509393643	54.7580	-110.5053	916.7	233.0	90.9	3.3	2.6	-0.66	55.63	1.9944	402.6612
7644	1509393644	54.7580	-110.5040	916.1	230.3	90.5	3.5	2.3	-0.67	55.64	1.9958	403.6112
7645	1509393645	54.7580	-110.5028	915.5	228.4	90.6	3.5	2.5	-0.67	55.66	1.9957	402.6643
7646	1509393646	54.7581	-110.5015	914.6	226.3	91.3	3.0	3.5	-0.68	55.72	1.9939	403.6839
7647	1509393647	54.7581	-110.5003	913.7	224.6	91.1	2.7	2.9	-0.67	55.79	1.9943	403.0548
7648	1509393648	54.7581	-110.4991	912.6	222.8	91.3	2.8	2.9	-0.68	55.87	1.9941	402.9530
7649	1509393649	54.7581	-110.4978	911.7	222.9	91.7	3.0	3.3	-0.69	55.92	1.9951	401.9789
7650	1509393650	54.7581	-110.4966	910.6	222.5	91.3	3.5	2.8	-0.69	55.96	1.9947	401.8311
7651	1509393651	54.7581	-110.4954	910.1	222.7	91.2	3.0	2.7	-0.69	55.98	1.9951	403.1722
7652	1509393652	54.7581	-110.4941	911.7	223.2	91.1	2.7	2.7	-0.69	55.98	1.9951	403.0091
7653	1509393653	54.7581	-110.4929	914.8	225.5	91.3	2.8	2.8	-0.69	56.00	1.9907	403.3241
7654	1509393654	54.7581	-110.4917	917.5	227.2	91.3	3.0	2.6	-0.69	56.03	1.9914	403.7623
7655	1509393655	54.7582	-110.4904	919.5	229.5	91.8	3.8	2.9	-0.69	56.01	1.9919	403.2178
7656	1509393656	54.7582	-110.4892	920.8	231.8	92.1	4.2	2.8	-0.69	55.99	1.9934	402.7654
7657	1509393657	54.7582	-110.4880	921.9	233.6	92.0	4.1	2.4	-0.69	55.86	1.9948	402.7440
7658	1509393658	54.7582	-110.4868	922.7	234.6	92.4	4.1	2.5	-0.69	55.72	1.9950	402.6661
7659	1509393659	54.7581	-110.4856	923.5	237.0	92.6	3.6	2.4	-0.69	55.62	1.9961	402.4728
7660	1509393660	54.7581	-110.4843	924.9	240.0	93.0	3.4	2.8	-0.69	55.58	1.9960	403.4365
7661	1509393661	54.7581	-110.4831	926.8	242.4	93.2	3.1	3.0	-0.69	55.62	1.9954	403.3688
7662	1509393662	54.7581	-110.4819	927.9	242.8	93.4	3.8	3.3	-0.69	55.71	1.9964	402.2146
7663	1509393663	54.7581	-110.4807	927.7	241.7	92.8	4.1	2.9	-0.69	55.78	1.9958	401.5005
7664	1509393664	54.7581	-110.4795	927.4	241.1	92.2	4.2	2.7	-0.69	55.80	1.9933	402.2125
7665	1509393665	54.7581	-110.4783	927.2	240.3	91.9	4.3	2.8	-0.69	55.82	1.9930	403.4374
7666	1509393666	54.7581	-110.4771	926.9	239.9	91.7	4.4	2.9	-0.69	55.82	1.9935	401.4434
7667	1509393667	54.7581	-110.4759	926.9	238.8	91.4	4.4	2.9	-0.69	55.82	1.9940	401.4434
7668	1509393668	54.7581	-110.4746	926.9	237.9	91.6	4.2	3.3	-0.69	55.82	1.9943	402.7407
7669	1509393669	54.7581	-110.4734	926.7	237.7	91.6	4.1	3.0	-0.69	55.84	1.9949	402.3846
7670	1509393670	54.7581	-110.4722	926.5	238.2	91.2	3.9	2.5	-0.69	55.86	1.9954	402.2066
7671	1509393671	54.7582	-110.4710	926.2	238.2	91.3	3.7	2.6	-0.70	55.88	1.9922	402.8793
7672	1509393672	54.7582	-110.4698	925.8	237.7	91.3	4.0	2.7	-0.71	55.90	1.9936	402.6162
7673	1509393673	54.7582	-110.4686	925.4	238.4	91.5	4.4	2.9	-0.71	55.91	1.9934	403.3556
7674	1509393674	54.7582	-110.4673	925.4	238.4	91.2	4.2	2.4	-0.71	55.90	1.9911	401.7455
7675	1509393675	54.7582	-110.4661	925.9	237.9	91.1	3.6	2.2	-0.71	55.88	1.9893	402.0226
7676	1509393676	54.7582	-110.4649	926.9	238.1	91.7	3.1	3.0	-0.71	55.87	1.9892	402.0159
7677	1509393677	54.7582	-110.4637	929.5	240.3	92.3	2.7	3.6	-0.71	55.89	1.9910	403.0872
7678	1509393678	54.7582	-110.4625	932.6	244.4	91.9	2.4	3.3	-0.71	56.01	1.9900	402.7702
7679	1509393679	54.7582	-110.4613	934.5	248.2	92.2	2.3	3.6	-0.71	56.15	1.9910	402.7593
7680	1509393680	54.7582	-110.4601	936.0	251.1	90.9	2.7	2.2	-0.71	56.25	1.9919	402.3848
7681	1509393681	54.7582	-110.4589	937.3	254.2	91.4	3.0	3.1	-0.71	56.32	1.9894	403.2283
7682	1509393682	54.7582	-110.4577	938.8	257.4	90.8	2.8	2.4	-0.71	56.37	1.9892	402.0059
7683	1509393683	54.7583	-110.4564	940.5	260.4	90.5	2.7	2.2	-0.72	56.42	1.9917	403.2848
7684	1509393684	54.7583	-110.4552	942.6	264.3	90.8	3.0	2.7	-0.73	56.46	1.9901	403.3329
7685	1509393685	54.7583	-110.4541	944.0	265.7	90.3	2.9	2.2	-0.74	56.48	1.9892	401.3747
7686	1509393686	54.7583	-110.4529	944.9	266.5	90.8	2.9	2.9	-0.74	56.50	1.9877	401.3747
7687	1509393687	54.7583	-110.4517	945.7	268.4	90.8	2.8	2.8	-0.76	56.53	1.9880	401.3348
7688	1509393688	54.7583	-110.4505	946.2	266.9	90.7	3.3	2.7	-0.75	56.60	1.9866	401.9810
7689	1509393689	54.7584	-110.4493	945.7	265.2	90.4	3.9	2.4	-0.76	56.70	1.9858	402.1747
7690	1509393690	54.7584	-110.4481	944.6	263.0	90.2	3.8	2.1	-0.78	56.78	1.9863	402.9508
7691	1509393691	54.7584	-110.4469	943.1	261.7	90.9	3.9	2.5	-0.79	56.84	1.9840	402.3503
7692	1509393692	54.7584	-110.4457	942.2	263.3	91.4	4.0	2.6	-0.79	56.89	1.9813	402.5391
7693	1509393693	54.7584	-110.4445	942.4	266.7	91.9	4.0	2.7	-0.80	56.91	1.9795	403.7228
7694	1509393694	54.7584	-110.4433	942.8	270.8	92.1	3.7	2.8	-0.83	56.92	1.9763	404.2116
7695	1509393695	54.7584	-110.4421	943.3	271.6	92.4	3.3	3.1	-0.84	56.91	1.9735	402.8036
7696	1509393696	54.7584	-110.4409	943.4	270.7	91.7	3.5	2.2	-0.85	56.81	1.9793	403.2281
7697	1509393697	54.7584	-110.4397	943.2	270.2	91.6	3.3	2.2	-0.86	56.56	1.9835	403.0890
7698	1509393698	54.7584	-110.4385	943.1	271.2	92.1	3.2	2.6	-0.86	56.32	1.9829	403.0296
7699	1509393699	54.7584	-110.4373	943.2	273.0	91.8	2.9	2.4	-0.86	56.13	1.9833	402.8277
7700	1509393700	54.7584	-110.4361	943.0	274.4	91.4	2.9	2.1	-0.86	56.09	1.9825	402.3024
7701	1509393701	54.7584	-110.4349	942.6	274.8	91.5	3.2	2.1	-0.86	56.15	1.9813	402.1833
7702	1509393702	54.7584	-110.4337	942.5	277.1	92.0	3.0	2.6	-0.86	56.38	1.9775	402.1833
7703	1509393703	54.7584	-110.4325	942.2	280.0	92.3	2.9	2.9	-0.86	56.60	1.9708	402.9808
7704	1509393704	54.7584	-110.4313	941.6	282.8	91.8	3.5	2.3	-0.86	56.72	1.9757	402.8169
7705	1509393705	54.7584	-110.4300	940.2	284.8	91.8	4.2	2.3	-0.86	56.75	1.9800	403.1315
7706	1509393706	54.7584	-110.4289	938.9	287.0	92.0	3.6	2.4	-0.86	56.62	1.9733	402.6644
7707	1509393707	54.7584	-110.4276	937.4	287.9	92.3	3.3	2.7	-0.86	56.51	1.9700	403.5264
7708	1509393708	54.7584	-110.4265	934.4	287.2	92.4	3.6	2.7	-0.86	56.47	1.9747	403.1946
7709	1509393709	54.7584	-110.4252	929.2	282.5	92.1	3.9	2.6	-0.86	56.41	1.9804	403.4592
7710	1509393710	54.7584	-110.4239	923.3	276.3	91.3	3.4	2.3	-0.84	56.18	1.9812	402.3263
7711	1509393711	54.7584	-110.4227	919.0	272.1	91.1	2.5	2.6	-0.84	56.11	1.9803	401.6068
7712	1509393712	54.7584	-110.4215	916.5	270.6	91.1	2.4	2.8	-0.83	56.08	1.9789	403.2042
7713	1509393713	54.7584	-110.4202	914.4	268.9	90.8	2.5	2.1	-0.82	56.06	1.9780	401.4469
7714	1509393714	54.7584	-110.4189	912.7	267.7	91.0	2.3	2.6	-0.81	56.03	1.9759	402.1420
7715	1509393715	54.7584	-110.4176	911.0	266.0	91.5	2.9	3.1	-0.80	55.98	1.9768	402.5589
7716	1509393716	54.7585	-110.4164	909.8	264.9	91.2	2.5	2.8	-0.79	55.93	1.9760	402.4573
7717	1509393717	54.7585	-110.4151	909.5	264.0	91.7	2.5	3.0	-0.78	55.83	1.9777	402.2338
7718	1509393718	54.7585	-110.4138	909.7	264.7	91.9	2.4	3.1	-0.77	55.66	1.9794	402.0482
7719	1509393719	54.7585	-110.4126	909.6	264.7	91.9	2.9	3.0	-0.76	55.53	1.9790	401.7293
7720	1509393720	54.7585	-110.4113	908.6	263.9	91.1	2.4	2.1	-0.75	55.41	1.9792	402.9462
7721	1509393721	54.7585	-110.4101	907.2	263.3	91.8	2.5	2.5	-0.73	55.33	1.9788	401.9398
7722	1509393722	54.7585	-110.4088	905.1	262.4	91.8	2.6	2.1	-0.71	55.29	1.9797	403.3337
7723	1509393723	54.7585	-110.4075	903.3	263.0	91.8	2.2	2.1	-0.69	55.27	1.9798	402.9095
7724	1509393724	54.7585	-110.4063	902.0	265.0	92.3	2.2	2.7	-0.69	55.26	1.9796	401.6400
7725	1509393725	54.7585	-110.4050	900.0	265.0	92.4	2.7	2.8	-0.66	55.28	1.9814	401.6400
7726	1509393726	54.7585	-110.4037	898.5	265.4	92.1	3.0	2.4	-0.62	55.32	1.9798	401.4705
7727	1509393727	54.7585	-110.4024	897.4	265.4	92.1	2.6	2.5	-0.61	55.36	1.9787	402.8301
7728	1509393728	54.7585	-110.4011	896.5	264.5	92.0	2.6	2.4	-0.60	55.39	1.9800	401.2653
7729	1509393729	54.7585	-110.3999	895.5	263.5	91.8	2.2	2.4	-0.60	55.40	1.9792	402.0692
7730	1509393730	54.7585	-110.3986	894.7	262.7	92.0	2.1	2.7	-0.59	55.40	1.9801	401.3856
7731	1509393731	54.7584	-110.3973	893.6	260.6	91.9	2.2	2.3	-0.57	55.40	1.9805	401.7792
7732	1509393732	54.7584	-110.3960	892.3	257.3	92.1	2.2	2.5	-0.58	55.36	1.9780	401.2841
7733	1509393733	54.7584	-110.3948	890.6	253.6	92.6	2.7	3.1	-0.59	55.30	1.9814	402.6486
7734	1509393734	54.7584	-110.3935	888.1	247.8	92.1	3.1	2.4	-0.57	55.23	1.9798	401.5811
7735	1509393735	54.7584	-110.3922	885.8	241.8	92.5	3.1	3.0	-0.57	55.14	1.9790	401.9585
7736	1509393736	54.7584	-110.3909	884.0	237.9	92.3	2.8	3.0	-0.57	55.07	1.9781	402.2265
7737	1509393737	54.7584	-110.3896	882.1	236.1	91.9	2.9	2.8	-0.55	54.98	1.9774	401.7518
7738	1509393738	54.7584	-110.3883	880.8	235.8	91.9	2.8	3.1	-0.55	54.90	1.9761	400.8267
7739	1509393739	54.7584	-110.3870	879.4	233.4	91.8	2.5	3.4	-0.53	54.84	1.9772	403.5402
7740	1509393740	54.7584	-110.3857	877.9	231.9	91.3	2.6	3.0	-0.53	54.78	1.9766	402.2839
7741	1509393741	54.7585	-110.3845	876.7	229.7	91.5	2.6	3.0	-0.52	54.75	1.9755	403.2301
7742	1509393742	54.7585	-110.3832	875.7	228.7	91.9	2.5	3.3	-0.51	54.72	1.9744	401.6636
7743	1509393743	54.7585	-110.3819	875.2	228.2	92.5	2.5	4.0	-0.51	54.67	1.9746	403.6589
7744	1509393744	54.7585	-110.3806	874.8	228.6	92.4	2.4	4.0	-0.51	54.61	1.9747	401.8299
7745	1509393745	54.7585	-110.3793	874.7	228.7	92.1	2.2	3.6	-0.50	54.56	1.9753	401.6025
7746	1509393746	54.7585	-110.3780	875.6	229.3	91.8	2.0	3.2	-0.49	54.54	1.9746	401.6025
7747	1509393747	54.7585	-110.3767	878.7	231.7	91.7	2.0	3.1	-0.48	54.52	1.9736	403.1286
7748	1509393748	54.7585	-110.3755	881.5	234.2	91.6	2.1	3.0	-0.47	54.49	1.9739	402.5531
7749	1509393749	54.7585	-110.3742	883.8	236.9	91.6	2.2	3.0	-0.45	54.47	1.9750	403.5419
7750	1509393750	54.7585	-110.3729	886.4	239.4	92.1	2.4	3.6	-0.45	54.47	1.9741	402.9835
7751	1509393751	54.7585	-110.3717	888.3	242.1	92.2	2.6	3.8	-0.45	54.45	1.9747	403.4209
7752	1509393752	54.7585	-110.3704	889.4	243.4	91.6	2.3	3.2	-0.43	54.44	1.9744	402.7086
7753	1509393753	54.7585	-110.3692	890.6	244.6	91.4	2.1	2.9	-0.43	54.43	1.9757	403.1291
7754	1509393754	54.7585	-110.3679	891.1	245.1	91.5	2.0	3.2	-0.43	54.43	1.9748	402.8101
7755	1509393755	54.7586	-110.3667	891.6	245.6	91.3	2.4	3.0	-0.43	54.45	1.9751	402.6644
7756	1509393756	54.7586	-110.3655	891.4	245.4	91.4	2.3	3.4	-0.43	54.50	1.9735	403.5425
7757	1509393757	54.7586	-110.3643	890.9	243.9	91.5	2.7	3.4	-0.43	54.57	1.9755	402.8246
7758	1509393758	54.7586	-110.3630	890.9	242.6	90.5	3.2	1.8	-0.43	54.66	1.9769	402.4320
7759	1509393759	54.7586	-110.3618	890.6	240.5	90.7	3.3	1.8	-0.43	54.72	1.9764	401.4895
7760	1509393760	54.7586	-110.3605	890.0	239.0	91.3	3.3	2.0	-0.43	54.75	1.9759	403.1874
7761	1509393761	54.7586	-110.3593	889.4	238.4	91.0	2.9	1.7	-0.43	54.75	1.9743	402.9360
7762	1509393762	54.7586	-110.3580	888.7	237.7	92.0	2.9	2.7	-0.43	54.75	1.9761	405.3106
7763	1509393763	54.7586	-110.3568	888.1	237.1	91.7	2.6	2.5	-0.43	54.78	1.9761	404.4284
7764	1509393764	54.7586	-110.3555	887.3	237.3	92.0	2.6	3.1	-0.43	54.89	1.9754	404.2590
7765	1509393765	54.7586	-110.3543	886.2	237.2	91.5	2.9	2.5	-0.43	55.04	1.9745	403.1295
7766	1509393766	54.7586	-110.3531	885.1	237.1	91.5	3.1	2.5	-0.43	55.10	1.9748	403.1295
7767	1509393767	54.7586	-110.3519	884.1	236.1	91.5	3.1	2.6	-0.43	55.13	1.9769	403.5445
7768	1509393768	54.7586	-110.3506	884.2	236.2	91.4	3.0	2.7	-0.43	55.14	1.9754	404.5907
7769	1509393769	54.7586	-110.3493	886.1	239.1	90.7	2.6	2.0	-0.43	55.14	1.9754	405.0612
7770	1509393770	54.7587	-110.3481	888.9	241.9	90.9	2.6	2.1	-0.43	55.16	1.9756	404.5035
7771	1509393771	54.7587	-110.3469	891.3	243.2	91.3	2.8	2.1	-0.43	55.23	1.9758	401.4360
7772	1509393772	54.7587	-110.3456	893.0	245.0	91.7	3.2	2.4	-0.43	55.31	1.9756	402.6305
7773	1509393773	54.7587	-110.3445	893.5	245.5	92.6	3.4	3.3	-0.43	55.34	1.9760	403.6759
7774	1509393774	54.7587	-110.3432	893.9	244.9	92.1	3.3	2.7	-0.43	55.34	1.9766	401.8593
7775	1509393775	54.7587	-110.3420	893.9	244.9	92.5	3.6	3.1	-0.43	55.32	1.9777	403.0298
7776	1509393776	54.7587	-110.3407	893.8	244.8	92.3	3.8	2.7	-0.42	55.30	1.9758	401.6794
7777	1509393777	54.7587	-110.3395	893.8	244.8	92.4	3.8	2.7	-0.41	55.30	1.9763	402.4389
7778	1509393778	54.7587	-110.3383	893.3	244.3	92.5	3.9	2.8	-0.44	55.29	1.9776	402.5822
7779	1509393779	54.7586	-110.3371	892.8	243.8	92.1	3.9	2.4	-0.43	55.27	1.9746	402.5057
7780	1509393780	54.7586	-110.3359	892.3	243.3	92.4	4.0	2.7	-0.42	55.23	1.9749	404.1023
7781	1509393781	54.7586	-110.3347	892.1	243.1	92.2	3.8	2.6	-0.43	55.19	1.9742	403.3985
7782	1509393782	54.7586	-110.3334	891.9	242.9	92.3	3.0	2.9	-0.44	55.16	1.9769	402.6644
7783	1509393783	54.7586	-110.3322	891.0	241.0	92.7	3.2	3.4	-0.43	55.16	1.9764	403.3744
7784	1509393784	54.7586	-110.3310	890.3	239.3	91.5	3.8	2.0	-0.44	55.18	1.9758	403.3744
7785	1509393785	54.7586	-110.3297	890.2	239.2	91.6	4.2	2.3	-0.45	55.17	1.9760	402.4303
7786	1509393786	54.7586	-110.3285	890.5	239.5	91.4	4.1	2.1	-0.46	55.09	1.9756	404.4607
7787	1509393787	54.7586	-110.3273	891.4	240.4	91.1	3.6	2.1	-0.47	54.98	1.9752	404.6178
7788	1509393788	54.7587	-110.3260	892.3	241.3	91.2	3.4	2.4	-0.47	54.89	1.9751	404.6178
7789	1509393789	54.7587	-110.3249	893.5	242.5	90.9	2.3	2.3	-0.47	54.86	1.9731	405.5339
7790	1509393790	54.7587	-110.3236	894.8	243.8	90.9	2.2	2.3	-0.47	54.89	1.9744	405.0594
7791	1509393791	54.7587	-110.3224	896.0	245.0	90.7	2.0	2.2	-0.47	55.04	1.9737	405.9182
7792	1509393792	54.7587	-110.3212	897.4	246.4	90.8	1.8	2.4	-0.47	55.21	1.9751	404.1668
7793	1509393793	54.7587	-110.3200	898.3	248.3	91.0	2.2	2.5	-0.47	55.34	1.9749	405.1391
7794	1509393794	54.7587	-110.3187	899.2	249.2	90.5	2.5	1.8	-0.47	55.43	1.9727	404.3595
7795	1509393795	54.7587	-110.3175	900.3	251.3	91.2	2.4	2.6	-0.47	55.48	1.9744	405.5025
7796	1509393796	54.7587	-110.3163	901.5	252.5	91.2	1.9	2.3	-0.47	55.51	1.9738	403.7150
7797	1509393797	54.7587	-110.3151	901.9	252.9	91.8	2.2	3.1	-0.47	55.52	1.9732	403.7150
7798	1509393798	54.7587	-110.3139	902.4	254.4	91.5	2.2	2.6	-0.48	55.52	1.9746	404.5388
7799	1509393799	54.7588	-110.3127	902.9	254.9	91.3	2.1	2.6	-0.49	55.52	1.9728	406.1083
7800	1509393800	54.7588	-110.3115	903.1	255.1	91.9	2.5	3.3	-0.49	55.52	1.9735	405.0207
7801	1509393801	54.7588	-110.3103	903.1	255.1	91.7	2.7	3.3	-0.50	55.52	1.9734	406.6400
7802	1509393802	54.7588	-110.3091	903.2	256.2	91.5	2.7	3.1	-0.50	55.52	1.9738	408.4152
7803	1509393803	54.7588	-110.3079	903.5	256.5	91.3	2.7	2.9	-0.50	55.52	1.9742	408.4152
7804	1509393804	54.7588	-110.3067	904.0	258.3	91.1	2.5	2.6	-0.51	55.54	1.9741	408.1613
7805	1509393805	54.7588	-110.3055	904.4	260.4	90.7	2.2	2.2	-0.52	55.60	1.9744	408.1839
7806	1509393806	54.7588	-110.3043	905.0	262.3	90.8	2.4	2.4	-0.54	55.71	1.9757	407.0481
7807	1509393807	54.7588	-110.3031	905.3	264.3	91.3	2.7	3.0	-0.53	55.78	1.9756	406.0479
7808	1509393808	54.7588	-110.3019	905.7	266.0	91.4	2.7	3.2	-0.55	55.82	1.9726	404.9179
7809	1509393809	54.7589	-110.3007	906.1	268.0	91.1	2.7	2.7	-0.57	55.84	1.9728	404.7571
7810	1509393810	54.7589	-110.2994	906.4	270.4	91.1	2.8	2.6	-0.57	55.83	1.9729	406.5510
7811	1509393811	54.7589	-110.2983	906.7	272.7	91.2	3.3	2.3	-0.57	55.74	1.9733	405.3976
7812	1509393812	54.7589	-110.2971	906.2	273.2	91.1	3.4	2.1	-0.59	55.66	1.9735	405.5557
7813	1509393813	54.7589	-110.2958	904.6	272.2	91.5	3.6	2.8	-0.59	55.61	1.9739	405.5799
7814	1509393814	54.7589	-110.2946	902.8	272.5	91.1	3.7	2.1	-0.59	55.60	1.9737	406.3389
7815	1509393815	54.7589	-110.2934	903.5	275.2	90.6	3.0	0.2	-0.59	55.58	1.9749	407.3424
7816	1509393816	54.7589	-110.2922	906.4	281.4	93.4	2.4	-0.1	-0.59	55.56	1.9741	406.6163
7817	1509393817	54.7588	-110.2910	909.5	284.5	98.4	2.9	0.2	-0.59	55.57	1.9733	403.7214
7818	1509393818	54.7587	-110.2898	910.7	286.7	105.3	2.6	0.7	-0.59	55.59	1.9737	408.7855
7819	1509393819	54.7585	-110.2887	910.2	287.3	114.2	2.5	1.4	-0.59	55.60	1.9738	407.4347
7820	1509393820	54.7582	-110.2877	909.4	286.4	124.1	2.1	1.5	-0.61	55.62	1.9734	412.0812
7821	1509393821	54.7578	-110.2868	908.7	285.8	134.0	2.5	1.6	-0.61	55.62	1.9729	412.5933
7822	1509393822	54.7573	-110.2860	908.5	284.8	143.0	2.0	1.6	-0.61	55.66	1.9740	413.1281
7823	1509393823	54.7568	-110.2853	909.0	282.6	150.7	1.3	1.5	-0.61	55.74	1.9741	414.0526
7824	1509393824	54.7562	-110.2848	908.5	279.5	158.0	1.8	1.8	-0.61	55.80	1.9726	412.3000
7825	1509393825	54.7556	-110.2844	905.6	274.2	165.6	1.9	1.7	-0.61	55.87	1.9706	409.8510
7826	1509393826	54.7549	-110.2842	902.2	268.1	172.4	1.9	1.8	-0.61	55.94	1.9711	409.9939
7827	1509393827	54.7543	-110.2841	898.4	264.6	176.8	1.6	1.9	-0.61	56.02	1.9710	410.8382
7828	1509393828	54.7536	-110.2840	893.1	260.1	179.5	1.4	1.8	-0.62	56.10	1.9720	411.3060
7829	1509393829	54.7530	-110.2840	886.4	256.1	183.0	2.4	1.5	-0.63	56.15	1.9728	410.5849
7830	1509393830	54.7523	-110.2841	880.0	251.0	185.1	1.3	1.8	-0.63	56.16	1.9705	410.5849
7831	1509393831	54.7516	-110.2842	874.5	248.5	188.2	0.7	2.0	-0.63	56.17	1.9711	413.2077
7832	1509393832	54.7510	-110.2844	870.0	246.4	192.5	0.7	2.1	-0.63	56.16	1.9696	417.9737
7833	1509393833	54.7503	-110.2847	866.6	245.4	196.8	1.5	2.1	-0.63	56.12	1.9688	415.8559
7834	1509393834	54.7497	-110.2850	863.7	244.9	200.5	2.8	2.0	-0.63	56.05	1.9694	414.6805
7835	1509393835	54.7490	-110.2854	863.0	244.8	201.4	1.8	2.7	-0.63	55.92	1.9709	416.2000
7836	1509393836	54.7484	-110.2859	864.3	246.5	202.8	2.4	2.3	-0.62	55.78	1.9705	412.5459
7837	1509393837	54.7478	-110.2863	865.2	246.4	203.3	2.2	2.3	-0.61	55.63	1.9687	406.4306
7838	1509393838	54.7472	-110.2868	865.9	246.9	203.2	1.9	2.5	-0.60	55.50	1.9689	407.2726
7839	1509393839	54.7465	-110.2872	866.6	247.5	203.9	2.3	2.3	-0.58	55.36	1.9690	409.9806
7840	1509393840	54.7459	-110.2877	867.1	248.2	203.9	2.1	2.1	-0.57	55.24	1.9672	410.2719
7841	1509393841	54.7453	-110.2881	867.5	248.5	204.9	3.7	1.5	-0.56	55.16	1.9658	409.1925
7842	1509393842	54.7447	-110.2886	866.9	248.9	203.1	3.1	1.8	-0.54	55.08	1.9672	406.6175
7843	1509393843	54.7440	-110.2890	865.9	248.8	199.8	2.6	2.2	-0.53	55.00	1.9671	407.6512
7844	1509393844	54.7434	-110.2893	864.8	247.8	197.5	3.0	2.2	-0.52	54.92	1.9653	405.6140
7845	1509393845	54.7427	-110.2896	863.5	246.5	194.4	1.7	2.3	-0.49	54.85	1.9672	406.0106
7846	1509393846	54.7421	-110.2899	862.1	245.1	193.7	2.0	2.5	-0.50	54.80	1.9665	405.3055
7847	1509393847	54.7414	-110.2901	860.3	243.3	193.6	2.4	2.2	-0.48	54.77	1.9650	404.1169
7848	1509393848	54.7408	-110.2904	859.0	242.0	193.7	2.8	2.0	-0.47	54.75	1.9646	403.5937
7849	1509393849	54.7401	-110.2906	858.7	241.7	193.0	2.6	2.1	-0.49	54.70	1.9643	403.6292
7850	1509393850	54.7394	-110.2908	859.1	243.1	192.3	2.9	2.3	-0.49	54.63	1.9652	404.3765
7851	1509393851	54.7388	-110.2910	860.8	244.8	191.0	2.4	2.6	-0.47	54.57	1.9641	404.5671
7852	1509393852	54.7382	-110.2912	863.5	247.5	190.2	2.7	2.5	-0.46	54.53	1.9631	403.5954
7853	1509393853	54.7374	-110.2914	865.6	249.6	189.9	3.5	2.5	-0.46	54.49	1.9634	404.6081
7854	1509393854	54.7368	-110.2915	866.7	250.7	188.6	2.8	2.3	-0.44	54.41	1.9626	404.4989
7855	1509393855	54.7362	-110.2916	866.5	250.5	188.1	2.9	2.3	-0.43	54.28	1.9634	403.7087
7856	1509393856	54.7355	-110.2918	865.4	249.4	187.6	2.7	2.7	-0.42	54.19	1.9645	404.2858
7857	1509393857	54.7348	-110.2919	865.3	249.3	186.9	2.4	2.9	-0.41	54.14	1.9627	404.1701
7858	1509393858	54.7341	-110.2920	866.4	250.4	186.2	1.8	2.6	-0.41	54.11	1.9626	402.9743
7859	1509393859	54.7335	-110.2921	867.4	251.7	185.8	2.1	2.7	-0.41	54.11	1.9651	403.1470
7860	1509393860	54.7328	-110.2922	867.6	252.6	185.2	2.6	2.2	-0.41	54.13	1.9624	403.1470
7861	1509393861	54.7321	-110.2922	868.9	254.9	184.3	2.4	2.5	-0.40	54.18	1.9637	403.2785
7862	1509393862	54.7315	-110.2923	870.3	257.3	184.0	2.5	2.7	-0.39	54.21	1.9623	403.5907
7863	1509393863	54.7308	-110.2923	871.3	259.0	184.1	2.8	2.8	-0.39	54.22	1.9626	404.0730
7864	1509393864	54.7302	-110.2923	871.7	259.7	183.8	2.4	2.9	-0.37	54.23	1.9622	404.8579
7865	1509393865	54.7295	-110.2924	871.2	259.2	183.7	2.4	2.8	-0.37	54.23	1.9633	404.0101
7866	1509393866	54.7289	-110.2924	870.5	259.5	183.6	2.3	2.8	-0.38	54.23	1.9628	404.9557
7867	1509393867	54.7282	-110.2925	870.2	259.2	183.6	2.7	2.7	-0.37	54.25	1.9631	403.3853
7868	1509393868	54.7275	-110.2925	870.2	259.2	183.6	2.6	2.4	-0.38	54.28	1.9637	404.5354
7869	1509393869	54.7268	-110.2925	870.5	259.4	183.1	2.5	2.6	-0.36	54.31	1.9630	405.3643
7870	1509393870	54.7262	-110.2925	870.9	258.9	183.7	3.2	2.5	-0.37	54.32	1.9624	404.3079
7871	1509393871	54.7256	-110.2926	871.5	258.5	182.5	2.0	2.4	-0.39	54.34	1.9640	405.2869
7872	1509393872	54.7249	-110.2926	872.0	258.0	182.7	2.4	2.4	-0.39	54.36	1.9639	406.2929
7873	1509393873	54.7242	-110.2926	872.8	258.8	181.8	1.4	2.4	-0.39	54.40	1.9640	405.6791
7874	1509393874	54.7236	-110.2926	873.8	259.8	181.6	1.2	1.9	-0.39	54.51	1.9647	406.6435
7875	1509393875	54.7229	-110.2926	874.5	260.5	182.4	2.3	1.9	-0.39	54.68	1.9673	407.2280
7876	1509393876	54.7222	-110.2926	875.7	261.7	182.5	2.3	2.0	-0.39	54.81	1.9659	407.2280
7877	1509393877	54.7216	-110.2927	876.2	262.2	182.0	1.7	1.8	-0.39	54.91	1.9650	406.8773
7878	1509393878	54.7209	-110.2927	876.6	263.7	181.2	0.9	1.8	-0.39	55.05	1.9657	405.2738
7879	1509393879	54.7203	-110.2927	877.4	265.4	181.2	1.2	2.1	-0.39	55.19	1.9658	407.0890
7880	1509393880	54.7196	-110.2927	876.7	264.6	181.6	1.8	2.5	-0.39	55.30	1.9653	407.0455
7881	1509393881	54.7190	-110.2927	875.4	264.4	181.3	1.8	2.5	-0.39	55.39	1.9654	406.2698
7882	1509393882	54.7183	-110.2927	874.9	264.9	180.9	1.7	2.1	-0.39	55.48	1.9645	406.9537
7883	1509393883	54.7176	-110.2927	874.4	264.4	181.0	1.7	2.7	-0.39	55.52	1.9630	407.0498
7884	1509393884	54.7170	-110.2927	873.8	263.8	180.6	0.7	2.9	-0.39	55.54	1.9633	406.7385
7885	1509393885	54.7163	-110.2927	873.4	264.5	181.9	1.5	2.3	-0.39	55.54	1.9634	405.3578
7886	1509393886	54.7157	-110.2927	873.5	264.5	182.4	1.8	1.9	-0.40	55.54	1.9619	405.9325
7887	1509393887	54.7150	-110.2927	874.2	265.2	183.0	2.1	2.0	-0.41	55.52	1.9629	406.0415
7888	1509393888	54.7143	-110.2928	875.5	266.5	182.9	2.0	2.2	-0.41	55.45	1.9627	406.3468
7889	1509393889	54.7137	-110.2928	877.0	268.0	183.6	2.5	2.3	-0.41	55.38	1.9629	405.8570
7890	1509393890	54.7130	-110.2928	878.5	269.5	183.4	2.1	2.0	-0.41	55.31	1.9655	405.7012
7891	1509393891	54.7124	-110.2929	879.9	270.9	184.0	2.6	2.1	-0.41	55.27	1.9642	405.5217
7892	1509393892	54.7117	-110.2929	881.5	273.5	184.3	2.7	1.8	-0.41	55.25	1.9635	406.6153
7893	1509393893	54.7111	-110.2930	883.4	275.4	184.3	2.4	2.1	-0.41	55.24	1.9644	407.3307
7894	1509393894	54.7104	-110.2930	885.6	277.6	184.2	1.9	2.5	-0.41	55.24	1.9641	406.8058
7895	1509393895	54.7098	-110.2931	888.1	280.1	183.7	1.3	2.7	-0.41	55.27	1.9625	405.7546
7896	1509393896	54.7092	-110.2931	890.2	282.2	184.6	2.7	2.4	-0.41	55.37	1.9592	405.9510
7897	1509393897	54.7085	-110.2932	892.0	284.0	184.9	3.2	2.4	-0.41	55.43	1.9585	404.4625
7898	1509393898	54.7079	-110.2932	893.7	285.7	184.7	3.3	2.1	-0.43	55.45	1.9572	404.1514
7899	1509393899	54.7072	-110.2933	894.7	286.7	184.6	3.5	2.1	-0.43	55.39	1.9569	403.8941
7900	1509393900	54.7066	-110.2933	894.9	286.9	184.6	3.9	2.3	-0.43	55.18	1.9554	404.0584
7901	1509393901	54.7060	-110.2933	893.1	285.1	184.8	4.5	2.1	-0.43	54.97	1.9570	405.7580
7902	1509393902	54.7053	-110.2933	889.6	281.6	184.3	4.6	2.0	-0.43	54.75	1.9582	407.2409
7903	1509393903	54.7047	-110.2933	885.5	275.8	183.2	3.9	2.0	-0.43	54.62	1.9586	407.2036
7904	1509393904	54.7040	-110.2933	881.1	271.1	182.2	3.1	1.9	-0.43	54.57	1.9596	407.5725
7905	1509393905	54.7033	-110.2933	876.3	266.3	183.0	3.7	1.9	-0.44	54.55	1.9592	407.9844
7906	1509393906	54.7027	-110.2934	872.9	262.9	183.3	3.3	2.0	-0.45	54.53	1.9600	405.4432
7907	1509393907	54.7020	-110.2934	871.2	261.2	183.8	3.6	2.1	-0.45	54.53	1.9596	407.5736
7908	1509393908	54.7014	-110.2934	871.2	262.3	184.1	3.7	2.1	-0.45	54.53	1.9594	409.1155
7909	1509393909	54.7007	-110.2934	872.6	263.6	183.6	3.2	2.3	-0.45	54.53	1.9589	408.0506
7910	1509393910	54.7000	-110.2934	874.0	265.0	183.9	3.9	2.5	-0.45	54.52	1.9581	408.5569
7911	1509393911	54.6994	-110.2935	875.1	266.1	183.6	3.5	2.6	-0.45	54.45	1.9579	408.3377
7912	1509393912	54.6987	-110.2935	876.2	267.2	184.1	4.0	2.5	-0.45	54.32	1.9590	408.1850
7913	1509393913	54.6980	-110.2935	877.0	268.0	184.1	3.7	2.3	-0.44	54.24	1.9577	407.2945
7914	1509393914	54.6974	-110.2935	878.0	269.9	183.7	3.2	2.5	-0.43	54.16	1.9556	407.0075
7915	1509393915	54.6967	-110.2936	879.2	272.3	183.8	3.3	2.6	-0.43	54.11	1.9548	407.0075
7916	1509393916	54.6961	-110.2936	880.2	274.2	184.4	4.0	2.6	-0.43	54.04	1.9573	408.9672
7917	1509393917	54.6954	-110.2936	880.6	273.6	184.4	3.8	2.3	-0.43	53.94	1.9583	409.1291
7918	1509393918	54.6948	-110.2937	880.9	273.9	184.3	3.5	2.3	-0.43	53.83	1.9587	408.9639
7919	1509393919	54.6941	-110.2937	880.0	274.0	184.3	3.5	2.3	-0.43	53.79	1.9596	408.8679
7920	1509393920	54.6935	-110.2937	877.9	273.0	183.7	2.8	2.2	-0.43	53.82	1.9581	407.1755
7921	1509393921	54.6928	-110.2937	875.0	270.0	183.1	2.4	2.8	-0.42	53.99	1.9580	409.7465
7922	1509393922	54.6921	-110.2938	872.6	267.6	183.2	2.3	2.6	-0.41	54.18	1.9591	408.3575
7923	1509393923	54.6915	-110.2938	870.7	265.7	184.1	3.1	2.4	-0.41	54.30	1.9605	407.9591
7924	1509393924	54.6908	-110.2939	870.1	266.0	184.9	3.3	2.8	-0.41	54.40	1.9585	408.7364
7925	1509393925	54.6902	-110.2939	870.3	268.4	183.9	1.6	2.9	-0.41	54.49	1.9604	409.0491
7926	1509393926	54.6895	-110.2940	869.6	267.7	183.9	2.0	3.4	-0.41	54.63	1.9587	409.0491
7927	1509393927	54.6888	-110.2940	868.4	265.4	184.8	3.4	2.8	-0.41	54.75	1.9594	408.8781
7928	1509393928	54.6882	-110.2940	867.4	264.7	182.9	1.6	2.6	-0.40	54.83	1.9602	409.0016
7929	1509393929	54.6875	-110.2941	865.5	263.5	183.6	2.9	2.9	-0.38	54.86	1.9609	407.7662
7930	1509393930	54.6868	-110.2941	863.6	262.6	183.3	2.8	3.2	-0.37	54.88	1.9618	407.9332
7931	1509393931	54.6862	-110.2941	861.7	260.7	183.6	3.2	3.1	-0.38	54.89	1.9609	407.7301
7932	1509393932	54.6855	-110.2942	860.4	260.4	183.6	2.9	3.0	-0.37	54.89	1.9619	407.4500
7933	1509393933	54.6848	-110.2942	859.6	260.6	184.0	3.3	3.0	-0.36	54.87	1.9626	407.4278
7934	1509393934	54.6841	-110.2942	859.1	260.1	184.0	3.2	3.0	-0.35	54.80	1.9618	406.3247
7935	1509393935	54.6834	-110.2943	858.6	259.6	184.4	3.6	2.9	-0.35	54.64	1.9626	405.8881
7936	1509393936	54.6828	-110.2943	856.9	257.9	184.6	3.8	3.1	-0.35	54.46	1.9631	407.1971
7937	1509393937	54.6821	-110.2943	854.8	255.8	184.6	3.6	3.2	-0.34	54.24	1.9630	407.3901
7938	1509393938	54.6814	-110.2944	853.1	254.1	185.0	3.7	3.0	-0.33	54.03	1.9625	407.1877
7939	1509393939	54.6807	-110.2944	851.8	252.8	185.0	3.8	2.6	-0.31	53.92	1.9629	407.9776
7940	1509393940	54.6801	-110.2945	850.3	251.3	184.5	2.9	2.0	-0.31	53.86	1.9612	406.2528
7941	1509393941	54.6794	-110.2945	849.1	250.1	183.5	2.2	2.2	-0.29	53.87	1.9589	404.7893
7942	1509393942	54.6787	-110.2946	847.3	248.3	185.2	4.4	2.7	-0.29	53.89	1.9610	406.0412
7943	1509393943	54.6780	-110.2946	845.6	246.6	184.7	3.6	3.2	-0.27	53.87	1.9601	407.1812
7944	1509393944	54.6774	-110.2947	845.6	246.6	184.3	2.7	3.5	-0.27	53.79	1.9618	405.7988
7945	1509393945	54.6767	-110.2947	847.0	248.0	184.3	2.8	3.2	-0.25	53.76	1.9586	404.3948
7946	1509393946	54.6760	-110.2948	847.7	249.0	184.6	3.4	3.0	-0.24	53.77	1.9560	405.5367
7947	1509393947	54.6753	-110.2948	848.0	250.0	183.8	2.9	3.1	-0.22	53.78	1.9593	405.8407
7948	1509393948	54.6747	-110.2948	847.5	249.5	183.9	3.7	3.0	-0.20	53.63	1.9589	405.4399
7949	1509393949	54.6740	-110.2949	846.2	248.2	183.2	3.1	2.9	-0.18	53.37	1.9595	403.3021
7950	1509393950	54.6733	-110.2949	845.3	247.3	183.0	3.0	2.5	-0.17	53.18	1.9617	405.7956
7951	1509393951	54.6726	-110.2949	844.1	246.1	183.0	2.8	2.6	-0.14	53.14	1.9629	405.4090
7952	1509393952	54.6719	-110.2949	843.1	245.1	182.5	2.0	2.9	-0.11	53.14	1.9638	405.8618
7953	1509393953	54.6713	-110.2949	841.8	243.8	183.3	2.8	2.8	-0.09	53.17	1.9660	405.9382
7954	1509393954	54.6706	-110.2950	840.5	242.5	183.4	2.5	2.6	-0.09	53.30	1.9691	404.9571
7955	1509393955	54.6699	-110.2950	840.2	243.2	182.8	1.6	2.3	-0.07	53.53	1.9676	405.4481
7956	1509393956	54.6692	-110.2950	840.2	243.2	182.8	1.5	2.3	-0.05	53.87	1.9689	405.5097
7957	1509393957	54.6685	-110.2951	839.8	242.8	183.0	1.8	2.2	-0.04	54.23	1.9718	405.5717
7958	1509393958	54.6679	-110.2951	839.2	242.2	183.3	1.8	2.2	-0.03	54.47	1.9725	405.1767
7959	1509393959	54.6672	-110.2952	839.2	241.2	182.3	0.7	2.3	-0.03	54.65	1.9742	404.2821
7960	1509393960	54.6665	-110.2952	839.2	241.2	182.7	1.2	1.8	-0.03	54.88	1.9731	404.8129
7961	1509393961	54.6658	-110.2952	839.2	242.2	182.9	1.7	2.4	-0.02	55.12	1.9723	404.8129
7962	1509393962	54.6651	-110.2953	838.5	241.8	183.2	2.0	2.8	-0.01	55.26	1.9714	402.7919
7963	1509393963	54.6645	-110.2953	837.7	241.7	183.2	1.9	2.4	-0.01	55.31	1.9716	404.3244
7964	1509393964	54.6638	-110.2953	836.4	241.4	183.0	1.7	2.3	-0.01	55.32	1.9742	404.3244
7965	1509393965	54.6631	-110.2954	835.4	240.4	183.2	2.0	2.4	-0.01	55.32	1.9769	404.0940
7966	1509393966	54.6624	-110.2954	835.9	240.9	182.5	1.4	2.6	-0.01	55.34	1.9754	403.3048
7967	1509393967	54.6618	-110.2954	836.1	242.1	183.1	2.4	2.2	0.00	55.51	1.9715	405.4127
7968	1509393968	54.6611	-110.2955	836.2	242.2	182.4	1.9	2.3	0.01	55.64	1.9704	406.9050
7969	1509393969	54.6604	-110.2955	836.2	242.2	183.0	3.1	2.3	0.01	55.65	1.9727	404.9622
7970	1509393970	54.6597	-110.2955	836.1	242.1	182.0	1.8	2.0	0.01	55.51	1.9725	405.3859
7971	1509393971	54.6591	-110.2955	835.7	242.7	182.3	2.2	2.1	0.01	55.33	1.9731	406.0351
7972	1509393972	54.6584	-110.2955	835.1	242.1	182.5	2.1	2.3	0.01	55.25	1.9723	405.2569
7973	1509393973	54.6577	-110.2955	834.5	242.8	182.6	2.2	2.5	0.02	55.17	1.9769	404.0468
7974	1509393974	54.6570	-110.2956	833.3	243.3	183.2	2.5	2.7	0.03	55.05	1.9787	403.6119
7975	1509393975	54.6563	-110.2956	832.0	243.0	182.4	1.0	2.7	0.05	55.01	1.9792	402.3654
7976	1509393976	54.6557	-110.2956	830.2	241.3	183.6	2.2	2.3	0.06	55.16	1.9805	402.6664
7977	1509393977	54.6550	-110.2957	828.3	240.3	183.7	1.8	2.2	0.05	55.52	1.9801	404.1808
7978	1509393978	54.6544	-110.2957	827.0	240.2	182.9	1.1	2.0	0.05	55.86	1.9785	404.1808
7979	1509393979	54.6537	-110.2958	824.8	237.8	183.5	1.7	1.8	0.06	56.03	1.9774	403.7140
7980	1509393980	54.6530	-110.2958	822.6	236.6	183.3	1.4	1.8	0.05	56.13	1.9785	402.4266
7981	1509393981	54.6523	-110.2959	821.0	236.0	183.7	1.8	2.2	0.06	56.13	1.9795	402.2330
7982	1509393982	54.6516	-110.2959	819.5	236.2	184.0	1.9	2.7	0.05	56.00	1.9817	403.0869
7983	1509393983	54.6509	-110.2960	818.7	237.0	183.9	1.7	3.1	0.06	55.76	1.9805	402.6239
7984	1509393984	54.6502	-110.2960	817.9	241.2	183.8	1.6	3.1	0.04	55.67	1.9805	402.4237
7985	1509393985	54.6495	-110.2961	818.0	245.0	183.9	1.6	3.1	0.05	55.66	1.9805	401.5285
7986	1509393986	54.6488	-110.2962	819.0	246.0	183.9	1.6	2.7	0.05	55.66	1.9807	402.5290
7987	1509393987	54.6482	-110.2962	819.9	246.9	184.3	2.0	2.5	0.05	55.67	1.9808	401.3211
7988	1509393988	54.6475	-110.2963	820.9	247.9	184.4	2.0	2.5	0.06	55.74	1.9813	402.0585
7989	1509393989	54.6468	-110.2963	821.5	248.5	184.8	2.5	2.1	0.07	55.90	1.9798	401.5907
7990	1509393990	54.6461	-110.2964	821.6	248.6	184.9	2.9	2.6	0.08	55.98	1.9755	402.2651
7991	1509393991	54.6454	-110.2965	821.6	248.6	183.9	2.1	2.2	0.09	55.96	1.9742	403.4314
7992	1509393992	54.6447	-110.2965	821.1	248.1	183.8	2.4	2.7	0.11	55.66	1.9737	403.6368
7993	1509393993	54.6441	-110.2965	820.3	247.3	183.9	2.6	2.7	0.11	55.17	1.9744	402.6676
7994	1509393994	54.6434	-110.2966	819.8	246.8	183.8	2.4	2.9	0.13	54.69	1.9789	405.0000
7995	1509393995	54.6427	-110.2966	819.3	246.3	183.9	2.5	2.9	0.15	54.26	1.9809	403.9784
7996	1509393996	54.6420	-110.2967	819.1	246.1	183.4	1.7	2.5	0.17	54.05	1.9809	404.0314
7997	1509393997	54.6414	-110.2967	819.0	246.0	182.9	1.1	2.5	0.17	54.05	1.9810	403.9871
7998	1509393998	54.6407	-110.2968	819.2	246.2	183.1	1.3	2.2	0.17	54.13	1.9808	403.9871
7999	1509393999	54.6400	-110.2968	819.1	246.1	183.5	1.7	2.0	0.19	54.36	1.9724	404.1659
8000	1509394000	54.6393	-110.2969	817.8	244.8	183.7	1.7	1.9	0.19	54.49	1.9739	404.5600
8001	1509394001	54.6386	-110.2969	815.7	242.7	184.5	2.2	1.7	0.20	54.57	1.9767	404.0207
8002	1509394002	54.6380	-110.2970	813.7	240.7	184.8	2.0	1.6	0.21	54.46	1.9784	404.0918
8003	1509394003	54.6373	-110.2971	812.4	239.4	184.9	2.3	1.9	0.21	54.16	1.9778	404.4484
8004	1509394004	54.6366	-110.2971	811.0	238.0	183.8	1.3	2.0	0.22	54.01	1.9734	403.9449
8005	1509394005	54.6359	-110.2972	809.4	236.4	183.9	2.3	2.1	0.23	54.04	1.9761	404.5335
8006	1509394006	54.6352	-110.2972	807.4	234.4	184.6	3.0	2.1	0.23	54.07	1.9788	405.0407
8007	1509394007	54.6346	-110.2973	806.3	233.3	183.1	1.5	2.5	0.25	54.05	1.9781	404.9312
8008	1509394008	54.6339	-110.2973	805.3	232.3	184.0	2.2	2.3	0.25	54.04	1.9753	405.4722
8009	1509394009	54.6332	-110.2974	804.0	231.0	183.2	1.3	2.1	0.25	54.17	1.9738	404.5878
8010	1509394010	54.6325	-110.2974	801.7	228.7	184.3	2.3	1.8	0.25	54.24	1.9742	404.9938
8011	1509394011	54.6318	-110.2975	799.9	226.9	184.8	2.6	1.9	0.27	54.11	1.9781	405.9913
8012	1509394012	54.6311	-110.2975	799.2	226.2	185.0	2.5	2.2	0.28	53.69	1.9802	405.5279
8013	1509394013	54.6304	-110.2976	799.1	226.1	184.3	1.5	2.2	0.29	53.55	1.9804	404.8222
8014	1509394014	54.6298	-110.2977	799.8	226.8	183.4	0.5	1.8	0.30	53.80	1.9780	403.5485
8015	1509394015	54.6291	-110.2977	801.3	228.3	183.3	0.4	1.5	0.31	54.25	1.9771	404.9665
8016	1509394016	54.6284	-110.2978	802.8	229.8	183.8	0.8	1.4	0.34	54.52	1.9767	404.4897
8017	1509394017	54.6277	-110.2979	803.9	230.9	184.5	1.7	1.5	0.35	54.49	1.9787	404.9038
8018	1509394018	54.6270	-110.2979	804.9	231.9	184.5	1.6	1.6	0.36	54.33	1.9779	404.5597
8019	1509394019	54.6264	-110.2980	806.0	233.0	184.5	2.2	1.4	0.37	54.18	1.9773	404.2829
8020	1509394020	54.6257	-110.2981	807.4	234.4	184.4	2.4	2.0	0.38	54.07	1.9773	404.3081
8021	1509394021	54.6250	-110.2981	807.9	234.9	182.9	1.2	1.7	0.39	54.02	1.9764	404.6302
8022	1509394022	54.6243	-110.2982	808.0	235.0	182.9	1.4	1.6	0.40	54.00	1.9737	405.5124
8023	1509394023	54.6236	-110.2982	807.9	234.9	183.0	1.5	1.7	0.39	54.06	1.9739	403.9278
8024	1509394024	54.6230	-110.2982	807.5	234.5	183.3	1.9	1.6	0.40	54.10	1.9724	406.1568
8025	1509394025	54.6223	-110.2983	807.5	234.5	183.5	2.2	2.2	0.39	54.08	1.9731	406.1568
8026	1509394026	54.6216	-110.2983	807.2	234.2	183.7	2.6	1.7	0.40	53.86	1.9751	406.1626
8027	1509394027	54.6209	-110.2983	807.0	234.0	183.7	2.1	1.2	0.39	53.75	1.9724	406.1060
8028	1509394028	54.6203	-110.2984	808.5	235.5	182.7	0.9	1.5	0.40	53.70	1.9728	406.1060
8029	1509394029	54.6196	-110.2984	810.6	237.6	183.5	1.5	1.7	0.40	53.69	1.9733	408.2988
8030	1509394030	54.6189	-110.2985	812.5	239.5	183.9	1.8	2.0	0.40	53.71	1.9726	407.1422
8031	1509394031	54.6183	-110.2985	813.8	240.8	184.8	2.7	2.1	0.39	53.73	1.9735	404.5766
8032	1509394032	54.6176	-110.2986	814.5	241.5	184.5	2.2	1.8	0.39	53.75	1.9726	406.8739
8033	1509394033	54.6169	-110.2987	815.3	242.3	184.2	2.0	2.2	0.40	53.77	1.9729	407.0309
8034	1509394034	54.6163	-110.2987	815.8	242.8	185.0	2.8	2.0	0.40	53.82	1.9720	406.9698
8035	1509394035	54.6156	-110.2988	816.1	243.1	184.7	2.6	1.5	0.42	53.87	1.9715	404.1133
8036	1509394036	54.6150	-110.2988	816.3	243.3	184.2	2.4	1.8	0.41	53.90	1.9715	404.6328
8037	1509394037	54.6143	-110.2989	816.2	243.2	183.9	2.5	2.0	0.42	53.92	1.9707	404.4924
8038	1509394038	54.6136	-110.2989	817.0	244.0	183.2	1.9	2.5	0.42	53.92	1.9709	402.6628
8039	1509394039	54.6130	-110.2989	818.0	245.0	183.1	2.1	2.9	0.42	53.91	1.9696	402.6628
8040	1509394040	54.6123	-110.2990	818.8	245.8	183.2	2.2	2.6	0.40	53.90	1.9687	403.1761
8041	1509394041	54.6116	-110.2990	819.6	246.6	182.7	1.6	2.6	0.40	53.95	1.9680	402.5947
8042	1509394042	54.6110	-110.2990	820.3	247.3	182.8	1.6	2.7	0.38	54.10	1.9682	401.9782
8043	1509394043	54.6103	-110.2991	821.1	248.1	183.6	2.2	2.5	0.40	54.22	1.9657	401.7916
8044	1509394044	54.6097	-110.2991	821.8	248.8	184.2	2.8	2.5	0.39	54.23	1.9664	401.7916
8045	1509394045	54.6090	-110.2991	821.9	248.9	184.6	3.3	2.7	0.36	54.11	1.9648	402.0642
8046	1509394046	54.6084	-110.2992	822.1	249.1	184.4	3.0	3.0	0.35	53.86	1.9667	401.9242
8047	1509394047	54.6077	-110.2992	822.9	249.9	184.0	2.3	3.4	0.36	53.67	1.9648	402.1393
8048	1509394048	54.6071	-110.2993	824.1	251.1	183.4	1.5	3.1	0.35	53.60	1.9634	400.9508
8049	1509394049	54.6064	-110.2993	824.7	251.7	185.0	3.3	2.5	0.35	53.65	1.9617	401.5666
8050	1509394050	54.6057	-110.2994	825.1	252.1	184.6	3.0	2.6	0.35	53.70	1.9635	402.6892
8051	1509394051	54.6051	-110.2994	825.5	252.5	185.0	3.7	2.6	0.35	53.58	1.9653	402.7595
8052	1509394052	54.6044	-110.2995	825.6	252.6	185.1	3.6	2.7	0.33	53.24	1.9649	402.5041
8053	1509394053	54.6038	-110.2995	826.7	253.7	183.3	1.7	3.0	0.33	53.15	1.9621	401.0526
8054	1509394054	54.6031	-110.2996	828.2	255.2	184.4	3.3	2.5	0.33	53.14	1.9614	401.3541
8055	1509394055	54.6025	-110.2996	829.4	256.4	184.6	3.4	2.7	0.33	53.22	1.9596	400.9757
8056	1509394056	54.6018	-110.2996	830.2	257.2	184.6	3.3	2.7	0.33	53.19	1.9609	401.7081
8057	1509394057	54.6012	-110.2997	830.6	257.6	185.0	3.6	2.7	0.33	53.01	1.9633	402.6658
8058	1509394058	54.6006	-110.2997	830.3	257.3	184.9	3.1	2.7	0.31	52.81	1.9623	402.6658
8059	1509394059	54.5999	-110.2998	829.6	256.6	185.2	3.5	3.1	0.31	52.79	1.9621	401.9680
8060	1509394060	54.5993	-110.2998	829.3	256.3	185.0	3.2	2.7	0.31	52.80	1.9638	402.9991
8061	1509394061	54.5986	-110.2999	829.2	256.2	184.3	2.7	3.1	0.31	52.86	1.9636	401.5754
8062	1509394062	54.5980	-110.2999	829.3	256.3	184.1	2.7	3.2	0.31	52.99	1.9647	401.8222
8063	1509394063	54.5973	-110.3000	829.5	256.5	184.5	3.3	3.6	0.31	53.12	1.9629	402.1139
8064	1509394064	54.5967	-110.3000	829.7	256.7	184.8	3.3	3.4	0.32	53.20	1.9638	402.2302
8065	1509394065	54.5960	-110.3001	830.3	257.3	184.9	3.0	3.4	0.31	53.21	1.9626	402.3711
8066	1509394066	54.5954	-110.3001	830.8	257.8	185.0	2.8	3.5	0.31	53.22	1.9618	404.1380
8067	1509394067	54.5948	-110.3002	831.7	255.8	185.4	3.2	3.6	0.31	53.21	1.9628	404.3729
8068	1509394068	54.5941	-110.3002	832.5	255.4	185.7	3.3	3.7	0.31	53.21	1.9627	404.9547
8069	1509394069	54.5935	-110.3003	833.2	256.5	185.5	3.1	3.8	0.31	53.23	1.9619	404.8682
8070	1509394070	54.5928	-110.3004	834.0	259.0	185.6	3.3	3.6	0.31	53.24	1.9616	406.1578
8071	1509394071	54.5922	-110.3004	834.6	259.6	185.7	3.5	3.6	0.30	53.31	1.9620	405.1067
8072	1509394072	54.5915	-110.3005	835.0	259.3	185.5	3.4	4.0	0.29	53.38	1.9614	404.1821
8073	1509394073	54.5909	-110.3006	835.5	259.5	184.4	2.3	3.9	0.29	53.44	1.9619	402.6668
8074	1509394074	54.5903	-110.3006	836.0	260.4	183.9	2.3	3.6	0.29	53.55	1.9617	402.2242
8075	1509394075	54.5896	-110.3006	836.1	259.5	184.6	3.3	3.6	0.29	53.70	1.9603	402.7550
8076	1509394076	54.5890	-110.3007	836.3	258.5	183.6	2.3	3.7	0.29	53.86	1.9599	402.1740
8077	1509394077	54.5884	-110.3007	836.4	256.6	184.5	3.2	3.7	0.27	54.02	1.9600	402.0218
8078	1509394078	54.5877	-110.3008	836.1	254.3	184.3	2.5	3.7	0.27	54.17	1.9604	402.2466
8079	1509394079	54.5871	-110.3008	836.0	252.3	184.0	2.0	3.5	0.26	54.30	1.9607	402.2035
8080	1509394080	54.5865	-110.3009	836.4	252.3	184.4	2.5	3.2	0.25	54.44	1.9598	401.9077
8081	1509394081	54.5858	-110.3009	836.6	254.7	184.3	2.3	3.2	0.24	54.52	1.9599	401.3462
8082	1509394082	54.5852	-110.3010	837.5	256.5	183.8	1.9	3.4	0.23	54.54	1.9609	400.6681
8083	1509394083	54.5845	-110.3010	838.2	257.2	184.8	3.0	3.3	0.22	54.58	1.9618	402.5663
8084	1509394084	54.5839	-110.3011	839.0	258.1	184.7	3.0	3.3	0.20	54.64	1.9605	401.2673
8085	1509394085	54.5833	-110.3011	839.7	259.5	185.1	3.6	3.4	0.20	54.68	1.9623	401.0263
8086	1509394086	54.5826	-110.3011	841.0	261.3	184.1	2.5	3.1	0.20	54.72	1.9620	401.0917
8087	1509394087	54.5820	-110.3012	843.1	264.1	183.8	2.3	3.8	0.19	54.82	1.9608	396.6199
8088	1509394088	54.5814	-110.3012	845.0	266.0	184.0	2.5	3.5	0.20	54.98	1.9622	401.9440
8089	1509394089	54.5807	-110.3013	846.5	268.2	183.7	2.1	3.1	0.20	55.14	1.9632	400.8451
8090	1509394090	54.5801	-110.3013	846.8	268.8	184.2	2.7	2.9	0.17	55.30	1.9609	401.3998
8091	1509394091	54.5795	-110.3014	845.6	267.6	184.3	2.9	2.7	0.17	55.44	1.9604	401.4436
8092	1509394092	54.5789	-110.3014	845.0	266.7	183.4	2.3	2.6	0.18	55.56	1.9626	401.3121
8093	1509394093	54.5782	-110.3014	844.6	266.3	183.3	3.0	2.9	0.14	55.68	1.9618	400.6828
8094	1509394094	54.5776	-110.3014	843.7	265.4	182.7	2.6	2.8	0.13	55.75	1.9608	401.2606
8095	1509394095	54.5769	-110.3014	842.5	264.2	182.7	2.8	2.6	0.11	55.79	1.9591	400.7250
8096	1509394096	54.5763	-110.3015	842.0	263.6	183.1	3.3	2.9	0.11	55.79	1.9581	400.7783
8097	1509394097	54.5757	-110.3015	841.3	263.3	183.5	3.8	2.5	0.09	55.72	1.9569	400.6920
8098	1509394098	54.5750	-110.3015	841.4	264.4	183.0	3.3	2.8	0.09	55.49	1.9578	400.2320
8099	1509394099	54.5744	-110.3015	841.6	265.7	182.7	3.2	2.9	0.08	55.24	1.9588	401.0795
8100	1509394100	54.5737	-110.3015	840.9	264.8	182.2	2.8	3.1	0.07	55.06	1.9586	400.4002
8101	1509394101	54.5731	-110.3015	839.2	263.0	182.2	3.2	3.1	0.07	54.99	1.9586	400.7505
8102	1509394102	54.5725	-110.3015	837.0	258.8	182.4	3.2	2.7	0.07	54.96	1.9598	400.1534
8103	1509394103	54.5718	-110.3015	834.6	254.6	182.3	2.7	2.8	0.07	54.95	1.9615	401.7821
8104	1509394104	54.5712	-110.3015	832.6	251.6	183.7	3.5	3.0	0.07	54.95	1.9610	401.3641
8105	1509394105	54.5705	-110.3015	831.1	251.1	184.4	3.0	2.9	0.07	54.95	1.9604	401.1817
8106	1509394106	54.5698	-110.3016	829.8	250.8	184.6	2.3	2.5	0.07	54.97	1.9591	401.4377
8107	1509394107	54.5692	-110.3016	828.6	249.0	185.4	2.6	2.9	0.07	55.05	1.9580	399.9272
8108	1509394108	54.5685	-110.3017	828.2	248.2	185.0	1.8	3.4	0.07	55.33	1.9587	399.9272
8109	1509394109	54.5679	-110.3018	827.4	247.4	186.2	2.8	3.3	0.07	55.51	1.9581	399.8072
8110	1509394110	54.5672	-110.3019	826.9	246.4	186.4	2.6	3.3	0.07	55.62	1.9598	401.7072
8111	1509394111	54.5666	-110.3020	826.8	245.2	186.7	2.8	3.3	0.07	55.64	1.9585	400.2137
8112	1509394112	54.5659	-110.3021	826.7	244.4	185.9	2.0	3.4	0.07	55.65	1.9554	400.8210
8113	1509394113	54.5653	-110.3022	826.8	243.5	186.2	2.9	3.2	0.07	55.66	1.9565	400.6944
8114	1509394114	54.5646	-110.3022	827.0	242.9	186.2	3.0	2.8	0.07	55.49	1.9575	400.6775
8115	1509394115	54.5640	-110.3023	826.6	243.4	185.8	2.9	2.8	0.07	55.13	1.9568	398.9069
8116	1509394116	54.5633	-110.3024	826.5	242.6	185.6	3.1	2.8	0.07	54.84	1.9566	401.0480
8117	1509394117	54.5627	-110.3024	826.6	242.8	185.3	3.7	2.8	0.07	54.68	1.9587	399.7027
8118	1509394118	54.5620	-110.3025	826.5	243.5	184.6	3.6	2.6	0.07	54.48	1.9599	400.9923
8119	1509394119	54.5613	-110.3025	825.7	243.7	183.5	2.8	2.2	0.07	54.29	1.9600	400.9923
8120	1509394120	54.5607	-110.3025	824.3	244.0	183.8	3.3	2.5	0.07	54.15	1.9589	401.1574
8121	1509394121	54.5600	-110.3026	823.2	245.6	183.5	3.0	2.9	0.07	54.11	1.9604	399.9885
8122	1509394122	54.5594	-110.3026	822.1	248.6	183.4	2.9	2.2	0.09	54.13	1.9605	400.5209
8123	1509394123	54.5587	-110.3026	820.4	250.4	183.7	3.4	2.6	0.09	54.21	1.9610	400.4453
8124	1509394124	54.5580	-110.3026	819.1	255.4	183.4	2.9	2.5	0.09	54.30	1.9595	400.3012
8125	1509394125	54.5574	-110.3027	818.0	258.0	183.4	3.0	2.9	0.11	54.37	1.9581	401.0895
8126	1509394126	54.5567	-110.3027	817.5	260.4	183.4	3.0	2.8	0.12	54.43	1.9584	401.0596
8127	1509394127	54.5561	-110.3027	817.4	265.1	183.2	2.7	2.9	0.13	54.50	1.9577	398.7185
8128	1509394128	54.5554	-110.3027	817.2	267.6	183.4	2.6	2.5	0.13	54.55	1.9580	398.7185
8129	1509394129	54.5547	-110.3028	817.0	268.6	183.8	2.6	2.4	0.15	54.57	1.9563	402.0953
8130	1509394130	54.5541	-110.3028	817.0	272.0	185.5	4.1	2.9	0.15	54.55	1.9568	401.4654
8131	1509394131	54.5534	-110.3029	817.1	272.1	184.5	2.8	3.0	0.17	54.48	1.9561	399.4204
8132	1509394132	54.5527	-110.3029	817.0	272.0	185.2	3.6	3.1	0.20	54.38	1.9568	400.5675
8133	1509394133	54.5521	-110.3030	817.3	272.3	184.8	2.9	2.8	0.20	54.27	1.9559	400.7903
8134	1509394134	54.5514	-110.3030	817.9	272.9	185.0	1.9	2.8	0.22	54.16	1.9513	400.9712
8135	1509394135	54.5508	-110.3031	817.7	272.7	187.4	1.7	3.0	0.21	54.04	1.9525	400.5458
8136	1509394136	54.5501	-110.3033	817.1	272.1	193.0	1.8	3.2	0.24	53.97	1.9507	401.2009
8137	1509394137	54.5495	-110.3036	817.5	272.5	198.4	1.4	3.4	0.23	53.97	1.9506	400.9221
8138	1509394138	54.5489	-110.3040	818.0	268.6	205.3	1.8	3.4	0.24	54.05	1.9512	401.1295
8139	1509394139	54.5483	-110.3046	818.2	260.9	211.8	1.9	3.8	0.25	54.20	1.9531	400.6564
8140	1509394140	54.5478	-110.3052	818.2	257.5	218.3	1.9	3.7	0.24	54.31	1.9527	400.6909
8141	1509394141	54.5473	-110.3059	817.8	254.8	224.4	1.4	4.1	0.24	54.36	1.9501	400.8379
8142	1509394142	54.5469	-110.3068	817.4	254.4	231.0	1.3	4.2	0.25	54.37	1.9518	401.6320
8143	1509394143	54.5465	-110.3077	817.0	255.4	237.4	1.1	4.4	0.25	54.36	1.9507	400.4342
8144	1509394144	54.5463	-110.3087	816.3	257.3	244.0	1.5	4.3	0.25	54.38	1.9521	401.7053
8145	1509394145	54.5460	-110.3098	815.5	258.6	250.4	1.5	4.5	0.25	54.41	1.9525	401.1197
8146	1509394146	54.5459	-110.3109	814.6	259.6	257.0	1.7	4.4	0.25	54.43	1.9527	399.7361
8147	1509394147	54.5458	-110.3120	814.0	261.0	263.0	1.7	4.5	0.25	54.51	1.9501	401.0412
8148	1509394148	54.5458	-110.3131	813.7	261.6	269.6	1.6	4.2	0.25	54.53	1.9494	400.5604
8149	1509394149	54.5459	-110.3142	814.2	263.1	275.5	1.7	4.0	0.27	54.62	1.9481	400.5604
8150	1509394150	54.5460	-110.3153	815.2	265.2	279.5	1.4	4.2	0.27	54.73	1.9501	400.4314
8151	1509394151	54.5462	-110.3164	814.8	265.9	283.4	1.1	2.9	0.27	54.86	1.9510	399.9749
8152	1509394152	54.5464	-110.3175	814.2	266.3	285.9	1.0	2.7	0.27	54.97	1.9532	401.5323
8153	1509394153	54.5466	-110.3186	814.1	264.6	285.9	1.7	3.4	0.27	55.04	1.9540	399.8845
8154	1509394154	54.5468	-110.3196	814.6	261.9	286.6	1.7	3.2	0.27	55.07	1.9526	400.8206
8155	1509394155	54.5470	-110.3207	815.9	258.6	286.4	1.4	3.6	0.27	55.07	1.9554	400.6661
8156	1509394156	54.5472	-110.3218	817.1	254.9	286.6	1.7	2.5	0.27	55.06	1.9562	399.4667
8157	1509394157	54.5475	-110.3229	817.6	255.2	284.6	1.5	3.5	0.27	55.04	1.9546	400.4148
8158	1509394158	54.5476	-110.3239	818.1	256.8	282.4	2.2	4.3	0.27	55.00	1.9542	401.8607
8159	1509394159	54.5478	-110.3249	819.1	260.2	282.0	1.7	3.6	0.27	54.98	1.9541	401.8607
8160	1509394160	54.5480	-110.3261	820.2	261.5	281.1	1.8	3.6	0.27	54.97	1.9515	400.7307
8161	1509394161	54.5481	-110.3272	820.9	256.3	281.1	1.3	3.2	0.27	54.98	1.9526	399.5183
8162	1509394162	54.5483	-110.3283	820.8	254.4	280.1	1.2	3.6	0.27	55.16	1.9515	399.5183
8163	1509394163	54.5484	-110.3294	820.6	253.9	280.2	1.0	2.7	0.27	55.47	1.9520	401.0341
8164	1509394164	54.5486	-110.3306	821.1	254.4	278.3	1.3	4.4	0.27	55.77	1.9517	400.4263
8165	1509394165	54.5487	-110.3316	821.9	252.9	278.9	1.3	3.6	0.27	56.01	1.9515	400.8874
8166	1509394166	54.5488	-110.3327	822.5	251.6	279.1	0.9	3.4	0.28	56.31	1.9526	399.6115
8167	1509394167	54.5490	-110.3338	822.1	248.1	278.8	0.6	3.6	0.27	56.55	1.9525	400.5220
8168	1509394168	54.5491	-110.3349	821.8	247.2	279.0	0.6	3.4	0.27	56.70	1.9544	397.9421
8169	1509394169	54.5492	-110.3360	821.6	245.6	278.2	0.7	4.6	0.25	56.79	1.9549	400.3875
8170	1509394170	54.5494	-110.3371	822.0	246.0	279.0	0.6	3.9	0.25	56.81	1.9554	400.2377
8171	1509394171	54.5495	-110.3382	822.5	247.8	279.6	0.6	3.6	0.25	56.79	1.9560	401.2080
8172	1509394172	54.5497	-110.3393	823.4	254.0	279.4	1.1	4.0	0.23	56.75	1.9570	400.8334
8173	1509394173	54.5498	-110.3404	825.0	265.1	279.4	1.5	4.0	0.23	56.71	1.9577	400.8334
8174	1509394174	54.5499	-110.3415	826.8	271.4	279.9	1.6	3.4	0.23	56.62	1.9578	400.8198
8175	1509394175	54.5501	-110.3426	828.7	274.7	279.8	2.0	3.3	0.22	56.39	1.9588	399.4320
8176	1509394176	54.5502	-110.3437	830.1	275.2	279.5	2.3	3.2	0.21	56.08	1.9586	399.4320
8177	1509394177	54.5504	-110.3448	831.2	275.2	279.3	2.3	3.1	0.21	55.78	1.9588	400.1840
8178	1509394178	54.5505	-110.3459	831.7	275.7	278.5	2.4	3.6	0.20	55.49	1.9598	400.0996
8179	1509394179	54.5506	-110.3470	831.8	275.6	278.3	2.3	3.5	0.19	55.32	1.9575	400.0996
8180	1509394180	54.5507	-110.3481	830.4	275.1	277.1	2.4	4.3	0.19	55.20	1.9596	399.7796
8181	1509394181	54.5509	-110.3492	827.2	272.4	276.9	2.9	3.9	0.19	55.01	1.9630	400.5188
8182	1509394182	54.5510	-110.3503	824.1	270.3	277.2	2.8	2.9	0.19	54.96	1.9603	400.0131
8183	1509394183	54.5511	-110.3514	822.2	268.3	277.1	2.4	3.1	0.19	54.96	1.9605	400.5709
8184	1509394184	54.5512	-110.3525	820.2	261.4	277.1	1.9	3.5	0.19	55.02	1.9616	400.2252
8185	1509394185	54.5513	-110.3537	817.6	249.6	277.4	2.1	3.6	0.19	55.08	1.9594	400.2896
8186	1509394186	54.5514	-110.3548	816.0	231.5	277.5	1.9	4.1	0.19	55.09	1.9615	400.3687
8187	1509394187	54.5516	-110.3559	814.7	221.4	277.3	1.7	4.8	0.19	55.05	1.9604	399.4389
8188	1509394188	54.5517	-110.3570	812.5	212.2	277.8	1.5	4.3	0.19	54.93	1.9613	399.9969
8189	1509394189	54.5518	-110.3582	811.1	208.2	277.8	1.3	4.2	0.19	54.79	1.9614	399.9969
8190	1509394190	54.5520	-110.3593	809.6	202.9	277.8	1.6	4.0	0.19	54.69	1.9660	400.2346
8191	1509394191	54.5521	-110.3604	807.6	198.6	278.4	1.2	3.3	0.20	54.65	1.9649	400.2346
8192	1509394192	54.5522	-110.3616	807.3	196.3	278.3	0.7	3.5	0.21	54.65	1.9610	400.0847
8193	1509394193	54.5523	-110.3627	809.4	195.0	278.0	1.2	4.1	0.22	54.71	1.9623	400.1279
8194	1509394194	54.5525	-110.3638	812.9	196.7	277.9	1.7	4.0	0.23	54.76	1.9624	399.9211
8195	1509394195	54.5526	-110.3650	817.4	200.8	278.2	2.2	3.4	0.26	54.73	1.9641	398.9549
8196	1509394196	54.5527	-110.3661	821.7	205.8	278.4	2.2	3.1	0.25	54.58	1.9636	398.4690
8197	1509394197	54.5529	-110.3672	824.9	210.9	278.1	1.6	3.5	0.25	54.46	1.9627	398.9083
8198	1509394198	54.5530	-110.3683	827.0	215.0	277.7	1.3	4.0	0.26	54.44	1.9624	400.7657
8199	1509394199	54.5531	-110.3694	828.8	219.5	278.4	1.2	3.4	0.27	54.43	1.9634	399.6964
8200	1509394200	54.5532	-110.3705	830.0	223.3	278.1	0.9	3.8	0.26	54.45	1.9622	400.1436
8201	1509394201	54.5534	-110.3716	830.0	227.1	278.3	1.5	3.3	0.27	54.49	1.9631	400.1436
8202	1509394202	54.5535	-110.3727	828.8	228.3	278.7	2.1	2.9	0.28	54.56	1.9590	400.0845
8203	1509394203	54.5536	-110.3738	829.7	230.4	278.4	1.7	4.0	0.28	54.67	1.9569	400.2610
8204	1509394204	54.5537	-110.3749	832.9	233.9	278.3	1.5	4.4	0.26	54.80	1.9563	400.2610
8205	1509394205	54.5539	-110.3760	836.5	238.5	278.2	2.2	4.7	0.25	54.89	1.9555	399.9638
8206	1509394206	54.5540	-110.3771	840.3	243.6	278.0	2.8	4.8	0.25	54.89	1.9564	400.1525
8207	1509394207	54.5542	-110.3782	843.1	248.1	278.8	2.9	3.9	0.25	54.74	1.9581	401.8678
8208	1509394208	54.5543	-110.3792	844.9	251.0	278.9	2.7	3.9	0.25	54.41	1.9587	400.7547
8209	1509394209	54.5544	-110.3803	846.3	253.6	278.6	2.7	4.0	0.25	54.28	1.9604	400.7547
8210	1509394210	54.5546	-110.3814	847.0	255.0	278.7	2.3	3.7	0.25	54.22	1.9617	406.4480
8211	1509394211	54.5547	-110.3825	847.0	257.4	278.2	2.1	4.1	0.25	54.27	1.9605	404.5120
8212	1509394212	54.5548	-110.3835	846.7	260.5	278.5	2.0	3.6	0.25	54.48	1.9599	402.3075
8213	1509394213	54.5549	-110.3846	846.7	263.7	277.9	2.3	4.2	0.25	54.68	1.9602	402.5585
8214	1509394214	54.5551	-110.3857	846.5	265.6	278.0	2.3	3.8	0.25	54.84	1.9612	401.7631
8215	1509394215	54.5552	-110.3867	845.8	261.3	278.6	1.7	3.1	0.24	54.96	1.9613	400.2047
8216	1509394216	54.5553	-110.3878	844.9	256.9	277.7	1.4	3.9	0.23	55.10	1.9634	401.3674
8217	1509394217	54.5554	-110.3889	845.0	255.0	277.8	0.9	3.6	0.23	55.27	1.9654	410.3766
8218	1509394218	54.5556	-110.3900	845.4	253.7	278.1	0.6	3.3	0.23	55.49	1.9701	423.6700
8219	1509394219	54.5557	-110.3911	846.1	253.3	278.1	0.9	3.3	0.22	55.69	1.9644	403.5242
8220	1509394220	54.5558	-110.3922	846.4	252.3	277.2	1.1	4.6	0.21	55.98	1.9623	402.7940
8221	1509394221	54.5559	-110.3933	846.5	249.7	277.5	1.4	4.9	0.20	56.07	1.9596	400.6842
8222	1509394222	54.5561	-110.3944	846.8	248.3	278.5	2.3	4.3	0.19	55.90	1.9611	400.2899
8223	1509394223	54.5562	-110.3954	847.6	247.6	279.3	2.7	3.8	0.18	55.34	1.9617	400.2899
8224	1509394224	54.5563	-110.3965	848.9	247.8	279.1	2.8	4.2	0.17	54.88	1.9619	400.1201
8225	1509394225	54.5565	-110.3976	849.8	249.2	279.3	2.8	3.9	0.16	54.64	1.9599	400.3322
8226	1509394226	54.5566	-110.3987	850.4	250.0	279.1	2.8	4.2	0.15	54.51	1.9605	399.2807
8227	1509394227	54.5568	-110.3998	851.1	250.5	279.0	2.4	4.1	0.15	54.38	1.9604	400.2497
8228	1509394228	54.5569	-110.4009	851.5	250.7	278.9	2.3	4.1	0.15	54.31	1.9613	401.3936
8229	1509394229	54.5570	-110.4019	851.4	250.4	278.4	2.3	4.6	0.14	54.28	1.9614	400.0241
8230	1509394230	54.5572	-110.4030	850.6	249.6	278.7	2.6	3.8	0.13	54.25	1.9609	401.6136
8231	1509394231	54.5573	-110.4041	850.4	248.1	278.1	2.5	4.2	0.13	54.25	1.9611	401.5361
8232	1509394232	54.5574	-110.4052	850.9	246.9	277.6	2.6	4.4	0.13	54.25	1.9596	401.3311
8233	1509394233	54.5576	-110.4063	851.5	245.5	277.8	2.5	3.8	0.13	54.26	1.9595	400.0415
8234	1509394234	54.5577	-110.4074	851.8	245.8	277.5	2.5	3.9	0.13	54.26	1.9565	399.9213
8235	1509394235	54.5578	-110.4085	852.3	247.0	277.3	2.1	4.0	0.13	54.22	1.9539	400.5052
8236	1509394236	54.5579	-110.4096	853.0	249.0	277.2	2.0	3.9	0.13	54.12	1.9577	400.5396
8237	1509394237	54.5580	-110.4107	853.4	250.8	277.7	2.0	3.7	0.12	53.96	1.9596	400.1721
8238	1509394238	54.5582	-110.4118	853.5	252.5	278.1	2.0	4.0	0.11	53.83	1.9612	400.6551
8239	1509394239	54.5583	-110.4129	853.6	253.5	278.6	1.9	4.1	0.11	53.79	1.9609	400.6551
8240	1509394240	54.5584	-110.4139	853.5	254.6	279.3	1.7	3.7	0.13	53.91	1.9610	401.1462
8241	1509394241	54.5586	-110.4150	852.9	253.9	279.8	1.6	3.3	0.14	54.19	1.9612	400.0115
8242	1509394242	54.5587	-110.4161	852.7	253.7	279.5	1.9	3.6	0.13	54.44	1.9620	400.8580
8243	1509394243	54.5589	-110.4172	852.7	253.7	279.2	1.7	3.7	0.13	54.59	1.9645	401.2805
8244	1509394244	54.5590	-110.4183	852.8	252.5	279.8	1.4	2.9	0.14	54.70	1.9636	399.9171
8245	1509394245	54.5591	-110.4194	853.1	251.3	279.5	1.4	3.2	0.14	54.85	1.9642	399.7880
8246	1509394246	54.5593	-110.4205	853.4	249.5	279.3	1.5	3.6	0.12	55.00	1.9634	400.3909
8247	1509394247	54.5594	-110.4216	853.6	247.9	279.2	1.4	3.6	0.14	55.19	1.9627	400.5753
8248	1509394248	54.5596	-110.4227	853.8	246.8	279.5	1.3	3.2	0.12	55.35	1.9658	400.8455
8249	1509394249	54.5597	-110.4238	853.8	246.8	279.4	1.4	3.5	0.09	55.50	1.9647	399.5574
8250	1509394250	54.5598	-110.4249	854.1	248.1	278.9	1.5	4.3	0.09	55.59	1.9651	400.1058
8251	1509394251	54.5600	-110.4260	854.7	249.7	279.5	1.4	3.5	0.09	55.62	1.9653	399.4181
8252	1509394252	54.5601	-110.4271	855.5	252.6	280.2	1.2	2.8	0.09	55.64	1.9636	399.9095
8253	1509394253	54.5603	-110.4282	856.7	254.9	279.4	1.1	3.4	0.09	55.64	1.9673	400.6384
8254	1509394254	54.5604	-110.4293	857.7	258.8	279.6	1.7	3.1	0.09	55.64	1.9649	400.0911
8255	1509394255	54.5605	-110.4304	859.1	263.1	278.7	2.3	3.7	0.09	55.56	1.9642	400.7890
8256	1509394256	54.5607	-110.4314	860.7	264.3	279.4	2.2	3.0	0.08	55.42	1.9640	399.7937
8257	1509394257	54.5608	-110.4326	862.0	266.6	278.9	1.9	3.5	0.07	55.23	1.9659	399.9631
8258	1509394258	54.5609	-110.4336	863.4	266.1	278.9	1.5	3.5	0.07	55.04	1.9650	399.7350
8259	1509394259	54.5611	-110.4347	864.4	267.1	278.5	1.8	3.9	0.07	54.86	1.9638	401.1544
8260	1509394260	54.5612	-110.4358	864.9	264.9	278.2	2.3	4.3	0.07	54.77	1.9648	400.4132
8261	1509394261	54.5613	-110.4369	865.3	265.2	278.7	2.2	3.7	0.07	54.66	1.9667	400.0778
8262	1509394262	54.5615	-110.4380	865.4	264.0	278.6	2.2	3.7	0.07	54.55	1.9676	399.7248
8263	1509394263	54.5616	-110.4391	865.2	265.1	278.9	2.6	3.3	0.05	54.49	1.9686	401.0663
8264	1509394264	54.5617	-110.4401	865.5	264.7	278.8	2.6	3.4	0.05	54.50	1.9679	400.7066
8265	1509394265	54.5619	-110.4412	865.7	266.2	278.5	2.1	4.0	0.05	54.55	1.9652	400.2937
8266	1509394266	54.5620	-110.4423	866.1	265.1	278.0	1.7	4.3	0.05	54.63	1.9656	401.2311
8267	1509394267	54.5621	-110.4434	866.0	266.0	278.1	2.6	3.9	0.05	54.68	1.9711	399.2720
8268	1509394268	54.5622	-110.4445	865.0	264.6	277.7	2.5	4.2	0.04	54.68	1.9709	399.2720
8269	1509394269	54.5624	-110.4456	863.0	264.7	277.6	2.7	4.1	0.03	54.65	1.9716	399.9596
8270	1509394270	54.5625	-110.4467	860.5	263.4	277.8	2.4	4.1	0.03	54.66	1.9721	401.1166
8271	1509394271	54.5626	-110.4478	858.0	261.0	277.7	1.6	4.5	0.03	54.84	1.9700	401.1160
8272	1509394272	54.5628	-110.4489	856.0	258.9	278.3	1.7	4.1	0.03	55.02	1.9693	399.8685
8273	1509394273	54.5629	-110.4500	854.8	257.8	278.3	2.6	4.2	0.03	55.10	1.9658	399.6895
8274	1509394274	54.5630	-110.4512	854.5	257.5	278.8	2.3	3.9	0.03	55.11	1.9612	399.1819
8275	1509394275	54.5632	-110.4522	854.9	258.6	278.7	2.3	4.1	0.03	55.07	1.9589	398.7294
8276	1509394276	54.5633	-110.4534	855.8	259.8	279.4	2.3	3.6	0.03	54.81	1.9581	400.7827
8277	1509394277	54.5634	-110.4544	856.2	260.2	279.2	2.4	3.8	0.03	54.49	1.9586	399.4964
8278	1509394278	54.5636	-110.4556	856.1	261.1	278.9	2.8	4.2	0.03	54.13	1.9594	400.3264
8279	1509394279	54.5637	-110.4567	856.1	261.1	279.0	2.9	4.2	0.03	53.80	1.9581	399.8217
8280	1509394280	54.5639	-110.4578	856.7	261.7	278.8	3.1	4.3	0.03	53.54	1.9589	399.9614
8281	1509394281	54.5640	-110.4589	857.8	262.8	279.0	2.9	4.2	0.03	53.38	1.9644	400.4393
8282	1509394282	54.5642	-110.4600	858.6	264.6	278.9	2.8	4.4	0.03	53.30	1.9682	400.5728
8283	1509394283	54.5643	-110.4611	859.4	266.3	279.1	2.9	4.2	0.03	53.30	1.9702	398.6199
8284	1509394284	54.5645	-110.4622	860.3	269.3	279.5	3.0	3.8	0.03	53.48	1.9734	399.4913
8285	1509394285	54.5646	-110.4633	861.2	271.2	279.2	2.8	4.1	0.03	53.78	1.9775	401.0118
8286	1509394286	54.5647	-110.4644	861.7	271.4	279.5	2.6	3.7	0.03	54.13	1.9715	400.5579
8287	1509394287	54.5649	-110.4655	861.6	271.2	280.0	3.1	3.0	0.03	54.49	1.9771	400.5579
8288	1509394288	54.5650	-110.4666	861.8	271.1	279.4	3.3	3.4	0.03	54.73	1.9569	400.0129
8289	1509394289	54.5652	-110.4676	862.0	271.3	280.4	2.9	2.4	0.03	54.86	1.9516	400.3756
8290	1509394290	54.5653	-110.4687	862.3	271.3	279.6	3.0	3.3	0.03	54.80	1.9474	397.2918
8291	1509394291	54.5654	-110.4698	861.3	270.6	279.7	3.0	3.0	0.03	54.29	1.9464	398.2971
8292	1509394292	54.5656	-110.4710	859.7	269.2	279.0	3.3	3.5	0.03	53.48	1.9489	400.2835
8293	1509394293	54.5657	-110.4720	858.2	267.8	278.6	3.3	3.6	0.03	52.67	1.9512	399.9557
8294	1509394294	54.5659	-110.4731	856.6	265.7	278.6	3.4	3.5	0.03	52.02	1.9550	400.2850
8295	1509394295	54.5660	-110.4743	855.3	264.6	278.1	2.9	3.8	0.04	51.62	1.9632	399.8491
8296	1509394296	54.5661	-110.4753	854.5	263.5	278.1	2.7	3.7	0.05	51.46	1.9644	400.6509
8297	1509394297	54.5663	-110.4765	853.4	262.4	277.5	2.2	4.5	0.07	51.52	1.9643	400.6045
8298	1509394298	54.5664	-110.4776	852.0	261.0	277.3	2.0	4.6	0.09	51.79	1.9659	400.8576
8299	1509394299	54.5665	-110.4787	851.4	259.0	277.2	1.9	4.4	0.12	52.12	1.9690	400.5951
8300	1509394300	54.5666	-110.4798	851.0	257.7	277.2	1.9	4.7	0.14	52.36	1.9734	400.8037
8301	1509394301	54.5668	-110.4810	850.3	254.9	277.4	1.9	4.8	0.15	52.58	1.9761	399.3223
8302	1509394302	54.5669	-110.4820	849.8	252.8	277.9	1.9	4.6	0.14	52.91	1.9730	401.0758
8303	1509394303	54.5670	-110.4832	850.0	252.0	278.5	2.4	4.5	0.16	53.33	1.9712	400.8799
8304	1509394304	54.5672	-110.4843	849.8	250.8	278.7	2.4	4.5	0.17	53.75	1.9713	400.8799
8305	1509394305	54.5673	-110.4854	849.0	250.0	279.1	1.9	4.6	0.15	54.02	1.9641	401.1845
8306	1509394306	54.5675	-110.4865	847.8	248.8	279.1	1.7	4.7	0.15	54.07	1.9602	401.2557
8307	1509394307	54.5676	-110.4877	846.4	247.4	279.8	1.9	4.1	0.15	54.05	1.9596	399.9764
8308	1509394308	54.5678	-110.4888	845.2	246.3	280.2	1.9	3.8	0.15	53.92	1.9651	400.3538
8309	1509394309	54.5679	-110.4899	845.1	246.1	280.2	1.8	3.6	0.15	53.57	1.9674	401.5631
8310	1509394310	54.5681	-110.4910	845.4	246.8	279.8	1.9	3.6	0.15	53.26	1.9672	400.4249
8311	1509394311	54.5682	-110.4921	845.5	247.4	279.7	1.9	3.4	0.15	53.12	1.9724	400.6154
8312	1509394312	54.5684	-110.4933	845.5	248.6	279.0	1.6	3.8	0.16	53.10	1.9798	400.7480
8313	1509394313	54.5685	-110.4944	845.5	247.8	278.7	1.1	4.0	0.17	53.15	1.9820	401.3008
8314	1509394314	54.5686	-110.4955	845.1	247.1	278.7	0.7	3.8	0.17	53.32	1.9816	401.5097
8315	1509394315	54.5688	-110.4966	844.0	247.1	278.5	0.7	4.1	0.17	53.62	1.9832	400.4194
8316	1509394316	54.5689	-110.4978	843.2	246.0	278.9	0.8	3.6	0.17	53.95	1.9807	399.9112
8317	1509394317	54.5690	-110.4988	843.1	246.7	279.3	0.5	3.2	0.17	54.25	1.9871	399.4058
8318	1509394318	54.5692	-110.5000	843.3	246.1	279.0	0.6	3.8	0.17	54.40	1.9860	401.0745
8319	1509394319	54.5693	-110.5011	843.6	244.5	279.4	0.6	3.7	0.17	54.58	1.9777	401.0275
8320	1509394320	54.5695	-110.5023	843.7	243.8	279.6	0.4	3.9	0.17	54.73	1.9734	400.6309
8321	1509394321	54.5696	-110.5034	844.1	243.1	279.4	0.6	4.2	0.17	54.81	1.9739	400.4205
8322	1509394322	54.5698	-110.5045	844.5	243.4	279.4	0.8	4.4	0.17	54.82	1.9688	400.4563
8323	1509394323	54.5699	-110.5057	844.9	242.9	280.4	0.1	3.7	0.17	54.80	1.9660	401.3212
8324	1509394324	54.5701	-110.5068	845.1	243.1	280.3	-0.1	3.9	0.17	54.74	1.9610	400.2423
8325	1509394325	54.5702	-110.5079	845.5	243.5	279.9	0.5	4.0	0.17	54.64	1.9623	401.4064
8326	1509394326	54.5704	-110.5090	845.6	243.7	279.3	1.2	4.5	0.17	54.41	1.9627	400.3726
8327	1509394327	54.5705	-110.5102	846.1	243.1	279.2	1.6	4.4	0.16	54.11	1.9663	400.6412
8328	1509394328	54.5707	-110.5113	846.9	243.9	279.3	1.5	4.1	0.15	53.89	1.9708	400.3762
8329	1509394329	54.5708	-110.5124	847.2	244.2	280.0	0.4	3.2	0.15	53.80	1.9692	400.3762
8330	1509394330	54.5710	-110.5135	847.5	245.5	279.2	0.5	3.8	0.15	53.80	1.9671	400.9362
8331	1509394331	54.5711	-110.5147	847.6	245.6	279.4	0.3	3.4	0.15	53.94	1.9663	401.1368
8332	1509394332	54.5712	-110.5158	847.9	245.9	279.1	-0.1	3.9	0.15	54.15	1.9631	400.9072
8333	1509394333	54.5714	-110.5169	848.2	246.2	277.9	0.5	4.9	0.15	54.24	1.9553	401.0717
8334	1509394334	54.5715	-110.5181	848.3	247.8	278.9	1.3	3.4	0.15	54.30	1.9549	400.6667
8335	1509394335	54.5716	-110.5192	848.5	249.5	278.5	2.0	4.0	0.15	54.25	1.9550	399.0955
8336	1509394336	54.5718	-110.5203	849.1	252.7	278.8	1.7	3.9	0.15	53.95	1.9566	399.0955
8337	1509394337	54.5719	-110.5214	849.9	256.1	279.4	1.3	3.8	0.15	53.67	1.9607	400.1665
8338	1509394338	54.5721	-110.5226	850.5	260.2	279.5	1.2	3.9	0.15	53.53	1.9612	400.7547
8339	1509394339	54.5722	-110.5237	850.9	260.9	279.3	1.2	4.2	0.15	53.50	1.9592	400.9200
8340	1509394340	54.5724	-110.5248	850.8	257.7	279.1	0.8	4.4	0.15	53.52	1.9585	400.9940
8341	1509394341	54.5725	-110.5259	850.5	254.5	279.6	0.9	3.8	0.15	53.59	1.9570	400.6885
8342	1509394342	54.5726	-110.5271	849.8	250.1	279.6	0.9	3.7	0.15	53.70	1.9553	401.0162
8343	1509394343	54.5728	-110.5282	848.8	246.8	279.3	1.3	3.8	0.15	53.78	1.9554	400.9800
8344	1509394344	54.5729	-110.5293	848.3	245.3	279.1	1.4	3.7	0.15	53.80	1.9585	400.7630
8345	1509394345	54.5730	-110.5301	848.4	244.7	279.0	1.1	3.6	0.15	53.80	1.9571	400.7630
8346	1509394346	54.5732	-110.5314	848.3	243.3	278.8	0.9	3.6	0.15	53.80	1.9590	399.6660
8347	1509394347	54.5733	-110.5327	848.4	242.8	278.1	1.4	4.3	0.15	53.83	1.9585	400.9297
8348	1509394348	54.5735	-110.5338	848.8	242.8	278.8	1.3	3.6	0.15	53.88	1.9594	400.9265
8349	1509394349	54.5736	-110.5349	849.5	243.5	278.5	0.9	4.2	0.15	53.95	1.9591	400.0234
8350	1509394350	54.5737	-110.5361	850.1	244.1	278.6	0.7	4.1	0.16	54.09	1.9582	400.6496
8351	1509394351	54.5739	-110.5372	850.3	243.3	278.7	0.7	4.2	0.16	54.22	1.9584	400.2032
8352	1509394352	54.5740	-110.5383	850.8	243.9	277.9	0.9	5.2	0.15	54.31	1.9549	401.1162
8353	1509394353	54.5742	-110.5395	851.2	242.5	278.7	0.8	4.3	0.14	54.36	1.9537	400.7897
8354	1509394354	54.5743	-110.5406	851.2	242.2	278.7	0.8	4.1	0.13	54.39	1.9532	399.6696
8355	1509394355	54.5744	-110.5417	851.2	242.2	278.8	0.8	4.1	0.13	54.41	1.9541	399.5446
8356	1509394356	54.5746	-110.5428	851.3	242.3	278.1	0.9	5.0	0.13	54.41	1.9543	400.2252
8357	1509394357	54.5747	-110.5440	851.1	241.8	278.5	0.8	4.5	0.13	54.41	1.9539	400.4485
8358	1509394358	54.5749	-110.5451	850.9	240.9	278.3	0.7	4.7	0.13	54.40	1.9541	400.0298
8359	1509394359	54.5750	-110.5462	850.9	239.9	277.9	0.5	5.1	0.12	54.39	1.9546	400.2629
8360	1509394360	54.5751	-110.5473	851.4	239.4	278.2	0.8	4.7	0.11	54.44	1.9546	399.8098
8361	1509394361	54.5753	-110.5485	851.7	238.7	278.4	0.7	4.8	0.11	54.60	1.9553	398.9525
8362	1509394362	54.5754	-110.5496	852.6	238.6	278.1	0.4	5.2	0.11	54.72	1.9554	397.8450
8363	1509394363	54.5756	-110.5507	854.7	239.6	277.8	1.3	5.3	0.11	54.77	1.9539	400.1154
8364	1509394364	54.5757	-110.5518	857.2	242.2	278.6	1.9	4.2	0.11	54.80	1.9545	399.2621
8365	1509394365	54.5758	-110.5529	859.5	244.5	278.9	1.7	3.9	0.11	54.81	1.9584	490.3342
8366	1509394366	54.5760	-110.5541	862.0	247.0	278.3	2.0	4.2	0.11	54.86	1.9644	473.3310
8367	1509394367	54.5761	-110.5551	864.4	249.2	279.2	1.5	2.9	0.10	55.11	1.9740	473.7865
8368	1509394368	54.5762	-110.5562	866.7	250.7	278.3	1.4	3.7	0.09	55.56	1.9673	468.3476
8369	1509394369	54.5764	-110.5574	869.1	252.1	278.4	0.5	3.5	0.09	56.11	1.9573	410.0962
8370	1509394370	54.5765	-110.5585	870.9	253.9	277.1	0.6	5.3	0.09	56.53	1.9527	404.2977
8371	1509394371	54.5766	-110.5596	871.4	253.4	277.5	1.5	5.0	0.10	56.55	1.9534	403.7570
8372	1509394372	54.5767	-110.5607	871.9	253.9	278.2	1.7	4.6	0.10	56.20	1.9546	403.1997
8373	1509394373	54.5769	-110.5617	872.5	254.5	278.7	1.7	4.3	0.09	55.68	1.9542	401.3596
8374	1509394374	54.5770	-110.5628	872.5	253.5	279.2	1.6	4.1	0.11	55.27	1.9530	400.1743
8375	1509394375	54.5772	-110.5639	872.6	253.6	279.0	1.7	4.6	0.10	55.02	1.9521	401.3929
8376	1509394376	54.5773	-110.5650	873.6	254.1	279.3	1.7	4.5	0.08	54.83	1.9527	400.0478
8377	1509394377	54.5775	-110.5661	874.5	254.5	279.3	1.8	4.5	0.09	54.71	1.9531	400.3014
8378	1509394378	54.5776	-110.5672	875.2	255.9	279.0	2.1	4.6	0.08	54.67	1.9524	400.3919
8379	1509394379	54.5777	-110.5683	876.4	257.1	279.3	2.1	3.9	0.04	54.60	1.9534	400.5459
8380	1509394380	54.5779	-110.5694	877.7	258.0	278.0	1.8	4.9	0.05	54.41	1.9534	400.5114
8381	1509394381	54.5780	-110.5704	878.9	258.9	277.6	1.9	4.9	0.03	54.20	1.9558	400.6155
8382	1509394382	54.5781	-110.5715	879.6	259.6	277.7	2.1	4.5	0.03	54.09	1.9548	401.8677
8383	1509394383	54.5783	-110.5727	880.3	260.3	276.9	2.4	5.2	0.00	54.05	1.9558	399.1568
8384	1509394384	54.5784	-110.5737	880.7	260.7	277.3	2.4	4.7	-0.01	54.06	1.9568	400.5777
8385	1509394385	54.5785	-110.5748	881.2	261.2	277.2	2.3	4.7	-0.02	54.05	1.9564	400.7671
8386	1509394386	54.5787	-110.5759	881.7	262.7	277.9	2.5	4.0	-0.04	54.07	1.9574	400.3351
8387	1509394387	54.5788	-110.5770	882.2	264.2	278.0	2.6	4.2	-0.04	54.12	1.9562	400.4029
8388	1509394388	54.5789	-110.5781	882.8	266.2	277.6	2.7	4.8	-0.04	54.21	1.9566	400.4736
8389	1509394389	54.5790	-110.5792	883.5	267.5	278.0	2.7	4.4	-0.05	54.29	1.9563	400.4440
8390	1509394390	54.5792	-110.5803	883.8	268.6	277.6	2.7	4.9	-0.07	54.35	1.9588	400.3193
8391	1509394391	54.5793	-110.5814	883.8	269.4	278.1	2.6	4.5	-0.08	54.40	1.9576	399.6393
8392	1509394392	54.5794	-110.5825	883.4	270.4	277.7	2.4	5.2	-0.09	54.53	1.9571	400.7167
8393	1509394393	54.5796	-110.5835	882.2	269.2	278.2	1.8	4.7	-0.09	54.81	1.9561	401.0711
8394	1509394394	54.5797	-110.5846	880.7	267.7	278.7	2.0	4.5	-0.11	55.09	1.9558	399.6655
8395	1509394395	54.5799	-110.5858	879.6	265.8	278.8	1.9	4.4	-0.11	55.27	1.9568	400.7194
8396	1509394396	54.5800	-110.5868	879.0	265.3	278.8	1.8	4.4	-0.11	55.29	1.9561	401.5922
8397	1509394397	54.5801	-110.5880	878.7	267.3	278.3	2.2	4.5	-0.11	55.27	1.9549	399.7593
8398	1509394398	54.5803	-110.5891	878.6	273.3	278.4	1.6	4.4	-0.13	55.24	1.9570	399.7593
8399	1509394399	54.5804	-110.5902	878.8	282.1	277.9	1.6	5.0	-0.13	55.14	1.9590	401.4625
8400	1509394400	54.5805	-110.5913	878.8	288.8	278.3	1.5	4.6	-0.13	55.05	1.9585	401.0547
8401	1509394401	54.5807	-110.5924	878.7	286.4	279.0	1.9	4.0	-0.13	55.04	1.9572	400.1989
8402	1509394402	54.5808	-110.5935	878.7	277.4	279.1	1.4	4.1	-0.13	55.17	1.9577	401.3118
8403	1509394403	54.5810	-110.5946	878.9	268.9	279.5	1.3	3.8	-0.14	55.41	1.9582	400.2864
8404	1509394404	54.5811	-110.5957	879.3	265.2	278.8	1.2	4.4	-0.15	55.62	1.9594	400.5461
8405	1509394405	54.5813	-110.5968	878.8	271.0	278.5	1.1	4.4	-0.15	55.75	1.9586	400.9529
8406	1509394406	54.5814	-110.5979	877.5	280.5	278.0	1.2	4.4	-0.15	55.88	1.9582	401.6096
8407	1509394407	54.5815	-110.5990	875.6	286.5	277.9	0.5	4.3	-0.15	56.06	1.9596	400.7115
8408	1509394408	54.5817	-110.6002	873.4	286.1	278.0	0.5	4.2	-0.17	56.27	1.9572	400.2133
8409	1509394409	54.5818	-110.6013	871.6	282.1	277.4	1.1	4.7	-0.17	56.34	1.9586	400.2103
8410	1509394410	54.5819	-110.6024	870.3	278.8	277.6	1.2	4.3	-0.17	56.34	1.9591	400.4882
8411	1509394411	54.5820	-110.6036	869.9	270.3	277.2	1.3	4.5	-0.17	56.28	1.9581	400.0767
8412	1509394412	54.5822	-110.6047	869.5	260.1	277.8	1.5	3.7	-0.17	56.11	1.9590	400.4232
8413	1509394413	54.5823	-110.6059	869.0	253.4	277.6	1.3	4.2	-0.17	55.95	1.9590	399.3416
8414	1509394414	54.5824	-110.6070	869.3	251.9	277.7	1.2	3.9	-0.17	55.83	1.9592	400.7623
8415	1509394415	54.5825	-110.6081	870.1	249.8	277.8	1.4	3.9	-0.17	55.70	1.9602	400.2814
8416	1509394416	54.5827	-110.6093	871.1	249.0	277.6	1.6	3.9	-0.17	55.60	1.9606	400.7431
8417	1509394417	54.5828	-110.6104	872.1	249.1	277.7	1.4	3.9	-0.17	55.51	1.9597	401.2291
8418	1509394418	54.5829	-110.6115	873.1	249.1	277.5	1.2	3.9	-0.17	55.44	1.9602	400.7383
8419	1509394419	54.5830	-110.6127	874.4	250.4	277.3	1.1	3.9	-0.17	55.40	1.9600	400.3405
8420	1509394420	54.5832	-110.6138	876.2	252.2	277.1	1.3	4.1	-0.17	55.37	1.9605	400.3945
8421	1509394421	54.5833	-110.6149	878.4	255.4	277.2	1.8	3.9	-0.17	55.33	1.9604	400.2368
8422	1509394422	54.5834	-110.6160	880.2	257.2	277.3	1.8	3.9	-0.17	55.26	1.9592	399.8545
8423	1509394423	54.5835	-110.6171	881.5	258.5	277.8	1.5	3.7	-0.17	55.21	1.9602	400.8522
8424	1509394424	54.5836	-110.6183	882.6	258.6	277.6	1.8	4.0	-0.17	55.18	1.9611	400.8522
8425	1509394425	54.5838	-110.6193	883.4	258.7	278.1	2.0	3.4	-0.17	55.18	1.9621	400.6271
8426	1509394426	54.5839	-110.6205	884.2	258.2	278.2	1.7	3.6	-0.18	55.18	1.9607	400.5842
8427	1509394427	54.5840	-110.6216	885.2	259.1	278.0	1.9	4.0	-0.19	55.19	1.9602	400.3350
8428	1509394428	54.5842	-110.6227	885.9	258.9	278.7	2.0	3.3	-0.19	55.18	1.9606	400.2685
8429	1509394429	54.5843	-110.6238	886.8	259.8	278.3	2.2	4.1	-0.19	55.15	1.9613	400.7521
8430	1509394430	54.5844	-110.6248	887.2	260.2	278.0	2.3	4.3	-0.19	55.14	1.9619	401.5888
8431	1509394431	54.5845	-110.6259	887.4	260.4	277.6	2.4	4.7	-0.19	55.14	1.9623	400.3091
8432	1509394432	54.5847	-110.6271	887.8	260.8	277.7	1.8	4.3	-0.19	55.18	1.9617	400.8559
8433	1509394433	54.5848	-110.6282	888.1	261.1	278.7	1.1	3.4	-0.19	55.28	1.9629	400.9069
8434	1509394434	54.5849	-110.6293	888.2	261.2	277.7	1.8	4.6	-0.18	55.40	1.9627	401.4723
8435	1509394435	54.5851	-110.6304	888.1	262.1	278.2	1.7	4.2	-0.16	55.45	1.9650	401.1102
8436	1509394436	54.5852	-110.6315	888.1	262.1	278.6	2.0	3.7	-0.18	55.32	1.9648	401.2864
8437	1509394437	54.5853	-110.6326	888.4	262.4	278.6	2.6	3.8	-0.18	55.05	1.9666	401.5720
8438	1509394438	54.5855	-110.6337	889.1	263.1	278.3	3.2	3.9	-0.19	54.78	1.9643	401.6495
8439	1509394439	54.5856	-110.6348	888.9	263.9	278.6	3.6	3.6	-0.20	54.51	1.9637	400.7959
8440	1509394440	54.5857	-110.6359	888.1	264.7	277.9	3.3	4.0	-0.19	54.25	1.9616	401.1163
8441	1509394441	54.5859	-110.6370	887.1	267.1	278.0	2.6	3.6	-0.19	54.09	1.9625	400.2371
8442	1509394442	54.5860	-110.6382	886.0	267.3	277.8	2.0	4.1	-0.20	54.05	1.9623	401.1427
8443	1509394443	54.5861	-110.6392	884.2	264.8	277.9	1.6	4.3	-0.21	54.13	1.9649	400.9143
8444	1509394444	54.5862	-110.6403	882.9	259.9	278.4	1.7	3.9	-0.21	54.35	1.9623	400.9293
8445	1509394445	54.5864	-110.6415	882.0	259.0	278.2	1.8	4.1	-0.21	54.57	1.9625	400.6579
8446	1509394446	54.5865	-110.6426	881.3	257.9	278.1	1.3	4.1	-0.21	54.82	1.9627	400.4458
8447	1509394447	54.5866	-110.6437	880.2	255.8	278.4	0.9	3.9	-0.21	55.00	1.9635	401.9312
8448	1509394448	54.5868	-110.6448	878.5	250.5	278.1	0.7	4.5	-0.21	55.18	1.9639	401.4484
8449	1509394449	54.5869	-110.6460	876.5	246.1	278.6	0.7	4.2	-0.21	55.31	1.9638	401.6904
8450	1509394450	54.5871	-110.6471	874.9	241.9	279.1	1.0	3.9	-0.21	55.50	1.9635	400.4044
8451	1509394451	54.5872	-110.6483	873.8	238.7	280.2	0.9	3.0	-0.21	55.67	1.9641	401.2760
8452	1509394452	54.5873	-110.6494	874.2	236.5	280.2	0.7	3.2	-0.21	55.90	1.9645	401.6396
8453	1509394453	54.5875	-110.6505	874.5	235.5	280.7	0.3	2.9	-0.21	56.08	1.9651	401.3760
8454	1509394454	54.5876	-110.6517	874.4	233.4	279.3	0.8	4.5	-0.21	56.18	1.9673	401.5714
8455	1509394455	54.5878	-110.6528	874.7	232.7	279.8	1.1	3.8	-0.21	56.18	1.9657	401.5714
8456	1509394456	54.5879	-110.6539	875.0	232.0	279.7	1.3	4.4	-0.22	56.04	1.9667	400.4682
8457	1509394457	54.5881	-110.6550	875.9	232.9	279.7	1.7	5.7	-0.23	55.82	1.9658	401.4700
8458	1509394458	54.5883	-110.6562	876.9	234.9	282.3	1.8	5.3	-0.23	55.61	1.9651	401.4700
8459	1509394459	54.5885	-110.6573	875.9	233.9	285.7	1.7	5.1	-0.23	55.48	1.9658	401.5585
8460	1509394460	54.5887	-110.6583	874.1	232.1	289.4	1.7	5.4	-0.23	55.42	1.9667	401.6738
8461	1509394461	54.5890	-110.6594	871.3	229.3	294.6	1.3	4.8	-0.23	55.40	1.9670	402.5254
8462	1509394462	54.5894	-110.6604	867.5	225.5	299.8	0.9	4.5	-0.23	55.41	1.9653	402.0659
8463	1509394463	54.5898	-110.6614	863.5	220.5	305.0	0.9	5.1	-0.23	55.63	1.9665	402.2415
8464	1509394464	54.5903	-110.6623	859.1	216.1	309.9	1.4	5.8	-0.23	55.77	1.9685	401.1232
8465	1509394465	54.5908	-110.6631	853.8	210.8	317.7	2.2	4.7	-0.23	55.80	1.9691	401.8284
8466	1509394466	54.5914	-110.6638	848.3	205.3	327.4	2.3	4.3	-0.23	55.77	1.9683	399.9549
8467	1509394467	54.5920	-110.6644	843.4	200.4	336.9	3.1	4.9	-0.23	55.61	1.9680	402.0825
8468	1509394468	54.5927	-110.6647	838.9	195.9	344.6	2.3	4.3	-0.23	55.41	1.9696	401.2436
8469	1509394469	54.5934	-110.6649	833.8	191.8	350.4	1.2	3.9	-0.23	55.30	1.9692	401.4613
8470	1509394470	54.5942	-110.6651	829.9	188.1	354.8	0.8	4.3	-0.22	55.26	1.9674	401.0211
8471	1509394471	54.5949	-110.6651	830.7	189.7	357.0	1.0	4.2	-0.21	55.26	1.9685	401.0211
8472	1509394472	54.5957	-110.6652	831.7	190.7	357.2	2.2	4.6	-0.21	55.25	1.9731	400.6196
8473	1509394473	54.5964	-110.6652	831.3	190.3	358.2	2.3	4.1	-0.19	55.18	1.9756	401.8588
8474	1509394474	54.5972	-110.6652	831.7	190.7	0.3	2.0	3.3	-0.17	55.01	1.9758	401.0546
8475	1509394475	54.5979	-110.6651	833.9	192.9	2.0	2.6	3.1	-0.15	54.77	1.9759	399.6383
8476	1509394476	54.5986	-110.6650	836.9	195.9	4.0	2.2	3.2	-0.13	54.53	1.9725	401.8582
8477	1509394477	54.5994	-110.6649	839.6	198.6	5.2	2.6	3.3	-0.11	54.29	1.9716	399.7766
8478	1509394478	54.6001	-110.6647	841.5	198.8	6.7	1.9	3.7	-0.08	54.16	1.9733	400.7777
8479	1509394479	54.6008	-110.6645	843.0	200.0	8.8	0.7	3.5	-0.06	54.12	1.9727	399.8693
8480	1509394480	54.6015	-110.6643	846.8	201.7	9.2	1.5	3.2	-0.05	54.09	1.9719	400.8120
8481	1509394481	54.6022	-110.6641	850.0	204.0	9.3	1.8	3.4	-0.03	54.08	1.9715	400.4965
8482	1509394482	54.6029	-110.6639	851.7	204.7	10.0	1.1	4.3	-0.02	54.08	1.9723	400.6572
8483	1509394483	54.6036	-110.6636	852.1	204.1	9.2	1.9	4.4	-0.01	54.08	1.9713	400.4882
8484	1509394484	54.6043	-110.6634	852.2	204.2	9.0	1.4	4.6	-0.02	54.10	1.9741	401.1394
8485	1509394485	54.6051	-110.6632	851.6	202.6	8.2	1.6	4.5	-0.03	54.14	1.9739	401.5383
8486	1509394486	54.6058	-110.6631	851.6	202.5	6.8	2.2	4.4	-0.03	54.19	1.9742	401.6916
8487	1509394487	54.6065	-110.6629	851.0	201.1	6.0	1.6	4.5	-0.02	54.22	1.9739	400.8178
8488	1509394488	54.6072	-110.6628	850.3	199.3	3.8	2.4	4.5	-0.01	54.23	1.9752	400.5676
8489	1509394489	54.6079	-110.6627	849.9	198.9	2.4	2.1	4.7	-0.01	54.18	1.9786	400.5553
8490	1509394490	54.6086	-110.6626	848.6	198.0	0.7	2.5	4.5	-0.01	54.08	1.9808	400.8790
8491	1509394491	54.6093	-110.6626	847.6	198.0	358.7	3.2	4.2	-0.01	53.86	1.9782	400.9496
8492	1509394492	54.6100	-110.6626	848.3	199.7	358.5	2.2	4.1	-0.01	53.63	1.9789	401.2351
8493	1509394493	54.6107	-110.6626	850.8	202.8	357.4	3.1	4.0	-0.01	53.46	1.9802	400.2318
8494	1509394494	54.6115	-110.6626	853.1	206.1	357.4	3.2	4.0	-0.01	53.31	1.9796	400.8844
8495	1509394495	54.6122	-110.6626	855.1	208.1	358.3	3.1	3.8	-0.01	53.16	1.9786	400.6085
8496	1509394496	54.6129	-110.6625	857.2	211.2	358.4	4.1	3.6	0.00	53.02	1.9778	401.3377
8497	1509394497	54.6135	-110.6625	859.1	213.1	-0.6	3.2	3.8	0.01	52.88	1.9790	401.6162
8498	1509394498	54.6143	-110.6625	860.5	213.7	-0.2	3.2	3.7	0.01	52.75	1.9775	400.7629
8499	1509394499	54.6150	-110.6624	861.3	214.3	-0.1	3.3	3.7	0.01	52.68	1.9768	402.1848
8500	1509394500	54.6157	-110.6624	862.2	214.2	0.3	3.3	4.1	0.01	52.65	1.9774	400.9941
8501	1509394501	54.6164	-110.6623	862.8	213.7	0.1	3.5	4.1	0.03	52.65	1.9769	401.6536
8502	1509394502	54.6170	-110.6622	863.1	214.1	0.5	3.4	4.0	0.03	52.65	1.9792	401.8490
8503	1509394503	54.6178	-110.6622	863.9	214.9	0.8	3.5	3.9	0.03	52.65	1.9783	400.1989
8504	1509394504	54.6184	-110.6621	864.2	214.2	1.5	3.0	3.9	0.03	52.65	1.9775	401.2326
8505	1509394505	54.6191	-110.6620	864.5	214.5	1.5	3.1	3.9	0.03	52.65	1.9754	400.7412
8506	1509394506	54.6198	-110.6620	864.9	213.9	1.4	2.6	4.5	0.03	52.66	1.9744	402.0242
8507	1509394507	54.6206	-110.6619	864.9	213.9	1.4	2.0	4.6	0.03	52.72	1.9738	401.3865
8508	1509394508	54.6213	-110.6618	865.0	213.0	0.4	2.2	4.6	0.03	52.89	1.9751	403.6591
8509	1509394509	54.6220	-110.6618	865.1	213.0	-0.2	2.4	4.1	0.03	53.05	1.9773	400.9987
8510	1509394510	54.6227	-110.6618	866.0	214.8	358.7	3.2	4.0	0.03	53.14	1.9796	402.0688
8511	1509394511	54.6233	-110.6617	867.8	216.8	359.0	3.0	3.7	0.03	53.20	1.9786	402.0688
8512	1509394512	54.6241	-110.6617	870.2	220.2	358.5	3.5	3.9	0.03	53.22	1.9774	401.5537
8513	1509394513	54.6247	-110.6617	872.2	222.8	-0.3	2.1	3.9	0.03	53.27	1.9783	402.5023
8514	1509394514	54.6254	-110.6617	873.2	224.2	0.1	2.5	4.5	0.03	53.38	1.9790	402.0871
8515	1509394515	54.6261	-110.6616	874.9	225.9	0.1	3.2	4.6	0.03	53.53	1.9790	401.5573
8516	1509394516	54.6268	-110.6616	876.7	227.7	1.1	3.1	4.4	0.03	53.62	1.9776	401.7765
8517	1509394517	54.6275	-110.6615	878.6	230.3	0.7	4.1	4.2	0.03	53.65	1.9791	401.8105
8518	1509394518	54.6282	-110.6614	879.7	231.7	1.3	3.6	4.2	0.03	53.67	1.9822	401.9055
8519	1509394519	54.6289	-110.6613	880.0	232.0	1.4	3.7	4.5	0.03	53.68	1.9816	401.3098
8520	1509394520	54.6296	-110.6612	880.0	232.0	1.5	3.6	4.6	0.03	53.71	1.9812	402.1097
8521	1509394521	54.6302	-110.6612	879.6	230.6	2.4	2.5	4.2	0.00	53.79	1.9814	403.0515
8522	1509394522	54.6310	-110.6611	878.9	229.9	1.8	3.1	4.1	-0.02	53.98	1.9832	401.7670
8523	1509394523	54.6316	-110.6610	878.0	229.1	1.7	2.7	4.4	-0.02	54.14	1.9871	402.2765
8524	1509394524	54.6323	-110.6609	876.8	226.7	1.2	2.6	4.6	-0.04	54.21	1.9881	402.3479
8525	1509394525	54.6330	-110.6609	876.0	226.0	359.3	4.0	4.7	-0.06	54.23	1.9886	402.4664
8526	1509394526	54.6337	-110.6608	875.0	225.0	0.2	2.9	4.6	-0.07	54.22	1.9888	401.8559
8527	1509394527	54.6344	-110.6608	874.1	224.0	-0.4	4.2	4.5	-0.09	54.16	1.9883	401.6789
8528	1509394528	54.6351	-110.6607	872.9	222.9	0.8	3.0	4.7	-0.09	54.10	1.9895	402.6333
8529	1509394529	54.6358	-110.6606	871.8	221.8	1.7	2.9	4.9	-0.11	54.10	1.9918	401.4319
8530	1509394530	54.6365	-110.6606	871.5	221.5	1.0	3.6	4.7	-0.11	54.10	1.9917	401.7123
8531	1509394531	54.6372	-110.6605	871.1	222.1	1.7	2.9	4.4	-0.12	54.11	1.9912	401.6898
8532	1509394532	54.6379	-110.6604	871.6	223.6	1.2	3.3	4.4	-0.13	54.10	1.9897	401.6823
8533	1509394533	54.6386	-110.6603	872.3	226.3	1.1	3.4	4.2	-0.13	54.11	1.9903	401.6823
8534	1509394534	54.6393	-110.6603	871.8	227.5	1.3	3.0	3.9	-0.13	54.17	1.9906	402.6852
8535	1509394535	54.6400	-110.6602	871.5	229.4	1.7	2.2	4.0	-0.13	54.30	1.9908	401.6516
8536	1509394536	54.6407	-110.6601	870.9	230.4	1.5	2.3	3.6	-0.14	54.45	1.9865	401.9136
8537	1509394537	54.6414	-110.6601	870.5	232.6	1.0	2.4	3.6	-0.15	54.56	1.9887	402.5765
8538	1509394538	54.6422	-110.6600	870.3	233.2	1.5	1.8	4.1	-0.15	54.70	1.9918	401.1706
8539	1509394539	54.6429	-110.6599	869.6	234.7	0.7	2.5	4.7	-0.15	54.87	1.9900	401.2025
8540	1509394540	54.6435	-110.6599	868.2	233.0	0.6	2.8	5.4	-0.15	55.00	1.9887	403.1235
8541	1509394541	54.6443	-110.6598	866.6	232.5	0.4	2.9	4.6	-0.17	55.03	1.9874	402.9835
8542	1509394542	54.6450	-110.6598	866.4	233.4	0.4	3.3	4.3	-0.17	55.06	1.9906	401.8676
8543	1509394543	54.6457	-110.6597	865.5	233.5	1.1	3.0	4.4	-0.17	55.18	1.9928	401.8676
8544	1509394544	54.6464	-110.6596	864.3	232.3	2.2	2.4	4.4	-0.19	55.30	1.9912	401.2415
8545	1509394545	54.6471	-110.6596	864.1	232.1	2.4	2.3	4.1	-0.19	55.36	1.9897	403.0790
8546	1509394546	54.6478	-110.6595	863.8	231.8	2.0	2.4	4.0	-0.20	55.40	1.9901	401.9646
8547	1509394547	54.6485	-110.6594	863.2	231.5	1.5	2.3	4.1	-0.21	55.42	1.9893	402.2993
8548	1509394548	54.6492	-110.6593	863.1	232.1	1.5	2.0	4.1	-0.21	55.46	1.9900	402.0036
8549	1509394549	54.6500	-110.6593	863.7	232.7	1.4	2.0	4.5	-0.22	55.56	1.9946	401.2208
8550	1509394550	54.6507	-110.6592	863.8	232.1	2.2	1.3	4.3	-0.23	55.67	1.9949	403.0400
8551	1509394551	54.6514	-110.6592	864.2	232.6	1.5	2.6	4.0	-0.23	55.74	1.9961	400.9362
8552	1509394552	54.6521	-110.6591	865.3	233.3	1.4	2.9	3.8	-0.24	55.77	1.9975	402.0428
8553	1509394553	54.6528	-110.6590	866.5	234.5	1.4	2.9	3.7	-0.25	55.78	1.9985	401.1140
8554	1509394554	54.6535	-110.6589	866.7	233.7	1.2	2.8	3.7	-0.26	55.74	1.9980	402.0400
8555	1509394555	54.6542	-110.6589	865.5	231.5	0.8	2.9	3.8	-0.27	55.64	1.9972	403.0772
8556	1509394556	54.6549	-110.6588	863.6	229.3	0.9	2.1	3.8	-0.27	55.57	1.9971	401.4778
8557	1509394557	54.6556	-110.6588	862.6	227.6	1.0	1.9	3.7	-0.28	55.54	1.9985	401.1253
8558	1509394558	54.6564	-110.6587	862.7	227.7	0.5	2.3	3.8	-0.29	55.52	1.9985	400.1882
8559	1509394559	54.6571	-110.6587	863.3	227.3	0.7	2.2	4.1	-0.29	55.51	1.9990	402.7422
8560	1509394560	54.6578	-110.6586	863.1	226.1	0.3	2.8	3.9	-0.29	55.49	1.9966	401.9457
8561	1509394561	54.6585	-110.6586	863.2	226.3	0.7	2.3	3.5	-0.29	55.46	1.9978	401.1851
8562	1509394562	54.6592	-110.6585	863.2	225.2	1.4	1.7	3.7	-0.29	55.44	1.9997	401.0300
8563	1509394563	54.6600	-110.6585	863.0	224.0	1.2	2.3	4.0	-0.30	55.44	2.0004	401.3245
8564	1509394564	54.6607	-110.6584	862.9	223.9	1.2	2.3	3.8	-0.31	55.47	1.9998	401.7332
8565	1509394565	54.6614	-110.6583	863.0	224.0	1.6	1.9	3.4	-0.31	55.50	1.9969	400.7645
8566	1509394566	54.6621	-110.6583	863.4	223.4	1.8	1.6	3.3	-0.31	55.54	1.9989	402.3058
8567	1509394567	54.6628	-110.6582	864.0	224.0	2.1	0.8	3.5	-0.29	55.60	1.9995	402.3058
8568	1509394568	54.6635	-110.6582	864.8	223.8	1.7	1.3	3.8	-0.28	55.70	2.0028	402.7220
8569	1509394569	54.6642	-110.6581	864.5	223.5	1.2	1.5	4.0	-0.30	55.79	2.0050	401.8535
8570	1509394570	54.6649	-110.6581	862.9	220.9	0.8	2.0	4.1	-0.29	55.80	2.0041	401.5318
8571	1509394571	54.6657	-110.6580	861.5	219.5	0.0	2.8	4.2	-0.31	55.79	2.0054	401.5318
8572	1509394572	54.6664	-110.6580	861.0	219.0	1.0	1.7	3.8	-0.33	55.76	2.0054	401.6957
8573	1509394573	54.6671	-110.6579	861.3	220.3	0.3	2.6	4.2	-0.33	55.71	2.0052	401.0769
8574	1509394574	54.6678	-110.6579	861.5	220.5	0.4	2.4	4.1	-0.33	55.63	2.0056	400.9167
8575	1509394575	54.6685	-110.6578	861.6	221.3	0.2	2.7	3.5	-0.33	55.52	2.0058	400.6952
8576	1509394576	54.6692	-110.6578	861.3	221.3	0.5	2.2	3.6	-0.33	55.44	2.0031	402.1972
8577	1509394577	54.6699	-110.6578	860.4	221.4	0.8	1.9	3.7	-0.33	55.38	2.0037	401.0162
8578	1509394578	54.6707	-110.6577	858.7	220.0	0.9	1.8	3.4	-0.33	55.35	2.0045	401.6313
8579	1509394579	54.6714	-110.6577	856.9	218.9	1.4	1.3	3.5	-0.33	55.37	2.0060	401.9933
8580	1509394580	54.6721	-110.6576	855.8	217.8	0.6	2.3	4.1	-0.33	55.46	2.0062	402.2685
8581	1509394581	54.6728	-110.6576	855.2	217.2	1.0	1.9	4.2	-0.33	55.55	2.0056	402.0856
8582	1509394582	54.6735	-110.6575	854.3	216.3	1.7	1.5	4.4	-0.33	55.60	2.0058	400.7374
8583	1509394583	54.6743	-110.6574	852.9	214.0	0.7	2.9	4.9	-0.33	55.58	2.0085	401.4377
8584	1509394584	54.6750	-110.6574	852.1	212.8	1.1	2.6	5.1	-0.33	55.53	2.0097	402.4637
8585	1509394585	54.6757	-110.6573	851.3	210.3	1.0	2.8	4.9	-0.33	55.40	2.0095	401.9451
8586	1509394586	54.6764	-110.6573	850.2	207.9	1.1	2.7	4.4	-0.33	55.33	2.0095	401.9450
8587	1509394587	54.6772	-110.6572	849.5	206.5	1.1	2.4	3.9	-0.33	55.27	2.0105	402.3510
8588	1509394588	54.6779	-110.6571	848.7	204.7	1.4	2.0	4.1	-0.33	55.22	2.0107	401.2460
8589	1509394589	54.6786	-110.6571	849.2	204.1	0.6	2.7	4.2	-0.33	55.19	2.0100	401.7776
8590	1509394590	54.6793	-110.6570	850.7	205.7	0.4	2.7	4.2	-0.31	55.18	2.0103	401.6800
8591	1509394591	54.6801	-110.6570	851.6	206.6	0.3	2.7	4.3	-0.31	55.16	2.0083	402.6798
8592	1509394592	54.6808	-110.6569	852.6	207.6	0.6	2.4	4.1	-0.31	55.13	2.0084	401.6719
8593	1509394593	54.6815	-110.6569	853.8	208.8	1.2	1.8	4.0	-0.31	55.08	2.0099	401.8323
8594	1509394594	54.6822	-110.6568	854.6	209.6	1.0	2.3	3.9	-0.31	55.03	2.0110	400.9956
8595	1509394595	54.6829	-110.6568	855.3	210.3	0.2	3.3	4.0	-0.31	54.95	2.0105	403.6194
8596	1509394596	54.6836	-110.6567	856.4	212.4	0.3	3.1	4.0	-0.31	54.87	2.0116	402.7126
8597	1509394597	54.6844	-110.6567	859.0	215.9	1.2	2.1	3.9	-0.29	54.84	2.0126	401.9409
8598	1509394598	54.6851	-110.6566	861.8	220.5	0.7	2.8	4.0	-0.29	54.83	2.0090	401.7434
8599	1509394599	54.6858	-110.6565	863.9	223.2	0.7	2.6	4.2	-0.29	54.88	2.0054	401.3670
8600	1509394600	54.6865	-110.6565	866.2	226.8	0.5	2.9	3.8	-0.29	54.99	2.0049	401.3759
8601	1509394601	54.6872	-110.6564	868.5	229.5	0.5	2.9	3.6	-0.29	55.06	2.0049	401.3759
8602	1509394602	54.6879	-110.6564	869.9	231.9	0.8	2.5	3.7	-0.29	55.08	2.0063	402.0888
8603	1509394603	54.6885	-110.6563	869.8	232.8	1.1	2.0	4.0	-0.29	55.12	2.0043	401.9801
8604	1509394604	54.6893	-110.6563	869.1	233.1	1.6	1.5	3.7	-0.29	55.25	2.0023	401.4484
8605	1509394605	54.6900	-110.6562	868.3	232.3	1.1	2.1	3.7	-0.29	55.42	2.0046	401.6496
8606	1509394606	54.6907	-110.6562	868.0	231.0	1.0	2.4	3.8	-0.30	55.53	2.0062	401.6110
8607	1509394607	54.6914	-110.6561	867.9	230.9	1.2	2.3	3.3	-0.30	55.60	2.0063	401.2514
8608	1509394608	54.6921	-110.6560	867.6	230.6	2.3	1.4	2.9	-0.31	55.69	2.0057	401.8516
8609	1509394609	54.6928	-110.6560	867.7	230.0	2.5	1.2	3.4	-0.31	55.83	2.0061	400.6958
8610	1509394610	54.6935	-110.6559	868.2	230.2	3.0	0.8	3.4	-0.31	56.00	2.0063	402.7323
8611	1509394611	54.6942	-110.6558	868.9	231.6	2.6	1.3	3.4	-0.33	56.13	2.0053	400.6927
8612	1509394612	54.6949	-110.6558	868.7	231.7	2.7	1.3	4.4	-0.33	56.21	2.0054	401.1032
8613	1509394613	54.6956	-110.6557	868.5	232.5	1.7	2.4	4.5	-0.33	56.24	2.0050	401.1137
8614	1509394614	54.6963	-110.6556	868.1	232.1	1.3	2.2	4.6	-0.33	56.25	2.0053	401.4844
8615	1509394615	54.6970	-110.6556	867.6	230.6	0.9	2.3	4.2	-0.32	56.23	2.0066	402.2841
8616	1509394616	54.6977	-110.6555	867.1	230.1	0.4	2.3	3.4	-0.33	56.21	2.0066	401.9568
8617	1509394617	54.6984	-110.6555	866.2	229.2	1.2	1.3	3.8	-0.34	56.21	2.0086	402.0577
8618	1509394618	54.6991	-110.6554	864.5	227.5	0.2	2.4	4.6	-0.35	56.22	2.0057	401.5822
8619	1509394619	54.6998	-110.6554	862.6	225.6	0.1	1.9	4.6	-0.36	56.24	2.0083	401.2050
8620	1509394620	54.7005	-110.6554	860.5	223.5	-0.2	2.2	4.3	-0.35	56.25	2.0106	401.8169
8621	1509394621	54.7012	-110.6553	858.7	221.7	359.0	2.9	4.2	-0.36	56.21	2.0084	402.0768
8622	1509394622	54.7017	-110.6553	857.4	220.4	-0.4	2.4	3.9	-0.37	56.15	2.0085	402.2912
8623	1509394623	54.7025	-110.6553	855.6	218.6	0.1	2.2	4.0	-0.37	56.10	2.0093	401.9664
8624	1509394624	54.7033	-110.6552	854.0	214.9	0.9	1.8	4.5	-0.38	56.09	2.0091	401.8612
8625	1509394625	54.7041	-110.6552	852.4	211.0	1.9	0.8	4.7	-0.39	56.09	2.0066	401.5775
8626	1509394626	54.7049	-110.6551	851.0	208.0	1.5	1.2	4.4	-0.39	56.12	2.0084	401.5775
8627	1509394627	54.7056	-110.6551	851.0	207.0	0.7	2.1	4.5	-0.39	56.17	2.0103	401.3993
8628	1509394628	54.7063	-110.6550	851.6	207.6	0.4	2.2	5.0	-0.39	56.18	2.0091	402.3088
8629	1509394629	54.7070	-110.6550	851.7	208.7	0.5	2.2	5.2	-0.37	56.18	2.0066	401.2566
8630	1509394630	54.7078	-110.6549	852.2	210.2	-0.3	2.9	5.1	-0.37	56.18	2.0058	401.7169
8631	1509394631	54.7085	-110.6549	853.1	212.5	0.0	2.6	4.6	-0.38	56.16	2.0061	400.6427
8632	1509394632	54.7092	-110.6549	854.5	214.5	-0.4	3.0	4.2	-0.38	56.06	2.0073	400.6751
8633	1509394633	54.7099	-110.6548	855.9	216.0	-0.2	2.7	4.0	-0.38	55.90	2.0093	401.6989
8634	1509394634	54.7106	-110.6548	856.1	217.2	0.1	2.7	3.9	-0.37	55.79	2.0102	400.5252
8635	1509394635	54.7114	-110.6547	856.6	217.6	0.7	2.6	3.2	-0.38	55.77	2.0114	400.0024
8636	1509394636	54.7120	-110.6547	858.3	220.3	2.0	1.4	2.8	-0.39	55.80	2.0071	401.1211
8637	1509394637	54.7127	-110.6546	859.9	223.6	2.7	0.8	3.3	-0.39	55.88	2.0036	401.1211
8638	1509394638	54.7135	-110.6545	860.5	226.4	1.6	2.2	3.7	-0.39	55.91	2.0073	401.2431
8639	1509394639	54.7142	-110.6545	860.4	228.3	1.4	2.3	4.0	-0.39	55.91	2.0100	401.5165
8640	1509394640	54.7149	-110.6544	860.2	229.5	0.8	2.7	4.0	-0.39	55.71	2.0095	401.2466
8641	1509394641	54.7156	-110.6544	860.0	230.0	1.2	1.7	4.1	-0.39	55.65	2.0063	401.0030
8642	1509394642	54.7164	-110.6543	858.8	228.8	0.1	3.1	4.2	-0.39	55.62	2.0069	401.0749
8643	1509394643	54.7171	-110.6543	858.5	228.5	-0.3	3.1	4.2	-0.39	55.60	2.0084	400.3097
8644	1509394644	54.7178	-110.6542	859.1	229.1	-0.5	3.3	4.1	-0.39	55.58	2.0091	402.9124
8645	1509394645	54.7185	-110.6542	860.5	230.5	-0.4	2.8	3.9	-0.39	55.54	2.0106	402.1730
8646	1509394646	54.7192	-110.6541	861.7	231.7	0.5	2.1	3.3	-0.39	55.54	2.0117	402.1730
8647	1509394647	54.7199	-110.6541	862.8	232.8	0.0	2.8	3.6	-0.37	55.55	2.0118	401.9060
8648	1509394648	54.7206	-110.6541	864.4	234.4	0.8	1.9	3.9	-0.37	55.57	2.0110	401.7141
8649	1509394649	54.7213	-110.6540	866.6	236.6	0.1	2.8	4.2	-0.37	55.59	2.0098	401.4930
8650	1509394650	54.7220	-110.6540	868.5	238.5	-0.2	3.0	4.0	-0.37	55.65	2.0095	401.1741
8651	1509394651	54.7227	-110.6539	870.0	240.0	0.0	3.0	3.9	-0.37	55.71	2.0096	401.2186
8652	1509394652	54.7234	-110.6539	870.1	240.1	-0.5	3.7	4.4	-0.39	55.72	2.0112	401.7454
8653	1509394653	54.7242	-110.6538	869.6	239.6	-0.3	3.7	4.2	-0.39	55.70	2.0103	402.0671
8654	1509394654	54.7249	-110.6538	867.6	237.3	0.9	2.8	4.4	-0.39	55.63	2.0100	401.3980
8655	1509394655	54.7256	-110.6537	865.3	233.2	1.1	3.0	4.2	-0.39	55.58	2.0112	402.9149
8656	1509394656	54.7263	-110.6536	863.9	231.9	1.4	2.8	3.9	-0.39	55.58	2.0124	402.0434
8657	1509394657	54.7270	-110.6536	863.1	233.1	1.9	2.2	3.6	-0.39	55.62	2.0131	401.6076
8658	1509394658	54.7277	-110.6535	862.6	232.6	1.6	2.5	3.9	-0.39	55.79	2.0124	401.6201
8659	1509394659	54.7284	-110.6534	862.2	232.2	0.8	2.8	4.1	-0.39	55.94	2.0123	403.3701
8660	1509394660	54.7291	-110.6534	862.6	232.6	0.6	2.7	4.0	-0.39	55.99	2.0111	401.0563
8661	1509394661	54.7298	-110.6533	863.4	233.4	-0.4	3.6	3.9	-0.39	56.00	2.0100	402.1347
8662	1509394662	54.7306	-110.6533	863.6	233.6	-0.2	3.3	3.9	-0.39	55.98	2.0107	402.6861
8663	1509394663	54.7313	-110.6532	863.7	233.7	-0.3	3.2	3.9	-0.39	55.88	2.0132	403.4061
8664	1509394664	54.7320	-110.6532	864.6	234.6	-0.2	3.0	3.7	-0.39	55.76	2.0135	402.6030
8665	1509394665	54.7327	-110.6531	865.2	235.2	0.2	2.5	3.7	-0.39	55.68	2.0128	402.6478
8666	1509394666	54.7334	-110.6531	865.1	235.1	0.3	2.4	3.8	-0.39	55.66	2.0140	402.6160
8667	1509394667	54.7341	-110.6530	864.5	234.5	0.4	2.1	3.9	-0.39	55.67	2.0140	402.5265
8668	1509394668	54.7348	-110.6530	863.2	233.2	0.2	2.3	4.0	-0.39	55.79	2.0144	402.4997
8669	1509394669	54.7355	-110.6530	862.2	232.2	0.1	2.4	3.9	-0.39	55.93	2.0146	402.7714
8670	1509394670	54.7363	-110.6529	861.2	231.2	0.1	2.4	3.5	-0.39	56.06	2.0140	401.5194
8671	1509394671	54.7370	-110.6529	860.0	230.0	0.7	2.0	3.6	-0.40	56.22	2.0129	402.6446
8672	1509394672	54.7377	-110.6528	858.6	224.9	0.9	2.1	3.9	-0.41	56.37	2.0125	402.9905
8673	1509394673	54.7384	-110.6528	857.9	221.3	1.0	1.9	3.7	-0.40	56.47	2.0141	403.4239
8674	1509394674	54.7390	-110.6527	857.4	221.0	1.5	1.7	3.8	-0.39	56.52	2.0140	403.7155
8675	1509394675	54.7392	-110.6527	857.2	220.7	1.5	1.8	3.6	-0.40	56.54	2.0135	403.6970
8676	1509394676	54.7394	-110.6527	856.8	220.8	1.3	2.0	3.5	-0.41	56.57	2.0132	403.0329
8677	1509394677	54.7403	-110.6526	855.2	219.1	1.5	2.0	3.6	-0.41	56.61	2.0131	402.8656
8678	1509394678	54.7411	-110.6526	853.8	215.7	1.4	2.2	3.6	-0.39	56.60	2.0132	403.5300
8679	1509394679	54.7419	-110.6525	852.6	209.4	1.6	1.8	3.7	-0.38	56.59	2.0114	403.2732
8680	1509394680	54.7428	-110.6524	850.8	204.9	2.6	1.0	3.9	-0.40	56.57	2.0129	401.9092
8681	1509394681	54.7436	-110.6523	848.7	203.1	2.6	1.4	3.5	-0.38	56.58	2.0131	402.6270
8682	1509394682	54.7445	-110.6522	847.6	204.0	2.6	1.4	3.7	-0.41	56.65	2.0154	404.1545
8683	1509394683	54.7453	-110.6521	846.1	202.9	2.9	1.3	4.3	-0.41	56.73	2.0152	404.1545
8684	1509394684	54.7462	-110.6521	844.4	202.9	2.1	2.3	3.9	-0.41	56.72	2.0132	402.3943
8685	1509394685	54.7470	-110.6520	844.0	201.9	2.6	1.6	3.9	-0.41	56.61	2.0134	403.2873
8686	1509394686	54.7478	-110.6519	844.0	200.0	2.7	1.5	4.0	-0.41	56.47	2.0127	403.2929
8687	1509394687	54.7486	-110.6518	843.7	199.7	3.1	1.1	3.9	-0.41	56.44	2.0123	403.0979
8688	1509394688	54.7493	-110.6517	843.9	199.3	3.1	1.3	3.9	-0.41	56.41	2.0125	403.7533
8689	1509394689	54.7500	-110.6516	844.2	198.4	3.0	1.4	4.4	-0.41	56.38	2.0129	403.4765
8690	1509394690	54.7508	-110.6515	844.2	198.0	3.1	1.2	3.8	-0.41	56.34	2.0143	402.8329
8691	1509394691	54.7515	-110.6514	844.9	196.6	3.2	1.3	4.0	-0.40	56.29	2.0152	403.6867
8692	1509394692	54.7522	-110.6514	847.3	197.5	2.9	1.8	4.2	-0.39	56.29	2.0150	403.4082
8693	1509394693	54.7529	-110.6513	850.4	200.6	3.6	1.2	4.0	-0.38	56.29	2.0173	404.8093
8694	1509394694	54.7537	-110.6512	852.8	202.9	3.2	2.8	4.0	-0.37	56.29	2.0158	404.8778
8695	1509394695	54.7544	-110.6510	853.9	203.9	5.0	3.9	3.7	-0.37	56.29	2.0144	404.2925
8696	1509394696	54.7551	-110.6508	855.1	205.0	10.4	4.2	3.2	-0.36	56.27	2.0168	405.2053
8697	1509394697	54.7558	-110.6505	856.6	206.6	17.5	3.7	2.7	-0.36	56.18	2.0148	404.4582
8698	1509394698	54.7564	-110.6500	857.8	206.8	25.4	3.7	2.5	-0.34	56.02	2.0127	402.1910
8699	1509394699	54.7570	-110.6494	858.7	207.7	34.1	4.0	2.4	-0.35	55.85	2.0133	402.6991
8700	1509394700	54.7576	-110.6486	859.0	208.0	44.0	3.1	2.3	-0.34	55.78	2.0129	402.0923
8701	1509394701	54.7581	-110.6476	858.5	207.5	53.3	2.5	2.1	-0.35	55.80	2.0125	403.0663
8702	1509394702	54.7584	-110.6466	857.1	206.1	62.1	2.4	1.9	-0.35	56.00	2.0124	403.0663
8703	1509394703	54.7587	-110.6455	855.0	203.0	70.6	2.3	1.8	-0.35	56.36	2.0128	402.4121
8704	1509394704	54.7589	-110.6443	851.9	199.9	79.6	1.9	2.1	-0.35	56.60	2.0117	402.5357
8705	1509394705	54.7590	-110.6431	847.8	195.9	88.1	1.7	2.3	-0.35	56.70	2.0126	403.0250
8706	1509394706	54.7590	-110.6419	843.2	189.9	96.2	1.9	3.3	-0.34	56.73	2.0133	402.9297
8707	1509394707	54.7589	-110.6407	839.0	185.0	102.1	2.0	4.3	-0.33	56.77	2.0127	402.4232
8708	1509394708	54.7588	-110.6395	836.6	182.6	103.6	1.8	3.6	-0.33	56.80	2.0116	401.6836
8709	1509394709	54.7587	-110.6383	834.4	180.4	103.9	1.6	3.4	-0.33	56.81	2.0133	402.6617
8710	1509394710	54.7585	-110.6371	832.4	177.4	103.6	0.9	2.8	-0.33	56.77	2.0137	402.2569
8711	1509394711	54.7584	-110.6359	833.5	177.5	103.6	0.7	3.0	-0.33	56.61	2.0134	402.1604
8712	1509394712	54.7582	-110.6348	838.6	182.5	104.3	0.8	3.8	-0.33	56.50	2.0145	402.0250
8713	1509394713	54.7581	-110.6336	846.9	189.9	103.8	0.8	3.5	-0.31	56.40	2.0132	402.2038
8714	1509394714	54.7580	-110.6325	853.2	196.2	104.0	1.0	4.1	-0.31	56.33	2.0159	403.7085
8715	1509394715	54.7578	-110.6313	857.5	200.5	102.5	1.4	3.6	-0.31	56.22	2.0159	403.8563
8716	1509394716	54.7577	-110.6301	860.4	203.7	100.4	1.6	3.9	-0.31	56.12	2.0160	404.5417
8717	1509394717	54.7577	-110.6290	862.9	206.2	96.9	2.1	3.4	-0.31	56.02	2.0135	404.7539
8718	1509394718	54.7576	-110.6279	865.4	208.7	93.4	2.4	3.1	-0.31	55.95	2.0122	403.4327
8719	1509394719	54.7577	-110.6267	867.3	210.6	90.5	2.3	1.8	-0.31	55.90	2.0141	403.7369
8720	1509394720	54.7577	-110.6255	868.1	211.1	90.1	2.2	2.2	-0.31	55.90	2.0159	404.9985
8721	1509394721	54.7577	-110.6244	869.3	212.3	91.3	2.1	3.5	-0.31	55.91	2.0148	404.7648
8722	1509394722	54.7577	-110.6233	870.9	212.9	90.8	2.4	3.0	-0.31	55.92	2.0128	402.8875
8723	1509394723	54.7577	-110.6221	872.7	213.7	90.9	1.9	3.1	-0.32	55.93	2.0105	404.4906
8724	1509394724	54.7577	-110.6210	874.0	215.0	90.8	2.2	2.7	-0.33	55.97	2.0131	403.2167
8725	1509394725	54.7578	-110.6198	875.2	216.2	90.2	2.3	1.9	-0.33	56.06	2.0143	404.8702
8726	1509394726	54.7578	-110.6186	875.8	216.8	90.7	1.8	2.7	-0.35	56.15	2.0143	404.8702
8727	1509394727	54.7578	-110.6175	876.8	217.8	91.1	2.1	3.1	-0.35	56.20	2.0144	404.8702
8728	1509394728	54.7578	-110.6164	878.0	219.0	90.7	2.1	2.4	-0.37	56.22	2.0144	404.8702
8729	1509394729	54.7578	-110.6152	879.1	220.1	90.7	2.1	2.2	-0.37	56.23	2.0145	404.8702
8730	1509394730	54.7578	-110.6140	879.6	219.6	90.3	2.4	1.6	-0.37	56.26	2.0145	404.8702
8731	1509394731	54.7578	-110.6129	880.2	219.2	90.7	2.6	2.0	-0.39	56.34	2.0145	404.8702
8732	1509394732	54.7578	-110.6117	881.0	219.0	91.8	2.6	3.1	-0.39	56.44	2.0146	404.8702
8733	1509394733	54.7579	-110.6106	881.1	219.1	91.7	2.7	3.0	-0.41	56.51	2.0115	403.3604
8734	1509394734	54.7579	-110.6097	881.0	218.0	91.3	2.7	2.7	-0.43	56.55	2.0109	402.7453
8735	1509394735	54.7579	-110.6096	881.0	218.0	91.3	2.6	2.7	-0.44	56.60	2.0061	402.2553
8736	1509394736	54.7579	-110.6096	881.0	218.0	91.3	2.5	2.8	-0.45	56.64	2.0074	401.5924
8737	1509394737	54.7579	-110.6095	881.0	218.0	91.4	2.3	2.8	-0.47	56.69	2.0080	401.0239
8738	1509394738	54.7579	-110.6094	881.1	217.8	91.4	2.2	2.8	-0.48	56.73	2.0097	404.2970
8739	1509394739	54.7579	-110.6093	881.1	217.8	91.4	1.8	2.9	-0.49	56.78	2.0110	404.4376
8740	1509394740	54.7579	-110.6092	881.1	217.8	91.4	1.8	2.9	-0.51	56.82	2.0122	404.6499
8741	1509394741	54.7579	-110.6090	881.1	217.1	91.5	2.0	3.1	-0.52	56.87	2.0135	406.9296
8742	1509394742	54.7579	-110.6076	881.1	217.1	91.6	2.4	3.2	-0.53	56.91	2.0143	408.8659
8743	1509394743	54.7579	-110.6063	880.9	216.9	90.7	2.4	2.2	-0.55	56.96	2.0139	408.7208
8744	1509394744	54.7579	-110.6049	880.9	216.9	90.7	2.3	2.5	-0.55	56.86	2.0114	406.5088
8745	1509394745	54.7579	-110.6036	880.5	216.5	91.1	2.8	3.2	-0.57	56.70	2.0088	405.0479
8746	1509394746	54.7579	-110.6023	880.5	215.5	90.7	2.7	2.7	-0.57	56.51	2.0075	404.1599
8747	1509394747	54.7580	-110.6009	881.3	215.3	91.0	2.3	2.8	-0.57	56.42	2.0069	402.8605
8748	1509394748	54.7580	-110.5996	882.3	214.3	91.0	2.2	2.6	-0.57	56.39	2.0083	403.3335
8749	1509394749	54.7580	-110.5982	882.9	213.0	91.4	1.9	2.8	-0.59	56.39	2.0075	404.4524
8750	1509394750	54.7580	-110.5969	883.1	212.1	91.5	2.3	2.6	-0.59	56.48	2.0045	404.7518
8751	1509394751	54.7580	-110.5955	883.7	212.7	92.2	1.9	3.3	-0.59	56.53	2.0061	404.3481
8752	1509394752	54.7580	-110.5942	884.0	214.0	92.0	1.9	3.1	-0.60	56.55	2.0057	404.3399
8753	1509394753	54.7580	-110.5929	884.1	214.1	92.3	2.1	3.6	-0.60	56.54	2.0035	404.5746
8754	1509394754	54.7580	-110.5915	884.7	213.7	92.1	2.1	3.4	-0.59	56.50	2.0019	403.5654
8755	1509394755	54.7580	-110.5902	886.0	213.7	91.7	2.0	3.1	-0.60	56.47	2.0019	403.4942
8756	1509394756	54.7580	-110.5888	887.9	213.9	91.7	1.8	3.2	-0.59	56.51	2.0029	402.7072
8757	1509394757	54.7581	-110.5875	889.6	215.6	91.9	2.2	3.3	-0.59	56.66	2.0013	403.3190
8758	1509394758	54.7581	-110.5861	890.9	217.9	92.1	1.6	3.5	-0.60	56.80	2.0018	403.4925
8759	1509394759	54.7581	-110.5848	892.3	218.3	91.3	1.9	2.6	-0.61	56.88	2.0027	403.5419
8760	1509394760	54.7581	-110.5835	894.3	220.3	90.6	1.8	1.7	-0.62	56.94	2.0026	403.8599
8761	1509394761	54.7581	-110.5822	896.2	222.2	91.6	1.8	2.7	-0.62	56.95	2.0019	404.1174
8762	1509394762	54.7581	-110.5808	897.2	223.2	91.2	1.8	2.0	-0.62	56.97	2.0008	402.4026
8763	1509394763	54.7581	-110.5795	897.5	223.2	91.4	1.9	2.5	-0.61	56.97	2.0012	403.4386
8764	1509394764	54.7581	-110.5782	897.0	222.7	91.7	2.1	3.1	-0.61	56.96	2.0002	402.0208
8765	1509394765	54.7581	-110.5769	896.1	221.1	91.4	2.0	3.0	-0.61	56.94	1.9993	402.5555
8766	1509394766	54.7581	-110.5755	894.2	219.2	91.0	1.9	2.9	-0.59	56.93	1.9997	403.2498
8767	1509394767	54.7582	-110.5742	892.0	217.0	90.6	1.7	3.1	-0.61	56.93	2.0001	402.2318
8768	1509394768	54.7582	-110.5728	890.0	215.0	90.3	1.5	3.2	-0.62	56.93	2.0000	402.1490
8769	1509394769	54.7582	-110.5714	887.9	212.9	89.7	1.7	2.4	-0.62	56.93	2.0013	402.1839
8770	1509394770	54.7582	-110.5701	885.5	210.5	89.8	2.1	2.3	-0.61	56.93	2.0008	403.3022
8771	1509394771	54.7583	-110.5687	884.3	210.3	90.2	2.2	2.3	-0.61	56.93	2.0010	402.7028
8772	1509394772	54.7583	-110.5674	884.4	210.4	91.0	2.1	2.9	-0.61	56.89	1.9997	403.3297
8773	1509394773	54.7583	-110.5660	884.8	210.8	92.0	2.2	3.6	-0.62	56.85	2.0008	402.9181
8774	1509394774	54.7583	-110.5646	884.8	210.8	91.8	2.2	3.3	-0.63	56.81	2.0016	402.9999
8775	1509394775	54.7583	-110.5633	885.5	211.5	92.1	2.4	3.3	-0.64	56.75	1.9985	403.9868
8776	1509394776	54.7583	-110.5619	885.9	211.9	92.2	2.5	3.3	-0.64	56.68	1.9988	404.2541
8777	1509394777	54.7583	-110.5605	888.1	214.1	92.2	2.3	2.9	-0.64	56.59	1.9994	404.3821
8778	1509394778	54.7583	-110.5591	892.0	217.0	92.8	2.4	3.4	-0.64	56.51	1.9996	403.4130
8779	1509394779	54.7583	-110.5577	895.1	219.1	92.9	2.5	3.4	-0.64	56.41	1.9977	403.2438
8780	1509394780	54.7583	-110.5564	897.1	220.2	92.9	2.0	3.6	-0.64	56.32	1.9960	401.7223
8781	1509394781	54.7583	-110.5551	898.8	220.8	92.8	1.4	3.7	-0.64	56.29	1.9962	403.5464
8782	1509394782	54.7583	-110.5537	899.6	221.6	92.1	1.9	2.9	-0.64	56.30	1.9953	401.9619
8783	1509394783	54.7583	-110.5524	900.0	223.0	92.1	2.5	3.1	-0.64	56.37	1.9944	402.6768
8784	1509394784	54.7583	-110.5513	900.6	222.6	91.9	2.8	2.7	-0.64	56.51	1.9953	402.3626
8785	1509394785	54.7583	-110.5501	901.6	222.6	92.5	2.8	3.2	-0.64	56.61	1.9965	402.4946
8786	1509394786	54.7583	-110.5489	902.6	224.3	92.5	2.7	3.3	-0.64	56.73	1.9952	402.7287
8787	1509394787	54.7583	-110.5477	903.3	225.3	92.3	2.2	3.2	-0.64	56.82	1.9953	402.7287
8788	1509394788	54.7583	-110.5466	904.2	226.1	91.7	2.2	2.6	-0.64	56.87	1.9954	403.1634
8789	1509394789	54.7583	-110.5454	904.6	225.6	92.0	2.3	3.0	-0.64	56.87	1.9968	402.7927
8790	1509394790	54.7583	-110.5442	905.1	226.4	91.8	2.8	2.8	-0.64	56.87	1.9961	403.2104
8791	1509394791	54.7583	-110.5431	905.8	227.8	91.0	2.8	2.3	-0.64	56.87	1.9947	403.2104
8792	1509394792	54.7584	-110.5421	906.1	227.4	92.0	2.4	3.3	-0.65	56.85	1.9958	403.6841
8793	1509394793	54.7584	-110.5408	905.9	226.9	91.4	2.5	2.5	-0.66	56.83	1.9958	402.8815
8794	1509394794	54.7584	-110.5398	905.2	226.3	91.8	2.8	2.7	-0.66	56.84	1.9955	404.4184
8795	1509394795	54.7584	-110.5395	904.9	226.0	91.9	2.8	2.7	-0.66	56.84	1.9946	402.2971
8796	1509394796	54.7584	-110.5390	904.3	225.4	92.0	2.6	2.7	-0.66	56.87	1.9955	402.6126
8797	1509394797	54.7584	-110.5376	902.4	223.4	92.0	2.7	2.7	-0.66	56.89	1.9956	402.6126
8798	1509394798	54.7584	-110.5363	900.3	221.2	92.2	2.7	3.0	-0.66	56.90	1.9964	403.2526
8799	1509394799	54.7584	-110.5349	897.9	219.3	91.9	2.5	2.7	-0.66	56.91	1.9959	402.3608
8800	1509394800	54.7584	-110.5336	895.8	216.7	92.0	2.7	2.7	-0.66	56.91	1.9938	403.9468
8801	1509394801	54.7584	-110.5322	894.2	214.5	92.3	2.6	3.0	-0.66	56.88	1.9944	402.7061
8802	1509394802	54.7584	-110.5308	892.6	211.9	92.4	2.6	3.2	-0.66	56.81	1.9958	402.9140
8803	1509394803	54.7584	-110.5294	890.9	209.9	92.5	2.6	3.5	-0.66	56.70	1.9948	403.1355
8804	1509394804	54.7584	-110.5280	890.4	209.5	92.5	2.4	3.7	-0.66	56.64	1.9936	403.3442
8805	1509394805	54.7584	-110.5266	890.2	208.2	92.8	2.5	4.1	-0.66	56.53	1.9923	404.0527
8806	1509394806	54.7584	-110.5252	889.4	206.5	92.5	2.6	3.6	-0.66	56.45	1.9936	404.0527
8807	1509394807	54.7584	-110.5241	888.4	205.7	92.2	2.7	3.2	-0.66	56.41	1.9912	403.2545
8808	1509394808	54.7584	-110.5228	887.1	204.4	91.8	2.7	2.6	-0.66	56.40	1.9910	403.4372
8809	1509394809	54.7584	-110.5216	885.9	202.9	92.0	2.5	2.6	-0.66	56.39	1.9922	404.3197
8810	1509394810	54.7584	-110.5203	884.6	200.9	92.0	2.8	2.5	-0.66	56.39	1.9924	403.7218
8811	1509394811	54.7584	-110.5191	882.8	199.5	92.7	2.7	3.1	-0.66	56.37	1.9923	404.5905
8812	1509394812	54.7584	-110.5179	881.4	204.7	93.2	2.4	3.6	-0.66	56.29	1.9924	402.7194
8813	1509394813	54.7584	-110.5167	880.8	216.4	93.3	2.1	3.5	-0.65	56.20	1.9921	402.1933
8814	1509394814	54.7584	-110.5155	881.0	224.4	92.7	2.0	2.9	-0.63	56.12	1.9903	401.9676
8815	1509394815	54.7584	-110.5142	880.5	226.6	93.3	2.2	3.4	-0.62	56.08	1.9908	402.5631
8816	1509394816	54.7583	-110.5130	879.6	224.6	93.2	2.6	2.9	-0.61	56.03	1.9915	402.2543
8817	1509394817	54.7583	-110.5118	879.0	222.4	94.0	2.2	3.9	-0.60	55.97	1.9907	401.9761
8818	1509394818	54.7583	-110.5105	878.9	219.2	94.5	2.2	4.3	-0.58	55.92	1.9896	403.1054
8819	1509394819	54.7583	-110.5093	879.4	213.2	93.1	2.0	2.7	-0.55	55.88	1.9909	401.3654
8820	1509394820	54.7583	-110.5081	879.9	205.3	93.3	1.5	3.0	-0.55	55.84	1.9908	402.5437
8821	1509394821	54.7583	-110.5069	879.3	196.8	93.3	2.0	2.9	-0.55	55.81	1.9903	402.7569
8822	1509394822	54.7583	-110.5056	878.9	194.2	93.4	2.1	3.2	-0.53	55.79	1.9902	401.0591
8823	1509394823	54.7583	-110.5044	878.8	192.6	94.1	1.6	4.1	-0.54	55.75	1.9902	402.6345
8824	1509394824	54.7582	-110.5032	878.7	191.6	93.9	2.0	3.9	-0.52	55.70	1.9890	403.5738
8825	1509394825	54.7582	-110.5020	879.5	191.9	93.5	1.8	3.7	-0.53	55.66	1.9879	402.2152
8826	1509394826	54.7582	-110.5007	881.1	192.1	93.0	1.5	3.4	-0.53	55.63	1.9885	402.6585
8827	1509394827	54.7582	-110.4995	883.6	193.9	92.3	1.6	2.8	-0.52	55.61	1.9893	401.1108
8828	1509394828	54.7582	-110.4983	885.5	196.3	92.8	1.6	3.3	-0.51	55.59	1.9881	401.1136
8829	1509394829	54.7582	-110.4971	886.8	198.5	92.7	1.8	3.0	-0.51	55.59	1.9892	402.3108
8830	1509394830	54.7582	-110.4959	887.9	200.6	92.5	1.8	3.0	-0.51	55.61	1.9882	402.6128
8831	1509394831	54.7582	-110.4947	888.3	200.2	92.7	2.1	3.5	-0.49	55.60	1.9885	403.6665
8832	1509394832	54.7582	-110.4935	889.7	200.5	91.6	2.4	2.5	-0.49	55.56	1.9873	403.7271
8833	1509394833	54.7582	-110.4923	891.8	201.8	91.6	2.2	2.9	-0.49	55.56	1.9866	403.5822
8834	1509394834	54.7582	-110.4911	893.5	203.2	91.7	2.8	2.9	-0.49	55.54	1.9865	402.2653
8835	1509394835	54.7582	-110.4899	894.9	205.6	92.0	3.0	3.0	-0.49	55.49	1.9881	403.8609
8836	1509394836	54.7582	-110.4887	895.6	206.5	92.3	3.2	3.3	-0.49	55.44	1.9853	402.1607
8837	1509394837	54.7582	-110.4875	896.1	207.9	91.7	3.4	2.6	-0.49	55.41	1.9870	402.7489
8838	1509394838	54.7582	-110.4863	896.4	209.0	91.8	3.5	2.7	-0.49	55.39	1.9836	401.6560
8839	1509394839	54.7582	-110.4851	896.4	210.6	92.2	3.6	3.0	-0.49	55.38	1.9837	401.7954
8840	1509394840	54.7582	-110.4839	896.4	212.1	92.3	3.4	3.0	-0.49	55.42	1.9832	400.4229
8841	1509394841	54.7582	-110.4828	896.4	212.2	92.5	2.9	3.2	-0.49	55.60	1.9834	402.1462
8842	1509394842	54.7582	-110.4816	896.8	211.4	93.0	2.7	3.5	-0.49	55.76	1.9833	402.3170
8843	1509394843	54.7582	-110.4804	897.0	211.0	93.0	2.7	3.5	-0.49	55.93	1.9842	402.3170
8844	1509394844	54.7582	-110.4793	897.4	211.1	93.0	2.6	3.3	-0.49	56.04	1.9844	402.2839
8845	1509394845	54.7582	-110.4780	898.3	211.2	92.6	2.7	2.8	-0.49	56.13	1.9843	402.1463
8846	1509394846	54.7582	-110.4768	898.8	211.7	92.9	2.7	3.4	-0.49	56.19	1.9841	401.7489
8847	1509394847	54.7582	-110.4756	899.1	211.1	92.6	2.9	3.3	-0.49	56.25	1.9835	401.7489
8848	1509394848	54.7582	-110.4744	900.2	211.2	92.7	3.1	3.5	-0.49	56.26	1.9811	402.1190
8849	1509394849	54.7582	-110.4732	901.2	212.2	92.8	3.0	3.7	-0.49	56.27	1.9822	402.3831
8850	1509394850	54.7582	-110.4720	902.5	214.2	93.1	2.9	4.1	-0.49	56.26	1.9814	402.4838
8851	1509394851	54.7582	-110.4708	903.8	215.7	93.2	2.7	4.1	-0.49	56.26	1.9823	401.7980
8852	1509394852	54.7582	-110.4696	905.3	217.9	92.9	2.5	3.9	-0.50	56.26	1.9820	402.0485
8853	1509394853	54.7582	-110.4684	906.6	219.6	92.7	2.4	3.7	-0.51	56.29	1.9824	402.5214
8854	1509394854	54.7582	-110.4675	907.3	220.3	92.5	2.4	3.3	-0.51	56.31	1.9833	402.1426
8855	1509394855	54.7582	-110.4672	907.5	220.5	92.5	2.7	3.4	-0.51	56.31	1.9825	402.0929
8856	1509394856	54.7582	-110.4667	907.9	220.9	92.8	3.0	3.7	-0.51	56.32	1.9826	401.3242
8857	1509394857	54.7582	-110.4653	909.0	221.0	93.2	2.8	3.8	-0.51	56.37	1.9817	401.1865
8858	1509394858	54.7582	-110.4640	910.0	220.9	93.0	2.8	3.9	-0.53	56.46	1.9824	402.8948
8859	1509394859	54.7582	-110.4626	910.5	222.5	93.2	2.9	4.0	-0.55	56.53	1.9819	402.7217
8860	1509394860	54.7582	-110.4612	910.7	224.4	93.2	3.4	3.9	-0.56	56.57	1.9838	401.8432
8861	1509394861	54.7582	-110.4598	910.8	226.4	93.2	3.5	3.7	-0.57	56.59	1.9845	401.7908
8862	1509394862	54.7582	-110.4585	910.7	228.4	92.5	4.0	2.7	-0.57	56.59	1.9833	402.9780
8863	1509394863	54.7582	-110.4571	911.3	231.0	92.9	3.7	3.3	-0.59	56.55	1.9814	402.1118
8864	1509394864	54.7582	-110.4557	912.4	233.2	92.9	3.5	3.4	-0.59	56.48	1.9800	402.3388
8865	1509394865	54.7582	-110.4543	913.4	235.0	93.3	3.0	4.0	-0.61	56.38	1.9818	402.3079
8866	1509394866	54.7582	-110.4531	914.3	235.9	93.2	2.7	3.6	-0.62	56.33	1.9809	402.3079
8867	1509394867	54.7582	-110.4519	915.6	238.3	92.8	2.6	3.8	-0.62	56.32	1.9815	402.9648
8868	1509394868	54.7582	-110.4507	916.8	239.4	92.3	2.1	3.5	-0.62	56.32	1.9800	403.0295
8869	1509394869	54.7582	-110.4495	917.5	239.0	91.0	2.4	2.6	-0.62	56.38	1.9812	402.0440
8870	1509394870	54.7582	-110.4484	917.7	238.4	91.3	2.6	3.0	-0.62	56.50	1.9804	402.0440
8871	1509394871	54.7582	-110.4472	918.3	237.9	91.1	2.6	2.9	-0.63	56.65	1.9802	402.2707
8872	1509394872	54.7583	-110.4460	918.9	239.7	91.4	2.6	2.9	-0.64	56.76	1.9796	402.4593
8873	1509394873	54.7583	-110.4448	920.0	244.3	91.6	2.6	2.9	-0.64	56.80	1.9797	402.0277
8874	1509394874	54.7583	-110.4437	921.0	248.6	93.1	2.9	4.1	-0.64	56.79	1.9807	402.6281
8875	1509394875	54.7583	-110.4426	922.0	251.0	92.4	2.9	3.2	-0.64	56.79	1.9815	402.9241
8876	1509394876	54.7583	-110.4414	922.9	251.6	92.4	2.9	3.2	-0.66	56.82	1.9817	402.9770
8877	1509394877	54.7583	-110.4401	923.2	250.9	92.6	3.3	3.3	-0.66	56.84	1.9819	404.4347
8878	1509394878	54.7583	-110.4390	922.8	250.8	92.6	3.6	3.3	-0.66	56.84	1.9811	403.6438
8879	1509394879	54.7583	-110.4378	921.9	251.5	92.5	3.7	3.2	-0.66	56.83	1.9802	402.9991
8880	1509394880	54.7583	-110.4366	921.4	252.9	92.0	3.8	2.6	-0.66	56.82	1.9816	402.9815
8881	1509394881	54.7583	-110.4354	920.8	254.2	91.9	3.9	2.6	-0.67	56.79	1.9813	403.6099
8882	1509394882	54.7583	-110.4342	920.4	255.9	92.1	4.0	2.9	-0.68	56.79	1.9815	402.9516
8883	1509394883	54.7583	-110.4331	920.1	257.7	91.8	4.0	2.8	-0.68	56.79	1.9817	405.1043
8884	1509394884	54.7583	-110.4319	920.1	261.7	91.5	3.7	2.7	-0.68	56.79	1.9805	403.2823
8885	1509394885	54.7583	-110.4307	920.3	264.1	91.7	3.0	2.7	-0.69	56.79	1.9815	402.8715
8886	1509394886	54.7583	-110.4295	920.8	267.5	91.8	3.1	2.8	-0.70	56.81	1.9799	404.2716
8887	1509394887	54.7583	-110.4283	921.3	271.1	91.9	3.1	3.0	-0.70	56.81	1.9768	403.8973
8888	1509394888	54.7583	-110.4271	921.3	273.3	92.5	3.3	3.8	-0.70	56.80	1.9781	404.1466
8889	1509394889	54.7583	-110.4259	920.7	274.4	92.0	3.8	3.3	-0.70	56.79	1.9794	403.1114
8890	1509394890	54.7583	-110.4247	919.8	273.8	90.9	3.9	2.3	-0.70	56.79	1.9781	402.2139
8891	1509394891	54.7583	-110.4236	919.3	273.0	90.9	3.6	2.5	-0.70	56.79	1.9769	404.0926
8892	1509394892	54.7583	-110.4224	919.3	272.7	91.3	3.2	3.1	-0.71	56.78	1.9773	403.9283
8893	1509394893	54.7584	-110.4212	919.5	273.6	91.0	3.2	3.1	-0.71	56.76	1.9768	404.6101
8894	1509394894	54.7584	-110.4200	920.1	275.2	91.6	3.1	3.9	-0.72	56.75	1.9764	403.7498
8895	1509394895	54.7584	-110.4188	921.0	276.0	90.7	3.0	3.1	-0.72	56.75	1.9765	404.6912
8896	1509394896	54.7584	-110.4176	921.6	276.6	90.6	3.0	3.2	-0.72	56.77	1.9779	403.6945
8897	1509394897	54.7584	-110.4164	921.7	276.8	90.6	3.5	3.0	-0.72	56.77	1.9774	404.2126
8898	1509394898	54.7585	-110.4152	921.5	276.1	90.7	3.2	3.0	-0.72	56.75	1.9759	403.7316
8899	1509394899	54.7585	-110.4140	920.5	275.6	91.1	3.4	3.5	-0.72	56.69	1.9770	403.4884
8900	1509394900	54.7585	-110.4128	918.4	273.5	90.8	3.4	3.0	-0.72	56.66	1.9762	403.7883
8901	1509394901	54.7585	-110.4116	913.9	269.1	91.1	2.9	3.4	-0.72	56.65	1.9741	403.7135
8902	1509394902	54.7585	-110.4104	906.9	263.0	91.0	2.7	3.0	-0.72	56.65	1.9758	404.3510
8903	1509394903	54.7585	-110.4091	900.4	257.8	90.3	2.5	2.3	-0.72	56.65	1.9754	404.5227
8904	1509394904	54.7586	-110.4079	894.9	254.2	91.3	2.5	3.3	-0.72	56.65	1.9747	403.6278
8905	1509394905	54.7586	-110.4066	889.7	251.9	91.9	2.5	3.6	-0.72	56.64	1.9736	404.3310
8906	1509394906	54.7586	-110.4054	884.6	249.7	92.0	2.5	3.1	-0.72	56.62	1.9726	405.6310
8907	1509394907	54.7586	-110.4041	880.4	247.4	91.9	2.5	2.5	-0.70	56.59	1.9717	405.6310
8908	1509394908	54.7586	-110.4028	875.5	243.5	92.1	2.1	2.7	-0.69	56.58	1.9729	405.6384
8909	1509394909	54.7586	-110.4016	870.8	238.8	92.9	2.0	3.5	-0.69	56.55	1.9720	408.3545
8910	1509394910	54.7586	-110.4003	867.8	235.8	92.3	2.2	2.1	-0.69	56.49	1.9735	406.5783
8911	1509394911	54.7586	-110.3990	867.2	235.2	93.1	2.2	3.2	-0.67	56.39	1.9717	404.7818
8912	1509394912	54.7585	-110.3977	866.5	233.5	92.5	2.3	2.1	-0.67	56.23	1.9718	404.6347
8913	1509394913	54.7585	-110.3964	865.9	231.9	92.8	2.6	2.5	-0.65	56.03	1.9714	406.0090
8914	1509394914	54.7585	-110.3954	864.9	228.9	94.0	2.7	3.9	-0.61	55.83	1.9728	405.8968
8915	1509394915	54.7585	-110.3951	864.6	228.3	93.9	2.7	3.7	-0.60	55.69	1.9727	406.0158
8916	1509394916	54.7585	-110.3945	864.1	226.1	93.5	2.1	3.2	-0.59	55.54	1.9713	407.0452
8917	1509394917	54.7585	-110.3930	863.6	221.6	92.9	2.0	3.0	-0.56	55.35	1.9716	407.3988
8918	1509394918	54.7585	-110.3916	863.3	218.3	92.7	1.8	3.0	-0.54	55.19	1.9711	407.3988
8919	1509394919	54.7585	-110.3901	863.0	217.0	92.4	1.8	3.0	-0.54	55.10	1.9715	407.6721
8920	1509394920	54.7585	-110.3886	862.5	217.5	92.3	2.1	3.0	-0.51	55.05	1.9718	406.5409
8921	1509394921	54.7585	-110.3871	861.2	215.2	92.9	2.3	3.6	-0.48	55.02	1.9717	406.7019
8922	1509394922	54.7585	-110.3856	859.2	213.2	93.1	2.8	3.8	-0.45	54.97	1.9715	406.1448
8923	1509394923	54.7585	-110.3841	857.5	210.5	92.8	2.4	3.7	-0.42	54.93	1.9711	405.3496
8924	1509394924	54.7585	-110.3826	858.0	211.0	92.8	2.0	3.7	-0.39	54.90	1.9711	405.7277
8925	1509394925	54.7585	-110.3812	860.6	213.6	92.6	2.1	3.6	-0.37	54.84	1.9715	406.4079
8926	1509394926	54.7585	-110.3798	862.4	216.4	92.5	2.4	3.5	-0.37	54.75	1.9717	405.8524
8927	1509394927	54.7585	-110.3786	863.2	217.2	92.1	2.1	3.3	-0.35	54.67	1.9717	405.8405
8928	1509394928	54.7585	-110.3773	864.3	217.3	91.8	2.4	3.1	-0.35	54.61	1.9716	406.2020
8929	1509394929	54.7585	-110.3760	864.9	217.8	91.8	2.8	3.2	-0.33	54.55	1.9702	405.9646
8930	1509394930	54.7585	-110.3748	865.3	218.0	91.5	2.7	2.9	-0.33	54.50	1.9699	405.3671
8931	1509394931	54.7585	-110.3736	865.8	218.8	91.7	2.5	3.2	-0.31	54.42	1.9704	404.9752
8932	1509394932	54.7585	-110.3723	866.5	219.9	91.4	2.7	2.9	-0.30	54.35	1.9698	406.2290
8933	1509394933	54.7585	-110.3711	867.2	221.2	91.4	2.7	2.7	-0.29	54.32	1.9697	404.1567
8934	1509394934	54.7585	-110.3698	867.9	221.9	91.7	2.6	3.0	-0.29	54.31	1.9709	406.2992
8935	1509394935	54.7585	-110.3687	868.7	222.7	92.1	2.5	3.4	-0.28	54.29	1.9700	405.9680
8936	1509394936	54.7585	-110.3673	869.5	223.5	92.4	2.3	3.8	-0.27	54.27	1.9710	405.5746
8937	1509394937	54.7585	-110.3661	870.0	224.0	91.8	2.1	2.8	-0.27	54.27	1.9702	403.9717
8938	1509394938	54.7585	-110.3648	870.7	224.5	91.5	1.8	2.4	-0.27	54.30	1.9693	407.2248
8939	1509394939	54.7585	-110.3636	871.9	223.7	92.4	2.0	3.4	-0.25	54.34	1.9689	405.7343
8940	1509394940	54.7585	-110.3626	873.1	224.0	92.3	2.3	2.9	-0.25	54.47	1.9688	406.5803
8941	1509394941	54.7585	-110.3612	873.9	223.9	92.4	2.6	3.0	-0.25	54.62	1.9689	405.9109
8942	1509394942	54.7585	-110.3600	872.8	221.8	93.0	2.4	3.6	-0.25	54.77	1.9689	405.9412
8943	1509394943	54.7585	-110.3587	870.7	219.7	92.1	2.1	2.4	-0.25	54.91	1.9692	405.3179
8944	1509394944	54.7585	-110.3575	868.7	217.4	91.7	2.1	2.1	-0.25	55.01	1.9682	406.2994
8945	1509394945	54.7585	-110.3562	866.0	215.0	91.9	2.1	2.4	-0.25	55.11	1.9680	406.5636
8946	1509394946	54.7585	-110.3550	863.0	213.7	92.3	1.8	3.0	-0.25	55.20	1.9686	406.6982
8947	1509394947	54.7585	-110.3537	861.0	212.0	92.5	1.7	3.5	-0.25	55.25	1.9694	406.6982
8948	1509394948	54.7585	-110.3525	859.7	211.7	92.6	1.8	3.6	-0.25	55.27	1.9678	406.6161
8949	1509394949	54.7585	-110.3513	858.6	210.6	92.7	2.0	3.3	-0.25	55.29	1.9683	406.6161
8950	1509394950	54.7585	-110.3500	857.2	209.2	92.7	1.9	3.3	-0.25	55.30	1.9673	406.6460
8951	1509394951	54.7585	-110.3487	855.6	207.5	93.3	1.9	4.0	-0.25	55.28	1.9654	406.6460
8952	1509394952	54.7585	-110.3475	853.6	205.6	92.8	2.2	3.4	-0.25	55.23	1.9677	404.0778
8953	1509394953	54.7585	-110.3462	852.1	204.1	93.2	1.8	4.0	-0.25	55.15	1.9671	404.0778
8954	1509394954	54.7585	-110.3450	853.8	205.5	93.0	1.4	3.9	-0.25	55.08	1.9691	406.1224
8955	1509394955	54.7585	-110.3437	857.0	208.0	93.3	1.2	4.1	-0.25	55.04	1.9677	406.2501
8956	1509394956	54.7585	-110.3425	859.8	210.5	93.4	1.3	4.0	-0.25	55.01	1.9677	405.9355
8957	1509394957	54.7585	-110.3413	862.9	212.8	93.5	1.6	4.2	-0.25	54.97	1.9676	405.0600
8958	1509394958	54.7585	-110.3400	865.7	215.9	93.3	2.0	3.9	-0.25	54.93	1.9667	404.9165
8959	1509394959	54.7585	-110.3388	867.3	218.3	92.7	1.7	3.4	-0.25	54.89	1.9667	406.4744
8960	1509394960	54.7585	-110.3376	869.2	220.2	92.5	1.5	3.4	-0.25	54.85	1.9663	404.2763
8961	1509394961	54.7585	-110.3364	870.6	221.6	92.1	1.9	3.3	-0.25	54.84	1.9668	404.9127
8962	1509394962	54.7585	-110.3351	870.9	221.9	92.1	1.9	3.3	-0.25	54.83	1.9687	405.1241
8963	1509394963	54.7585	-110.3339	870.9	221.9	91.9	1.8	3.2	-0.25	54.82	1.9679	405.2612
8964	1509394964	54.7585	-110.3327	871.1	221.1	92.0	2.3	3.5	-0.23	54.81	1.9662	406.6171
8965	1509394965	54.7585	-110.3315	871.4	221.0	92.1	2.2	3.8	-0.22	54.79	1.9658	406.6171
8966	1509394966	54.7585	-110.3303	872.3	221.3	91.7	2.6	3.6	-0.24	54.77	1.9658	405.2493
8967	1509394967	54.7585	-110.3291	872.6	221.6	91.8	3.0	3.9	-0.23	54.77	1.9660	405.2493
8968	1509394968	54.7585	-110.3279	872.0	220.9	91.5	3.2	3.1	-0.23	54.79	1.9677	405.2353
8969	1509394969	54.7586	-110.3267	871.5	220.5	91.0	2.8	2.8	-0.25	54.84	1.9664	405.2353
8970	1509394970	54.7586	-110.3254	871.1	220.1	92.0	2.8	3.9	-0.25	54.92	1.9654	404.2491
8971	1509394971	54.7586	-110.3243	871.1	220.1	90.9	2.4	2.4	-0.25	54.98	1.9652	406.4763
8972	1509394972	54.7586	-110.3230	871.3	220.3	91.6	1.8	3.2	-0.26	55.00	1.9650	407.3209
8973	1509394973	54.7586	-110.3218	871.8	220.8	91.6	1.6	2.9	-0.27	55.01	1.9656	405.1605
8974	1509394974	54.7586	-110.3208	872.1	221.2	91.5	1.6	2.9	-0.27	54.98	1.9653	405.1605
8975	1509394975	54.7586	-110.3205	872.2	222.2	91.7	1.6	3.2	-0.27	54.93	1.9668	411.5660
8976	1509394976	54.7586	-110.3201	872.3	222.3	92.0	2.6	3.5	-0.26	54.84	1.9674	420.7661
8977	1509394977	54.7586	-110.3187	871.7	221.7	92.0	2.7	3.7	-0.26	54.77	1.9709	414.5443
8978	1509394978	54.7586	-110.3172	870.8	221.8	91.8	2.8	3.5	-0.28	54.75	1.9725	411.1748
8979	1509394979	54.7586	-110.3158	870.3	221.3	91.8	3.0	3.4	-0.29	54.77	1.9716	411.1815
8980	1509394980	54.7587	-110.3144	869.8	221.8	91.8	2.8	3.0	-0.29	54.83	1.9701	408.7596
8981	1509394981	54.7587	-110.3130	869.2	221.2	91.5	2.2	2.6	-0.29	54.93	1.9707	409.5358
8982	1509394982	54.7587	-110.3116	869.5	221.5	91.2	1.5	2.4	-0.29	55.00	1.9724	409.1471
8983	1509394983	54.7587	-110.3102	870.2	222.2	91.8	1.4	2.8	-0.29	55.04	1.9663	407.0918
8984	1509394984	54.7587	-110.3088	871.1	224.1	92.3	1.4	3.0	-0.29	55.05	1.9660	407.8319
8985	1509394985	54.7587	-110.3074	871.1	225.2	92.2	1.3	2.9	-0.29	55.05	1.9662	407.6465
8986	1509394986	54.7587	-110.3060	870.5	225.5	92.4	1.5	3.2	-0.28	55.05	1.9676	407.3726
8987	1509394987	54.7587	-110.3048	870.7	227.3	92.1	1.8	2.7	-0.28	55.05	1.9668	405.0468
8988	1509394988	54.7587	-110.3036	872.2	230.5	91.0	2.1	1.5	-0.27	55.06	1.9657	406.5260
8989	1509394989	54.7587	-110.3024	873.5	233.5	91.5	2.2	2.1	-0.27	55.08	1.9664	405.2825
8990	1509394990	54.7587	-110.3012	873.5	234.5	91.7	2.7	2.1	-0.27	55.12	1.9673	404.9993
8991	1509394991	54.7587	-110.3000	873.2	236.9	92.3	2.7	1.9	-0.27	55.15	1.9669	406.3452
8992	1509394992	54.7586	-110.2987	872.6	237.6	94.3	2.6	1.9	-0.29	55.17	1.9654	406.6703
8993	1509394993	54.7586	-110.2975	872.4	240.8	97.6	2.3	1.7	-0.29	55.17	1.9674	406.4754
8994	1509394994	54.7585	-110.2964	872.5	242.9	102.4	2.4	0.7	-0.29	55.17	1.9666	406.4754
8995	1509394995	54.7583	-110.2952	872.3	246.0	109.2	2.5	1.8	-0.29	55.18	1.9638	405.8780
8996	1509394996	54.7581	-110.2941	871.2	245.7	116.8	2.8	1.9	-0.29	55.17	1.9667	407.1584
8997	1509394997	54.7578	-110.2930	870.9	247.9	123.2	2.5	1.6	-0.29	55.18	1.9641	407.9299
8998	1509394998	54.7574	-110.2921	871.4	248.4	128.9	1.9	2.1	-0.29	55.18	1.9645	407.9299
8999	1509394999	54.7569	-110.2912	873.0	250.0	133.7	1.1	1.9	-0.29	55.18	1.9659	410.4886
9000	1509395000	54.7565	-110.2904	874.9	250.9	138.6	1.1	2.0	-0.29	55.20	1.9661	410.2845
9001	1509395001	54.7560	-110.2896	876.1	249.9	144.2	1.7	2.2	-0.29	55.22	1.9654	413.4827
9002	1509395002	54.7554	-110.2890	877.7	249.4	150.1	1.8	2.6	-0.30	55.24	1.9655	417.6509
9003	1509395003	54.7549	-110.2884	879.8	249.9	154.4	1.1	2.7	-0.31	55.26	1.9638	417.4210
9004	1509395004	54.7543	-110.2880	881.9	251.3	159.3	1.2	2.7	-0.31	55.29	1.9641	417.5350
9005	1509395005	54.7537	-110.2876	882.9	252.9	163.6	1.1	2.7	-0.31	55.34	1.9649	413.9508
9006	1509395006	54.7531	-110.2873	882.0	253.6	167.5	1.3	2.7	-0.32	55.41	1.9636	408.3667
9007	1509395007	54.7524	-110.2871	879.1	253.4	171.7	1.0	2.7	-0.33	55.46	1.9636	410.6908
9008	1509395008	54.7518	-110.2869	875.9	252.6	176.6	0.9	2.7	-0.33	55.48	1.9653	415.7429
9009	1509395009	54.7512	-110.2869	873.4	251.7	181.7	1.1	2.4	-0.33	55.48	1.9644	415.2234
9010	1509395010	54.7505	-110.2870	870.9	251.6	186.3	2.0	2.4	-0.35	55.48	1.9669	407.3672
9011	1509395011	54.7499	-110.2871	867.8	249.6	189.9	1.7	2.9	-0.35	55.48	1.9670	405.7801
9012	1509395012	54.7493	-110.2873	865.1	246.7	191.9	0.7	3.5	-0.35	55.50	1.9680	408.3024
9013	1509395013	54.7487	-110.2875	862.3	243.7	193.8	1.4	3.6	-0.35	55.54	1.9649	407.4682
9014	1509395014	54.7480	-110.2878	858.5	239.8	195.1	2.4	3.1	-0.35	55.61	1.9646	406.2972
9015	1509395015	54.7473	-110.2881	855.6	236.6	194.2	1.6	3.2	-0.36	55.64	1.9660	405.0084
9016	1509395016	54.7467	-110.2884	852.2	233.0	195.2	3.6	2.6	-0.37	55.60	1.9667	407.4033
9017	1509395017	54.7461	-110.2886	849.2	230.2	193.4	2.6	2.6	-0.37	55.47	1.9688	407.4267
9018	1509395018	54.7454	-110.2888	847.9	229.0	191.2	2.3	2.5	-0.37	55.37	1.9667	407.8820
9019	1509395019	54.7448	-110.2890	846.9	228.9	189.1	2.1	2.6	-0.36	55.34	1.9668	407.8982
9020	1509395020	54.7441	-110.2891	845.6	228.4	186.7	1.6	2.5	-0.35	55.34	1.9673	408.0995
9021	1509395021	54.7434	-110.2892	843.1	226.1	185.7	2.1	2.3	-0.35	55.34	1.9668	407.5005
9022	1509395022	54.7427	-110.2893	840.6	223.6	184.4	1.8	2.6	-0.35	55.34	1.9670	407.8099
9023	1509395023	54.7421	-110.2894	839.2	222.2	184.2	2.2	2.9	-0.35	55.35	1.9664	407.6210
9024	1509395024	54.7414	-110.2894	837.9	220.9	184.5	2.9	3.2	-0.35	55.37	1.9643	408.1891
9025	1509395025	54.7407	-110.2895	837.0	220.0	184.0	2.9	3.2	-0.33	55.37	1.9651	406.3372
9026	1509395026	54.7401	-110.2895	835.8	219.9	183.7	3.0	3.0	-0.31	55.33	1.9644	406.3372
9027	1509395027	54.7394	-110.2895	834.3	218.3	183.1	2.8	2.9	-0.31	55.22	1.9636	406.3372
9028	1509395028	54.7387	-110.2895	833.4	217.4	182.6	2.8	2.8	-0.31	55.10	1.9643	407.2158
9029	1509395029	54.7381	-110.2896	833.6	217.6	182.4	2.9	3.0	-0.29	54.94	1.9633	407.5929
9030	1509395030	54.7374	-110.2896	834.0	218.0	182.2	2.6	2.6	-0.28	54.77	1.9666	409.0772
9031	1509395031	54.7367	-110.2896	834.2	217.2	181.9	2.1	2.7	-0.27	54.64	1.9655	408.3260
9032	1509395032	54.7360	-110.2896	834.0	217.0	182.1	1.4	2.7	-0.25	54.60	1.9648	408.3836
9033	1509395033	54.7353	-110.2896	833.6	216.6	183.4	1.8	2.8	-0.24	54.60	1.9646	408.3836
9034	1509395034	54.7348	-110.2897	833.0	216.0	185.3	3.0	2.7	-0.23	54.62	1.9664	408.8333
9035	1509395035	54.7346	-110.2897	832.8	215.8	185.6	3.0	2.7	-0.23	54.65	1.9649	408.5622
9036	1509395036	54.7343	-110.2897	832.8	215.8	185.8	2.6	2.7	-0.22	54.68	1.9633	408.1077
9037	1509395037	54.7336	-110.2898	833.9	217.2	186.0	2.1	2.6	-0.21	54.69	1.9652	408.8169
9038	1509395038	54.7328	-110.2899	834.2	218.5	187.0	3.2	2.8	-0.19	54.67	1.9652	407.9444
9039	1509395039	54.7320	-110.2900	834.1	219.1	186.1	2.9	3.1	-0.19	54.61	1.9648	408.4360
9040	1509395040	54.7312	-110.2901	834.2	220.2	184.6	2.2	2.9	-0.17	54.56	1.9641	408.6967
9041	1509395041	54.7305	-110.2902	834.6	221.6	184.0	3.0	2.8	-0.15	54.51	1.9640	408.9623
9042	1509395042	54.7297	-110.2902	835.2	222.2	182.5	2.2	3.0	-0.16	54.46	1.9623	408.7847
9043	1509395043	54.7290	-110.2902	835.5	222.5	182.7	2.5	3.0	-0.13	54.45	1.9627	411.2431
9044	1509395044	54.7282	-110.2902	835.5	222.5	182.6	2.4	3.0	-0.13	54.46	1.9629	410.3369
9045	1509395045	54.7274	-110.2903	835.2	222.1	183.0	2.7	3.3	-0.10	54.45	1.9634	409.3509
9046	1509395046	54.7267	-110.2903	835.4	221.4	183.6	2.8	3.7	-0.10	54.38	1.9619	409.1025
9047	1509395047	54.7259	-110.2903	836.1	222.1	184.4	3.2	3.8	-0.12	54.25	1.9625	407.9922
9048	1509395048	54.7253	-110.2904	836.0	221.0	185.8	3.8	3.6	-0.13	54.11	1.9626	408.2074
9049	1509395049	54.7246	-110.2905	836.7	221.7	186.4	3.3	3.5	-0.12	53.98	1.9621	407.9852
9050	1509395050	54.7240	-110.2905	837.4	222.4	186.9	3.9	3.5	-0.11	53.91	1.9622	407.1263
9051	1509395051	54.7233	-110.2906	837.6	222.6	186.4	3.6	3.5	-0.11	53.89	1.9616	408.0429
9052	1509395052	54.7227	-110.2907	837.6	222.6	185.4	3.3	3.7	-0.10	53.89	1.9625	409.2199
9053	1509395053	54.7220	-110.2908	837.8	222.8	184.9	3.7	3.5	-0.09	53.88	1.9635	407.7258
9054	1509395054	54.7213	-110.2908	839.1	225.1	182.7	1.6	2.8	-0.09	53.90	1.9631	407.1889
9055	1509395055	54.7206	-110.2908	839.5	225.5	182.6	1.8	2.5	-0.09	54.13	1.9627	407.4498
9056	1509395056	54.7200	-110.2908	838.6	225.6	182.8	1.7	2.8	-0.07	54.35	1.9631	408.2322
9057	1509395057	54.7193	-110.2909	836.9	225.0	183.3	1.8	2.6	-0.07	54.59	1.9631	408.2655
9058	1509395058	54.7187	-110.2909	834.8	222.8	184.3	2.3	2.4	-0.07	54.68	1.9630	408.5950
9059	1509395059	54.7180	-110.2910	833.7	222.7	185.0	2.6	2.2	-0.07	54.72	1.9628	407.4065
9060	1509395060	54.7174	-110.2911	833.2	223.2	185.6	2.7	2.3	-0.07	54.70	1.9638	408.8253
9061	1509395061	54.7167	-110.2911	833.6	223.6	185.4	2.4	2.9	-0.07	54.66	1.9640	408.4378
9062	1509395062	54.7160	-110.2912	833.8	224.8	185.5	2.9	2.8	-0.07	54.62	1.9632	408.8037
9063	1509395063	54.7153	-110.2913	834.2	225.2	184.6	2.3	3.0	-0.07	54.61	1.9649	408.4949
9064	1509395064	54.7147	-110.2913	834.1	225.1	184.4	2.6	3.0	-0.07	54.61	1.9652	409.0971
9065	1509395065	54.7140	-110.2914	833.7	224.7	183.4	2.0	3.0	-0.07	54.62	1.9637	409.0971
9066	1509395066	54.7134	-110.2914	833.6	224.6	183.2	2.1	3.1	-0.07	54.63	1.9643	407.4861
9067	1509395067	54.7127	-110.2914	832.9	224.8	183.4	2.4	3.0	-0.07	54.63	1.9633	408.2394
9068	1509395068	54.7120	-110.2915	832.0	224.0	183.7	2.4	3.4	-0.07	54.61	1.9624	407.0626
9069	1509395069	54.7114	-110.2915	831.0	223.0	183.9	2.6	3.4	-0.07	54.57	1.9627	407.7793
9070	1509395070	54.7107	-110.2916	829.4	221.4	184.7	3.2	3.2	-0.07	54.49	1.9637	407.4452
9071	1509395071	54.7101	-110.2916	827.5	219.5	184.8	2.9	3.4	-0.07	54.36	1.9628	407.9707
9072	1509395072	54.7094	-110.2917	825.7	217.7	185.4	3.2	3.4	-0.05	54.22	1.9637	407.9707
9073	1509395073	54.7087	-110.2917	824.3	216.6	185.4	3.0	3.3	-0.05	54.12	1.9639	408.5613
9074	1509395074	54.7080	-110.2918	823.3	216.3	185.7	3.6	3.5	-0.05	54.05	1.9646	407.4803
9075	1509395075	54.7074	-110.2919	822.3	215.3	185.2	3.6	3.7	-0.05	53.98	1.9625	407.1138
9076	1509395076	54.7067	-110.2919	821.4	214.4	184.3	3.5	3.7	-0.04	53.90	1.9612	407.6774
9077	1509395077	54.7060	-110.2919	819.9	212.6	183.3	3.1	3.6	-0.03	53.85	1.9646	408.3011
9078	1509395078	54.7054	-110.2920	818.5	210.5	182.1	2.2	3.6	-0.03	53.84	1.9625	405.7193
9079	1509395079	54.7047	-110.2920	817.7	208.7	182.1	2.5	3.6	-0.03	53.86	1.9638	405.7193
9080	1509395080	54.7040	-110.2920	817.6	208.6	181.8	2.1	3.7	-0.02	53.91	1.9626	407.2879
9081	1509395081	54.7034	-110.2920	817.7	208.7	181.9	2.0	3.6	-0.01	53.97	1.9618	406.4552
9082	1509395082	54.7027	-110.2920	818.0	210.0	182.2	2.1	3.5	-0.01	54.05	1.9612	405.8684
9083	1509395083	54.7020	-110.2920	817.8	209.8	183.3	2.8	3.9	-0.01	54.12	1.9616	406.7225
9084	1509395084	54.7014	-110.2920	818.0	209.0	184.1	3.1	4.0	-0.01	54.14	1.9625	406.7484
9085	1509395085	54.7007	-110.2921	818.6	209.6	184.5	3.2	4.1	0.02	54.10	1.9632	406.7484
9086	1509395086	54.7000	-110.2921	818.8	210.9	184.3	2.7	4.2	0.04	53.95	1.9643	406.9438
9087	1509395087	54.6993	-110.2922	818.9	210.9	184.2	2.2	3.7	0.06	53.84	1.9644	406.9438
9088	1509395088	54.6987	-110.2922	819.4	211.4	183.9	1.7	3.2	0.07	53.83	1.9646	406.9438
9089	1509395089	54.6980	-110.2923	819.3	211.2	184.9	2.9	3.5	0.09	53.85	1.9647	406.9438
9090	1509395090	54.6974	-110.2924	818.7	211.6	185.1	2.8	3.6	0.10	53.87	1.9649	406.9438
9091	1509395091	54.6967	-110.2924	819.6	213.9	184.9	2.7	4.2	0.10	53.81	1.9651	406.9438
9092	1509395092	54.6960	-110.2925	821.0	217.1	184.9	2.6	3.5	0.13	53.68	1.9652	406.9438
9093	1509395093	54.6954	-110.2925	821.7	216.8	184.4	2.5	3.7	0.14	53.62	1.9624	405.3307
9094	1509395094	54.6949	-110.2926	822.2	217.3	184.4	2.7	3.6	0.14	53.62	1.9662	403.2748
9095	1509395095	54.6948	-110.2926	822.3	217.4	184.3	2.6	3.4	0.14	53.63	1.9654	404.1213
9096	1509395096	54.6948	-110.2926	822.3	217.4	184.3	2.5	3.2	0.14	53.63	1.9680	406.0599
9097	1509395097	54.6947	-110.2926	822.4	217.5	184.2	2.4	3.1	0.15	53.64	1.9686	404.0398
9098	1509395098	54.6947	-110.2926	822.4	217.5	184.1	2.3	2.9	0.15	53.64	1.9690	404.1141
9099	1509395099	54.6946	-110.2926	822.5	217.6	184.0	2.2	2.8	0.15	53.65	1.9696	405.2337
9100	1509395100	54.6946	-110.2926	822.6	217.6	183.9	2.1	2.8	0.16	53.65	1.9707	403.3370
9101	1509395101	54.6943	-110.2926	823.0	218.0	183.3	1.5	2.6	0.16	53.66	1.9702	405.3268
9102	1509395102	54.6936	-110.2927	824.2	220.3	182.6	1.1	2.6	0.16	53.66	1.9702	405.9262
9103	1509395103	54.6928	-110.2927	824.3	219.3	183.4	1.9	2.2	0.17	53.67	1.9702	405.0926
9104	1509395104	54.6921	-110.2928	824.6	219.6	183.1	1.5	2.2	0.17	53.67	1.9702	405.2592
9105	1509395105	54.6914	-110.2928	825.1	220.1	183.4	1.9	2.2	0.17	53.68	1.9737	404.3547
9106	1509395106	54.6906	-110.2928	825.8	221.9	183.6	2.2	3.0	0.18	53.68	1.9727	403.5997
9107	1509395107	54.6899	-110.2929	826.6	222.6	182.8	1.3	3.5	0.18	53.69	1.9739	404.6195
9108	1509395108	54.6891	-110.2929	826.5	222.5	183.1	1.6	3.5	0.18	53.69	1.9756	404.5875
9109	1509395109	54.6884	-110.2930	826.4	222.4	182.6	1.4	3.6	0.18	53.70	1.9770	405.0954
9110	1509395110	54.6876	-110.2930	826.0	223.3	183.2	2.0	3.5	0.19	53.70	1.9785	403.6760
9111	1509395111	54.6869	-110.2930	825.7	223.7	182.8	1.5	3.2	0.19	53.71	1.9787	403.6760
9112	1509395112	54.6861	-110.2931	825.4	224.3	183.3	2.0	3.1	0.19	53.71	1.9768	404.4432
9113	1509395113	54.6853	-110.2931	825.1	225.1	183.4	2.1	2.9	0.20	53.72	1.9775	402.8128
9114	1509395114	54.6846	-110.2932	825.3	226.3	183.6	1.6	2.4	0.20	53.72	1.9773	404.5080
9115	1509395115	54.6838	-110.2932	825.9	226.9	184.5	2.2	2.4	0.20	53.73	1.9771	402.8193
9116	1509395116	54.6831	-110.2933	825.9	226.9	185.2	2.9	2.9	0.21	53.73	1.9773	403.5964
9117	1509395117	54.6823	-110.2934	826.5	227.5	185.0	2.8	3.0	0.21	53.74	1.9801	403.5964
9118	1509395118	54.6816	-110.2934	827.6	228.6	184.0	1.8	2.8	0.21	53.74	1.9784	404.5511
9119	1509395119	54.6808	-110.2935	827.8	228.8	184.3	2.5	3.0	0.22	53.75	1.9757	404.7545
9120	1509395120	54.6800	-110.2936	826.9	227.9	184.1	2.5	3.6	0.22	53.75	1.9749	405.4818
9121	1509395121	54.6793	-110.2936	826.4	227.4	183.3	2.0	3.5	0.22	53.76	1.9766	404.0614
9122	1509395122	54.6786	-110.2936	825.3	226.3	183.0	2.0	3.5	0.23	53.76	1.9770	404.3502
9123	1509395123	54.6778	-110.2937	824.0	225.0	183.2	2.5	3.8	0.23	53.77	1.9746	404.3260
9124	1509395124	54.6771	-110.2937	822.3	222.3	183.6	3.0	3.6	0.23	53.77	1.9750	404.0118
9125	1509395125	54.6763	-110.2937	820.7	221.7	183.2	2.5	4.1	0.24	53.78	1.9756	403.9292
9126	1509395126	54.6756	-110.2938	818.8	220.4	183.6	2.7	3.8	0.24	53.78	1.9733	403.4956
9127	1509395127	54.6748	-110.2938	817.4	219.4	183.6	2.9	3.7	0.24	53.79	1.9759	404.7273
9128	1509395128	54.6741	-110.2939	816.4	218.4	183.9	3.0	3.3	0.24	53.79	1.9769	404.3454
9129	1509395129	54.6733	-110.2939	816.2	218.2	183.6	2.5	3.3	0.25	53.80	1.9787	403.2549
9130	1509395130	54.6726	-110.2939	816.2	218.2	184.1	2.8	2.8	0.25	53.80	1.9781	402.9258
9131	1509395131	54.6718	-110.2940	815.9	217.9	183.8	2.1	2.8	0.25	53.81	1.9742	403.5082
9132	1509395132	54.6710	-110.2940	815.2	217.2	183.9	1.9	2.8	0.26	53.81	1.9747	404.6191
9133	1509395133	54.6703	-110.2941	813.8	216.8	183.8	1.8	3.5	0.26	53.82	1.9764	403.4359
9134	1509395134	54.6695	-110.2942	812.4	215.4	184.3	2.5	3.5	0.26	53.82	1.9777	402.8525
9135	1509395135	54.6688	-110.2942	810.6	213.6	185.0	3.1	3.2	0.27	53.83	1.9795	402.8564
9136	1509395136	54.6680	-110.2943	809.0	211.7	184.8	2.6	3.2	0.27	53.83	1.9755	403.5763
9137	1509395137	54.6673	-110.2944	807.7	209.7	184.7	2.6	3.1	0.27	53.84	1.9758	403.5763
9138	1509395138	54.6665	-110.2944	806.3	208.3	184.4	2.5	3.4	0.28	53.84	1.9775	402.4624
9139	1509395139	54.6658	-110.2945	804.7	207.7	184.3	2.8	3.5	0.28	53.85	1.9794	401.6187
9140	1509395140	54.6650	-110.2945	803.9	207.9	184.3	2.8	3.0	0.28	53.85	1.9769	402.1602
9141	1509395141	54.6642	-110.2946	802.6	206.6	183.7	2.2	2.7	0.29	53.86	1.9770	402.1602
9142	1509395142	54.6634	-110.2946	800.6	205.6	183.7	2.2	2.9	0.29	53.86	1.9768	400.5469
9143	1509395143	54.6627	-110.2947	798.8	203.8	183.3	1.8	3.0	0.29	53.86	1.9752	402.1221
9144	1509395144	54.6619	-110.2947	797.1	203.1	184.1	2.8	2.8	0.30	53.87	1.9729	402.8798
9145	1509395145	54.6612	-110.2948	797.2	203.2	184.3	2.9	2.6	0.30	53.87	1.9714	402.8798
9146	1509395146	54.6605	-110.2948	799.3	205.3	184.6	3.4	3.1	0.30	53.88	1.9701	401.9081
9147	1509395147	54.6598	-110.2949	801.7	208.6	184.8	3.5	3.4	0.30	53.88	1.9688	401.9081
9148	1509395148	54.6592	-110.2949	804.2	211.2	184.8	3.7	3.5	0.31	53.89	1.9731	401.4761
9149	1509395149	54.6585	-110.2950	807.4	215.3	184.7	3.4	3.8	0.31	53.89	1.9711	402.1223
9150	1509395150	54.6578	-110.2950	810.8	218.7	184.2	2.7	3.8	0.31	53.90	1.9692	402.6877
9151	1509395151	54.6572	-110.2951	813.9	223.9	184.9	3.5	3.6	0.32	53.90	1.9688	402.2892
9152	1509395152	54.6565	-110.2951	816.7	226.7	184.5	3.0	3.4	0.32	53.91	1.9703	402.1086
9153	1509395153	54.6559	-110.2951	818.1	229.0	185.2	4.0	3.3	0.32	53.91	1.9746	403.0706
9154	1509395154	54.6554	-110.2952	818.1	229.1	184.9	3.3	3.6	0.33	53.92	1.9754	402.9078
9155	1509395155	54.6552	-110.2952	818.2	229.1	184.4	2.7	3.4	0.33	53.92	1.9765	403.5923
9156	1509395156	54.6550	-110.2952	818.2	229.6	184.0	2.4	3.3	0.33	53.93	1.9771	402.3696
9157	1509395157	54.6542	-110.2953	817.8	229.7	185.0	3.7	3.0	0.34	53.93	1.9772	403.8431
9158	1509395158	54.6535	-110.2953	817.0	230.3	183.9	2.2	2.6	0.34	53.94	1.9743	403.8431
9159	1509395159	54.6527	-110.2954	816.4	230.8	184.3	2.7	2.4	0.34	53.94	1.9761	404.5235
9160	1509395160	54.6520	-110.2954	815.7	230.7	183.6	2.3	2.2	0.35	53.95	1.9796	404.8850
9161	1509395161	54.6513	-110.2955	813.9	231.9	184.0	3.0	1.5	0.35	53.95	1.9779	405.0117
9162	1509395162	54.6505	-110.2955	812.2	234.2	182.3	1.1	1.3	0.35	53.96	1.9757	405.0117
9163	1509395163	54.6497	-110.2955	810.7	236.8	182.9	1.8	1.6	0.36	53.96	1.9749	405.9029
9164	1509395164	54.6490	-110.2956	809.2	236.2	182.6	1.3	2.3	0.36	53.97	1.9757	405.0697
9165	1509395165	54.6482	-110.2956	808.0	235.0	183.3	2.0	2.8	0.36	53.97	1.9756	405.5687
9166	1509395166	54.6475	-110.2956	806.4	233.4	183.5	1.9	2.1	0.36	53.98	1.9744	405.7418
9167	1509395167	54.6467	-110.2957	806.0	233.0	184.6	2.7	2.1	0.37	53.98	1.9768	404.9641
9168	1509395168	54.6461	-110.2958	806.2	233.2	185.0	2.6	1.6	0.37	53.99	1.9759	406.0732
9169	1509395169	54.6454	-110.2958	806.6	233.6	184.3	1.7	2.0	0.37	53.99	1.9740	405.0463
9170	1509395170	54.6447	-110.2959	806.9	233.9	184.2	1.6	2.1	0.38	54.00	1.9742	405.0463
9171	1509395171	54.6441	-110.2959	806.8	233.8	183.9	1.2	1.7	0.38	54.00	1.9739	406.0333
9172	1509395172	54.6435	-110.2960	806.6	233.6	184.0	1.0	1.6	0.38	54.01	1.9725	406.0071
9173	1509395173	54.6428	-110.2961	806.6	233.6	184.1	1.1	1.6	0.39	54.01	1.9709	406.0071
9174	1509395174	54.6421	-110.2961	806.1	233.1	185.2	2.5	1.4	0.39	54.02	1.9725	405.0775
9175	1509395175	54.6415	-110.2962	805.1	232.1	185.1	2.7	1.6	0.39	54.02	1.9725	406.4018
9176	1509395176	54.6408	-110.2963	804.5	231.5	184.4	2.5	1.7	0.40	54.03	1.9701	406.4018
9177	1509395177	54.6402	-110.2963	804.0	231.0	184.0	2.5	2.0	0.40	54.03	1.9738	405.9554
9178	1509395178	54.6395	-110.2964	803.2	230.2	184.5	3.0	2.1	0.40	54.04	1.9742	404.6073
9179	1509395179	54.6388	-110.2964	803.3	230.3	184.0	2.2	1.8	0.41	54.04	1.9740	405.0037
9180	1509395180	54.6381	-110.2965	803.2	230.2	184.0	2.2	1.6	0.41	54.05	1.9737	404.2351
9181	1509395181	54.6375	-110.2965	802.6	229.6	184.3	2.6	1.8	0.41	54.05	1.9728	404.1591
9182	1509395182	54.6368	-110.2966	802.0	229.0	184.2	2.3	2.0	0.42	54.06	1.9742	404.8662
9183	1509395183	54.6361	-110.2966	801.1	228.1	184.4	2.2	1.9	0.42	54.06	1.9739	404.7097
9184	1509395184	54.6355	-110.2967	799.5	226.5	184.8	2.5	2.0	0.42	54.07	1.9729	404.4868
9185	1509395185	54.6348	-110.2967	798.1	225.1	184.8	2.4	2.2	0.42	54.07	1.9701	404.9191
9186	1509395186	54.6341	-110.2968	797.1	224.1	184.3	2.0	2.2	0.43	54.08	1.9702	403.3422
9187	1509395187	54.6335	-110.2968	795.8	222.8	184.9	2.8	1.9	0.43	54.08	1.9696	402.6174
9188	1509395188	54.6328	-110.2969	794.7	221.7	184.2	1.7	1.9	0.43	54.09	1.9694	402.6174
9189	1509395189	54.6321	-110.2970	793.9	220.9	184.6	2.1	1.8	0.44	54.09	1.9674	405.2247
9190	1509395190	54.6314	-110.2970	794.0	221.0	184.9	2.6	2.1	0.44	54.10	1.9684	405.1637
9191	1509395191	54.6308	-110.2971	794.6	221.6	185.1	2.9	2.6	0.44	54.10	1.9683	402.2921
9192	1509395192	54.6301	-110.2971	795.3	222.3	184.9	2.6	2.6	0.45	54.11	1.9673	402.4578
9193	1509395193	54.6294	-110.2972	795.9	222.9	184.5	2.4	2.3	0.45	54.11	1.9677	402.5326
9194	1509395194	54.6288	-110.2973	795.8	222.8	185.0	2.9	2.2	0.45	54.12	1.9660	402.9882
9195	1509395195	54.6281	-110.2973	795.6	222.6	184.5	2.6	2.3	0.46	54.12	1.9660	403.8982
9196	1509395196	54.6274	-110.2974	795.4	222.4	184.8	2.9	2.8	0.46	54.13	1.9668	401.9594
9197	1509395197	54.6267	-110.2974	795.1	222.1	184.6	2.8	2.8	0.46	54.13	1.9657	403.0861
9198	1509395198	54.6261	-110.2975	795.0	222.0	184.9	2.9	3.4	0.47	54.14	1.9656	403.2474
9199	1509395199	54.6254	-110.2975	795.4	222.4	184.2	2.1	3.1	0.47	54.14	1.9653	402.0828
9200	1509395200	54.6247	-110.2976	796.0	223.0	184.7	2.8	3.2	0.47	54.15	1.9630	403.1736
9201	1509395201	54.6241	-110.2977	796.4	223.4	184.9	3.0	3.3	0.48	54.15	1.9648	403.1736
9202	1509395202	54.6234	-110.2977	796.4	223.4	185.1	3.0	3.4	0.48	54.16	1.9649	402.7570
9203	1509395203	54.6228	-110.2978	796.3	223.3	184.6	1.9	3.1	0.48	54.16	1.9658	403.4137
9204	1509395204	54.6221	-110.2978	796.2	223.2	184.7	2.1	3.4	0.48	54.17	1.9658	403.1978
9205	1509395205	54.6214	-110.2979	795.8	222.8	185.1	2.2	3.6	0.49	54.17	1.9659	402.8393
9206	1509395206	54.6208	-110.2980	795.7	222.7	184.5	1.6	3.7	0.49	54.18	1.9658	402.9474
9207	1509395207	54.6201	-110.2981	795.8	222.8	185.3	2.0	2.9	0.49	54.18	1.9658	403.0554
9208	1509395208	54.6195	-110.2981	795.7	222.7	184.4	1.0	2.6	0.50	54.18	1.9657	403.1635
9209	1509395209	54.6188	-110.2982	794.6	221.6	185.1	1.7	2.5	0.50	54.19	1.9657	403.2716
9210	1509395210	54.6182	-110.2983	793.2	220.2	185.0	1.6	2.7	0.50	54.19	1.9656	403.3797
9211	1509395211	54.6175	-110.2984	791.5	218.5	185.7	2.4	3.0	0.51	54.20	1.9656	403.4878
9212	1509395212	54.6168	-110.2985	790.7	217.7	185.2	1.6	3.5	0.51	54.20	1.9655	403.5959
9213	1509395213	54.6161	-110.2985	789.8	216.8	185.5	2.2	3.7	0.51	54.21	1.9651	402.9030
9214	1509395214	54.6156	-110.2986	789.4	216.4	185.9	2.5	3.5	0.52	54.21	1.9621	403.4057
9215	1509395215	54.6156	-110.2986	789.3	216.3	185.9	2.4	3.4	0.52	54.22	1.9623	401.1927
9216	1509395216	54.6155	-110.2986	789.3	216.3	185.8	2.3	3.3	0.52	54.22	1.9618	401.1927
9217	1509395217	54.6155	-110.2986	789.3	216.3	185.8	2.3	3.2	0.53	54.23	1.9616	401.9744
9218	1509395218	54.6154	-110.2986	789.2	216.2	185.7	2.2	3.6	0.53	54.23	1.9612	401.2365
9219	1509395219	54.6154	-110.2986	789.2	216.2	185.7	2.2	3.5	0.53	54.24	1.9619	402.3491
9220	1509395220	54.6153	-110.2986	789.1	216.1	185.6	2.0	3.1	0.54	54.24	1.9628	402.4459
9221	1509395221	54.6151	-110.2987	788.8	215.8	185.5	2.0	3.3	0.54	54.25	1.9606	401.9585
9222	1509395222	54.6143	-110.2988	787.8	214.8	186.0	2.3	3.4	0.54	54.25	1.9629	401.4023
9223	1509395223	54.6135	-110.2989	787.2	214.2	186.3	2.2	3.2	0.54	54.26	1.9617	401.9217
9224	1509395224	54.6128	-110.2990	786.8	213.8	186.4	1.8	3.4	0.55	54.26	1.9618	400.6818
9225	1509395225	54.6120	-110.2991	786.1	213.1	187.1	2.4	2.4	0.55	54.27	1.9600	401.4179
9226	1509395226	54.6112	-110.2993	785.2	212.2	186.9	1.7	2.4	0.55	54.27	1.9605	401.5091
9227	1509395227	54.6104	-110.2994	783.7	210.7	187.7	2.5	2.7	0.56	54.29	1.9609	400.8629
9228	1509395228	54.6096	-110.2995	782.3	209.3	186.8	0.9	2.3	0.58	54.19	1.9609	402.0005
9229	1509395229	54.6089	-110.2997	781.9	208.9	187.0	1.2	1.7	0.57	54.06	1.9602	398.8619
9230	1509395230	54.6081	-110.2998	782.0	209.0	187.6	1.6	1.8	0.57	54.00	1.9608	401.4062
9231	1509395231	54.6073	-110.3000	783.6	210.6	187.6	1.5	1.5	0.57	54.00	1.9599	401.5125
9232	1509395232	54.6066	-110.3002	785.3	212.3	188.7	2.5	1.7	0.57	53.96	1.9599	401.2695
9233	1509395233	54.6058	-110.3003	787.5	214.5	187.6	0.9	1.8	0.57	53.88	1.9595	401.2235
9234	1509395234	54.6051	-110.3005	792.2	219.2	188.7	2.1	2.5	0.58	53.79	1.9625	401.0951
9235	1509395235	54.6043	-110.3006	797.6	224.6	188.2	1.5	3.7	0.57	53.69	1.9601	400.2705
9236	1509395236	54.6036	-110.3008	802.1	229.1	188.7	2.0	4.0	0.58	53.63	1.9611	400.9771
9237	1509395237	54.6029	-110.3010	804.0	231.0	189.7	2.8	3.5	0.58	53.62	1.9606	400.2088
9238	1509395238	54.6021	-110.3012	804.3	231.3	189.1	1.8	3.7	0.57	53.77	1.9591	400.1481
9239	1509395239	54.6014	-110.3014	803.9	230.9	190.1	3.2	3.4	0.58	53.97	1.9595	401.3624
9240	1509395240	54.6006	-110.3015	803.5	230.5	189.5	2.4	3.7	0.58	54.07	1.9595	401.3520
9241	1509395241	54.5999	-110.3017	803.8	230.8	188.8	2.3	4.0	0.57	54.08	1.9599	401.0617
9242	1509395242	54.5991	-110.3019	803.7	230.7	188.8	3.4	4.3	0.58	54.01	1.9590	401.1353
9243	1509395243	54.5984	-110.3020	802.2	229.2	187.8	4.1	4.1	0.58	53.88	1.9598	400.8735
9244	1509395244	54.5977	-110.3021	800.4	227.4	185.3	3.3	4.4	0.57	53.84	1.9595	399.9999
9245	1509395245	54.5969	-110.3021	799.2	226.2	183.1	2.7	4.5	0.57	53.81	1.9593	399.8706
9246	1509395246	54.5962	-110.3021	798.0	225.0	181.9	2.3	4.4	0.58	53.75	1.9602	400.9918
9247	1509395247	54.5954	-110.3021	796.5	223.5	182.1	3.0	4.2	0.57	53.59	1.9607	400.4371
9248	1509395248	54.5947	-110.3021	795.0	220.0	182.5	3.4	4.1	0.57	53.47	1.9609	399.5430
9249	1509395249	54.5939	-110.3021	793.8	218.8	183.0	3.6	4.0	0.57	53.43	1.9605	400.3207
9250	1509395250	54.5932	-110.3022	792.3	218.0	182.8	3.0	3.9	0.57	53.42	1.9600	400.4198
9251	1509395251	54.5924	-110.3022	790.9	217.9	183.3	3.3	3.5	0.57	53.42	1.9613	400.4198
9252	1509395252	54.5917	-110.3022	789.9	216.9	183.2	3.0	3.2	0.57	53.43	1.9617	400.6944
9253	1509395253	54.5909	-110.3022	789.4	216.4	183.0	2.6	3.1	0.58	53.52	1.9607	401.6599
9254	1509395254	54.5901	-110.3022	789.1	216.1	183.2	2.7	3.0	0.58	53.67	1.9601	400.6727
9255	1509395255	54.5894	-110.3023	789.7	215.6	183.2	2.2	3.2	0.57	53.79	1.9597	401.1159
9256	1509395256	54.5886	-110.3023	790.6	214.7	182.4	1.1	3.8	0.58	53.96	1.9590	401.1772
9257	1509395257	54.5879	-110.3024	791.3	212.3	183.2	1.9	3.5	0.58	54.12	1.9588	400.8591
9258	1509395258	54.5871	-110.3024	791.7	210.0	183.4	2.3	3.5	0.57	54.23	1.9583	400.8591
9259	1509395259	54.5864	-110.3024	792.7	210.7	183.1	2.1	3.3	0.57	54.26	1.9561	400.5743
9260	1509395260	54.5856	-110.3025	793.7	211.7	182.9	2.3	3.6	0.58	54.28	1.9566	399.8217
9261	1509395261	54.5849	-110.3025	795.5	213.5	183.1	2.9	4.3	0.57	54.28	1.9558	400.9899
9262	1509395262	54.5842	-110.3025	799.2	217.0	182.4	2.4	4.4	0.58	54.28	1.9560	401.0818
9263	1509395263	54.5835	-110.3025	802.9	222.1	182.0	2.1	4.4	0.58	54.29	1.9535	399.8564
9264	1509395264	54.5829	-110.3025	805.7	225.7	182.3	2.5	4.1	0.58	54.33	1.9534	400.1470
9265	1509395265	54.5822	-110.3025	807.7	227.7	182.3	2.4	3.8	0.58	54.37	1.9561	399.5840
9266	1509395266	54.5816	-110.3025	808.7	229.0	182.5	2.5	3.9	0.58	54.38	1.9546	399.7404
9267	1509395267	54.5810	-110.3026	808.9	229.2	182.4	2.3	3.9	0.58	54.39	1.9530	399.8968
9268	1509395268	54.5804	-110.3026	808.4	228.7	182.7	2.7	3.8	0.60	54.41	1.9541	400.9506
9269	1509395269	54.5797	-110.3026	808.0	229.0	182.8	2.8	3.7	0.60	54.41	1.9540	399.4433
9270	1509395270	54.5791	-110.3026	807.5	228.5	182.8	3.0	3.8	0.59	54.31	1.9534	400.0421
9271	1509395271	54.5784	-110.3026	807.6	227.8	182.8	3.0	3.7	0.59	54.06	1.9523	400.0421
9272	1509395272	54.5778	-110.3026	807.6	227.9	182.9	2.9	3.3	0.60	53.86	1.9522	400.2679
9273	1509395273	54.5772	-110.3026	807.1	227.4	182.9	2.8	3.5	0.59	53.79	1.9522	400.8102
9274	1509395274	54.5766	-110.3026	805.9	226.9	183.0	2.9	3.4	0.57	53.77	1.9508	401.0306
9275	1509395275	54.5765	-110.3026	805.4	226.4	183.0	2.9	3.4	0.56	53.78	1.9511	400.8065
9276	1509395276	54.5763	-110.3026	804.7	225.7	183.0	2.9	3.9	0.56	53.78	1.9509	400.8065
9277	1509395277	54.5756	-110.3027	803.0	224.0	183.0	2.6	3.7	0.55	53.76	1.9507	400.2514
9278	1509395278	54.5748	-110.3027	802.5	223.8	183.4	2.7	3.6	0.56	53.72	1.9522	401.3246
9279	1509395279	54.5741	-110.3027	801.8	223.1	183.6	2.8	3.8	0.57	53.64	1.9547	401.3102
9280	1509395280	54.5733	-110.3028	800.7	221.7	184.2	3.4	4.0	0.58	53.51	1.9497	401.0622
9281	1509395281	54.5726	-110.3028	799.4	219.4	183.7	2.7	3.7	0.57	53.39	1.9515	401.3619
9282	1509395282	54.5718	-110.3028	797.6	217.3	184.6	3.7	3.5	0.58	53.31	1.9542	401.3619
9283	1509395283	54.5711	-110.3029	796.3	215.3	183.4	2.3	3.5	0.57	53.30	1.9530	400.3502
9284	1509395284	54.5704	-110.3029	794.6	213.6	184.5	3.3	3.3	0.58	53.34	1.9525	399.7030
9285	1509395285	54.5696	-110.3030	793.2	212.2	184.7	3.2	3.6	0.58	53.39	1.9514	400.1407
9286	1509395286	54.5689	-110.3030	793.2	212.2	184.7	3.1	3.6	0.58	53.42	1.9527	400.1407
9287	1509395287	54.5682	-110.3031	792.3	211.2	184.5	3.1	3.5	0.56	53.45	1.9534	400.6253
9288	1509395288	54.5675	-110.3031	790.9	209.9	184.7	3.2	3.3	0.55	53.52	1.9537	400.5268
9289	1509395289	54.5669	-110.3032	789.6	208.3	184.5	3.1	3.3	0.56	53.53	1.9537	400.1232
9290	1509395290	54.5662	-110.3032	788.7	206.7	184.2	2.8	3.1	0.56	53.47	1.9522	400.3558
9291	1509395291	54.5656	-110.3032	787.7	205.0	184.5	3.2	3.1	0.56	53.34	1.9508	399.9290
9292	1509395292	54.5649	-110.3033	786.6	203.6	184.5	3.1	3.5	0.57	53.22	1.9506	400.7235
9293	1509395293	54.5643	-110.3033	786.6	203.6	184.3	2.6	3.6	0.58	53.15	1.9490	400.6005
9294	1509395294	54.5636	-110.3034	789.1	206.1	183.4	1.4	3.5	0.58	53.18	1.9515	399.1143
9295	1509395295	54.5630	-110.3034	791.1	207.1	184.4	3.3	3.6	0.58	53.39	1.9505	399.1143
9296	1509395296	54.5623	-110.3035	792.8	208.6	183.8	3.0	4.0	0.57	53.50	1.9497	399.8602
9297	1509395297	54.5617	-110.3035	795.7	212.6	183.1	2.6	3.9	0.58	53.51	1.9500	399.9133
9298	1509395298	54.5610	-110.3035	798.7	217.0	183.8	3.4	3.6	0.59	53.40	1.9501	399.2459
9299	1509395299	54.5604	-110.3035	801.0	221.0	183.2	3.0	3.9	0.59	53.21	1.9514	397.1968
9300	1509395300	54.5597	-110.3036	803.1	225.3	183.5	3.4	3.0	0.59	53.09	1.9506	400.2701
9301	1509395301	54.5591	-110.3036	804.8	231.7	182.8	2.5	3.2	0.60	52.99	1.9497	400.6567
9302	1509395302	54.5585	-110.3036	806.4	237.3	182.2	2.2	3.3	0.60	52.97	1.9504	399.6504
9303	1509395303	54.5578	-110.3036	807.7	242.0	182.3	2.5	3.0	0.60	52.98	1.9493	399.8270
9304	1509395304	54.5572	-110.3036	808.7	246.9	182.3	2.8	3.0	0.60	53.07	1.9489	400.8198
9305	1509395305	54.5566	-110.3036	809.1	251.0	182.1	2.7	3.0	0.60	53.23	1.9495	399.1120
9306	1509395306	54.5560	-110.3036	809.3	254.1	181.6	1.6	3.0	0.60	53.33	1.9503	400.3915
9307	1509395307	54.5554	-110.3036	809.2	256.2	182.4	1.2	3.0	0.60	53.41	1.9515	400.8232
9308	1509395308	54.5547	-110.3037	808.0	258.0	185.7	1.5	3.1	0.60	53.46	1.9511	400.4153
9309	1509395309	54.5541	-110.3038	805.2	258.0	190.2	2.2	3.1	0.60	53.48	1.9507	400.2971
9310	1509395310	54.5534	-110.3040	802.5	257.2	195.2	1.9	3.5	0.59	53.49	1.9504	398.8721
9311	1509395311	54.5528	-110.3043	800.5	255.5	199.1	1.8	3.9	0.58	53.53	1.9501	399.8645
9312	1509395312	54.5522	-110.3047	798.9	253.9	203.2	2.7	3.0	0.57	53.57	1.9499	400.2804
9313	1509395313	54.5517	-110.3052	798.0	253.0	204.7	1.1	3.4	0.57	53.56	1.9488	400.4930
9314	1509395314	54.5511	-110.3057	797.7	251.8	207.3	0.9	3.6	0.58	53.54	1.9492	400.3164
9315	1509395315	54.5506	-110.3062	797.9	250.0	210.3	0.8	3.5	0.57	53.57	1.9496	400.3164
9316	1509395316	54.5500	-110.3068	797.9	246.7	213.5	0.6	3.6	0.58	53.74	1.9497	400.3163
9317	1509395317	54.5495	-110.3074	796.6	242.3	218.3	1.2	3.6	0.58	53.81	1.9480	400.0854
9318	1509395318	54.5490	-110.3082	795.7	239.0	223.8	1.0	3.9	0.58	53.84	1.9476	400.9683
9319	1509395319	54.5486	-110.3090	795.0	237.7	228.9	1.1	3.9	0.57	53.84	1.9473	400.5142
9320	1509395320	54.5482	-110.3099	793.6	236.6	234.2	1.3	3.9	0.57	53.87	1.9478	401.0001
9321	1509395321	54.5479	-110.3108	791.7	235.6	240.7	1.9	3.6	0.57	53.90	1.9473	400.6666
9322	1509395322	54.5476	-110.3119	790.3	236.4	245.7	1.4	5.0	0.57	53.93	1.9476	399.9788
9323	1509395323	54.5474	-110.3129	789.0	235.7	251.5	2.0	4.4	0.58	53.93	1.9471	400.2983
9324	1509395324	54.5473	-110.3140	786.9	233.9	255.9	1.9	4.8	0.57	53.85	1.9476	400.1554
9325	1509395325	54.5472	-110.3151	783.2	231.2	260.8	2.2	4.4	0.57	53.73	1.9480	399.2980
9326	1509395326	54.5472	-110.3162	779.7	227.7	266.2	1.9	4.8	0.58	53.61	1.9487	399.5286
9327	1509395327	54.5472	-110.3174	777.3	224.2	271.3	1.8	5.1	0.59	53.54	1.9487	400.3046
9328	1509395328	54.5473	-110.3185	774.8	220.5	276.9	2.2	4.3	0.60	53.49	1.9491	400.4244
9329	1509395329	54.5474	-110.3197	771.9	215.4	282.7	2.4	3.8	0.61	53.41	1.9489	399.6505
9330	1509395330	54.5477	-110.3208	769.7	209.9	287.6	2.1	3.3	0.61	53.26	1.9497	400.1955
9331	1509395331	54.5479	-110.3219	768.2	204.5	290.6	2.1	2.2	0.62	53.11	1.9491	400.8297
9332	1509395332	54.5482	-110.3230	767.5	202.2	290.3	1.8	3.1	0.64	52.96	1.9490	400.8297
9333	1509395333	54.5484	-110.3240	767.4	201.8	289.2	2.0	3.5	0.65	52.80	1.9494	400.8103
9334	1509395334	54.5487	-110.3249	767.5	201.5	289.0	1.8	2.6	0.66	52.67	1.9488	400.0360
9335	1509395335	54.5487	-110.3252	767.6	201.6	288.5	1.9	2.7	0.68	52.61	1.9485	401.3691
9336	1509395336	54.5488	-110.3256	767.6	201.6	287.6	1.7	3.1	0.70	52.56	1.9489	400.2757
9337	1509395337	54.5491	-110.3269	768.0	198.8	285.1	1.2	3.3	0.71	52.57	1.9499	399.8081
9338	1509395338	54.5493	-110.3282	770.1	198.4	281.7	1.2	4.0	0.73	52.69	1.9506	400.7017
9339	1509395339	54.5495	-110.3295	772.2	200.2	279.8	1.7	3.7	0.76	52.87	1.9507	399.8149
9340	1509395340	54.5496	-110.3309	773.1	200.1	278.4	2.3	4.2	0.76	53.01	1.9499	399.9126
9341	1509395341	54.5498	-110.3322	772.6	197.2	278.7	1.9	3.6	0.77	53.11	1.9501	400.1609
9342	1509395342	54.5500	-110.3335	772.3	196.2	279.0	1.8	3.4	0.79	53.18	1.9505	400.6999
9343	1509395343	54.5501	-110.3348	774.7	197.7	279.4	2.3	3.6	0.78	53.32	1.9507	400.5734
9344	1509395344	54.5503	-110.3361	779.4	201.4	279.8	2.6	3.6	0.78	53.43	1.9505	400.2542
9345	1509395345	54.5505	-110.3374	784.1	208.1	280.9	2.1	3.4	0.78	53.55	1.9520	399.8226
9346	1509395346	54.5506	-110.3385	786.9	215.9	280.9	2.1	3.6	0.78	53.68	1.9552	399.4617
9347	1509395347	54.5508	-110.3396	789.2	224.3	281.3	1.9	3.0	0.79	53.79	1.9526	400.1353
9348	1509395348	54.5509	-110.3408	791.3	233.7	280.6	1.6	3.2	0.78	53.86	1.9504	400.0227
9349	1509395349	54.5511	-110.3419	793.9	239.6	279.2	1.7	3.6	0.78	53.88	1.9545	399.6706
9350	1509395350	54.5512	-110.3430	796.5	241.5	278.5	1.6	3.8	0.78	54.02	1.9556	398.2382
9351	1509395351	54.5514	-110.3441	798.2	240.8	278.1	1.5	3.7	0.80	54.25	1.9573	400.3988
9352	1509395352	54.5515	-110.3451	800.0	237.4	278.0	1.7	3.7	0.80	54.33	1.9589	399.3880
9353	1509395353	54.5516	-110.3462	801.8	236.8	277.5	1.8	3.9	0.80	54.28	1.9613	401.0956
9354	1509395354	54.5517	-110.3473	802.0	233.3	278.1	1.6	3.2	0.80	54.11	1.9603	401.3106
9355	1509395355	54.5518	-110.3484	800.7	234.0	278.0	1.6	3.3	0.80	54.01	1.9581	401.1042
9356	1509395356	54.5520	-110.3495	798.7	229.7	277.9	1.6	3.4	0.80	54.00	1.9571	399.6464
9357	1509395357	54.5521	-110.3506	797.4	230.4	277.7	1.7	3.7	0.78	54.00	1.9569	399.4994
9358	1509395358	54.5522	-110.3517	797.2	230.3	278.0	1.8	2.9	0.78	53.93	1.9569	400.0583
9359	1509395359	54.5523	-110.3528	797.6	220.2	277.8	1.8	2.8	0.78	53.74	1.9573	399.4381
9360	1509395360	54.5524	-110.3539	797.8	211.1	277.0	2.0	3.5	0.78	53.57	1.9564	399.2126
9361	1509395361	54.5525	-110.3550	797.4	200.6	277.1	2.2	3.1	0.78	53.43	1.9560	399.2126
9362	1509395362	54.5527	-110.3561	797.6	196.3	276.6	2.3	3.6	0.77	53.19	1.9574	399.9419
9363	1509395363	54.5528	-110.3572	798.4	193.7	276.4	2.2	4.2	0.76	53.00	1.9585	401.0574
9364	1509395364	54.5529	-110.3583	798.9	191.6	276.5	1.9	4.5	0.76	52.84	1.9569	399.5948
9365	1509395365	54.5530	-110.3594	798.8	188.8	277.6	1.9	3.9	0.76	52.77	1.9584	399.2332
9366	1509395366	54.5531	-110.3605	798.5	185.4	278.3	2.3	4.0	0.76	52.74	1.9582	400.6008
9367	1509395367	54.5533	-110.3616	797.6	182.5	279.2	2.1	3.8	0.76	52.73	1.9577	400.3181
9368	1509395368	54.5534	-110.3627	796.8	180.0	280.2	2.0	3.8	0.76	52.74	1.9581	399.5214
9369	1509395369	54.5536	-110.3638	798.9	179.9	280.7	2.6	4.1	0.76	52.76	1.9564	398.2735
9370	1509395370	54.5537	-110.3649	805.0	187.3	281.5	3.5	3.5	0.76	52.82	1.9563	399.7488
9371	1509395371	54.5539	-110.3659	812.4	197.6	282.0	3.8	3.1	0.76	52.84	1.9555	399.0020
9372	1509395372	54.5541	-110.3670	819.4	206.7	281.5	3.0	3.7	0.76	52.77	1.9552	399.6864
9373	1509395373	54.5542	-110.3681	824.3	214.5	280.7	2.9	4.0	0.76	52.58	1.9561	400.3947
9374	1509395374	54.5544	-110.3691	827.5	219.7	280.3	2.5	3.4	0.76	52.50	1.9551	399.6017
9375	1509395375	54.5545	-110.3702	829.4	226.1	278.5	2.3	4.0	0.74	52.47	1.9542	398.2682
9376	1509395376	54.5546	-110.3712	831.6	230.6	275.9	3.1	4.8	0.73	52.47	1.9535	398.2682
9377	1509395377	54.5547	-110.3722	833.9	236.0	274.6	2.8	5.1	0.72	52.46	1.9524	399.7355
9378	1509395378	54.5548	-110.3733	835.8	238.4	274.1	2.9	5.4	0.71	52.46	1.9531	399.7417
9379	1509395379	54.5549	-110.3743	838.6	241.8	274.8	3.3	5.3	0.70	52.44	1.9522	400.2418
9380	1509395380	54.5550	-110.3754	841.2	245.2	276.5	3.0	4.7	0.70	52.38	1.9516	400.2418
9381	1509395381	54.5552	-110.3764	842.5	246.5	277.5	2.9	4.9	0.70	52.33	1.9543	398.9589
9382	1509395382	54.5553	-110.3774	841.4	246.4	279.0	2.6	4.4	0.67	52.30	1.9542	400.7549
9383	1509395383	54.5554	-110.3784	838.7	243.7	280.3	2.2	4.5	0.68	52.31	1.9539	400.4533
9384	1509395384	54.5556	-110.3795	836.0	242.0	281.3	2.1	4.6	0.66	52.38	1.9566	401.3841
9385	1509395385	54.5558	-110.3805	834.5	241.5	282.2	1.9	3.9	0.64	52.57	1.9558	400.1768
9386	1509395386	54.5559	-110.3816	833.6	243.5	280.9	2.2	4.8	0.61	52.79	1.9555	401.6886
9387	1509395387	54.5561	-110.3826	832.6	245.4	280.3	2.0	4.3	0.59	52.99	1.9561	401.6886
9388	1509395388	54.5562	-110.3837	831.1	248.1	279.8	1.9	3.7	0.57	53.18	1.9566	401.6886
9389	1509395389	54.5564	-110.3847	828.9	245.9	278.8	2.0	3.3	0.56	53.37	1.9572	401.6886
9390	1509395390	54.5565	-110.3858	825.9	239.2	277.9	1.7	3.3	0.54	53.62	1.9578	401.6886
9391	1509395391	54.5566	-110.3869	824.8	233.7	276.5	1.6	4.7	0.54	53.92	1.9583	401.6886
9392	1509395392	54.5567	-110.3880	824.0	229.4	277.7	1.6	4.1	0.53	54.20	1.9589	401.6886
9393	1509395393	54.5569	-110.3890	823.1	227.4	278.8	1.5	4.0	0.53	54.36	1.9657	407.2673
9394	1509395394	54.5570	-110.3899	821.7	223.7	279.5	1.3	3.8	0.53	54.26	1.9675	405.4323
9395	1509395395	54.5570	-110.3900	821.6	223.6	279.7	1.3	3.7	0.53	54.13	1.9531	400.3788
9396	1509395396	54.5570	-110.3901	821.5	223.5	279.8	1.4	3.7	0.52	53.99	1.9546	400.7565
9397	1509395397	54.5570	-110.3901	821.4	223.4	280.0	1.4	3.6	0.51	53.85	1.9524	400.5148
9398	1509395398	54.5570	-110.3902	821.3	223.3	280.1	1.4	3.5	0.51	53.71	1.9537	399.7877
9399	1509395399	54.5570	-110.3903	821.2	223.2	280.3	1.5	3.5	0.50	53.58	1.9551	400.5716
9400	1509395400	54.5570	-110.3904	821.2	223.2	280.5	1.5	3.4	0.50	53.44	1.9555	400.3728
9401	1509395401	54.5571	-110.3909	821.1	223.1	281.1	1.4	3.5	0.49	53.30	1.9549	399.2016
9402	1509395402	54.5573	-110.3922	820.9	221.9	281.2	2.2	4.3	0.49	53.32	1.9538	400.6597
9403	1509395403	54.5575	-110.3934	820.3	220.1	281.9	2.0	3.9	0.50	53.43	1.9533	399.3836
9404	1509395404	54.5577	-110.3947	819.6	217.6	281.4	1.8	3.7	0.49	53.50	1.9528	399.9831
9405	1509395405	54.5579	-110.3959	818.9	214.9	280.2	1.6	3.9	0.49	53.51	1.9530	399.6962
9406	1509395406	54.5580	-110.3972	819.1	215.1	278.6	1.7	4.4	0.49	53.49	1.9529	399.8725
9407	1509395407	54.5582	-110.3985	819.7	214.6	278.1	1.8	4.2	0.50	53.39	1.9551	399.9758
9408	1509395408	54.5583	-110.3997	820.5	214.4	278.0	1.8	4.1	0.52	53.28	1.9551	400.1111
9409	1509395409	54.5585	-110.4010	820.4	214.4	277.8	1.8	4.6	0.52	53.18	1.9548	399.6098
9410	1509395410	54.5586	-110.4023	820.6	214.6	278.4	1.3	4.1	0.51	53.11	1.9544	400.2923
9411	1509395411	54.5588	-110.4035	820.9	214.9	278.6	1.3	4.0	0.51	53.08	1.9548	400.5231
9412	1509395412	54.5590	-110.4048	821.8	215.8	278.6	1.4	4.4	0.52	53.08	1.9547	400.0535
9413	1509395413	54.5591	-110.4061	824.1	218.1	278.8	1.3	4.4	0.51	53.24	1.9542	399.5784
9414	1509395414	54.5593	-110.4073	826.5	220.5	279.3	1.3	3.9	0.49	53.47	1.9553	399.8307
9415	1509395415	54.5594	-110.4086	828.7	222.7	278.9	1.6	4.1	0.49	53.71	1.9561	400.2711
9416	1509395416	54.5596	-110.4098	830.9	226.2	278.5	1.8	4.3	0.49	53.82	1.9570	400.5319
9417	1509395417	54.5597	-110.4111	832.9	228.9	278.5	1.9	4.1	0.50	53.86	1.9565	399.1019
9418	1509395418	54.5599	-110.4124	834.0	231.0	278.1	1.9	4.0	0.49	53.90	1.9560	399.2452
9419	1509395419	54.5600	-110.4136	834.2	230.6	279.2	1.7	2.9	0.48	53.90	1.9554	399.6292
9420	1509395420	54.5602	-110.4149	834.2	231.6	277.8	1.9	4.5	0.47	53.88	1.9568	400.0851
9421	1509395421	54.5603	-110.4161	834.7	230.4	278.3	1.9	4.1	0.47	53.73	1.9569	399.5150
9422	1509395422	54.5605	-110.4173	836.0	231.0	278.7	1.6	3.9	0.45	53.46	1.9578	399.7173
9423	1509395423	54.5607	-110.4186	837.6	228.9	278.7	1.6	4.1	0.45	53.34	1.9563	398.9184
9424	1509395424	54.5608	-110.4198	839.2	229.5	278.7	2.0	4.1	0.44	53.33	1.9581	399.7887
9425	1509395425	54.5610	-110.4211	840.1	228.5	278.8	2.2	3.8	0.43	53.35	1.9585	400.7351
9426	1509395426	54.5611	-110.4223	840.4	229.5	278.5	2.2	4.0	0.42	53.34	1.9590	400.3867
9427	1509395427	54.5613	-110.4236	840.9	232.6	278.3	2.2	4.1	0.41	53.18	1.9579	399.8086
9428	1509395428	54.5614	-110.4248	841.5	234.0	278.5	2.2	4.3	0.42	53.05	1.9590	399.1015
9429	1509395429	54.5616	-110.4260	841.9	235.4	278.8	2.2	4.2	0.42	53.03	1.9582	400.4293
9430	1509395430	54.5617	-110.4273	841.4	235.3	279.6	2.1	3.6	0.41	53.06	1.9600	400.7983
9431	1509395431	54.5619	-110.4285	839.5	234.2	279.8	1.6	3.3	0.40	53.29	1.9600	400.0708
9432	1509395432	54.5621	-110.4298	836.8	227.8	279.5	1.6	3.2	0.39	53.53	1.9603	399.2860
9433	1509395433	54.5622	-110.4310	835.2	226.2	278.3	1.9	3.8	0.39	53.82	1.9599	399.8285
9434	1509395434	54.5624	-110.4323	834.8	224.1	277.8	2.2	4.0	0.39	54.00	1.9610	401.1143
9435	1509395435	54.5625	-110.4336	835.2	222.9	278.3	2.1	3.7	0.39	54.07	1.9612	400.4070
9436	1509395436	54.5627	-110.4348	836.7	224.5	278.8	1.8	3.8	0.39	54.08	1.9609	400.1855
9437	1509395437	54.5628	-110.4361	838.0	224.9	278.0	1.3	4.5	0.39	54.08	1.9612	401.1640
9438	1509395438	54.5630	-110.4373	838.0	227.0	279.6	0.7	3.3	0.39	54.09	1.9592	400.1279
9439	1509395439	54.5631	-110.4386	838.8	227.6	279.3	1.8	3.8	0.39	54.09	1.9605	399.5094
9440	1509395440	54.5633	-110.4399	839.9	230.5	279.2	1.9	4.0	0.39	53.88	1.9608	400.0926
9441	1509395441	54.5634	-110.4411	839.8	231.1	278.9	2.3	3.9	0.38	53.54	1.9614	399.8032
9442	1509395442	54.5636	-110.4424	838.6	231.9	278.4	2.1	4.1	0.38	53.31	1.9606	398.5399
9443	1509395443	54.5638	-110.4436	837.1	231.1	277.7	2.0	4.6	0.37	53.20	1.9608	401.3446
9444	1509395444	54.5639	-110.4447	836.3	232.3	277.7	1.9	4.3	0.37	53.16	1.9628	401.0178
9445	1509395445	54.5640	-110.4459	836.5	233.1	276.9	1.9	4.7	0.37	53.14	1.9625	399.7281
9446	1509395446	54.5641	-110.4470	837.0	235.7	276.9	1.9	4.1	0.37	53.13	1.9625	399.7281
9447	1509395447	54.5642	-110.4481	837.7	236.2	276.4	2.0	4.5	0.38	53.13	1.9624	399.7281
9448	1509395448	54.5644	-110.4492	838.3	237.6	275.9	2.1	4.8	0.37	53.11	1.9624	399.7281
9449	1509395449	54.5645	-110.4503	839.0	239.0	275.6	2.6	5.0	0.37	52.98	1.9624	399.7281
9450	1509395450	54.5646	-110.4514	839.7	239.7	275.6	2.3	5.0	0.37	52.80	1.9624	399.7281
9451	1509395451	54.5647	-110.4525	840.3	241.3	276.0	2.2	4.7	0.37	52.77	1.9623	399.7281
9452	1509395452	54.5648	-110.4536	840.5	242.0	276.1	1.9	4.8	0.36	52.96	1.9623	399.7281
9453	1509395453	54.5649	-110.4547	840.9	243.9	276.7	1.6	4.2	0.35	53.27	1.9640	400.4656
9454	1509395454	54.5650	-110.4556	841.5	245.5	276.7	1.7	4.4	0.35	53.41	1.9652	400.9594
9455	1509395455	54.5650	-110.4557	841.6	245.6	276.7	1.6	4.5	0.35	53.45	1.9652	400.1709
9456	1509395456	54.5650	-110.4557	841.6	245.6	276.6	1.6	4.5	0.35	53.49	1.9669	400.1122
9457	1509395457	54.5650	-110.4558	841.7	245.7	276.6	1.5	4.6	0.35	53.54	1.9663	401.0623
9458	1509395458	54.5650	-110.4559	841.7	245.7	276.5	1.4	4.7	0.35	53.58	1.9668	399.8403
9459	1509395459	54.5650	-110.4560	841.8	245.8	276.5	1.4	4.8	0.35	53.62	1.9672	399.1456
9460	1509395460	54.5651	-110.4561	841.9	245.9	276.4	1.3	4.9	0.35	53.66	1.9684	401.3843
9461	1509395461	54.5651	-110.4566	842.0	246.2	276.7	1.4	4.6	0.35	53.71	1.9692	400.7008
9462	1509395462	54.5653	-110.4579	840.7	245.7	277.3	2.8	4.4	0.35	53.75	1.9714	400.6204
9463	1509395463	54.5654	-110.4591	838.4	243.4	277.1	3.5	4.3	0.35	53.79	1.9709	399.3723
9464	1509395464	54.5655	-110.4605	836.9	242.9	277.5	3.4	3.7	0.35	53.83	1.9696	399.4016
9465	1509395465	54.5657	-110.4618	835.1	242.1	277.0	3.4	4.0	0.35	53.88	1.9716	399.7006
9466	1509395466	54.5658	-110.4631	832.7	239.7	276.6	3.4	4.2	0.35	53.92	1.9720	399.7838
9467	1509395467	54.5660	-110.4644	829.8	236.1	276.3	3.0	4.2	0.35	53.96	1.9735	398.8332
9468	1509395468	54.5661	-110.4657	826.1	233.2	276.5	2.8	3.8	0.35	53.96	1.9726	400.5200
9469	1509395469	54.5662	-110.4670	821.9	227.9	276.5	2.6	3.7	0.36	53.97	1.9705	400.5246
9470	1509395470	54.5663	-110.4683	819.1	225.1	276.3	2.4	3.6	0.37	53.97	1.9717	401.2854
9471	1509395471	54.5665	-110.4697	816.1	222.0	275.8	2.3	3.8	0.38	53.93	1.9719	399.3674
9472	1509395472	54.5666	-110.4710	813.3	220.0	275.8	1.6	3.6	0.39	53.80	1.9728	400.2402
9473	1509395473	54.5667	-110.4724	811.2	217.5	275.3	1.5	4.2	0.40	53.68	1.9720	398.8473
9474	1509395474	54.5668	-110.4737	810.0	217.0	275.1	1.3	4.4	0.41	53.63	1.9725	398.8473
9475	1509395475	54.5669	-110.4751	809.8	217.9	275.3	1.0	4.9	0.42	53.61	1.9708	401.2037
9476	1509395476	54.5671	-110.4764	809.7	216.7	276.5	1.5	4.2	0.44	53.56	1.9706	399.0015
9477	1509395477	54.5672	-110.4778	808.2	214.2	277.0	1.9	4.7	0.45	53.39	1.9727	399.2508
9478	1509395478	54.5674	-110.4791	806.9	211.5	278.5	1.9	4.3	0.47	53.19	1.9696	399.3723
9479	1509395479	54.5675	-110.4805	806.6	209.6	279.2	1.5	4.0	0.49	53.05	1.9690	399.3723
9480	1509395480	54.5677	-110.4818	805.8	207.9	279.1	1.4	4.0	0.51	52.94	1.9702	400.0344
9481	1509395481	54.5679	-110.4832	805.7	206.7	278.0	1.1	4.4	0.51	52.84	1.9699	398.7402
9482	1509395482	54.5680	-110.4846	806.5	206.5	277.6	0.8	4.4	0.54	52.70	1.9737	399.6063
9483	1509395483	54.5682	-110.4859	807.7	207.7	276.8	0.5	4.6	0.54	52.59	1.9738	400.1712
9484	1509395484	54.5683	-110.4873	811.4	211.3	276.4	1.0	4.6	0.56	52.52	1.9703	400.7545
9485	1509395485	54.5685	-110.4886	815.6	215.6	276.6	1.1	4.4	0.56	52.49	1.9688	400.6935
9486	1509395486	54.5686	-110.4900	818.1	219.2	276.8	1.0	4.8	0.58	52.54	1.9682	399.5681
9487	1509395487	54.5687	-110.4913	820.1	221.1	277.4	1.5	4.4	0.57	52.61	1.9720	400.0352
9488	1509395488	54.5689	-110.4926	822.8	224.8	277.4	1.6	4.5	0.56	52.64	1.9766	400.4804
9489	1509395489	54.5690	-110.4939	824.7	226.6	277.6	1.6	4.4	0.56	52.58	1.9765	400.2852
9490	1509395490	54.5692	-110.4952	825.5	225.9	277.4	1.8	4.7	0.56	52.60	1.9759	399.9054
9491	1509395491	54.5693	-110.4965	825.3	226.4	278.0	1.3	4.3	0.56	52.79	1.9718	400.0227
9492	1509395492	54.5695	-110.4978	824.3	226.3	278.1	1.6	4.2	0.56	53.03	1.9696	400.4430
9493	1509395493	54.5696	-110.4991	822.7	225.5	277.7	1.9	4.8	0.55	53.11	1.9729	400.4430
9494	1509395494	54.5698	-110.5004	822.6	224.6	277.7	1.8	4.4	0.56	53.11	1.9734	400.1610
9495	1509395495	54.5700	-110.5017	822.3	222.5	277.0	1.8	4.6	0.56	53.00	1.9745	399.6343
9496	1509395496	54.5701	-110.5030	821.8	221.4	277.5	1.6	3.7	0.56	52.91	1.9753	399.6343
9497	1509395497	54.5702	-110.5043	822.4	221.4	276.8	1.7	4.3	0.56	52.92	1.9726	399.6720
9498	1509395498	54.5704	-110.5056	822.9	221.6	277.4	1.8	3.5	0.56	52.96	1.9727	398.7000
9499	1509395499	54.5705	-110.5069	823.5	221.5	277.0	2.0	4.3	0.56	52.97	1.9741	401.2018
9500	1509395500	54.5706	-110.5082	824.2	222.2	277.7	2.0	4.1	0.56	52.97	1.9741	401.0258
9501	1509395501	54.5708	-110.5094	825.0	223.1	277.4	2.1	5.1	0.56	52.96	1.9717	400.2708
9502	1509395502	54.5709	-110.5105	826.6	223.6	277.6	2.0	5.1	0.56	52.97	1.9710	399.7622
9503	1509395503	54.5711	-110.5117	826.9	223.9	277.5	1.6	5.3	0.56	52.99	1.9707	400.0572
9504	1509395504	54.5712	-110.5128	826.6	224.6	277.5	1.6	5.1	0.56	52.99	1.9702	400.0755
9505	1509395505	54.5713	-110.5139	826.0	224.0	277.8	1.3	4.7	0.56	52.97	1.9708	400.0755
9506	1509395506	54.5715	-110.5150	826.4	224.4	277.7	0.8	4.9	0.56	52.89	1.9748	399.3640
9507	1509395507	54.5716	-110.5161	827.3	225.6	277.7	0.3	4.7	0.56	52.85	1.9746	399.3640
9508	1509395508	54.5717	-110.5172	828.1	227.3	278.0	0.2	4.4	0.56	52.87	1.9724	400.2761
9509	1509395509	54.5718	-110.5184	828.4	228.9	278.6	0.6	3.9	0.56	52.98	1.9725	399.3553
9510	1509395510	54.5720	-110.5195	828.1	230.1	278.3	0.7	4.5	0.56	53.14	1.9712	401.2376
9511	1509395511	54.5721	-110.5206	827.5	232.5	278.6	0.5	4.3	0.55	53.20	1.9714	400.1856
9512	1509395512	54.5723	-110.5217	826.8	234.6	278.7	0.8	4.0	0.55	53.23	1.9713	399.3191
9513	1509395513	54.5724	-110.5228	826.3	236.3	278.7	0.7	3.7	0.55	53.23	1.9717	400.7146
9514	1509395514	54.5725	-110.5237	826.2	235.3	278.0	0.8	4.4	0.54	53.24	1.9732	401.0264
9515	1509395515	54.5725	-110.5240	826.3	234.4	277.7	0.9	4.7	0.54	53.25	1.9734	400.1689
9516	1509395516	54.5726	-110.5245	826.4	233.3	277.4	1.2	4.9	0.53	53.25	1.9716	400.2042
9517	1509395517	54.5727	-110.5259	826.7	229.8	277.8	1.3	4.1	0.53	53.24	1.9731	400.2042
9518	1509395518	54.5729	-110.5271	826.8	226.8	278.2	1.3	3.7	0.53	53.30	1.9725	402.0968
9519	1509395519	54.5730	-110.5284	827.1	225.2	278.1	1.0	4.0	0.53	53.39	1.9700	400.5567
9520	1509395520	54.5732	-110.5297	827.4	224.4	278.0	0.8	4.3	0.53	53.43	1.9692	400.5162
9521	1509395521	54.5733	-110.5310	827.7	223.7	277.8	0.9	4.3	0.54	53.43	1.9696	400.5162
9522	1509395522	54.5735	-110.5323	827.0	222.0	278.2	0.7	3.7	0.54	53.43	1.9689	400.9609
9523	1509395523	54.5736	-110.5336	826.5	220.5	277.6	0.4	4.5	0.53	53.43	1.9662	399.9241
9524	1509395524	54.5738	-110.5349	826.8	220.8	277.8	0.2	4.3	0.52	53.45	1.9674	401.0227
9525	1509395525	54.5739	-110.5362	826.9	220.9	277.5	0.2	4.7	0.51	53.44	1.9663	400.2129
9526	1509395526	54.5741	-110.5375	827.5	221.4	277.5	0.6	4.7	0.52	53.41	1.9642	400.5521
9527	1509395527	54.5742	-110.5386	828.2	220.1	277.9	0.9	4.4	0.52	53.36	1.9625	400.1365
9528	1509395528	54.5743	-110.5397	829.0	220.5	278.0	0.9	4.1	0.51	53.36	1.9657	399.9971
9529	1509395529	54.5745	-110.5409	830.1	221.1	278.6	0.8	3.5	0.52	53.39	1.9658	400.6601
9530	1509395530	54.5746	-110.5420	831.4	222.4	277.9	1.0	4.6	0.52	53.42	1.9666	400.7175
9531	1509395531	54.5747	-110.5431	832.7	223.7	277.7	0.7	4.8	0.51	53.43	1.9691	400.1919
9532	1509395532	54.5749	-110.5442	833.6	223.6	277.9	0.8	4.6	0.51	53.44	1.9689	400.3164
9533	1509395533	54.5750	-110.5453	834.7	224.7	277.6	0.9	4.9	0.50	53.43	1.9622	400.0215
9534	1509395534	54.5751	-110.5465	835.9	224.9	278.0	0.9	4.4	0.49	53.46	1.9611	399.2000
9535	1509395535	54.5753	-110.5476	836.3	224.3	278.0	1.0	4.4	0.49	53.54	1.9586	400.2329
9536	1509395536	54.5754	-110.5487	836.4	223.4	278.3	1.4	4.1	0.49	53.63	1.9566	399.7688
9537	1509395537	54.5755	-110.5498	837.2	223.2	277.6	1.6	4.8	0.49	53.65	1.9577	401.1221
9538	1509395538	54.5757	-110.5509	838.4	223.4	277.3	1.7	5.0	0.47	53.52	1.9631	407.6699
9539	1509395539	54.5758	-110.5520	839.5	224.5	277.7	1.7	4.5	0.48	53.27	1.9716	410.5655
9540	1509395540	54.5759	-110.5531	840.5	225.5	277.6	1.3	4.5	0.47	53.15	1.9847	442.7742
9541	1509395541	54.5760	-110.5543	841.9	226.9	278.4	0.8	3.2	0.46	53.20	1.9919	481.0434
9542	1509395542	54.5762	-110.5554	843.4	228.4	278.5	0.8	3.3	0.47	53.54	1.9871	485.1306
9543	1509395543	54.5763	-110.5565	844.9	228.9	277.2	0.5	5.2	0.47	54.14	1.9692	438.1100
9544	1509395544	54.5764	-110.5576	846.4	229.4	277.7	0.5	4.7	0.46	54.73	1.9577	407.4293
9545	1509395545	54.5766	-110.5587	847.1	229.5	277.8	0.4	4.5	0.45	55.06	1.9559	403.4281
9546	1509395546	54.5767	-110.5598	846.8	228.8	276.4	1.0	5.9	0.46	54.87	1.9543	403.0053
9547	1509395547	54.5768	-110.5609	845.9	227.9	277.0	1.3	5.2	0.45	54.34	1.9548	401.7249
9548	1509395548	54.5769	-110.5620	845.5	227.5	277.1	1.3	5.0	0.43	53.73	1.9591	400.0622
9549	1509395549	54.5771	-110.5631	845.2	226.2	277.1	1.3	5.1	0.44	53.37	1.9576	400.7907
9550	1509395550	54.5772	-110.5642	845.5	226.5	277.3	1.3	5.1	0.44	53.34	1.9587	400.0635
9551	1509395551	54.5773	-110.5653	846.0	226.3	277.9	0.9	4.9	0.44	53.34	1.9576	401.0326
9552	1509395552	54.5775	-110.5665	846.4	226.4	278.0	1.2	4.9	0.43	53.40	1.9587	400.6182
9553	1509395553	54.5776	-110.5676	847.1	227.8	278.1	1.4	4.7	0.42	53.51	1.9593	400.6182
9554	1509395554	54.5777	-110.5686	848.1	228.1	278.2	1.1	4.7	0.41	53.66	1.9588	400.7550
9555	1509395555	54.5779	-110.5698	849.1	229.1	278.2	0.6	4.6	0.41	53.83	1.9599	400.8402
9556	1509395556	54.5780	-110.5709	849.6	229.6	278.3	0.0	4.3	0.41	54.02	1.9582	400.8402
9557	1509395557	54.5781	-110.5720	850.1	230.1	278.4	-0.4	4.1	0.39	54.21	1.9567	400.6524
9558	1509395558	54.5783	-110.5731	850.7	230.7	278.4	-0.4	4.0	0.39	54.37	1.9536	397.8201
9559	1509395559	54.5784	-110.5742	850.4	230.4	278.0	-0.1	4.2	0.39	54.47	1.9555	396.8327
9560	1509395560	54.5785	-110.5753	849.6	229.6	277.6	0.3	4.5	0.38	54.52	1.9527	400.1061
9561	1509395561	54.5787	-110.5765	849.2	230.2	277.6	0.6	4.6	0.37	54.53	1.9528	401.2057
9562	1509395562	54.5788	-110.5775	849.1	231.1	277.4	0.6	5.3	0.37	54.39	1.9535	399.6896
9563	1509395563	54.5789	-110.5787	849.4	232.6	277.4	0.7	5.5	0.35	54.27	1.9536	400.9384
9564	1509395564	54.5791	-110.5798	849.8	234.0	278.0	0.6	5.0	0.35	54.25	1.9546	401.0387
9565	1509395565	54.5792	-110.5809	849.7	235.4	278.1	0.5	5.1	0.35	54.25	1.9522	401.0563
9566	1509395566	54.5793	-110.5820	849.0	234.7	278.7	0.5	4.6	0.34	54.27	1.9523	400.0873
9567	1509395567	54.5795	-110.5831	848.5	235.5	278.8	0.7	4.5	0.33	54.29	1.9525	400.0873
9568	1509395568	54.5796	-110.5843	848.7	235.7	278.6	0.3	4.5	0.33	54.30	1.9547	399.9365
9569	1509395569	54.5798	-110.5854	848.7	236.1	278.8	0.7	4.1	0.31	54.30	1.9546	401.2022
9570	1509395570	54.5799	-110.5865	848.8	235.1	277.5	0.9	5.2	0.31	54.24	1.9552	401.2022
9571	1509395571	54.5800	-110.5876	849.5	237.1	277.5	1.4	4.7	0.31	54.08	1.9542	400.3884
9572	1509395572	54.5801	-110.5887	850.3	243.3	277.4	1.4	4.7	0.30	53.91	1.9547	399.5416
9573	1509395573	54.5803	-110.5899	850.0	250.7	278.0	1.2	4.0	0.30	53.68	1.9541	400.2448
9574	1509395574	54.5804	-110.5908	849.8	257.2	278.0	1.0	4.2	0.29	53.58	1.9533	401.0516
9575	1509395575	54.5804	-110.5910	850.0	258.6	277.7	0.9	4.5	0.29	53.51	1.9536	401.1241
9576	1509395576	54.5805	-110.5916	850.3	260.4	277.3	0.8	4.7	0.29	53.29	1.9544	401.0910
9577	1509395577	54.5806	-110.5929	850.9	254.9	277.9	0.6	4.0	0.29	53.12	1.9545	401.8599
9578	1509395578	54.5808	-110.5941	851.0	244.5	276.9	0.2	4.9	0.29	53.14	1.9544	400.7346
9579	1509395579	54.5809	-110.5954	850.8	237.0	277.8	0.4	4.1	0.29	53.35	1.9557	400.2918
9580	1509395580	54.5811	-110.5967	849.8	243.4	277.0	1.3	5.0	0.29	53.58	1.9560	400.5290
9581	1509395581	54.5812	-110.5980	848.5	251.5	277.8	1.0	4.2	0.29	53.69	1.9571	400.0965
9582	1509395582	54.5814	-110.5994	845.6	257.3	278.4	1.0	3.5	0.27	53.79	1.9565	401.4894
9583	1509395583	54.5815	-110.6007	841.9	254.7	278.0	1.2	4.2	0.27	53.89	1.9574	400.8717
9584	1509395584	54.5817	-110.6020	840.2	250.8	278.4	1.0	3.7	0.27	54.00	1.9556	400.3116
9585	1509395585	54.5818	-110.6034	839.6	245.0	278.4	0.5	3.9	0.27	54.11	1.9552	401.7168
9586	1509395586	54.5820	-110.6046	839.8	232.8	278.2	0.8	4.0	0.27	54.20	1.9554	401.4974
9587	1509395587	54.5821	-110.6057	839.5	228.2	277.6	1.1	5.0	0.27	54.14	1.9566	399.4423
9588	1509395588	54.5822	-110.6068	838.3	223.7	277.6	1.3	5.1	0.27	53.87	1.9577	400.6272
9589	1509395589	54.5824	-110.6080	836.7	216.6	277.9	1.3	5.1	0.27	53.59	1.9574	400.2734
9590	1509395590	54.5825	-110.6092	835.5	214.2	277.7	1.2	5.5	0.27	53.44	1.9575	400.9205
9591	1509395591	54.5827	-110.6103	834.4	211.4	278.1	0.9	4.9	0.27	53.40	1.9585	400.4398
9592	1509395592	54.5828	-110.6114	833.9	209.9	279.3	0.4	3.9	0.27	53.42	1.9573	398.6881
9593	1509395593	54.5829	-110.6126	834.6	210.6	279.6	0.3	4.1	0.27	53.63	1.9567	399.8414
9594	1509395594	54.5831	-110.6138	836.2	212.2	279.2	0.7	4.9	0.27	53.82	1.9555	400.6316
9595	1509395595	54.5832	-110.6149	838.0	215.0	279.3	0.7	4.7	0.29	53.86	1.9564	400.0474
9596	1509395596	54.5834	-110.6161	840.6	217.6	278.8	0.8	5.0	0.29	53.81	1.9559	400.7703
9597	1509395597	54.5835	-110.6172	843.4	220.4	278.5	0.9	4.8	0.29	53.68	1.9578	401.6521
9598	1509395598	54.5837	-110.6184	845.7	221.7	278.8	0.6	4.4	0.29	53.66	1.9579	400.2020
9599	1509395599	54.5838	-110.6195	847.6	222.6	278.0	0.3	5.3	0.29	53.71	1.9591	399.7627
9600	1509395600	54.5840	-110.6206	849.4	223.4	278.2	0.3	5.0	0.29	53.81	1.9600	399.7627
9601	1509395601	54.5841	-110.6217	851.2	224.3	278.1	1.0	5.0	0.29	53.82	1.9572	400.2551
9602	1509395602	54.5842	-110.6228	853.0	226.0	278.3	1.6	4.3	0.29	53.66	1.9591	400.7016
9603	1509395603	54.5844	-110.6239	854.5	227.5	278.2	2.0	4.1	0.29	53.32	1.9587	400.4790
9604	1509395604	54.5845	-110.6251	855.5	228.5	277.4	1.8	5.3	0.29	53.01	1.9616	399.9997
9605	1509395605	54.5846	-110.6262	856.4	229.4	278.0	1.3	4.8	0.29	52.87	1.9607	400.1000
9606	1509395606	54.5848	-110.6273	856.6	229.6	278.1	1.4	4.9	0.31	52.87	1.9613	400.8874
9607	1509395607	54.5849	-110.6284	856.5	229.5	277.9	1.2	5.0	0.32	52.99	1.9605	400.8604
9608	1509395608	54.5851	-110.6296	855.9	228.9	278.6	1.0	3.9	0.30	53.18	1.9607	400.7915
9609	1509395609	54.5852	-110.6307	855.4	229.4	278.2	0.4	4.6	0.32	53.33	1.9624	401.8207
9610	1509395610	54.5853	-110.6318	854.4	228.4	278.2	0.7	4.4	0.32	53.51	1.9632	400.8502
9611	1509395611	54.5855	-110.6330	853.8	227.8	277.8	0.7	4.9	0.30	53.66	1.9632	399.0968
9612	1509395612	54.5856	-110.6341	852.8	226.8	278.0	1.0	4.4	0.29	53.81	1.9642	401.4974
9613	1509395613	54.5857	-110.6352	851.2	226.2	278.5	0.8	3.8	0.27	53.94	1.9675	401.7488
9614	1509395614	54.5859	-110.6363	850.0	226.9	278.7	0.6	3.4	0.27	54.07	1.9854	400.3687
9615	1509395615	54.5860	-110.6375	848.9	229.2	278.5	0.4	3.5	0.27	54.27	2.0063	399.6438
9616	1509395616	54.5861	-110.6386	848.0	229.0	277.7	-0.2	4.0	0.26	54.47	1.9935	400.6257
9617	1509395617	54.5862	-110.6398	847.2	225.9	277.8	0.0	3.8	0.25	54.67	1.9668	399.7410
9618	1509395618	54.5864	-110.6409	846.3	223.3	277.8	0.0	3.8	0.25	54.78	1.9668	401.1820
9619	1509395619	54.5865	-110.6421	846.5	223.1	277.2	0.1	4.4	0.25	54.79	1.9657	401.2699
9620	1509395620	54.5866	-110.6432	847.0	223.7	277.2	0.4	4.3	0.25	54.77	1.9646	401.1445
9621	1509395621	54.5867	-110.6442	846.6	220.1	277.6	0.6	3.8	0.24	54.67	1.9647	400.7207
9622	1509395622	54.5869	-110.6455	846.6	217.7	277.2	0.7	4.3	0.23	54.61	1.9647	399.9294
9623	1509395623	54.5870	-110.6466	847.2	215.3	277.4	0.8	3.8	0.23	54.55	1.9649	399.9709
9624	1509395624	54.5871	-110.6478	847.6	213.6	277.4	0.5	3.8	0.23	54.47	1.9663	399.9709
9625	1509395625	54.5872	-110.6489	847.6	210.5	276.8	0.4	4.5	0.23	54.42	1.9652	400.1215
9626	1509395626	54.5873	-110.6501	847.8	208.6	276.7	0.5	4.5	0.21	54.40	1.9653	400.1691
9627	1509395627	54.5875	-110.6512	848.3	208.0	276.6	0.6	4.6	0.21	54.37	1.9660	400.1691
9628	1509395628	54.5876	-110.6523	849.8	207.8	276.6	0.7	4.6	0.21	54.34	1.9659	401.3241
9629	1509395629	54.5877	-110.6535	851.7	209.8	276.9	0.7	4.7	0.21	54.31	1.9665	400.8504
9630	1509395630	54.5878	-110.6546	853.8	210.8	276.7	0.8	5.9	0.21	54.30	1.9658	401.0776
9631	1509395631	54.5880	-110.6557	856.1	214.1	278.5	0.5	5.6	0.21	54.39	1.9662	400.8637
9632	1509395632	54.5881	-110.6569	857.8	215.8	280.5	0.6	6.0	0.20	54.62	1.9657	400.8855
9633	1509395633	54.5883	-110.6579	858.8	216.8	284.4	0.6	5.8	0.19	54.78	1.9645	400.3231
9634	1509395634	54.5885	-110.6588	859.9	217.9	289.3	1.0	4.6	0.19	54.84	1.9657	400.8312
9635	1509395635	54.5886	-110.6591	860.4	218.4	290.8	0.9	4.3	0.19	54.89	1.9658	399.8873
9636	1509395636	54.5887	-110.6596	861.2	219.2	293.9	0.7	3.5	0.18	55.01	1.9655	400.1254
9637	1509395637	54.5891	-110.6608	862.3	220.3	299.1	1.0	4.6	0.17	55.09	1.9657	400.8143
9638	1509395638	54.5896	-110.6619	862.2	219.2	306.8	1.5	5.8	0.17	55.09	1.9657	401.8648
9639	1509395639	54.5902	-110.6628	863.4	220.4	318.0	1.2	5.8	0.16	55.04	1.9642	401.8648
9640	1509395640	54.5908	-110.6635	867.4	224.4	328.2	1.8	5.4	0.17	54.99	1.9649	400.7088
9641	1509395641	54.5915	-110.6641	874.0	231.0	338.7	1.7	4.8	0.17	54.98	1.9638	399.9375
9642	1509395642	54.5923	-110.6644	881.6	238.7	347.8	1.6	4.6	0.16	55.01	1.9619	401.3417
9643	1509395643	54.5930	-110.6646	888.9	246.9	354.3	1.8	4.3	0.16	55.05	1.9590	400.2984
9644	1509395644	54.5938	-110.6646	895.7	253.7	358.1	2.9	3.2	0.13	55.08	1.9585	399.3691
9645	1509395645	54.5945	-110.6645	900.5	259.5	1.8	1.9	3.1	0.11	55.09	1.9539	399.6700
9646	1509395646	54.5952	-110.6645	905.4	264.4	3.3	2.9	3.2	0.09	54.93	1.9551	399.5590
9647	1509395647	54.5958	-110.6643	912.3	271.3	4.8	3.2	3.3	0.09	54.65	1.9580	400.6563
9648	1509395648	54.5964	-110.6642	919.5	278.5	5.0	4.2	3.1	0.06	54.33	1.9576	399.6730
9649	1509395649	54.5970	-110.6640	925.0	284.0	6.9	3.1	3.2	0.03	54.03	1.9572	400.4927
9650	1509395650	54.5976	-110.6638	929.4	288.4	7.5	3.4	3.9	0.02	53.89	1.9584	400.9796
9651	1509395651	54.5982	-110.6637	932.6	291.6	6.7	4.5	4.3	0.00	53.91	1.9590	400.5646
9652	1509395652	54.5989	-110.6635	934.6	293.6	7.6	3.8	4.6	-0.02	53.96	1.9602	399.0126
9653	1509395653	54.5995	-110.6633	934.0	292.0	7.8	3.4	4.5	-0.04	53.99	1.9609	400.5500
9654	1509395654	54.6001	-110.6631	932.2	289.2	7.6	2.5	4.7	-0.06	54.00	1.9630	400.8786
9655	1509395655	54.6007	-110.6629	931.4	287.4	5.2	3.2	4.9	-0.09	54.19	1.9622	400.4458
9656	1509395656	54.6013	-110.6628	930.2	285.2	3.4	3.2	5.0	-0.11	54.57	1.9647	400.9966
9657	1509395657	54.6020	-110.6627	928.7	282.7	2.1	2.8	5.1	-0.14	55.04	1.9651	400.8416
9658	1509395658	54.6026	-110.6626	927.7	280.7	0.3	3.7	4.9	-0.19	55.48	1.9645	401.2761
9659	1509395659	54.6032	-110.6626	926.7	279.4	0.2	3.5	4.8	-0.23	55.82	1.9620	401.5796
9660	1509395660	54.6039	-110.6625	926.3	278.3	0.3	3.3	4.5	-0.25	55.94	1.9633	401.5796
9661	1509395661	54.6045	-110.6625	925.7	276.7	0.7	2.8	4.9	-0.27	55.96	1.9644	400.5648
9662	1509395662	54.6052	-110.6624	924.5	275.0	0.1	3.5	5.2	-0.29	55.98	1.9646	401.2053
9663	1509395663	54.6058	-110.6624	923.4	273.5	0.6	3.1	4.8	-0.32	55.96	1.9655	400.4855
9664	1509395664	54.6065	-110.6623	923.2	272.2	0.8	2.9	4.4	-0.34	55.99	1.9640	400.5410
9665	1509395665	54.6071	-110.6622	923.5	272.5	1.2	2.4	4.7	-0.36	56.17	1.9668	402.0066
9666	1509395666	54.6078	-110.6622	924.8	273.8	0.4	3.5	5.0	-0.38	56.38	1.9652	402.0066
9667	1509395667	54.6085	-110.6621	926.4	275.4	-0.4	3.9	4.8	-0.39	56.43	1.9686	400.9623
9668	1509395668	54.6091	-110.6621	927.2	276.5	0.6	3.1	4.7	-0.40	56.42	1.9661	400.6150
9669	1509395669	54.6098	-110.6620	928.6	278.9	-0.4	3.9	5.0	-0.42	56.34	1.9621	399.6588
9670	1509395670	54.6104	-110.6620	930.0	281.0	-0.1	3.7	4.6	-0.44	56.19	1.9624	399.9339
9671	1509395671	54.6111	-110.6619	931.5	282.9	358.6	5.0	4.6	-0.45	55.96	1.9649	400.7770
9672	1509395672	54.6117	-110.6618	932.9	285.3	0.4	3.2	4.5	-0.47	55.71	1.9678	401.7420
9673	1509395673	54.6124	-110.6618	933.9	286.9	0.8	2.9	4.7	-0.47	55.57	1.9693	399.6289
9674	1509395674	54.6131	-110.6617	934.1	288.1	0.7	3.2	4.8	-0.48	55.56	1.9677	400.4227
9675	1509395675	54.6137	-110.6617	934.1	288.1	1.1	2.7	5.0	-0.49	55.67	1.9670	400.7016
9676	1509395676	54.6144	-110.6616	934.5	288.5	1.5	2.4	5.0	-0.50	55.92	1.9645	400.9166
9677	1509395677	54.6150	-110.6615	935.0	288.0	0.8	3.1	4.5	-0.51	56.15	1.9649	399.6712
9678	1509395678	54.6157	-110.6615	935.7	288.6	0.8	2.9	4.7	-0.52	56.28	1.9679	401.8384
9679	1509395679	54.6164	-110.6614	936.1	288.1	0.5	3.0	4.8	-0.53	56.33	1.9678	401.8384
9680	1509395680	54.6170	-110.6614	936.7	288.7	-0.5	3.6	4.9	-0.54	56.34	1.9656	401.3744
9681	1509395681	54.6177	-110.6613	937.5	288.5	-0.3	3.2	4.9	-0.55	56.34	1.9671	401.4670
9682	1509395682	54.6183	-110.6613	938.2	289.2	359.1	3.8	5.0	-0.56	56.36	1.9668	401.4724
9683	1509395683	54.6190	-110.6612	939.1	289.7	358.8	3.6	4.6	-0.56	56.40	1.9674	401.4724
9684	1509395684	54.6197	-110.6612	939.6	289.6	358.8	3.2	4.6	-0.55	56.45	1.9671	399.3853
9685	1509395685	54.6204	-110.6612	940.0	289.0	359.1	2.6	4.7	-0.57	56.59	1.9673	400.6273
9686	1509395686	54.6210	-110.6612	940.1	289.1	358.7	3.4	4.9	-0.58	56.77	1.9671	400.8369
9687	1509395687	54.6217	-110.6611	940.5	289.5	358.2	4.0	5.1	-0.59	56.87	1.9672	400.8369
9688	1509395688	54.6224	-110.6611	941.3	290.3	358.3	3.7	4.7	-0.57	56.89	1.9673	400.8369
9689	1509395689	54.6230	-110.6611	942.1	292.2	358.0	4.1	4.7	-0.57	56.88	1.9674	400.8369
9690	1509395690	54.6237	-110.6611	941.5	291.5	358.5	3.7	4.9	-0.60	56.84	1.9675	400.8369
9691	1509395691	54.6244	-110.6610	940.2	290.2	-0.7	3.4	5.2	-0.60	56.80	1.9676	400.8369
9692	1509395692	54.6251	-110.6610	939.9	290.9	0.4	3.0	5.3	-0.59	56.79	1.9677	400.8369
9693	1509395693	54.6257	-110.6609	940.7	291.7	359.1	4.9	5.0	-0.59	56.78	1.9678	400.3586
9694	1509395694	54.6263	-110.6609	941.5	292.5	358.9	5.2	4.8	-0.60	56.77	1.9676	401.4855
9695	1509395695	54.6263	-110.6609	941.6	292.6	359.0	5.2	4.8	-0.60	56.76	1.9682	400.4777
9696	1509395696	54.6264	-110.6609	941.6	292.6	359.1	5.1	4.8	-0.60	56.76	1.9678	400.1383
9697	1509395697	54.6264	-110.6609	941.7	292.7	359.2	5.0	4.8	-0.60	56.76	1.9669	400.8223
9698	1509395698	54.6265	-110.6608	941.7	292.8	359.3	4.9	4.8	-0.60	56.76	1.9669	400.8223
9699	1509395699	54.6265	-110.6608	941.8	292.9	-0.7	4.9	4.8	-0.60	56.76	1.9662	399.5260
9700	1509395700	54.6266	-110.6608	941.9	292.9	-0.6	4.8	4.8	-0.60	56.75	1.9656	401.0237
9701	1509395701	54.6270	-110.6608	942.3	294.3	-0.4	4.8	4.8	-0.60	56.75	1.9657	400.0063
9702	1509395702	54.6277	-110.6607	943.4	295.4	-0.7	5.3	4.7	-0.60	56.75	1.9664	399.7386
9703	1509395703	54.6285	-110.6606	944.4	296.4	-0.7	5.4	4.2	-0.60	56.75	1.9662	400.4863
9704	1509395704	54.6293	-110.6606	945.1	297.1	359.0	5.9	4.3	-0.60	56.75	1.9659	399.7793
9705	1509395705	54.6301	-110.6605	946.2	298.2	359.2	5.8	4.1	-0.60	56.74	1.9675	400.8972
9706	1509395706	54.6309	-110.6604	947.3	298.2	359.0	6.3	3.8	-0.59	56.74	1.9685	399.9080
9707	1509395707	54.6317	-110.6603	947.6	298.6	0.1	5.9	3.8	-0.59	56.74	1.9707	399.3683
9708	1509395708	54.6325	-110.6602	947.7	298.7	1.0	5.7	4.0	-0.59	56.74	1.9712	399.3683
9709	1509395709	54.6332	-110.6600	947.8	298.8	1.6	5.3	4.1	-0.59	56.74	1.9718	401.2910
9710	1509395710	54.6340	-110.6599	947.9	298.9	0.7	5.5	4.3	-0.59	56.73	1.9752	401.0721
9711	1509395711	54.6348	-110.6598	947.5	298.5	-0.5	6.2	3.9	-0.59	56.73	1.9770	400.8164
9712	1509395712	54.6356	-110.6597	947.0	298.0	358.8	6.2	4.1	-0.59	56.73	1.9792	399.9888
9713	1509395713	54.6364	-110.6596	946.4	296.4	359.1	5.6	3.8	-0.59	56.73	1.9802	400.2755
9714	1509395714	54.6372	-110.6596	945.5	296.5	359.0	5.5	4.1	-0.59	56.73	1.9812	401.2335
9715	1509395715	54.6380	-110.6595	944.5	297.5	358.9	5.4	4.3	-0.59	56.73	1.9818	400.7665
9716	1509395716	54.6388	-110.6594	943.3	298.3	358.6	5.5	4.2	-0.59	56.72	1.9841	400.0837
9717	1509395717	54.6396	-110.6594	942.3	299.2	358.4	5.6	4.3	-0.59	56.72	1.9853	399.2411
9718	1509395718	54.6404	-110.6593	941.3	301.4	358.5	5.5	4.5	-0.59	56.72	1.9855	400.1646
9719	1509395719	54.6412	-110.6592	940.4	302.4	358.6	5.2	4.3	-0.59	56.72	1.9844	400.4271
9720	1509395720	54.6420	-110.6592	939.7	303.7	358.5	5.2	4.0	-0.59	56.72	1.9844	401.2739
9721	1509395721	54.6429	-110.6591	939.0	304.7	358.4	5.3	4.0	-0.59	56.71	1.9854	401.2739
9722	1509395722	54.6437	-110.6591	938.3	304.9	358.6	4.9	3.8	-0.59	56.71	1.9860	399.3801
9723	1509395723	54.6445	-110.6590	937.6	305.3	358.4	5.2	3.8	-0.59	56.71	1.9865	397.9429
9724	1509395724	54.6454	-110.6589	937.1	305.0	358.2	5.3	3.9	-0.58	56.71	1.9879	399.0201
9725	1509395725	54.6462	-110.6589	936.7	305.7	358.3	5.3	4.0	-0.58	56.71	1.9893	401.3002
9726	1509395726	54.6470	-110.6588	936.4	305.4	358.5	5.2	4.1	-0.58	56.70	1.9861	401.3002
9727	1509395727	54.6478	-110.6588	936.1	305.1	358.6	5.1	4.0	-0.58	56.70	1.9826	400.4829
9728	1509395728	54.6487	-110.6587	935.2	304.2	358.5	5.1	3.9	-0.58	56.70	1.9857	401.2219
9729	1509395729	54.6495	-110.6587	932.9	301.9	358.5	5.1	4.1	-0.58	56.70	1.9870	401.4001
9730	1509395730	54.6503	-110.6586	929.2	298.2	358.7	5.0	4.1	-0.58	56.70	1.9860	401.4001
9731	1509395731	54.6511	-110.6585	924.6	293.6	358.8	4.9	4.4	-0.58	56.69	1.9838	400.5121
9732	1509395732	54.6520	-110.6585	919.9	288.9	-0.7	4.2	4.9	-0.58	56.69	1.9819	402.6541
9733	1509395733	54.6528	-110.6584	915.2	283.2	-0.4	3.9	4.9	-0.58	56.69	1.9797	401.1060
9734	1509395734	54.6537	-110.6584	910.4	277.4	-0.2	3.4	5.0	-0.58	56.69	1.9803	400.2521
9735	1509395735	54.6546	-110.6583	906.0	272.0	-0.3	3.6	4.9	-0.58	56.69	1.9816	401.7141
9736	1509395736	54.6554	-110.6583	901.7	266.7	-0.4	3.6	4.9	-0.58	56.69	1.9825	401.3815
9737	1509395737	54.6563	-110.6582	897.9	262.9	0.2	2.8	4.9	-0.58	56.68	1.9816	400.9506
9738	1509395738	54.6571	-110.6581	895.6	259.6	0.8	1.8	4.7	-0.58	56.68	1.9818	402.0711
9739	1509395739	54.6580	-110.6581	894.8	257.8	0.0	2.3	5.1	-0.58	56.68	1.9805	400.9958
9740	1509395740	54.6589	-110.6581	895.5	257.4	-0.1	2.3	4.9	-0.58	56.68	1.9801	399.7631
9741	1509395741	54.6596	-110.6580	896.5	258.5	359.2	3.0	5.3	-0.58	56.68	1.9811	399.7631
9742	1509395742	54.6604	-110.6580	897.2	258.2	359.1	3.1	5.1	-0.57	56.67	1.9808	400.9611
9743	1509395743	54.6612	-110.6580	897.8	258.8	-0.5	2.6	4.9	-0.57	56.67	1.9823	401.6957
9744	1509395744	54.6619	-110.6579	898.3	258.3	359.2	3.0	5.3	-0.57	56.67	1.9846	402.3313
9745	1509395745	54.6626	-110.6579	898.6	258.6	-0.5	2.5	5.3	-0.57	56.67	1.9828	400.8355
9746	1509395746	54.6634	-110.6579	898.8	257.8	359.2	2.7	5.2	-0.57	56.67	1.9838	400.8355
9747	1509395747	54.6641	-110.6579	899.0	258.0	359.2	2.7	5.1	-0.57	56.66	1.9849	400.8355
9748	1509395748	54.6649	-110.6578	899.1	257.1	359.1	2.8	5.0	-0.57	56.66	1.9822	403.0163
9749	1509395749	54.6656	-110.6578	899.1	257.1	-0.4	2.3	4.9	-0.57	56.66	1.9810	400.9023
9750	1509395750	54.6663	-110.6578	899.3	257.3	359.2	3.0	4.8	-0.57	56.66	1.9820	400.3426
9751	1509395751	54.6671	-110.6578	899.7	258.7	359.1	3.1	4.7	-0.57	56.66	1.9823	401.8818
9752	1509395752	54.6679	-110.6577	900.3	259.3	359.1	3.4	4.5	-0.57	56.65	1.9832	401.0969
9753	1509395753	54.6686	-110.6577	901.0	261.0	359.3	3.1	4.7	-0.57	56.65	1.9832	401.7816
9754	1509395754	54.6692	-110.6577	901.8	261.8	-0.4	3.0	4.9	-0.57	56.65	1.9832	402.1893
9755	1509395755	54.6694	-110.6576	902.2	262.2	-0.5	3.2	4.9	-0.57	56.65	1.9834	401.4180
9756	1509395756	54.6698	-110.6576	903.0	264.0	-0.5	3.2	5.0	-0.57	56.65	1.9835	399.8574
9757	1509395757	54.6706	-110.6576	904.7	266.0	0.0	3.1	4.8	-0.57	56.64	1.9804	401.3929
9758	1509395758	54.6715	-110.6575	906.5	268.5	0.5	2.3	4.6	-0.57	56.64	1.9788	399.9843
9759	1509395759	54.6723	-110.6575	908.2	270.2	0.5	2.2	4.6	-0.57	56.64	1.9768	399.9843
9760	1509395760	54.6732	-110.6574	909.6	271.6	0.0	3.1	4.8	-0.56	56.64	1.9843	400.8377
9761	1509395761	54.6740	-110.6574	911.2	273.1	359.3	4.1	5.2	-0.56	56.64	1.9837	401.7739
9762	1509395762	54.6748	-110.6573	912.6	273.3	0.6	2.7	5.3	-0.56	56.64	1.9870	401.8278
9763	1509395763	54.6757	-110.6572	913.5	272.5	0.8	3.0	5.0	-0.56	56.63	1.9888	401.7960
9764	1509395764	54.6765	-110.6572	914.5	272.2	0.8	2.9	4.6	-0.56	56.63	1.9871	401.0686
9765	1509395765	54.6773	-110.6571	915.4	271.4	0.7	2.7	4.7	-0.56	56.63	1.9875	401.6997
9766	1509395766	54.6781	-110.6570	916.3	272.0	0.4	3.2	4.7	-0.56	56.63	1.9870	402.3583
9767	1509395767	54.6788	-110.6570	917.3	272.3	0.2	3.5	4.3	-0.56	56.63	1.9839	400.9870
9768	1509395768	54.6795	-110.6569	918.6	273.6	-0.1	4.5	4.7	-0.56	56.62	1.9846	400.8525
9769	1509395769	54.6802	-110.6569	920.2	275.2	-0.4	5.0	5.0	-0.56	56.62	1.9888	401.0215
9770	1509395770	54.6810	-110.6568	921.7	276.7	0.9	4.1	5.0	-0.56	56.62	1.9911	401.5948
9771	1509395771	54.6817	-110.6567	922.8	277.8	0.9	4.0	5.3	-0.56	56.62	1.9887	401.8342
9772	1509395772	54.6824	-110.6566	923.4	278.4	1.7	3.3	5.2	-0.56	56.62	1.9827	401.1900
9773	1509395773	54.6831	-110.6565	923.5	278.5	0.4	4.8	5.1	-0.56	56.61	1.9843	402.0803
9774	1509395774	54.6838	-110.6564	923.3	279.3	0.5	5.1	4.8	-0.56	56.61	1.9885	401.8432
9775	1509395775	54.6845	-110.6563	922.9	279.9	0.3	5.6	4.9	-0.56	56.61	1.9877	401.8462
9776	1509395776	54.6852	-110.6563	922.4	281.1	1.3	4.9	4.9	-0.56	56.61	1.9832	401.4469
9777	1509395777	54.6860	-110.6561	922.0	281.7	1.2	5.4	4.9	-0.56	56.61	1.9846	402.5050
9778	1509395778	54.6867	-110.6560	921.8	282.8	1.2	5.3	4.5	-0.55	56.60	1.9842	401.1540
9779	1509395779	54.6874	-110.6559	921.5	283.5	1.0	5.4	4.6	-0.55	56.60	1.9824	402.1162
9780	1509395780	54.6881	-110.6558	921.5	284.5	1.3	5.2	5.1	-0.55	56.60	1.9804	401.6084
9781	1509395781	54.6888	-110.6557	921.5	284.5	1.5	5.2	4.7	-0.55	56.60	1.9678	402.7999
9782	1509395782	54.6895	-110.6556	921.4	285.4	1.4	5.4	4.6	-0.55	56.60	1.9684	401.7631
9783	1509395783	54.6903	-110.6555	921.5	285.5	1.0	5.8	4.6	-0.55	56.60	1.9866	402.3689
9784	1509395784	54.6910	-110.6554	921.8	284.8	0.8	5.7	4.6	-0.55	56.59	1.9906	403.2893
9785	1509395785	54.6917	-110.6553	922.2	285.2	1.3	5.1	5.2	-0.55	56.59	1.9927	403.4102
9786	1509395786	54.6924	-110.6552	922.4	285.4	1.5	4.7	5.3	-0.55	56.59	1.9897	402.6022
9787	1509395787	54.6932	-110.6551	922.5	285.5	1.4	4.6	4.8	-0.55	56.59	1.9893	402.2077
9788	1509395788	54.6939	-110.6550	921.9	284.9	1.0	4.8	4.9	-0.55	56.59	1.9948	402.3776
9789	1509395789	54.6946	-110.6549	921.0	284.0	1.0	4.7	5.0	-0.55	56.58	1.9946	402.5943
9790	1509395790	54.6953	-110.6548	919.8	283.8	1.2	4.3	5.2	-0.55	56.58	1.9916	402.5461
9791	1509395791	54.6960	-110.6547	918.2	282.2	1.2	4.2	5.4	-0.55	56.58	1.9941	403.1581
9792	1509395792	54.6968	-110.6546	916.5	280.5	0.8	4.4	5.2	-0.55	56.58	1.9927	401.9468
9793	1509395793	54.6975	-110.6545	915.0	278.3	1.0	3.9	4.9	-0.55	56.58	1.9915	402.9626
9794	1509395794	54.6982	-110.6545	913.6	276.6	0.8	4.1	4.9	-0.55	56.57	1.9884	402.5603
9795	1509395795	54.6990	-110.6544	912.5	275.5	0.4	4.3	5.0	-0.55	56.57	1.9918	402.6762
9796	1509395796	54.6997	-110.6543	911.5	274.5	0.8	3.7	5.1	-0.54	56.57	1.9931	402.6755
9797	1509395797	54.7004	-110.6542	911.1	274.1	0.5	4.0	5.1	-0.54	56.57	1.9889	402.0037
9798	1509395798	54.7012	-110.6542	910.9	273.9	0.5	3.7	4.7	-0.54	56.57	1.9931	402.9202
9799	1509395799	54.7019	-110.6541	911.1	273.6	0.0	3.9	4.5	-0.54	56.56	1.9892	402.9202
9800	1509395800	54.7026	-110.6540	911.6	272.7	0.0	3.6	4.7	-0.54	56.56	1.9916	401.3486
9801	1509395801	54.7033	-110.6540	912.1	271.2	-0.2	3.6	4.8	-0.54	56.56	1.9868	401.4600
9802	1509395802	54.7041	-110.6539	912.9	270.9	-0.4	3.6	4.7	-0.54	56.56	1.9826	402.2931
9803	1509395803	54.7048	-110.6539	913.8	270.8	-0.6	4.0	4.9	-0.54	56.56	1.9828	402.2931
9804	1509395804	54.7055	-110.6538	914.7	271.7	359.0	4.2	4.8	-0.54	56.55	1.9885	403.1069
9805	1509395805	54.7063	-110.6538	915.7	273.7	359.2	4.1	4.6	-0.54	56.55	1.9900	402.4536
9806	1509395806	54.7070	-110.6537	916.8	275.8	359.1	4.1	4.8	-0.54	56.55	1.9885	402.3889
9807	1509395807	54.7077	-110.6537	917.4	277.1	-0.4	3.5	4.6	-0.54	56.55	1.9870	402.3241
9808	1509395808	54.7084	-110.6537	917.8	278.8	359.1	4.0	4.6	-0.54	56.55	1.9862	402.1636
9809	1509395809	54.7092	-110.6536	917.8	278.8	358.5	4.6	4.7	-0.54	56.55	1.9923	402.7479
9810	1509395810	54.7099	-110.6536	917.7	279.6	358.6	4.3	4.7	-0.54	56.54	1.9921	403.3384
9811	1509395811	54.7106	-110.6535	917.3	279.6	358.9	3.9	4.9	-0.54	56.54	1.9883	402.1326
9812	1509395812	54.7113	-110.6535	917.0	280.1	358.8	3.9	5.2	-0.54	56.54	1.9839	401.8536
9813	1509395813	54.7121	-110.6535	916.7	279.7	358.3	4.4	4.8	-0.54	56.54	1.9798	402.2101
9814	1509395814	54.7126	-110.6534	916.7	280.6	358.0	4.8	4.8	-0.53	56.54	1.9757	402.2073
9815	1509395815	54.7128	-110.6534	916.8	281.8	358.0	4.8	4.7	-0.53	56.53	1.9735	401.9149
9816	1509395816	54.7132	-110.6534	916.8	282.1	358.1	4.8	4.6	-0.53	56.53	1.9627	401.8312
9817	1509395817	54.7140	-110.6534	917.0	284.3	358.0	5.0	4.2	-0.53	56.53	1.9563	400.7800
9818	1509395818	54.7149	-110.6533	917.3	286.3	357.9	5.3	4.2	-0.53	56.53	1.9558	400.4824
9819	1509395819	54.7157	-110.6533	917.9	287.9	357.6	5.7	4.1	-0.53	56.53	1.9598	400.5139
9820	1509395820	54.7166	-110.6532	918.7	288.7	357.8	5.8	4.0	-0.53	56.52	1.9678	402.0085
9821	1509395821	54.7174	-110.6532	919.9	289.9	357.7	6.0	3.7	-0.53	56.52	1.9655	401.9142
9822	1509395822	54.7182	-110.6531	921.3	291.3	358.3	5.5	4.1	-0.53	56.52	1.9654	401.9142
9823	1509395823	54.7191	-110.6531	922.4	292.4	358.2	5.8	4.4	-0.53	56.52	1.9626	401.0228
9824	1509395824	54.7199	-110.6530	922.8	292.8	358.8	5.3	4.0	-0.53	56.52	1.9611	401.1808
9825	1509395825	54.7206	-110.6529	922.9	292.9	358.6	5.7	4.0	-0.53	56.51	1.9632	400.9072
9826	1509395826	54.7214	-110.6529	923.0	293.0	358.8	5.5	4.0	-0.53	56.51	1.9685	401.9216
9827	1509395827	54.7221	-110.6528	922.9	292.9	359.2	5.2	4.4	-0.53	56.51	1.9750	401.1727
9828	1509395828	54.7229	-110.6527	922.6	292.6	359.2	5.3	4.6	-0.53	56.51	1.9770	401.5514
9829	1509395829	54.7236	-110.6527	922.3	292.3	-0.7	5.2	4.7	-0.53	56.51	1.9794	401.3836
9830	1509395830	54.7243	-110.6526	921.7	290.9	-0.4	4.9	4.8	-0.53	56.51	1.9821	401.4821
9831	1509395831	54.7250	-110.6525	920.9	286.9	-0.3	4.9	4.9	-0.53	56.50	1.9791	401.4821
9832	1509395832	54.7257	-110.6525	919.6	282.8	-0.1	4.7	4.7	-0.52	56.50	1.9781	401.3893
9833	1509395833	54.7265	-110.6524	918.0	281.6	0.1	4.6	4.7	-0.52	56.50	1.9796	400.9388
9834	1509395834	54.7272	-110.6523	916.4	282.7	0.2	4.5	4.6	-0.52	56.50	1.9810	401.6584
9835	1509395835	54.7279	-110.6522	914.9	284.9	0.1	4.6	4.6	-0.52	56.50	1.9801	401.7327
9836	1509395836	54.7286	-110.6522	913.7	283.7	0.2	4.6	4.7	-0.52	56.49	1.9821	401.8861
9837	1509395837	54.7294	-110.6521	912.4	282.4	0.4	4.3	4.8	-0.52	56.49	1.9829	401.8702
9838	1509395838	54.7301	-110.6520	911.2	281.2	0.8	3.8	4.6	-0.52	56.49	1.9849	402.5603
9839	1509395839	54.7309	-110.6519	910.4	280.4	0.5	4.2	4.4	-0.52	56.49	1.9863	400.7760
9840	1509395840	54.7316	-110.6519	909.9	279.9	0.4	4.1	4.5	-0.52	56.49	1.9861	401.8116
9841	1509395841	54.7323	-110.6518	909.4	279.4	0.3	4.3	4.5	-0.52	56.48	1.9845	401.9265
9842	1509395842	54.7330	-110.6517	909.1	279.1	0.2	4.4	4.5	-0.52	56.48	1.9882	402.0136
9843	1509395843	54.7338	-110.6517	909.0	279.0	0.1	4.5	4.5	-0.52	56.48	1.9919	401.1676
9844	1509395844	54.7345	-110.6516	909.1	279.1	0.3	4.2	4.4	-0.52	56.48	1.9881	403.3732
9845	1509395845	54.7352	-110.6515	909.3	279.3	0.5	3.9	4.4	-0.52	56.48	1.9883	402.9210
9846	1509395846	54.7360	-110.6514	909.7	279.7	0.0	4.4	4.2	-0.52	56.47	1.9953	402.3327
9847	1509395847	54.7367	-110.6514	910.3	280.3	-0.1	4.4	4.3	-0.52	56.47	2.0012	402.1997
9848	1509395848	54.7374	-110.6513	910.9	280.9	0.3	3.8	4.8	-0.52	56.47	2.0041	402.6046
9849	1509395849	54.7381	-110.6512	911.4	276.0	0.7	3.2	5.0	-0.52	56.47	2.0067	401.4851
9850	1509395850	54.7389	-110.6512	911.8	274.8	0.6	3.0	5.0	-0.51	56.47	2.0016	402.5275
9851	1509395851	54.7396	-110.6511	912.1	273.1	0.3	3.1	5.0	-0.51	56.46	2.0010	404.6853
9852	1509395852	54.7403	-110.6511	912.3	269.9	-0.5	3.8	4.9	-0.51	56.46	1.9990	402.6144
9853	1509395853	54.7410	-110.6510	912.4	268.5	-0.6	3.8	4.9	-0.51	56.46	1.9991	403.3200
9854	1509395854	54.7418	-110.6510	912.4	264.5	359.2	4.0	4.8	-0.51	56.46	2.0000	403.0710
9855	1509395855	54.7425	-110.6509	912.1	263.5	359.0	4.2	4.9	-0.51	56.46	2.0020	403.4244
9856	1509395856	54.7432	-110.6509	911.6	262.7	359.1	4.0	4.9	-0.51	56.46	2.0020	403.9960
9857	1509395857	54.7440	-110.6508	911.0	261.8	-0.4	3.2	4.5	-0.51	56.45	2.0030	404.4582
9858	1509395858	54.7447	-110.6508	910.5	260.9	-0.4	3.1	4.5	-0.51	56.45	2.0026	404.2520
9859	1509395859	54.7454	-110.6508	910.1	262.0	359.0	3.6	5.0	-0.51	56.45	2.0012	403.2966
9860	1509395860	54.7461	-110.6507	909.8	262.8	359.1	3.3	5.1	-0.51	56.45	2.0028	404.1495
9861	1509395861	54.7469	-110.6507	909.7	262.9	358.7	3.8	5.1	-0.51	56.45	2.0059	404.5190
9862	1509395862	54.7476	-110.6507	910.0	263.4	358.2	4.2	5.1	-0.51	56.44	2.0096	403.3781
9863	1509395863	54.7483	-110.6506	910.9	264.3	358.4	4.0	4.8	-0.51	56.44	2.0090	404.0934
9864	1509395864	54.7490	-110.6506	914.0	268.8	358.9	3.6	4.8	-0.51	56.44	2.0089	404.0817
9865	1509395865	54.7498	-110.6506	917.2	271.3	-0.7	3.4	4.6	-0.51	56.44	2.0071	402.9314
9866	1509395866	54.7505	-110.6505	920.1	273.8	-0.3	3.8	4.6	-0.51	56.44	2.0089	403.4104
9867	1509395867	54.7512	-110.6505	923.0	274.6	0.3	5.0	4.6	-0.51	56.43	2.0089	404.2892
9868	1509395868	54.7519	-110.6503	925.8	276.4	4.3	4.8	4.6	-0.50	56.43	2.0018	403.1566
9869	1509395869	54.7526	-110.6501	929.2	278.6	8.7	5.7	4.3	-0.50	56.43	1.9996	404.0630
9870	1509395870	54.7533	-110.6498	932.4	281.6	15.4	4.8	4.0	-0.50	56.43	2.0069	403.5875
9871	1509395871	54.7539	-110.6494	936.0	285.8	22.9	4.7	3.5	-0.50	56.43	2.0031	404.2523
9872	1509395872	54.7546	-110.6488	939.4	288.3	29.7	4.3	3.6	-0.50	56.42	2.0049	404.2401
9873	1509395873	54.7551	-110.6481	942.5	291.4	37.5	4.4	3.8	-0.50	56.42	2.0104	404.2401
9874	1509395874	54.7556	-110.6475	945.2	294.3	42.7	4.9	3.6	-0.50	56.42	2.0076	404.6910
9875	1509395875	54.7557	-110.6473	945.9	293.9	44.4	5.0	3.7	-0.50	56.42	2.0044	405.1323
9876	1509395876	54.7559	-110.6468	947.1	295.1	47.6	5.0	3.7	-0.50	56.42	1.9989	403.7557
9877	1509395877	54.7564	-110.6457	947.9	295.9	54.2	5.1	3.4	-0.50	56.42	1.9965	402.6647
9878	1509395878	54.7568	-110.6446	945.5	293.5	61.4	5.2	3.5	-0.50	56.41	1.9963	404.1823
9879	1509395879	54.7572	-110.6434	942.5	290.5	69.3	5.2	3.4	-0.50	56.41	1.9983	404.3617
9880	1509395880	54.7574	-110.6421	939.5	286.5	76.8	5.1	2.7	-0.50	56.41	1.9951	404.2250
9881	1509395881	54.7576	-110.6407	936.7	282.7	85.1	4.8	3.4	-0.50	56.41	1.9915	403.1543
9882	1509395882	54.7576	-110.6394	934.7	280.7	91.5	4.9	4.3	-0.50	56.41	1.9913	404.1718
9883	1509395883	54.7576	-110.6380	932.8	277.8	94.5	4.8	4.7	-0.50	56.40	1.9895	403.7316
9884	1509395884	54.7576	-110.6367	930.4	274.5	95.0	4.7	4.4	-0.50	56.40	1.9821	403.1695
9885	1509395885	54.7576	-110.6353	928.8	272.8	94.4	5.0	4.7	-0.50	56.40	1.9742	402.5787
9886	1509395886	54.7576	-110.6339	928.4	271.9	93.1	5.2	4.5	-0.49	56.40	1.9759	400.8440
9887	1509395887	54.7576	-110.6327	927.0	270.0	91.8	5.4	3.8	-0.49	56.40	1.9724	401.8586
9888	1509395888	54.7576	-110.6314	925.6	268.9	91.2	5.5	3.3	-0.49	56.39	1.9760	402.4051
9889	1509395889	54.7576	-110.6302	923.5	266.8	92.4	5.4	4.0	-0.49	56.39	1.9814	402.4033
9890	1509395890	54.7576	-110.6290	921.6	264.9	93.5	5.5	3.6	-0.49	56.39	1.9671	402.1883
9891	1509395891	54.7576	-110.6278	921.6	264.9	95.5	5.1	4.3	-0.49	56.39	1.9630	401.3358
9892	1509395892	54.7576	-110.6266	922.7	265.8	96.7	5.6	4.7	-0.49	56.39	1.9658	401.4677
9893	1509395893	54.7575	-110.6254	923.6	266.6	96.4	6.0	4.3	-0.49	56.38	1.9649	401.4871
9894	1509395894	54.7575	-110.6242	924.0	266.6	95.9	6.0	4.4	-0.49	56.38	1.9625	401.5777
9895	1509395895	54.7575	-110.6229	924.2	266.2	95.0	6.0	4.3	-0.49	56.38	1.9588	401.2383
9896	1509395896	54.7575	-110.6217	923.9	264.9	93.8	5.6	4.1	-0.49	56.38	1.9568	400.3698
9897	1509395897	54.7575	-110.6205	923.7	264.7	92.5	6.1	3.4	-0.49	56.38	1.9630	402.1610
9898	1509395898	54.7575	-110.6193	924.0	265.0	92.3	5.7	3.5	-0.49	56.38	1.9628	401.7507
9899	1509395899	54.7575	-110.6180	924.4	265.4	92.8	5.7	3.9	-0.49	56.37	1.9626	401.5727
9900	1509395900	54.7575	-110.6168	925.2	266.2	92.9	5.6	3.9	-0.49	56.37	1.9636	401.7836
9901	1509395901	54.7575	-110.6156	928.6	269.6	92.9	5.1	3.9	-0.49	56.37	1.9568	402.3407
9902	1509395902	54.7575	-110.6144	932.2	272.2	92.8	5.1	3.9	-0.49	56.37	1.9524	401.6963
9903	1509395903	54.7575	-110.6131	935.9	275.0	92.4	5.3	3.3	-0.49	56.37	1.9493	401.3249
9904	1509395904	54.7575	-110.6120	939.9	277.9	92.5	5.8	3.2	-0.48	56.36	1.9467	400.9642
9905	1509395905	54.7575	-110.6108	944.1	282.1	92.8	5.7	3.3	-0.48	56.36	1.9462	400.3339
9906	1509395906	54.7575	-110.6096	947.1	284.1	93.0	5.9	3.6	-0.48	56.36	1.9531	401.0179
9907	1509395907	54.7575	-110.6084	948.3	284.3	93.0	6.2	3.5	-0.48	56.36	1.9728	402.7054
9908	1509395908	54.7575	-110.6072	948.4	284.4	92.9	6.0	3.5	-0.48	56.36	1.9879	401.8575
9909	1509395909	54.7575	-110.6060	947.8	283.8	93.1	5.1	4.0	-0.48	56.35	1.9917	401.8020
9910	1509395910	54.7575	-110.6048	947.6	283.6	93.1	4.3	4.1	-0.48	56.35	1.9959	401.6486
9911	1509395911	54.7575	-110.6036	948.6	283.8	93.2	3.8	4.5	-0.48	56.35	1.9925	401.8101
9912	1509395912	54.7575	-110.6024	949.5	284.5	93.5	3.5	4.8	-0.48	56.35	1.9896	402.0563
9913	1509395913	54.7575	-110.6012	950.4	284.4	92.6	3.5	4.2	-0.48	56.35	1.9860	401.9280
9914	1509395914	54.7575	-110.6000	951.0	284.0	92.6	3.2	4.5	-0.48	56.34	1.9841	403.3163
9915	1509395915	54.7575	-110.5988	951.6	281.9	92.1	3.2	4.4	-0.48	56.34	1.9848	402.5869
9916	1509395916	54.7575	-110.5976	952.1	281.0	92.0	3.5	4.5	-0.48	56.34	1.9845	402.6200
9917	1509395917	54.7576	-110.5964	952.5	281.5	91.3	3.7	4.0	-0.48	56.34	1.9839	401.7977
9918	1509395918	54.7576	-110.5952	952.6	281.6	91.9	4.2	4.7	-0.48	56.34	1.9758	403.0254
9919	1509395919	54.7576	-110.5940	952.3	282.3	91.3	4.6	3.5	-0.48	56.33	1.9713	403.0254
9920	1509395920	54.7576	-110.5928	951.4	280.8	91.9	5.0	3.9	-0.48	56.33	1.9711	403.3800
9921	1509395921	54.7576	-110.5916	950.1	279.0	92.1	5.5	4.0	-0.48	56.33	1.9762	403.5322
9922	1509395922	54.7576	-110.5904	948.9	276.9	91.7	5.6	3.6	-0.47	56.33	1.9796	402.8966
9923	1509395923	54.7576	-110.5891	947.7	273.6	91.9	5.4	4.0	-0.47	56.33	1.9803	402.4153
9924	1509395924	54.7577	-110.5879	946.6	272.6	92.3	5.1	4.3	-0.47	56.33	1.9820	401.8183
9925	1509395925	54.7577	-110.5867	945.6	271.6	92.2	4.8	4.4	-0.47	56.32	1.9814	401.8183
9926	1509395926	54.7577	-110.5855	944.7	271.8	92.2	5.0	4.4	-0.47	56.32	1.9789	403.2231
9927	1509395927	54.7577	-110.5843	943.9	269.9	91.7	5.1	4.0	-0.47	56.32	1.9784	403.2231
9928	1509395928	54.7577	-110.5831	943.4	269.4	91.7	5.1	3.9	-0.47	56.32	1.9782	401.3785
9929	1509395929	54.7577	-110.5818	943.1	269.1	91.8	4.7	3.7	-0.47	56.32	1.9737	401.3686
9930	1509395930	54.7577	-110.5806	943.2	269.2	92.2	4.8	4.1	-0.47	56.31	1.9714	401.6513
9931	1509395931	54.7578	-110.5794	943.4	269.4	92.0	4.8	4.1	-0.47	56.31	1.9663	401.3317
9932	1509395932	54.7578	-110.5781	943.6	269.6	91.5	5.3	3.6	-0.47	56.31	1.9572	401.8620
9933	1509395933	54.7578	-110.5769	943.6	269.6	91.6	5.9	3.5	-0.47	56.31	1.9545	401.6498
9934	1509395934	54.7578	-110.5759	943.6	268.6	91.7	5.8	3.6	-0.47	56.31	1.9556	401.6926
9935	1509395935	54.7578	-110.5756	943.5	268.5	91.8	5.5	3.6	-0.47	56.30	1.9740	400.9418
9936	1509395936	54.7578	-110.5750	943.4	268.4	91.8	5.3	3.6	-0.47	56.30	1.9837	401.0912
9937	1509395937	54.7578	-110.5736	943.1	268.1	91.9	5.2	3.6	-0.47	56.30	1.9879	400.8232
9938	1509395938	54.7578	-110.5722	943.0	268.0	92.2	4.5	3.7	-0.47	56.30	1.9848	400.9885
9939	1509395939	54.7578	-110.5707	943.3	268.3	92.5	4.1	4.0	-0.47	56.30	1.9803	401.6284
9940	1509395940	54.7578	-110.5693	944.7	270.0	92.8	4.3	4.3	-0.46	56.29	1.9778	400.0705
9941	1509395941	54.7578	-110.5679	947.3	273.3	92.3	4.1	3.9	-0.46	56.29	1.9739	400.8942
9942	1509395942	54.7579	-110.5665	950.5	276.5	92.4	4.1	4.1	-0.46	56.29	1.9609	401.2441
9943	1509395943	54.7579	-110.5651	953.5	279.5	93.1	4.8	4.8	-0.46	56.29	1.9646	401.4206
9944	1509395944	54.7579	-110.5637	956.1	282.1	92.0	4.7	3.5	-0.46	56.29	1.9786	401.0484
9945	1509395945	54.7579	-110.5623	957.7	283.7	91.7	4.6	3.3	-0.46	56.29	1.9856	400.6403
9946	1509395946	54.7579	-110.5610	958.8	284.8	92.2	4.6	4.0	-0.46	56.28	1.9815	402.1227
9947	1509395947	54.7579	-110.5598	959.5	284.5	92.4	4.3	4.0	-0.46	56.28	1.9799	402.2285
9948	1509395948	54.7579	-110.5586	960.2	284.2	92.6	4.5	4.2	-0.46	56.28	1.9796	400.8155
9949	1509395949	54.7579	-110.5574	960.1	284.1	92.2	4.8	3.7	-0.46	56.28	1.9772	401.7849
9950	1509395950	54.7579	-110.5562	959.6	282.6	92.8	4.6	4.5	-0.46	56.28	1.9629	400.8168
9951	1509395951	54.7579	-110.5549	958.5	280.5	92.6	4.8	4.3	-0.46	56.27	1.9564	400.1608
9952	1509395952	54.7579	-110.5537	957.0	279.0	92.1	5.5	3.6	-0.46	56.27	1.9582	399.0144
9953	1509395953	54.7580	-110.5525	955.4	277.7	91.3	6.0	3.1	-0.46	56.27	1.9688	400.9894
9954	1509395954	54.7580	-110.5513	953.7	275.7	92.3	6.0	3.9	-0.46	56.27	1.9776	401.2493
9955	1509395955	54.7580	-110.5500	952.6	273.6	92.2	5.7	3.7	-0.46	56.27	1.9791	401.2047
9956	1509395956	54.7580	-110.5488	952.0	274.0	92.4	5.3	3.9	-0.46	56.26	1.9791	401.5070
9957	1509395957	54.7580	-110.5476	951.9	273.9	91.9	4.8	3.3	-0.46	56.26	1.9753	400.0100
9958	1509395958	54.7580	-110.5464	952.0	274.0	92.2	4.5	3.6	-0.45	56.26	1.9756	401.0188
9959	1509395959	54.7580	-110.5451	952.5	274.5	92.4	4.5	3.7	-0.45	56.26	1.9781	401.5736
9960	1509395960	54.7580	-110.5439	953.2	275.2	92.3	4.7	3.7	-0.45	56.26	1.9824	400.7165
9961	1509395961	54.7580	-110.5426	953.7	276.5	92.4	4.9	3.8	-0.45	56.25	1.9832	401.3596
9962	1509395962	54.7580	-110.5415	954.2	276.2	92.6	4.5	4.0	-0.45	56.25	1.9827	401.5550
9963	1509395963	54.7580	-110.5402	954.8	276.8	92.7	4.4	4.1	-0.45	56.25	1.9819	400.3725
9964	1509395964	54.7580	-110.5390	955.4	277.4	93.0	4.4	4.4	-0.45	56.25	1.9806	400.3725
9965	1509395965	54.7580	-110.5378	956.1	278.1	92.9	4.3	4.4	-0.45	56.25	1.9853	402.1196
9966	1509395966	54.7580	-110.5365	956.7	278.7	92.8	4.2	4.3	-0.45	56.24	1.9903	402.1994
9967	1509395967	54.7580	-110.5353	957.3	279.3	93.2	3.7	4.8	-0.45	56.24	1.9890	402.2368
9968	1509395968	54.7581	-110.5340	958.5	280.5	92.4	3.1	3.9	-0.45	56.24	1.9843	400.3351
9969	1509395969	54.7581	-110.5328	959.3	280.3	93.0	3.0	4.5	-0.45	56.24	1.9889	401.8458
9970	1509395970	54.7581	-110.5316	960.1	279.9	92.2	3.3	3.5	-0.45	56.24	1.9927	403.1061
9971	1509395971	54.7581	-110.5304	960.8	280.8	92.7	3.2	3.9	-0.45	56.24	1.9927	403.0700
9972	1509395972	54.7581	-110.5291	961.9	280.9	92.1	2.6	3.1	-0.45	56.23	1.9924	402.6913
9973	1509395973	54.7581	-110.5279	963.0	282.0	92.2	2.4	3.2	-0.45	56.23	1.9912	402.0710
9974	1509395974	54.7581	-110.5267	964.4	282.4	93.0	2.9	4.0	-0.45	56.23	1.9896	400.3001
9975	1509395975	54.7581	-110.5255	965.4	283.4	93.2	2.8	4.2	-0.45	56.23	1.9869	402.8397
9976	1509395976	54.7581	-110.5243	966.2	284.1	92.6	2.7	3.7	-0.44	56.23	1.9836	400.8134
9977	1509395977	54.7581	-110.5231	966.2	284.1	92.9	3.8	4.0	-0.44	56.22	1.9848	402.5978
9978	1509395978	54.7581	-110.5219	965.1	282.8	92.7	5.0	3.9	-0.44	56.22	1.9882	401.7410
9979	1509395979	54.7581	-110.5206	963.4	280.3	92.3	4.8	3.7	-0.44	56.22	1.9875	402.3156
9980	1509395980	54.7581	-110.5194	960.9	276.9	92.4	4.6	3.7	-0.44	56.22	1.9866	401.0004
9981	1509395981	54.7581	-110.5182	958.5	278.6	92.7	4.4	4.0	-0.44	56.22	1.9859	402.1793
9982	1509395982	54.7581	-110.5170	956.3	284.0	92.7	4.1	4.1	-0.44	56.21	1.9860	402.3936
9983	1509395983	54.7581	-110.5158	954.7	294.0	92.7	4.2	4.0	-0.44	56.21	1.9849	401.8571
9984	1509395984	54.7581	-110.5145	953.8	298.9	92.4	3.9	3.5	-0.44	56.21	1.9832	402.2387
9985	1509395985	54.7581	-110.5133	953.4	299.4	92.8	3.8	4.0	-0.44	56.21	1.9874	401.8891
9986	1509395986	54.7581	-110.5120	953.4	297.3	92.9	4.1	4.0	-0.44	56.21	1.9877	401.7205
9987	1509395987	54.7581	-110.5108	953.6	294.6	92.8	3.9	3.9	-0.44	56.20	1.9870	401.7205
9988	1509395988	54.7581	-110.5095	954.0	290.3	93.0	3.7	4.1	-0.44	56.20	1.9863	401.7205
9989	1509395989	54.7581	-110.5083	954.5	280.0	93.1	3.9	4.3	-0.44	56.20	1.9856	401.7205
9990	1509395990	54.7581	-110.5071	955.2	273.5	92.9	3.8	3.9	-0.44	56.20	1.9849	401.7205
9991	1509395991	54.7581	-110.5058	956.1	272.0	92.5	3.7	3.5	-0.44	56.20	1.9842	401.7205
9992	1509395992	54.7581	-110.5046	957.0	270.8	93.0	3.9	3.8	-0.44	56.20	1.9835	401.7205
9993	1509395993	54.7581	-110.5034	957.7	270.5	93.2	3.9	4.0	-0.44	56.19	1.9831	401.2670
9994	1509395994	54.7581	-110.5025	958.3	271.1	93.3	3.8	4.0	-0.43	56.19	1.9895	401.3757
9995	1509395995	54.7581	-110.5024	958.4	271.2	93.2	3.7	4.0	-0.43	56.19	1.9879	402.3197
9996	1509395996	54.7581	-110.5023	958.4	271.2	93.2	3.6	4.0	-0.43	56.19	1.9875	402.4471
9997	1509395997	54.7581	-110.5022	958.4	270.9	93.2	3.5	4.0	-0.43	56.19	1.9879	402.6154
9998	1509395998	54.7581	-110.5021	958.5	270.9	93.2	3.4	4.0	-0.43	56.18	1.9859	400.5695
9999	1509395999	54.7581	-110.5020	958.5	270.9	93.2	3.4	4.0	-0.43	56.18	1.9858	401.1284
10000	1509396000	54.7581	-110.5019	958.6	270.7	93.1	3.3	4.0	-0.43	56.18	1.9859	403.4202
10001	1509396001	54.7581	-110.5013	959.0	270.9	93.2	3.2	4.2	-0.43	56.18	1.9850	402.5828
10002	1509396002	54.7581	-110.4999	960.1	270.4	94.2	4.3	5.3	-0.43	56.18	1.9832	401.9178
10003	1509396003	54.7581	-110.4985	961.8	272.1	93.1	4.5	4.2	-0.43	56.17	1.9796	401.4681
10004	1509396004	54.7581	-110.4971	964.1	275.8	92.9	4.8	4.1	-0.43	56.17	1.9715	401.4830
10005	1509396005	54.7581	-110.4957	966.7	279.4	92.8	5.6	3.8	-0.43	56.17	1.9697	401.0228
10006	1509396006	54.7581	-110.4943	969.9	281.7	92.7	6.2	3.6	-0.43	56.17	1.9643	401.4214
10007	1509396007	54.7581	-110.4929	972.8	283.6	93.2	6.3	4.1	-0.43	56.17	1.9653	400.9959
10008	1509396008	54.7581	-110.4915	975.5	285.2	92.4	6.0	3.3	-0.43	56.16	1.9678	401.0778
10009	1509396009	54.7581	-110.4901	977.6	287.8	92.3	4.9	3.6	-0.43	56.16	1.9704	401.0926
10010	1509396010	54.7582	-110.4888	978.9	289.8	92.7	4.4	4.2	-0.43	56.16	1.9661	400.7425
10011	1509396011	54.7582	-110.4874	978.8	290.8	92.6	4.4	3.9	-0.43	56.16	1.9647	400.9545
10012	1509396012	54.7582	-110.4860	977.5	290.5	92.3	5.2	3.5	-0.42	56.16	1.9617	401.6844
10013	1509396013	54.7582	-110.4846	975.4	290.3	92.5	5.0	3.5	-0.42	56.15	1.9621	401.3822
10014	1509396014	54.7582	-110.4832	973.0	288.6	92.6	5.4	3.4	-0.42	56.15	1.9634	401.2099
10015	1509396015	54.7582	-110.4818	971.1	286.0	92.9	5.7	3.5	-0.42	56.15	1.9697	401.8416
10016	1509396016	54.7582	-110.4804	969.9	283.9	93.3	5.6	3.8	-0.42	56.15	1.9707	401.8416
10017	1509396017	54.7582	-110.4790	969.2	282.9	93.3	5.2	3.9	-0.42	56.15	1.9757	402.2545
10018	1509396018	54.7582	-110.4775	969.1	282.0	93.0	5.2	3.5	-0.42	56.15	1.9738	402.1682
10019	1509396019	54.7582	-110.4761	969.2	281.9	93.1	5.2	3.5	-0.42	56.14	1.9783	401.7764
10020	1509396020	54.7582	-110.4747	969.7	280.7	93.5	5.2	3.6	-0.42	56.14	1.9731	402.6070
10021	1509396021	54.7581	-110.4733	970.8	281.8	93.4	5.2	3.3	-0.42	56.14	1.9705	402.4143
10022	1509396022	54.7581	-110.4719	972.3	284.4	93.3	5.4	3.0	-0.42	56.14	1.9727	402.7026
10023	1509396023	54.7581	-110.4705	973.9	285.8	93.5	5.2	3.1	-0.42	56.14	1.9744	402.0522
10024	1509396024	54.7581	-110.4691	975.7	288.7	94.4	4.8	4.2	-0.42	56.13	1.9765	402.4993
10025	1509396025	54.7581	-110.4676	977.3	290.3	93.7	4.6	3.3	-0.42	56.13	1.9777	402.4993
10026	1509396026	54.7581	-110.4663	978.6	291.6	93.7	4.3	3.4	-0.42	56.13	1.9802	401.5569
10027	1509396027	54.7581	-110.4649	979.6	290.8	93.9	4.0	3.5	-0.42	56.13	1.9768	401.5569
10028	1509396028	54.7580	-110.4635	980.5	292.5	94.0	4.2	3.6	-0.42	56.13	1.9776	403.5228
10029	1509396029	54.7580	-110.4621	981.3	294.3	94.1	4.6	3.8	-0.42	56.12	1.9815	402.5691
10030	1509396030	54.7580	-110.4607	982.1	297.8	94.1	4.3	3.7	-0.41	56.12	1.9811	401.5697
10031	1509396031	54.7580	-110.4594	982.6	299.9	94.2	4.0	3.9	-0.41	56.12	1.9807	402.3460
10032	1509396032	54.7580	-110.4580	982.9	301.9	94.2	4.0	3.9	-0.41	56.12	1.9796	402.2000
10033	1509396033	54.7580	-110.4565	983.1	304.1	93.8	4.0	3.4	-0.41	56.12	1.9772	401.5380
10034	1509396034	54.7579	-110.4551	983.1	305.4	94.0	4.1	3.9	-0.41	56.11	1.9744	403.3596
10035	1509396035	54.7579	-110.4537	983.1	306.1	94.6	4.2	4.6	-0.41	56.11	1.9755	402.9730
10036	1509396036	54.7579	-110.4523	982.9	305.9	94.1	4.6	4.1	-0.41	56.11	1.9760	403.0698
10037	1509396037	54.7579	-110.4510	982.2	306.2	93.8	4.7	3.9	-0.41	56.11	1.9776	403.2699
10038	1509396038	54.7579	-110.4496	980.9	304.9	93.9	4.4	4.2	-0.41	56.11	1.9794	403.2479
10039	1509396039	54.7579	-110.4482	979.1	301.2	93.5	4.2	3.4	-0.41	56.11	1.9776	403.8419
10040	1509396040	54.7579	-110.4468	977.2	298.2	93.4	3.9	3.2	-0.41	56.10	1.9793	403.8697
10041	1509396041	54.7579	-110.4454	975.3	298.3	92.8	3.0	2.3	-0.41	56.10	1.9794	403.5358
10042	1509396042	54.7578	-110.4440	974.0	302.0	93.6	3.3	2.9	-0.41	56.10	1.9801	403.6495
10043	1509396043	54.7578	-110.4426	973.0	303.0	94.0	2.9	3.6	-0.41	56.10	1.9799	403.0753
10044	1509396044	54.7578	-110.4413	972.3	301.3	93.6	3.0	3.5	-0.41	56.10	1.9802	404.0335
10045	1509396045	54.7578	-110.4401	971.7	299.7	92.9	3.0	3.4	-0.41	56.09	1.9804	402.9860
10046	1509396046	54.7578	-110.4388	970.6	299.6	92.1	3.1	3.2	-0.41	56.09	1.9802	403.8812
10047	1509396047	54.7578	-110.4376	969.3	300.2	91.6	3.3	3.3	-0.40	56.09	1.9800	403.8812
10048	1509396048	54.7578	-110.4363	967.8	301.8	91.5	3.9	3.5	-0.40	56.09	1.9798	403.8812
10049	1509396049	54.7578	-110.4351	966.0	301.3	91.5	4.3	3.6	-0.40	56.09	1.9796	403.8812
10050	1509396050	54.7579	-110.4338	964.0	302.0	90.9	4.5	3.1	-0.40	56.08	1.9795	403.8812
10051	1509396051	54.7579	-110.4326	961.8	302.8	91.3	4.5	4.0	-0.40	56.08	1.9793	403.8812
10052	1509396052	54.7579	-110.4313	959.1	303.1	91.0	4.6	3.8	-0.40	56.08	1.9791	403.8812
10053	1509396053	54.7579	-110.4302	956.4	302.4	90.7	4.6	3.6	-0.40	56.08	1.9789	403.8812
10054	1509396054	54.7579	-110.4291	953.4	301.4	90.6	4.7	3.5	-0.40	56.08	1.9741	402.7920
10055	1509396055	54.7579	-110.4290	953.2	301.1	90.6	4.6	3.4	-0.40	56.07	1.9788	403.7353
10056	1509396056	54.7579	-110.4289	952.9	301.9	90.5	4.6	3.4	-0.40	56.07	1.9778	402.6625
10057	1509396057	54.7579	-110.4288	952.6	301.6	90.5	4.5	3.3	-0.40	56.07	1.9791	402.8415
10058	1509396058	54.7579	-110.4287	952.4	301.4	90.5	4.5	3.3	-0.40	56.07	1.9771	402.5816
10059	1509396059	54.7579	-110.4286	952.1	301.4	90.4	4.5	3.3	-0.40	56.07	1.9762	403.7419
10060	1509396060	54.7579	-110.4285	951.8	301.1	90.4	4.4	3.2	-0.40	56.07	1.9759	404.5165
10061	1509396061	54.7580	-110.4276	949.4	301.5	90.4	4.6	3.4	-0.40	56.06	1.9780	404.9292
10062	1509396062	54.7580	-110.4261	945.9	299.9	91.0	3.6	4.1	-0.40	56.06	1.9780	405.0492
10063	1509396063	54.7580	-110.4246	943.4	297.4	90.5	3.4	3.7	-0.40	56.06	1.9775	405.2396
10064	1509396064	54.7581	-110.4231	941.6	295.3	90.8	2.8	4.3	-0.40	56.06	1.9767	404.4800
10065	1509396065	54.7581	-110.4216	939.8	294.2	90.5	2.0	3.8	-0.39	56.06	1.9756	404.4784
10066	1509396066	54.7581	-110.4201	937.4	292.3	90.5	1.7	4.0	-0.39	56.05	1.9768	404.6545
10067	1509396067	54.7582	-110.4186	934.2	289.9	90.9	1.8	4.2	-0.39	56.05	1.9752	405.3111
10068	1509396068	54.7582	-110.4172	930.6	285.5	89.7	2.6	3.1	-0.39	56.05	1.9742	405.4805
10069	1509396069	54.7582	-110.4157	926.4	281.4	89.5	3.2	3.2	-0.39	56.05	1.9755	404.6130
10070	1509396070	54.7583	-110.4142	922.9	277.8	89.7	3.7	2.9	-0.39	56.05	1.9763	404.6130
10071	1509396071	54.7583	-110.4127	921.4	277.1	91.4	4.1	4.5	-0.39	56.04	1.9762	403.0348
10072	1509396072	54.7583	-110.4112	921.0	277.0	92.6	3.5	4.9	-0.39	56.04	1.9757	405.5806
10073	1509396073	54.7583	-110.4097	919.9	277.6	92.4	3.0	4.5	-0.39	56.04	1.9734	405.6246
10074	1509396074	54.7583	-110.4081	916.7	276.3	92.2	2.7	3.8	-0.39	56.04	1.9710	406.4587
10075	1509396075	54.7583	-110.4066	912.0	274.2	91.8	2.9	3.2	-0.39	56.04	1.9716	405.8814
10076	1509396076	54.7583	-110.4051	907.1	272.1	92.2	2.9	3.3	-0.39	56.03	1.9717	405.8938
10077	1509396077	54.7583	-110.4036	903.7	271.3	92.6	3.1	3.5	-0.39	56.03	1.9709	405.2325
10078	1509396078	54.7583	-110.4021	902.0	270.0	93.3	3.8	4.0	-0.39	56.03	1.9729	405.4680
10079	1509396079	54.7583	-110.4006	902.4	270.4	93.0	4.4	3.5	-0.39	56.03	1.9719	405.5120
10080	1509396080	54.7583	-110.3991	904.0	272.0	93.2	4.4	3.6	-0.39	56.03	1.9724	405.5397
10081	1509396081	54.7583	-110.3975	906.2	273.2	93.3	4.0	3.5	-0.39	56.02	1.9729	405.3314
10082	1509396082	54.7583	-110.3960	908.2	273.2	93.5	4.1	3.7	-0.39	56.02	1.9762	405.3056
10083	1509396083	54.7583	-110.3945	909.7	271.7	93.3	4.2	3.4	-0.38	56.02	1.9741	404.7266
10084	1509396084	54.7583	-110.3930	910.3	268.3	93.1	4.6	3.3	-0.38	56.02	1.9731	402.6320
10085	1509396085	54.7583	-110.3915	910.4	265.3	93.7	4.0	3.9	-0.38	56.02	1.9718	405.0704
10086	1509396086	54.7583	-110.3900	910.1	264.1	94.0	4.2	4.1	-0.38	56.02	1.9725	404.9216
10087	1509396087	54.7582	-110.3885	909.4	264.4	93.6	4.3	3.8	-0.38	56.01	1.9724	405.6319
10088	1509396088	54.7582	-110.3870	908.6	262.6	93.9	4.3	4.0	-0.38	56.01	1.9729	405.6539
10089	1509396089	54.7582	-110.3855	907.8	261.8	93.8	4.3	3.9	-0.38	56.01	1.9716	405.4679
10090	1509396090	54.7582	-110.3840	906.9	259.9	93.7	4.3	3.6	-0.38	56.01	1.9735	403.6468
10091	1509396091	54.7582	-110.3825	906.5	259.5	93.8	4.1	3.7	-0.38	56.01	1.9739	405.7049
10092	1509396092	54.7582	-110.3810	907.1	260.8	94.0	4.2	3.7	-0.38	56.00	1.9722	405.6674
10093	1509396093	54.7581	-110.3795	908.4	262.4	94.1	4.5	3.8	-0.38	56.00	1.9699	405.4683
10094	1509396094	54.7581	-110.3780	910.1	263.1	93.9	4.5	3.6	-0.38	56.00	1.9693	405.1115
10095	1509396095	54.7581	-110.3765	911.9	264.9	93.5	3.9	3.3	-0.38	56.00	1.9702	406.2159
10096	1509396096	54.7581	-110.3750	913.5	265.5	93.8	3.4	3.9	-0.38	56.00	1.9706	405.6531
10097	1509396097	54.7581	-110.3735	914.8	267.8	94.0	3.4	4.2	-0.38	55.99	1.9706	404.9309
10098	1509396098	54.7581	-110.3721	916.0	269.0	93.8	3.6	4.2	-0.38	55.99	1.9715	405.9539
10099	1509396099	54.7581	-110.3706	917.1	271.1	93.9	3.4	4.5	-0.38	55.99	1.9696	404.9119
10100	1509396100	54.7581	-110.3692	918.1	272.1	93.1	3.3	3.5	-0.38	55.99	1.9677	404.5181
10101	1509396101	54.7580	-110.3678	919.3	273.3	93.7	3.3	4.3	-0.37	55.99	1.9674	405.0116
10102	1509396102	54.7580	-110.3665	920.5	274.5	93.3	2.6	3.9	-0.37	55.98	1.9679	405.7980
10103	1509396103	54.7580	-110.3653	922.2	275.2	92.4	2.1	3.0	-0.37	55.98	1.9687	405.9598
10104	1509396104	54.7580	-110.3640	923.9	275.9	92.9	2.4	3.6	-0.37	55.98	1.9698	405.4634
10105	1509396105	54.7580	-110.3628	925.4	276.1	93.2	2.6	3.9	-0.37	55.98	1.9687	405.4497
10106	1509396106	54.7580	-110.3615	927.0	276.4	92.7	2.4	3.6	-0.37	55.98	1.9686	405.5214
10107	1509396107	54.7580	-110.3603	928.3	277.3	92.4	2.8	3.3	-0.37	55.98	1.9686	405.7685
10108	1509396108	54.7580	-110.3591	928.8	276.8	92.5	2.7	3.6	-0.37	55.97	1.9683	404.6513
10109	1509396109	54.7580	-110.3579	928.7	276.7	92.7	2.8	3.8	-0.37	55.97	1.9680	405.9702
10110	1509396110	54.7580	-110.3566	928.1	277.1	92.3	3.3	3.5	-0.37	55.97	1.9669	405.6618
10111	1509396111	54.7580	-110.3554	927.3	277.3	92.4	3.3	3.7	-0.37	55.97	1.9675	405.8557
10112	1509396112	54.7580	-110.3541	926.1	277.1	92.0	3.4	3.5	-0.37	55.97	1.9698	405.7895
10113	1509396113	54.7581	-110.3529	925.0	276.0	92.6	3.0	4.3	-0.37	55.96	1.9667	405.7495
10114	1509396114	54.7581	-110.3518	924.0	276.0	92.6	3.0	4.2	-0.37	55.96	1.9677	405.5637
10115	1509396115	54.7581	-110.3515	923.8	275.8	92.5	2.9	4.3	-0.37	55.96	1.9688	405.5637
10116	1509396116	54.7581	-110.3507	923.3	275.3	92.6	2.8	4.4	-0.37	55.96	1.9700	403.8344
10117	1509396117	54.7581	-110.3492	922.6	274.6	92.4	2.7	4.2	-0.37	55.96	1.9673	405.2888
10118	1509396118	54.7581	-110.3478	922.4	274.4	92.3	3.1	4.2	-0.37	55.95	1.9659	404.5600
10119	1509396119	54.7581	-110.3464	922.5	274.6	92.4	3.1	4.2	-0.36	55.95	1.9658	405.3812
10120	1509396120	54.7581	-110.3449	923.2	274.2	91.7	2.5	3.6	-0.36	55.95	1.9666	405.5626
10121	1509396121	54.7581	-110.3435	924.0	274.2	91.4	2.8	3.0	-0.36	55.95	1.9644	405.4905
10122	1509396122	54.7581	-110.3421	924.6	274.5	91.7	2.8	3.4	-0.36	55.95	1.9655	405.5297
10123	1509396123	54.7581	-110.3406	925.4	275.4	92.2	2.7	3.8	-0.36	55.94	1.9649	405.6865
10124	1509396124	54.7582	-110.3393	926.1	277.1	91.9	2.7	3.7	-0.36	55.94	1.9664	406.1650
10125	1509396125	54.7582	-110.3380	926.2	277.2	92.3	3.0	4.1	-0.36	55.94	1.9678	406.0742
10126	1509396126	54.7582	-110.3367	925.4	276.4	92.1	3.3	4.0	-0.36	55.94	1.9698	406.0077
10127	1509396127	54.7582	-110.3355	923.7	274.7	92.2	3.7	4.2	-0.36	55.94	1.9677	404.6894
10128	1509396128	54.7582	-110.3343	921.8	272.8	92.1	4.1	4.0	-0.36	55.93	1.9686	405.0381
10129	1509396129	54.7582	-110.3330	919.8	269.8	92.0	4.0	4.0	-0.36	55.93	1.9668	404.8786
10130	1509396130	54.7582	-110.3318	917.8	267.8	92.0	3.7	4.0	-0.36	55.93	1.9660	406.6348
10131	1509396131	54.7582	-110.3305	916.6	266.3	92.1	3.3	4.0	-0.36	55.93	1.9662	406.6348
10132	1509396132	54.7582	-110.3293	917.1	266.8	91.6	3.1	3.3	-0.36	55.93	1.9650	405.8276
10133	1509396133	54.7582	-110.3281	918.4	268.1	90.7	2.7	2.1	-0.36	55.93	1.9642	406.4526
10134	1509396134	54.7583	-110.3268	920.3	270.0	90.9	2.6	2.3	-0.36	55.92	1.9652	406.9188
10135	1509396135	54.7583	-110.3255	921.6	271.3	91.6	2.7	2.6	-0.36	55.92	1.9647	405.3859
10136	1509396136	54.7583	-110.3243	922.0	271.7	92.2	2.7	3.3	-0.36	55.92	1.9671	406.0845
10137	1509396137	54.7583	-110.3230	921.8	270.7	92.7	3.0	3.8	-0.35	55.92	1.9645	405.3062
10138	1509396138	54.7583	-110.3218	921.2	270.2	92.6	3.7	3.7	-0.35	55.92	1.9670	404.9717
10139	1509396139	54.7583	-110.3205	920.4	270.4	92.5	3.6	4.0	-0.35	55.91	1.9663	407.9421
10140	1509396140	54.7583	-110.3193	919.6	270.5	92.7	3.3	4.4	-0.35	55.91	1.9668	409.2330
10141	1509396141	54.7583	-110.3181	919.2	270.8	92.5	3.3	4.2	-0.35	55.91	1.9662	408.5783
10142	1509396142	54.7583	-110.3168	919.2	271.2	92.5	3.3	4.3	-0.35	55.91	1.9673	408.7977
10143	1509396143	54.7583	-110.3155	919.6	272.3	92.5	3.3	4.1	-0.35	55.91	1.9681	409.8292
10144	1509396144	54.7583	-110.3143	920.1	272.1	92.9	3.3	4.8	-0.35	55.90	1.9682	413.6848
10145	1509396145	54.7583	-110.3131	920.5	272.4	93.3	3.7	5.1	-0.35	55.90	1.9689	414.7307
10146	1509396146	54.7583	-110.3118	921.0	273.7	92.1	3.5	4.1	-0.35	55.90	1.9686	414.1058
10147	1509396147	54.7583	-110.3106	921.2	273.4	91.8	3.5	4.1	-0.35	55.90	1.9677	415.0593
10148	1509396148	54.7584	-110.3093	921.0	274.0	91.9	3.5	4.1	-0.35	55.90	1.9657	417.2428
10149	1509396149	54.7584	-110.3081	920.5	273.5	91.7	4.0	3.8	-0.35	55.89	1.9667	415.3339
10150	1509396150	54.7584	-110.3068	920.1	275.3	91.3	4.1	3.3	-0.35	55.89	1.9677	420.4088
10151	1509396151	54.7584	-110.3056	919.5	275.6	91.4	3.7	3.4	-0.35	55.89	1.9676	416.2110
10152	1509396152	54.7584	-110.3044	918.5	276.6	92.1	3.7	4.1	-0.35	55.89	1.9678	415.9887
10153	1509396153	54.7584	-110.3031	917.6	276.8	91.7	3.7	3.3	-0.35	55.89	1.9678	419.1870
10154	1509396154	54.7584	-110.3019	916.8	278.1	92.1	4.2	3.4	-0.35	55.89	1.9702	418.3890
10155	1509396155	54.7584	-110.3007	916.1	279.3	93.3	3.9	3.7	-0.34	55.88	1.9678	419.2884
10156	1509396156	54.7584	-110.2994	915.7	281.6	94.5	3.7	3.3	-0.34	55.88	1.9678	415.7144
10157	1509396157	54.7584	-110.2982	916.4	283.7	96.2	3.5	2.6	-0.34	55.88	1.9636	412.2530
10158	1509396158	54.7583	-110.2969	917.7	289.2	98.5	3.2	2.3	-0.34	55.88	1.9640	411.5174
10159	1509396159	54.7582	-110.2957	919.2	291.7	101.7	3.0	2.7	-0.34	55.88	1.9657	411.5174
10160	1509396160	54.7581	-110.2945	920.6	295.0	104.5	3.0	1.6	-0.34	55.87	1.9685	421.8595
10161	1509396161	54.7579	-110.2933	921.0	296.9	110.3	3.0	1.5	-0.34	55.87	1.9682	430.2207
10162	1509396162	54.7576	-110.2922	920.7	297.7	119.6	2.9	2.3	-0.34	55.87	1.9658	426.5117
10163	1509396163	54.7573	-110.2912	920.6	297.6	130.3	2.8	2.7	-0.34	55.87	1.9656	412.3526
10164	1509396164	54.7568	-110.2904	921.1	297.7	140.3	2.5	2.6	-0.34	55.87	1.9652	411.3211
10165	1509396165	54.7563	-110.2897	922.1	296.1	151.1	2.7	2.9	-0.34	55.86	1.9637	412.9193
10166	1509396166	54.7557	-110.2892	923.6	295.9	161.3	2.3	3.6	-0.34	55.86	1.9659	416.5003
10167	1509396167	54.7551	-110.2888	924.9	295.3	168.5	2.6	3.8	-0.34	55.86	1.9659	416.8993
10168	1509396168	54.7545	-110.2886	923.8	295.2	173.6	3.9	3.4	-0.34	55.86	1.9659	417.2983
10169	1509396169	54.7538	-110.2885	921.1	293.8	177.2	4.5	3.1	-0.34	55.86	1.9659	417.6973
10170	1509396170	54.7532	-110.2884	918.9	293.6	177.8	3.5	2.7	-0.34	55.85	1.9659	418.0962
10171	1509396171	54.7526	-110.2883	916.0	292.1	178.5	3.6	2.7	-0.34	55.85	1.9659	418.4952
10172	1509396172	54.7519	-110.2882	913.8	292.6	179.8	4.1	2.9	-0.34	55.85	1.9659	418.8942
10173	1509396173	54.7513	-110.2881	912.1	292.4	179.8	3.4	3.0	-0.33	55.85	1.9625	421.4798
10174	1509396174	54.7508	-110.2881	910.5	290.9	179.9	3.0	2.9	-0.33	55.85	1.9653	418.2962
10175	1509396175	54.7507	-110.2881	910.3	290.8	179.9	3.0	3.0	-0.33	55.84	1.9647	415.6075
10176	1509396176	54.7507	-110.2881	910.2	290.6	180.0	3.0	3.1	-0.33	55.84	1.9633	408.4872
10177	1509396177	54.7506	-110.2881	910.0	290.5	180.0	2.9	3.2	-0.33	55.84	1.9625	407.5392
10178	1509396178	54.7506	-110.2881	909.9	290.3	180.0	2.9	3.7	-0.33	55.84	1.9627	407.1195
10179	1509396179	54.7505	-110.2881	909.7	290.4	180.1	2.9	3.9	-0.33	55.84	1.9628	406.6660
10180	1509396180	54.7505	-110.2881	909.6	290.2	180.1	2.9	4.3	-0.33	55.84	1.9646	405.8270
10181	1509396181	54.7500	-110.2881	908.0	288.7	181.0	3.0	4.1	-0.33	55.83	1.9640	405.7599
10182	1509396182	54.7493	-110.2881	905.0	286.2	184.1	3.9	3.9	-0.33	55.83	1.9636	407.0604
10183	1509396183	54.7485	-110.2881	903.2	283.9	186.9	5.2	4.0	-0.33	55.83	1.9623	405.5562
10184	1509396184	54.7478	-110.2882	901.7	282.1	186.9	4.5	3.9	-0.33	55.83	1.9622	407.0988
10185	1509396185	54.7470	-110.2883	901.3	282.2	186.7	4.4	3.9	-0.33	55.83	1.9633	407.0988
10186	1509396186	54.7463	-110.2884	900.8	281.8	186.6	4.2	3.3	-0.33	55.82	1.9649	407.5281
10187	1509396187	54.7455	-110.2884	900.0	281.0	186.8	4.5	3.7	-0.33	55.82	1.9659	406.0985
10188	1509396188	54.7448	-110.2885	898.9	280.9	186.5	4.2	3.7	-0.33	55.82	1.9659	406.0985
10189	1509396189	54.7440	-110.2886	899.0	281.0	185.5	3.6	3.7	-0.33	55.82	1.9642	407.1409
10190	1509396190	54.7432	-110.2887	899.0	282.0	185.2	3.9	3.7	-0.33	55.82	1.9640	407.3109
10191	1509396191	54.7425	-110.2887	899.0	282.0	184.5	3.2	3.7	-0.32	55.81	1.9650	407.7015
10192	1509396192	54.7417	-110.2888	897.8	280.8	185.1	3.9	3.9	-0.32	55.81	1.9649	409.8958
10193	1509396193	54.7410	-110.2888	897.0	280.3	185.5	4.3	3.8	-0.32	55.81	1.9653	408.5461
10194	1509396194	54.7402	-110.2889	897.0	281.0	185.3	3.7	3.5	-0.32	55.81	1.9660	407.6149
10195	1509396195	54.7394	-110.2889	895.9	279.9	185.5	3.6	3.3	-0.32	55.81	1.9672	408.3330
10196	1509396196	54.7387	-110.2890	894.7	278.7	186.1	3.7	3.3	-0.32	55.80	1.9658	408.7747
10197	1509396197	54.7379	-110.2891	893.6	277.7	185.7	3.0	3.3	-0.32	55.80	1.9649	408.8003
10198	1509396198	54.7372	-110.2892	892.5	276.2	185.5	2.5	3.3	-0.32	55.80	1.9659	407.8076
10199	1509396199	54.7364	-110.2893	891.1	274.1	185.2	2.1	3.1	-0.32	55.80	1.9671	408.6036
10200	1509396200	54.7357	-110.2894	889.7	272.7	185.3	2.1	2.9	-0.32	55.80	1.9651	408.3492
10201	1509396201	54.7349	-110.2895	888.9	271.9	185.1	1.9	3.2	-0.32	55.80	1.9646	407.4083
10202	1509396202	54.7341	-110.2895	888.1	271.1	185.2	1.9	3.3	-0.32	55.79	1.9633	407.1729
10203	1509396203	54.7333	-110.2896	887.7	271.7	185.4	2.1	3.3	-0.32	55.79	1.9632	406.3656
10204	1509396204	54.7326	-110.2897	887.5	271.8	186.1	2.8	3.3	-0.32	55.79	1.9651	407.4751
10205	1509396205	54.7318	-110.2898	887.7	273.0	185.6	2.2	3.5	-0.32	55.79	1.9647	406.0328
10206	1509396206	54.7311	-110.2899	888.0	274.3	185.7	2.5	3.5	-0.32	55.79	1.9655	406.2175
10207	1509396207	54.7303	-110.2900	888.1	275.1	185.7	2.8	3.4	-0.32	55.78	1.9630	406.8573
10208	1509396208	54.7296	-110.2901	888.3	275.3	185.3	2.9	3.1	-0.32	55.78	1.9644	407.1990
10209	1509396209	54.7288	-110.2902	888.5	275.5	184.9	2.8	3.2	-0.31	55.78	1.9640	406.8392
10210	1509396210	54.7280	-110.2902	889.0	276.0	184.3	2.4	3.4	-0.31	55.78	1.9654	407.6075
10211	1509396211	54.7273	-110.2903	889.3	276.3	184.3	2.7	3.4	-0.31	55.78	1.9649	407.6360
10212	1509396212	54.7265	-110.2903	889.8	275.7	184.5	3.2	3.5	-0.31	55.77	1.9642	407.7819
10213	1509396213	54.7257	-110.2904	890.6	276.7	184.4	3.3	3.7	-0.31	55.77	1.9647	406.2728
10214	1509396214	54.7250	-110.2904	891.6	276.6	183.8	2.7	3.7	-0.31	55.77	1.9641	406.6791
10215	1509396215	54.7242	-110.2905	892.6	277.6	183.8	3.0	3.0	-0.31	55.77	1.9646	406.6010
10216	1509396216	54.7235	-110.2905	893.3	278.3	183.7	2.9	3.1	-0.31	55.77	1.9645	406.0789
10217	1509396217	54.7227	-110.2905	893.5	278.5	183.8	3.0	3.7	-0.31	55.76	1.9645	404.6439
10218	1509396218	54.7220	-110.2906	893.2	278.2	183.5	2.8	4.2	-0.31	55.76	1.9636	406.9398
10219	1509396219	54.7212	-110.2906	893.1	279.1	183.5	2.8	4.3	-0.31	55.76	1.9639	406.9398
10220	1509396220	54.7205	-110.2907	892.9	279.9	184.0	3.3	4.2	-0.31	55.76	1.9642	405.1747
10221	1509396221	54.7198	-110.2907	892.9	279.9	183.5	2.5	3.8	-0.31	55.76	1.9646	405.8815
10222	1509396222	54.7191	-110.2907	892.8	280.9	183.5	2.5	3.8	-0.31	55.76	1.9645	406.3943
10223	1509396223	54.7185	-110.2908	892.7	281.0	183.7	2.7	3.9	-0.31	55.75	1.9623	405.4960
10224	1509396224	54.7178	-110.2908	892.6	281.6	183.4	2.4	3.9	-0.31	55.75	1.9645	406.3301
10225	1509396225	54.7172	-110.2908	892.5	282.5	183.7	2.9	4.4	-0.31	55.75	1.9645	406.6788
10226	1509396226	54.7165	-110.2908	892.4	282.4	184.1	3.4	4.4	-0.31	55.75	1.9657	405.8113
10227	1509396227	54.7158	-110.2909	892.1	283.1	184.0	3.4	3.9	-0.30	55.75	1.9658	405.8113
10228	1509396228	54.7152	-110.2909	891.8	282.8	183.8	3.1	3.8	-0.30	55.74	1.9658	405.8113
10229	1509396229	54.7146	-110.2909	891.3	282.3	183.8	3.2	3.8	-0.30	55.74	1.9659	405.8113
10230	1509396230	54.7139	-110.2910	890.9	281.9	183.3	2.6	3.4	-0.30	55.74	1.9619	404.8602
10231	1509396231	54.7133	-110.2910	890.5	281.5	183.9	3.5	3.5	-0.30	55.74	1.9628	405.5070
10232	1509396232	54.7126	-110.2910	890.1	282.1	184.8	4.5	3.5	-0.30	55.74	1.9632	405.5070
10233	1509396233	54.7120	-110.2911	889.7	281.7	184.7	4.3	3.6	-0.30	55.73	1.9636	405.0880
10234	1509396234	54.7114	-110.2911	889.5	281.5	184.2	3.8	3.5	-0.30	55.73	1.9622	403.9590
10235	1509396235	54.7113	-110.2911	889.5	281.5	184.1	3.8	3.5	-0.30	55.73	1.9633	403.9590
10236	1509396236	54.7112	-110.2911	889.4	281.4	184.1	3.8	3.5	-0.30	55.73	1.9644	407.6157
10237	1509396237	54.7111	-110.2911	889.4	281.4	184.0	3.8	3.6	-0.30	55.73	1.9648	407.6157
10238	1509396238	54.7105	-110.2911	889.0	281.0	184.2	4.0	4.0	-0.30	55.72	1.9650	406.9842
10239	1509396239	54.7098	-110.2911	888.5	280.5	184.7	4.6	4.1	-0.30	55.72	1.9649	405.3299
10240	1509396240	54.7090	-110.2912	887.8	280.8	184.4	4.2	4.0	-0.30	55.72	1.9671	407.8286
10241	1509396241	54.7083	-110.2912	887.5	280.5	183.7	3.5	4.1	-0.30	55.72	1.9665	406.2929
10242	1509396242	54.7075	-110.2912	887.2	280.2	184.3	4.0	4.0	-0.30	55.72	1.9654	405.4729
10243	1509396243	54.7068	-110.2913	887.0	280.0	184.8	4.7	4.0	-0.30	55.71	1.9667	405.8428
10244	1509396244	54.7060	-110.2913	887.0	280.0	184.4	4.2	3.9	-0.30	55.71	1.9679	406.4462
10245	1509396245	54.7053	-110.2913	886.8	278.8	184.8	5.0	3.9	-0.29	55.71	1.9667	405.2550
10246	1509396246	54.7045	-110.2913	886.2	278.2	184.9	4.9	3.9	-0.29	55.71	1.9674	405.4091
10247	1509396247	54.7038	-110.2914	885.3	277.3	184.6	4.5	4.0	-0.29	55.71	1.9671	406.1288
10248	1509396248	54.7030	-110.2914	884.5	276.5	184.0	3.8	4.4	-0.29	55.71	1.9667	406.1288
10249	1509396249	54.7023	-110.2914	883.7	276.5	184.3	3.8	4.1	-0.29	55.70	1.9671	407.4513
10250	1509396250	54.7015	-110.2915	883.2	275.2	184.7	4.2	3.7	-0.29	55.70	1.9675	405.4437
10251	1509396251	54.7008	-110.2915	882.7	274.7	185.0	4.3	3.7	-0.29	55.70	1.9688	407.0078
10252	1509396252	54.7000	-110.2916	882.3	274.3	184.9	4.3	3.6	-0.29	55.70	1.9672	407.0575
10253	1509396253	54.6993	-110.2916	881.9	273.9	184.7	3.9	3.7	-0.29	55.70	1.9700	405.9893
10254	1509396254	54.6985	-110.2916	881.3	273.4	185.0	4.2	3.6	-0.29	55.69	1.9734	404.1773
10255	1509396255	54.6978	-110.2917	880.8	273.9	184.1	3.2	3.7	-0.29	55.69	1.9740	405.2488
10256	1509396256	54.6970	-110.2917	880.7	275.0	184.5	3.2	3.2	-0.29	55.69	1.9736	406.0324
10257	1509396257	54.6963	-110.2918	881.2	278.3	184.0	2.5	3.3	-0.29	55.69	1.9719	404.9613
10258	1509396258	54.6956	-110.2918	881.8	278.8	183.7	2.0	3.5	-0.29	55.69	1.9707	405.7874
10259	1509396259	54.6949	-110.2919	882.5	278.8	184.4	3.0	3.5	-0.29	55.68	1.9689	405.8849
10260	1509396260	54.6943	-110.2919	883.0	279.3	185.4	4.0	3.5	-0.29	55.68	1.9699	404.5437
10261	1509396261	54.6936	-110.2920	883.6	280.6	184.8	3.3	3.6	-0.29	55.68	1.9707	403.8800
10262	1509396262	54.6930	-110.2920	883.8	279.8	185.2	3.8	3.6	-0.29	55.68	1.9701	406.0890
10263	1509396263	54.6923	-110.2921	883.8	278.8	184.7	3.2	3.6	-0.28	55.68	1.9692	405.3871
10264	1509396264	54.6917	-110.2921	883.8	278.8	184.0	2.7	3.6	-0.28	55.67	1.9686	405.2315
10265	1509396265	54.6910	-110.2921	883.2	279.2	184.9	3.8	3.9	-0.28	55.67	1.9687	405.6650
10266	1509396266	54.6903	-110.2922	882.7	278.7	184.9	3.8	4.0	-0.28	55.67	1.9707	404.7015
10267	1509396267	54.6897	-110.2922	882.4	278.4	185.4	4.4	4.0	-0.28	55.67	1.9730	404.5366
10268	1509396268	54.6891	-110.2923	882.5	277.5	184.4	3.4	4.0	-0.28	55.67	1.9748	404.1946
10269	1509396269	54.6884	-110.2923	882.6	278.7	184.4	3.5	3.4	-0.28	55.67	1.9760	403.0920
10270	1509396270	54.6878	-110.2923	882.5	279.8	183.4	2.2	2.9	-0.28	55.66	1.9736	403.6699
10271	1509396271	54.6871	-110.2924	881.9	279.9	183.1	2.0	3.2	-0.28	55.66	1.9729	403.8587
10272	1509396272	54.6864	-110.2924	881.2	280.2	183.8	2.6	3.3	-0.28	55.66	1.9739	404.5684
10273	1509396273	54.6858	-110.2925	880.2	280.2	184.3	2.9	3.4	-0.28	55.66	1.9740	403.3532
10274	1509396274	54.6851	-110.2925	879.5	280.5	184.9	3.7	3.6	-0.28	55.66	1.9722	405.1543
10275	1509396275	54.6845	-110.2925	879.0	281.1	184.8	3.7	3.7	-0.28	55.65	1.9719	404.3487
10276	1509396276	54.6838	-110.2926	879.1	280.1	183.6	2.8	4.2	-0.28	55.65	1.9711	402.6844
10277	1509396277	54.6831	-110.2926	879.2	280.2	184.4	3.7	4.1	-0.28	55.65	1.9685	405.3957
10278	1509396278	54.6825	-110.2927	879.7	280.7	184.1	3.4	3.7	-0.28	55.65	1.9690	404.0996
10279	1509396279	54.6818	-110.2927	880.4	281.4	184.8	4.4	3.3	-0.28	55.65	1.9707	405.2050
10280	1509396280	54.6812	-110.2927	880.9	281.9	184.4	3.7	3.6	-0.28	55.64	1.9694	405.2233
10281	1509396281	54.6805	-110.2928	881.5	282.4	184.3	3.6	3.9	-0.27	55.64	1.9707	405.2233
10282	1509396282	54.6799	-110.2928	882.0	284.0	184.4	3.8	3.6	-0.27	55.64	1.9691	405.3139
10283	1509396283	54.6792	-110.2928	882.5	284.5	184.2	3.7	3.7	-0.27	55.64	1.9672	406.6291
10284	1509396284	54.6786	-110.2928	883.0	284.0	184.2	3.8	3.7	-0.27	55.64	1.9690	405.6746
10285	1509396285	54.6779	-110.2929	883.3	284.3	184.7	4.3	3.3	-0.27	55.63	1.9689	405.6746
10286	1509396286	54.6773	-110.2929	883.6	284.6	184.7	4.5	3.4	-0.27	55.63	1.9697	404.0228
10287	1509396287	54.6766	-110.2929	883.8	284.8	184.2	3.9	3.9	-0.27	55.63	1.9699	404.0228
10288	1509396288	54.6760	-110.2930	884.4	285.4	182.9	2.6	4.0	-0.27	55.63	1.9700	404.0228
10289	1509396289	54.6753	-110.2930	884.5	286.5	184.0	3.9	4.0	-0.27	55.63	1.9701	404.0228
10290	1509396290	54.6747	-110.2930	884.5	286.5	184.3	3.9	3.5	-0.27	55.62	1.9702	404.0228
10291	1509396291	54.6740	-110.2930	884.2	286.2	184.9	4.6	4.0	-0.27	55.62	1.9703	404.0228
10292	1509396292	54.6734	-110.2931	883.8	285.8	184.4	3.9	4.0	-0.27	55.62	1.9705	404.0228
10293	1509396293	54.6727	-110.2931	884.0	286.0	183.5	3.2	4.5	-0.27	55.62	1.9706	404.0228
10294	1509396294	54.6721	-110.2931	883.9	285.9	183.7	3.3	4.5	-0.27	55.62	1.9699	404.7331
10295	1509396295	54.6719	-110.2931	884.0	286.0	183.6	3.0	4.5	-0.27	55.62	1.9740	404.2849
10296	1509396296	54.6718	-110.2931	884.0	286.0	183.5	2.9	4.4	-0.27	55.61	1.9753	404.4392
10297	1509396297	54.6718	-110.2931	884.0	286.0	183.4	2.7	4.4	-0.27	55.61	1.9748	404.3706
10298	1509396298	54.6717	-110.2931	884.0	286.0	183.3	2.6	4.3	-0.27	55.61	1.9749	404.3435
10299	1509396299	54.6717	-110.2931	884.0	286.0	183.2	2.5	4.3	-0.26	55.61	1.9764	404.5334
10300	1509396300	54.6716	-110.2931	884.0	286.0	183.1	2.4	4.2	-0.26	55.61	1.9741	404.8122
10301	1509396301	54.6714	-110.2931	884.0	286.0	182.9	2.0	3.8	-0.26	55.60	1.9757	404.8122
10302	1509396302	54.6707	-110.2932	884.4	286.4	183.1	2.1	3.0	-0.26	55.60	1.9724	404.3557
10303	1509396303	54.6700	-110.2932	884.3	287.3	184.0	2.8	3.3	-0.26	55.60	1.9709	404.2597
10304	1509396304	54.6692	-110.2933	884.6	287.6	183.0	1.6	3.9	-0.26	55.60	1.9685	404.1966
10305	1509396305	54.6685	-110.2933	884.7	287.5	183.6	2.3	4.0	-0.26	55.60	1.9667	404.1920
10306	1509396306	54.6677	-110.2933	884.1	286.1	183.7	2.0	4.0	-0.26	55.59	1.9639	403.1306
10307	1509396307	54.6670	-110.2934	883.1	285.1	183.5	1.8	4.0	-0.26	55.59	1.9666	403.8845
10308	1509396308	54.6662	-110.2935	881.5	284.5	184.8	3.4	3.8	-0.26	55.59	1.9662	403.3817
10309	1509396309	54.6654	-110.2935	879.6	282.6	184.2	2.7	3.5	-0.26	55.59	1.9665	404.0633
10310	1509396310	54.6647	-110.2936	877.9	281.9	183.7	2.4	3.9	-0.26	55.59	1.9652	403.6031
10311	1509396311	54.6639	-110.2936	876.4	280.4	183.5	2.5	4.2	-0.26	55.58	1.9649	402.6384
10312	1509396312	54.6632	-110.2936	874.9	279.9	183.9	2.8	3.8	-0.26	55.58	1.9661	402.8005
10313	1509396313	54.6624	-110.2937	874.4	279.4	183.6	2.4	3.2	-0.26	55.58	1.9658	404.5872
10314	1509396314	54.6617	-110.2937	874.1	280.1	184.2	3.2	2.9	-0.26	55.58	1.9655	402.6217
10315	1509396315	54.6609	-110.2938	874.2	280.2	184.6	3.7	2.9	-0.26	55.58	1.9657	404.1161
10316	1509396316	54.6601	-110.2938	875.1	282.2	183.8	3.2	2.8	-0.26	55.58	1.9663	403.4515
10317	1509396317	54.6594	-110.2938	876.1	284.1	183.1	2.8	2.8	-0.25	55.57	1.9663	402.9623
10318	1509396318	54.6586	-110.2939	877.4	286.4	183.3	3.1	3.0	-0.25	55.57	1.9681	403.7559
10319	1509396319	54.6579	-110.2939	878.5	287.5	184.1	3.9	3.1	-0.25	55.57	1.9681	403.3299
10320	1509396320	54.6571	-110.2939	879.9	289.9	183.8	3.5	3.3	-0.25	55.57	1.9675	404.6384
10321	1509396321	54.6564	-110.2939	880.9	290.9	182.9	2.9	3.3	-0.25	55.57	1.9677	404.2014
10322	1509396322	54.6556	-110.2939	881.3	291.3	183.3	3.3	2.8	-0.25	55.56	1.9678	404.1017
10323	1509396323	54.6548	-110.2940	881.0	291.8	182.9	2.6	2.8	-0.25	55.56	1.9674	403.8238
10324	1509396324	54.6541	-110.2940	880.6	292.5	182.6	2.1	2.7	-0.25	55.56	1.9650	403.6762
10325	1509396325	54.6534	-110.2940	880.1	293.0	182.4	1.5	3.2	-0.25	55.56	1.9645	404.2718
10326	1509396326	54.6527	-110.2940	879.3	293.4	183.0	2.1	3.0	-0.25	55.56	1.9647	403.3994
10327	1509396327	54.6519	-110.2941	878.7	294.7	184.0	3.1	2.7	-0.25	55.55	1.9651	403.3994
10328	1509396328	54.6511	-110.2941	878.3	295.3	184.4	3.5	2.6	-0.25	55.55	1.9653	401.8915
10329	1509396329	54.6504	-110.2942	877.9	299.0	183.5	2.4	2.6	-0.25	55.55	1.9654	403.8121
10330	1509396330	54.6496	-110.2942	877.9	304.9	183.2	2.1	2.6	-0.25	55.55	1.9651	404.7713
10331	1509396331	54.6489	-110.2942	878.0	305.0	183.1	2.0	2.6	-0.25	55.55	1.9638	405.6889
10332	1509396332	54.6481	-110.2943	877.9	304.9	184.2	3.2	2.8	-0.25	55.54	1.9649	405.7326
10333	1509396333	54.6474	-110.2943	877.5	304.5	184.5	3.5	2.9	-0.25	55.54	1.9630	405.9349
10334	1509396334	54.6466	-110.2944	877.1	304.1	184.5	3.7	2.4	-0.25	55.54	1.9614	405.9349
10335	1509396335	54.6459	-110.2944	876.5	303.5	184.0	3.2	2.5	-0.24	55.54	1.9640	404.4359
10336	1509396336	54.6451	-110.2944	875.2	302.2	184.6	3.8	2.1	-0.24	55.54	1.9658	403.7198
10337	1509396337	54.6443	-110.2945	874.1	301.1	183.5	2.5	2.3	-0.24	55.53	1.9643	404.7164
10338	1509396338	54.6435	-110.2945	872.9	299.9	183.4	2.3	2.7	-0.24	55.53	1.9625	404.7718
10339	1509396339	54.6428	-110.2946	871.7	298.7	183.5	2.4	3.1	-0.24	55.53	1.9619	407.2741
10340	1509396340	54.6420	-110.2946	870.9	297.9	183.9	2.7	3.2	-0.24	55.53	1.9639	403.9578
10341	1509396341	54.6413	-110.2947	870.3	297.3	184.2	3.1	3.2	-0.24	55.53	1.9616	405.0022
10342	1509396342	54.6406	-110.2947	870.1	297.1	184.2	2.9	3.2	-0.24	55.53	1.9600	404.7482
10343	1509396343	54.6399	-110.2947	870.4	297.4	183.8	2.6	3.6	-0.24	55.52	1.9600	405.0335
10344	1509396344	54.6393	-110.2948	870.2	297.2	184.3	3.2	3.5	-0.24	55.52	1.9599	405.5963
10345	1509396345	54.6386	-110.2948	869.8	296.8	184.5	3.1	3.5	-0.24	55.52	1.9599	407.7387
10346	1509396346	54.6379	-110.2949	869.4	296.4	183.6	2.2	3.8	-0.24	55.52	1.9584	405.7672
10347	1509396347	54.6373	-110.2949	869.0	296.0	184.8	3.6	3.6	-0.24	55.52	1.9588	405.7672
10348	1509396348	54.6366	-110.2950	868.6	295.6	183.9	2.4	3.3	-0.24	55.51	1.9592	405.7672
10349	1509396349	54.6359	-110.2950	868.2	295.2	184.3	2.9	3.2	-0.24	55.51	1.9596	405.7672
10350	1509396350	54.6353	-110.2950	868.0	295.0	184.4	3.2	3.4	-0.24	55.51	1.9600	404.8052
10351	1509396351	54.6346	-110.2951	867.4	294.4	184.9	3.4	3.6	-0.24	55.51	1.9573	403.6642
10352	1509396352	54.6339	-110.2951	866.6	293.6	184.9	3.3	3.2	-0.24	55.51	1.9568	403.7126
10353	1509396353	54.6333	-110.2952	865.4	292.4	185.4	3.5	2.9	-0.23	55.50	1.9580	403.4660
10354	1509396354	54.6326	-110.2953	864.8	291.8	184.7	2.7	2.6	-0.23	55.50	1.9616	402.8310
10355	1509396355	54.6324	-110.2953	864.5	291.5	184.7	2.7	2.7	-0.23	55.50	1.9602	402.7018
10356	1509396356	54.6323	-110.2953	864.4	291.4	184.7	2.7	2.8	-0.23	55.50	1.9575	402.1544
10357	1509396357	54.6322	-110.2953	864.3	291.3	184.7	2.7	2.9	-0.23	55.50	1.9572	403.1710
10358	1509396358	54.6320	-110.2953	864.1	291.1	184.6	2.6	3.3	-0.23	55.49	1.9577	402.5786
10359	1509396359	54.6313	-110.2954	863.3	290.3	184.8	2.8	4.0	-0.23	55.49	1.9575	401.1929
10360	1509396360	54.6305	-110.2954	862.7	289.7	184.6	2.4	3.5	-0.23	55.49	1.9584	401.1929
10361	1509396361	54.6297	-110.2955	861.8	288.8	185.7	4.1	3.4	-0.23	55.49	1.9587	401.4731
10362	1509396362	54.6289	-110.2956	860.8	287.8	184.5	2.6	3.5	-0.23	55.49	1.9590	401.4949
10363	1509396363	54.6282	-110.2956	859.6	286.6	184.1	2.2	2.9	-0.23	55.49	1.9581	402.8593
10364	1509396364	54.6274	-110.2957	858.1	285.1	184.2	2.0	2.8	-0.23	55.48	1.9584	402.5882
10365	1509396365	54.6266	-110.2958	856.5	283.5	186.2	3.7	2.1	-0.23	55.48	1.9585	401.0916
10366	1509396366	54.6258	-110.2959	855.7	282.7	185.3	2.8	2.0	-0.23	55.48	1.9598	401.1542
10367	1509396367	54.6250	-110.2959	855.6	282.6	183.9	1.5	2.6	-0.23	55.48	1.9570	401.6694
10368	1509396368	54.6243	-110.2960	854.9	281.9	184.2	1.6	2.5	-0.23	55.48	1.9568	401.2555
10369	1509396369	54.6235	-110.2961	854.3	281.3	184.9	2.4	3.3	-0.23	55.47	1.9588	401.7779
10370	1509396370	54.6227	-110.2961	853.7	280.7	186.3	4.2	3.3	-0.23	55.47	1.9596	401.5895
10371	1509396371	54.6219	-110.2962	853.6	280.6	185.3	3.4	3.2	-0.22	55.47	1.9589	401.6139
10372	1509396372	54.6211	-110.2963	854.4	281.4	184.3	2.4	2.9	-0.22	55.47	1.9596	400.7314
10373	1509396373	54.6204	-110.2963	855.6	282.6	184.2	2.3	2.9	-0.22	55.47	1.9611	401.0470
10374	1509396374	54.6196	-110.2964	856.9	283.9	185.0	3.1	3.4	-0.22	55.46	1.9588	401.0753
10375	1509396375	54.6188	-110.2965	858.5	285.5	184.1	2.0	3.7	-0.22	55.46	1.9595	400.4803
10376	1509396376	54.6181	-110.2965	859.4	286.4	184.1	2.2	3.6	-0.22	55.46	1.9591	401.1007
10377	1509396377	54.6173	-110.2966	859.7	286.7	184.4	2.5	3.6	-0.22	55.46	1.9595	400.7312
10378	1509396378	54.6166	-110.2967	859.2	286.2	185.0	3.3	3.5	-0.22	55.46	1.9573	401.1126
10379	1509396379	54.6159	-110.2967	858.3	285.3	185.5	4.0	3.5	-0.22	55.45	1.9561	401.0577
10380	1509396380	54.6153	-110.2968	857.3	284.3	185.0	3.6	3.7	-0.22	55.45	1.9583	400.4299
10381	1509396381	54.6146	-110.2968	856.1	283.1	184.7	3.4	3.9	-0.22	55.45	1.9572	400.3798
10382	1509396382	54.6139	-110.2969	854.7	281.7	185.3	4.2	3.8	-0.22	55.45	1.9563	401.0490
10383	1509396383	54.6133	-110.2969	853.4	280.4	184.7	3.4	3.8	-0.22	55.45	1.9570	401.3832
10384	1509396384	54.6126	-110.2969	852.3	279.3	184.5	3.4	3.9	-0.22	55.45	1.9552	399.1621
10385	1509396385	54.6119	-110.2970	851.3	278.3	184.6	3.5	4.2	-0.22	55.44	1.9551	400.4385
10386	1509396386	54.6113	-110.2970	850.5	277.5	184.8	3.8	4.2	-0.22	55.44	1.9560	401.5289
10387	1509396387	54.6106	-110.2971	850.0	277.0	185.1	4.2	4.2	-0.22	55.44	1.9556	399.7328
10388	1509396388	54.6100	-110.2971	849.5	276.5	184.9	4.0	4.3	-0.22	55.44	1.9554	401.3856
10389	1509396389	54.6093	-110.2972	849.2	276.2	184.7	3.7	4.3	-0.21	55.44	1.9556	401.3036
10390	1509396390	54.6086	-110.2972	849.1	276.1	184.8	3.8	4.4	-0.21	55.43	1.9546	400.2264
10391	1509396391	54.6079	-110.2972	849.3	276.3	184.6	3.3	4.5	-0.21	55.43	1.9522	400.9402
10392	1509396392	54.6073	-110.2973	849.5	276.5	184.9	3.7	4.1	-0.21	55.43	1.9533	401.0086
10393	1509396393	54.6066	-110.2973	849.4	276.4	186.1	4.9	4.0	-0.21	55.43	1.9518	401.3248
10394	1509396394	54.6060	-110.2974	849.5	276.5	185.2	4.0	3.7	-0.21	55.43	1.9513	401.2192
10395	1509396395	54.6053	-110.2974	849.0	276.0	185.1	4.3	3.7	-0.21	55.42	1.9498	401.2192
10396	1509396396	54.6046	-110.2975	848.3	275.3	184.6	3.8	4.1	-0.21	55.42	1.9515	401.0716
10397	1509396397	54.6040	-110.2975	847.5	274.5	184.8	3.8	3.6	-0.21	55.42	1.9523	400.8595
10398	1509396398	54.6033	-110.2976	847.2	274.2	184.7	3.7	4.1	-0.21	55.42	1.9517	400.3596
10399	1509396399	54.6027	-110.2976	847.2	274.2	184.9	3.8	4.3	-0.21	55.42	1.9518	401.6285
10400	1509396400	54.6020	-110.2976	847.5	274.5	185.4	4.3	4.2	-0.21	55.41	1.9524	401.9290
10401	1509396401	54.6013	-110.2977	848.0	275.0	185.6	4.6	4.4	-0.21	55.41	1.9534	400.1701
10402	1509396402	54.6007	-110.2977	848.7	275.7	185.3	4.3	4.6	-0.21	55.41	1.9543	400.5154
10403	1509396403	54.6000	-110.2978	849.5	276.5	185.1	4.0	4.3	-0.21	55.41	1.9539	400.6988
10404	1509396404	54.5994	-110.2978	850.5	277.5	184.9	3.6	4.5	-0.21	55.41	1.9536	400.9564
10405	1509396405	54.5987	-110.2979	851.5	278.5	184.8	3.3	4.2	-0.21	55.40	1.9508	400.0032
10406	1509396406	54.5981	-110.2979	852.6	279.6	185.2	3.8	4.2	-0.20	55.40	1.9511	399.9930
10407	1509396407	54.5974	-110.2980	853.4	280.4	185.4	4.0	4.4	-0.20	55.40	1.9516	400.2141
10408	1509396408	54.5968	-110.2980	853.8	280.8	185.6	4.2	4.4	-0.20	55.40	1.9522	400.4353
10409	1509396409	54.5961	-110.2981	854.1	281.1	185.2	3.9	4.1	-0.20	55.40	1.9528	400.6564
10410	1509396410	54.5955	-110.2981	854.0	279.0	185.5	4.2	4.1	-0.20	55.40	1.9533	400.8776
10411	1509396411	54.5948	-110.2982	853.8	277.7	185.5	4.1	4.4	-0.20	55.39	1.9505	400.8962
10412	1509396412	54.5942	-110.2982	853.8	276.8	185.5	4.2	4.3	-0.20	55.39	1.9536	400.1049
10413	1509396413	54.5935	-110.2983	853.7	276.6	185.3	4.0	4.2	-0.20	55.39	1.9558	399.6818
10414	1509396414	54.5929	-110.2983	853.8	277.8	184.9	3.7	4.2	-0.20	55.39	1.9542	399.6818
10415	1509396415	54.5927	-110.2983	853.9	278.0	184.9	3.7	4.2	-0.20	55.39	1.9551	400.1406
10416	1509396416	54.5926	-110.2983	853.9	278.0	184.9	3.7	4.2	-0.20	55.38	1.9547	400.6091
10417	1509396417	54.5926	-110.2983	853.9	278.0	184.9	3.8	4.2	-0.20	55.38	1.9551	400.2693
10418	1509396418	54.5925	-110.2983	854.0	278.2	185.0	3.8	4.2	-0.20	55.38	1.9543	400.1781
10419	1509396419	54.5925	-110.2983	854.0	278.9	185.0	3.9	4.2	-0.20	55.38	1.9532	400.1549
10420	1509396420	54.5924	-110.2983	854.0	278.9	185.0	3.9	4.2	-0.20	55.38	1.9513	400.0477
10421	1509396421	54.5922	-110.2984	854.0	278.9	185.2	4.0	4.2	-0.20	55.37	1.9505	398.9533
10422	1509396422	54.5915	-110.2984	854.1	277.3	184.9	3.7	4.3	-0.20	55.37	1.9512	398.9533
10423	1509396423	54.5908	-110.2985	854.2	276.0	184.9	3.7	4.4	-0.20	55.37	1.9524	401.6789
10424	1509396424	54.5900	-110.2985	854.2	274.9	184.8	3.5	4.3	-0.19	55.37	1.9528	399.6589
10425	1509396425	54.5893	-110.2986	854.2	271.7	184.4	3.0	3.9	-0.19	55.37	1.9528	399.6101
10426	1509396426	54.5885	-110.2986	854.1	269.0	184.5	3.0	4.0	-0.19	55.36	1.9530	400.7807
10427	1509396427	54.5878	-110.2987	854.3	270.3	184.3	2.8	4.0	-0.19	55.36	1.9515	401.2476
10428	1509396428	54.5870	-110.2987	854.2	269.2	184.9	3.6	4.0	-0.19	55.36	1.9526	399.2379
10429	1509396429	54.5863	-110.2988	854.5	268.5	184.8	3.3	4.0	-0.19	55.36	1.9536	399.7114
10430	1509396430	54.5855	-110.2988	854.5	271.5	184.7	3.4	4.0	-0.19	55.36	1.9525	399.7425
10431	1509396431	54.5848	-110.2989	854.7	272.6	184.3	3.2	4.1	-0.19	55.36	1.9526	399.0919
10432	1509396432	54.5840	-110.2989	854.6	274.6	184.7	3.5	4.5	-0.19	55.35	1.9528	401.4152
10433	1509396433	54.5833	-110.2990	854.2	274.2	184.5	3.4	4.0	-0.19	55.35	1.9528	399.3763
10434	1509396434	54.5825	-110.2990	853.5	273.5	184.6	3.6	3.9	-0.19	55.35	1.9528	400.4631
10435	1509396435	54.5818	-110.2990	852.9	273.9	184.2	3.3	3.9	-0.19	55.35	1.9503	399.9149
10436	1509396436	54.5811	-110.2991	852.3	273.3	184.4	3.6	4.3	-0.19	55.35	1.9508	400.5032
10437	1509396437	54.5803	-110.2991	851.6	272.6	184.3	3.5	4.2	-0.19	55.34	1.9522	400.5966
10438	1509396438	54.5796	-110.2992	850.8	272.8	184.1	3.4	4.1	-0.19	55.34	1.9518	400.1307
10439	1509396439	54.5788	-110.2992	850.3	273.3	184.2	3.6	4.1	-0.19	55.34	1.9500	400.3287
10440	1509396440	54.5781	-110.2992	850.3	273.3	183.9	3.4	3.8	-0.19	55.34	1.9500	400.3287
10441	1509396441	54.5773	-110.2993	850.7	273.7	184.4	3.9	3.7	-0.19	55.34	1.9500	399.6557
10442	1509396442	54.5765	-110.2993	851.4	274.4	184.3	3.8	3.8	-0.18	55.33	1.9489	400.7205
10443	1509396443	54.5758	-110.2993	852.3	275.3	184.5	4.2	3.8	-0.18	55.33	1.9502	400.7352
10444	1509396444	54.5751	-110.2994	853.1	277.0	184.6	4.6	3.6	-0.18	55.33	1.9496	400.7352
10445	1509396445	54.5743	-110.2994	853.9	278.6	184.6	4.7	3.4	-0.18	55.33	1.9477	400.3223
10446	1509396446	54.5736	-110.2994	854.7	279.7	184.7	5.0	3.8	-0.18	55.33	1.9482	401.2335
10447	1509396447	54.5728	-110.2994	855.3	279.3	183.4	3.6	4.1	-0.18	55.32	1.9488	399.5793
10448	1509396448	54.5721	-110.2994	855.4	276.4	183.8	4.1	4.2	-0.18	55.32	1.9485	400.2902
10449	1509396449	54.5713	-110.2995	854.9	273.9	184.1	3.9	4.1	-0.18	55.32	1.9478	400.2946
10450	1509396450	54.5706	-110.2995	854.5	274.4	183.6	3.5	3.9	-0.18	55.32	1.9492	400.4463
10451	1509396451	54.5698	-110.2995	854.0	275.0	183.1	2.6	3.6	-0.18	55.32	1.9477	400.4463
10452	1509396452	54.5691	-110.2995	853.8	274.8	182.8	2.3	3.9	-0.18	55.31	1.9475	400.0014
10453	1509396453	54.5683	-110.2996	853.6	274.6	183.9	3.0	3.8	-0.18	55.31	1.9478	400.2411
10454	1509396454	54.5676	-110.2996	853.5	273.4	184.7	3.3	3.8	-0.18	55.31	1.9497	401.2581
10455	1509396455	54.5668	-110.2997	853.9	273.0	184.1	2.6	3.8	-0.18	55.31	1.9482	400.8375
10456	1509396456	54.5661	-110.2997	854.2	271.9	184.2	2.8	3.4	-0.18	55.31	1.9505	399.5413
10457	1509396457	54.5654	-110.2998	854.4	271.4	184.2	2.9	3.3	-0.18	55.31	1.9509	400.0652
10458	1509396458	54.5646	-110.2998	854.1	271.1	184.1	2.8	3.4	-0.18	55.30	1.9499	400.1051
10459	1509396459	54.5639	-110.2999	853.6	270.6	183.7	2.4	3.8	-0.18	55.30	1.9488	400.7709
10460	1509396460	54.5632	-110.2999	853.6	271.1	183.6	2.4	3.8	-0.17	55.30	1.9475	400.7401
10461	1509396461	54.5626	-110.2999	853.4	271.4	184.4	3.5	3.7	-0.17	55.30	1.9469	399.9997
10462	1509396462	54.5619	-110.3000	853.1	272.3	184.4	3.7	3.6	-0.17	55.30	1.9488	401.0044
10463	1509396463	54.5613	-110.3000	852.8	273.9	184.2	3.7	3.6	-0.17	55.29	1.9476	400.4561
10464	1509396464	54.5606	-110.3000	852.5	275.2	184.0	3.5	3.2	-0.17	55.29	1.9489	399.4401
10465	1509396465	54.5600	-110.3001	852.3	277.9	183.6	2.5	3.1	-0.17	55.29	1.9489	399.5457
10466	1509396466	54.5593	-110.3001	852.6	281.0	184.2	2.1	3.1	-0.17	55.29	1.9484	399.9671
10467	1509396467	54.5587	-110.3002	852.8	285.2	186.1	2.8	3.2	-0.17	55.29	1.9479	399.9671
10468	1509396468	54.5580	-110.3003	853.2	292.5	188.5	3.4	3.6	-0.17	55.28	1.9495	400.3940
10469	1509396469	54.5574	-110.3004	853.7	298.1	190.5	3.2	3.9	-0.17	55.28	1.9477	400.5006
10470	1509396470	54.5568	-110.3006	854.0	302.1	193.5	3.7	3.9	-0.17	55.28	1.9470	400.5006
10471	1509396471	54.5561	-110.3008	854.6	304.9	195.8	3.4	3.8	-0.17	55.28	1.9481	400.1401
10472	1509396472	54.5556	-110.3011	854.9	307.7	198.2	3.5	3.6	-0.17	55.28	1.9479	400.0412
10473	1509396473	54.5549	-110.3015	855.2	310.1	200.8	3.4	3.7	-0.17	55.27	1.9496	400.0412
10474	1509396474	54.5543	-110.3019	855.2	310.2	203.4	3.6	3.7	-0.17	55.27	1.9497	397.2930
10475	1509396475	54.5540	-110.3021	855.2	310.2	204.6	3.6	3.8	-0.17	55.27	1.9467	399.4549
10476	1509396476	54.5538	-110.3022	855.1	310.1	205.4	3.6	3.8	-0.17	55.27	1.9472	399.8997
10477	1509396477	54.5532	-110.3028	854.9	309.9	208.3	3.6	3.8	-0.17	55.27	1.9466	399.8061
10478	1509396478	54.5525	-110.3034	854.6	309.6	211.4	3.6	3.8	-0.16	55.27	1.9463	399.7486
10479	1509396479	54.5519	-110.3040	854.4	309.4	214.0	3.4	4.0	-0.16	55.26	1.9471	400.0777
10480	1509396480	54.5513	-110.3048	853.8	308.8	217.1	3.4	3.9	-0.16	55.26	1.9480	399.4980
10481	1509396481	54.5507	-110.3056	853.2	308.4	219.9	3.3	3.9	-0.16	55.26	1.9470	400.1746
10482	1509396482	54.5502	-110.3064	852.3	303.0	222.8	3.3	4.0	-0.16	55.26	1.9483	400.6902
10483	1509396483	54.5497	-110.3073	850.9	296.6	226.0	3.4	3.9	-0.16	55.26	1.9487	399.9430
10484	1509396484	54.5492	-110.3081	849.3	293.3	228.5	3.4	4.3	-0.16	55.25	1.9474	399.9430
10485	1509396485	54.5488	-110.3090	847.5	290.5	230.9	3.2	4.3	-0.16	55.25	1.9490	399.6890
10486	1509396486	54.5485	-110.3098	845.5	289.4	233.1	2.7	4.5	-0.16	55.25	1.9499	399.6890
10487	1509396487	54.5481	-110.3108	843.2	287.3	236.0	2.8	4.0	-0.16	55.25	1.9475	400.5415
10488	1509396488	54.5478	-110.3117	840.9	286.9	239.2	3.0	4.0	-0.16	55.25	1.9483	400.8768
10489	1509396489	54.5475	-110.3127	838.2	284.6	241.2	2.4	4.6	-0.16	55.24	1.9495	400.2113
10490	1509396490	54.5472	-110.3137	833.7	280.7	244.4	2.0	4.6	-0.16	55.24	1.9476	401.5304
10491	1509396491	54.5470	-110.3148	828.4	276.5	248.9	2.1	4.3	-0.16	55.24	1.9487	400.1057
10492	1509396492	54.5468	-110.3159	823.7	271.9	253.2	2.1	4.3	-0.16	55.24	1.9480	400.1653
10493	1509396493	54.5466	-110.3170	820.2	269.9	257.1	1.9	4.9	-0.16	55.24	1.9486	400.0222
10494	1509396494	54.5465	-110.3181	817.7	268.0	261.4	2.2	4.5	-0.16	55.23	1.9505	400.3523
10495	1509396495	54.5465	-110.3193	815.6	265.0	266.1	1.8	4.1	-0.16	55.23	1.9507	399.9974
10496	1509396496	54.5465	-110.3205	815.0	260.7	269.7	1.8	4.5	-0.15	55.23	1.9505	399.6345
10497	1509396497	54.5466	-110.3216	816.0	257.4	273.2	2.4	3.6	-0.15	55.23	1.9491	399.6345
10498	1509396498	54.5467	-110.3228	816.6	258.3	275.0	2.6	3.6	-0.15	55.23	1.9495	400.5694
10499	1509396499	54.5468	-110.3240	816.7	262.4	276.2	2.3	3.6	-0.15	55.22	1.9480	400.3778
10500	1509396500	54.5469	-110.3251	817.1	267.5	276.8	2.3	3.8	-0.15	55.22	1.9483	400.0010
10501	1509396501	54.5470	-110.3263	819.4	265.4	277.0	2.8	4.1	-0.15	55.22	1.9483	399.3514
10502	1509396502	54.5471	-110.3274	821.4	263.0	277.7	2.7	4.3	-0.15	55.22	1.9476	399.9278
10503	1509396503	54.5473	-110.3286	822.7	260.3	279.4	2.7	3.9	-0.15	55.22	1.9496	400.4945
10504	1509396504	54.5474	-110.3297	824.0	262.7	281.0	3.0	3.6	-0.15	55.22	1.9500	398.8574
10505	1509396505	54.5476	-110.3308	826.1	263.2	281.8	3.1	3.7	-0.15	55.21	1.9496	399.8425
10506	1509396506	54.5478	-110.3319	828.3	263.8	281.8	3.0	4.3	-0.15	55.21	1.9495	399.7071
10507	1509396507	54.5480	-110.3330	830.8	261.8	282.3	2.7	3.9	-0.15	55.21	1.9497	400.1066
10508	1509396508	54.5481	-110.3341	832.9	261.4	282.4	2.4	3.9	-0.15	55.21	1.9503	399.9181
10509	1509396509	54.5483	-110.3352	834.7	261.6	282.9	2.2	3.5	-0.15	55.21	1.9510	399.8577
10510	1509396510	54.5485	-110.3363	836.1	261.1	282.3	2.4	3.9	-0.15	55.20	1.9501	399.1443
10511	1509396511	54.5487	-110.3374	837.2	261.2	282.4	2.2	3.4	-0.15	55.20	1.9489	399.9437
10512	1509396512	54.5488	-110.3384	838.0	263.6	281.4	2.0	4.0	-0.15	55.20	1.9505	401.4665
10513	1509396513	54.5490	-110.3396	837.7	269.8	281.3	1.7	3.6	-0.15	55.20	1.9508	399.7967
10514	1509396514	54.5492	-110.3407	837.0	278.2	280.4	1.9	4.2	-0.14	55.20	1.9569	399.9512
10515	1509396515	54.5493	-110.3418	836.7	281.7	280.3	2.1	4.1	-0.14	55.19	1.9577	399.3361
10516	1509396516	54.5495	-110.3429	835.7	281.7	280.3	2.2	4.1	-0.14	55.19	1.9538	399.3361
10517	1509396517	54.5496	-110.3440	834.6	279.6	280.3	2.4	4.1	-0.14	55.19	1.9541	400.5989
10518	1509396518	54.5498	-110.3451	833.6	278.6	280.7	2.3	4.2	-0.14	55.19	1.9576	399.3325
10519	1509396519	54.5500	-110.3462	833.0	278.0	281.0	2.3	4.5	-0.14	55.19	1.9577	399.1109
10520	1509396520	54.5501	-110.3473	832.7	276.9	282.2	2.2	4.0	-0.14	55.18	1.9546	400.3537
10521	1509396521	54.5503	-110.3485	832.4	277.4	283.5	2.5	3.3	-0.14	55.18	1.9552	399.3814
10522	1509396522	54.5505	-110.3496	832.5	278.5	283.8	2.6	3.6	-0.14	55.18	1.9532	399.3075
10523	1509396523	54.5507	-110.3506	832.6	279.6	284.1	2.5	3.3	-0.14	55.18	1.9520	400.3211
10524	1509396524	54.5509	-110.3518	832.8	278.2	283.7	2.1	3.7	-0.14	55.18	1.9532	400.0019
10525	1509396525	54.5511	-110.3528	832.6	274.3	283.1	2.2	4.1	-0.14	55.18	1.9532	399.2400
10526	1509396526	54.5513	-110.3539	832.3	260.5	283.3	2.0	3.8	-0.14	55.17	1.9531	399.5134
10527	1509396527	54.5515	-110.3551	832.0	244.9	283.7	1.9	3.4	-0.14	55.17	1.9531	400.2423
10528	1509396528	54.5517	-110.3562	831.8	234.5	284.0	1.7	3.2	-0.14	55.17	1.9525	400.1452
10529	1509396529	54.5519	-110.3573	831.8	230.9	283.7	1.7	3.3	-0.14	55.17	1.9520	399.9976
10530	1509396530	54.5521	-110.3583	831.7	226.7	283.4	1.6	3.3	-0.14	55.17	1.9541	398.9983
10531	1509396531	54.5522	-110.3595	831.1	222.8	282.0	1.4	4.2	-0.14	55.16	1.9526	400.6093
10532	1509396532	54.5524	-110.3606	830.4	219.8	281.1	1.5	4.5	-0.13	55.16	1.9526	399.4929
10533	1509396533	54.5526	-110.3617	829.8	216.1	280.7	1.9	4.3	-0.13	55.16	1.9532	400.3093
10534	1509396534	54.5527	-110.3626	829.4	213.9	280.5	2.1	4.3	-0.13	55.16	1.9530	400.0362
10535	1509396535	54.5528	-110.3629	829.2	213.6	280.4	2.1	4.3	-0.13	55.16	1.9541	399.7696
10536	1509396536	54.5528	-110.3634	829.1	211.4	280.3	2.0	4.3	-0.13	55.15	1.9554	399.4305
10537	1509396537	54.5530	-110.3646	829.0	211.0	280.1	1.5	4.0	-0.13	55.15	1.9563	399.4306
10538	1509396538	54.5532	-110.3659	829.1	213.1	279.3	1.6	4.5	-0.13	55.15	1.9578	399.5025
10539	1509396539	54.5533	-110.3672	829.1	215.0	279.1	1.5	4.3	-0.13	55.15	1.9577	399.1377
10540	1509396540	54.5535	-110.3685	829.2	217.8	278.9	0.9	4.2	-0.13	55.15	1.9577	399.8755
10541	1509396541	54.5537	-110.3698	829.6	222.6	278.6	0.6	4.2	-0.13	55.14	1.9548	399.5689
10542	1509396542	54.5538	-110.3712	829.9	226.9	278.7	0.6	3.9	-0.13	55.14	1.9584	399.5580
10543	1509396543	54.5540	-110.3725	830.2	230.2	277.9	1.2	4.6	-0.13	55.14	1.9573	399.5932
10544	1509396544	54.5541	-110.3737	830.4	231.7	277.9	1.6	4.4	-0.13	55.14	1.9567	399.5932
10545	1509396545	54.5543	-110.3750	830.7	233.4	278.0	1.8	4.3	-0.13	55.14	1.9562	399.7958
10546	1509396546	54.5544	-110.3763	831.1	234.0	278.3	2.2	3.6	-0.13	55.14	1.9560	400.4621
10547	1509396547	54.5546	-110.3775	831.4	236.5	278.7	1.7	3.2	-0.13	55.13	1.9561	399.2740
10548	1509396548	54.5547	-110.3786	832.0	238.0	278.7	1.6	3.2	-0.13	55.13	1.9553	399.0788
10549	1509396549	54.5548	-110.3797	832.3	238.3	278.0	1.2	3.9	-0.13	55.13	1.9559	399.9158
10550	1509396550	54.5550	-110.3808	832.4	239.3	278.1	1.2	3.8	-0.12	55.13	1.9551	399.9158
10551	1509396551	54.5551	-110.3819	832.3	241.2	277.9	1.8	4.3	-0.12	55.13	1.9570	402.1513
10552	1509396552	54.5552	-110.3831	832.4	245.6	277.7	2.9	4.3	-0.12	55.12	1.9561	403.4523
10553	1509396553	54.5554	-110.3842	833.0	249.9	278.3	2.9	3.8	-0.12	55.12	1.9606	404.1723
10554	1509396554	54.5555	-110.3853	833.7	252.7	278.4	2.5	4.0	-0.12	55.12	1.9628	404.1723
10555	1509396555	54.5556	-110.3865	834.6	249.2	278.3	2.6	4.2	-0.12	55.12	1.9616	404.9165
10556	1509396556	54.5558	-110.3876	835.8	247.6	278.2	2.6	4.3	-0.12	55.12	1.9624	404.3799
10557	1509396557	54.5559	-110.3887	836.8	245.2	278.0	2.3	4.3	-0.12	55.11	1.9610	404.6044
10558	1509396558	54.5560	-110.3898	837.4	244.8	278.8	1.7	3.6	-0.12	55.11	1.9628	408.6126
10559	1509396559	54.5562	-110.3909	837.4	242.4	279.1	1.4	3.4	-0.12	55.11	1.9586	418.4766
10560	1509396560	54.5563	-110.3921	836.7	240.7	278.5	1.4	4.3	-0.12	55.11	1.9558	421.3857
10561	1509396561	54.5564	-110.3932	836.1	238.0	278.0	1.3	5.0	-0.12	55.11	1.9526	415.2253
10562	1509396562	54.5566	-110.3943	838.8	239.0	277.5	1.7	5.3	-0.12	55.10	1.9522	401.3811
10563	1509396563	54.5567	-110.3954	843.2	241.5	277.4	2.3	5.4	-0.12	55.10	1.9517	400.1050
10564	1509396564	54.5569	-110.3965	847.7	245.7	277.9	2.5	5.0	-0.12	55.10	1.9526	400.2411
10565	1509396565	54.5570	-110.3976	852.2	250.2	277.8	2.9	5.4	-0.12	55.10	1.9507	400.7848
10566	1509396566	54.5571	-110.3987	857.4	255.4	278.3	3.1	4.8	-0.12	55.10	1.9500	399.7986
10567	1509396567	54.5573	-110.3998	862.2	259.9	278.7	2.8	4.5	-0.12	55.09	1.9489	400.8265
10568	1509396568	54.5574	-110.4008	866.4	264.0	278.1	2.9	5.2	-0.11	55.09	1.9470	400.2857
10569	1509396569	54.5575	-110.4019	870.8	267.0	278.1	3.1	4.9	-0.11	55.09	1.9480	400.6146
10570	1509396570	54.5577	-110.4029	874.7	271.7	277.8	2.9	5.0	-0.11	55.09	1.9487	398.9890
10571	1509396571	54.5578	-110.4040	877.6	273.6	278.1	2.8	4.7	-0.11	55.09	1.9490	400.0361
10572	1509396572	54.5579	-110.4050	880.2	275.2	277.7	3.1	5.0	-0.11	55.09	1.9489	399.9458
10573	1509396573	54.5581	-110.4061	882.6	276.6	277.4	3.1	5.2	-0.11	55.08	1.9484	398.4438
10574	1509396574	54.5582	-110.4071	884.6	278.6	277.3	2.6	5.1	-0.11	55.08	1.9476	399.2312
10575	1509396575	54.5583	-110.4081	885.9	279.9	277.5	2.3	5.0	-0.11	55.08	1.9479	400.2086
10576	1509396576	54.5585	-110.4092	887.4	282.3	277.0	2.5	5.4	-0.11	55.08	1.9488	399.5856
10577	1509396577	54.5586	-110.4102	888.3	284.5	277.0	2.8	5.3	-0.11	55.08	1.9477	399.3230
10578	1509396578	54.5587	-110.4113	889.4	287.4	276.4	2.5	5.7	-0.11	55.07	1.9487	399.3156
10579	1509396579	54.5588	-110.4123	890.3	289.3	276.9	2.9	5.1	-0.11	55.07	1.9490	400.2086
10580	1509396580	54.5589	-110.4134	891.2	290.9	276.3	3.0	5.7	-0.11	55.07	1.9487	399.8261
10581	1509396581	54.5591	-110.4144	891.7	291.7	276.2	2.8	5.8	-0.11	55.07	1.9483	400.0729
10582	1509396582	54.5592	-110.4154	891.9	292.0	276.6	2.4	5.6	-0.11	55.07	1.9499	400.0924
10583	1509396583	54.5593	-110.4164	892.3	292.6	276.6	2.8	5.7	-0.11	55.06	1.9489	400.3256
10584	1509396584	54.5594	-110.4175	892.7	292.7	276.8	2.7	5.4	-0.11	55.06	1.9486	398.7192
10585	1509396585	54.5595	-110.4185	893.2	291.2	276.4	2.6	5.8	-0.11	55.06	1.9491	400.6355
10586	1509396586	54.5597	-110.4196	893.6	289.6	276.8	2.5	5.3	-0.10	55.06	1.9479	399.7075
10587	1509396587	54.5598	-110.4207	894.2	288.1	276.6	3.0	5.5	-0.10	55.06	1.9478	399.7075
10588	1509396588	54.5599	-110.4217	895.0	288.0	276.8	2.5	5.5	-0.10	55.05	1.9476	399.7075
10589	1509396589	54.5600	-110.4228	895.8	288.6	276.7	2.4	5.4	-0.10	55.05	1.9475	399.7075
10590	1509396590	54.5602	-110.4238	896.3	289.2	277.2	2.3	4.9	-0.10	55.05	1.9488	400.6924
10591	1509396591	54.5603	-110.4248	896.9	291.9	277.0	2.2	5.3	-0.10	55.05	1.9494	399.9648
10592	1509396592	54.5604	-110.4259	897.5	293.5	277.1	2.1	5.2	-0.10	55.05	1.9485	400.4113
10593	1509396593	54.5605	-110.4269	897.8	294.8	277.3	2.0	5.1	-0.10	55.05	1.9499	399.3005
10594	1509396594	54.5607	-110.4280	898.4	297.4	277.1	2.0	5.2	-0.10	55.04	1.9511	400.1645
10595	1509396595	54.5607	-110.4283	898.8	298.4	276.9	2.1	5.3	-0.10	55.04	1.9494	400.3166
10596	1509396596	54.5607	-110.4284	898.9	299.0	276.9	2.1	5.3	-0.10	55.04	1.9506	398.2923
10597	1509396597	54.5607	-110.4285	899.0	299.1	276.8	2.1	5.4	-0.10	55.04	1.9511	400.3335
10598	1509396598	54.5607	-110.4286	899.2	299.2	276.8	2.1	5.4	-0.10	55.04	1.9511	399.8232
10599	1509396599	54.5607	-110.4286	899.3	299.3	276.7	2.0	5.5	-0.10	55.03	1.9511	400.0606
10600	1509396600	54.5608	-110.4287	899.4	299.4	276.6	1.7	5.6	-0.10	55.03	1.9517	398.5547
10601	1509396601	54.5608	-110.4290	900.0	300.3	276.5	1.7	5.6	-0.10	55.03	1.9527	400.0719
10602	1509396602	54.5609	-110.4302	902.7	303.2	276.8	1.9	5.0	-0.10	55.03	1.9534	399.8623
10603	1509396603	54.5611	-110.4314	906.1	308.0	277.0	2.5	4.9	-0.10	55.03	1.9521	399.7350
10604	1509396604	54.5612	-110.4327	909.2	309.9	276.8	2.9	4.9	-0.09	55.02	1.9521	400.6821
10605	1509396605	54.5614	-110.4339	911.2	311.1	276.0	2.9	5.4	-0.09	55.02	1.9526	400.6821
10606	1509396606	54.5615	-110.4351	913.3	310.4	276.0	2.7	4.8	-0.09	55.02	1.9546	399.6448
10607	1509396607	54.5616	-110.4363	915.5	312.8	275.5	2.7	4.9	-0.09	55.02	1.9532	399.3864
10608	1509396608	54.5617	-110.4375	917.4	314.1	274.8	2.9	5.3	-0.09	55.02	1.9540	399.1831
10609	1509396609	54.5618	-110.4387	920.2	317.8	274.5	3.1	5.3	-0.09	55.01	1.9543	399.4111
10610	1509396610	54.5620	-110.4399	922.1	319.1	275.1	3.0	4.6	-0.09	55.01	1.9530	399.4829
10611	1509396611	54.5621	-110.4411	923.2	321.2	274.9	3.0	4.7	-0.09	55.01	1.9547	399.2846
10612	1509396612	54.5622	-110.4423	925.2	324.2	273.9	3.2	5.4	-0.09	55.01	1.9543	400.1292
10613	1509396613	54.5623	-110.4435	926.9	325.5	274.4	2.9	4.8	-0.09	55.01	1.9535	399.8493
10614	1509396614	54.5624	-110.4447	928.4	328.0	273.7	3.0	5.3	-0.09	55.00	1.9537	399.6354
10615	1509396615	54.5625	-110.4458	930.4	332.1	273.2	3.5	5.9	-0.09	55.00	1.9549	398.9702
10616	1509396616	54.5626	-110.4470	932.4	334.7	273.6	3.2	5.3	-0.09	55.00	1.9555	399.9495
10617	1509396617	54.5627	-110.4482	934.3	337.3	274.7	2.5	4.7	-0.09	55.00	1.9512	400.4310
10618	1509396618	54.5628	-110.4493	936.7	339.7	273.7	2.9	5.5	-0.09	55.00	1.9489	398.6487
10619	1509396619	54.5629	-110.4505	939.4	342.4	274.9	3.8	3.8	-0.09	55.00	1.9502	399.7101
10620	1509396620	54.5630	-110.4516	942.3	345.6	273.3	4.4	5.4	-0.09	54.99	1.9542	400.1723
10621	1509396621	54.5631	-110.4528	943.7	347.7	273.7	3.8	4.9	-0.09	54.99	1.9530	399.7119
10622	1509396622	54.5632	-110.4540	944.6	348.8	273.5	4.2	5.1	-0.08	54.99	1.9513	400.3652
10623	1509396623	54.5633	-110.4552	946.0	351.0	273.8	4.8	5.1	-0.08	54.99	1.9492	399.7939
10624	1509396624	54.5634	-110.4564	947.3	352.3	274.1	4.7	5.1	-0.08	54.99	1.9469	399.7939
10625	1509396625	54.5635	-110.4575	947.7	353.0	274.7	4.7	4.9	-0.08	54.98	1.9447	400.4700
10626	1509396626	54.5636	-110.4587	948.9	355.0	274.7	5.2	5.2	-0.08	54.98	1.9429	399.4836
10627	1509396627	54.5637	-110.4599	950.8	356.8	274.9	5.4	4.9	-0.08	54.98	1.9424	400.7161
10628	1509396628	54.5638	-110.4611	952.5	359.4	274.8	5.4	5.1	-0.08	54.98	1.9430	399.6742
10629	1509396629	54.5639	-110.4622	954.0	363.8	275.0	5.5	4.9	-0.08	54.98	1.9439	399.1321
10630	1509396630	54.5641	-110.4634	954.9	365.9	275.2	5.4	4.8	-0.08	54.97	1.9439	399.4658
10631	1509396631	54.5642	-110.4646	954.9	366.3	275.0	5.3	5.2	-0.08	54.97	1.9439	400.0173
10632	1509396632	54.5643	-110.4657	954.8	366.1	275.4	5.0	4.9	-0.08	54.97	1.9440	398.5237
10633	1509396633	54.5644	-110.4669	954.4	366.4	275.7	5.2	5.0	-0.08	54.97	1.9450	400.6471
10634	1509396634	54.5645	-110.4681	953.7	364.7	276.3	5.1	4.9	-0.08	54.97	1.9456	400.3839
10635	1509396635	54.5647	-110.4693	952.6	364.3	276.6	5.2	5.0	-0.08	54.96	1.9468	400.4812
10636	1509396636	54.5648	-110.4705	951.0	362.7	277.0	5.1	4.8	-0.08	54.96	1.9466	400.0150
10637	1509396637	54.5650	-110.4717	949.3	361.2	277.2	4.7	5.1	-0.08	54.96	1.9468	402.1546
10638	1509396638	54.5651	-110.4729	947.5	358.8	277.9	4.6	4.7	-0.08	54.96	1.9481	400.7859
10639	1509396639	54.5653	-110.4741	945.5	356.8	278.0	4.6	4.8	-0.08	54.96	1.9479	400.2798
10640	1509396640	54.5654	-110.4753	943.2	354.2	277.8	4.4	5.1	-0.07	54.96	1.9513	400.4391
10641	1509396641	54.5656	-110.4764	938.7	349.4	277.9	4.3	5.2	-0.07	54.95	1.9584	400.7899
10642	1509396642	54.5657	-110.4776	932.3	343.1	277.9	4.1	5.2	-0.07	54.95	1.9606	401.7845
10643	1509396643	54.5659	-110.4787	926.0	334.9	277.8	3.8	5.3	-0.07	54.95	1.9618	401.5213
10644	1509396644	54.5660	-110.4797	919.9	327.7	278.2	3.4	4.8	-0.07	54.95	1.9649	400.6408
10645	1509396645	54.5661	-110.4809	914.1	319.4	278.0	2.8	4.8	-0.07	54.95	1.9657	400.5306
10646	1509396646	54.5663	-110.4820	909.6	313.6	277.5	2.5	5.1	-0.07	54.94	1.9651	400.5306
10647	1509396647	54.5664	-110.4831	905.0	307.1	277.3	2.1	5.0	-0.07	54.94	1.9645	400.5306
10648	1509396648	54.5665	-110.4843	901.4	301.7	276.6	2.4	5.5	-0.07	54.94	1.9639	400.5306
10649	1509396649	54.5667	-110.4854	898.2	298.2	276.8	2.8	5.1	-0.07	54.94	1.9633	400.5306
10650	1509396650	54.5668	-110.4865	894.6	295.3	277.0	2.8	5.1	-0.07	54.94	1.9681	399.5377
10651	1509396651	54.5669	-110.4877	891.4	291.3	277.7	2.5	4.9	-0.07	54.93	1.9681	399.8918
10652	1509396652	54.5671	-110.4889	889.6	289.6	278.0	2.4	5.0	-0.07	54.93	1.9706	399.8440
10653	1509396653	54.5672	-110.4900	887.7	289.4	278.5	2.7	4.7	-0.07	54.93	1.9666	400.4523
10654	1509396654	54.5674	-110.4912	885.5	288.2	278.5	2.9	4.9	-0.07	54.93	1.9670	400.9137
10655	1509396655	54.5674	-110.4916	884.8	287.6	278.5	2.9	4.9	-0.07	54.93	1.9668	400.8310
10656	1509396656	54.5674	-110.4918	884.6	287.6	278.5	2.8	4.9	-0.07	54.92	1.9667	399.9828
10657	1509396657	54.5675	-110.4919	884.4	287.4	278.5	2.8	4.9	-0.07	54.92	1.9672	400.2586
10658	1509396658	54.5675	-110.4921	884.1	287.1	278.6	2.3	4.9	-0.06	54.92	1.9664	398.7454
10659	1509396659	54.5676	-110.4933	882.8	286.9	278.6	2.2	5.0	-0.06	54.92	1.9629	399.9067
10660	1509396660	54.5678	-110.4946	883.1	287.1	278.3	2.8	5.2	-0.06	54.92	1.9627	401.0132
10661	1509396661	54.5680	-110.4960	882.9	287.9	278.3	2.9	5.2	-0.06	54.91	1.9631	400.7820
10662	1509396662	54.5682	-110.4973	882.7	288.3	278.5	3.0	5.3	-0.06	54.91	1.9607	400.7172
10663	1509396663	54.5683	-110.4986	882.2	287.9	279.1	2.9	4.8	-0.06	54.91	1.9622	398.9484
10664	1509396664	54.5685	-110.5000	881.5	286.0	279.2	2.7	5.2	-0.06	54.91	1.9654	399.9939
10665	1509396665	54.5687	-110.5013	881.0	283.0	278.9	2.7	5.6	-0.06	54.91	1.9667	399.8328
10666	1509396666	54.5689	-110.5026	880.6	280.9	279.2	2.4	5.2	-0.06	54.91	1.9668	400.6721
10667	1509396667	54.5691	-110.5040	880.2	279.8	279.1	2.3	5.5	-0.06	54.90	1.9670	400.3978
10668	1509396668	54.5692	-110.5053	879.9	278.8	279.7	1.8	4.5	-0.06	54.90	1.9694	400.6130
10669	1509396669	54.5694	-110.5066	880.2	278.2	279.3	1.6	5.0	-0.06	54.90	1.9740	400.6202
10670	1509396670	54.5696	-110.5079	881.4	278.4	278.8	1.5	5.1	-0.06	54.90	1.9741	400.2443
10671	1509396671	54.5698	-110.5092	882.3	279.3	279.3	1.6	4.8	-0.06	54.90	1.9741	400.4854
10672	1509396672	54.5699	-110.5105	882.2	279.2	279.0	1.2	5.3	-0.06	54.89	1.9737	399.6558
10673	1509396673	54.5701	-110.5118	882.2	279.2	279.0	1.0	5.2	-0.06	54.89	1.9729	400.2539
10674	1509396674	54.5703	-110.5132	881.7	279.0	279.6	1.2	4.4	-0.06	54.89	1.9727	400.1720
10675	1509396675	54.5705	-110.5144	881.5	279.5	279.5	1.8	4.7	-0.06	54.89	1.9734	401.1252
10676	1509396676	54.5707	-110.5158	880.5	278.5	278.8	2.2	5.5	-0.05	54.89	1.9741	400.2693
10677	1509396677	54.5708	-110.5171	880.1	278.1	279.0	1.9	5.2	-0.05	54.88	1.9736	398.9836
10678	1509396678	54.5710	-110.5184	879.8	278.8	280.1	1.2	4.1	-0.05	54.88	1.9727	400.0602
10679	1509396679	54.5712	-110.5197	879.9	280.8	279.7	1.1	4.6	-0.05	54.88	1.9708	399.5578
10680	1509396680	54.5714	-110.5211	880.4	283.4	279.1	1.8	5.4	-0.05	54.88	1.9719	400.3064
10681	1509396681	54.5716	-110.5224	880.9	289.3	278.6	2.0	5.7	-0.05	54.88	1.9716	400.3064
10682	1509396682	54.5717	-110.5235	881.3	291.3	278.9	2.0	5.1	-0.05	54.87	1.9746	400.7981
10683	1509396683	54.5719	-110.5247	880.9	289.8	278.5	1.8	5.2	-0.05	54.87	1.9724	400.7981
10684	1509396684	54.5720	-110.5258	879.5	285.2	278.9	1.1	4.4	-0.05	54.87	1.9731	400.1708
10685	1509396685	54.5722	-110.5270	878.3	280.3	278.1	1.0	4.9	-0.05	54.87	1.9731	400.0889
10686	1509396686	54.5723	-110.5282	876.9	275.3	277.2	0.9	5.6	-0.05	54.87	1.9739	400.8994
10687	1509396687	54.5724	-110.5293	875.1	272.1	277.5	1.7	5.1	-0.05	54.87	1.9738	399.3960
10688	1509396688	54.5726	-110.5305	874.1	270.1	277.5	2.2	5.2	-0.05	54.86	1.9746	399.3960
10689	1509396689	54.5727	-110.5316	874.1	269.1	278.3	2.2	4.3	-0.05	54.86	1.9676	399.8735
10690	1509396690	54.5728	-110.5328	875.8	270.1	278.4	2.1	4.5	-0.05	54.86	1.9694	399.8726
10691	1509396691	54.5730	-110.5340	878.0	272.0	278.3	1.9	4.7	-0.05	54.86	1.9691	399.8726
10692	1509396692	54.5731	-110.5350	880.0	274.0	277.9	2.2	5.2	-0.05	54.86	1.9724	398.5930
10693	1509396693	54.5733	-110.5362	881.9	274.9	277.6	2.5	5.5	-0.05	54.85	1.9745	401.0978
10694	1509396694	54.5734	-110.5373	883.4	276.5	277.9	2.3	5.2	-0.04	54.85	1.9750	400.7761
10695	1509396695	54.5736	-110.5385	885.3	277.3	277.9	2.4	5.3	-0.04	54.85	1.9751	398.6211
10696	1509396696	54.5737	-110.5396	886.8	277.8	277.9	2.6	5.6	-0.04	54.85	1.9762	400.8460
10697	1509396697	54.5738	-110.5407	887.6	278.6	278.6	2.7	5.0	-0.04	54.85	1.9747	400.4492
10698	1509396698	54.5740	-110.5419	888.0	279.0	279.1	2.3	4.6	-0.04	54.84	1.9740	400.2421
10699	1509396699	54.5741	-110.5430	888.4	279.4	279.2	1.9	4.7	-0.04	54.84	1.9769	400.1799
10700	1509396700	54.5743	-110.5441	889.2	279.9	278.4	1.7	5.6	-0.04	54.84	1.9757	399.7720
10701	1509396701	54.5744	-110.5453	890.2	280.2	279.3	1.0	4.8	-0.04	54.84	1.9745	400.6559
10702	1509396702	54.5746	-110.5463	890.0	279.0	278.6	1.4	5.6	-0.04	54.84	1.9699	400.5637
10703	1509396703	54.5747	-110.5474	890.3	278.3	278.6	2.0	4.9	-0.04	54.83	1.9645	400.5637
10704	1509396704	54.5749	-110.5486	891.5	278.5	278.3	2.5	5.2	-0.04	54.83	1.9673	399.9163
10705	1509396705	54.5750	-110.5498	892.5	278.5	277.8	2.6	5.5	-0.04	54.83	1.9705	399.9550
10706	1509396706	54.5752	-110.5509	893.0	278.0	278.1	2.4	5.2	-0.04	54.83	1.9712	400.9631
10707	1509396707	54.5753	-110.5520	893.2	278.2	277.8	2.4	5.5	-0.04	54.83	1.9716	400.9631
10708	1509396708	54.5755	-110.5531	892.9	277.9	277.9	2.2	5.3	-0.04	54.83	1.9720	400.9631
10709	1509396709	54.5756	-110.5542	892.3	277.3	278.2	1.7	4.9	-0.04	54.82	1.9724	400.9631
10710	1509396710	54.5757	-110.5554	892.0	276.0	278.3	1.7	4.7	-0.04	54.82	1.9728	400.9631
10711	1509396711	54.5759	-110.5565	891.9	275.9	278.6	0.8	4.3	-0.04	54.82	1.9732	400.9631
10712	1509396712	54.5760	-110.5576	891.5	274.5	277.7	0.7	5.3	-0.03	54.82	1.9736	400.9631
10713	1509396713	54.5761	-110.5587	890.6	272.6	276.8	1.3	6.1	-0.03	54.82	1.9814	463.6323
10714	1509396714	54.5763	-110.5599	889.3	271.3	277.1	1.6	5.8	-0.03	54.81	1.9703	402.2585
10715	1509396715	54.5763	-110.5602	888.9	270.9	277.1	1.7	5.7	-0.03	54.81	1.9697	400.5849
10716	1509396716	54.5763	-110.5603	888.8	270.8	277.2	1.8	5.7	-0.03	54.81	1.9697	401.1455
10717	1509396717	54.5763	-110.5604	888.7	270.7	277.2	1.9	5.6	-0.03	54.81	1.9699	401.2389
10718	1509396718	54.5764	-110.5605	888.6	270.6	277.2	2.4	5.5	-0.03	54.81	1.9677	401.0627
10719	1509396719	54.5764	-110.5606	888.5	270.5	277.2	1.5	5.6	-0.03	54.80	1.9672	401.0627
10720	1509396720	54.5764	-110.5606	888.4	270.4	277.3	2.0	5.5	-0.03	54.80	1.9662	401.2566
10721	1509396721	54.5764	-110.5609	888.0	270.0	277.4	1.9	5.4	-0.03	54.80	1.9654	401.2566
10722	1509396722	54.5766	-110.5622	886.6	267.9	277.5	2.2	5.1	-0.03	54.80	1.9610	400.0726
10723	1509396723	54.5767	-110.5635	886.0	267.0	276.9	1.7	5.6	-0.03	54.80	1.9607	399.9332
10724	1509396724	54.5769	-110.5648	886.2	266.2	277.1	1.7	5.3	-0.03	54.79	1.9614	399.9510
10725	1509396725	54.5770	-110.5662	886.6	266.6	277.2	1.3	5.2	-0.03	54.79	1.9591	400.7849
10726	1509396726	54.5772	-110.5675	887.2	267.2	277.0	1.3	5.2	-0.03	54.79	1.9603	400.7849
10727	1509396727	54.5773	-110.5688	888.1	268.1	277.1	1.4	5.0	-0.03	54.79	1.9598	400.4964
10728	1509396728	54.5775	-110.5701	889.4	269.4	277.2	1.2	4.7	-0.03	54.79	1.9595	400.2376
10729	1509396729	54.5776	-110.5714	890.9	270.9	276.9	1.2	4.9	-0.03	54.78	1.9599	400.2376
10730	1509396730	54.5778	-110.5727	892.7	272.7	276.7	1.4	5.0	-0.02	54.78	1.9595	399.8708
10731	1509396731	54.5779	-110.5740	894.4	274.4	276.7	1.6	4.9	-0.02	54.78	1.9598	399.8708
10732	1509396732	54.5780	-110.5753	896.0	276.0	276.7	1.8	5.0	-0.02	54.78	1.9575	399.8210
10733	1509396733	54.5782	-110.5766	897.3	277.4	276.4	2.4	5.3	-0.02	54.78	1.9569	399.7011
10734	1509396734	54.5783	-110.5779	898.2	279.2	276.7	2.9	5.1	-0.02	54.78	1.9553	400.5731
10735	1509396735	54.5785	-110.5792	898.5	281.0	276.4	2.9	5.5	-0.02	54.77	1.9557	400.2917
10736	1509396736	54.5786	-110.5805	898.5	281.5	276.6	2.6	5.5	-0.02	54.77	1.9551	399.7985
10737	1509396737	54.5788	-110.5818	899.1	283.1	276.8	2.6	5.2	-0.02	54.77	1.9553	401.1978
10738	1509396738	54.5789	-110.5831	900.0	285.1	276.7	2.7	5.4	-0.02	54.77	1.9551	399.8390
10739	1509396739	54.5791	-110.5845	901.0	285.3	276.4	2.8	5.6	-0.02	54.77	1.9551	400.2644
10740	1509396740	54.5792	-110.5857	902.0	287.0	277.1	2.9	5.1	-0.02	54.76	1.9569	400.4630
10741	1509396741	54.5794	-110.5871	903.0	288.7	277.3	2.9	5.1	-0.02	54.76	1.9578	399.9748
10742	1509396742	54.5795	-110.5883	903.9	294.5	277.3	2.8	5.1	-0.02	54.76	1.9583	400.8847
10743	1509396743	54.5797	-110.5896	904.8	303.8	277.2	2.6	5.3	-0.02	54.76	1.9589	400.4812
10744	1509396744	54.5798	-110.5909	905.9	315.7	277.0	2.5	5.7	-0.02	54.76	1.9590	400.4812
10745	1509396745	54.5800	-110.5922	906.9	315.9	277.2	2.1	5.6	-0.02	54.75	1.9591	401.1881
10746	1509396746	54.5801	-110.5935	907.7	306.6	277.1	2.5	6.2	-0.02	54.75	1.9590	401.3084
10747	1509396747	54.5803	-110.5947	907.9	298.9	277.2	2.5	6.1	-0.02	54.75	1.9586	399.2730
10748	1509396748	54.5805	-110.5960	907.8	298.4	277.9	2.4	5.5	-0.01	54.75	1.9585	400.8949
10749	1509396749	54.5806	-110.5973	907.5	307.9	277.8	2.8	5.8	-0.01	54.75	1.9577	401.4837
10750	1509396750	54.5808	-110.5986	907.1	315.6	277.6	2.7	6.0	-0.01	54.74	1.9568	400.6577
10751	1509396751	54.5810	-110.5998	906.5	319.6	277.8	2.6	5.9	-0.01	54.74	1.9565	401.9693
10752	1509396752	54.5811	-110.6011	905.7	318.7	278.0	2.5	5.7	-0.01	54.74	1.9560	401.2345
10753	1509396753	54.5813	-110.6024	904.9	316.9	278.3	2.8	5.4	-0.01	54.74	1.9586	401.2790
10754	1509396754	54.5815	-110.6037	904.2	310.5	278.2	2.7	5.4	-0.01	54.74	1.9588	399.8617
10755	1509396755	54.5816	-110.6049	901.2	300.2	278.5	2.7	4.8	-0.01	54.74	1.9582	401.7348
10756	1509396756	54.5818	-110.6063	897.1	286.5	278.0	2.8	5.3	-0.01	54.73	1.9575	401.1190
10757	1509396757	54.5820	-110.6076	893.3	274.6	277.4	2.4	5.8	-0.01	54.73	1.9589	401.1784
10758	1509396758	54.5821	-110.6089	890.4	269.4	277.1	2.2	5.9	-0.01	54.73	1.9605	401.5828
10759	1509396759	54.5823	-110.6102	889.7	267.0	276.8	2.2	6.1	-0.01	54.73	1.9605	401.1795
10760	1509396760	54.5824	-110.6114	890.3	266.3	277.2	2.1	5.6	-0.01	54.73	1.9608	401.1795
10761	1509396761	54.5825	-110.6125	890.5	266.5	277.4	2.1	5.5	-0.01	54.72	1.9593	400.3510
10762	1509396762	54.5827	-110.6137	890.5	266.5	277.1	2.2	5.8	-0.01	54.72	1.9596	400.7354
10763	1509396763	54.5828	-110.6148	890.0	267.0	277.2	2.2	5.6	-0.01	54.72	1.9583	399.9498
10764	1509396764	54.5830	-110.6159	888.9	265.9	277.1	2.4	5.6	-0.01	54.72	1.9601	399.7541
10765	1509396765	54.5831	-110.6171	887.5	264.5	277.0	2.0	5.6	-0.01	54.72	1.9600	399.9238
10766	1509396766	54.5832	-110.6183	885.7	262.2	277.5	1.6	5.3	0.00	54.71	1.9598	400.7568
10767	1509396767	54.5834	-110.6194	884.2	259.7	277.5	1.5	5.4	0.00	54.71	1.9600	400.7568
10768	1509396768	54.5835	-110.6206	882.8	257.9	277.7	1.3	5.3	0.00	54.71	1.9602	400.7568
10769	1509396769	54.5836	-110.6216	881.8	255.8	277.3	1.3	5.7	0.00	54.71	1.9604	400.7568
10770	1509396770	54.5838	-110.6228	882.7	255.7	277.7	1.6	5.2	0.00	54.71	1.9600	400.8431
10771	1509396771	54.5839	-110.6240	885.7	258.7	278.2	1.6	5.0	0.00	54.70	1.9603	400.5180
10772	1509396772	54.5841	-110.6251	888.5	261.5	278.2	1.7	5.0	0.00	54.70	1.9609	400.5902
10773	1509396773	54.5842	-110.6263	891.0	264.0	278.9	1.6	4.5	0.00	54.70	1.9614	401.0226
10774	1509396774	54.5844	-110.6274	893.2	266.2	277.8	1.7	5.9	0.00	54.70	1.9612	401.1154
10775	1509396775	54.5844	-110.6278	894.0	267.0	277.6	1.7	6.1	0.00	54.70	1.9611	401.1154
10776	1509396776	54.5844	-110.6280	894.3	267.3	277.7	1.5	6.0	0.00	54.69	1.9620	401.1131
10777	1509396777	54.5844	-110.6281	894.6	267.6	277.8	1.4	5.9	0.00	54.69	1.9625	400.6652
10778	1509396778	54.5845	-110.6284	895.3	268.3	278.0	1.4	5.6	0.00	54.69	1.9621	401.0703
10779	1509396779	54.5847	-110.6297	898.2	272.2	277.9	1.7	5.5	0.00	54.69	1.9621	401.0242
10780	1509396780	54.5848	-110.6310	899.9	273.9	278.1	1.7	5.3	0.00	54.69	1.9629	401.1543
10781	1509396781	54.5850	-110.6323	901.4	274.7	278.2	1.7	5.1	0.00	54.69	1.9628	401.7861
10782	1509396782	54.5851	-110.6336	902.8	276.8	278.1	1.4	5.0	0.00	54.68	1.9613	401.6242
10783	1509396783	54.5853	-110.6349	903.9	278.9	278.0	1.7	5.0	0.01	54.68	1.9588	400.3185
10784	1509396784	54.5855	-110.6362	904.2	281.2	277.6	2.1	5.6	0.01	54.68	1.9583	400.1484
10785	1509396785	54.5856	-110.6375	904.5	285.5	277.7	2.3	5.4	0.01	54.68	1.9596	401.1753
10786	1509396786	54.5858	-110.6388	904.2	286.2	277.5	2.6	5.6	0.01	54.68	1.9568	400.2125
10787	1509396787	54.5859	-110.6401	904.3	282.9	277.7	2.2	5.3	0.01	54.67	1.9555	400.2124
10788	1509396788	54.5861	-110.6414	905.0	283.0	277.4	2.8	5.5	0.01	54.67	1.9541	399.7118
10789	1509396789	54.5863	-110.6427	905.7	283.7	277.9	2.8	5.0	0.01	54.67	1.9574	399.7073
10790	1509396790	54.5864	-110.6440	906.7	282.1	278.0	2.9	5.0	0.01	54.67	1.9569	399.7073
10791	1509396791	54.5866	-110.6453	907.5	280.3	277.6	2.5	5.6	0.01	54.67	1.9603	401.3969
10792	1509396792	54.5867	-110.6465	908.6	277.4	277.4	2.7	6.0	0.01	54.66	1.9634	401.0523
10793	1509396793	54.5869	-110.6478	909.8	275.8	277.6	2.2	5.8	0.01	54.66	1.9630	400.0870
10794	1509396794	54.5871	-110.6491	910.5	274.2	277.8	1.7	5.6	0.01	54.66	1.9648	401.2600
10795	1509396795	54.5872	-110.6503	910.5	271.5	277.9	1.6	5.5	0.01	54.66	1.9647	401.2877
10796	1509396796	54.5874	-110.6516	910.2	269.1	277.8	1.5	5.7	0.01	54.66	1.9655	400.5972
10797	1509396797	54.5876	-110.6529	910.6	268.6	277.4	2.1	6.0	0.01	54.65	1.9670	401.5753
10798	1509396798	54.5877	-110.6541	910.9	268.2	277.9	2.0	5.4	0.01	54.65	1.9677	400.2404
10799	1509396799	54.5878	-110.6552	911.3	268.2	277.6	2.1	5.5	0.01	54.65	1.9684	401.1985
10800	1509396800	54.5880	-110.6563	911.9	269.9	277.7	1.8	5.9	0.01	54.65	1.9657	400.5658
10801	1509396801	54.5881	-110.6574	913.1	271.1	278.1	2.0	7.4	0.02	54.65	1.9651	401.6727
10802	1509396802	54.5883	-110.6585	914.3	272.3	281.4	2.3	7.3	0.02	54.65	1.9667	399.4665
10803	1509396803	54.5885	-110.6596	914.1	272.1	287.2	2.5	6.8	0.02	54.64	1.9643	401.4239
10804	1509396804	54.5888	-110.6606	913.6	271.6	294.7	2.6	6.4	0.02	54.64	1.9630	400.8993
10805	1509396805	54.5892	-110.6616	913.6	270.6	303.9	2.7	5.7	0.02	54.64	1.9608	401.0064
10806	1509396806	54.5897	-110.6624	915.1	272.1	313.0	3.2	5.9	0.02	54.64	1.9598	402.1201
10807	1509396807	54.5902	-110.6631	917.0	274.0	321.6	3.8	6.5	0.02	54.64	1.9633	400.4414
10808	1509396808	54.5908	-110.6637	917.7	274.7	330.6	3.8	6.2	0.02	54.63	1.9617	398.3267
10809	1509396809	54.5915	-110.6641	916.9	273.9	340.5	3.3	5.8	0.02	54.63	1.9601	400.2829
10810	1509396810	54.5921	-110.6643	915.6	272.6	348.3	3.8	6.0	0.02	54.63	1.9584	399.3102
10811	1509396811	54.5928	-110.6645	914.1	272.1	353.7	3.3	5.9	0.02	54.63	1.9589	400.2998
10812	1509396812	54.5936	-110.6645	910.1	268.1	357.7	2.7	5.5	0.02	54.63	1.9609	400.8870
10813	1509396813	54.5943	-110.6645	907.2	266.2	0.1	3.2	5.8	0.02	54.62	1.9628	400.6054
10814	1509396814	54.5950	-110.6644	905.8	264.8	1.3	3.3	5.5	0.02	54.62	1.9642	401.9750
10815	1509396815	54.5957	-110.6643	901.5	260.5	2.5	2.0	5.3	0.02	54.62	1.9612	401.3992
10816	1509396816	54.5964	-110.6642	895.0	254.0	3.1	1.8	5.3	0.02	54.62	1.9618	401.1714
10817	1509396817	54.5972	-110.6641	888.1	247.1	2.4	2.5	5.6	0.02	54.62	1.9617	401.2474
10818	1509396818	54.5979	-110.6640	880.9	239.9	3.0	1.8	5.2	0.02	54.61	1.9584	401.7850
10819	1509396819	54.5986	-110.6639	872.5	231.5	2.8	2.4	5.2	0.03	54.61	1.9630	401.4468
10820	1509396820	54.5994	-110.6638	865.1	223.4	3.3	2.2	5.5	0.03	54.61	1.9640	400.4070
10821	1509396821	54.6001	-110.6637	858.6	215.6	4.5	1.1	5.4	0.03	54.61	1.9669	400.7047
10822	1509396822	54.6009	-110.6636	852.6	208.7	4.3	1.4	5.1	0.03	54.61	1.9651	401.1386
10823	1509396823	54.6016	-110.6635	847.3	202.3	4.9	0.9	5.7	0.03	54.60	1.9635	401.3208
10824	1509396824	54.6024	-110.6634	842.3	195.9	4.7	1.1	5.6	0.03	54.60	1.9663	400.9098
10825	1509396825	54.6032	-110.6633	837.0	190.0	4.5	0.6	5.2	0.03	54.60	1.9673	401.6880
10826	1509396826	54.6040	-110.6632	832.6	184.6	3.2	1.3	5.1	0.03	54.60	1.9658	401.0277
10827	1509396827	54.6047	-110.6631	831.1	182.4	2.9	0.9	4.7	0.03	54.60	1.9659	401.0277
10828	1509396828	54.6055	-110.6630	829.7	180.7	3.0	0.6	4.7	0.03	54.60	1.9661	401.0277
10829	1509396829	54.6063	-110.6629	829.2	179.2	2.8	1.0	4.4	0.03	54.59	1.9662	401.0277
10830	1509396830	54.6070	-110.6629	831.5	180.5	3.4	0.2	3.5	0.03	54.59	1.9663	401.0277
10831	1509396831	54.6078	-110.6628	834.0	183.0	3.8	-0.1	4.1	0.03	54.59	1.9664	401.0277
10832	1509396832	54.6086	-110.6627	835.5	184.9	3.6	0.4	4.8	0.03	54.59	1.9666	401.0277
10833	1509396833	54.6093	-110.6626	837.4	187.9	3.5	0.7	5.0	0.03	54.59	1.9667	401.0277
10834	1509396834	54.6101	-110.6625	839.6	191.0	3.6	0.8	5.0	0.03	54.58	1.9679	400.9443
10835	1509396835	54.6103	-110.6625	840.3	191.6	3.5	1.0	5.2	0.03	54.58	1.9647	400.9921
10836	1509396836	54.6104	-110.6625	840.5	191.8	3.5	1.1	5.5	0.03	54.58	1.9651	401.0928
10837	1509396837	54.6104	-110.6625	840.6	191.9	3.5	1.1	5.8	0.04	54.58	1.9668	401.1589
10838	1509396838	54.6105	-110.6625	840.8	192.1	3.5	1.1	6.1	0.04	54.58	1.9672	401.1827
10839	1509396839	54.6105	-110.6625	840.9	192.3	3.5	1.1	6.4	0.04	54.57	1.9669	399.6519
10840	1509396840	54.6106	-110.6625	841.1	193.2	3.5	1.2	6.7	0.04	54.57	1.9654	401.0263
10841	1509396841	54.6106	-110.6625	841.3	193.4	3.5	1.2	7.0	0.04	54.57	1.9656	401.4172
10842	1509396842	54.6113	-110.6624	843.5	195.5	3.8	1.2	5.8	0.04	54.57	1.9667	401.4172
10843	1509396843	54.6122	-110.6622	846.0	199.0	4.1	1.0	5.2	0.04	54.57	1.9657	400.8734
10844	1509396844	54.6130	-110.6621	847.4	201.4	4.4	0.8	5.4	0.04	54.56	1.9649	400.1802
10845	1509396845	54.6139	-110.6620	848.6	202.6	4.6	0.6	5.0	0.04	54.56	1.9660	399.7105
10846	1509396846	54.6148	-110.6619	849.1	202.0	4.3	0.8	4.4	0.04	54.56	1.9649	398.9325
10847	1509396847	54.6156	-110.6618	848.2	200.4	3.2	2.0	4.2	0.04	54.56	1.9646	400.9526
10848	1509396848	54.6165	-110.6617	846.7	198.8	3.5	1.5	4.6	0.04	54.56	1.9645	401.3979
10849	1509396849	54.6173	-110.6615	844.5	195.4	3.4	1.9	5.3	0.04	54.56	1.9654	401.0686
10850	1509396850	54.6182	-110.6614	842.1	193.1	3.8	1.3	5.5	0.04	54.55	1.9654	401.5189
10851	1509396851	54.6191	-110.6613	840.6	191.3	2.9	1.6	5.3	0.04	54.55	1.9652	401.3445
10852	1509396852	54.6199	-110.6612	839.9	189.9	3.1	0.6	5.4	0.04	54.55	1.9643	400.9431
10853	1509396853	54.6208	-110.6611	839.5	188.5	2.1	1.7	5.3	0.04	54.55	1.9651	400.2714
10854	1509396854	54.6217	-110.6611	838.7	187.7	1.6	2.3	5.3	0.04	54.55	1.9655	400.9315
10855	1509396855	54.6225	-110.6610	837.9	186.8	2.2	1.6	5.4	0.05	54.54	1.9656	400.3826
10856	1509396856	54.6234	-110.6609	836.2	186.2	2.2	1.6	5.6	0.05	54.54	1.9665	399.4086
10857	1509396857	54.6243	-110.6608	834.5	184.4	1.8	2.3	5.8	0.05	54.54	1.9653	401.5479
10858	1509396858	54.6251	-110.6607	834.1	185.1	1.8	2.1	6.1	0.05	54.54	1.9660	399.9099
10859	1509396859	54.6260	-110.6606	833.5	184.5	1.9	2.0	5.6	0.05	54.54	1.9649	401.1394
10860	1509396860	54.6269	-110.6606	833.3	185.3	1.8	2.3	5.5	0.05	54.53	1.9645	400.8081
10861	1509396861	54.6278	-110.6605	833.3	185.3	2.2	1.8	5.3	0.05	54.53	1.9657	400.9947
10862	1509396862	54.6286	-110.6604	833.5	186.5	2.5	1.4	4.8	0.05	54.53	1.9657	400.4732
10863	1509396863	54.6295	-110.6603	833.5	185.5	2.1	1.7	4.7	0.05	54.53	1.9655	400.7713
10864	1509396864	54.6304	-110.6602	832.9	184.9	2.2	1.3	5.2	0.05	54.53	1.9671	401.1420
10865	1509396865	54.6312	-110.6601	832.2	183.5	2.0	1.7	4.7	0.05	54.52	1.9650	400.2441
10866	1509396866	54.6321	-110.6601	830.6	181.6	2.6	1.5	4.3	0.05	54.52	1.9649	400.6657
10867	1509396867	54.6329	-110.6600	829.3	180.3	2.7	2.1	4.8	0.05	54.52	1.9665	400.6978
10868	1509396868	54.6338	-110.6599	828.8	179.8	3.9	0.8	4.9	0.05	54.52	1.9648	401.1105
10869	1509396869	54.6347	-110.6597	827.5	178.5	3.7	1.3	4.9	0.05	54.52	1.9634	400.6840
10870	1509396870	54.6356	-110.6596	826.6	177.7	2.6	2.4	4.9	0.05	54.52	1.9638	400.2185
10871	1509396871	54.6364	-110.6595	826.5	176.8	3.4	1.2	5.2	0.05	54.51	1.9641	400.9363
10872	1509396872	54.6373	-110.6594	827.7	179.8	2.8	1.7	5.2	0.05	54.51	1.9645	401.0400
10873	1509396873	54.6382	-110.6593	828.7	182.3	2.1	1.8	5.0	0.06	54.51	1.9648	400.9688
10874	1509396874	54.6390	-110.6593	829.7	185.2	2.2	1.0	5.2	0.06	54.51	1.9650	401.1256
10875	1509396875	54.6399	-110.6592	831.0	189.2	1.4	1.4	5.6	0.06	54.51	1.9640	400.6244
10876	1509396876	54.6407	-110.6591	831.8	192.1	1.5	1.3	5.6	0.06	54.50	1.9645	401.1527
10877	1509396877	54.6416	-110.6591	832.0	195.1	0.8	2.0	5.2	0.06	54.50	1.9635	401.6257
10878	1509396878	54.6424	-110.6590	831.5	196.3	0.7	2.0	5.1	0.06	54.50	1.9661	400.7660
10879	1509396879	54.6433	-110.6590	830.7	196.7	1.3	0.8	5.1	0.06	54.50	1.9666	400.1817
10880	1509396880	54.6442	-110.6589	830.5	197.4	0.4	1.6	5.3	0.06	54.50	1.9672	401.7923
10881	1509396881	54.6450	-110.6589	832.2	200.2	-0.1	1.7	4.9	0.06	54.49	1.9649	400.8469
10882	1509396882	54.6459	-110.6589	836.0	205.0	0.4	1.2	4.5	0.06	54.49	1.9651	400.6402
10883	1509396883	54.6467	-110.6588	838.7	207.7	-0.4	2.0	4.7	0.06	54.49	1.9644	401.9023
10884	1509396884	54.6474	-110.6588	839.9	208.9	0.0	1.5	5.1	0.06	54.49	1.9661	401.6965
10885	1509396885	54.6481	-110.6588	839.5	208.5	-0.7	2.1	5.3	0.06	54.49	1.9644	401.3656
10886	1509396886	54.6488	-110.6588	838.5	207.5	359.0	2.3	5.1	0.06	54.48	1.9658	401.2305
10887	1509396887	54.6496	-110.6588	836.5	205.5	-0.3	1.8	5.3	0.06	54.48	1.9660	401.2305
10888	1509396888	54.6503	-110.6587	834.7	203.7	-0.2	2.3	5.3	0.06	54.48	1.9663	401.2305
10889	1509396889	54.6510	-110.6587	833.8	202.8	0.0	2.4	5.1	0.06	54.48	1.9665	401.2305
10890	1509396890	54.6518	-110.6587	832.9	201.9	0.6	2.1	5.2	0.06	54.48	1.9688	401.5058
10891	1509396891	54.6525	-110.6586	831.8	199.8	0.6	2.2	5.3	0.07	54.47	1.9671	401.3176
10892	1509396892	54.6533	-110.6586	831.1	199.1	1.1	2.0	5.4	0.07	54.47	1.9686	401.3916
10893	1509396893	54.6540	-110.6585	830.4	197.4	0.8	2.6	5.4	0.07	54.47	1.9697	397.7592
10894	1509396894	54.6547	-110.6585	830.3	196.4	1.4	1.8	4.9	0.07	54.47	1.9701	401.8907
10895	1509396895	54.6550	-110.6584	830.6	195.9	1.3	1.8	4.8	0.07	54.47	1.9703	401.0260
10896	1509396896	54.6551	-110.6584	830.7	196.0	1.3	1.9	4.8	0.07	54.47	1.9697	400.4073
10897	1509396897	54.6552	-110.6584	830.8	196.1	1.2	2.0	4.8	0.07	54.46	1.9687	400.7723
10898	1509396898	54.6554	-110.6584	831.1	196.1	1.0	2.1	4.8	0.07	54.46	1.9701	401.1923
10899	1509396899	54.6563	-110.6583	831.8	196.8	0.6	2.7	4.7	0.07	54.46	1.9703	401.7025
10900	1509396900	54.6571	-110.6583	832.7	196.7	0.6	2.3	4.9	0.07	54.46	1.9717	400.3994
10901	1509396901	54.6580	-110.6582	833.7	196.7	0.7	2.1	5.3	0.07	54.46	1.9733	400.9524
10902	1509396902	54.6588	-110.6582	833.7	195.7	0.7	2.2	5.4	0.07	54.45	1.9695	401.3924
10903	1509396903	54.6597	-110.6581	832.2	194.2	0.7	2.5	5.1	0.07	54.45	1.9711	400.7417
10904	1509396904	54.6605	-110.6580	829.8	190.8	0.9	2.1	5.3	0.07	54.45	1.9696	400.0023
10905	1509396905	54.6614	-110.6580	827.7	188.7	1.6	1.5	5.4	0.07	54.45	1.9687	401.8033
10906	1509396906	54.6622	-110.6579	825.8	185.8	1.5	1.8	5.3	0.07	54.45	1.9705	400.8963
10907	1509396907	54.6631	-110.6578	823.7	182.7	1.8	1.6	5.0	0.07	54.44	1.9705	400.9275
10908	1509396908	54.6639	-110.6578	822.1	181.1	1.3	2.4	4.9	0.07	54.44	1.9709	400.4047
10909	1509396909	54.6648	-110.6577	821.5	179.5	2.6	1.0	4.9	0.08	54.44	1.9723	401.7076
10910	1509396910	54.6656	-110.6576	821.2	179.2	2.7	1.3	5.2	0.08	54.44	1.9713	401.5034
10911	1509396911	54.6665	-110.6575	821.7	179.7	2.2	1.8	5.3	0.08	54.44	1.9729	401.4846
10912	1509396912	54.6674	-110.6574	822.0	181.0	2.7	1.2	4.9	0.08	54.43	1.9731	400.1581
10913	1509396913	54.6682	-110.6573	822.3	181.3	2.1	1.8	4.8	0.08	54.43	1.9733	400.8726
10914	1509396914	54.6691	-110.6573	823.8	183.8	2.4	1.4	5.0	0.08	54.43	1.9744	401.4741
10915	1509396915	54.6699	-110.6572	825.4	186.5	2.0	1.9	5.0	0.08	54.43	1.9755	401.3794
10916	1509396916	54.6708	-110.6571	827.4	188.7	2.0	1.9	4.7	0.08	54.43	1.9761	400.2851
10917	1509396917	54.6716	-110.6570	829.8	191.8	2.0	1.9	4.3	0.08	54.43	1.9748	401.2664
10918	1509396918	54.6724	-110.6569	832.9	193.8	2.3	1.5	4.3	0.08	54.42	1.9757	402.1319
10919	1509396919	54.6732	-110.6569	835.5	196.4	2.0	2.0	4.9	0.08	54.42	1.9774	400.9952
10920	1509396920	54.6739	-110.6568	837.4	198.4	2.0	2.0	5.0	0.08	54.42	1.9773	401.1391
10921	1509396921	54.6746	-110.6567	838.4	199.4	1.9	2.1	4.9	0.08	54.42	1.9782	401.4767
10922	1509396922	54.6754	-110.6567	838.4	197.4	1.6	2.0	4.8	0.08	54.42	1.9798	401.9286
10923	1509396923	54.6761	-110.6566	838.0	196.3	1.7	1.8	4.5	0.08	54.41	1.9795	402.1872
10924	1509396924	54.6768	-110.6565	838.2	195.2	1.7	1.7	4.6	0.08	54.41	1.9791	402.8305
10925	1509396925	54.6775	-110.6565	838.3	194.3	2.2	1.3	4.6	0.08	54.41	1.9790	401.1343
10926	1509396926	54.6782	-110.6564	839.2	195.2	2.0	1.5	5.0	0.08	54.41	1.9805	401.3896
10927	1509396927	54.6789	-110.6563	840.0	196.0	1.4	2.2	5.3	0.09	54.41	1.9818	401.0430
10928	1509396928	54.6797	-110.6563	840.1	196.1	1.0	2.6	4.8	0.09	54.40	1.9823	402.1396
10929	1509396929	54.6804	-110.6562	839.8	195.8	0.8	2.6	4.9	0.09	54.40	1.9808	401.6465
10930	1509396930	54.6811	-110.6562	839.9	194.9	1.1	2.2	4.9	0.09	54.40	1.9792	401.2946
10931	1509396931	54.6819	-110.6561	840.6	195.6	0.7	2.6	5.4	0.09	54.40	1.9797	401.1596
10932	1509396932	54.6826	-110.6561	841.4	196.4	0.3	2.7	4.8	0.09	54.40	1.9811	401.8808
10933	1509396933	54.6833	-110.6560	842.2	197.2	0.2	2.9	5.1	0.09	54.39	1.9818	401.8808
10934	1509396934	54.6840	-110.6560	842.8	199.1	0.0	3.0	5.1	0.09	54.39	1.9821	400.6062
10935	1509396935	54.6847	-110.6559	843.7	201.8	0.7	2.3	5.5	0.09	54.39	1.9822	401.2264
10936	1509396936	54.6854	-110.6559	844.4	203.4	0.4	2.8	5.5	0.09	54.39	1.9834	401.4014
10937	1509396937	54.6862	-110.6558	845.4	205.4	0.1	2.9	4.9	0.09	54.39	1.9831	401.9790
10938	1509396938	54.6869	-110.6558	846.1	207.2	0.3	2.7	5.1	0.09	54.38	1.9829	402.4110
10939	1509396939	54.6876	-110.6557	846.1	208.1	-0.1	2.9	5.3	0.09	54.38	1.9830	401.3400
10940	1509396940	54.6883	-110.6557	846.1	209.1	-0.1	2.8	5.7	0.09	54.38	1.9836	401.5195
10941	1509396941	54.6890	-110.6556	846.0	210.0	-0.3	3.0	5.6	0.09	54.38	1.9837	401.0707
10942	1509396942	54.6897	-110.6556	845.9	209.9	0.5	2.3	5.5	0.09	54.38	1.9866	400.6172
10943	1509396943	54.6905	-110.6555	845.7	209.7	0.3	2.8	5.5	0.09	54.38	1.9862	401.1586
10944	1509396944	54.6912	-110.6555	845.9	208.9	0.4	2.7	5.5	0.09	54.37	1.9882	401.3384
10945	1509396945	54.6919	-110.6554	845.8	208.8	0.5	2.5	5.3	0.10	54.37	1.9875	401.6227
10946	1509396946	54.6926	-110.6554	845.5	208.5	0.9	2.2	5.2	0.10	54.37	1.9877	401.6227
10947	1509396947	54.6933	-110.6553	845.3	208.3	1.0	2.2	5.1	0.10	54.37	1.9878	401.6227
10948	1509396948	54.6940	-110.6553	846.5	209.5	1.1	2.4	5.1	0.10	54.37	1.9880	401.6227
10949	1509396949	54.6948	-110.6552	848.9	211.9	1.0	2.7	5.2	0.10	54.36	1.9882	401.6227
10950	1509396950	54.6955	-110.6552	850.8	214.8	2.1	1.5	5.3	0.10	54.36	1.9883	401.6227
10951	1509396951	54.6962	-110.6551	852.7	216.7	1.1	2.7	5.6	0.10	54.36	1.9885	401.6227
10952	1509396952	54.6969	-110.6550	854.2	218.2	1.0	2.6	5.8	0.10	54.36	1.9886	401.6227
10953	1509396953	54.6976	-110.6550	854.9	217.9	1.6	2.0	5.7	0.10	54.36	1.9918	400.1028
10954	1509396954	54.6983	-110.6549	854.9	217.9	0.9	2.7	5.3	0.10	54.35	1.9905	400.7586
10955	1509396955	54.6985	-110.6549	854.8	217.8	0.8	2.6	5.4	0.10	54.35	1.9913	402.4293
10956	1509396956	54.6986	-110.6549	854.7	217.7	0.9	2.5	5.3	0.10	54.35	1.9922	401.7657
10957	1509396957	54.6986	-110.6549	854.7	217.7	1.0	2.4	5.2	0.10	54.35	1.9905	402.5389
10958	1509396958	54.6987	-110.6549	854.6	217.6	1.1	2.2	5.2	0.10	54.35	1.9898	401.2289
10959	1509396959	54.6987	-110.6549	854.6	217.6	1.2	2.1	5.1	0.10	54.34	1.9904	402.3793
10960	1509396960	54.6988	-110.6549	854.6	217.6	1.3	2.0	5.1	0.10	54.34	1.9915	402.1676
10961	1509396961	54.6988	-110.6549	854.5	217.5	1.3	1.8	4.3	0.10	54.34	1.9897	402.0242
10962	1509396962	54.6995	-110.6548	851.4	214.4	2.2	0.7	2.6	0.10	54.34	1.9918	401.7684
10963	1509396963	54.7004	-110.6548	846.2	209.2	0.0	2.7	2.8	0.11	54.34	1.9928	400.9953
10964	1509396964	54.7012	-110.6547	841.5	204.5	-0.2	2.4	3.5	0.11	54.34	1.9918	400.8364
10965	1509396965	54.7021	-110.6547	837.1	200.1	0.5	1.4	4.0	0.11	54.33	1.9918	401.8006
10966	1509396966	54.7029	-110.6546	833.4	194.4	0.1	1.9	3.4	0.11	54.33	1.9906	400.9644
10967	1509396967	54.7038	-110.6546	831.2	190.2	-0.4	2.0	3.6	0.11	54.33	1.9906	401.8856
10968	1509396968	54.7046	-110.6546	829.3	186.3	359.3	2.3	3.4	0.11	54.33	1.9914	401.2075
10969	1509396969	54.7055	-110.6546	826.9	183.9	-0.5	1.8	3.6	0.11	54.33	1.9929	402.2240
10970	1509396970	54.7064	-110.6545	822.3	179.3	-0.6	2.0	4.1	0.11	54.32	1.9914	401.8703
10971	1509396971	54.7072	-110.6545	816.9	175.0	359.1	2.5	4.1	0.11	54.32	1.9911	401.3288
10972	1509396972	54.7081	-110.6545	813.4	172.7	358.8	2.5	4.4	0.11	54.32	1.9901	402.2273
10973	1509396973	54.7090	-110.6545	811.6	171.5	-0.6	1.5	4.1	0.11	54.32	1.9883	401.4462
10974	1509396974	54.7098	-110.6545	809.0	170.0	0.1	0.8	4.8	0.11	54.32	1.9912	401.4462
10975	1509396975	54.7107	-110.6545	807.1	168.1	-0.6	1.7	5.5	0.11	54.31	1.9918	402.4829
10976	1509396976	54.7116	-110.6544	804.9	166.9	0.3	1.2	5.8	0.11	54.31	1.9935	401.4066
10977	1509396977	54.7125	-110.6544	803.3	167.0	0.3	1.6	6.2	0.11	54.31	1.9962	401.4066
10978	1509396978	54.7134	-110.6544	804.5	170.5	1.3	0.8	6.0	0.11	54.31	1.9922	401.8944
10979	1509396979	54.7143	-110.6543	805.6	173.5	1.2	1.5	6.2	0.11	54.31	1.9917	401.9980
10980	1509396980	54.7152	-110.6542	806.4	176.4	1.8	1.1	6.5	0.11	54.30	1.9926	400.9989
10981	1509396981	54.7161	-110.6542	807.5	177.5	1.9	1.1	5.9	0.12	54.30	1.9943	401.2901
10982	1509396982	54.7169	-110.6541	809.2	179.2	1.8	1.2	5.5	0.12	54.30	1.9970	401.5122
10983	1509396983	54.7178	-110.6541	811.7	181.7	1.1	2.0	5.5	0.12	54.30	1.9959	401.5122
10984	1509396984	54.7187	-110.6540	814.3	184.3	1.0	1.8	5.2	0.12	54.30	1.9920	401.7062
10985	1509396985	54.7195	-110.6539	817.1	187.1	1.1	1.8	5.5	0.12	54.29	1.9937	401.2804
10986	1509396986	54.7203	-110.6539	820.2	190.2	1.6	1.3	5.4	0.12	54.29	1.9951	401.5926
10987	1509396987	54.7212	-110.6538	823.3	193.3	2.1	1.2	4.8	0.12	54.29	1.9981	401.4339
10988	1509396988	54.7220	-110.6537	825.2	195.2	1.7	1.8	4.6	0.12	54.29	1.9958	400.7612
10989	1509396989	54.7229	-110.6537	825.8	195.8	2.3	1.1	5.1	0.12	54.29	1.9978	400.7612
10990	1509396990	54.7237	-110.6536	826.6	196.6	2.0	1.2	5.1	0.12	54.29	1.9982	401.6909
10991	1509396991	54.7246	-110.6535	828.9	198.6	2.3	0.9	4.8	0.12	54.28	1.9976	401.0371
10992	1509396992	54.7254	-110.6534	831.1	199.1	1.4	1.9	4.9	0.12	54.28	2.0016	401.5941
10993	1509396993	54.7262	-110.6534	832.2	199.9	2.6	0.7	4.9	0.12	54.28	2.0033	401.5622
10994	1509396994	54.7271	-110.6533	834.1	204.1	1.4	1.9	4.2	0.12	54.28	2.0014	400.7460
10995	1509396995	54.7279	-110.6532	836.3	206.3	1.8	1.2	4.4	0.12	54.28	1.9985	400.7460
10996	1509396996	54.7287	-110.6532	836.9	206.9	2.0	1.1	5.2	0.12	54.27	1.9987	401.0209
10997	1509396997	54.7296	-110.6531	836.6	206.6	1.0	2.3	5.3	0.12	54.27	2.0016	400.6140
10998	1509396998	54.7304	-110.6531	837.2	207.2	0.9	2.2	4.9	0.12	54.27	2.0019	402.0277
10999	1509396999	54.7312	-110.6530	836.8	206.8	1.3	1.3	5.2	0.13	54.27	2.0040	401.4906
11000	1509397000	54.7320	-110.6529	835.2	205.2	0.7	2.0	5.7	0.13	54.27	2.0038	401.8464
11001	1509397001	54.7329	-110.6529	834.7	204.7	0.3	2.1	5.2	0.13	54.26	2.0033	402.2098
11002	1509397002	54.7337	-110.6529	834.7	204.7	0.8	1.6	4.9	0.13	54.26	2.0019	400.8633
11003	1509397003	54.7344	-110.6528	835.5	205.5	0.4	2.0	5.3	0.13	54.26	2.0064	402.0165
11004	1509397004	54.7351	-110.6528	836.4	206.4	0.4	2.0	4.6	0.13	54.26	2.0052	402.1220
11005	1509397005	54.7358	-110.6527	837.5	207.5	0.0	2.3	5.0	0.13	54.26	2.0068	401.5688
11006	1509397006	54.7365	-110.6527	839.2	209.2	0.1	2.0	4.2	0.13	54.25	2.0076	402.2052
11007	1509397007	54.7373	-110.6527	841.0	210.5	0.5	1.3	3.9	0.13	54.25	2.0075	402.2052
11008	1509397008	54.7380	-110.6526	843.1	208.4	0.8	1.1	4.3	0.13	54.25	2.0074	402.2052
11009	1509397009	54.7387	-110.6526	844.3	207.6	0.1	2.0	4.2	0.13	54.25	2.0073	402.2052
11010	1509397010	54.7394	-110.6526	845.9	209.9	0.5	1.6	4.1	0.13	54.25	2.0072	402.2052
11011	1509397011	54.7401	-110.6525	847.0	210.9	0.1	2.2	4.9	0.13	54.25	2.0070	402.2052
11012	1509397012	54.7408	-110.6525	847.5	209.5	0.2	2.4	5.1	0.13	54.24	2.0069	402.2052
11013	1509397013	54.7415	-110.6525	847.5	205.5	0.2	2.5	5.1	0.13	54.24	2.0075	401.4608
11014	1509397014	54.7422	-110.6524	847.7	201.8	0.6	1.9	5.2	0.13	54.24	2.0069	401.7483
11015	1509397015	54.7424	-110.6524	847.8	201.9	0.6	1.9	5.2	0.13	54.24	2.0049	401.8789
11016	1509397016	54.7425	-110.6524	847.9	202.0	0.5	2.0	5.3	0.13	54.24	2.0040	400.9554
11017	1509397017	54.7425	-110.6524	847.9	202.0	0.4	2.1	5.4	0.14	54.23	2.0060	401.1249
11018	1509397018	54.7426	-110.6524	848.0	202.1	0.3	2.1	5.5	0.14	54.23	2.0070	402.6687
11019	1509397019	54.7426	-110.6524	848.0	202.1	0.3	2.2	5.5	0.14	54.23	2.0081	402.6543
11020	1509397020	54.7427	-110.6524	848.0	202.2	0.2	2.3	5.6	0.14	54.23	2.0078	401.5437
11021	1509397021	54.7428	-110.6524	848.1	202.2	0.1	2.4	5.8	0.14	54.23	2.0080	401.6194
11022	1509397022	54.7434	-110.6524	848.2	202.3	0.0	2.3	5.9	0.14	54.22	2.0072	402.1242
11023	1509397023	54.7443	-110.6523	847.9	203.3	-0.1	2.5	6.2	0.14	54.22	2.0068	402.3173
11024	1509397024	54.7451	-110.6523	848.5	206.4	-0.4	3.1	6.1	0.14	54.22	2.0094	402.3173
11025	1509397025	54.7459	-110.6522	850.1	207.7	0.4	2.4	5.7	0.14	54.22	2.0060	400.9878
11026	1509397026	54.7467	-110.6522	851.6	209.3	1.1	2.3	5.0	0.14	54.22	2.0035	401.2725
11027	1509397027	54.7475	-110.6521	853.2	210.5	1.3	2.0	4.2	0.14	54.21	2.0061	400.8671
11028	1509397028	54.7483	-110.6520	855.0	211.3	2.1	1.4	3.4	0.14	54.21	2.0048	402.1395
11029	1509397029	54.7491	-110.6519	856.0	212.1	0.8	2.8	3.8	0.14	54.21	1.9990	402.0238
11030	1509397030	54.7500	-110.6519	853.7	208.6	1.2	2.3	4.9	0.14	54.21	1.9978	402.4300
11031	1509397031	54.7508	-110.6518	849.1	202.9	1.0	3.3	5.6	0.14	54.21	1.9968	402.4300
11032	1509397032	54.7516	-110.6517	846.0	198.2	2.3	4.9	6.3	0.14	54.21	2.0091	402.6230
11033	1509397033	54.7524	-110.6515	844.4	195.5	9.6	3.2	6.2	0.14	54.20	2.0101	400.6436
11034	1509397034	54.7532	-110.6511	845.3	195.5	17.2	2.7	5.8	0.15	54.22	2.0079	402.3582
11035	1509397035	54.7540	-110.6506	847.6	197.6	25.5	2.9	4.6	0.15	54.38	2.0080	401.2978
11036	1509397036	54.7547	-110.6499	851.0	200.9	34.2	3.4	2.8	0.15	54.72	2.0075	402.0752
11037	1509397037	54.7553	-110.6490	853.1	202.1	42.8	3.1	3.7	0.13	55.05	2.0061	402.0752
11038	1509397038	54.7559	-110.6480	853.6	201.6	51.4	3.0	3.5	0.14	55.23	2.0065	401.8209
11039	1509397039	54.7564	-110.6468	854.0	202.0	59.6	2.3	3.9	0.12	55.31	2.0079	402.5977
11040	1509397040	54.7568	-110.6456	854.8	202.8	66.2	2.2	2.7	0.11	55.35	2.0074	402.5977
11041	1509397041	54.7570	-110.6443	854.8	202.8	71.8	2.0	2.6	0.11	55.36	2.0065	402.1859
11042	1509397042	54.7573	-110.6430	852.9	199.9	80.3	1.3	3.3	0.11	55.35	2.0061	402.3524
11043	1509397043	54.7574	-110.6417	851.2	197.7	87.9	-0.2	3.6	0.11	55.34	2.0042	401.7347
11044	1509397044	54.7574	-110.6403	849.7	195.7	93.1	-0.5	4.6	0.09	55.25	2.0043	401.7347
11045	1509397045	54.7574	-110.6390	844.9	189.9	95.7	0.3	4.9	0.09	55.16	2.0052	401.8712
11046	1509397046	54.7574	-110.6376	838.5	183.5	96.0	0.9	4.2	0.09	54.99	2.0043	401.9049
11047	1509397047	54.7573	-110.6362	833.5	177.5	96.6	1.5	5.0	0.09	54.78	2.0042	401.7488
11048	1509397048	54.7573	-110.6349	828.5	172.5	95.1	1.6	4.3	0.09	54.65	2.0028	401.9681
11049	1509397049	54.7573	-110.6335	823.8	167.8	94.5	1.8	4.1	0.09	54.57	2.0040	400.9580
11050	1509397050	54.7572	-110.6321	819.7	163.4	94.2	1.9	3.8	0.09	54.49	2.0049	402.2027
11051	1509397051	54.7572	-110.6306	817.8	161.8	94.9	2.0	4.3	0.09	54.34	2.0054	402.0966
11052	1509397052	54.7572	-110.6291	818.9	162.9	95.0	2.0	4.3	0.09	54.19	2.0020	402.0097
11053	1509397053	54.7572	-110.6277	820.3	164.3	95.2	2.1	4.5	0.09	54.07	2.0015	401.9159
11054	1509397054	54.7571	-110.6263	821.4	165.4	94.3	2.1	3.7	0.09	53.96	2.0011	403.2551
11055	1509397055	54.7571	-110.6249	821.8	164.8	95.3	2.5	5.1	0.09	53.79	2.0007	402.2571
11056	1509397056	54.7571	-110.6235	821.6	163.6	94.7	2.2	4.5	0.11	53.60	2.0044	401.4436
11057	1509397057	54.7571	-110.6221	821.3	162.3	95.5	1.9	5.2	0.11	53.48	2.0021	401.6953
11058	1509397058	54.7570	-110.6206	821.5	161.5	94.1	1.6	3.3	0.11	53.46	2.0010	402.1184
11059	1509397059	54.7570	-110.6192	820.8	161.8	95.0	1.7	4.2	0.13	53.45	2.0017	402.7197
11060	1509397060	54.7570	-110.6178	822.0	163.0	94.4	2.2	3.4	0.13	53.46	1.9983	402.1739
11061	1509397061	54.7570	-110.6164	826.9	167.9	96.3	2.0	5.6	0.15	53.45	1.9967	402.1498
11062	1509397062	54.7569	-110.6150	831.5	172.5	95.0	1.6	4.3	0.16	53.40	1.9964	401.9077
11063	1509397063	54.7569	-110.6138	834.0	173.3	95.2	1.8	4.5	0.17	53.27	1.9986	401.8508
11064	1509397064	54.7569	-110.6126	834.9	173.1	94.5	2.1	3.7	0.18	53.14	1.9966	402.3891
11065	1509397065	54.7569	-110.6114	835.1	173.1	95.3	2.1	4.6	0.19	53.08	1.9960	402.6761
11066	1509397066	54.7569	-110.6102	835.5	173.2	95.0	2.1	4.4	0.19	53.04	1.9956	402.1950
11067	1509397067	54.7568	-110.6090	835.1	171.1	94.8	2.3	4.5	0.19	53.03	1.9954	402.1950
11068	1509397068	54.7568	-110.6078	834.2	170.2	93.8	2.7	4.2	0.19	53.03	2.0008	402.8344
11069	1509397069	54.7568	-110.6066	833.6	169.6	92.4	1.9	3.6	0.20	53.02	1.9972	401.8540
11070	1509397070	54.7568	-110.6054	833.5	169.5	91.6	1.3	3.7	0.21	53.02	1.9969	401.5660
11071	1509397071	54.7569	-110.6042	833.7	168.7	90.8	1.3	3.5	0.21	53.12	1.9959	402.1309
11072	1509397072	54.7569	-110.6030	834.5	169.6	90.2	1.7	3.5	0.21	53.32	1.9960	400.6494
11073	1509397073	54.7569	-110.6018	835.1	169.2	90.5	1.7	4.3	0.21	53.39	1.9977	401.6807
11074	1509397074	54.7569	-110.6006	835.5	169.5	90.0	1.7	3.8	0.21	53.41	1.9958	401.0025
11075	1509397075	54.7570	-110.6001	835.9	168.9	89.5	1.7	3.2	0.22	53.43	1.9971	401.4902
11076	1509397076	54.7570	-110.5997	836.1	168.1	89.2	1.2	3.0	0.23	53.47	1.9949	401.4902
11077	1509397077	54.7570	-110.5983	836.5	166.4	90.3	1.6	4.0	0.24	53.51	1.9944	402.5940
11078	1509397078	54.7570	-110.5970	836.8	165.8	90.6	1.6	3.6	0.24	53.53	1.9951	402.7157
11079	1509397079	54.7571	-110.5956	837.5	166.5	91.7	1.4	3.9	0.24	53.56	1.9963	401.2947
11080	1509397080	54.7571	-110.5942	840.0	170.0	91.0	1.5	2.2	0.25	53.60	1.9965	400.7395
11081	1509397081	54.7571	-110.5929	841.8	170.8	92.1	1.0	3.3	0.26	53.64	1.9929	402.0544
11082	1509397082	54.7571	-110.5915	841.9	170.2	91.8	1.4	2.8	0.25	53.69	1.9923	401.6571
11083	1509397083	54.7571	-110.5901	842.5	169.5	92.0	1.4	3.5	0.23	53.70	1.9930	402.3628
11084	1509397084	54.7571	-110.5888	845.3	172.3	92.0	1.3	3.7	0.23	53.69	1.9919	402.3794
11085	1509397085	54.7571	-110.5876	849.0	175.0	91.3	1.4	3.2	0.25	53.68	1.9907	401.1070
11086	1509397086	54.7571	-110.5864	852.1	179.2	91.8	2.1	4.0	0.23	53.66	1.9907	400.6557
11087	1509397087	54.7572	-110.5852	854.2	180.2	91.3	2.6	3.7	0.21	53.62	1.9937	401.8882
11088	1509397088	54.7572	-110.5841	855.3	181.3	91.0	2.8	3.7	0.21	53.57	1.9933	401.1916
11089	1509397089	54.7572	-110.5829	855.2	180.2	91.0	2.6	3.9	0.21	53.52	1.9927	402.0738
11090	1509397090	54.7572	-110.5817	854.7	180.7	90.8	2.2	3.5	0.22	53.52	1.9931	402.2704
11091	1509397091	54.7572	-110.5805	853.5	179.5	91.0	1.8	3.4	0.23	53.55	1.9924	401.8383
11092	1509397092	54.7573	-110.5794	852.5	178.5	91.7	1.4	3.8	0.21	53.65	1.9928	402.9316
11093	1509397093	54.7573	-110.5782	851.7	177.7	91.9	1.7	4.0	0.20	53.75	1.9946	402.5703
11094	1509397094	54.7573	-110.5771	850.6	176.6	92.7	2.1	5.0	0.20	53.82	1.9942	401.7452
11095	1509397095	54.7573	-110.5758	849.4	175.4	91.8	1.9	4.0	0.20	53.88	1.9926	401.9091
11096	1509397096	54.7573	-110.5747	848.6	174.3	91.2	1.8	3.3	0.18	53.95	1.9921	399.9173
11097	1509397097	54.7573	-110.5735	847.5	172.5	90.7	1.9	2.8	0.16	54.04	1.9930	401.8576
11098	1509397098	54.7574	-110.5723	847.2	172.2	90.5	2.1	2.8	0.15	54.10	1.9945	400.8613
11099	1509397099	54.7574	-110.5712	848.8	174.8	90.8	2.2	3.2	0.14	54.10	1.9925	400.7598
11100	1509397100	54.7574	-110.5699	851.9	177.9	91.3	1.9	3.3	0.13	54.11	1.9928	400.9584
11101	1509397101	54.7574	-110.5688	855.2	181.2	92.4	2.0	4.0	0.13	54.13	1.9939	402.5124
11102	1509397102	54.7574	-110.5676	857.7	183.7	92.7	1.7	3.9	0.13	54.13	1.9938	401.9659
11103	1509397103	54.7574	-110.5664	859.5	185.5	92.3	1.6	3.5	0.11	54.15	1.9916	402.1809
11104	1509397104	54.7574	-110.5653	860.5	186.5	92.6	1.6	3.8	0.11	54.12	1.9907	401.4734
11105	1509397105	54.7574	-110.5641	861.3	187.3	92.2	1.7	3.2	0.10	54.12	1.9899	401.9470
11106	1509397106	54.7574	-110.5630	861.6	187.6	93.0	2.3	4.0	0.09	54.09	1.9898	401.7947
11107	1509397107	54.7574	-110.5618	861.5	187.5	92.9	2.7	3.5	0.09	54.06	1.9910	401.6465
11108	1509397108	54.7574	-110.5606	862.1	188.1	92.3	2.6	2.8	0.08	54.06	1.9893	401.0531
11109	1509397109	54.7574	-110.5595	862.4	187.4	92.7	2.2	3.2	0.07	54.06	1.9889	400.3656
11110	1509397110	54.7574	-110.5583	862.4	186.4	92.3	2.0	2.6	0.07	54.08	1.9890	402.5157
11111	1509397111	54.7574	-110.5571	861.8	185.1	92.8	2.6	3.3	0.06	54.08	1.9891	401.8290
11112	1509397112	54.7574	-110.5560	861.7	184.7	92.4	2.7	3.1	0.05	54.08	1.9885	401.3661
11113	1509397113	54.7574	-110.5549	861.5	183.5	92.2	2.8	3.4	0.03	54.10	1.9887	401.3661
11114	1509397114	54.7574	-110.5536	860.7	182.7	92.1	3.0	3.2	0.03	54.12	1.9876	402.3909
11115	1509397115	54.7574	-110.5525	860.2	182.8	91.8	2.6	2.9	0.03	54.14	1.9871	401.7662
11116	1509397116	54.7574	-110.5513	859.3	181.3	92.6	2.8	3.7	0.01	54.16	1.9875	402.0408
11117	1509397117	54.7574	-110.5501	859.0	179.8	92.6	2.4	3.5	0.01	54.16	1.9878	401.9241
11118	1509397118	54.7574	-110.5489	858.7	180.1	92.7	2.5	3.4	0.01	54.16	1.9880	402.0131
11119	1509397119	54.7574	-110.5477	858.7	180.7	92.9	2.0	3.6	-0.01	54.16	1.9912	402.2135
11120	1509397120	54.7574	-110.5466	858.5	180.5	92.6	1.6	3.3	-0.01	54.16	1.9919	402.8027
11121	1509397121	54.7574	-110.5453	858.1	180.1	92.6	1.7	3.4	-0.01	54.16	1.9921	401.3326
11122	1509397122	54.7574	-110.5442	857.3	179.2	92.5	1.3	3.3	-0.01	54.19	1.9907	402.2217
11123	1509397123	54.7574	-110.5430	856.7	179.7	92.2	1.3	3.0	-0.01	54.26	1.9895	402.3886
11124	1509397124	54.7574	-110.5418	856.7	179.7	92.8	1.3	3.7	-0.01	54.31	1.9897	401.7554
11125	1509397125	54.7574	-110.5406	857.0	179.8	92.4	1.7	3.4	-0.01	54.32	1.9903	401.9169
11126	1509397126	54.7574	-110.5394	857.6	180.3	92.6	1.3	3.8	-0.01	54.32	1.9913	401.6063
11127	1509397127	54.7574	-110.5382	859.0	182.1	92.1	1.5	3.3	-0.02	54.31	1.9925	401.6063
11128	1509397128	54.7574	-110.5370	860.3	183.3	92.1	2.0	3.5	-0.03	54.29	1.9866	402.8089
11129	1509397129	54.7575	-110.5358	860.4	183.0	92.6	2.2	4.1	-0.03	54.30	1.9864	401.9780
11130	1509397130	54.7575	-110.5346	860.0	182.7	92.1	2.2	3.8	-0.03	54.30	1.9873	402.3609
11131	1509397131	54.7575	-110.5335	860.0	182.0	91.8	2.5	3.7	-0.03	54.30	1.9869	402.3609
11132	1509397132	54.7575	-110.5323	860.0	181.8	91.5	2.7	3.8	-0.03	54.25	1.9866	402.4395
11133	1509397133	54.7575	-110.5311	860.3	180.4	91.4	2.7	4.0	-0.04	54.17	1.9910	402.4395
11134	1509397134	54.7575	-110.5299	860.7	180.8	91.1	2.8	3.9	-0.05	54.11	1.9964	400.7651
11135	1509397135	54.7575	-110.5293	860.9	179.9	90.8	3.1	3.5	-0.05	54.09	1.9971	401.0670
11136	1509397136	54.7575	-110.5290	861.1	180.1	90.5	3.0	3.2	-0.05	54.07	1.9971	400.3684
11137	1509397137	54.7576	-110.5276	861.8	180.8	89.7	2.7	2.4	-0.05	54.14	1.9963	401.7528
11138	1509397138	54.7576	-110.5262	861.8	180.1	90.1	2.8	2.7	-0.05	54.26	1.9949	402.1119
11139	1509397139	54.7576	-110.5249	861.7	180.8	90.3	2.9	2.8	-0.05	54.33	1.9936	401.8240
11140	1509397140	54.7577	-110.5235	861.3	180.6	90.9	2.9	3.5	-0.06	54.37	1.9949	402.2586
11141	1509397141	54.7577	-110.5221	861.7	180.8	91.8	3.0	4.7	-0.07	54.38	1.9974	401.5592
11142	1509397142	54.7577	-110.5207	862.0	180.1	91.1	2.9	4.1	-0.07	54.37	1.9979	401.4634
11143	1509397143	54.7577	-110.5194	862.4	178.7	91.0	2.9	4.4	-0.07	54.30	1.9986	401.8763
11144	1509397144	54.7578	-110.5180	862.8	180.4	90.7	2.6	3.8	-0.07	54.24	1.9972	401.5866
11145	1509397145	54.7578	-110.5168	863.3	191.0	90.7	2.5	3.6	-0.07	54.21	1.9962	401.4668
11146	1509397146	54.7578	-110.5156	863.9	200.4	91.1	2.8	3.6	-0.07	54.17	1.9955	401.3559
11147	1509397147	54.7578	-110.5144	864.1	208.5	91.2	2.8	3.6	-0.07	54.13	1.9949	401.4920
11148	1509397148	54.7578	-110.5132	864.4	210.4	91.3	2.9	3.4	-0.07	54.06	1.9944	402.3337
11149	1509397149	54.7579	-110.5120	864.9	209.9	90.9	3.1	2.9	-0.07	54.04	1.9949	401.3147
11150	1509397150	54.7579	-110.5109	865.8	208.5	91.0	2.5	3.1	-0.07	54.05	1.9923	401.4432
11151	1509397151	54.7579	-110.5098	866.5	205.9	91.3	2.1	3.4	-0.07	54.20	1.9929	402.5652
11152	1509397152	54.7579	-110.5085	867.0	197.6	91.4	2.1	3.3	-0.07	54.36	1.9967	400.9468
11153	1509397153	54.7579	-110.5073	867.0	190.4	90.9	2.2	2.8	-0.07	54.48	1.9949	401.6075
11154	1509397154	54.7579	-110.5061	867.0	184.1	91.0	2.2	2.9	-0.07	54.57	1.9929	402.2889
11155	1509397155	54.7580	-110.5050	867.5	182.8	90.3	2.1	2.4	-0.07	54.62	1.9917	402.1805
11156	1509397156	54.7580	-110.5037	868.5	182.5	91.1	2.1	3.7	-0.07	54.65	1.9910	401.1497
11157	1509397157	54.7580	-110.5025	868.4	181.1	91.7	2.1	4.4	-0.07	54.66	1.9882	401.8074
11158	1509397158	54.7580	-110.5013	868.2	180.0	91.5	2.1	3.8	-0.07	54.69	1.9853	401.8074
11159	1509397159	54.7580	-110.5002	868.6	180.0	91.6	2.1	3.8	-0.07	54.72	1.9843	401.2543
11160	1509397160	54.7580	-110.4990	869.1	179.3	92.0	1.7	4.3	-0.08	54.77	1.9850	401.7287
11161	1509397161	54.7581	-110.4978	869.1	180.2	91.3	2.1	3.3	-0.07	54.82	1.9861	401.7287
11162	1509397162	54.7581	-110.4966	868.7	180.5	91.9	2.3	4.3	-0.09	54.87	1.9859	401.6233
11163	1509397163	54.7581	-110.4954	868.2	180.9	91.9	2.5	4.2	-0.07	54.89	1.9834	401.4261
11164	1509397164	54.7581	-110.4942	867.4	179.2	91.2	2.5	3.3	-0.07	54.89	1.9808	401.9361
11165	1509397165	54.7581	-110.4930	867.6	178.3	91.0	2.6	3.2	-0.07	54.89	1.9822	401.9361
11166	1509397166	54.7581	-110.4918	867.3	177.0	91.6	2.3	3.9	-0.07	54.89	1.9846	401.9917
11167	1509397167	54.7582	-110.4906	867.0	177.0	90.7	2.5	2.8	-0.07	54.92	1.9838	399.9186
11168	1509397168	54.7582	-110.4895	867.3	178.0	90.6	2.7	3.0	-0.06	54.97	1.9812	401.1283
11169	1509397169	54.7582	-110.4882	868.4	180.1	90.9	2.5	3.4	-0.07	55.02	1.9793	402.3103
11170	1509397170	54.7582	-110.4870	869.5	181.4	91.2	2.1	3.4	-0.09	55.03	1.9778	401.8331
11171	1509397171	54.7582	-110.4859	870.5	183.5	91.7	2.1	3.4	-0.10	55.01	1.9815	401.2342
11172	1509397172	54.7582	-110.4847	871.5	186.4	91.9	2.3	3.3	-0.11	54.99	1.9801	401.3940
11173	1509397173	54.7582	-110.4835	872.0	187.6	92.9	2.5	3.9	-0.11	55.00	1.9799	401.4174
11174	1509397174	54.7582	-110.4823	872.1	187.3	92.9	2.7	3.8	-0.11	54.97	1.9805	401.2969
11175	1509397175	54.7582	-110.4811	872.2	186.1	93.3	2.3	4.0	-0.11	54.93	1.9799	401.5960
11176	1509397176	54.7582	-110.4799	873.0	186.8	93.1	2.4	3.6	-0.11	54.87	1.9773	402.2214
11177	1509397177	54.7582	-110.4787	874.7	188.4	93.1	2.2	3.3	-0.13	54.84	1.9745	402.8456
11178	1509397178	54.7582	-110.4775	877.5	190.4	92.6	1.3	2.9	-0.13	54.84	1.9768	402.5095
11179	1509397179	54.7582	-110.4764	879.7	192.4	93.5	1.6	3.9	-0.13	54.85	1.9781	402.1802
11180	1509397180	54.7582	-110.4752	880.9	192.9	93.2	1.5	3.7	-0.13	54.93	1.9780	401.9430
11181	1509397181	54.7582	-110.4740	881.4	192.4	92.9	1.6	3.5	-0.13	55.00	1.9769	401.7434
11182	1509397182	54.7582	-110.4728	880.6	191.6	92.7	2.2	3.3	-0.13	55.04	1.9779	403.2610
11183	1509397183	54.7582	-110.4716	879.6	191.7	92.3	2.8	2.7	-0.13	55.05	1.9781	401.2417
11184	1509397184	54.7582	-110.4705	878.4	190.4	93.0	2.5	3.6	-0.13	55.05	1.9776	402.1230
11185	1509397185	54.7582	-110.4693	877.5	190.3	93.1	2.6	3.5	-0.14	55.05	1.9767	402.8434
11186	1509397186	54.7582	-110.4681	877.1	190.1	92.8	2.6	3.0	-0.15	55.05	1.9773	401.9784
11187	1509397187	54.7582	-110.4669	877.3	190.3	93.4	2.1	3.3	-0.15	55.05	1.9770	401.9784
11188	1509397188	54.7582	-110.4657	877.6	189.6	93.1	2.1	2.7	-0.15	55.05	1.9763	403.3258
11189	1509397189	54.7582	-110.4646	878.5	189.4	93.4	1.6	2.8	-0.15	55.05	1.9766	403.6293
11190	1509397190	54.7582	-110.4634	880.7	191.6	93.1	1.8	2.2	-0.15	55.07	1.9768	403.1723
11191	1509397191	54.7581	-110.4622	882.0	194.7	93.6	1.9	2.8	-0.15	55.13	1.9765	405.8478
11192	1509397192	54.7581	-110.4610	882.6	196.5	94.0	2.3	3.1	-0.15	55.23	1.9767	405.8478
11193	1509397193	54.7581	-110.4598	883.6	199.3	93.8	2.2	2.8	-0.17	55.25	1.9766	402.0527
11194	1509397194	54.7581	-110.4586	884.4	201.3	94.1	2.2	3.0	-0.17	55.25	1.9749	402.8800
11195	1509397195	54.7581	-110.4581	884.5	202.1	94.2	2.2	3.0	-0.17	55.24	1.9758	402.7283
11196	1509397196	54.7581	-110.4577	884.6	203.2	94.3	2.5	3.0	-0.17	55.21	1.9763	402.3341
11197	1509397197	54.7580	-110.4564	884.5	205.5	94.7	2.0	3.6	-0.18	55.14	1.9758	403.3989
11198	1509397198	54.7580	-110.4550	884.0	207.0	94.6	1.5	3.8	-0.19	55.12	1.9755	402.4926
11199	1509397199	54.7580	-110.4536	884.1	207.1	94.2	1.8	4.1	-0.19	55.10	1.9762	402.4926
11200	1509397200	54.7580	-110.4523	883.4	206.3	93.9	2.2	3.9	-0.19	55.09	1.9772	404.8448
11201	1509397201	54.7580	-110.4509	882.8	206.8	92.8	2.3	3.0	-0.19	55.10	1.9761	404.7425
11202	1509397202	54.7580	-110.4495	881.6	205.6	93.6	2.5	3.8	-0.19	55.14	1.9758	403.1411
11203	1509397203	54.7580	-110.4481	879.9	201.9	93.5	2.6	3.9	-0.19	55.19	1.9774	404.1199
11204	1509397204	54.7579	-110.4468	879.2	200.2	93.7	2.7	4.1	-0.19	55.26	1.9771	404.1649
11205	1509397205	54.7579	-110.4456	879.1	201.8	92.8	2.9	2.8	-0.20	55.34	1.9767	404.1649
11206	1509397206	54.7579	-110.4444	879.0	206.4	93.2	2.9	3.0	-0.21	55.41	1.9762	403.8803
11207	1509397207	54.7579	-110.4432	878.9	208.9	93.4	3.0	3.1	-0.21	55.47	1.9762	402.1236
11208	1509397208	54.7579	-110.4420	879.1	209.1	93.5	2.9	3.1	-0.21	55.48	1.9741	402.3899
11209	1509397209	54.7579	-110.4408	879.3	208.3	94.1	3.0	3.5	-0.21	55.48	1.9756	402.6345
11210	1509397210	54.7579	-110.4396	879.0	207.0	93.8	3.0	2.6	-0.21	55.47	1.9776	403.2689
11211	1509397211	54.7579	-110.4384	878.4	208.5	94.7	3.1	3.3	-0.21	55.46	1.9782	403.3269
11212	1509397212	54.7578	-110.4372	877.9	209.9	95.5	3.3	3.6	-0.21	55.45	1.9781	401.5769
11213	1509397213	54.7578	-110.4360	877.1	211.1	95.6	3.7	3.7	-0.21	55.43	1.9769	404.1905
11214	1509397214	54.7578	-110.4348	875.5	213.1	95.5	3.6	3.9	-0.21	55.40	1.9763	403.5142
11215	1509397215	54.7577	-110.4336	872.8	213.2	95.3	4.0	4.1	-0.21	55.37	1.9761	404.0029
11216	1509397216	54.7577	-110.4323	870.2	213.0	93.7	4.2	2.8	-0.22	55.36	1.9761	403.4079
11217	1509397217	54.7577	-110.4311	868.0	212.3	93.5	4.1	3.1	-0.23	55.36	1.9769	402.9444
11218	1509397218	54.7577	-110.4299	866.2	213.4	93.1	4.2	2.8	-0.23	55.33	1.9743	403.6047
11219	1509397219	54.7577	-110.4287	864.9	214.2	93.3	3.9	3.1	-0.23	55.28	1.9750	403.6047
11220	1509397220	54.7577	-110.4275	864.2	217.0	93.6	3.5	3.5	-0.23	55.19	1.9750	403.8510
11221	1509397221	54.7577	-110.4262	864.0	218.0	93.6	3.5	3.5	-0.23	55.14	1.9757	403.3986
11222	1509397222	54.7576	-110.4250	864.1	218.6	93.9	3.5	3.7	-0.23	55.12	1.9759	404.4498
11223	1509397223	54.7576	-110.4238	864.3	218.6	93.4	3.3	3.1	-0.23	55.09	1.9723	404.8919
11224	1509397224	54.7576	-110.4225	864.2	218.7	93.9	2.9	3.8	-0.22	55.06	1.9732	405.0335
11225	1509397225	54.7576	-110.4213	863.4	219.5	93.2	2.6	3.0	-0.21	55.05	1.9745	403.8440
11226	1509397226	54.7576	-110.4201	860.7	217.0	92.3	3.3	2.1	-0.21	55.06	1.9741	405.3379
11227	1509397227	54.7576	-110.4188	857.6	213.8	93.6	3.5	4.3	-0.19	55.06	1.9729	404.6331
11228	1509397228	54.7576	-110.4176	855.1	211.4	92.9	3.6	3.6	-0.19	55.04	1.9750	403.6536
11229	1509397229	54.7576	-110.4163	854.2	210.3	92.6	3.2	3.5	-0.19	54.97	1.9729	404.1420
11230	1509397230	54.7576	-110.4151	853.4	209.4	92.9	3.1	3.5	-0.19	54.87	1.9742	404.9521
11231	1509397231	54.7576	-110.4138	852.8	209.1	93.0	3.1	3.3	-0.21	54.76	1.9759	403.4040
11232	1509397232	54.7576	-110.4127	852.2	209.2	93.5	3.1	3.7	-0.21	54.68	1.9747	403.4567
11233	1509397233	54.7576	-110.4114	851.8	209.0	93.5	3.1	3.4	-0.21	54.53	1.9692	404.1870
11234	1509397234	54.7575	-110.4101	851.9	211.1	93.5	3.1	3.3	-0.19	54.40	1.9675	404.1870
11235	1509397235	54.7575	-110.4088	852.7	214.1	93.3	3.0	2.8	-0.19	54.31	1.9677	404.8128
11236	1509397236	54.7575	-110.4076	853.5	216.7	93.3	3.3	2.7	-0.17	54.32	1.9683	405.0771
11237	1509397237	54.7575	-110.4063	853.6	219.6	93.7	3.5	3.0	-0.17	54.42	1.9709	404.4795
11238	1509397238	54.7575	-110.4051	852.8	219.7	93.7	3.3	2.7	-0.15	54.59	1.9703	404.2185
11239	1509397239	54.7575	-110.4039	851.8	219.8	94.0	3.1	2.9	-0.13	54.61	1.9679	405.0317
11240	1509397240	54.7574	-110.4026	851.2	220.2	94.4	2.9	3.0	-0.11	54.59	1.9683	405.0138
11241	1509397241	54.7574	-110.4014	851.1	219.8	94.6	2.6	3.3	-0.10	54.53	1.9706	404.0280
11242	1509397242	54.7574	-110.4001	850.4	218.4	94.7	3.0	3.3	-0.09	54.46	1.9705	404.4830
11243	1509397243	54.7573	-110.3988	849.7	217.7	94.8	3.3	3.7	-0.08	54.36	1.9711	404.6583
11244	1509397244	54.7573	-110.3976	849.6	216.6	94.8	3.3	3.8	-0.07	54.24	1.9709	403.8870
11245	1509397245	54.7573	-110.3964	850.2	216.2	94.3	3.1	3.1	-0.06	54.13	1.9721	405.7228
11246	1509397246	54.7573	-110.3951	851.4	215.1	94.4	3.1	3.4	-0.05	54.02	1.9727	403.8945
11247	1509397247	54.7573	-110.3938	852.5	213.5	94.6	3.3	3.9	-0.05	53.93	1.9715	403.8945
11248	1509397248	54.7572	-110.3926	851.9	210.4	94.8	3.3	4.1	-0.03	53.83	1.9692	403.7566
11249	1509397249	54.7572	-110.3913	851.0	207.0	94.6	2.8	4.2	-0.03	53.74	1.9679	406.2143
11250	1509397250	54.7572	-110.3901	850.0	205.0	94.9	2.5	4.7	-0.03	53.68	1.9680	405.6140
11251	1509397251	54.7572	-110.3889	849.3	204.3	94.0	2.5	3.7	-0.01	53.68	1.9703	405.1512
11252	1509397252	54.7572	-110.3876	848.3	203.3	93.6	2.6	3.3	-0.01	53.69	1.9695	403.8031
11253	1509397253	54.7572	-110.3864	846.9	200.9	93.1	3.2	3.3	-0.01	53.73	1.9692	404.8245
11254	1509397254	54.7571	-110.3851	844.2	198.2	93.5	3.0	4.1	0.00	53.75	1.9700	405.4266
11255	1509397255	54.7571	-110.3845	842.9	196.9	92.8	3.1	3.6	0.02	53.76	1.9698	406.4965
11256	1509397256	54.7571	-110.3842	842.2	196.2	92.4	2.7	3.3	0.02	53.76	1.9698	405.8885
11257	1509397257	54.7571	-110.3827	839.6	193.6	92.6	2.9	4.2	0.01	53.76	1.9696	405.5917
11258	1509397258	54.7572	-110.3812	837.0	191.0	92.2	2.6	4.1	0.01	53.75	1.9695	407.0747
11259	1509397259	54.7572	-110.3797	833.9	187.9	92.3	2.8	4.2	0.01	53.73	1.9696	406.9077
11260	1509397260	54.7572	-110.3783	831.1	184.1	91.5	3.0	3.4	0.02	53.70	1.9688	406.0245
11261	1509397261	54.7572	-110.3768	829.1	182.1	92.2	3.2	3.5	0.03	53.67	1.9704	406.8137
11262	1509397262	54.7572	-110.3753	827.5	179.5	92.2	3.2	2.6	0.04	53.63	1.9709	406.5018
11263	1509397263	54.7572	-110.3739	826.0	178.0	93.9	2.8	4.1	0.05	53.59	1.9703	406.5885
11264	1509397264	54.7572	-110.3724	824.8	177.8	94.1	3.2	4.1	0.07	53.49	1.9703	406.0970
11265	1509397265	54.7572	-110.3711	825.3	178.3	94.2	3.5	4.5	0.09	53.33	1.9714	405.8460
11266	1509397266	54.7571	-110.3699	828.0	182.0	94.1	3.2	4.7	0.11	53.18	1.9716	405.9051
11267	1509397267	54.7571	-110.3686	829.9	183.9	94.3	3.3	5.0	0.13	53.02	1.9730	406.3033
11268	1509397268	54.7571	-110.3673	830.5	183.4	93.4	3.6	4.5	0.14	52.87	1.9718	406.8667
11269	1509397269	54.7571	-110.3661	831.0	184.0	92.6	3.9	4.0	0.15	52.76	1.9698	405.3537
11270	1509397270	54.7571	-110.3648	831.9	183.9	92.2	3.6	4.0	0.16	52.69	1.9694	404.2575
11271	1509397271	54.7572	-110.3636	832.6	183.3	92.4	3.3	4.4	0.17	52.66	1.9690	404.5598
11272	1509397272	54.7572	-110.3623	832.3	181.3	92.1	3.3	3.8	0.18	52.65	1.9695	404.4186
11273	1509397273	54.7572	-110.3611	832.2	181.2	91.4	3.5	2.8	0.19	52.66	1.9701	405.8099
11274	1509397274	54.7572	-110.3598	832.1	180.1	90.7	3.3	1.8	0.20	52.75	1.9700	404.7669
11275	1509397275	54.7572	-110.3586	833.7	181.7	91.6	2.9	3.0	0.21	52.85	1.9703	404.9311
11276	1509397276	54.7572	-110.3573	835.7	183.7	92.7	2.9	4.1	0.21	52.90	1.9698	405.0194
11277	1509397277	54.7572	-110.3561	837.0	186.0	92.3	2.8	3.7	0.21	52.91	1.9677	405.5767
11278	1509397278	54.7572	-110.3548	838.6	188.6	92.9	3.2	4.3	0.22	52.90	1.9666	407.1518
11279	1509397279	54.7572	-110.3536	839.4	189.4	91.9	3.3	3.0	0.24	52.90	1.9672	405.5043
11280	1509397280	54.7572	-110.3524	840.6	190.6	91.6	3.0	2.7	0.25	53.01	1.9661	406.6665
11281	1509397281	54.7572	-110.3511	841.8	191.8	92.1	2.5	3.4	0.26	53.23	1.9665	405.6188
11282	1509397282	54.7572	-110.3499	842.7	192.7	91.8	2.4	3.4	0.25	53.40	1.9653	404.8154
11283	1509397283	54.7572	-110.3487	843.4	194.4	92.5	2.4	4.2	0.25	53.51	1.9650	404.2250
11284	1509397284	54.7572	-110.3475	844.8	195.8	91.9	2.1	3.7	0.26	53.61	1.9665	405.4093
11285	1509397285	54.7572	-110.3463	846.9	198.0	92.2	1.9	3.9	0.25	53.68	1.9645	405.5463
11286	1509397286	54.7573	-110.3451	849.0	198.9	91.3	1.5	2.9	0.24	53.73	1.9666	406.5785
11287	1509397287	54.7573	-110.3438	852.1	201.5	91.4	1.8	3.1	0.23	53.78	1.9661	405.8523
11288	1509397288	54.7573	-110.3426	854.7	203.7	92.0	2.6	3.9	0.23	53.82	1.9666	404.5336
11289	1509397289	54.7573	-110.3414	856.3	205.3	91.9	3.4	3.6	0.23	53.86	1.9658	405.8778
11290	1509397290	54.7573	-110.3402	856.7	206.7	91.3	2.8	3.2	0.25	53.85	1.9662	404.7218
11291	1509397291	54.7573	-110.3390	856.3	207.1	92.8	3.0	4.7	0.23	53.82	1.9664	406.1483
11292	1509397292	54.7573	-110.3378	855.3	206.3	91.4	2.0	3.1	0.23	53.76	1.9655	406.8631
11293	1509397293	54.7573	-110.3366	853.6	203.6	91.4	2.3	3.3	0.23	53.76	1.9672	406.6754
11294	1509397294	54.7574	-110.3354	851.0	201.0	91.1	2.5	2.9	0.23	53.77	1.9685	404.6615
11295	1509397295	54.7574	-110.3342	848.7	198.7	91.6	2.8	3.3	0.23	53.78	1.9697	404.9583
11296	1509397296	54.7574	-110.3330	846.8	196.8	92.4	3.0	4.1	0.23	53.78	1.9674	405.2420
11297	1509397297	54.7574	-110.3318	845.6	196.3	92.7	2.7	4.5	0.22	53.75	1.9647	406.3541
11298	1509397298	54.7574	-110.3306	845.0	195.7	93.5	2.7	5.2	0.21	53.67	1.9648	406.4783
11299	1509397299	54.7574	-110.3294	845.2	195.9	92.0	2.1	3.3	0.21	53.63	1.9654	405.3747
11300	1509397300	54.7574	-110.3282	845.3	196.0	91.8	2.5	3.0	0.21	53.63	1.9649	408.1652
11301	1509397301	54.7574	-110.3269	846.2	196.9	91.0	2.6	2.0	0.20	53.72	1.9645	408.1652
11302	1509397302	54.7574	-110.3257	846.0	196.7	91.3	2.3	2.6	0.19	53.87	1.9640	407.0515
11303	1509397303	54.7574	-110.3245	845.0	195.7	92.2	2.7	3.6	0.19	53.97	1.9650	404.8460
11304	1509397304	54.7574	-110.3232	843.7	193.8	92.0	3.0	3.2	0.19	54.00	1.9646	406.2062
11305	1509397305	54.7574	-110.3220	842.3	192.3	92.2	3.2	3.4	0.19	54.00	1.9670	405.6022
11306	1509397306	54.7574	-110.3208	841.1	191.1	92.3	3.0	3.7	0.19	53.98	1.9682	406.1582
11307	1509397307	54.7574	-110.3196	839.7	190.7	92.5	2.9	4.4	0.19	53.90	1.9679	406.1582
11308	1509397308	54.7575	-110.3183	838.5	190.5	92.7	3.1	4.9	0.19	53.65	1.9676	406.1582
11309	1509397309	54.7575	-110.3171	837.4	189.4	92.7	3.2	4.9	0.19	53.39	1.9674	406.1582
11310	1509397310	54.7575	-110.3159	835.9	188.9	92.6	3.3	4.6	0.19	53.18	1.9671	406.1582
11311	1509397311	54.7575	-110.3146	834.3	186.3	93.1	3.5	5.4	0.19	53.04	1.9689	414.2205
11312	1509397312	54.7575	-110.3134	833.4	185.4	92.5	3.4	4.6	0.19	52.96	1.9690	415.2905
11313	1509397313	54.7575	-110.3121	833.2	186.2	91.3	3.2	3.7	0.19	52.96	1.9698	411.9201
11314	1509397314	54.7575	-110.3109	832.1	185.1	92.6	3.4	4.6	0.20	53.06	1.9670	409.1798
11315	1509397315	54.7575	-110.3104	831.6	184.6	92.1	3.4	3.7	0.20	53.21	1.9688	407.6378
11316	1509397316	54.7575	-110.3103	831.4	184.4	91.7	3.4	3.3	0.20	53.36	1.9667	409.8598
11317	1509397317	54.7575	-110.3101	831.2	184.2	91.4	3.4	2.8	0.20	53.51	1.9692	409.8598
11318	1509397318	54.7575	-110.3098	830.9	183.9	91.1	2.3	2.4	0.21	53.66	1.9682	410.4960
11319	1509397319	54.7575	-110.3084	830.2	184.2	91.7	3.1	2.7	0.21	53.81	1.9697	410.8180
11320	1509397320	54.7575	-110.3070	830.9	185.9	91.1	3.5	1.7	0.23	53.84	1.9686	411.7907
11321	1509397321	54.7575	-110.3055	831.4	188.4	92.2	3.9	3.2	0.23	53.75	1.9673	411.7907
11322	1509397322	54.7575	-110.3041	831.2	190.3	91.9	3.9	3.0	0.23	53.63	1.9665	409.2063
11323	1509397323	54.7576	-110.3026	830.8	192.9	91.6	3.8	2.7	0.23	53.58	1.9681	412.8145
11324	1509397324	54.7576	-110.3012	830.5	196.6	91.3	3.5	2.2	0.25	53.58	1.9685	411.4862
11325	1509397325	54.7576	-110.2998	831.4	200.8	92.3	3.7	1.8	0.25	53.60	1.9668	411.4862
11326	1509397326	54.7575	-110.2984	832.4	204.9	95.7	3.4	2.2	0.25	53.64	1.9672	411.7706
11327	1509397327	54.7574	-110.2969	832.6	209.4	101.3	3.0	2.3	0.25	53.66	1.9678	413.5508
11328	1509397328	54.7573	-110.2955	832.8	210.5	109.7	3.2	2.8	0.25	53.63	1.9665	408.7380
11329	1509397329	54.7570	-110.2942	833.5	212.5	118.1	3.1	2.7	0.25	53.54	1.9656	408.7380
11330	1509397330	54.7566	-110.2930	834.3	212.3	126.7	3.1	2.7	0.26	53.47	1.9659	408.1295
11331	1509397331	54.7561	-110.2919	834.2	211.2	134.4	2.3	2.2	0.27	53.47	1.9672	408.4468
11332	1509397332	54.7555	-110.2910	832.3	208.5	141.4	1.9	2.3	0.27	53.55	1.9667	407.3594
11333	1509397333	54.7549	-110.2901	827.8	202.8	149.5	2.3	3.0	0.27	53.66	1.9653	408.5058
11334	1509397334	54.7542	-110.2895	822.9	197.5	156.4	2.1	3.0	0.27	53.71	1.9667	408.5058
11335	1509397335	54.7535	-110.2890	816.5	192.1	161.0	2.5	3.6	0.27	53.72	1.9669	407.7519
11336	1509397336	54.7528	-110.2885	806.9	182.7	165.1	2.7	3.9	0.28	53.65	1.9660	407.3649
11337	1509397337	54.7520	-110.2881	795.2	173.0	168.6	2.8	3.7	0.27	53.49	1.9640	407.7532
11338	1509397338	54.7512	-110.2879	785.4	164.7	172.1	0.6	3.1	0.28	53.37	1.9645	408.2029
11339	1509397339	54.7505	-110.2877	778.3	158.8	176.9	0.8	3.3	0.30	53.28	1.9653	408.3796
11340	1509397340	54.7498	-110.2877	771.4	152.9	183.4	1.4	3.4	0.30	53.20	1.9658	407.1225
11341	1509397341	54.7492	-110.2879	766.4	147.8	189.9	1.9	3.6	0.32	53.10	1.9656	406.2808
11342	1509397342	54.7485	-110.2881	763.2	143.8	193.9	3.1	3.6	0.34	52.94	1.9655	408.6595
11343	1509397343	54.7478	-110.2883	761.1	141.5	195.7	3.8	3.6	0.37	52.72	1.9652	406.2362
11344	1509397344	54.7471	-110.2887	759.0	139.9	195.5	3.7	3.7	0.41	52.47	1.9638	407.4425
11345	1509397345	54.7464	-110.2889	757.7	138.6	193.9	3.3	3.5	0.43	52.23	1.9659	407.5684
11346	1509397346	54.7457	-110.2892	757.7	138.7	192.3	3.3	3.0	0.47	52.05	1.9657	407.1420
11347	1509397347	54.7450	-110.2894	757.6	139.6	190.1	2.8	3.3	0.51	51.91	1.9647	407.1420
11348	1509397348	54.7443	-110.2895	757.3	140.3	188.1	2.9	3.3	0.55	51.79	1.9640	407.3595
11349	1509397349	54.7437	-110.2896	757.4	140.4	186.1	2.4	3.2	0.60	51.70	1.9641	408.1630
11350	1509397350	54.7429	-110.2897	757.7	140.7	184.6	2.5	3.3	0.62	51.64	1.9624	409.0481
11351	1509397351	54.7422	-110.2898	756.5	139.5	184.4	3.0	3.3	0.66	51.59	1.9627	407.5616
11352	1509397352	54.7415	-110.2898	755.2	138.2	183.6	2.7	3.4	0.70	51.51	1.9640	407.5616
11353	1509397353	54.7409	-110.2899	755.1	138.1	183.6	3.0	4.1	0.72	51.34	1.9633	406.6432
11354	1509397354	54.7401	-110.2899	756.9	140.1	183.7	3.4	4.1	0.75	51.13	1.9643	406.3924
11355	1509397355	54.7395	-110.2899	761.7	145.7	183.3	2.8	4.6	0.79	50.96	1.9648	407.9976
11356	1509397356	54.7388	-110.2900	768.6	152.6	183.6	3.1	5.2	0.81	50.77	1.9635	407.8291
11357	1509397357	54.7381	-110.2900	774.8	158.8	184.2	3.2	4.9	0.84	50.57	1.9638	407.2040
11358	1509397358	54.7374	-110.2900	780.3	164.3	184.2	2.5	4.6	0.87	50.44	1.9638	406.0353
11359	1509397359	54.7368	-110.2901	785.0	169.0	184.2	2.0	4.2	0.89	50.40	1.9660	406.0870
11360	1509397360	54.7361	-110.2901	788.3	171.3	185.2	2.8	3.9	0.90	50.42	1.9649	406.0628
11361	1509397361	54.7355	-110.2902	790.3	173.3	184.9	2.1	3.8	0.90	50.44	1.9635	408.0855
11362	1509397362	54.7349	-110.2903	791.6	174.6	184.6	1.8	3.3	0.92	50.46	1.9633	406.5522
11363	1509397363	54.7342	-110.2903	792.1	175.1	184.2	1.7	3.0	0.92	50.66	1.9646	406.4193
11364	1509397364	54.7336	-110.2904	792.2	175.5	183.9	1.9	2.8	0.92	50.96	1.9632	406.7932
11365	1509397365	54.7329	-110.2904	792.1	176.1	182.9	1.6	3.1	0.92	51.20	1.9656	405.5946
11366	1509397366	54.7323	-110.2905	792.4	177.4	182.5	1.9	3.2	0.92	51.39	1.9647	405.8924
11367	1509397367	54.7316	-110.2905	792.9	178.9	182.4	2.2	3.3	0.92	51.54	1.9647	405.8924
11368	1509397368	54.7310	-110.2905	793.1	180.1	182.3	2.3	3.3	0.91	51.60	1.9646	405.8924
11369	1509397369	54.7303	-110.2905	792.4	179.4	182.4	2.7	3.5	0.90	51.63	1.9646	405.8924
11370	1509397370	54.7297	-110.2905	791.7	178.7	182.2	2.4	3.3	0.90	51.63	1.9646	405.8924
11371	1509397371	54.7291	-110.2905	792.9	180.9	181.8	1.9	3.3	0.90	51.62	1.9645	405.8924
11372	1509397372	54.7284	-110.2905	794.5	181.4	182.2	2.2	3.2	0.90	51.62	1.9645	405.8924
11373	1509397373	54.7278	-110.2905	795.6	182.6	182.3	2.3	3.4	0.89	51.61	1.9642	406.4536
11374	1509397374	54.7271	-110.2906	796.6	183.6	182.5	2.2	3.7	0.88	51.61	1.9661	405.6816
11375	1509397375	54.7269	-110.2906	797.1	184.1	182.4	1.8	3.7	0.88	51.61	1.9668	406.0417
11376	1509397376	54.7269	-110.2906	797.1	184.2	182.3	1.8	3.6	0.88	51.61	1.9680	405.3167
11377	1509397377	54.7268	-110.2906	797.2	184.2	182.3	1.7	3.6	0.88	51.61	1.9694	405.5258
11378	1509397378	54.7268	-110.2906	797.3	184.3	182.3	1.6	3.5	0.88	51.61	1.9703	405.5258
11379	1509397379	54.7267	-110.2906	797.3	184.4	182.2	1.5	3.5	0.88	51.61	1.9702	405.1653
11380	1509397380	54.7267	-110.2906	797.4	184.5	182.2	1.4	3.5	0.88	51.61	1.9707	403.8078
11381	1509397381	54.7266	-110.2906	797.5	184.0	182.2	1.3	3.4	0.88	51.61	1.9712	404.1658
11382	1509397382	54.7261	-110.2906	797.7	184.0	182.4	1.1	3.3	0.88	51.61	1.9735	404.1658
11383	1509397383	54.7254	-110.2906	797.6	183.7	183.6	1.6	3.3	0.88	51.61	1.9765	404.8929
11384	1509397384	54.7246	-110.2907	797.6	182.6	184.4	1.8	3.8	0.88	51.61	1.9769	404.6164
11385	1509397385	54.7239	-110.2908	797.4	182.4	185.0	1.6	4.3	0.88	51.61	1.9757	405.3340
11386	1509397386	54.7232	-110.2909	797.2	182.2	185.9	2.1	4.2	0.88	51.61	1.9755	403.2156
11387	1509397387	54.7224	-110.2910	797.0	182.0	186.1	1.9	4.2	0.88	51.61	1.9748	404.4640
11388	1509397388	54.7217	-110.2911	796.7	181.7	185.7	1.8	4.0	0.88	51.61	1.9761	404.4640
11389	1509397389	54.7209	-110.2912	796.7	182.6	185.0	1.6	3.6	0.88	51.61	1.9754	404.2019
11390	1509397390	54.7202	-110.2913	796.9	183.9	184.5	1.7	3.7	0.88	51.61	1.9741	404.5827
11391	1509397391	54.7194	-110.2913	796.4	184.4	184.1	2.0	3.6	0.88	51.61	1.9740	403.2329
11392	1509397392	54.7187	-110.2914	795.4	184.5	183.2	1.7	4.1	0.88	51.61	1.9743	403.2329
11393	1509397393	54.7179	-110.2914	794.4	184.5	182.9	1.7	3.9	0.88	51.61	1.9765	403.7341
11394	1509397394	54.7172	-110.2915	793.1	183.1	182.2	1.1	3.8	0.88	51.61	1.9741	403.4611
11395	1509397395	54.7164	-110.2915	791.5	182.2	182.8	1.8	3.5	0.88	51.61	1.9745	403.4611
11396	1509397396	54.7157	-110.2915	789.9	180.9	182.8	2.1	3.7	0.88	51.61	1.9757	403.9104
11397	1509397397	54.7149	-110.2916	787.4	178.4	183.3	2.6	3.5	0.88	51.61	1.9748	405.0112
11398	1509397398	54.7142	-110.2916	785.1	176.1	182.4	1.7	2.9	0.88	51.61	1.9736	404.3662
11399	1509397399	54.7134	-110.2916	784.4	175.4	182.6	1.5	3.4	0.88	51.61	1.9747	404.1024
11400	1509397400	54.7126	-110.2917	784.0	175.8	184.5	3.4	3.6	0.88	51.61	1.9741	403.7785
11401	1509397401	54.7119	-110.2917	784.2	176.2	184.3	2.7	3.8	0.88	51.61	1.9763	403.8954
11402	1509397402	54.7111	-110.2918	784.6	176.6	184.6	2.9	3.8	0.88	51.61	1.9768	404.0068
11403	1509397403	54.7104	-110.2918	785.5	177.5	183.3	1.3	3.4	0.88	51.61	1.9773	403.3236
11404	1509397404	54.7096	-110.2919	785.2	177.2	184.2	2.4	3.0	0.88	51.61	1.9766	404.0788
11405	1509397405	54.7089	-110.2919	785.6	177.6	184.8	3.0	3.1	0.88	51.61	1.9753	403.0714
11406	1509397406	54.7082	-110.2920	788.9	181.9	184.8	2.9	3.3	0.88	51.61	1.9737	402.8445
11407	1509397407	54.7074	-110.2921	792.3	185.3	185.1	3.0	3.2	0.88	51.61	1.9759	402.4751
11408	1509397408	54.7066	-110.2921	795.8	188.8	183.9	1.7	3.7	0.88	51.61	1.9774	402.6951
11409	1509397409	54.7059	-110.2922	797.7	190.4	184.7	2.9	4.1	0.88	51.61	1.9762	402.0997
11410	1509397410	54.7052	-110.2923	797.9	189.5	184.0	2.1	4.1	0.88	51.61	1.9765	401.8370
11411	1509397411	54.7044	-110.2923	797.6	188.6	184.4	2.6	4.1	0.88	51.61	1.9765	401.8370
11412	1509397412	54.7037	-110.2924	797.3	188.3	183.8	2.0	4.3	0.88	51.61	1.9761	401.0922
11413	1509397413	54.7029	-110.2924	796.3	188.0	184.3	2.6	4.2	0.88	51.61	1.9760	402.6318
11414	1509397414	54.7022	-110.2925	794.5	186.2	184.0	2.4	3.9	0.88	51.61	1.9755	402.7426
11415	1509397415	54.7014	-110.2925	793.4	184.4	183.9	2.4	3.8	0.88	51.61	1.9758	400.5016
11416	1509397416	54.7007	-110.2926	793.3	184.3	183.9	2.3	3.5	0.88	51.61	1.9755	402.2430
11417	1509397417	54.6999	-110.2926	793.1	184.1	183.9	2.0	3.4	0.88	51.61	1.9741	401.4418
11418	1509397418	54.6992	-110.2927	793.0	184.0	183.8	1.7	3.6	0.88	51.61	1.9739	402.5133
11419	1509397419	54.6984	-110.2927	793.7	185.8	183.8	2.3	4.4	0.88	51.61	1.9749	402.9030
11420	1509397420	54.6977	-110.2928	793.9	185.9	184.1	2.6	3.8	0.88	51.61	1.9765	402.5195
11421	1509397421	54.6969	-110.2928	795.6	188.6	183.1	1.4	3.1	0.88	51.61	1.9771	402.8691
11422	1509397422	54.6962	-110.2929	796.8	191.8	183.3	1.9	3.1	0.88	51.61	1.9751	402.3030
11423	1509397423	54.6955	-110.2929	798.2	192.2	183.1	1.9	2.7	0.88	51.61	1.9749	403.2034
11424	1509397424	54.6948	-110.2930	799.2	193.2	183.0	1.9	2.7	0.88	51.61	1.9741	400.2325
11425	1509397425	54.6942	-110.2930	799.8	194.9	183.2	2.2	3.2	0.88	51.61	1.9718	400.2325
11426	1509397426	54.6935	-110.2930	801.0	196.0	183.0	1.9	4.0	0.88	51.61	1.9709	401.8232
11427	1509397427	54.6929	-110.2930	802.0	197.0	183.3	2.4	3.6	0.88	51.61	1.9709	401.8232
11428	1509397428	54.6923	-110.2931	802.9	197.9	183.5	2.4	3.7	0.88	51.61	1.9710	401.8232
11429	1509397429	54.6916	-110.2931	803.6	198.6	182.7	1.5	3.8	0.88	51.61	1.9710	401.8232
11430	1509397430	54.6910	-110.2931	804.0	199.3	183.2	2.1	3.7	0.88	51.61	1.9710	401.8232
11431	1509397431	54.6903	-110.2932	803.8	199.8	182.4	1.2	3.7	0.88	51.61	1.9711	401.8232
11432	1509397432	54.6897	-110.2932	804.1	201.2	181.9	0.6	4.1	0.88	51.61	1.9711	401.8232
11433	1509397433	54.6891	-110.2932	803.9	199.9	182.1	1.1	4.2	0.88	51.61	1.9720	403.2441
11434	1509397434	54.6885	-110.2933	803.3	199.2	183.0	2.1	4.1	0.88	51.61	1.9722	402.9529
11435	1509397435	54.6882	-110.2933	802.8	199.0	182.8	1.9	4.0	0.88	51.61	1.9697	402.9170
11436	1509397436	54.6882	-110.2933	802.8	198.9	182.7	1.8	4.0	0.88	51.61	1.9716	402.7114
11437	1509397437	54.6881	-110.2933	802.7	198.8	182.7	1.8	4.0	0.88	51.61	1.9681	402.7114
11438	1509397438	54.6881	-110.2933	802.6	198.8	182.6	1.7	4.0	0.88	51.61	1.9671	402.6951
11439	1509397439	54.6880	-110.2933	802.6	199.6	182.5	1.6	4.0	0.88	51.61	1.9676	403.3958
11440	1509397440	54.6880	-110.2933	802.5	199.5	182.4	1.5	4.0	0.88	51.61	1.9675	404.0534
11441	1509397441	54.6880	-110.2933	802.4	199.4	182.3	1.4	4.0	0.88	51.61	1.9697	403.6407
11442	1509397442	54.6873	-110.2933	801.0	199.0	182.6	2.0	4.6	0.88	51.61	1.9703	402.8565
11443	1509397443	54.6866	-110.2933	799.0	197.7	182.6	2.3	4.1	0.88	51.61	1.9682	404.8919
11444	1509397444	54.6859	-110.2933	797.6	196.5	181.8	1.7	3.8	0.88	51.61	1.9664	403.0444
11445	1509397445	54.6851	-110.2934	796.1	196.7	182.2	2.3	3.4	0.88	51.61	1.9655	404.5447
11446	1509397446	54.6844	-110.2934	794.3	195.3	182.1	2.1	3.7	0.88	51.61	1.9643	405.1758
11447	1509397447	54.6836	-110.2934	792.7	193.7	182.0	1.9	4.1	0.88	51.61	1.9634	404.2183
11448	1509397448	54.6829	-110.2934	791.1	192.1	181.9	1.4	4.4	0.88	51.61	1.9639	403.6609
11449	1509397449	54.6821	-110.2934	790.1	191.1	182.0	0.9	4.4	0.88	51.61	1.9631	403.6609
11450	1509397450	54.6814	-110.2935	789.2	190.2	182.1	0.4	4.6	0.88	51.61	1.9633	403.5974
11451	1509397451	54.6807	-110.2935	787.7	188.7	183.4	1.5	3.9	0.88	51.61	1.9638	404.0619
11452	1509397452	54.6799	-110.2936	786.2	187.2	183.8	1.5	3.4	0.88	51.61	1.9650	403.6020
11453	1509397453	54.6791	-110.2936	785.9	186.9	184.0	1.6	3.3	0.88	51.61	1.9647	402.8195
11454	1509397454	54.6784	-110.2937	785.2	186.2	184.0	1.8	3.3	0.88	51.61	1.9652	402.7476
11455	1509397455	54.6776	-110.2938	784.3	185.3	184.9	2.8	3.2	0.88	51.61	1.9645	404.1693
11456	1509397456	54.6769	-110.2938	783.9	183.9	183.7	1.1	3.6	0.88	51.61	1.9631	403.9014
11457	1509397457	54.6761	-110.2939	783.5	184.4	184.4	2.4	3.5	0.88	51.61	1.9622	404.9653
11458	1509397458	54.6753	-110.2940	782.5	184.5	184.0	2.0	3.4	0.88	51.61	1.9609	404.1228
11459	1509397459	54.6746	-110.2940	781.6	183.6	183.7	2.0	3.8	0.88	51.61	1.9612	403.8581
11460	1509397460	54.6738	-110.2941	780.7	182.7	183.8	2.2	3.7	0.88	51.61	1.9615	403.8541
11461	1509397461	54.6731	-110.2941	780.0	182.0	183.6	2.1	3.6	0.88	51.61	1.9607	403.9501
11462	1509397462	54.6723	-110.2942	779.8	181.8	183.2	1.7	4.3	0.88	51.61	1.9602	403.6036
11463	1509397463	54.6716	-110.2942	779.7	181.7	183.8	2.6	4.2	0.88	51.61	1.9602	403.7581
11464	1509397464	54.6708	-110.2943	779.8	181.8	183.3	1.8	3.8	0.88	51.61	1.9624	403.4483
11465	1509397465	54.6700	-110.2943	779.5	182.5	183.5	2.1	2.8	0.88	51.61	1.9611	402.5189
11466	1509397466	54.6692	-110.2944	779.5	182.5	183.1	1.5	2.9	0.88	51.61	1.9615	404.2623
11467	1509397467	54.6685	-110.2944	779.7	182.7	183.1	1.2	3.0	0.88	51.61	1.9626	403.6790
11468	1509397468	54.6677	-110.2945	779.3	182.0	183.7	1.6	2.5	0.88	51.61	1.9637	403.8855
11469	1509397469	54.6670	-110.2945	778.8	180.8	183.6	1.8	2.3	0.88	51.61	1.9623	404.5076
11470	1509397470	54.6662	-110.2946	778.8	180.8	183.0	1.4	2.7	0.88	51.61	1.9609	404.4968
11471	1509397471	54.6654	-110.2946	778.8	181.8	182.6	1.3	2.8	0.88	51.61	1.9596	403.7970
11472	1509397472	54.6646	-110.2946	778.5	182.5	182.7	1.6	3.1	0.88	51.61	1.9589	404.0937
11473	1509397473	54.6639	-110.2947	778.3	183.3	183.2	2.1	3.2	0.88	51.61	1.9591	404.4837
11474	1509397474	54.6631	-110.2947	778.0	183.0	183.5	2.5	2.9	0.88	51.61	1.9599	404.4275
11475	1509397475	54.6624	-110.2948	777.7	182.7	183.2	2.1	2.8	0.88	51.61	1.9610	404.4275
11476	1509397476	54.6616	-110.2948	777.4	183.4	183.0	1.7	2.9	0.88	51.61	1.9614	404.8773
11477	1509397477	54.6609	-110.2948	777.6	183.6	182.6	1.0	3.2	0.88	51.61	1.9598	404.8773
11478	1509397478	54.6601	-110.2949	777.9	184.1	183.4	2.1	3.4	0.88	51.61	1.9608	403.6717
11479	1509397479	54.6593	-110.2949	778.2	185.2	182.7	1.4	3.5	0.88	51.61	1.9605	404.3085
11480	1509397480	54.6586	-110.2950	778.8	186.7	183.1	2.1	3.5	0.88	51.61	1.9613	404.2946
11481	1509397481	54.6578	-110.2950	778.3	186.2	183.4	2.5	3.5	0.88	51.61	1.9604	403.2234
11482	1509397482	54.6570	-110.2950	777.8	187.8	182.5	1.1	3.4	0.88	51.61	1.9603	402.9982
11483	1509397483	54.6563	-110.2951	777.6	187.5	182.8	1.7	2.9	0.88	51.61	1.9612	403.5380
11484	1509397484	54.6556	-110.2951	777.0	188.1	182.3	1.1	2.7	0.88	51.61	1.9608	403.5380
11485	1509397485	54.6549	-110.2951	776.1	187.5	182.3	1.3	2.3	0.88	51.61	1.9606	402.8622
11486	1509397486	54.6543	-110.2952	775.5	187.5	182.3	1.3	2.7	0.88	51.61	1.9616	402.8711
11487	1509397487	54.6536	-110.2952	774.4	187.8	182.5	1.8	2.6	0.88	51.61	1.9616	402.9425
11488	1509397488	54.6529	-110.2952	773.7	187.7	182.1	1.5	2.5	0.88	51.61	1.9602	401.9668
11489	1509397489	54.6523	-110.2952	772.6	187.7	182.0	1.7	2.5	0.88	51.61	1.9604	400.2544
11490	1509397490	54.6516	-110.2953	771.3	187.9	181.2	0.9	2.8	0.88	51.61	1.9608	403.0944
11491	1509397491	54.6510	-110.2953	769.4	187.7	181.2	1.1	2.6	0.88	51.61	1.9613	401.9372
11492	1509397492	54.6503	-110.2953	767.0	190.4	181.8	1.7	2.9	0.88	51.61	1.9615	402.3680
11493	1509397493	54.6496	-110.2953	765.5	192.5	181.3	1.0	2.9	0.88	51.61	1.9607	402.3680
11494	1509397494	54.6489	-110.2953	764.4	191.4	181.7	1.3	2.2	0.88	51.61	1.9600	401.1967
11495	1509397495	54.6486	-110.2953	763.8	190.8	182.0	1.5	2.1	0.88	51.61	1.9601	401.6407
11496	1509397496	54.6484	-110.2953	763.5	190.5	182.0	1.3	2.1	0.88	51.61	1.9588	401.6407
11497	1509397497	54.6477	-110.2953	762.2	189.2	182.0	1.0	2.5	0.88	51.61	1.9580	401.2243
11498	1509397498	54.6469	-110.2954	760.8	187.8	182.4	1.1	2.9	0.88	51.61	1.9574	401.7474
11499	1509397499	54.6461	-110.2954	759.1	186.1	183.6	2.2	3.2	0.88	51.61	1.9584	402.0557
11500	1509397500	54.6453	-110.2955	757.7	184.7	184.1	2.3	3.1	0.88	51.61	1.9580	402.0557
11501	1509397501	54.6445	-110.2955	756.8	183.8	184.2	2.3	2.7	0.88	51.61	1.9598	401.5155
11502	1509397502	54.6438	-110.2956	756.2	183.2	184.1	2.2	2.6	0.88	51.61	1.9591	402.7737
11503	1509397503	54.6430	-110.2956	755.0	182.0	183.3	1.6	2.6	0.88	51.61	1.9586	401.7630
11504	1509397504	54.6422	-110.2957	752.9	179.9	183.9	2.6	2.4	0.88	51.61	1.9585	401.7051
11505	1509397505	54.6415	-110.2957	751.2	178.2	183.2	1.7	2.7	0.88	51.61	1.9581	401.2083
11506	1509397506	54.6408	-110.2958	750.0	177.0	182.6	1.2	2.8	0.88	51.61	1.9586	400.5914
11507	1509397507	54.6401	-110.2958	748.6	175.6	183.3	2.0	2.7	0.88	51.61	1.9602	400.6915
11508	1509397508	54.6395	-110.2959	747.5	174.5	183.2	1.9	2.7	0.88	51.61	1.9584	401.3804
11509	1509397509	54.6388	-110.2959	746.3	173.3	184.1	2.9	2.6	0.88	51.61	1.9580	400.7580
11510	1509397510	54.6381	-110.2959	744.3	171.3	183.3	1.8	2.8	0.88	51.61	1.9572	400.9870
11511	1509397511	54.6374	-110.2960	743.0	170.0	183.4	2.0	3.0	0.88	51.61	1.9578	400.6510
11512	1509397512	54.6367	-110.2960	742.3	169.3	183.2	1.5	3.1	0.88	51.61	1.9577	400.6447
11513	1509397513	54.6361	-110.2961	741.5	168.5	183.4	1.4	2.7	0.88	51.61	1.9570	400.6947
11514	1509397514	54.6354	-110.2961	741.2	168.2	183.2	0.8	2.5	0.88	51.61	1.9591	400.5129
11515	1509397515	54.6347	-110.2962	739.9	166.9	184.1	1.9	2.5	0.88	51.61	1.9576	401.7817
11516	1509397516	54.6340	-110.2962	737.5	164.5	184.1	1.9	2.8	0.88	51.61	1.9569	401.0070
11517	1509397517	54.6333	-110.2963	735.4	162.4	184.4	2.4	3.1	0.88	51.61	1.9569	400.7343
11518	1509397518	54.6327	-110.2964	733.5	160.5	184.2	2.1	3.0	0.88	51.61	1.9565	399.9484
11519	1509397519	54.6319	-110.2964	731.6	158.6	183.7	1.4	2.9	0.88	51.61	1.9565	400.1757
11520	1509397520	54.6313	-110.2965	730.0	157.0	183.6	1.2	3.1	0.88	51.61	1.9573	400.0694
11521	1509397521	54.6306	-110.2965	729.1	156.1	183.8	1.4	4.0	0.88	51.61	1.9573	400.5313
11522	1509397522	54.6299	-110.2966	731.0	158.0	183.7	1.1	4.6	0.88	51.61	1.9569	399.6841
11523	1509397523	54.6292	-110.2967	735.8	162.8	184.2	1.4	4.3	0.88	51.61	1.9581	399.3950
11524	1509397524	54.6285	-110.2967	740.3	167.3	184.5	1.3	3.8	0.88	51.61	1.9551	400.5943
11525	1509397525	54.6279	-110.2968	744.4	171.4	184.2	0.9	3.8	0.88	51.61	1.9552	400.9553
11526	1509397526	54.6272	-110.2969	747.7	174.7	185.3	2.0	3.7	0.88	51.61	1.9557	400.3240
11527	1509397527	54.6265	-110.2970	750.3	177.3	184.5	1.2	3.6	0.88	51.61	1.9564	400.3240
11528	1509397528	54.6259	-110.2970	752.2	179.2	186.3	3.5	4.1	0.88	51.61	1.9548	401.5788
11529	1509397529	54.6252	-110.2971	753.9	180.9	185.4	1.9	3.8	0.88	51.61	1.9548	400.1974
11530	1509397530	54.6246	-110.2972	755.9	182.9	185.4	1.6	3.6	0.88	51.61	1.9553	399.1635
11531	1509397531	54.6239	-110.2973	757.8	184.8	185.5	1.6	3.3	0.88	51.61	1.9550	399.1635
11532	1509397532	54.6233	-110.2974	759.1	186.1	185.2	1.4	3.4	0.88	51.61	1.9550	399.7879
11533	1509397533	54.6227	-110.2975	760.6	187.6	185.3	2.0	3.5	0.88	51.61	1.9554	399.8393
11534	1509397534	54.6220	-110.2975	761.8	188.8	185.9	2.9	3.5	0.88	51.61	1.9539	399.6284
11535	1509397535	54.6214	-110.2976	762.3	189.3	184.8	1.7	3.1	0.88	51.61	1.9547	400.3533
11536	1509397536	54.6207	-110.2977	762.5	189.5	183.6	0.7	3.0	0.88	51.61	1.9548	400.1264
11537	1509397537	54.6201	-110.2977	761.9	188.9	184.4	1.9	2.8	0.88	51.61	1.9550	399.4722
11538	1509397538	54.6194	-110.2978	761.3	188.3	183.9	1.7	2.8	0.88	51.61	1.9554	400.0938
11539	1509397539	54.6188	-110.2978	760.3	187.3	184.2	2.2	3.0	0.88	51.61	1.9557	398.5769
11540	1509397540	54.6181	-110.2979	759.6	186.6	183.5	1.8	3.6	0.88	51.61	1.9545	400.2070
11541	1509397541	54.6175	-110.2979	759.0	186.0	184.1	2.6	4.1	0.88	51.61	1.9544	399.3954
11542	1509397542	54.6169	-110.2980	759.1	186.1	183.3	1.4	4.0	0.88	51.61	1.9549	400.0955
11543	1509397543	54.6162	-110.2980	759.6	186.6	183.5	1.6	3.8	0.88	51.61	1.9566	399.5360
11544	1509397544	54.6156	-110.2981	759.7	186.7	183.7	1.7	3.8	0.88	51.61	1.9552	399.6700
11545	1509397545	54.6149	-110.2981	759.9	186.9	184.1	1.8	3.6	0.88	51.61	1.9545	400.6117
11546	1509397546	54.6143	-110.2982	760.2	187.2	184.7	2.2	3.5	0.88	51.61	1.9540	400.5820
11547	1509397547	54.6136	-110.2982	759.8	186.8	185.8	3.3	3.6	0.88	51.61	1.9542	400.3444
11548	1509397548	54.6130	-110.2983	758.8	185.8	185.4	2.3	3.4	0.88	51.61	1.9544	400.1069
11549	1509397549	54.6123	-110.2984	758.2	185.2	185.3	2.4	3.8	0.88	51.61	1.9546	399.8693
11550	1509397550	54.6117	-110.2985	757.8	184.8	185.3	2.7	3.7	0.88	51.61	1.9548	399.6317
11551	1509397551	54.6110	-110.2985	757.4	184.4	184.5	2.3	3.8	0.88	51.61	1.9550	399.3941
11552	1509397552	54.6104	-110.2986	757.1	184.1	184.6	2.9	3.8	0.88	51.61	1.9552	399.1566
11553	1509397553	54.6097	-110.2986	756.9	183.9	184.2	2.7	4.2	0.88	51.61	1.9539	400.1031
11554	1509397554	54.6091	-110.2987	756.5	183.5	183.8	2.4	4.1	0.88	51.61	1.9529	400.7476
11555	1509397555	54.6089	-110.2987	756.4	183.4	183.6	2.1	4.1	0.88	51.61	1.9536	399.4412
11556	1509397556	54.6089	-110.2987	756.3	183.3	183.5	2.0	4.1	0.88	51.61	1.9532	400.5034
11557	1509397557	54.6088	-110.2987	756.3	183.3	183.4	1.9	4.1	0.88	51.61	1.9532	400.4219
11558	1509397558	54.6088	-110.2987	756.2	183.2	183.3	1.7	4.1	0.88	51.61	1.9530	399.6524
11559	1509397559	54.6087	-110.2987	756.2	183.2	183.2	1.6	4.1	0.88	51.61	1.9514	400.9603
11560	1509397560	54.6087	-110.2987	756.2	183.2	183.1	1.5	4.1	0.88	51.61	1.9519	400.8232
11561	1509397561	54.6086	-110.2987	756.1	183.1	183.0	1.4	4.6	0.88	51.61	1.9533	399.6223
11562	1509397562	54.6083	-110.2987	755.6	182.6	182.7	1.1	4.6	0.88	51.61	1.9505	401.0609
11563	1509397563	54.6075	-110.2988	753.9	180.9	184.2	2.3	4.3	0.88	51.61	1.9511	399.7906
11564	1509397564	54.6068	-110.2988	752.6	179.6	184.3	2.0	4.7	0.88	51.61	1.9505	400.3347
11565	1509397565	54.6060	-110.2989	751.6	178.6	185.2	2.5	3.8	0.88	51.61	1.9499	398.9824
11566	1509397566	54.6053	-110.2990	751.1	178.1	185.0	2.0	3.6	0.88	51.61	1.9490	400.1738
11567	1509397567	54.6045	-110.2991	751.0	178.0	185.1	2.1	3.2	0.88	51.61	1.9502	401.6316
11568	1509397568	54.6038	-110.2991	750.7	177.7	185.8	2.7	3.1	0.88	51.61	1.9514	400.0287
11569	1509397569	54.6030	-110.2992	750.6	177.6	184.8	1.2	2.9	0.88	51.61	1.9512	400.6961
11570	1509397570	54.6023	-110.2993	751.1	178.1	184.1	0.5	2.9	0.88	51.61	1.9509	400.0428
11571	1509397571	54.6015	-110.2994	751.8	178.8	184.8	2.0	2.9	0.88	51.61	1.9497	400.1915
11572	1509397572	54.6008	-110.2995	752.8	179.8	183.9	1.4	3.2	0.88	51.61	1.9512	399.8154
11573	1509397573	54.6000	-110.2995	756.0	183.0	182.8	0.7	2.7	0.88	51.61	1.9505	399.8154
11574	1509397574	54.5993	-110.2996	759.0	186.0	183.6	1.9	2.1	0.88	51.61	1.9494	399.6938
11575	1509397575	54.5985	-110.2996	760.9	187.9	183.8	2.2	2.1	0.88	51.61	1.9504	399.6348
11576	1509397576	54.5978	-110.2997	762.8	189.8	183.7	1.8	2.4	0.88	51.61	1.9504	399.1549
11577	1509397577	54.5971	-110.2997	764.7	191.7	183.4	1.3	2.8	0.88	51.61	1.9502	398.8632
11578	1509397578	54.5963	-110.2998	769.9	196.9	182.4	0.5	3.6	0.88	51.61	1.9513	398.8632
11579	1509397579	54.5956	-110.2998	775.3	202.3	183.3	1.5	4.2	0.88	51.61	1.9506	399.9136
11580	1509397580	54.5949	-110.2999	778.8	203.0	182.6	1.3	4.2	0.88	51.61	1.9518	400.0179
11581	1509397581	54.5942	-110.2999	781.4	204.1	182.9	1.9	4.0	0.88	51.61	1.9510	399.0418
11582	1509397582	54.5935	-110.2999	784.0	207.4	182.3	1.3	4.4	0.88	51.61	1.9505	399.8167
11583	1509397583	54.5928	-110.3000	786.6	210.9	182.2	1.2	4.7	0.88	51.61	1.9510	400.4100
11584	1509397584	54.5921	-110.3000	788.5	213.5	182.2	1.4	5.0	0.88	51.61	1.9496	398.2214
11585	1509397585	54.5914	-110.3000	789.4	213.3	183.2	2.4	5.3	0.88	51.61	1.9497	398.2214
11586	1509397586	54.5907	-110.3001	788.9	212.6	183.3	2.1	5.1	0.88	51.61	1.9506	400.8882
11587	1509397587	54.5900	-110.3001	787.9	210.8	183.7	2.3	4.9	0.88	51.61	1.9503	400.8882
11588	1509397588	54.5893	-110.3002	785.9	207.4	183.9	2.3	4.5	0.88	51.61	1.9498	399.9712
11589	1509397589	54.5886	-110.3002	785.4	204.9	183.9	2.4	4.3	0.88	51.61	1.9502	399.9483
11590	1509397590	54.5878	-110.3002	785.9	204.6	183.6	2.3	4.3	0.88	51.61	1.9500	399.9483
11591	1509397591	54.5871	-110.3003	786.4	202.4	183.6	2.6	4.4	0.88	51.61	1.9506	400.5837
11592	1509397592	54.5864	-110.3003	786.9	202.9	183.3	2.5	4.9	0.88	51.61	1.9496	399.6867
11593	1509397593	54.5857	-110.3003	786.8	204.4	183.4	2.9	4.8	0.88	51.61	1.9502	399.4428
11594	1509397594	54.5850	-110.3004	785.7	204.7	183.1	2.7	4.6	0.88	51.61	1.9504	400.9309
11595	1509397595	54.5843	-110.3004	784.4	203.4	182.5	2.1	4.9	0.88	51.61	1.9505	400.5145
11596	1509397596	54.5835	-110.3004	782.7	202.7	182.7	2.4	4.7	0.88	51.61	1.9507	400.4979
11597	1509397597	54.5828	-110.3004	780.4	200.4	182.6	2.4	4.4	0.88	51.61	1.9503	400.8183
11598	1509397598	54.5821	-110.3004	779.3	200.3	182.5	2.3	4.2	0.88	51.61	1.9506	400.7660
11599	1509397599	54.5814	-110.3005	778.8	199.8	182.0	1.6	4.2	0.88	51.61	1.9497	400.5011
11600	1509397600	54.5806	-110.3005	777.9	199.9	182.2	1.5	4.4	0.88	51.61	1.9504	401.1328
11601	1509397601	54.5799	-110.3005	776.2	198.2	182.9	2.1	4.3	0.88	51.61	1.9499	399.3316
11602	1509397602	54.5791	-110.3005	774.2	197.2	183.2	2.2	4.0	0.88	51.61	1.9507	400.8119
11603	1509397603	54.5784	-110.3006	772.1	194.8	183.9	2.4	4.0	0.88	51.61	1.9508	399.1173
11604	1509397604	54.5777	-110.3006	771.4	194.1	184.0	2.3	4.1	0.88	51.61	1.9503	399.1173
11605	1509397605	54.5770	-110.3007	771.0	194.0	183.7	2.1	4.1	0.88	51.61	1.9502	399.7213
11606	1509397606	54.5763	-110.3007	769.9	192.6	183.7	2.4	4.0	0.88	51.61	1.9504	401.2212
11607	1509397607	54.5756	-110.3008	768.9	192.0	183.0	2.1	4.2	0.88	51.61	1.9506	401.2212
11608	1509397608	54.5750	-110.3008	768.0	192.5	183.1	2.5	4.0	0.88	51.61	1.9509	401.2212
11609	1509397609	54.5743	-110.3008	767.2	192.3	182.5	2.1	4.0	0.88	51.61	1.9511	401.2212
11610	1509397610	54.5737	-110.3008	766.9	193.0	182.3	2.0	4.3	0.88	51.61	1.9510	400.7036
11611	1509397611	54.5730	-110.3008	767.0	190.9	181.9	1.4	4.0	0.88	51.61	1.9519	401.4695
11612	1509397612	54.5724	-110.3009	767.1	189.2	182.1	1.7	4.0	0.88	51.61	1.9511	401.1982
11613	1509397613	54.5718	-110.3009	766.5	186.5	182.6	2.0	3.9	0.88	51.61	1.9507	401.1703
11614	1509397614	54.5711	-110.3009	765.0	184.3	182.0	1.4	3.5	0.88	51.61	1.9508	399.8254
11615	1509397615	54.5709	-110.3009	764.6	183.9	181.9	1.4	3.5	0.88	51.61	1.9504	400.8172
11616	1509397616	54.5709	-110.3009	764.6	183.9	182.0	1.5	3.6	0.88	51.61	1.9502	399.0439
11617	1509397617	54.5708	-110.3009	764.5	184.5	182.0	1.5	3.7	0.88	51.61	1.9519	400.4302
11618	1509397618	54.5708	-110.3009	764.4	184.4	182.1	1.6	3.3	0.88	51.61	1.9527	400.7044
11619	1509397619	54.5707	-110.3009	764.3	184.3	182.1	1.6	3.4	0.88	51.61	1.9530	400.5899
11620	1509397620	54.5707	-110.3009	764.2	184.2	182.1	1.7	4.0	0.88	51.61	1.9515	398.3932
11621	1509397621	54.5706	-110.3009	764.1	184.2	182.2	1.8	4.3	0.88	51.61	1.9526	400.1338
11622	1509397622	54.5702	-110.3009	763.5	184.6	182.0	1.5	4.0	0.88	51.61	1.9515	400.1338
11623	1509397623	54.5694	-110.3009	762.9	183.9	181.0	0.7	3.1	0.88	51.61	1.9519	400.3760
11624	1509397624	54.5687	-110.3010	762.1	182.4	180.8	0.5	2.6	0.88	51.61	1.9526	399.8857
11625	1509397625	54.5679	-110.3010	761.2	181.2	181.0	1.1	2.5	0.88	51.61	1.9528	402.0040
11626	1509397626	54.5672	-110.3010	760.2	179.2	181.3	1.6	2.9	0.88	51.61	1.9528	401.3627
11627	1509397627	54.5664	-110.3010	758.5	176.8	181.7	1.8	3.2	0.88	51.61	1.9530	399.7120
11628	1509397628	54.5657	-110.3010	758.0	174.9	181.4	1.0	3.2	0.88	51.61	1.9529	399.9855
11629	1509397629	54.5649	-110.3010	759.0	175.0	181.4	0.6	3.3	0.88	51.61	1.9527	399.9855
11630	1509397630	54.5642	-110.3010	759.9	175.8	182.5	2.1	3.4	0.88	51.61	1.9528	399.6330
11631	1509397631	54.5634	-110.3010	760.3	177.3	182.4	2.3	2.9	0.88	51.61	1.9529	401.1119
11632	1509397632	54.5627	-110.3011	760.9	177.9	182.3	2.2	3.5	0.88	51.61	1.9537	400.8086
11633	1509397633	54.5619	-110.3011	761.5	179.6	182.4	2.1	3.3	0.88	51.61	1.9550	401.1937
11634	1509397634	54.5612	-110.3011	762.4	181.7	183.0	2.3	3.3	0.88	51.61	1.9536	400.5470
11635	1509397635	54.5604	-110.3011	763.2	185.2	182.4	0.9	3.5	0.88	51.61	1.9537	400.4235
11636	1509397636	54.5597	-110.3012	763.7	189.7	183.4	1.7	3.5	0.88	51.61	1.9532	400.8746
11637	1509397637	54.5589	-110.3012	763.7	192.3	184.4	2.4	3.4	0.88	51.61	1.9542	401.4111
11638	1509397638	54.5582	-110.3013	764.4	199.6	184.9	2.5	3.5	0.88	51.61	1.9551	401.0765
11639	1509397639	54.5574	-110.3014	765.6	208.2	184.6	1.8	3.4	0.88	51.61	1.9559	401.2011
11640	1509397640	54.5567	-110.3015	766.8	214.4	185.5	2.3	3.3	0.88	51.61	1.9549	400.2287
11641	1509397641	54.5559	-110.3015	768.2	218.4	185.9	1.9	3.2	0.88	51.61	1.9537	400.7685
11642	1509397642	54.5552	-110.3017	770.1	224.1	186.9	1.1	3.4	0.88	51.61	1.9547	400.9506
11643	1509397643	54.5545	-110.3018	772.5	227.5	189.3	0.9	4.1	0.88	51.61	1.9552	400.5084
11644	1509397644	54.5537	-110.3021	773.8	228.8	193.4	1.5	4.8	0.88	51.61	1.9544	400.5084
11645	1509397645	54.5530	-110.3024	773.1	228.1	198.1	1.6	5.0	0.88	51.61	1.9548	400.6625
11646	1509397646	54.5524	-110.3029	769.6	224.6	204.0	1.4	5.0	0.88	51.61	1.9538	400.6675
11647	1509397647	54.5517	-110.3035	765.0	220.0	211.8	1.5	5.0	0.88	51.61	1.9545	400.1284
11648	1509397648	54.5511	-110.3042	760.7	215.7	219.0	1.5	5.2	0.88	51.61	1.9551	400.5095
11649	1509397649	54.5506	-110.3051	756.2	211.2	225.1	1.7	5.6	0.88	51.61	1.9540	400.0407
11650	1509397650	54.5501	-110.3061	750.6	201.6	231.0	2.0	5.5	0.88	51.61	1.9541	400.3016
11651	1509397651	54.5497	-110.3072	744.6	190.6	237.6	2.0	5.1	0.88	51.61	1.9543	401.2510
11652	1509397652	54.5494	-110.3084	739.0	183.0	243.5	2.2	4.5	0.88	51.61	1.9549	400.5532
11653	1509397653	54.5491	-110.3096	733.9	177.9	247.3	1.6	4.9	0.88	51.61	1.9561	401.5939
11654	1509397654	54.5488	-110.3109	730.2	175.2	252.2	1.7	2.3	0.88	51.61	1.9544	400.4257
11655	1509397655	54.5486	-110.3122	728.2	174.2	253.2	0.6	3.7	0.88	51.61	1.9557	400.4257
11656	1509397656	54.5484	-110.3136	726.2	172.2	254.8	0.7	3.3	0.88	51.61	1.9552	399.8377
11657	1509397657	54.5483	-110.3149	724.3	170.3	255.1	0.9	4.0	0.88	51.61	1.9554	400.2102
11658	1509397658	54.5481	-110.3163	723.2	168.9	255.8	1.5	4.1	0.88	51.61	1.9558	400.6533
11659	1509397659	54.5480	-110.3176	722.2	166.3	256.4	2.2	4.8	0.88	51.61	1.9546	400.6533
11660	1509397660	54.5478	-110.3190	721.5	163.5	257.2	2.2	5.1	0.88	51.61	1.9557	400.8481
11661	1509397661	54.5477	-110.3203	720.0	161.4	259.0	2.1	4.8	0.88	51.61	1.9554	400.8857
11662	1509397662	54.5476	-110.3217	718.0	155.7	261.3	1.6	4.5	0.88	51.61	1.9544	400.8621
11663	1509397663	54.5476	-110.3230	716.1	152.4	263.6	1.4	4.9	0.88	51.61	1.9558	400.8984
11664	1509397664	54.5475	-110.3243	714.1	155.5	266.7	1.8	3.9	0.88	51.61	1.9563	400.6826
11665	1509397665	54.5475	-110.3255	713.4	158.1	268.6	1.3	3.8	0.88	51.61	1.9561	401.3037
11666	1509397666	54.5476	-110.3267	715.1	155.0	269.8	1.5	3.7	0.88	51.61	1.9552	399.9622
11667	1509397667	54.5476	-110.3279	717.1	154.5	269.7	1.8	4.3	0.88	51.61	1.9558	399.9622
11668	1509397668	54.5476	-110.3291	718.4	154.8	270.1	1.5	4.0	0.88	51.61	1.9564	399.9622
11669	1509397669	54.5477	-110.3303	719.6	157.0	269.9	1.2	4.5	0.88	51.61	1.9569	399.9622
11670	1509397670	54.5477	-110.3315	720.3	156.4	269.8	1.7	5.0	0.88	51.61	1.9556	401.0584
11671	1509397671	54.5478	-110.3327	720.3	153.5	270.6	1.8	4.8	0.88	51.61	1.9571	399.6172
11672	1509397672	54.5478	-110.3338	720.9	149.9	271.8	2.0	4.3	0.88	51.61	1.9546	399.4643
11673	1509397673	54.5479	-110.3350	723.3	150.3	272.3	1.9	4.2	0.88	51.61	1.9542	400.5541
11674	1509397674	54.5479	-110.3362	726.0	152.0	272.9	2.0	4.0	0.88	51.61	1.9543	399.5631
11675	1509397675	54.5480	-110.3366	726.7	151.6	273.0	2.0	4.2	0.88	51.61	1.9554	400.7000
11676	1509397676	54.5480	-110.3368	726.9	151.9	272.9	1.9	4.4	0.88	51.61	1.9556	399.8974
11677	1509397677	54.5480	-110.3370	727.1	152.1	272.9	1.8	4.6	0.88	51.61	1.9553	399.4698
11678	1509397678	54.5480	-110.3372	727.4	152.4	272.8	1.8	4.8	0.88	51.61	1.9569	399.4698
11679	1509397679	54.5481	-110.3385	729.3	155.0	273.3	1.8	5.4	0.88	51.61	1.9560	398.9851
11680	1509397680	54.5482	-110.3398	730.4	163.0	275.0	1.5	4.9	0.88	51.61	1.9551	400.7852
11681	1509397681	54.5483	-110.3412	730.4	172.0	276.7	1.3	4.9	0.88	51.61	1.9555	401.4325
11682	1509397682	54.5485	-110.3425	730.1	175.9	279.0	0.9	4.3	0.88	51.61	1.9563	400.1011
11683	1509397683	54.5487	-110.3438	730.4	176.4	279.9	1.2	4.7	0.88	51.61	1.9566	399.9695
11684	1509397684	54.5489	-110.3451	731.1	177.1	281.1	1.4	4.2	0.88	51.61	1.9569	401.3646
11685	1509397685	54.5491	-110.3465	730.7	173.7	281.2	1.5	4.5	0.88	51.61	1.9584	399.9135
11686	1509397686	54.5493	-110.3478	730.2	169.8	281.9	1.4	4.1	0.88	51.61	1.9577	400.3504
11687	1509397687	54.5495	-110.3491	730.9	171.0	281.6	1.8	5.0	0.88	51.61	1.9554	400.3504
11688	1509397688	54.5497	-110.3504	732.8	171.8	282.6	1.8	4.2	0.88	51.61	1.9549	399.8466
11689	1509397689	54.5499	-110.3517	734.7	179.0	282.7	1.8	4.6	0.88	51.61	1.9545	400.9178
11690	1509397690	54.5501	-110.3530	735.9	182.0	282.5	2.0	4.7	0.88	51.61	1.9549	400.0585
11691	1509397691	54.5504	-110.3542	736.7	171.4	282.6	1.9	4.8	0.88	51.61	1.9569	399.9775
11692	1509397692	54.5506	-110.3555	736.9	157.8	282.7	1.7	4.9	0.88	51.61	1.9565	399.9161
11693	1509397693	54.5508	-110.3568	738.0	149.1	282.6	1.9	5.2	0.88	51.61	1.9544	399.9943
11694	1509397694	54.5510	-110.3580	739.2	143.9	283.4	1.5	4.6	0.88	51.61	1.9550	400.0176
11695	1509397695	54.5513	-110.3593	741.9	141.0	283.8	1.4	4.4	0.88	51.61	1.9542	400.3548
11696	1509397696	54.5515	-110.3606	745.7	139.8	283.8	1.9	4.7	0.88	51.61	1.9541	400.3648
11697	1509397697	54.5517	-110.3619	748.7	139.2	284.6	1.8	3.8	0.88	51.61	1.9530	399.8371
11698	1509397698	54.5520	-110.3631	751.0	136.9	284.8	1.5	3.6	0.88	51.61	1.9539	400.5765
11699	1509397699	54.5522	-110.3643	752.4	137.4	284.1	1.3	3.8	0.88	51.61	1.9537	399.5155
11700	1509397700	54.5524	-110.3654	753.1	137.0	283.4	1.2	3.8	0.88	51.61	1.9526	400.3773
11701	1509397701	54.5525	-110.3664	753.1	138.1	282.7	0.8	4.3	0.88	51.61	1.9524	400.3773
11702	1509397702	54.5527	-110.3675	753.0	140.1	282.3	0.7	4.2	0.88	51.61	1.9518	400.6284
11703	1509397703	54.5529	-110.3686	753.3	142.0	282.2	0.6	4.0	0.88	51.61	1.9543	400.4396
11704	1509397704	54.5531	-110.3697	753.9	144.9	281.7	0.1	3.8	0.88	51.61	1.9537	398.9693
11705	1509397705	54.5532	-110.3708	754.1	148.4	280.2	0.2	4.4	0.88	51.61	1.9541	398.9693
11706	1509397706	54.5534	-110.3719	755.4	153.3	277.9	0.0	5.8	0.88	51.61	1.9538	400.2447
11707	1509397707	54.5535	-110.3730	758.5	158.2	277.6	0.4	5.2	0.88	51.61	1.9532	400.7445
11708	1509397708	54.5536	-110.3741	763.1	164.1	277.3	1.0	5.1	0.88	51.61	1.9532	400.3488
11709	1509397709	54.5538	-110.3752	769.6	171.3	277.6	1.5	4.7	0.88	51.61	1.9535	400.3488
11710	1509397710	54.5539	-110.3762	779.4	181.7	277.0	3.1	5.3	0.88	51.61	1.9541	399.3797
11711	1509397711	54.5540	-110.3772	791.2	194.5	277.5	3.3	4.8	0.88	51.61	1.9538	399.3776
11712	1509397712	54.5542	-110.3782	801.1	206.0	277.4	2.9	5.2	0.88	51.61	1.9550	397.8832
11713	1509397713	54.5543	-110.3793	806.5	212.7	277.2	2.0	5.4	0.88	51.61	1.9544	400.7023
11714	1509397714	54.5544	-110.3803	809.1	216.1	277.3	1.5	4.8	0.88	51.61	1.9550	399.0749
11715	1509397715	54.5545	-110.3813	811.0	219.0	276.6	1.1	5.5	0.88	51.61	1.9544	400.9892
11716	1509397716	54.5546	-110.3823	810.8	221.1	276.4	0.6	5.4	0.88	51.61	1.9559	400.2227
11717	1509397717	54.5547	-110.3833	808.4	220.9	277.0	0.4	4.5	0.88	51.61	1.9561	400.2459
11718	1509397718	54.5549	-110.3843	804.7	220.4	276.6	0.7	4.8	0.88	51.61	1.9549	401.0500
11719	1509397719	54.5550	-110.3853	801.8	220.8	275.9	0.2	5.1	0.88	51.61	1.9541	401.0639
11720	1509397720	54.5551	-110.3864	799.3	216.1	276.2	-0.1	4.7	0.88	51.61	1.9542	400.0813
11721	1509397721	54.5552	-110.3874	796.2	210.4	275.5	-0.1	5.6	0.88	51.61	1.9546	400.1773
11722	1509397722	54.5553	-110.3885	792.5	203.6	275.0	0.2	6.1	0.88	51.61	1.9554	400.9765
11723	1509397723	54.5554	-110.3896	789.4	199.4	275.7	0.7	6.0	0.88	51.61	1.9559	401.8166
11724	1509397724	54.5555	-110.3907	786.9	195.6	276.6	0.9	5.7	0.88	51.61	1.9594	405.4310
11725	1509397725	54.5557	-110.3918	785.2	191.4	277.4	0.6	5.5	0.88	51.61	1.9652	408.1502
11726	1509397726	54.5558	-110.3929	784.5	189.2	277.9	1.1	5.5	0.88	51.61	1.9649	407.5143
11727	1509397727	54.5559	-110.3940	783.8	186.1	279.4	1.4	4.4	0.88	51.61	1.9644	407.5143
11728	1509397728	54.5561	-110.3950	784.0	184.5	279.6	1.3	4.5	0.88	51.61	1.9639	407.5143
11729	1509397729	54.5562	-110.3961	784.3	183.3	279.7	1.0	4.5	0.88	51.61	1.9634	407.5143
11730	1509397730	54.5564	-110.3972	784.6	183.5	279.5	0.9	4.6	0.88	51.61	1.9630	407.5143
11731	1509397731	54.5565	-110.3983	785.8	185.5	279.2	1.0	4.8	0.88	51.61	1.9625	407.5143
11732	1509397732	54.5567	-110.3994	786.2	185.6	278.9	1.0	4.9	0.88	51.61	1.9620	407.5143
11733	1509397733	54.5568	-110.4005	786.4	185.7	278.4	0.8	5.2	0.88	51.61	1.9608	418.3495
11734	1509397734	54.5570	-110.4016	786.2	185.2	278.5	0.3	5.1	0.88	51.61	1.9528	401.3332
11735	1509397735	54.5570	-110.4019	786.1	185.1	278.6	0.4	4.9	0.88	51.61	1.9553	402.6796
11736	1509397736	54.5570	-110.4020	786.1	185.1	278.7	0.4	4.9	0.88	51.61	1.9561	401.6412
11737	1509397737	54.5570	-110.4021	786.1	185.1	278.7	0.5	4.9	0.88	51.61	1.9562	401.1494
11738	1509397738	54.5570	-110.4022	786.0	185.0	278.7	0.5	4.8	0.88	51.61	1.9568	400.3209
11739	1509397739	54.5571	-110.4023	786.0	185.0	278.7	0.6	4.8	0.88	51.61	1.9562	399.4309
11740	1509397740	54.5571	-110.4023	786.0	185.0	278.7	0.6	4.8	0.88	51.61	1.9552	401.5958
11741	1509397741	54.5571	-110.4024	786.0	185.0	278.8	0.2	4.8	0.88	51.61	1.9555	400.5287
11742	1509397742	54.5572	-110.4035	786.2	185.2	278.4	1.1	5.1	0.88	51.61	1.9555	400.2424
11743	1509397743	54.5574	-110.4048	786.0	182.5	278.9	0.9	4.3	0.88	51.61	1.9548	400.0358
11744	1509397744	54.5575	-110.4061	786.0	180.6	278.7	0.9	4.8	0.88	51.61	1.9548	401.0312
11745	1509397745	54.5577	-110.4073	786.4	180.4	278.1	0.5	5.7	0.88	51.61	1.9549	400.9897
11746	1509397746	54.5579	-110.4086	786.3	181.0	279.0	0.8	4.8	0.88	51.61	1.9552	400.1977
11747	1509397747	54.5580	-110.4099	786.2	182.2	278.4	0.5	5.8	0.88	51.61	1.9544	400.7672
11748	1509397748	54.5582	-110.4111	786.5	184.5	279.2	0.7	4.7	0.88	51.61	1.9545	400.7672
11749	1509397749	54.5584	-110.4124	786.6	186.2	278.6	0.8	5.1	0.88	51.61	1.9554	400.5957
11750	1509397750	54.5585	-110.4137	786.7	187.0	278.3	0.3	5.1	0.88	51.61	1.9561	399.4738
11751	1509397751	54.5587	-110.4150	786.4	187.4	278.6	0.0	4.6	0.88	51.61	1.9577	400.0156
11752	1509397752	54.5589	-110.4162	787.0	188.0	277.6	0.1	5.6	0.88	51.61	1.9590	399.7374
11753	1509397753	54.5590	-110.4175	787.9	188.7	278.7	-0.1	4.3	0.88	51.61	1.9587	399.9097
11754	1509397754	54.5592	-110.4188	788.7	187.0	278.7	0.3	4.3	0.88	51.61	1.9606	400.1168
11755	1509397755	54.5593	-110.4201	789.9	186.0	278.8	0.7	4.0	0.88	51.61	1.9603	400.6604
11756	1509397756	54.5595	-110.4214	790.4	184.4	279.0	0.8	3.8	0.88	51.61	1.9598	399.8119
11757	1509397757	54.5597	-110.4227	790.9	183.9	278.7	0.5	4.4	0.88	51.61	1.9606	399.8239
11758	1509397758	54.5598	-110.4240	792.2	185.2	278.8	0.6	4.6	0.88	51.61	1.9608	400.0063
11759	1509397759	54.5600	-110.4253	793.2	187.5	278.7	0.6	4.7	0.88	51.61	1.9611	400.0850
11760	1509397760	54.5602	-110.4266	793.9	189.8	279.2	0.6	4.3	0.88	51.61	1.9595	400.4187
11761	1509397761	54.5603	-110.4279	793.7	192.7	278.8	1.0	4.6	0.88	51.61	1.9602	400.2850
11762	1509397762	54.5605	-110.4292	793.7	194.7	279.2	1.1	4.0	0.88	51.61	1.9601	399.9034
11763	1509397763	54.5607	-110.4305	793.0	195.6	278.7	1.0	4.6	0.88	51.61	1.9583	399.0221
11764	1509397764	54.5608	-110.4318	792.4	196.5	278.3	1.0	5.1	0.88	51.61	1.9584	399.0221
11765	1509397765	54.5610	-110.4331	791.7	195.1	278.0	0.6	5.2	0.88	51.61	1.9608	400.5959
11766	1509397766	54.5611	-110.4344	791.4	191.4	278.4	0.2	4.6	0.88	51.61	1.9615	400.4727
11767	1509397767	54.5613	-110.4357	791.4	191.4	278.9	0.2	3.7	0.88	51.61	1.9625	399.8135
11768	1509397768	54.5615	-110.4370	791.3	189.6	279.3	0.4	3.3	0.88	51.61	1.9617	399.5396
11769	1509397769	54.5616	-110.4383	791.7	191.1	277.5	0.9	5.1	0.88	51.61	1.9609	400.4608
11770	1509397770	54.5618	-110.4396	792.1	190.7	277.4	1.2	5.1	0.88	51.61	1.9602	399.4467
11771	1509397771	54.5619	-110.4409	792.1	191.7	277.2	1.3	5.3	0.88	51.61	1.9573	399.1351
11772	1509397772	54.5621	-110.4422	792.3	191.3	277.7	1.2	4.7	0.88	51.61	1.9577	400.3558
11773	1509397773	54.5622	-110.4435	792.9	191.5	278.1	1.2	4.2	0.88	51.61	1.9573	400.8568
11774	1509397774	54.5624	-110.4448	793.5	193.7	278.3	1.0	3.8	0.88	51.61	1.9606	400.3309
11775	1509397775	54.5625	-110.4461	793.2	194.5	278.1	0.4	4.0	0.88	51.61	1.9581	399.9514
11776	1509397776	54.5627	-110.4474	793.3	196.4	278.1	0.0	4.2	0.88	51.61	1.9587	399.8947
11777	1509397777	54.5628	-110.4487	793.2	196.2	278.2	0.0	4.5	0.88	51.61	1.9587	400.1018
11778	1509397778	54.5630	-110.4500	793.2	196.2	279.1	-0.1	4.1	0.88	51.61	1.9596	400.5666
11779	1509397779	54.5632	-110.4513	793.0	196.0	279.1	0.4	4.5	0.88	51.61	1.9600	399.8055
11780	1509397780	54.5633	-110.4526	792.7	196.7	279.1	0.7	4.2	0.88	51.61	1.9613	399.8055
11781	1509397781	54.5635	-110.4539	792.5	196.6	278.3	0.8	4.8	0.88	51.61	1.9572	399.8172
11782	1509397782	54.5636	-110.4552	792.1	196.1	277.2	0.8	5.7	0.88	51.61	1.9562	400.4655
11783	1509397783	54.5638	-110.4564	791.8	196.8	277.9	0.9	4.2	0.88	51.61	1.9555	399.9128
11784	1509397784	54.5639	-110.4576	791.7	196.7	278.4	0.9	3.7	0.88	51.61	1.9571	400.1223
11785	1509397785	54.5641	-110.4587	792.0	197.0	277.3	0.6	5.1	0.88	51.61	1.9609	400.9349
11786	1509397786	54.5642	-110.4599	792.4	198.5	277.4	0.7	5.0	0.88	51.61	1.9614	400.3722
11787	1509397787	54.5643	-110.4610	793.2	200.1	277.4	1.2	5.1	0.88	51.61	1.9615	400.3722
11788	1509397788	54.5645	-110.4621	794.5	203.5	277.4	1.5	5.2	0.88	51.61	1.9598	401.4366
11789	1509397789	54.5646	-110.4632	795.8	205.8	277.4	1.2	5.4	0.88	51.61	1.9560	400.1093
11790	1509397790	54.5647	-110.4644	796.7	206.7	277.7	1.1	4.9	0.88	51.61	1.9555	400.2006
11791	1509397791	54.5649	-110.4655	797.4	207.0	278.5	1.2	4.2	0.88	51.61	1.9562	400.5239
11792	1509397792	54.5650	-110.4666	798.5	208.5	278.5	1.3	4.4	0.88	51.61	1.9578	399.6125
11793	1509397793	54.5651	-110.4678	799.2	208.6	278.9	1.3	4.4	0.88	51.61	1.9552	400.4439
11794	1509397794	54.5653	-110.4689	800.4	209.6	278.2	1.5	5.5	0.88	51.61	1.9558	400.3461
11795	1509397795	54.5653	-110.4694	801.1	210.1	278.5	1.2	5.2	0.88	51.61	1.9559	400.4978
11796	1509397796	54.5654	-110.4697	801.6	210.9	278.9	1.1	4.8	0.88	51.61	1.9556	400.5263
11797	1509397797	54.5656	-110.4710	802.9	212.9	279.3	1.0	4.4	0.88	51.61	1.9553	400.8435
11798	1509397798	54.5657	-110.4723	803.0	212.6	279.2	0.9	4.4	0.88	51.61	1.9552	398.4318
11799	1509397799	54.5659	-110.4735	802.8	211.8	278.1	1.1	5.2	0.88	51.61	1.9548	400.3591
11800	1509397800	54.5660	-110.4748	803.7	213.0	277.9	1.1	5.1	0.88	51.61	1.9556	399.5507
11801	1509397801	54.5662	-110.4761	805.3	214.3	277.6	1.3	5.5	0.88	51.61	1.9551	400.1228
11802	1509397802	54.5664	-110.4774	806.1	215.1	277.9	1.5	5.1	0.88	51.61	1.9541	399.7038
11803	1509397803	54.5665	-110.4787	807.2	214.8	277.3	2.1	5.8	0.88	51.61	1.9554	399.6815
11804	1509397804	54.5667	-110.4799	808.0	213.8	278.0	2.0	4.9	0.88	51.61	1.9546	400.5262
11805	1509397805	54.5668	-110.4812	809.0	213.0	277.5	1.9	5.1	0.88	51.61	1.9555	401.2819
11806	1509397806	54.5670	-110.4823	810.6	213.3	278.9	1.2	3.4	0.88	51.61	1.9562	399.9275
11807	1509397807	54.5671	-110.4834	811.6	212.9	278.2	0.9	4.5	0.88	51.61	1.9554	399.9275
11808	1509397808	54.5672	-110.4845	812.0	213.0	277.7	0.7	5.5	0.88	51.61	1.9560	399.5663
11809	1509397809	54.5674	-110.4857	812.0	213.0	278.5	1.0	4.8	0.88	51.61	1.9561	399.9471
11810	1509397810	54.5675	-110.4868	811.6	212.6	278.6	0.9	5.0	0.88	51.61	1.9568	399.9471
11811	1509397811	54.5677	-110.4878	810.8	211.8	278.5	0.8	5.1	0.88	51.61	1.9582	400.1672
11812	1509397812	54.5678	-110.4890	810.4	211.4	278.4	1.2	4.9	0.88	51.61	1.9597	400.0881
11813	1509397813	54.5679	-110.4901	810.7	211.7	278.2	1.1	4.7	0.88	51.61	1.9583	400.7164
11814	1509397814	54.5681	-110.4912	811.0	213.0	278.3	1.0	4.3	0.88	51.61	1.9581	399.3343
11815	1509397815	54.5682	-110.4924	811.8	213.9	277.6	1.2	4.7	0.88	51.61	1.9604	400.7958
11816	1509397816	54.5683	-110.4935	812.7	215.7	277.1	1.8	5.0	0.88	51.61	1.9588	400.7958
11817	1509397817	54.5685	-110.4946	812.8	215.1	276.8	1.8	5.1	0.88	51.61	1.9585	398.5345
11818	1509397818	54.5686	-110.4957	812.7	215.3	276.6	1.7	5.2	0.88	51.61	1.9589	398.5345
11819	1509397819	54.5687	-110.4968	812.7	215.7	276.5	1.7	5.1	0.88	51.61	1.9598	400.4376
11820	1509397820	54.5688	-110.4980	812.6	216.4	276.0	1.2	5.4	0.88	51.61	1.9615	400.5012
11821	1509397821	54.5689	-110.4991	812.5	216.1	276.3	1.0	4.6	0.88	51.61	1.9610	401.0077
11822	1509397822	54.5691	-110.5002	812.0	215.0	276.4	0.9	4.6	0.88	51.61	1.9586	400.6310
11823	1509397823	54.5692	-110.5014	811.8	212.7	275.8	1.3	5.2	0.88	51.61	1.9589	400.6310
11824	1509397824	54.5693	-110.5025	811.5	211.6	275.4	1.5	5.6	0.88	51.61	1.9578	399.7733
11825	1509397825	54.5694	-110.5036	811.0	210.3	275.2	1.1	6.0	0.88	51.61	1.9582	400.2023
11826	1509397826	54.5695	-110.5048	810.3	209.2	275.3	1.2	6.1	0.88	51.61	1.9588	397.1387
11827	1509397827	54.5696	-110.5059	809.7	207.8	275.9	1.3	5.6	0.88	51.61	1.9591	399.4908
11828	1509397828	54.5698	-110.5070	809.1	207.1	275.5	1.2	5.9	0.88	51.61	1.9606	400.4784
11829	1509397829	54.5699	-110.5082	808.7	206.6	275.8	1.1	5.2	0.88	51.61	1.9600	399.7509
11830	1509397830	54.5700	-110.5093	808.1	205.1	275.3	1.0	5.5	0.88	51.61	1.9615	399.7674
11831	1509397831	54.5701	-110.5104	807.5	204.5	274.3	1.2	6.1	0.88	51.61	1.9632	400.3503
11832	1509397832	54.5702	-110.5116	805.7	202.7	274.7	1.1	5.3	0.88	51.61	1.9632	399.7455
11833	1509397833	54.5703	-110.5127	803.4	200.4	274.7	0.8	5.3	0.88	51.61	1.9627	401.3467
11834	1509397834	54.5704	-110.5139	801.4	199.4	275.0	0.8	5.5	0.88	51.61	1.9625	400.8623
11835	1509397835	54.5705	-110.5150	799.8	197.8	275.5	1.2	5.9	0.88	51.61	1.9686	400.2608
11836	1509397836	54.5706	-110.5162	799.2	197.2	276.4	1.7	5.8	0.88	51.61	1.9714	402.4395
11837	1509397837	54.5708	-110.5173	799.4	197.4	278.2	1.9	4.6	0.88	51.61	1.9699	400.5566
11838	1509397838	54.5709	-110.5185	800.3	199.2	279.1	1.3	4.0	0.88	51.61	1.9679	400.1860
11839	1509397839	54.5711	-110.5196	800.7	200.7	279.2	0.1	4.6	0.88	51.61	1.9642	400.2111
11840	1509397840	54.5712	-110.5208	801.0	203.3	278.6	0.1	5.5	0.88	51.61	1.9648	400.7619
11841	1509397841	54.5714	-110.5219	801.2	206.9	278.1	0.7	5.6	0.88	51.61	1.9678	400.5836
11842	1509397842	54.5715	-110.5230	801.4	211.5	277.3	1.2	5.9	0.88	51.61	1.9685	398.9138
11843	1509397843	54.5716	-110.5242	801.8	211.8	276.6	1.3	5.9	0.88	51.61	1.9705	400.2350
11844	1509397844	54.5718	-110.5253	801.6	208.9	276.4	1.7	5.8	0.88	51.61	1.9697	399.7001
11845	1509397845	54.5719	-110.5265	800.9	206.0	276.2	1.8	5.9	0.88	51.61	1.9697	401.0113
11846	1509397846	54.5720	-110.5277	800.3	200.6	276.5	2.0	5.3	0.88	51.61	1.9696	401.0113
11847	1509397847	54.5722	-110.5288	799.7	197.7	276.1	1.6	5.9	0.88	51.61	1.9695	401.0113
11848	1509397848	54.5723	-110.5299	798.9	195.9	276.7	1.9	5.3	0.88	51.61	1.9695	401.0113
11849	1509397849	54.5724	-110.5311	797.8	193.8	277.1	1.8	5.1	0.88	51.61	1.9694	401.0113
11850	1509397850	54.5725	-110.5323	796.7	191.7	277.6	1.7	4.8	0.88	51.61	1.9693	401.0113
11851	1509397851	54.5727	-110.5334	796.1	190.1	278.1	1.2	4.6	0.88	51.61	1.9692	401.0113
11852	1509397852	54.5728	-110.5346	796.1	190.1	277.9	1.2	5.1	0.88	51.61	1.9692	401.0113
11853	1509397853	54.5730	-110.5357	795.9	188.9	278.5	1.2	4.6	0.88	51.61	1.9691	399.5257
11854	1509397854	54.5731	-110.5369	795.5	188.6	279.1	1.5	4.0	0.88	51.61	1.9715	400.4543
11855	1509397855	54.5732	-110.5372	795.5	188.5	279.2	1.4	4.0	0.88	51.61	1.9690	400.7368
11856	1509397856	54.5732	-110.5373	795.5	188.3	279.2	1.3	4.0	0.88	51.61	1.9693	400.5209
11857	1509397857	54.5732	-110.5374	795.5	188.3	279.2	1.2	4.0	0.88	51.61	1.9706	399.9209
11858	1509397858	54.5732	-110.5375	795.4	188.3	279.2	1.0	4.0	0.88	51.61	1.9715	399.9912
11859	1509397859	54.5732	-110.5375	795.4	187.5	279.2	1.0	4.0	0.88	51.61	1.9725	400.3845
11860	1509397860	54.5732	-110.5376	795.4	187.5	279.2	1.0	4.0	0.88	51.61	1.9726	399.8614
11861	1509397861	54.5732	-110.5377	795.4	187.5	279.2	0.7	4.1	0.88	51.61	1.9711	399.8614
11862	1509397862	54.5733	-110.5385	795.3	187.5	278.8	0.3	4.7	0.88	51.61	1.9707	400.5210
11863	1509397863	54.5735	-110.5398	795.5	186.5	278.1	0.2	5.4	0.88	51.61	1.9727	399.6122
11864	1509397864	54.5736	-110.5411	796.0	187.0	278.5	0.2	5.0	0.88	51.61	1.9726	400.1349
11865	1509397865	54.5738	-110.5425	796.7	187.7	278.8	0.1	4.7	0.88	51.61	1.9716	398.7645
11866	1509397866	54.5740	-110.5438	798.3	189.3	279.0	0.1	4.5	0.88	51.61	1.9785	398.7124
11867	1509397867	54.5742	-110.5451	800.5	190.5	279.8	0.1	3.8	0.88	51.61	2.0006	405.9764
11868	1509397868	54.5743	-110.5464	802.3	191.3	278.8	0.7	5.3	0.88	51.61	2.0053	419.1269
11869	1509397869	54.5745	-110.5478	804.7	192.7	279.2	0.7	5.0	0.88	51.61	2.0048	527.4154
11870	1509397870	54.5747	-110.5491	806.9	193.9	279.0	0.5	5.6	0.88	51.61	2.0074	463.6904
11871	1509397871	54.5749	-110.5504	809.3	195.3	279.1	-0.2	5.4	0.88	51.61	1.9950	422.0253
11872	1509397872	54.5750	-110.5517	811.2	196.2	278.5	-0.5	6.0	0.88	51.61	1.9884	405.1764
11873	1509397873	54.5752	-110.5531	813.4	198.4	278.3	0.6	5.4	0.88	51.61	1.9902	402.1804
11874	1509397874	54.5754	-110.5544	816.1	201.1	277.8	1.4	5.6	0.88	51.61	1.9919	402.0820
11875	1509397875	54.5755	-110.5557	819.4	203.4	278.8	1.7	4.1	0.88	51.61	1.9933	401.2909
11876	1509397876	54.5757	-110.5570	820.9	203.9	278.1	1.6	5.3	0.88	51.61	1.9942	401.3298
11877	1509397877	54.5759	-110.5583	820.2	203.2	279.0	1.1	4.9	0.88	51.61	2.0059	401.9004
11878	1509397878	54.5761	-110.5595	820.0	202.0	278.3	1.3	5.5	0.88	51.61	2.0267	400.5327
11879	1509397879	54.5762	-110.5608	819.8	201.8	278.0	1.8	5.4	0.88	51.61	2.0351	402.2210
11880	1509397880	54.5764	-110.5621	818.5	199.5	277.9	2.0	5.3	0.88	51.61	2.0372	400.3076
11881	1509397881	54.5765	-110.5634	816.0	197.0	277.8	1.7	5.3	0.88	51.61	2.0370	401.0655
11882	1509397882	54.5767	-110.5647	813.4	194.1	278.1	1.7	5.0	0.88	51.61	2.0348	401.2883
11883	1509397883	54.5769	-110.5660	811.0	191.0	278.2	1.4	5.0	0.88	51.61	2.0336	401.2883
11884	1509397884	54.5770	-110.5673	808.6	188.6	278.2	1.5	5.1	0.88	51.61	2.0407	400.9174
11885	1509397885	54.5772	-110.5686	806.3	186.3	278.8	1.1	4.5	0.88	51.61	2.0468	399.5889
11886	1509397886	54.5774	-110.5700	804.1	184.1	279.0	1.4	4.6	0.88	51.61	2.0474	400.3371
11887	1509397887	54.5775	-110.5713	802.0	182.0	278.9	0.7	5.2	0.88	51.61	2.0427	400.7695
11888	1509397888	54.5777	-110.5726	800.5	180.5	278.7	0.6	5.6	0.88	51.61	2.0455	400.4326
11889	1509397889	54.5779	-110.5740	800.4	180.4	278.9	1.1	5.2	0.88	51.61	2.0476	400.3432
11890	1509397890	54.5781	-110.5753	800.1	180.1	280.0	0.4	4.2	0.88	51.61	2.0439	400.7356
11891	1509397891	54.5782	-110.5766	800.1	180.2	279.6	1.0	4.6	0.88	51.61	2.0323	399.8759
11892	1509397892	54.5784	-110.5779	800.4	182.1	279.2	1.2	5.1	0.88	51.61	2.0230	399.7911
11893	1509397893	54.5786	-110.5793	800.7	183.2	278.8	0.8	5.5	0.88	51.61	2.0160	400.8546
11894	1509397894	54.5788	-110.5806	801.1	185.1	278.9	0.9	5.3	0.88	51.61	2.0234	399.8127
11895	1509397895	54.5790	-110.5819	803.0	187.3	278.8	0.8	5.5	0.88	51.61	2.0203	399.8127
11896	1509397896	54.5791	-110.5832	805.3	190.4	278.8	1.0	5.3	0.88	51.61	2.0031	400.8046
11897	1509397897	54.5793	-110.5846	808.0	193.6	279.0	1.4	5.3	0.88	51.61	1.9965	399.9393
11898	1509397898	54.5795	-110.5859	810.4	196.4	278.9	1.7	5.4	0.88	51.61	1.9975	399.9868
11899	1509397899	54.5797	-110.5872	812.9	198.9	278.9	1.6	5.0	0.88	51.61	2.0002	401.1954
11900	1509397900	54.5798	-110.5885	815.3	205.8	278.7	0.9	5.1	0.88	51.61	1.9929	400.9449
11901	1509397901	54.5800	-110.5898	817.1	217.9	278.9	0.6	4.6	0.88	51.61	1.9827	399.3850
11902	1509397902	54.5802	-110.5911	818.6	228.6	278.1	0.9	5.4	0.88	51.61	1.9770	400.9547
11903	1509397903	54.5803	-110.5923	819.1	226.8	277.2	1.2	6.4	0.88	51.61	1.9767	399.9024
11904	1509397904	54.5805	-110.5934	817.3	216.0	278.3	1.3	4.9	0.88	51.61	1.9784	400.0487
11905	1509397905	54.5806	-110.5946	814.0	203.9	278.0	1.5	5.2	0.88	51.61	1.9770	400.0759
11906	1509397906	54.5808	-110.5957	810.6	198.6	278.0	1.3	5.0	0.88	51.61	1.9767	400.4127
11907	1509397907	54.5809	-110.5969	809.0	202.6	278.1	1.2	4.3	0.88	51.61	1.9767	400.5276
11908	1509397908	54.5810	-110.5980	808.2	212.2	277.7	1.4	4.6	0.88	51.61	1.9766	400.6425
11909	1509397909	54.5812	-110.5992	807.4	218.5	276.9	1.4	5.3	0.88	51.61	1.9765	400.7574
11910	1509397910	54.5813	-110.6003	807.7	220.7	276.7	1.5	5.2	0.88	51.61	1.9764	400.8722
11911	1509397911	54.5814	-110.6014	807.8	219.6	276.5	1.3	5.0	0.88	51.61	1.9763	400.9871
11912	1509397912	54.5815	-110.6026	807.1	217.4	276.8	0.8	4.7	0.88	51.61	1.9762	401.1020
11913	1509397913	54.5817	-110.6037	805.6	211.9	276.5	0.8	5.1	0.88	51.61	1.9767	399.3688
11914	1509397914	54.5818	-110.6048	803.0	198.8	276.7	0.9	4.9	0.88	51.61	1.9702	400.6336
11915	1509397915	54.5818	-110.6052	801.7	196.2	276.7	0.9	5.0	0.88	51.61	1.9694	401.0123
11916	1509397916	54.5818	-110.6053	801.4	194.5	276.7	1.0	5.0	0.88	51.61	1.9703	401.1380
11917	1509397917	54.5818	-110.6054	801.1	194.2	276.7	1.1	5.0	0.88	51.61	1.9697	400.8755
11918	1509397918	54.5818	-110.6055	800.8	193.9	276.7	2.3	4.9	0.88	51.61	1.9691	399.6362
11919	1509397919	54.5819	-110.6056	800.5	193.6	276.6	2.1	5.0	0.88	51.61	1.9683	398.8170
11920	1509397920	54.5819	-110.6056	800.2	192.1	276.6	1.6	5.0	0.88	51.61	1.9675	400.2752
11921	1509397921	54.5819	-110.6057	799.9	191.8	276.6	1.6	5.1	0.88	51.61	1.9638	401.0782
11922	1509397922	54.5820	-110.6068	796.3	181.7	276.8	1.3	5.2	0.88	51.61	1.9634	400.5062
11923	1509397923	54.5821	-110.6082	793.0	173.0	277.4	1.3	4.6	0.88	51.61	1.9623	400.7867
11924	1509397924	54.5823	-110.6096	791.0	169.0	277.3	0.5	4.7	0.88	51.61	1.9637	400.9964
11925	1509397925	54.5824	-110.6110	789.8	166.8	277.1	1.3	4.5	0.88	51.61	1.9610	401.2740
11926	1509397926	54.5826	-110.6123	788.4	164.4	277.7	0.5	3.6	0.88	51.61	1.9592	400.5265
11927	1509397927	54.5827	-110.6137	787.1	163.1	277.1	1.0	4.3	0.88	51.61	1.9600	399.9107
11928	1509397928	54.5829	-110.6151	785.6	162.6	277.3	0.3	3.9	0.88	51.61	1.9599	399.7081
11929	1509397929	54.5830	-110.6165	783.6	160.6	276.0	0.7	5.2	0.88	51.61	1.9598	398.8577
11930	1509397930	54.5832	-110.6179	784.0	161.0	276.4	0.9	4.3	0.88	51.61	1.9602	400.9890
11931	1509397931	54.5833	-110.6193	784.7	160.7	276.4	1.0	4.3	0.88	51.61	1.9596	400.8887
11932	1509397932	54.5834	-110.6206	785.6	159.7	275.9	0.8	5.2	0.88	51.61	1.9586	400.5423
11933	1509397933	54.5836	-110.6220	786.1	160.1	276.2	0.0	4.9	0.88	51.61	1.9588	400.7863
11934	1509397934	54.5837	-110.6234	786.3	159.3	276.8	-0.6	4.8	0.88	51.61	1.9586	399.2146
11935	1509397935	54.5839	-110.6247	788.7	161.7	277.6	-0.2	4.7	0.88	51.61	1.9599	400.1696
11936	1509397936	54.5840	-110.6261	793.0	166.0	278.0	-0.1	4.9	0.88	51.61	1.9604	400.1616
11937	1509397937	54.5842	-110.6274	797.6	170.6	277.4	-0.2	5.6	0.88	51.61	1.9603	400.8920
11938	1509397938	54.5843	-110.6287	801.2	174.2	277.1	0.3	5.8	0.88	51.61	1.9604	400.8920
11939	1509397939	54.5845	-110.6300	803.5	177.5	277.4	0.5	5.0	0.88	51.61	1.9602	400.1436
11940	1509397940	54.5846	-110.6313	805.2	179.2	277.5	0.2	4.7	0.88	51.61	1.9614	400.2856
11941	1509397941	54.5848	-110.6327	806.8	180.0	277.2	0.4	4.6	0.88	51.61	1.9601	400.2856
11942	1509397942	54.5849	-110.6340	808.4	182.4	276.6	0.8	5.0	0.88	51.61	1.9597	400.4490
11943	1509397943	54.5851	-110.6353	809.5	184.8	275.9	1.1	5.6	0.88	51.61	1.9595	401.2312
11944	1509397944	54.5852	-110.6366	809.9	188.1	276.2	1.3	4.8	0.88	51.61	1.9603	400.8270
11945	1509397945	54.5854	-110.6379	809.8	190.8	276.0	1.1	5.2	0.88	51.61	1.9612	401.0446
11946	1509397946	54.5855	-110.6393	809.7	191.0	275.7	0.8	5.6	0.88	51.61	1.9602	401.5346
11947	1509397947	54.5856	-110.6406	810.1	188.8	275.9	0.9	5.1	0.88	51.61	1.9596	399.9828
11948	1509397948	54.5858	-110.6419	811.7	190.7	277.0	0.9	3.6	0.88	51.61	1.9599	400.9610
11949	1509397949	54.5859	-110.6432	813.4	191.7	276.6	1.1	4.2	0.88	51.61	1.9599	401.0206
11950	1509397950	54.5860	-110.6445	814.8	190.8	276.2	1.1	4.9	0.88	51.61	1.9597	400.3541
11951	1509397951	54.5862	-110.6458	815.5	188.2	275.5	1.2	5.7	0.88	51.61	1.9615	399.4235
11952	1509397952	54.5863	-110.6472	816.3	185.3	275.8	0.9	5.2	0.88	51.61	1.9607	399.4235
11953	1509397953	54.5864	-110.6484	817.7	183.5	275.6	1.4	5.0	0.88	51.61	1.9624	401.0588
11954	1509397954	54.5865	-110.6497	818.9	181.8	275.3	1.6	5.1	0.88	51.61	1.9610	399.6997
11955	1509397955	54.5867	-110.6511	820.8	181.9	276.2	1.8	4.6	0.88	51.61	1.9601	401.0606
11956	1509397956	54.5868	-110.6524	822.5	181.7	277.4	1.5	4.8	0.88	51.61	1.9611	401.0606
11957	1509397957	54.5870	-110.6536	824.1	182.1	277.8	1.2	5.6	0.88	51.61	1.9613	400.0674
11958	1509397958	54.5871	-110.6549	825.7	183.7	278.3	1.3	5.6	0.88	51.61	1.9616	401.9486
11959	1509397959	54.5873	-110.6562	827.3	185.3	279.8	1.5	4.8	0.88	51.61	1.9629	399.6950
11960	1509397960	54.5875	-110.6575	829.7	187.7	280.3	1.3	4.6	0.88	51.61	1.9637	400.8221
11961	1509397961	54.5877	-110.6586	831.7	189.7	281.9	0.8	3.6	0.88	51.61	1.9624	400.8045
11962	1509397962	54.5878	-110.6597	833.6	191.6	280.4	1.0	5.9	0.88	51.61	1.9611	401.4336
11963	1509397963	54.5880	-110.6608	835.0	193.0	281.2	1.4	5.2	0.88	51.61	1.9642	401.1802
11964	1509397964	54.5882	-110.6618	836.2	194.2	281.2	1.7	5.6	0.88	51.61	1.9625	400.1802
11965	1509397965	54.5884	-110.6629	836.4	193.4	281.7	0.9	5.4	0.88	51.61	1.9626	400.8849
11966	1509397966	54.5885	-110.6640	834.3	191.0	282.7	0.9	4.4	0.88	51.61	1.9637	400.7609
11967	1509397967	54.5887	-110.6650	831.8	187.8	282.6	1.1	5.0	0.88	51.61	1.9636	400.7609
11968	1509397968	54.5889	-110.6661	830.0	186.3	281.8	1.1	6.2	0.88	51.61	1.9635	400.7609
11969	1509397969	54.5891	-110.6672	828.9	186.0	282.4	0.9	5.7	0.88	51.61	1.9634	400.7609
11970	1509397970	54.5893	-110.6682	828.4	186.1	282.4	0.8	5.9	0.88	51.61	1.9639	401.3786
11971	1509397971	54.5895	-110.6693	827.0	185.7	282.5	1.1	6.1	0.88	51.61	1.9653	401.2016
11972	1509397972	54.5897	-110.6703	824.4	183.4	282.6	1.2	5.9	0.88	51.61	1.9677	401.2667
11973	1509397973	54.5899	-110.6714	822.7	181.7	283.1	1.1	5.5	0.88	51.61	1.9667	400.5683
11974	1509397974	54.5901	-110.6725	821.8	181.8	283.9	0.8	4.4	0.88	51.61	1.9669	400.7228
11975	1509397975	54.5901	-110.6728	821.5	181.5	284.4	0.6	3.8	0.88	51.61	1.9656	400.2095
11976	1509397976	54.5901	-110.6730	821.5	181.5	284.6	0.5	3.7	0.88	51.61	1.9654	401.2387
11977	1509397977	54.5902	-110.6731	821.4	181.4	284.8	0.3	3.5	0.88	51.61	1.9652	402.1699
11978	1509397978	54.5902	-110.6734	821.2	181.2	284.9	-0.2	3.7	0.88	51.61	1.9690	400.9155
11979	1509397979	54.5905	-110.6746	820.9	181.9	283.5	0.5	5.1	0.88	51.61	1.9673	399.4122
11980	1509397980	54.5907	-110.6758	819.8	181.8	283.5	0.8	5.2	0.88	51.61	1.9675	399.4014
11981	1509397981	54.5909	-110.6771	817.4	179.4	282.4	0.9	6.7	0.88	51.61	1.9679	401.2069
11982	1509397982	54.5911	-110.6783	815.2	178.2	283.5	1.1	5.6	0.88	51.61	1.9679	400.0310
11983	1509397983	54.5914	-110.6795	813.8	178.8	284.3	1.0	5.1	0.88	51.61	1.9674	401.2678
11984	1509397984	54.5916	-110.6806	813.0	178.0	284.1	0.8	5.4	0.88	51.61	1.9687	401.0769
11985	1509397985	54.5918	-110.6818	812.4	178.4	285.1	0.4	4.0	0.88	51.61	1.9690	399.1056
11986	1509397986	54.5921	-110.6830	810.7	176.7	284.3	1.2	4.9	0.88	51.61	1.9686	400.6497
11987	1509397987	54.5923	-110.6842	808.5	174.0	283.9	1.4	5.2	0.88	51.61	1.9681	400.1339
11988	1509397988	54.5925	-110.6853	805.4	168.0	284.9	0.3	4.4	0.88	51.61	1.9682	401.5023
11989	1509397989	54.5927	-110.6865	803.4	162.6	284.7	0.4	4.7	0.88	51.61	1.9670	400.5852
11990	1509397990	54.5930	-110.6877	802.6	160.0	284.3	0.8	5.2	0.88	51.61	1.9658	400.1351
11991	1509397991	54.5932	-110.6889	803.3	160.3	284.5	1.2	5.1	0.88	51.61	1.9666	400.6363
11992	1509397992	54.5934	-110.6900	804.7	161.6	284.9	1.1	4.9	0.88	51.61	1.9673	401.4313
11993	1509397993	54.5937	-110.6912	805.2	163.2	284.5	1.0	5.4	0.88	51.61	1.9679	399.6585
11994	1509397994	54.5939	-110.6923	803.9	162.9	284.7	0.9	5.2	0.88	51.61	1.9706	401.6041
11995	1509397995	54.5941	-110.6935	801.1	160.6	284.4	0.8	5.5	0.88	51.61	1.9705	402.2159
11996	1509397996	54.5943	-110.6946	798.0	158.0	284.1	0.6	5.6	0.88	51.61	1.9705	400.9977
11997	1509397997	54.5946	-110.6958	795.4	155.4	284.3	0.9	5.1	0.88	51.61	1.9702	401.9496
11998	1509397998	54.5948	-110.6970	792.8	152.8	283.9	0.9	5.4	0.88	51.61	1.9717	401.1713
11999	1509397999	54.5950	-110.6981	790.5	151.5	283.5	1.4	5.8	0.88	51.61	1.9719	400.7294
12000	1509398000	54.5952	-110.6992	789.5	150.8	283.8	1.0	5.1	0.88	51.61	1.9723	401.5154
12001	1509398001	54.5954	-110.7003	789.0	150.0	283.3	1.1	5.2	0.88	51.61	1.9726	401.4390
12002	1509398002	54.5956	-110.7013	788.9	149.9	282.5	1.3	5.6	0.88	51.61	1.9709	401.2084
12003	1509398003	54.5958	-110.7023	788.1	149.1	282.0	1.1	5.9	0.88	51.61	1.9714	401.4396
12004	1509398004	54.5960	-110.7033	786.4	147.4	282.3	0.9	5.5	0.88	51.61	1.9703	401.6498
12005	1509398005	54.5961	-110.7043	784.5	144.5	282.2	0.8	5.6	0.88	51.61	1.9713	401.2908
12006	1509398006	54.5963	-110.7054	782.6	143.6	282.2	0.8	5.6	0.88	51.61	1.9705	401.4413
12007	1509398007	54.5965	-110.7064	780.8	141.6	282.3	0.8	5.5	0.88	51.61	1.9701	400.3105
12008	1509398008	54.5967	-110.7074	779.3	140.3	282.3	0.8	5.6	0.88	51.61	1.9726	400.6301
12009	1509398009	54.5969	-110.7085	777.9	138.9	282.5	0.8	5.5	0.88	51.61	1.9707	401.1312
12010	1509398010	54.5971	-110.7095	776.5	136.5	282.6	0.8	5.6	0.88	51.61	1.9714	400.6828
12011	1509398011	54.5972	-110.7105	774.8	133.8	282.4	0.8	5.7	0.88	51.61	1.9724	400.9157
12012	1509398012	54.5974	-110.7115	772.6	131.1	282.5	0.6	5.4	0.88	51.61	1.9719	400.9157
12013	1509398013	54.5976	-110.7126	769.5	127.5	282.7	0.3	4.9	0.88	51.61	1.9719	401.0744
12014	1509398014	54.5978	-110.7136	765.8	123.8	282.4	0.4	5.0	0.88	51.61	1.9714	399.9517
12015	1509398015	54.5980	-110.7146	762.2	120.2	282.3	0.3	5.1	0.88	51.61	1.9719	400.0925
12016	1509398016	54.5981	-110.7157	758.3	116.3	282.4	0.1	4.9	0.88	51.61	1.9719	401.9113
12017	1509398017	54.5983	-110.7167	754.1	112.7	282.0	0.1	4.8	0.88	51.61	1.9733	400.7199
12018	1509398018	54.5985	-110.7178	750.6	109.7	282.3	-0.3	4.2	0.88	51.61	1.9736	401.5860
12019	1509398019	54.5987	-110.7188	747.5	106.5	281.6	-0.3	4.6	0.88	51.61	1.9727	401.0700
12020	1509398020	54.5988	-110.7199	744.7	104.7	281.6	-0.1	4.1	0.88	51.61	1.9727	400.9061
12021	1509398021	54.5990	-110.7210	742.1	102.1	280.7	-0.3	4.7	0.88	51.61	1.9737	400.9061
12022	1509398022	54.5991	-110.7220	740.6	100.6	279.9	-0.7	4.8	0.88	51.61	1.9719	401.9651
12023	1509398023	54.5993	-110.7231	738.3	98.3	279.5	-0.5	4.7	0.88	51.61	1.9712	401.9320
12024	1509398024	54.5994	-110.7241	735.3	95.9	278.8	-0.3	4.8	0.88	51.61	1.9725	401.5891
12025	1509398025	54.5996	-110.7252	731.7	92.7	279.4	-0.7	3.7	0.88	51.61	1.9735	402.6076
12026	1509398026	54.5997	-110.7263	727.9	88.9	277.8	-0.5	5.4	0.88	51.61	1.9733	402.6076
12027	1509398027	54.5998	-110.7274	724.8	85.8	277.8	-0.2	4.9	0.88	51.61	1.9731	402.6076
12028	1509398028	54.6000	-110.7285	722.6	83.6	277.8	0.0	4.2	0.88	51.61	1.9729	402.6076
12029	1509398029	54.6001	-110.7296	720.8	80.8	276.6	-0.2	4.8	0.88	51.61	1.9727	402.6076
12030	1509398030	54.6002	-110.7307	718.4	78.2	276.1	0.1	3.9	0.88	51.61	1.9710	401.9493
12031	1509398031	54.6003	-110.7318	715.8	74.8	275.9	-0.3	2.8	0.88	51.61	1.9709	402.4238
12032	1509398032	54.6004	-110.7329	713.1	72.1	274.5	-0.7	3.3	0.88	51.61	1.9715	401.5087
12033	1509398033	54.6005	-110.7340	710.7	69.7	273.4	-0.4	2.8	0.88	51.61	1.9713	399.8955
12034	1509398034	54.6005	-110.7351	708.5	66.5	272.7	-0.7	3.1	0.88	51.61	1.9723	400.7511
12035	1509398035	54.6005	-110.7355	707.6	65.6	271.5	-0.7	4.1	0.88	51.61	1.9733	400.5553
12036	1509398036	54.6005	-110.7356	707.2	65.2	271.0	-0.9	4.5	0.88	51.61	1.9724	400.9214
12037	1509398037	54.6005	-110.7358	706.9	64.9	270.5	-1.0	4.8	0.88	51.61	1.9714	401.0236
12038	1509398038	54.6006	-110.7360	706.5	64.5	270.0	-1.1	5.2	0.88	51.61	1.9740	401.0272
12039	1509398039	54.6006	-110.7372	704.2	62.2	271.4	-1.0	2.6	0.88	51.61	1.9724	401.0513
12040	1509398040	54.6006	-110.7385	701.6	59.6	269.1	-0.4	4.4	0.88	51.61	1.9720	399.2502
12041	1509398041	54.6007	-110.7397	699.0	58.0	269.6	-0.4	2.9	0.88	51.61	1.9731	402.0790
12042	1509398042	54.6007	-110.7410	695.9	54.9	268.1	-0.4	3.8	0.88	51.61	1.9738	401.9319
12043	1509398043	54.6007	-110.7423	692.3	51.3	266.8	-0.1	3.9	0.88	51.61	1.9740	401.2009
12044	1509398044	54.6007	-110.7436	688.3	47.3	267.7	-0.3	2.3	0.88	51.61	1.9720	401.3448
12045	1509398045	54.6007	-110.7448	684.8	42.8	264.2	-0.7	5.1	0.88	51.61	1.9720	400.3038
12046	1509398046	54.6006	-110.7461	682.1	39.2	264.5	-0.4	3.8	0.88	51.61	1.9727	400.7862
12047	1509398047	54.6006	-110.7473	680.3	37.3	263.1	-0.3	4.2	0.88	51.61	1.9738	400.7387
12048	1509398048	54.6006	-110.7486	678.8	35.7	264.1	0.3	2.2	0.88	51.61	1.9746	400.7745
12049	1509398049	54.6005	-110.7498	676.9	33.9	262.3	0.1	4.0	0.88	51.61	1.9739	401.3120
12050	1509398050	54.6004	-110.7511	676.5	32.4	262.1	-0.3	3.5	0.88	51.61	1.9748	402.0238
12051	1509398051	54.6004	-110.7524	676.2	31.1	260.6	-0.5	4.6	0.88	51.61	1.9736	400.4845
12052	1509398052	54.6003	-110.7537	676.1	30.2	260.7	-0.6	3.7	0.88	51.61	1.9739	400.4845
12053	1509398053	54.6002	-110.7549	675.9	27.8	260.8	-0.5	3.2	0.88	51.61	1.9744	401.7314
12054	1509398054	54.6001	-110.7562	676.6	28.5	260.6	-0.7	2.9	0.88	51.61	1.9749	400.9835
12055	1509398055	54.6000	-110.7575	679.1	31.9	260.2	-0.7	3.2	0.88	51.61	1.9758	400.9835
12056	1509398056	54.5999	-110.7587	682.3	35.3	259.7	-0.2	3.5	0.88	51.61	1.9758	400.1751
12057	1509398057	54.5999	-110.7599	685.8	39.1	259.5	0.1	3.6	0.88	51.61	1.9747	400.9411
12058	1509398058	54.5998	-110.7611	690.1	43.1	256.9	-0.3	4.8	0.88	51.61	1.9754	401.8707
12059	1509398059	54.5996	-110.7623	696.4	48.4	255.5	0.0	3.4	0.88	51.61	1.9766	400.6103
12060	1509398060	54.5995	-110.7634	703.4	56.1	251.7	0.3	3.8	0.88	51.61	1.9803	402.0009
12061	1509398061	54.5993	-110.7643	710.4	62.4	247.0	0.0	4.8	0.88	51.61	1.9820	399.7250
12062	1509398062	54.5991	-110.7652	717.0	68.3	242.7	0.4	4.9	0.88	51.61	1.9828	399.7267
12063	1509398063	54.5988	-110.7662	725.0	76.0	237.4	0.6	5.3	0.88	51.61	1.9837	400.9316
12064	1509398064	54.5985	-110.7670	730.7	81.8	233.2	0.3	5.1	0.88	51.61	1.9805	400.5839
12065	1509398065	54.5982	-110.7678	735.6	86.7	228.5	-0.1	4.8	0.88	51.61	1.9839	400.6359
12066	1509398066	54.5978	-110.7685	739.7	90.7	222.3	-0.3	5.1	0.88	51.61	1.9845	400.8119
12067	1509398067	54.5974	-110.7692	743.9	94.9	216.6	0.2	5.2	0.88	51.61	1.9833	400.3984
12068	1509398068	54.5970	-110.7698	748.3	99.3	210.9	0.3	4.9	0.88	51.61	1.9857	401.6057
12069	1509398069	54.5965	-110.7702	752.8	104.8	205.0	0.4	4.3	0.88	51.61	1.9917	399.8464
12070	1509398070	54.5960	-110.7706	757.4	110.8	198.7	0.1	4.2	0.88	51.61	1.9932	399.7269
12071	1509398071	54.5954	-110.7709	761.7	116.7	192.6	0.0	4.2	0.88	51.61	1.9884	399.9601
12072	1509398072	54.5949	-110.7710	766.3	123.0	185.4	-0.4	4.0	0.88	51.61	1.9869	401.3519
12073	1509398073	54.5944	-110.7711	770.9	128.2	178.2	-0.4	4.1	0.88	51.61	1.9856	403.4967
12074	1509398074	54.5938	-110.7710	774.9	132.9	171.2	-0.6	3.8	0.88	51.61	1.9884	400.3803
12075	1509398075	54.5933	-110.7708	778.1	136.1	163.4	-1.3	3.1	0.88	51.61	1.9900	400.5547
12076	1509398076	54.5928	-110.7705	780.4	138.4	158.0	-0.4	3.6	0.88	51.61	1.9919	399.2152
12077	1509398077	54.5923	-110.7700	782.6	140.6	151.4	-0.2	3.8	0.88	51.61	1.9955	401.5807
12078	1509398078	54.5918	-110.7695	784.5	142.5	145.6	0.1	4.1	0.88	51.61	1.9944	401.5807
12079	1509398079	54.5913	-110.7688	786.3	144.3	139.4	0.1	4.4	0.88	51.61	1.9915	400.3094
12080	1509398080	54.5910	-110.7681	788.1	146.4	133.6	0.4	4.2	0.88	51.61	1.9852	399.9019
12081	1509398081	54.5906	-110.7674	790.4	149.0	128.1	0.6	4.2	0.88	51.61	1.9856	401.8111
12082	1509398082	54.5903	-110.7665	793.0	151.3	122.4	0.7	3.8	0.88	51.61	1.9835	401.8111
12083	1509398083	54.5900	-110.7656	795.9	153.9	117.5	1.0	4.2	0.88	51.61	1.9802	400.3864
12084	1509398084	54.5898	-110.7646	799.7	157.7	112.1	0.9	4.5	0.88	51.61	1.9784	401.1368
12085	1509398085	54.5897	-110.7637	804.6	162.6	105.7	1.0	3.5	0.88	51.61	1.9780	401.6433
12086	1509398086	54.5896	-110.7626	810.2	168.2	100.5	0.9	4.4	0.88	51.61	1.9778	401.6433
12087	1509398087	54.5895	-110.7616	816.2	174.2	95.0	1.0	4.2	0.88	51.61	1.9777	401.6433
12088	1509398088	54.5895	-110.7606	821.2	179.2	90.2	1.1	4.0	0.88	51.61	1.9776	401.6433
12089	1509398089	54.5896	-110.7595	825.1	184.1	85.7	1.3	4.1	0.88	51.61	1.9775	401.6433
12090	1509398090	54.5897	-110.7585	828.8	188.9	80.7	1.8	3.9	0.88	51.61	1.9739	400.4450
12091	1509398091	54.5899	-110.7575	833.1	193.3	75.7	1.6	4.6	0.88	51.61	1.9717	400.5994
12092	1509398092	54.5901	-110.7565	838.2	199.1	70.4	1.7	4.9	0.88	51.61	1.9709	400.9936
12093	1509398093	54.5903	-110.7556	843.4	204.4	64.8	2.2	4.8	0.88	51.61	1.9662	401.8170
12094	1509398094	54.5907	-110.7547	848.6	210.3	59.1	2.3	4.8	0.88	51.61	1.9626	401.0512
12095	1509398095	54.5908	-110.7544	850.4	212.1	57.3	2.3	4.7	0.88	51.61	1.9654	400.4810
12096	1509398096	54.5908	-110.7542	851.2	212.9	56.5	2.3	4.7	0.88	51.61	1.9640	400.0414
12097	1509398097	54.5909	-110.7541	851.9	213.0	55.8	2.3	4.6	0.88	51.61	1.9633	400.6139
12098	1509398098	54.5909	-110.7540	852.8	213.9	54.9	3.3	5.3	0.88	51.61	1.9684	401.3678
12099	1509398099	54.5914	-110.7531	859.2	221.1	48.8	3.2	5.7	0.88	51.61	1.9692	400.7550
12100	1509398100	54.5919	-110.7522	865.2	228.3	42.2	3.4	5.2	0.88	51.61	1.9691	401.5341
12101	1509398101	54.5925	-110.7514	870.5	234.4	35.8	3.3	5.0	0.88	51.61	1.9687	401.8538
12102	1509398102	54.5931	-110.7508	875.4	238.9	28.8	3.5	4.8	0.88	51.61	1.9701	401.0622
12103	1509398103	54.5937	-110.7502	879.4	242.5	23.1	3.3	5.1	0.88	51.61	1.9678	400.8294
12104	1509398104	54.5944	-110.7498	882.8	245.0	16.8	3.5	5.4	0.88	51.61	1.9606	400.2410
12105	1509398105	54.5951	-110.7495	885.8	246.9	10.2	3.3	5.7	0.88	51.61	1.9619	401.5898
12106	1509398106	54.5958	-110.7493	889.2	250.0	2.9	3.7	6.0	0.88	51.61	1.9615	401.3779
12107	1509398107	54.5965	-110.7492	893.0	251.9	355.8	4.0	6.1	0.88	51.61	1.9600	401.6984
12108	1509398108	54.5972	-110.7493	897.3	254.1	348.0	4.2	6.2	0.88	51.61	1.9571	398.9025
12109	1509398109	54.5979	-110.7495	902.5	258.4	341.2	3.9	6.1	0.88	51.61	1.9581	400.6010
12110	1509398110	54.5986	-110.7499	908.1	263.5	334.6	3.9	6.1	0.88	51.61	1.9581	399.9073
12111	1509398111	54.5992	-110.7504	912.6	268.7	328.4	3.9	6.0	0.88	51.61	1.9576	400.8634
12112	1509398112	54.5998	-110.7509	916.1	272.0	321.6	4.2	6.2	0.88	51.61	1.9567	400.9543
12113	1509398113	54.6004	-110.7516	918.9	274.7	315.0	4.1	6.6	0.88	51.61	1.9533	400.9630
12114	1509398114	54.6009	-110.7524	921.9	277.7	308.1	4.0	6.9	0.88	51.61	1.9507	400.9630
12115	1509398115	54.6013	-110.7533	926.0	282.0	301.8	3.9	6.8	0.88	51.61	1.9504	400.5793
12116	1509398116	54.6017	-110.7542	931.1	287.7	295.5	4.5	6.6	0.88	51.61	1.9483	401.6230
12117	1509398117	54.6020	-110.7551	937.1	294.1	289.5	4.6	6.6	0.88	51.61	1.9456	400.9593
12118	1509398118	54.6023	-110.7561	944.0	302.4	283.2	4.9	6.6	0.88	51.61	1.9419	400.6709
12119	1509398119	54.6024	-110.7571	950.8	309.8	277.2	5.2	6.4	0.88	51.61	1.9384	400.4323
12120	1509398120	54.6025	-110.7579	956.9	317.6	272.0	5.5	6.2	0.88	51.61	1.9347	399.6152
12121	1509398121	54.6026	-110.7589	964.0	324.6	265.8	5.7	6.1	0.88	51.61	1.9326	400.6270
12122	1509398122	54.6026	-110.7598	970.5	331.6	259.8	6.1	6.0	0.88	51.61	1.9297	397.7934
12123	1509398123	54.6025	-110.7607	976.6	337.0	253.9	6.8	5.9	0.88	51.61	1.9274	397.7393
12124	1509398124	54.6023	-110.7615	982.4	342.7	247.6	6.9	6.0	0.88	51.61	1.9253	398.6127
12125	1509398125	54.6021	-110.7623	987.5	346.5	241.2	7.0	6.0	0.88	51.61	1.9252	397.1786
12126	1509398126	54.6019	-110.7631	992.2	350.9	234.9	6.8	6.0	0.88	51.61	1.9264	398.3111
12127	1509398127	54.6016	-110.7637	996.7	354.0	228.9	6.9	5.9	0.88	51.61	1.9265	400.7856
12128	1509398128	54.6012	-110.7643	1001.7	358.7	222.9	7.1	5.9	0.88	51.61	1.9273	400.5077
12129	1509398129	54.6009	-110.7649	1007.0	363.7	217.2	7.0	5.7	0.88	51.61	1.9253	401.1022
12130	1509398130	54.6004	-110.7653	1012.5	367.5	211.2	6.9	5.8	0.88	51.61	1.9262	400.4914
12131	1509398131	54.6000	-110.7657	1017.9	371.1	205.3	6.7	5.6	0.88	51.61	1.9252	401.3113
12132	1509398132	54.5995	-110.7659	1022.9	375.9	199.3	6.7	5.4	0.88	51.61	1.9261	401.2540
12133	1509398133	54.5990	-110.7661	1027.4	378.7	193.3	6.6	5.4	0.88	51.61	1.9260	400.4707
12134	1509398134	54.5985	-110.7662	1031.1	381.8	187.3	6.6	4.9	0.88	51.61	1.9260	398.9249
12135	1509398135	54.5980	-110.7661	1034.6	384.6	180.5	6.6	4.9	0.88	51.61	1.9266	398.9309
12136	1509398136	54.5974	-110.7660	1037.4	387.4	174.2	6.9	4.8	0.88	51.61	1.9274	399.0522
12137	1509398137	54.5969	-110.7657	1040.1	390.4	167.6	7.0	4.5	0.88	51.61	1.9264	399.8745
12138	1509398138	54.5964	-110.7653	1042.4	393.4	160.7	6.8	4.5	0.88	51.61	1.9262	399.6687
12139	1509398139	54.5959	-110.7649	1044.6	396.9	154.1	7.1	4.5	0.88	51.61	1.9272	400.8072
12140	1509398140	54.5955	-110.7643	1046.6	400.6	147.5	7.2	4.5	0.88	51.61	1.9274	400.3443
12141	1509398141	54.5950	-110.7636	1048.4	403.8	140.9	7.4	4.4	0.88	51.61	1.9268	400.9747
12142	1509398142	54.5946	-110.7628	1049.4	406.4	135.0	7.8	4.3	0.88	51.61	1.9273	400.2303
12143	1509398143	54.5943	-110.7619	1049.3	407.3	128.4	8.0	4.4	0.88	51.61	1.9279	400.9870
12144	1509398144	54.5940	-110.7610	1049.2	407.2	120.8	8.0	4.4	0.88	51.61	1.9255	399.2346
12145	1509398145	54.5938	-110.7599	1049.7	408.7	112.7	8.1	4.5	0.88	51.61	1.9255	398.4633
12146	1509398146	54.5936	-110.7588	1050.7	409.7	104.6	8.2	4.4	0.88	51.61	1.9266	399.0700
12147	1509398147	54.5936	-110.7577	1052.9	411.9	95.9	8.3	4.3	0.88	51.61	1.9268	399.0700
12148	1509398148	54.5936	-110.7565	1056.0	416.0	87.4	8.2	4.4	0.88	51.61	1.9269	399.0700
12149	1509398149	54.5937	-110.7553	1060.6	420.6	79.0	8.3	4.6	0.88	51.61	1.9271	399.0700
12150	1509398150	54.5939	-110.7542	1065.7	425.8	70.8	8.3	4.8	0.88	51.61	1.9273	399.0700
12151	1509398151	54.5942	-110.7532	1071.1	432.1	63.1	8.9	4.2	0.88	51.61	1.9257	400.0898
12152	1509398152	54.5945	-110.7521	1075.7	436.6	58.6	9.2	4.2	0.88	51.61	1.9264	398.8039
12153	1509398153	54.5949	-110.7511	1078.8	439.8	57.0	9.1	4.8	0.88	51.61	1.9262	399.0920
12154	1509398154	54.5952	-110.7501	1079.6	440.8	56.3	9.1	5.1	0.88	51.61	1.9268	398.7470
12155	1509398155	54.5954	-110.7498	1079.2	440.2	56.2	9.1	5.3	0.88	51.61	1.9272	398.9292
12156	1509398156	54.5954	-110.7496	1079.0	440.1	56.2	9.1	5.3	0.88	51.61	1.9268	398.8477
12157	1509398157	54.5955	-110.7495	1078.8	439.9	56.2	9.0	5.3	0.88	51.61	1.9266	399.1052
12158	1509398158	54.5955	-110.7493	1078.5	439.5	56.2	8.1	4.8	0.88	51.61	1.9260	399.3869
12159	1509398159	54.5960	-110.7482	1075.1	435.9	56.0	6.8	4.1	0.88	51.61	1.9256	400.2811
12160	1509398160	54.5964	-110.7470	1071.4	431.0	55.7	7.3	4.3	0.88	51.61	1.9261	399.4575
12161	1509398161	54.5969	-110.7458	1067.7	425.9	55.7	7.2	4.5	0.88	51.61	1.9289	400.6004
12162	1509398162	54.5974	-110.7446	1064.5	423.6	55.6	7.4	4.7	0.88	51.61	1.9265	400.2555
12163	1509398163	54.5979	-110.7434	1061.9	421.2	55.7	7.1	4.6	0.88	51.61	1.9267	400.3446
12164	1509398164	54.5983	-110.7422	1058.1	418.1	55.8	7.4	4.6	0.88	51.61	1.9259	400.3446
12165	1509398165	54.5988	-110.7410	1051.6	411.6	56.7	7.3	4.5	0.88	51.61	1.9254	400.1350
12166	1509398166	54.5993	-110.7397	1042.0	402.0	58.1	7.1	4.3	0.88	51.61	1.9259	401.1805
12167	1509398167	54.5997	-110.7384	1031.1	390.1	60.4	7.5	4.8	0.88	51.61	1.9273	399.9637
12168	1509398168	54.6002	-110.7370	1020.8	379.1	63.0	8.0	5.1	0.88	51.61	1.9266	398.9868
12169	1509398169	54.6006	-110.7356	1013.1	371.1	65.2	8.3	5.1	0.88	51.61	1.9315	400.3729
12170	1509398170	54.6010	-110.7342	1006.1	365.1	67.0	8.2	4.2	0.88	51.61	1.9347	400.6833
12171	1509398171	54.6013	-110.7327	998.1	357.1	70.9	7.6	4.1	0.88	51.61	1.9363	401.3452
12172	1509398172	54.6016	-110.7312	989.3	348.3	77.0	7.4	3.9	0.88	51.61	1.9383	399.8021
12173	1509398173	54.6018	-110.7296	980.9	339.9	84.8	7.2	4.2	0.88	51.61	1.9428	400.7574
12174	1509398174	54.6018	-110.7281	972.6	332.6	92.4	6.8	4.0	0.88	51.61	1.9489	400.7574
12175	1509398175	54.6018	-110.7264	962.7	322.7	99.8	6.2	4.2	0.88	51.61	1.9480	400.2983
12176	1509398176	54.6016	-110.7249	951.5	311.5	107.2	5.6	4.4	0.88	51.61	1.9515	402.3296
12177	1509398177	54.6014	-110.7234	940.6	300.6	114.2	5.0	4.6	0.88	51.61	1.9521	401.2853
12178	1509398178	54.6010	-110.7220	929.8	289.8	120.6	4.5	4.9	0.88	51.61	1.9536	401.3525
12179	1509398179	54.6006	-110.7207	919.8	279.8	125.9	3.9	4.5	0.88	51.61	1.9583	401.8538
12180	1509398180	54.6001	-110.7196	910.2	269.2	130.5	3.7	4.6	0.88	51.61	1.9640	401.9540
12181	1509398181	54.5996	-110.7185	900.0	259.0	135.5	3.4	4.6	0.88	51.61	1.9682	401.9104
12182	1509398182	54.5991	-110.7176	890.0	248.0	140.9	3.4	4.8	0.88	51.61	1.9681	401.8742
12183	1509398183	54.5985	-110.7167	881.5	239.5	145.4	2.1	4.7	0.88	51.61	1.9678	403.1977
12184	1509398184	54.5979	-110.7159	875.1	233.1	149.8	2.2	5.5	0.88	51.61	1.9692	401.9708
12185	1509398185	54.5972	-110.7152	868.7	227.7	153.2	1.9	5.6	0.88	51.61	1.9673	403.2833
12186	1509398186	54.5965	-110.7146	862.6	221.6	156.3	1.8	5.5	0.88	51.61	1.9662	401.1255
12187	1509398187	54.5958	-110.7141	856.3	216.3	159.5	2.4	5.2	0.88	51.61	1.9677	402.6426
12188	1509398188	54.5951	-110.7136	850.3	211.3	161.9	2.5	4.9	0.88	51.61	1.9714	401.6317
12189	1509398189	54.5944	-110.7131	843.3	205.3	163.2	1.9	4.9	0.88	51.61	1.9695	401.8811
12190	1509398190	54.5936	-110.7127	836.1	199.1	165.0	2.0	4.7	0.88	51.61	1.9705	401.8811
12191	1509398191	54.5929	-110.7124	829.8	192.8	166.3	1.9	4.6	0.88	51.61	1.9696	401.8836
12192	1509398192	54.5922	-110.7120	824.3	188.3	167.4	1.8	4.6	0.88	51.61	1.9697	401.2636
12193	1509398193	54.5914	-110.7117	819.8	184.8	168.8	2.5	4.8	0.88	51.61	1.9692	401.3829
12194	1509398194	54.5907	-110.7114	816.3	182.2	169.2	1.9	5.0	0.88	51.61	1.9685	401.7973
12195	1509398195	54.5899	-110.7111	813.0	178.7	169.7	1.8	4.9	0.88	51.61	1.9689	402.3963
12196	1509398196	54.5891	-110.7108	809.8	174.7	170.4	2.2	4.9	0.88	51.61	1.9693	402.3963
12197	1509398197	54.5884	-110.7106	806.8	171.8	170.3	1.4	4.6	0.88	51.61	1.9691	400.9464
12198	1509398198	54.5876	-110.7103	804.3	169.3	171.5	2.7	5.3	0.88	51.61	1.9692	401.2239
12199	1509398199	54.5868	-110.7101	802.5	167.5	171.2	2.4	5.1	0.88	51.61	1.9690	402.7079
12200	1509398200	54.5861	-110.7098	801.8	166.8	171.6	2.8	5.2	0.88	51.61	1.9679	401.7552
12201	1509398201	54.5853	-110.7096	801.5	166.5	171.1	2.2	5.6	0.88	51.61	1.9654	401.9219
12202	1509398202	54.5846	-110.7093	802.0	167.0	170.9	2.6	5.7	0.88	51.61	1.9657	400.5107
12203	1509398203	54.5839	-110.7091	802.8	166.8	169.7	2.5	5.7	0.88	51.61	1.9643	401.0062
12204	1509398204	54.5831	-110.7087	804.0	168.0	167.5	2.3	5.9	0.88	51.61	1.9663	401.3020
12205	1509398205	54.5824	-110.7084	805.9	169.6	165.1	2.8	5.8	0.88	51.61	1.9677	401.4388
12206	1509398206	54.5817	-110.7080	808.5	171.5	162.4	2.6	6.0	0.88	51.61	1.9680	400.7873
12207	1509398207	54.5810	-110.7075	810.9	174.1	158.7	2.3	5.6	0.88	51.61	1.9675	400.7873
12208	1509398208	54.5804	-110.7069	813.4	178.3	154.0	2.1	5.7	0.88	51.61	1.9670	400.7873
12209	1509398209	54.5797	-110.7062	815.2	182.8	149.2	2.1	5.9	0.88	51.61	1.9666	400.7873
12210	1509398210	54.5791	-110.7055	816.6	186.2	143.9	2.4	5.5	0.88	51.61	1.9640	400.9467
12211	1509398211	54.5786	-110.7047	817.3	188.3	138.7	2.3	5.5	0.88	51.61	1.9645	399.0571
12212	1509398212	54.5781	-110.7037	817.8	190.6	133.2	2.1	5.9	0.88	51.61	1.9652	401.2283
12213	1509398213	54.5777	-110.7027	817.7	191.0	127.8	1.9	5.5	0.88	51.61	1.9648	399.7934
12214	1509398214	54.5773	-110.7017	817.1	191.2	122.6	1.7	5.7	0.88	51.61	1.9656	401.3148
12215	1509398215	54.5772	-110.7012	816.8	191.8	120.9	2.0	6.1	0.88	51.61	1.9670	400.1633
12216	1509398216	54.5771	-110.7011	816.8	192.1	120.4	2.1	6.2	0.88	51.61	1.9667	401.2360
12217	1509398217	54.5771	-110.7009	816.7	192.0	119.8	2.3	6.3	0.88	51.61	1.9629	401.3254
12218	1509398218	54.5770	-110.7006	816.6	192.6	118.7	2.4	6.3	0.88	51.61	1.9658	400.9028
12219	1509398219	54.5767	-110.6993	815.6	192.6	114.1	1.3	5.1	0.88	51.61	1.9667	400.7092
12220	1509398220	54.5764	-110.6979	812.5	188.6	112.2	0.8	5.3	0.88	51.61	1.9635	400.5036
12221	1509398221	54.5762	-110.6965	807.0	182.0	110.4	0.8	5.3	0.88	51.61	1.9644	400.4941
12222	1509398222	54.5760	-110.6951	801.0	175.0	108.6	1.1	4.8	0.88	51.61	1.9671	399.2781
12223	1509398223	54.5757	-110.6937	796.2	168.2	106.9	1.2	4.4	0.88	51.61	1.9650	400.0360
12224	1509398224	54.5756	-110.6923	792.7	162.8	105.0	2.1	6.0	0.88	51.61	1.9643	400.6645
12225	1509398225	54.5754	-110.6908	791.8	160.8	99.7	2.5	5.0	0.88	51.61	1.9629	400.9543
12226	1509398226	54.5754	-110.6894	794.0	162.0	93.7	2.6	5.4	0.88	51.61	1.9628	398.7313
12227	1509398227	54.5754	-110.6880	798.0	166.0	88.2	2.1	4.8	0.88	51.61	1.9635	400.4096
12228	1509398228	54.5755	-110.6866	799.4	167.3	85.3	1.2	5.0	0.88	51.61	1.9652	401.0855
12229	1509398229	54.5757	-110.6851	796.8	166.9	83.6	0.8	4.5	0.88	51.61	1.9632	400.1621
12230	1509398230	54.5758	-110.6837	794.5	165.8	81.4	1.5	3.0	0.88	51.61	1.9625	401.6257
12231	1509398231	54.5760	-110.6822	792.9	165.9	81.2	2.0	3.3	0.88	51.61	1.9611	400.0058
12232	1509398232	54.5761	-110.6807	791.6	163.6	82.6	1.7	5.7	0.88	51.61	1.9617	400.4497
12233	1509398233	54.5763	-110.6793	791.9	163.0	80.7	1.8	5.8	0.88	51.61	1.9621	400.3487
12234	1509398234	54.5765	-110.6778	793.7	162.7	78.2	1.8	6.3	0.88	51.61	1.9612	400.1686
12235	1509398235	54.5768	-110.6764	795.7	163.7	73.7	1.6	5.8	0.88	51.61	1.9614	398.9695
12236	1509398236	54.5771	-110.6750	799.2	167.2	68.9	1.3	5.0	0.88	51.61	1.9623	400.6659
12237	1509398237	54.5775	-110.6736	801.9	171.0	65.8	1.2	4.0	0.88	51.61	1.9626	400.9178
12238	1509398238	54.5779	-110.6723	802.0	171.0	65.0	1.2	3.9	0.88	51.61	1.9613	400.7658
12239	1509398239	54.5783	-110.6710	801.5	170.6	65.2	1.0	5.3	0.88	51.61	1.9623	400.8664
12240	1509398240	54.5786	-110.6699	802.0	171.0	63.8	1.3	5.1	0.88	51.61	1.9613	400.1498
12241	1509398241	54.5790	-110.6688	803.5	171.5	60.7	1.6	4.6	0.88	51.61	1.9606	400.1339
12242	1509398242	54.5794	-110.6677	805.0	173.1	59.2	0.3	5.5	0.88	51.61	1.9597	400.2160
12243	1509398243	54.5798	-110.6667	805.8	172.8	54.0	1.7	4.7	0.88	51.61	1.9621	401.5476
12244	1509398244	54.5803	-110.6658	806.8	172.8	49.0	1.6	5.0	0.88	51.61	1.9631	400.6225
12245	1509398245	54.5808	-110.6649	808.7	174.7	43.1	2.1	5.2	0.88	51.61	1.9628	400.5965
12246	1509398246	54.5814	-110.6641	810.6	175.6	38.6	1.6	5.2	0.88	51.61	1.9609	401.0745
12247	1509398247	54.5819	-110.6634	810.9	173.9	35.2	1.5	5.2	0.88	51.61	1.9618	400.9297
12248	1509398248	54.5826	-110.6627	809.9	171.1	32.0	1.6	5.4	0.88	51.61	1.9616	399.8608
12249	1509398249	54.5832	-110.6621	808.2	168.9	29.2	1.1	5.1	0.88	51.61	1.9617	401.4519
12250	1509398250	54.5839	-110.6616	806.3	165.3	25.9	0.3	5.6	0.88	51.61	1.9597	402.0541
12251	1509398251	54.5845	-110.6611	804.2	162.2	21.1	0.8	5.5	0.88	51.61	1.9604	401.5650
12252	1509398252	54.5852	-110.6607	801.2	159.2	16.0	1.5	5.5	0.88	51.61	1.9608	401.0901
12253	1509398253	54.5860	-110.6604	798.0	156.0	13.2	0.2	5.5	0.88	51.61	1.9623	400.8960
12254	1509398254	54.5867	-110.6602	795.5	153.5	9.8	1.1	5.5	0.88	51.61	1.9602	400.0499
12255	1509398255	54.5874	-110.6600	792.3	150.3	7.8	0.8	5.8	0.88	51.61	1.9619	401.2043
12256	1509398256	54.5882	-110.6598	788.7	146.7	5.2	0.2	6.0	0.88	51.61	1.9618	400.0648
12257	1509398257	54.5889	-110.6598	785.8	143.8	-0.4	0.9	5.6	0.88	51.61	1.9612	402.1225
12258	1509398258	54.5896	-110.6598	785.8	143.8	353.5	0.9	5.3	0.88	51.61	1.9614	400.6273
12259	1509398259	54.5903	-110.6600	788.3	146.3	349.8	0.8	5.4	0.88	51.61	1.9636	401.6194
12260	1509398260	54.5911	-110.6602	789.1	147.1	347.5	1.4	5.3	0.88	51.61	1.9625	400.3717
12261	1509398261	54.5918	-110.6605	788.9	146.9	346.0	1.5	5.3	0.88	51.61	1.9617	400.7484
12262	1509398262	54.5925	-110.6607	789.5	148.5	345.1	1.6	5.0	0.88	51.61	1.9625	400.4895
12263	1509398263	54.5932	-110.6610	792.6	151.6	345.2	0.8	4.5	0.88	51.61	1.9615	400.3109
12264	1509398264	54.5939	-110.6613	794.7	153.7	345.4	0.4	4.4	0.88	51.61	1.9627	400.2435
12265	1509398265	54.5946	-110.6616	796.3	155.3	343.9	1.4	4.8	0.88	51.61	1.9620	400.4228
12266	1509398266	54.5953	-110.6619	797.9	156.9	343.4	1.6	5.2	0.88	51.61	1.9627	401.8984
12267	1509398267	54.5960	-110.6622	798.6	157.6	342.8	2.5	5.6	0.88	51.61	1.9632	401.8984
12268	1509398268	54.5967	-110.6625	797.6	156.6	345.3	1.0	4.9	0.88	51.61	1.9637	401.8984
12269	1509398269	54.5974	-110.6628	795.9	154.9	347.2	1.5	5.3	0.88	51.61	1.9642	401.8984
12270	1509398270	54.5981	-110.6630	794.3	153.3	348.9	2.1	5.6	0.88	51.61	1.9630	400.3364
12271	1509398271	54.5988	-110.6631	792.2	151.2	351.8	1.9	5.7	0.88	51.61	1.9635	402.1793
12272	1509398272	54.5995	-110.6633	790.2	148.2	354.0	2.5	6.0	0.88	51.61	1.9640	401.3824
12273	1509398273	54.6003	-110.6633	788.4	145.4	357.5	1.3	5.7	0.88	51.61	1.9638	400.6178
12274	1509398274	54.6010	-110.6633	788.2	143.7	-0.2	1.3	5.5	0.88	51.61	1.9633	401.1939
12275	1509398275	54.6012	-110.6633	788.4	143.4	0.2	1.3	5.4	0.88	51.61	1.9636	401.2767
12276	1509398276	54.6013	-110.6633	788.5	143.5	0.3	1.3	5.3	0.88	51.61	1.9628	400.2263
12277	1509398277	54.6013	-110.6633	788.5	143.5	0.4	1.3	5.3	0.88	51.61	1.9639	401.4582
12278	1509398278	54.6014	-110.6633	788.6	143.6	0.5	1.2	5.2	0.88	51.61	1.9655	400.6501
12279	1509398279	54.6014	-110.6633	788.7	143.5	0.5	1.2	5.2	0.88	51.61	1.9649	400.6501
12280	1509398280	54.6015	-110.6633	788.7	143.5	0.6	1.2	5.1	0.88	51.61	1.9642	399.7728
12281	1509398281	54.6015	-110.6633	788.8	143.6	0.7	1.1	5.1	0.88	51.61	1.9656	400.3636
12282	1509398282	54.6018	-110.6633	788.6	142.7	1.1	1.0	5.5	0.88	51.61	1.9648	400.6073
12283	1509398283	54.6026	-110.6632	788.1	141.1	1.8	1.0	5.5	0.88	51.61	1.9654	401.5595
12284	1509398284	54.6034	-110.6632	788.0	140.3	1.4	1.7	5.4	0.88	51.61	1.9661	401.5595
12285	1509398285	54.6042	-110.6631	787.7	139.8	2.1	1.0	5.0	0.88	51.61	1.9670	400.1292
12286	1509398286	54.6051	-110.6630	786.5	137.5	1.6	1.3	5.1	0.88	51.61	1.9673	400.1292
12287	1509398287	54.6059	-110.6630	785.4	135.4	1.3	1.8	5.7	0.88	51.61	1.9672	400.1665
12288	1509398288	54.6068	-110.6629	783.7	133.0	1.9	1.0	5.9	0.88	51.61	1.9675	401.6027
12289	1509398289	54.6076	-110.6628	781.7	130.7	1.4	1.9	6.3	0.88	51.61	1.9664	401.1744
12290	1509398290	54.6085	-110.6628	781.2	131.2	0.7	2.1	6.4	0.88	51.61	1.9652	401.7705
12291	1509398291	54.6093	-110.6627	781.1	131.6	1.7	1.2	6.3	0.88	51.61	1.9676	401.3960
12292	1509398292	54.6102	-110.6627	781.6	133.0	1.4	1.1	6.3	0.88	51.61	1.9675	400.7930
12293	1509398293	54.6110	-110.6626	781.7	133.7	1.5	0.9	5.9	0.88	51.61	1.9680	400.7940
12294	1509398294	54.6118	-110.6626	784.3	137.3	1.3	0.9	6.1	0.88	51.61	1.9678	400.7940
12295	1509398295	54.6127	-110.6625	786.0	139.9	1.2	1.2	6.0	0.88	51.61	1.9694	400.5132
12296	1509398296	54.6135	-110.6625	786.9	140.9	1.2	1.3	5.2	0.88	51.61	1.9666	400.0382
12297	1509398297	54.6143	-110.6624	787.6	140.7	1.2	1.4	4.5	0.88	51.61	1.9681	400.9971
12298	1509398298	54.6151	-110.6624	788.0	140.9	1.5	1.1	4.5	0.88	51.61	1.9694	400.9971
12299	1509398299	54.6160	-110.6623	788.3	140.2	1.7	1.0	5.1	0.88	51.61	1.9693	399.9684
12300	1509398300	54.6168	-110.6623	788.2	139.2	1.3	1.4	6.0	0.88	51.61	1.9689	402.4266
12301	1509398301	54.6176	-110.6622	787.9	138.9	1.3	1.3	6.3	0.88	51.61	1.9692	401.2704
12302	1509398302	54.6184	-110.6622	790.0	140.0	0.8	1.6	6.0	0.88	51.61	1.9681	401.4466
12303	1509398303	54.6192	-110.6621	795.4	145.5	1.2	1.2	5.6	0.88	51.61	1.9681	400.8026
12304	1509398304	54.6201	-110.6621	799.5	148.6	1.1	1.6	5.2	0.88	51.61	1.9683	401.0422
12305	1509398305	54.6209	-110.6620	801.9	149.9	1.2	1.5	5.2	0.88	51.61	1.9686	401.1538
12306	1509398306	54.6217	-110.6620	803.4	151.4	1.2	1.2	5.8	0.88	51.61	1.9676	400.9941
12307	1509398307	54.6225	-110.6619	805.1	153.9	0.7	1.6	5.6	0.88	51.61	1.9659	400.5743
12308	1509398308	54.6233	-110.6619	808.2	158.0	0.9	1.4	5.5	0.88	51.61	1.9656	401.3303
12309	1509398309	54.6241	-110.6618	809.8	159.8	1.0	1.5	5.4	0.88	51.61	1.9673	400.4675
12310	1509398310	54.6249	-110.6618	811.3	161.9	1.0	1.5	5.9	0.88	51.61	1.9672	400.3430
12311	1509398311	54.6258	-110.6617	813.1	164.1	0.7	2.1	5.9	0.88	51.61	1.9638	400.3590
12312	1509398312	54.6266	-110.6617	814.3	165.3	0.9	2.0	5.6	0.88	51.61	1.9635	400.4803
12313	1509398313	54.6274	-110.6616	814.4	165.5	1.3	1.6	5.6	0.88	51.61	1.9670	400.8903
12314	1509398314	54.6282	-110.6615	813.5	165.5	1.3	2.0	5.4	0.88	51.61	1.9682	401.1214
12315	1509398315	54.6290	-110.6615	812.1	164.1	1.4	1.9	5.7	0.88	51.61	1.9676	401.1214
12316	1509398316	54.6298	-110.6614	810.5	161.3	0.5	2.6	5.8	0.88	51.61	1.9681	400.5919
12317	1509398317	54.6306	-110.6614	809.2	160.2	1.0	1.6	5.5	0.88	51.61	1.9686	400.4566
12318	1509398318	54.6314	-110.6613	808.1	158.8	-0.2	2.5	5.4	0.88	51.61	1.9698	400.1805
12319	1509398319	54.6322	-110.6613	807.2	157.2	-0.1	2.2	5.5	0.88	51.61	1.9685	400.1805
12320	1509398320	54.6330	-110.6612	807.0	157.0	0.4	1.6	5.2	0.88	51.61	1.9693	401.6019
12321	1509398321	54.6339	-110.6612	807.0	157.0	0.7	1.3	5.8	0.88	51.61	1.9675	400.6687
12322	1509398322	54.6347	-110.6612	806.7	156.7	0.9	1.2	6.3	0.88	51.61	1.9670	400.9003
12323	1509398323	54.6355	-110.6611	806.0	156.0	-0.1	2.5	5.9	0.88	51.61	1.9703	401.5961
12324	1509398324	54.6363	-110.6611	804.2	154.2	0.6	2.3	5.5	0.88	51.61	1.9688	401.4793
12325	1509398325	54.6371	-110.6610	804.5	155.5	1.0	2.6	4.5	0.88	51.61	1.9676	401.7635
12326	1509398326	54.6379	-110.6609	805.4	157.4	2.9	0.5	4.0	0.88	51.61	1.9675	401.0038
12327	1509398327	54.6388	-110.6609	805.4	159.4	2.5	1.0	5.1	0.88	51.61	1.9674	401.0038
12328	1509398328	54.6395	-110.6608	805.2	161.2	2.3	0.8	5.6	0.88	51.61	1.9673	401.0038
12329	1509398329	54.6402	-110.6607	805.7	163.3	1.8	1.3	6.0	0.88	51.61	1.9672	401.0038
12330	1509398330	54.6409	-110.6607	805.9	165.8	1.4	1.2	5.2	0.88	51.61	1.9671	401.0038
12331	1509398331	54.6417	-110.6606	804.9	166.9	2.0	0.5	4.7	0.88	51.61	1.9681	401.1454
12332	1509398332	54.6424	-110.6606	804.3	167.3	1.6	1.0	4.8	0.88	51.61	1.9680	400.8709
12333	1509398333	54.6431	-110.6605	804.1	168.4	1.3	1.4	5.2	0.88	51.61	1.9680	400.3755
12334	1509398334	54.6438	-110.6605	803.4	168.4	1.1	1.5	5.5	0.88	51.61	1.9664	400.9829
12335	1509398335	54.6441	-110.6605	803.1	168.1	0.9	1.6	5.7	0.88	51.61	1.9665	401.3719
12336	1509398336	54.6442	-110.6605	803.0	168.7	0.9	1.7	5.9	0.88	51.61	1.9674	401.3699
12337	1509398337	54.6443	-110.6605	802.8	168.5	0.8	1.7	6.0	0.88	51.61	1.9679	400.9557
12338	1509398338	54.6445	-110.6604	802.6	168.6	0.8	1.6	4.9	0.88	51.61	1.9683	401.0031
12339	1509398339	54.6453	-110.6604	801.3	168.3	1.7	1.0	4.8	0.88	51.61	1.9682	400.6732
12340	1509398340	54.6461	-110.6603	799.2	166.2	1.4	1.9	4.8	0.88	51.61	1.9690	400.6424
12341	1509398341	54.6470	-110.6603	796.6	163.6	2.2	1.7	4.8	0.88	51.61	1.9667	401.8167
12342	1509398342	54.6478	-110.6602	795.2	162.5	1.9	1.8	4.8	0.88	51.61	1.9679	401.8167
12343	1509398343	54.6486	-110.6601	792.9	160.9	2.4	1.0	4.8	0.88	51.61	1.9689	401.4403
12344	1509398344	54.6495	-110.6600	790.3	158.3	1.7	1.7	5.1	0.88	51.61	1.9670	401.2541
12345	1509398345	54.6503	-110.6600	787.0	155.0	2.7	0.8	5.1	0.88	51.61	1.9673	401.6623
12346	1509398346	54.6512	-110.6599	785.4	153.4	2.6	1.2	5.2	0.88	51.61	1.9673	401.5598
12347	1509398347	54.6520	-110.6598	783.5	151.5	2.2	1.8	5.4	0.88	51.61	1.9660	400.9596
12348	1509398348	54.6529	-110.6597	782.1	149.1	3.1	0.9	5.0	0.88	51.61	1.9666	401.2397
12349	1509398349	54.6537	-110.6596	780.6	146.6	2.4	1.8	5.0	0.88	51.61	1.9665	398.4417
12350	1509398350	54.6546	-110.6595	778.2	143.2	3.4	0.8	5.5	0.88	51.61	1.9656	401.5153
12351	1509398351	54.6554	-110.6594	778.3	143.3	3.3	0.4	5.3	0.88	51.61	1.9661	401.0485
12352	1509398352	54.6563	-110.6593	778.3	143.3	3.6	0.0	5.0	0.88	51.61	1.9638	401.0485
12353	1509398353	54.6571	-110.6593	777.5	141.5	3.6	-0.1	5.5	0.88	51.61	1.9654	400.1500
12354	1509398354	54.6580	-110.6592	777.2	140.2	2.5	1.3	5.7	0.88	51.61	1.9662	400.9372
12355	1509398355	54.6588	-110.6591	777.4	139.4	2.4	1.2	5.4	0.88	51.61	1.9662	400.0819
12356	1509398356	54.6597	-110.6590	777.9	139.9	2.4	1.3	4.3	0.88	51.61	1.9673	399.3394
12357	1509398357	54.6605	-110.6589	778.9	139.9	2.4	1.4	3.6	0.88	51.61	1.9664	399.3394
12358	1509398358	54.6614	-110.6589	779.9	140.9	2.3	1.5	3.6	0.88	51.61	1.9663	400.7876
12359	1509398359	54.6621	-110.6588	780.9	140.9	2.7	0.9	4.0	0.88	51.61	1.9659	401.2933
12360	1509398360	54.6629	-110.6587	781.7	141.7	3.0	0.6	3.9	0.88	51.61	1.9661	401.4603
12361	1509398361	54.6636	-110.6586	782.6	141.6	2.3	1.6	4.7	0.88	51.61	1.9647	399.8387
12362	1509398362	54.6643	-110.6586	782.9	141.9	2.7	1.1	4.7	0.88	51.61	1.9662	401.0086
12363	1509398363	54.6650	-110.6585	783.4	141.4	2.6	1.4	4.0	0.88	51.61	1.9669	400.4845
12364	1509398364	54.6658	-110.6584	784.3	142.3	2.8	0.8	3.5	0.88	51.61	1.9663	400.5952
12365	1509398365	54.6665	-110.6583	784.1	142.4	2.7	1.1	3.9	0.88	51.61	1.9656	400.5952
12366	1509398366	54.6672	-110.6583	784.8	143.8	2.2	1.2	3.5	0.88	51.61	1.9661	399.5499
12367	1509398367	54.6680	-110.6582	789.1	148.1	3.0	0.7	2.9	0.88	51.61	1.9663	399.6209
12368	1509398368	54.6687	-110.6581	794.2	154.2	2.9	1.3	3.3	0.88	51.61	1.9663	400.6936
12369	1509398369	54.6694	-110.6581	799.4	159.4	3.0	1.3	3.7	0.88	51.61	1.9656	401.0041
12370	1509398370	54.6701	-110.6580	803.4	164.4	3.9	0.3	3.6	0.88	51.61	1.9658	401.4036
12371	1509398371	54.6708	-110.6579	805.8	167.1	3.1	0.8	3.3	0.88	51.61	1.9651	401.4036
12372	1509398372	54.6715	-110.6578	807.8	169.8	2.3	1.0	3.1	0.88	51.61	1.9656	400.1928
12373	1509398373	54.6722	-110.6578	809.5	171.5	0.1	3.0	4.2	0.88	51.61	1.9662	400.8300
12374	1509398374	54.6729	-110.6577	810.6	172.6	-0.1	2.6	4.4	0.88	51.61	1.9647	402.0536
12375	1509398375	54.6736	-110.6577	811.8	173.8	0.7	1.4	3.9	0.88	51.61	1.9648	400.8424
12376	1509398376	54.6743	-110.6577	813.6	174.8	1.0	0.7	4.3	0.88	51.61	1.9652	401.0958
12377	1509398377	54.6750	-110.6576	815.6	176.2	0.7	1.3	4.8	0.88	51.61	1.9671	399.4985
12378	1509398378	54.6757	-110.6576	817.3	176.2	-0.4	2.3	4.8	0.88	51.61	1.9659	399.4985
12379	1509398379	54.6763	-110.6576	818.3	176.3	0.2	1.7	5.1	0.88	51.61	1.9655	401.2876
12380	1509398380	54.6770	-110.6575	819.0	175.7	0.3	2.0	5.3	0.88	51.61	1.9658	400.2159
12381	1509398381	54.6777	-110.6575	819.0	175.1	1.0	1.6	5.4	0.88	51.61	1.9679	401.0577
12382	1509398382	54.6784	-110.6574	818.4	173.4	1.8	1.5	5.5	0.88	51.61	1.9670	401.8489
12383	1509398383	54.6791	-110.6574	818.7	173.7	1.9	1.5	5.1	0.88	51.61	1.9662	401.8489
12384	1509398384	54.6798	-110.6573	819.2	174.2	1.3	2.4	4.8	0.88	51.61	1.9676	400.5608
12385	1509398385	54.6805	-110.6573	819.2	174.2	1.0	2.5	4.9	0.88	51.61	1.9682	400.5608
12386	1509398386	54.6812	-110.6572	819.4	174.4	1.5	2.1	4.4	0.88	51.61	1.9669	399.9806
12387	1509398387	54.6819	-110.6571	819.7	174.7	1.8	2.0	4.1	0.88	51.61	1.9671	399.9806
12388	1509398388	54.6826	-110.6571	820.1	175.1	2.3	1.7	4.5	0.88	51.61	1.9673	399.9806
12389	1509398389	54.6833	-110.6570	819.7	174.7	2.9	1.3	4.8	0.88	51.61	1.9674	399.9806
12390	1509398390	54.6840	-110.6569	818.6	174.9	2.5	1.8	4.8	0.88	51.61	1.9673	401.7012
12391	1509398391	54.6847	-110.6568	818.1	176.1	2.2	2.1	5.2	0.88	51.61	1.9675	401.1696
12392	1509398392	54.6854	-110.6568	817.7	176.7	2.0	2.2	5.4	0.88	51.61	1.9675	401.4823
12393	1509398393	54.6861	-110.6567	816.7	176.7	2.1	1.8	5.6	0.88	51.61	1.9673	401.5219
12394	1509398394	54.6868	-110.6566	815.5	176.5	1.8	2.1	5.7	0.88	51.61	1.9665	400.5433
12395	1509398395	54.6870	-110.6566	815.3	176.3	1.7	2.2	5.6	0.88	51.61	1.9683	401.4442
12396	1509398396	54.6871	-110.6566	815.3	176.3	1.7	2.2	5.5	0.88	51.61	1.9682	400.0480
12397	1509398397	54.6871	-110.6566	815.3	176.3	1.8	2.1	5.4	0.88	51.61	1.9679	401.5850
12398	1509398398	54.6872	-110.6566	815.2	176.2	1.8	2.1	4.9	0.88	51.61	1.9688	400.6106
12399	1509398399	54.6872	-110.6566	815.2	176.2	1.8	2.0	4.7	0.88	51.61	1.9680	400.6106
12400	1509398400	54.6873	-110.6566	815.2	177.2	1.9	2.0	4.7	0.88	51.61	1.9688	399.8442
12401	1509398401	54.6873	-110.6566	815.2	177.2	1.9	1.9	4.8	0.88	51.61	1.9678	400.2418
12402	1509398402	54.6878	-110.6565	815.3	177.3	2.4	1.6	4.8	0.88	51.61	1.9685	401.1389
12403	1509398403	54.6886	-110.6564	815.6	178.6	2.2	2.2	4.4	0.88	51.61	1.9682	400.8151
12404	1509398404	54.6894	-110.6563	815.4	179.4	3.3	1.1	4.5	0.88	51.61	1.9710	402.1590
12405	1509398405	54.6902	-110.6562	814.5	178.5	3.2	1.1	4.3	0.88	51.61	1.9712	401.4517
12406	1509398406	54.6911	-110.6562	813.0	176.0	2.6	1.5	4.0	0.88	51.61	1.9710	400.6915
12407	1509398407	54.6919	-110.6561	811.7	174.7	2.0	2.1	4.1	0.88	51.61	1.9725	401.0903
12408	1509398408	54.6927	-110.6560	811.5	174.5	2.1	2.0	3.4	0.88	51.61	1.9736	401.3606
12409	1509398409	54.6935	-110.6559	811.5	173.5	2.6	1.5	2.8	0.88	51.61	1.9714	401.6969
12410	1509398410	54.6944	-110.6558	811.3	174.0	2.1	2.2	3.2	0.88	51.61	1.9724	402.2476
12411	1509398411	54.6952	-110.6557	810.2	173.2	2.5	1.7	4.2	0.88	51.61	1.9724	401.0062
12412	1509398412	54.6960	-110.6556	809.3	173.3	2.2	2.1	3.9	0.88	51.61	1.9742	400.2929
12413	1509398413	54.6968	-110.6555	809.5	172.8	2.8	1.0	3.2	0.88	51.61	1.9725	401.2067
12414	1509398414	54.6977	-110.6555	809.7	172.7	2.8	0.9	3.4	0.88	51.61	1.9749	401.3600
12415	1509398415	54.6985	-110.6554	810.0	173.0	3.3	0.1	3.7	0.88	51.61	1.9724	401.5022
12416	1509398416	54.6993	-110.6553	809.7	172.7	1.9	2.0	4.2	0.88	51.61	1.9715	401.3692
12417	1509398417	54.7001	-110.6552	810.8	173.8	3.1	-0.1	4.7	0.88	51.61	1.9734	401.0680
12418	1509398418	54.7010	-110.6551	811.6	174.6	2.7	0.9	4.6	0.88	51.61	1.9735	401.3324
12419	1509398419	54.7018	-110.6551	811.4	174.4	3.6	-0.1	4.7	0.88	51.61	1.9736	400.4335
12420	1509398420	54.7026	-110.6550	810.2	172.4	3.4	1.0	4.5	0.88	51.61	1.9749	401.5053
12421	1509398421	54.7034	-110.6549	809.2	169.4	2.9	1.6	4.3	0.88	51.61	1.9760	401.0384
12422	1509398422	54.7042	-110.6548	807.1	165.2	3.6	0.8	4.2	0.88	51.61	1.9758	401.3341
12423	1509398423	54.7051	-110.6547	804.8	161.8	3.4	1.1	4.0	0.88	51.61	1.9790	402.0554
12424	1509398424	54.7059	-110.6546	803.0	158.9	2.5	2.2	4.4	0.88	51.61	1.9785	401.8258
12425	1509398425	54.7068	-110.6545	801.4	158.4	4.1	0.4	4.1	0.88	51.61	1.9773	401.8884
12426	1509398426	54.7076	-110.6544	800.4	159.2	4.2	0.2	3.8	0.88	51.61	1.9778	401.6723
12427	1509398427	54.7084	-110.6543	799.6	159.6	3.6	0.5	4.1	0.88	51.61	1.9771	401.0578
12428	1509398428	54.7093	-110.6542	798.6	159.6	3.7	0.2	4.5	0.88	51.61	1.9780	401.9665
12429	1509398429	54.7101	-110.6541	798.0	159.6	3.0	0.6	4.6	0.88	51.61	1.9787	401.8746
12430	1509398430	54.7109	-110.6540	796.8	158.9	2.9	0.8	4.2	0.88	51.61	1.9771	401.3189
12431	1509398431	54.7118	-110.6539	796.1	159.0	2.5	1.1	4.8	0.88	51.61	1.9780	401.3189
12432	1509398432	54.7127	-110.6538	795.1	159.1	2.6	0.8	4.9	0.88	51.61	1.9776	401.6314
12433	1509398433	54.7135	-110.6538	793.7	159.7	2.9	0.2	5.0	0.88	51.61	1.9785	401.7374
12434	1509398434	54.7144	-110.6537	792.6	160.5	2.6	0.5	5.1	0.88	51.61	1.9771	401.4624
12435	1509398435	54.7152	-110.6536	792.1	161.8	1.7	1.7	5.5	0.88	51.61	1.9795	399.8193
12436	1509398436	54.7161	-110.6535	791.3	161.3	2.1	0.8	5.2	0.88	51.61	1.9787	401.3736
12437	1509398437	54.7169	-110.6535	790.1	160.1	2.0	1.0	5.1	0.88	51.61	1.9788	401.4419
12438	1509398438	54.7178	-110.6534	789.5	159.5	1.6	1.4	5.2	0.88	51.61	1.9829	401.7431
12439	1509398439	54.7187	-110.6534	789.5	159.5	0.8	2.2	4.7	0.88	51.61	1.9817	400.4389
12440	1509398440	54.7195	-110.6533	789.7	159.7	1.6	1.3	4.5	0.88	51.61	1.9852	400.9397
12441	1509398441	54.7204	-110.6532	791.0	161.0	2.2	0.7	4.4	0.88	51.61	1.9845	402.1560
12442	1509398442	54.7212	-110.6532	791.9	161.9	2.2	0.9	4.1	0.88	51.61	1.9824	402.2054
12443	1509398443	54.7221	-110.6531	792.7	162.7	2.0	1.4	4.0	0.88	51.61	1.9828	400.6869
12444	1509398444	54.7229	-110.6530	793.6	163.6	2.9	0.5	4.0	0.88	51.61	1.9827	400.6869
12445	1509398445	54.7237	-110.6529	793.9	163.9	3.0	0.5	4.2	0.88	51.61	1.9816	401.1081
12446	1509398446	54.7244	-110.6529	794.2	163.5	3.1	0.5	4.6	0.88	51.61	1.9823	400.9280
12447	1509398447	54.7252	-110.6528	794.5	161.5	2.0	1.7	4.8	0.88	51.61	1.9834	400.9280
12448	1509398448	54.7259	-110.6527	794.9	158.8	2.8	0.4	4.5	0.88	51.61	1.9845	400.9280
12449	1509398449	54.7267	-110.6527	795.1	160.1	2.5	0.7	4.5	0.88	51.61	1.9856	400.9280
12450	1509398450	54.7274	-110.6526	794.8	164.8	2.1	1.1	4.8	0.88	51.61	1.9844	401.8744
12451	1509398451	54.7281	-110.6525	794.3	164.3	2.6	0.5	4.6	0.88	51.61	1.9869	401.4801
12452	1509398452	54.7288	-110.6525	794.2	164.2	3.0	0.0	4.3	0.88	51.61	1.9863	400.5674
12453	1509398453	54.7296	-110.6524	794.4	164.4	2.5	0.7	4.3	0.88	51.61	1.9862	400.5674
12454	1509398454	54.7303	-110.6523	795.5	165.5	1.9	1.3	4.6	0.88	51.61	1.9888	401.8652
12455	1509398455	54.7305	-110.6523	795.8	165.8	1.8	1.4	4.5	0.88	51.61	1.9874	401.5241
12456	1509398456	54.7306	-110.6523	795.9	165.9	1.8	1.4	4.5	0.88	51.61	1.9897	402.4326
12457	1509398457	54.7307	-110.6523	795.9	165.9	1.8	1.3	4.5	0.88	51.61	1.9872	401.4698
12458	1509398458	54.7309	-110.6523	796.0	166.0	1.9	1.3	4.5	0.88	51.61	1.9857	401.4698
12459	1509398459	54.7317	-110.6522	795.8	165.8	2.4	0.8	4.5	0.88	51.61	1.9867	401.0428
12460	1509398460	54.7325	-110.6522	795.9	165.9	3.5	-0.2	4.6	0.88	51.61	1.9871	400.9119
12461	1509398461	54.7333	-110.6521	796.5	166.5	3.1	0.6	4.5	0.88	51.61	1.9862	401.4058
12462	1509398462	54.7342	-110.6520	796.3	166.3	2.4	1.3	4.1	0.88	51.61	1.9875	401.4148
12463	1509398463	54.7350	-110.6519	795.0	165.0	2.2	1.1	4.2	0.88	51.61	1.9879	401.6638
12464	1509398464	54.7358	-110.6518	793.5	163.5	1.7	1.5	4.5	0.88	51.61	1.9886	402.1760
12465	1509398465	54.7367	-110.6518	792.0	162.0	1.7	1.4	4.6	0.88	51.61	1.9887	402.3305
12466	1509398466	54.7375	-110.6517	790.7	158.7	2.4	0.4	4.4	0.88	51.61	1.9885	400.6474
12467	1509398467	54.7384	-110.6516	789.1	153.1	1.8	1.2	4.5	0.88	51.61	1.9910	400.4420
12468	1509398468	54.7393	-110.6516	787.2	149.7	1.8	1.2	4.7	0.88	51.61	1.9905	401.4111
12469	1509398469	54.7401	-110.6515	785.3	146.4	0.8	2.0	4.4	0.88	51.61	1.9897	401.4199
12470	1509398470	54.7409	-110.6515	784.4	142.2	1.0	1.6	4.4	0.88	51.61	1.9899	401.4080
12471	1509398471	54.7418	-110.6514	783.8	137.4	1.7	0.9	4.5	0.88	51.61	1.9911	400.7533
12472	1509398472	54.7427	-110.6514	783.0	135.1	1.2	1.5	4.5	0.88	51.61	1.9915	400.9323
12473	1509398473	54.7435	-110.6513	783.1	134.1	1.2	1.6	5.2	0.88	51.61	1.9926	401.8617
12474	1509398474	54.7444	-110.6512	785.9	136.9	0.9	1.8	5.4	0.88	51.61	1.9940	401.8233
12475	1509398475	54.7453	-110.6512	788.2	141.1	1.4	1.0	5.2	0.88	51.61	1.9952	402.2628
12476	1509398476	54.7461	-110.6511	790.2	144.8	1.2	0.9	4.5	0.88	51.61	1.9952	401.3302
12477	1509398477	54.7469	-110.6511	792.5	146.1	0.2	1.5	4.5	0.88	51.61	1.9943	401.5814
12478	1509398478	54.7478	-110.6511	794.8	148.9	1.4	-0.4	4.8	0.88	51.61	1.9928	401.7964
12479	1509398479	54.7486	-110.6511	796.1	150.3	-0.1	1.2	5.9	0.88	51.61	1.9955	400.6495
12480	1509398480	54.7493	-110.6510	797.1	152.0	-0.3	1.2	6.1	0.88	51.61	1.9938	399.9302
12481	1509398481	54.7500	-110.6510	798.0	151.9	-0.2	1.1	5.3	0.88	51.61	1.9937	400.8162
12482	1509398482	54.7508	-110.6510	799.0	152.0	-0.5	1.3	4.9	0.88	51.61	1.9937	400.8162
12483	1509398483	54.7515	-110.6510	800.1	151.6	0.3	1.1	4.6	0.88	51.61	1.9951	401.5453
12484	1509398484	54.7522	-110.6510	801.9	152.3	0.6	3.2	4.7	0.88	51.61	1.9946	401.5398
12485	1509398485	54.7529	-110.6509	803.7	153.9	3.9	3.5	4.8	0.88	51.61	1.9956	401.6681
12486	1509398486	54.7536	-110.6507	805.5	155.6	10.7	2.4	5.0	0.88	51.61	1.9953	401.6707
12487	1509398487	54.7543	-110.6504	807.8	157.7	16.8	3.2	4.7	0.88	51.61	1.9975	401.7519
12488	1509398488	54.7549	-110.6499	809.9	159.8	25.8	2.3	4.8	0.88	51.61	1.9983	400.7104
12489	1509398489	54.7555	-110.6493	812.6	161.6	34.9	2.9	3.6	0.88	51.61	1.9966	402.0727
12490	1509398490	54.7561	-110.6485	815.6	164.7	43.4	2.8	3.0	0.88	51.61	1.9962	402.1817
12491	1509398491	54.7566	-110.6476	817.0	165.0	52.6	2.1	3.4	0.88	51.61	1.9966	402.8227
12492	1509398492	54.7570	-110.6467	816.6	164.6	62.8	1.7	3.8	0.88	51.61	1.9969	402.3650
12493	1509398493	54.7572	-110.6456	815.7	163.7	73.0	1.9	3.5	0.88	51.61	1.9965	401.7089
12494	1509398494	54.7574	-110.6445	814.3	162.3	80.9	1.7	3.1	0.88	51.61	1.9962	402.6255
12495	1509398495	54.7575	-110.6434	810.6	158.1	86.2	1.4	3.6	0.88	51.61	1.9968	401.4847
12496	1509398496	54.7575	-110.6422	803.5	150.5	91.4	1.8	3.9	0.88	51.61	1.9949	402.6209
12497	1509398497	54.7575	-110.6410	796.6	142.6	95.2	2.2	3.9	0.88	51.61	1.9950	401.6969
12498	1509398498	54.7575	-110.6398	790.9	136.9	97.8	2.2	4.6	0.88	51.61	1.9964	401.8574
12499	1509398499	54.7574	-110.6386	787.5	132.5	98.4	2.1	4.8	0.88	51.61	1.9962	401.7567
12500	1509398500	54.7574	-110.6374	785.7	130.7	96.9	1.6	3.3	0.88	51.61	1.9953	401.7567
12501	1509398501	54.7573	-110.6362	784.4	128.3	96.3	1.4	3.1	0.88	51.61	1.9935	402.2152
12502	1509398502	54.7573	-110.6350	785.0	129.0	96.7	1.3	3.3	0.88	51.61	1.9942	401.3836
12503	1509398503	54.7572	-110.6338	790.4	134.4	96.3	1.2	3.0	0.88	51.61	1.9932	401.2670
12504	1509398504	54.7572	-110.6326	797.3	141.3	97.3	1.3	4.1	0.88	51.61	1.9922	401.9173
12505	1509398505	54.7571	-110.6314	801.2	145.2	97.2	1.5	4.1	0.88	51.61	1.9919	401.3949
12506	1509398506	54.7571	-110.6303	803.8	147.8	97.5	1.8	5.1	0.88	51.61	1.9931	401.6841
12507	1509398507	54.7571	-110.6291	805.1	149.1	95.5	1.7	4.1	0.88	51.61	1.9931	401.6053
12508	1509398508	54.7570	-110.6280	805.6	149.6	94.4	2.1	3.8	0.88	51.61	1.9931	401.5265
12509	1509398509	54.7570	-110.6268	805.2	149.2	94.0	1.7	3.7	0.88	51.61	1.9931	401.4478
12510	1509398510	54.7570	-110.6256	805.6	149.0	93.3	1.6	2.9	0.88	51.61	1.9904	401.1385
12511	1509398511	54.7570	-110.6244	806.5	149.5	93.7	2.0	3.0	0.88	51.61	1.9916	401.3096
12512	1509398512	54.7570	-110.6233	808.4	150.4	93.9	2.3	3.2	0.88	51.61	1.9912	400.6009
12513	1509398513	54.7570	-110.6221	810.9	151.9	94.8	2.2	4.2	0.88	51.61	1.9910	400.9767
12514	1509398514	54.7569	-110.6210	813.4	153.4	94.7	1.5	4.2	0.88	51.61	1.9902	400.9767
12515	1509398515	54.7569	-110.6205	814.0	154.0	94.6	1.5	4.0	0.88	51.61	1.9905	400.1111
12516	1509398516	54.7569	-110.6204	814.2	154.2	94.5	1.6	3.8	0.88	51.61	1.9885	401.2854
12517	1509398517	54.7569	-110.6202	814.4	154.4	94.3	1.8	3.7	0.88	51.61	1.9894	401.8619
12518	1509398518	54.7569	-110.6200	814.6	154.6	94.2	1.9	3.5	0.88	51.61	1.9895	401.4191
12519	1509398519	54.7569	-110.6187	815.2	156.2	94.0	1.7	3.4	0.88	51.61	1.9896	401.5210
12520	1509398520	54.7569	-110.6174	815.4	156.4	94.6	1.1	4.6	0.88	51.61	1.9884	401.7355
12521	1509398521	54.7569	-110.6161	815.2	156.2	93.4	1.1	4.0	0.88	51.61	1.9872	401.0573
12522	1509398522	54.7569	-110.6147	814.7	154.7	92.5	1.5	3.3	0.88	51.61	1.9878	400.5454
12523	1509398523	54.7569	-110.6134	814.2	153.2	92.0	1.4	3.5	0.88	51.61	1.9878	400.0993
12524	1509398524	54.7569	-110.6121	813.4	151.4	92.0	1.5	3.3	0.88	51.61	1.9890	402.1065
12525	1509398525	54.7569	-110.6108	812.7	150.7	91.7	1.7	3.3	0.88	51.61	1.9873	402.0831
12526	1509398526	54.7569	-110.6094	811.8	148.0	92.5	1.6	4.1	0.88	51.61	1.9866	400.3570
12527	1509398527	54.7569	-110.6081	811.6	147.6	91.9	1.1	3.8	0.88	51.61	1.9868	400.3570
12528	1509398528	54.7569	-110.6068	811.9	147.9	91.0	1.7	2.4	0.88	51.61	1.9859	400.6676
12529	1509398529	54.7570	-110.6054	812.6	148.6	91.1	2.5	3.0	0.88	51.61	1.9871	400.6676
12530	1509398530	54.7570	-110.6040	812.7	148.0	90.9	2.6	3.0	0.88	51.61	1.9852	402.2481
12531	1509398531	54.7570	-110.6027	812.1	147.1	91.2	2.5	3.7	0.88	51.61	1.9842	401.9710
12532	1509398532	54.7570	-110.6013	811.8	145.8	91.1	2.0	3.8	0.88	51.61	1.9850	401.9710
12533	1509398533	54.7570	-110.5999	812.9	145.9	90.3	1.9	3.1	0.88	51.61	1.9842	400.8542
12534	1509398534	54.7571	-110.5986	813.6	144.6	92.0	2.2	4.9	0.88	51.61	1.9842	401.4173
12535	1509398535	54.7571	-110.5973	814.1	143.4	91.1	2.1	3.4	0.88	51.61	1.9834	401.5164
12536	1509398536	54.7571	-110.5959	815.6	144.6	92.1	2.1	4.1	0.88	51.61	1.9824	401.1352
12537	1509398537	54.7571	-110.5946	816.9	146.9	91.7	2.5	3.5	0.88	51.61	1.9817	400.1933
12538	1509398538	54.7571	-110.5932	817.2	147.2	92.4	2.6	4.1	0.88	51.61	1.9824	400.5753
12539	1509398539	54.7571	-110.5919	818.0	147.0	91.7	3.0	3.6	0.88	51.61	1.9836	400.2111
12540	1509398540	54.7572	-110.5905	818.5	146.5	91.1	2.6	3.2	0.88	51.61	1.9843	401.3993
12541	1509398541	54.7572	-110.5893	819.3	146.3	90.9	2.4	2.8	0.88	51.61	1.9831	401.3993
12542	1509398542	54.7572	-110.5882	822.9	149.2	91.6	1.9	3.6	0.88	51.61	1.9822	400.4111
12543	1509398543	54.7572	-110.5871	826.7	152.7	92.5	2.6	4.2	0.88	51.61	1.9835	401.0249
12544	1509398544	54.7572	-110.5858	829.9	156.9	92.0	2.7	3.2	0.88	51.61	1.9818	401.0249
12545	1509398545	54.7572	-110.5846	832.5	158.5	92.6	2.5	3.8	0.88	51.61	1.9835	400.9529
12546	1509398546	54.7572	-110.5835	835.1	161.1	92.5	2.2	3.5	0.88	51.61	1.9824	402.4479
12547	1509398547	54.7572	-110.5824	837.7	163.7	92.0	2.1	2.6	0.88	51.61	1.9815	400.9730
12548	1509398548	54.7572	-110.5812	838.7	164.7	92.3	2.1	3.1	0.88	51.61	1.9807	401.5413
12549	1509398549	54.7572	-110.5801	838.7	164.7	93.2	2.2	4.4	0.88	51.61	1.9804	401.4273
12550	1509398550	54.7572	-110.5789	839.2	165.2	92.6	2.2	3.9	0.88	51.61	1.9805	401.4146
12551	1509398551	54.7572	-110.5778	840.1	166.1	92.0	2.7	3.5	0.88	51.61	1.9809	401.1659
12552	1509398552	54.7572	-110.5766	841.5	167.5	92.3	2.2	4.0	0.88	51.61	1.9813	402.5872
12553	1509398553	54.7573	-110.5755	842.6	168.6	92.1	2.5	3.7	0.88	51.61	1.9796	402.7337
12554	1509398554	54.7573	-110.5744	844.1	169.1	91.2	2.4	3.1	0.88	51.61	1.9794	402.7337
12555	1509398555	54.7573	-110.5733	845.3	170.3	91.4	2.0	3.3	0.88	51.61	1.9787	401.0684
12556	1509398556	54.7573	-110.5721	846.7	171.7	90.8	1.8	2.9	0.88	51.61	1.9784	401.5873
12557	1509398557	54.7573	-110.5709	847.9	173.9	91.5	1.4	3.9	0.88	51.61	1.9788	401.5873
12558	1509398558	54.7573	-110.5698	849.3	175.3	91.0	1.5	3.2	0.88	51.61	1.9785	400.5853
12559	1509398559	54.7574	-110.5686	850.3	176.3	91.6	1.7	3.9	0.88	51.61	1.9796	400.9914
12560	1509398560	54.7574	-110.5675	850.8	176.8	91.4	1.7	3.9	0.88	51.61	1.9790	400.9911
12561	1509398561	54.7574	-110.5664	850.8	176.8	90.8	2.1	3.5	0.88	51.61	1.9782	401.7587
12562	1509398562	54.7574	-110.5652	850.3	176.3	90.6	2.5	3.5	0.88	51.61	1.9797	401.5116
12563	1509398563	54.7574	-110.5641	849.6	175.6	90.5	2.4	3.6	0.88	51.61	1.9793	402.2768
12564	1509398564	54.7575	-110.5629	849.3	175.3	90.7	2.0	3.6	0.88	51.61	1.9794	400.8590
12565	1509398565	54.7575	-110.5618	849.6	175.6	89.6	1.5	2.6	0.88	51.61	1.9788	400.3912
12566	1509398566	54.7575	-110.5606	850.1	176.1	89.7	1.2	3.1	0.88	51.61	1.9795	400.6987
12567	1509398567	54.7576	-110.5595	850.8	175.8	90.1	1.5	3.7	0.88	51.61	1.9802	401.0062
12568	1509398568	54.7576	-110.5583	851.5	175.5	89.6	1.9	3.3	0.88	51.61	1.9809	401.3137
12569	1509398569	54.7576	-110.5572	851.9	175.9	89.8	2.3	3.5	0.88	51.61	1.9807	401.9756
12570	1509398570	54.7577	-110.5560	852.7	175.7	89.0	2.7	2.8	0.88	51.61	1.9792	400.3652
12571	1509398571	54.7577	-110.5549	853.1	175.1	89.1	1.9	3.2	0.88	51.61	1.9800	401.2986
12572	1509398572	54.7577	-110.5537	852.9	174.9	89.2	1.6	3.1	0.88	51.61	1.9790	401.7424
12573	1509398573	54.7578	-110.5525	853.0	175.2	89.7	1.9	3.4	0.88	51.61	1.9799	401.2136
12574	1509398574	54.7578	-110.5514	853.3	175.3	89.7	2.4	3.3	0.88	51.61	1.9804	400.7206
12575	1509398575	54.7578	-110.5509	853.2	174.9	90.0	2.7	3.6	0.88	51.61	1.9794	400.5615
12576	1509398576	54.7578	-110.5506	853.1	174.1	90.3	2.9	3.8	0.88	51.61	1.9792	400.7261
12577	1509398577	54.7578	-110.5498	853.2	174.2	90.1	2.4	3.3	0.88	51.61	1.9797	401.2260
12578	1509398578	54.7579	-110.5484	853.9	175.9	90.3	2.4	3.6	0.88	51.61	1.9797	401.2325
12579	1509398579	54.7579	-110.5471	854.3	176.3	90.6	2.4	3.8	0.88	51.61	1.9780	401.3671
12580	1509398580	54.7579	-110.5458	854.1	176.1	90.5	2.6	3.9	0.88	51.61	1.9788	400.9674
12581	1509398581	54.7580	-110.5444	853.3	175.3	90.8	2.8	4.1	0.88	51.61	1.9799	402.5724
12582	1509398582	54.7580	-110.5430	852.5	174.5	90.8	2.5	4.0	0.88	51.61	1.9807	400.7617
12583	1509398583	54.7580	-110.5416	850.6	172.6	90.5	2.9	3.3	0.88	51.61	1.9953	402.1473
12584	1509398584	54.7581	-110.5403	847.7	169.4	91.2	2.8	3.6	0.88	51.61	2.0023	401.9769
12585	1509398585	54.7581	-110.5389	845.5	166.4	90.7	2.3	2.5	0.88	51.61	1.9978	401.5538
12586	1509398586	54.7581	-110.5375	843.5	165.2	91.5	2.0	3.0	0.88	51.61	1.9943	402.6668
12587	1509398587	54.7581	-110.5362	841.6	163.2	91.8	2.2	3.2	0.88	51.61	1.9901	401.1328
12588	1509398588	54.7581	-110.5350	839.9	161.9	92.4	2.4	3.6	0.88	51.61	1.9899	401.1034
12589	1509398589	54.7581	-110.5338	837.9	159.6	92.3	2.7	3.5	0.88	51.61	1.9935	401.1464
12590	1509398590	54.7581	-110.5326	836.2	157.2	92.8	3.0	3.4	0.88	51.61	1.9989	401.9111
12591	1509398591	54.7581	-110.5314	835.0	155.0	92.6	2.6	2.8	0.88	51.61	1.9918	401.9215
12592	1509398592	54.7581	-110.5301	834.1	153.5	93.2	2.3	3.2	0.88	51.61	1.9887	402.2171
12593	1509398593	54.7581	-110.5289	832.7	151.7	94.0	2.5	3.9	0.88	51.61	1.9995	400.6605
12594	1509398594	54.7581	-110.5277	831.2	149.0	94.7	2.7	4.5	0.88	51.61	2.0011	400.5516
12595	1509398595	54.7581	-110.5265	829.9	147.9	94.3	2.4	3.9	0.88	51.61	2.0026	401.3109
12596	1509398596	54.7580	-110.5253	828.4	146.4	93.6	2.0	3.2	0.88	51.61	2.0049	401.1730
12597	1509398597	54.7580	-110.5240	826.9	145.9	93.5	2.3	3.2	0.88	51.61	2.0064	402.7455
12598	1509398598	54.7580	-110.5228	825.5	143.5	92.8	2.6	3.0	0.88	51.61	2.0038	401.3715
12599	1509398599	54.7580	-110.5216	824.3	142.3	93.0	2.5	3.5	0.88	51.61	1.9952	401.2348
12600	1509398600	54.7580	-110.5203	822.8	139.8	92.6	2.1	3.4	0.88	51.61	1.9905	401.1788
12601	1509398601	54.7580	-110.5191	821.1	137.1	93.2	1.7	3.8	0.88	51.61	1.9901	400.8097
12602	1509398602	54.7580	-110.5179	819.9	138.9	93.4	1.5	3.9	0.88	51.61	1.9875	401.5346
12603	1509398603	54.7580	-110.5167	818.6	146.4	93.1	1.6	3.1	0.88	51.61	1.9808	402.0525
12604	1509398604	54.7580	-110.5154	817.9	156.9	93.4	1.6	3.5	0.88	51.61	1.9785	400.9864
12605	1509398605	54.7580	-110.5142	817.7	162.1	93.4	1.7	3.5	0.88	51.61	1.9782	401.0296
12606	1509398606	54.7580	-110.5130	817.8	163.8	92.9	2.1	3.0	0.88	51.61	1.9758	401.1013
12607	1509398607	54.7580	-110.5118	817.5	161.4	92.8	2.1	3.2	0.88	51.61	1.9752	401.5054
12608	1509398608	54.7580	-110.5105	816.1	158.1	93.4	2.2	3.8	0.88	51.61	1.9746	401.4706
12609	1509398609	54.7580	-110.5093	815.4	152.0	93.4	2.3	3.9	0.88	51.61	1.9749	401.2029
12610	1509398610	54.7579	-110.5080	815.0	142.0	94.2	2.3	4.7	0.88	51.61	1.9763	401.2690
12611	1509398611	54.7579	-110.5068	814.5	134.1	93.6	2.2	3.8	0.88	51.61	1.9776	401.7504
12612	1509398612	54.7579	-110.5055	813.8	130.1	94.0	1.8	4.4	0.88	51.61	1.9752	400.5723
12613	1509398613	54.7579	-110.5043	813.3	127.4	93.4	1.6	3.7	0.88	51.61	1.9719	400.7709
12614	1509398614	54.7579	-110.5031	812.9	126.1	93.1	0.6	3.2	0.88	51.61	1.9738	401.6113
12615	1509398615	54.7579	-110.5018	812.0	124.7	93.1	0.7	3.0	0.88	51.61	1.9725	403.5387
12616	1509398616	54.7579	-110.5006	811.0	123.0	93.9	1.2	3.6	0.88	51.61	1.9707	400.1672
12617	1509398617	54.7579	-110.4994	810.9	121.0	93.4	1.6	2.6	0.88	51.61	1.9709	401.1847
12618	1509398618	54.7578	-110.4981	811.3	122.4	94.0	1.5	3.2	0.88	51.61	1.9717	401.5475
12619	1509398619	54.7578	-110.4970	812.2	124.2	94.0	1.3	3.1	0.88	51.61	1.9709	401.2738
12620	1509398620	54.7578	-110.4957	816.0	128.9	94.3	1.1	3.6	0.88	51.61	1.9704	401.8263
12621	1509398621	54.7578	-110.4944	821.8	134.7	94.0	0.9	2.8	0.88	51.61	1.9711	402.2814
12622	1509398622	54.7578	-110.4932	826.3	138.6	94.1	1.0	2.9	0.88	51.61	1.9701	401.3445
12623	1509398623	54.7577	-110.4920	829.6	141.0	94.7	1.7	3.5	0.88	51.61	1.9709	401.0545
12624	1509398624	54.7577	-110.4908	832.1	143.3	94.2	1.6	3.4	0.88	51.61	1.9699	401.2826
12625	1509398625	54.7577	-110.4896	833.2	145.3	94.4	2.0	4.1	0.88	51.61	1.9682	401.4572
12626	1509398626	54.7577	-110.4885	833.6	146.1	93.5	2.0	3.3	0.88	51.61	1.9676	401.4348
12627	1509398627	54.7577	-110.4873	833.0	146.2	94.0	2.1	3.8	0.88	51.61	1.9675	401.4348
12628	1509398628	54.7577	-110.4861	833.0	147.3	93.5	1.6	2.9	0.88	51.61	1.9674	401.4348
12629	1509398629	54.7576	-110.4849	833.1	149.4	94.0	1.6	3.6	0.88	51.61	1.9673	401.4348
12630	1509398630	54.7576	-110.4837	832.6	149.9	94.7	2.2	4.3	0.88	51.61	1.9677	401.7051
12631	1509398631	54.7576	-110.4825	832.9	149.5	94.7	2.1	4.1	0.88	51.61	1.9686	401.8555
12632	1509398632	54.7576	-110.4814	835.0	150.3	94.1	2.2	3.6	0.88	51.61	1.9676	401.5877
12633	1509398633	54.7576	-110.4801	837.2	152.3	94.2	2.2	3.9	0.88	51.61	1.9696	402.9686
12634	1509398634	54.7576	-110.4790	838.6	153.7	93.8	2.2	3.5	0.88	51.61	1.9704	402.9210
12635	1509398635	54.7576	-110.4785	839.0	153.2	93.6	2.2	3.3	0.88	51.61	1.9703	403.2782
12636	1509398636	54.7576	-110.4783	839.0	153.3	93.5	2.4	3.2	0.88	51.61	1.9698	402.1617
12637	1509398637	54.7576	-110.4782	839.1	153.5	93.5	2.5	3.1	0.88	51.61	1.9691	403.0028
12638	1509398638	54.7576	-110.4778	839.3	153.2	93.5	3.0	3.1	0.88	51.61	1.9695	404.8757
12639	1509398639	54.7575	-110.4765	839.5	152.4	94.2	2.2	3.9	0.88	51.61	1.9700	404.6101
12640	1509398640	54.7575	-110.4751	840.0	152.0	94.1	1.5	4.4	0.88	51.61	1.9705	404.9276
12641	1509398641	54.7575	-110.4737	840.4	151.4	93.8	1.9	4.8	0.88	51.61	1.9705	404.9276
12642	1509398642	54.7575	-110.4723	840.3	152.3	93.2	2.2	4.7	0.88	51.61	1.9723	406.6604
12643	1509398643	54.7575	-110.4709	840.3	153.4	92.3	2.5	3.7	0.88	51.61	1.9726	406.6604
12644	1509398644	54.7575	-110.4695	841.1	154.0	92.7	2.9	3.8	0.88	51.61	1.9715	404.4402
12645	1509398645	54.7575	-110.4682	843.1	156.1	92.9	2.6	3.8	0.88	51.61	1.9717	403.8206
12646	1509398646	54.7575	-110.4668	844.7	158.0	93.5	2.5	4.1	0.88	51.61	1.9729	404.5139
12647	1509398647	54.7575	-110.4655	846.0	158.3	93.2	2.7	3.6	0.88	51.61	1.9743	407.4593
12648	1509398648	54.7575	-110.4641	846.1	158.0	94.2	3.1	4.3	0.88	51.61	1.9751	407.2984
12649	1509398649	54.7575	-110.4628	845.9	159.0	93.8	3.1	3.7	0.88	51.61	1.9758	408.0337
12650	1509398650	54.7575	-110.4614	845.9	162.6	93.3	3.0	2.9	0.88	51.61	1.9754	407.8205
12651	1509398651	54.7575	-110.4600	846.3	165.2	92.4	3.1	2.4	0.88	51.61	1.9743	406.1392
12652	1509398652	54.7575	-110.4586	846.2	166.8	92.2	3.1	2.5	0.88	51.61	1.9738	405.9742
12653	1509398653	54.7575	-110.4572	845.5	168.0	92.4	3.4	3.1	0.88	51.61	1.9750	406.7807
12654	1509398654	54.7575	-110.4559	845.0	168.7	93.0	3.5	3.7	0.88	51.61	1.9770	406.9131
12655	1509398655	54.7575	-110.4545	845.9	170.6	93.2	3.4	4.2	0.88	51.61	1.9751	406.2746
12656	1509398656	54.7575	-110.4531	847.7	172.6	92.8	3.2	3.8	0.88	51.61	1.9730	405.4320
12657	1509398657	54.7575	-110.4517	850.7	176.9	92.6	2.4	3.7	0.88	51.61	1.9733	405.5087
12658	1509398658	54.7575	-110.4505	853.5	181.1	93.2	2.7	4.4	0.88	51.61	1.9743	406.8856
12659	1509398659	54.7575	-110.4493	856.3	183.7	92.7	2.8	3.8	0.88	51.61	1.9741	403.7670
12660	1509398660	54.7575	-110.4481	860.1	185.6	92.4	2.3	3.7	0.88	51.61	1.9732	405.5882
12661	1509398661	54.7575	-110.4470	864.2	186.5	91.9	2.9	3.6	0.88	51.61	1.9729	405.3655
12662	1509398662	54.7575	-110.4459	867.7	190.2	91.9	3.1	3.9	0.88	51.61	1.9728	406.0670
12663	1509398663	54.7575	-110.4447	871.4	197.3	91.3	2.9	3.7	0.88	51.61	1.9731	408.1038
12664	1509398664	54.7576	-110.4435	874.6	204.8	91.1	3.0	3.6	0.88	51.61	1.9734	407.7343
12665	1509398665	54.7576	-110.4424	877.9	208.4	90.2	2.8	2.5	0.88	51.61	1.9738	406.6208
12666	1509398666	54.7576	-110.4413	880.6	210.7	90.5	2.7	3.0	0.88	51.61	1.9748	408.4945
12667	1509398667	54.7576	-110.4401	882.1	211.2	91.6	2.6	3.7	0.88	51.61	1.9754	408.8308
12668	1509398668	54.7576	-110.4390	883.1	213.5	91.9	3.1	3.5	0.88	51.61	1.9732	408.8308
12669	1509398669	54.7576	-110.4378	882.5	214.9	92.3	3.6	3.6	0.88	51.61	1.9733	406.2916
12670	1509398670	54.7576	-110.4367	878.5	212.9	92.8	3.7	3.9	0.88	51.61	1.9670	407.7995
12671	1509398671	54.7576	-110.4355	870.7	207.1	93.2	3.8	3.7	0.88	51.61	1.9666	406.9384
12672	1509398672	54.7576	-110.4343	862.4	201.3	92.6	3.4	2.1	0.88	51.61	1.9675	407.1739
12673	1509398673	54.7576	-110.4331	854.9	196.1	93.4	3.0	2.7	0.88	51.61	1.9669	407.1739
12674	1509398674	54.7576	-110.4319	848.0	191.6	94.9	2.9	3.5	0.88	51.61	1.9680	406.9325
12675	1509398675	54.7576	-110.4307	843.3	189.1	95.4	2.9	3.2	0.88	51.61	1.9673	406.8091
12676	1509398676	54.7575	-110.4295	841.6	189.7	96.3	2.8	3.7	0.88	51.61	1.9673	407.6786
12677	1509398677	54.7575	-110.4283	841.4	192.9	96.4	2.9	3.4	0.88	51.61	1.9657	406.3385
12678	1509398678	54.7574	-110.4270	840.0	194.0	96.9	2.9	3.8	0.88	51.61	1.9671	406.0632
12679	1509398679	54.7574	-110.4258	837.1	192.1	97.5	3.2	4.6	0.88	51.61	1.9677	407.0395
12680	1509398680	54.7573	-110.4246	835.0	190.0	96.9	3.5	4.2	0.88	51.61	1.9667	408.2400
12681	1509398681	54.7573	-110.4233	834.2	189.2	95.4	3.0	3.6	0.88	51.61	1.9668	407.9206
12682	1509398682	54.7573	-110.4221	834.3	190.0	93.6	2.3	3.1	0.88	51.61	1.9674	406.6573
12683	1509398683	54.7573	-110.4209	836.0	192.8	92.2	1.7	3.0	0.88	51.61	1.9675	406.7334
12684	1509398684	54.7573	-110.4196	837.9	195.7	91.6	1.9	2.8	0.88	51.61	1.9669	406.2539
12685	1509398685	54.7573	-110.4184	838.4	196.1	91.4	2.2	3.5	0.88	51.61	1.9673	405.7218
12686	1509398686	54.7573	-110.4171	838.9	195.8	92.0	3.0	4.6	0.88	51.61	1.9673	405.1334
12687	1509398687	54.7573	-110.4159	838.9	195.6	91.2	2.9	3.9	0.88	51.61	1.9672	405.1334
12688	1509398688	54.7573	-110.4146	839.0	196.0	91.0	2.8	3.8	0.88	51.61	1.9671	405.1334
12689	1509398689	54.7574	-110.4134	838.0	194.9	91.5	3.0	4.1	0.88	51.61	1.9670	405.1334
12690	1509398690	54.7574	-110.4122	835.2	192.8	91.1	3.1	3.3	0.88	51.61	1.9661	405.4464
12691	1509398691	54.7574	-110.4109	831.6	190.3	91.9	2.6	3.7	0.88	51.61	1.9667	402.6580
12692	1509398692	54.7574	-110.4097	828.4	189.0	92.0	2.9	3.0	0.88	51.61	1.9663	404.4100
12693	1509398693	54.7574	-110.4084	825.5	188.3	92.8	2.7	3.1	0.88	51.61	1.9661	405.0710
12694	1509398694	54.7574	-110.4071	823.8	188.5	93.4	2.8	2.9	0.88	51.61	1.9658	404.7107
12695	1509398695	54.7574	-110.4067	823.4	188.3	93.5	2.7	2.7	0.88	51.61	1.9660	404.8087
12696	1509398696	54.7574	-110.4065	823.3	188.7	93.6	2.6	2.8	0.88	51.61	1.9665	404.1356
12697	1509398697	54.7574	-110.4063	823.2	189.3	93.7	2.4	2.8	0.88	51.61	1.9645	403.5841
12698	1509398698	54.7574	-110.4060	823.2	189.4	94.0	2.3	2.9	0.88	51.61	1.9631	404.1667
12699	1509398699	54.7573	-110.4045	823.9	191.9	94.7	2.0	2.7	0.88	51.61	1.9646	403.2974
12700	1509398700	54.7573	-110.4031	823.9	192.4	94.5	2.3	1.9	0.88	51.61	1.9646	403.5872
12701	1509398701	54.7572	-110.4016	823.3	192.3	95.9	2.0	3.7	0.88	51.61	1.9640	403.9012
12702	1509398702	54.7572	-110.4002	822.2	190.2	95.3	2.0	3.0	0.88	51.61	1.9625	405.1111
12703	1509398703	54.7572	-110.3987	821.2	189.2	96.0	1.7	4.8	0.88	51.61	1.9629	405.1111
12704	1509398704	54.7571	-110.3973	820.5	187.5	94.7	1.5	4.1	0.88	51.61	1.9624	403.7235
12705	1509398705	54.7571	-110.3958	818.7	183.8	93.4	1.6	3.5	0.88	51.61	1.9619	403.8877
12706	1509398706	54.7571	-110.3944	816.3	178.2	91.9	1.6	2.1	0.88	51.61	1.9626	403.4402
12707	1509398707	54.7571	-110.3929	814.3	173.3	92.2	2.1	2.5	0.88	51.61	1.9637	404.1625
12708	1509398708	54.7571	-110.3914	812.7	169.8	92.8	2.4	3.4	0.88	51.61	1.9650	403.7480
12709	1509398709	54.7571	-110.3900	812.1	167.1	93.0	2.1	3.1	0.88	51.61	1.9649	402.7548
12710	1509398710	54.7571	-110.3885	811.5	166.5	94.2	2.1	4.8	0.88	51.61	1.9645	404.0302
12711	1509398711	54.7571	-110.3870	811.7	166.7	93.4	2.1	3.5	0.88	51.61	1.9638	403.2789
12712	1509398712	54.7571	-110.3856	811.8	165.8	92.7	2.3	2.7	0.88	51.61	1.9621	403.5951
12713	1509398713	54.7570	-110.3842	811.6	165.6	92.6	2.5	2.6	0.88	51.61	1.9622	404.3566
12714	1509398714	54.7570	-110.3827	810.3	164.3	92.8	2.4	3.2	0.88	51.61	1.9612	402.3758
12715	1509398715	54.7570	-110.3813	809.1	163.1	93.1	2.1	3.6	0.88	51.61	1.9631	404.3084
12716	1509398716	54.7570	-110.3798	808.0	162.0	92.9	2.1	3.8	0.88	51.61	1.9643	404.3084
12717	1509398717	54.7570	-110.3784	807.1	160.1	92.9	2.1	4.1	0.88	51.61	1.9635	403.7394
12718	1509398718	54.7570	-110.3770	806.4	159.4	91.9	2.1	3.2	0.88	51.61	1.9627	403.7262
12719	1509398719	54.7570	-110.3757	805.8	157.8	91.8	2.0	3.1	0.88	51.61	1.9611	403.7339
12720	1509398720	54.7570	-110.3745	805.6	157.6	90.4	2.1	1.3	0.88	51.61	1.9616	404.2438
12721	1509398721	54.7570	-110.3731	805.3	158.0	91.3	2.1	2.5	0.88	51.61	1.9615	404.2586
12722	1509398722	54.7570	-110.3719	804.6	157.6	92.1	2.3	3.3	0.88	51.61	1.9617	403.2805
12723	1509398723	54.7571	-110.3706	804.1	157.1	92.8	2.9	4.0	0.88	51.61	1.9613	403.5808
12724	1509398724	54.7571	-110.3693	803.6	157.6	93.2	3.3	4.3	0.88	51.61	1.9617	403.3912
12725	1509398725	54.7571	-110.3681	803.2	157.2	93.0	3.2	4.3	0.88	51.61	1.9600	404.6234
12726	1509398726	54.7571	-110.3668	803.1	156.1	92.3	3.1	3.8	0.88	51.61	1.9596	403.2650
12727	1509398727	54.7571	-110.3656	802.8	155.9	91.9	2.6	3.5	0.88	51.61	1.9596	404.9138
12728	1509398728	54.7571	-110.3643	802.1	153.0	91.2	2.7	2.8	0.88	51.61	1.9598	403.7563
12729	1509398729	54.7571	-110.3631	800.3	150.3	92.1	3.3	3.6	0.88	51.61	1.9601	404.0546
12730	1509398730	54.7571	-110.3618	798.9	147.9	91.9	3.3	3.3	0.88	51.61	1.9607	404.7485
12731	1509398731	54.7571	-110.3606	797.9	146.9	92.7	3.3	4.2	0.88	51.61	1.9607	403.5363
12732	1509398732	54.7571	-110.3593	797.2	145.2	92.4	3.0	3.8	0.88	51.61	1.9600	403.7112
12733	1509398733	54.7571	-110.3580	796.7	144.7	93.1	3.4	4.6	0.88	51.61	1.9604	405.1480
12734	1509398734	54.7571	-110.3568	797.1	145.1	92.5	3.2	3.6	0.88	51.61	1.9606	405.5051
12735	1509398735	54.7571	-110.3555	798.0	147.0	91.6	3.5	2.3	0.88	51.61	1.9598	405.3006
12736	1509398736	54.7571	-110.3542	798.5	148.5	92.5	3.9	3.7	0.88	51.61	1.9600	405.8445
12737	1509398737	54.7571	-110.3530	799.8	149.8	92.4	3.1	3.4	0.88	51.61	1.9597	405.5856
12738	1509398738	54.7571	-110.3518	801.7	151.7	91.5	2.3	2.4	0.88	51.61	1.9602	405.5856
12739	1509398739	54.7571	-110.3505	803.0	153.0	92.5	2.7	3.4	0.88	51.61	1.9600	405.6614
12740	1509398740	54.7571	-110.3492	803.9	154.2	92.5	3.0	3.5	0.88	51.61	1.9626	404.6863
12741	1509398741	54.7571	-110.3480	806.5	157.5	92.3	2.6	3.0	0.88	51.61	1.9607	405.7609
12742	1509398742	54.7571	-110.3468	810.3	161.3	92.8	2.6	3.4	0.88	51.61	1.9625	406.4246
12743	1509398743	54.7571	-110.3455	813.6	163.6	92.6	2.6	2.8	0.88	51.61	1.9614	406.2502
12744	1509398744	54.7571	-110.3443	816.0	165.0	93.1	2.1	3.5	0.88	51.61	1.9607	406.8322
12745	1509398745	54.7571	-110.3431	817.2	166.2	92.9	1.9	3.5	0.88	51.61	1.9615	405.8037
12746	1509398746	54.7571	-110.3419	818.3	167.3	92.3	2.1	3.4	0.88	51.61	1.9631	405.0457
12747	1509398747	54.7571	-110.3407	819.7	168.7	91.8	2.4	3.4	0.88	51.61	1.9631	405.0457
12748	1509398748	54.7571	-110.3395	820.6	170.6	92.1	2.8	4.1	0.88	51.61	1.9630	405.0457
12749	1509398749	54.7571	-110.3383	821.5	172.5	92.0	2.9	4.2	0.88	51.61	1.9630	405.0457
12750	1509398750	54.7571	-110.3371	822.1	172.1	91.6	2.8	3.8	0.88	51.61	1.9629	405.0457
12751	1509398751	54.7572	-110.3358	822.6	172.6	91.5	2.4	3.7	0.88	51.61	1.9629	405.0457
12752	1509398752	54.7572	-110.3346	823.1	173.1	91.1	2.3	3.2	0.88	51.61	1.9628	405.0457
12753	1509398753	54.7572	-110.3335	823.9	173.9	90.7	2.2	2.5	0.88	51.61	1.9628	405.4100
12754	1509398754	54.7572	-110.3323	825.3	176.0	90.6	1.8	2.1	0.88	51.61	1.9630	407.8632
12755	1509398755	54.7572	-110.3319	825.6	176.6	90.5	1.8	2.0	0.88	51.61	1.9638	407.4039
12756	1509398756	54.7572	-110.3318	825.7	176.7	90.5	1.8	1.9	0.88	51.61	1.9626	406.6308
12757	1509398757	54.7572	-110.3317	825.8	176.8	90.5	1.8	1.9	0.88	51.61	1.9642	406.3197
12758	1509398758	54.7572	-110.3316	825.9	176.9	90.5	1.8	1.9	0.88	51.61	1.9651	407.1504
12759	1509398759	54.7572	-110.3315	826.0	177.0	90.5	1.8	1.8	0.88	51.61	1.9693	411.9410
12760	1509398760	54.7572	-110.3315	826.1	177.1	90.5	1.8	1.8	0.88	51.61	1.9706	413.7243
12761	1509398761	54.7572	-110.3314	826.2	177.2	90.5	1.8	1.8	0.88	51.61	1.9707	414.2325
12762	1509398762	54.7572	-110.3303	827.5	178.5	90.8	2.8	2.2	0.88	51.61	1.9713	415.3493
12763	1509398763	54.7572	-110.3290	828.6	179.3	91.9	2.7	3.5	0.88	51.61	1.9684	413.7068
12764	1509398764	54.7572	-110.3276	829.5	180.2	91.7	2.0	3.6	0.88	51.61	1.9695	413.3939
12765	1509398765	54.7573	-110.3262	830.5	181.2	91.2	1.6	3.3	0.88	51.61	1.9702	411.5961
12766	1509398766	54.7573	-110.3248	830.2	180.9	91.9	2.1	4.3	0.88	51.61	1.9692	412.2266
12767	1509398767	54.7573	-110.3234	829.0	179.7	91.8	1.8	4.5	0.88	51.61	1.9697	411.4294
12768	1509398768	54.7573	-110.3220	827.1	177.1	92.0	2.0	4.8	0.88	51.61	1.9692	410.9451
12769	1509398769	54.7573	-110.3206	826.4	176.4	91.1	2.5	4.0	0.88	51.61	1.9682	410.1227
12770	1509398770	54.7574	-110.3192	825.7	176.7	91.0	2.6	4.2	0.88	51.61	1.9667	408.6317
12771	1509398771	54.7574	-110.3178	825.2	177.2	89.9	2.2	3.3	0.88	51.61	1.9651	406.4067
12772	1509398772	54.7574	-110.3164	824.6	177.6	89.3	2.3	2.8	0.88	51.61	1.9653	407.7046
12773	1509398773	54.7575	-110.3150	824.7	177.1	88.4	2.4	2.0	0.88	51.61	1.9653	407.6043
12774	1509398774	54.7575	-110.3136	824.4	176.4	89.2	2.9	2.6	0.88	51.61	1.9634	408.2161
12775	1509398775	54.7576	-110.3122	824.1	177.1	89.8	2.6	3.1	0.88	51.61	1.9641	408.2161
12776	1509398776	54.7576	-110.3108	823.5	176.5	90.4	2.2	3.3	0.88	51.61	1.9652	410.8920
12777	1509398777	54.7576	-110.3094	823.2	176.2	90.6	2.5	3.5	0.88	51.61	1.9638	410.8700
12778	1509398778	54.7576	-110.3079	823.2	177.2	90.0	2.4	3.1	0.88	51.61	1.9648	408.2893
12779	1509398779	54.7577	-110.3066	822.6	178.7	90.1	2.6	3.6	0.88	51.61	1.9635	406.3553
12780	1509398780	54.7577	-110.3052	821.6	179.2	89.6	2.5	3.0	0.88	51.61	1.9620	406.3533
12781	1509398781	54.7578	-110.3038	821.3	181.3	89.3	2.3	2.7	0.88	51.61	1.9650	406.0477
12782	1509398782	54.7578	-110.3024	819.8	181.7	89.1	2.6	2.1	0.88	51.61	1.9636	405.8229
12783	1509398783	54.7578	-110.3010	817.4	182.7	89.5	2.5	0.7	0.88	51.61	1.9653	406.1031
12784	1509398784	54.7578	-110.2995	814.1	182.1	93.8	2.4	1.5	0.88	51.61	1.9650	404.8122
12785	1509398785	54.7577	-110.2982	809.3	181.8	101.3	2.5	2.5	0.88	51.61	1.9657	404.7323
12786	1509398786	54.7575	-110.2968	804.8	179.8	109.6	2.2	2.7	0.88	51.61	1.9671	404.0651
12787	1509398787	54.7572	-110.2955	802.3	180.0	117.5	1.4	1.9	0.88	51.61	1.9682	404.5683
12788	1509398788	54.7568	-110.2943	800.3	179.3	126.0	1.4	2.8	0.88	51.61	1.9676	405.0206
12789	1509398789	54.7564	-110.2932	797.2	175.2	133.8	1.2	3.2	0.88	51.61	1.9695	405.0206
12790	1509398790	54.7558	-110.2922	792.5	169.9	141.4	1.0	3.5	0.88	51.61	1.9686	405.1764
12791	1509398791	54.7552	-110.2914	786.1	162.6	148.3	1.5	3.7	0.88	51.61	1.9674	404.0684
12792	1509398792	54.7545	-110.2907	780.0	156.2	155.1	2.3	3.7	0.88	51.61	1.9691	404.6252
12793	1509398793	54.7537	-110.2901	775.1	152.2	158.8	0.5	3.1	0.88	51.61	1.9704	405.2046
12794	1509398794	54.7530	-110.2896	769.7	147.5	164.1	1.6	3.5	0.88	51.61	1.9696	404.7125
12795	1509398795	54.7522	-110.2893	764.8	144.2	170.7	1.8	2.8	0.88	51.61	1.9695	404.4486
12796	1509398796	54.7514	-110.2891	762.7	142.7	176.0	1.6	2.6	0.88	51.61	1.9691	404.3605
12797	1509398797	54.7506	-110.2890	762.7	143.2	179.7	1.1	2.4	0.88	51.61	1.9703	404.3997
12798	1509398798	54.7498	-110.2890	764.9	144.9	182.4	1.1	2.3	0.88	51.61	1.9713	404.5335
12799	1509398799	54.7490	-110.2891	768.3	147.8	183.9	1.8	2.8	0.88	51.61	1.9728	404.1075
12800	1509398800	54.7482	-110.2891	774.2	153.8	183.2	1.4	3.7	0.88	51.61	1.9731	404.5294
12801	1509398801	54.7474	-110.2892	780.4	160.4	183.3	2.0	3.5	0.88	51.61	1.9727	403.5703
12802	1509398802	54.7467	-110.2892	786.4	167.1	182.9	1.6	3.1	0.88	51.61	1.9754	404.0129
12803	1509398803	54.7460	-110.2893	790.0	171.0	182.3	0.9	2.4	0.88	51.61	1.9757	404.0167
12804	1509398804	54.7453	-110.2893	792.0	174.0	182.5	1.4	2.4	0.88	51.61	1.9747	403.7660
12805	1509398805	54.7447	-110.2893	793.3	175.2	182.7	1.6	2.6	0.88	51.61	1.9749	404.9026
12806	1509398806	54.7441	-110.2894	794.2	177.2	183.2	2.2	2.6	0.88	51.61	1.9760	401.3679
12807	1509398807	54.7434	-110.2894	795.3	178.3	183.6	2.4	2.8	0.88	51.61	1.9764	401.3679
12808	1509398808	54.7427	-110.2894	796.8	179.8	183.3	2.0	3.0	0.88	51.61	1.9767	401.3679
12809	1509398809	54.7421	-110.2895	798.3	181.3	183.0	1.8	3.2	0.88	51.61	1.9770	401.3679
12810	1509398810	54.7414	-110.2895	799.3	182.3	183.1	2.2	3.6	0.88	51.61	1.9790	402.4910
12811	1509398811	54.7408	-110.2895	799.9	182.9	183.2	2.5	3.8	0.88	51.61	1.9766	403.9409
12812	1509398812	54.7401	-110.2896	800.4	184.5	183.1	2.3	3.9	0.88	51.61	1.9786	402.2549
12813	1509398813	54.7395	-110.2896	801.1	185.1	182.5	1.7	4.1	0.88	51.61	1.9764	402.6556
12814	1509398814	54.7389	-110.2896	801.8	185.8	183.2	2.4	4.1	0.88	51.61	1.9750	403.1336
12815	1509398815	54.7386	-110.2896	802.0	186.0	183.2	2.5	4.1	0.88	51.61	1.9757	402.9693
12816	1509398816	54.7385	-110.2896	802.1	186.1	183.2	2.4	4.1	0.88	51.61	1.9756	402.6738
12817	1509398817	54.7384	-110.2896	802.2	186.2	183.2	2.4	4.1	0.88	51.61	1.9766	402.7866
12818	1509398818	54.7382	-110.2896	802.2	186.2	183.3	2.5	4.1	0.88	51.61	1.9761	402.9163
12819	1509398819	54.7375	-110.2897	800.5	184.5	183.8	3.2	4.1	0.88	51.61	1.9771	402.9163
12820	1509398820	54.7367	-110.2897	797.3	181.0	183.1	2.7	4.0	0.88	51.61	1.9783	402.6436
12821	1509398821	54.7360	-110.2897	792.9	175.9	183.0	3.3	3.7	0.88	51.61	1.9770	401.6537
12822	1509398822	54.7352	-110.2897	788.2	171.2	182.1	2.9	3.7	0.88	51.61	1.9768	401.6220
12823	1509398823	54.7345	-110.2897	784.3	167.3	181.5	2.4	3.8	0.88	51.61	1.9776	401.8900
12824	1509398824	54.7337	-110.2897	780.2	163.2	180.8	1.2	3.8	0.88	51.61	1.9751	402.9593
12825	1509398825	54.7330	-110.2897	775.4	159.4	182.2	2.2	3.6	0.88	51.61	1.9761	402.6270
12826	1509398826	54.7322	-110.2897	772.3	157.3	181.9	1.5	3.3	0.88	51.61	1.9754	401.0925
12827	1509398827	54.7314	-110.2898	769.6	155.6	183.5	3.2	2.8	0.88	51.61	1.9734	402.2230
12828	1509398828	54.7306	-110.2898	768.2	155.2	182.1	1.2	2.4	0.88	51.61	1.9759	402.1874
12829	1509398829	54.7299	-110.2898	767.4	154.4	183.2	1.9	2.4	0.88	51.61	1.9792	401.7343
12830	1509398830	54.7291	-110.2899	767.3	154.3	183.4	1.6	2.4	0.88	51.61	1.9755	401.5305
12831	1509398831	54.7283	-110.2899	767.0	154.0	184.5	1.9	1.9	0.88	51.61	1.9748	402.3813
12832	1509398832	54.7275	-110.2900	766.7	153.7	184.6	1.6	2.4	0.88	51.61	1.9738	402.3813
12833	1509398833	54.7268	-110.2901	767.0	152.9	184.7	1.7	2.9	0.88	51.61	1.9722	401.3044
12834	1509398834	54.7260	-110.2902	767.4	152.8	184.6	1.9	3.0	0.88	51.61	1.9726	401.7259
12835	1509398835	54.7252	-110.2903	768.2	153.2	183.4	1.4	3.3	0.88	51.61	1.9733	402.3582
12836	1509398836	54.7244	-110.2903	768.5	153.5	182.6	1.5	2.9	0.88	51.61	1.9734	401.9380
12837	1509398837	54.7237	-110.2903	768.6	153.6	181.8	1.3	3.0	0.88	51.61	1.9718	401.5764
12838	1509398838	54.7229	-110.2904	768.7	153.7	182.2	1.8	2.5	0.88	51.61	1.9709	401.6591
12839	1509398839	54.7221	-110.2904	769.1	154.1	182.0	1.2	2.5	0.88	51.61	1.9700	402.7299
12840	1509398840	54.7214	-110.2904	769.3	154.3	182.4	1.6	3.0	0.88	51.61	1.9688	401.2007
12841	1509398841	54.7208	-110.2904	768.9	154.9	182.9	2.0	3.5	0.88	51.61	1.9692	402.1618
12842	1509398842	54.7201	-110.2905	768.7	155.7	183.7	2.5	3.7	0.88	51.61	1.9692	401.7370
12843	1509398843	54.7194	-110.2905	769.4	156.4	183.8	2.2	3.6	0.88	51.61	1.9676	401.3747
12844	1509398844	54.7188	-110.2906	770.2	158.2	183.2	1.2	3.6	0.88	51.61	1.9669	403.2959
12845	1509398845	54.7181	-110.2906	770.5	159.6	183.3	1.4	3.7	0.88	51.61	1.9692	401.5958
12846	1509398846	54.7174	-110.2907	770.6	160.4	182.9	1.0	3.8	0.88	51.61	1.9668	401.5958
12847	1509398847	54.7168	-110.2907	770.6	160.6	183.3	1.5	3.4	0.88	51.61	1.9658	402.3831
12848	1509398848	54.7161	-110.2908	770.6	161.6	183.2	1.2	3.3	0.88	51.61	1.9648	402.6150
12849	1509398849	54.7154	-110.2908	770.4	161.4	183.4	1.5	3.3	0.88	51.61	1.9653	402.1492
12850	1509398850	54.7148	-110.2909	770.2	161.2	183.3	1.5	3.3	0.88	51.61	1.9657	402.4896
12851	1509398851	54.7141	-110.2909	769.5	160.5	183.7	2.1	3.3	0.88	51.61	1.9673	401.7044
12852	1509398852	54.7135	-110.2909	768.7	159.7	183.4	1.9	3.2	0.88	51.61	1.9677	403.1718
12853	1509398853	54.7128	-110.2910	767.9	159.9	183.0	1.5	2.9	0.88	51.61	1.9653	403.0344
12854	1509398854	54.7121	-110.2910	767.2	159.2	182.3	0.9	2.5	0.88	51.61	1.9660	402.2753
12855	1509398855	54.7114	-110.2910	766.7	158.7	182.0	1.0	2.5	0.88	51.61	1.9665	401.7145
12856	1509398856	54.7107	-110.2911	766.1	158.3	181.7	0.9	2.4	0.88	51.61	1.9670	402.7328
12857	1509398857	54.7101	-110.2911	765.4	158.0	181.5	1.0	2.3	0.88	51.61	1.9667	402.6492
12858	1509398858	54.7094	-110.2911	764.6	157.6	181.5	1.2	2.2	0.88	51.61	1.9673	403.1683
12859	1509398859	54.7087	-110.2911	764.1	157.1	180.9	0.5	2.1	0.88	51.61	1.9672	403.8998
12860	1509398860	54.7081	-110.2911	764.0	157.0	180.6	0.4	2.1	0.88	51.61	1.9669	403.2309
12861	1509398861	54.7074	-110.2911	763.7	156.7	180.8	0.8	2.2	0.88	51.61	1.9658	404.9253
12862	1509398862	54.7067	-110.2911	763.2	156.2	181.1	1.0	2.6	0.88	51.61	1.9668	403.8523
12863	1509398863	54.7060	-110.2911	763.5	156.5	181.4	1.3	2.3	0.88	51.61	1.9612	403.7742
12864	1509398864	54.7054	-110.2912	763.6	155.6	182.0	1.5	2.8	0.88	51.61	1.9614	403.7742
12865	1509398865	54.7047	-110.2912	763.8	155.8	182.2	1.5	2.9	0.88	51.61	1.9614	403.8152
12866	1509398866	54.7040	-110.2912	764.4	156.4	182.5	2.0	3.6	0.88	51.61	1.9611	403.8326
12867	1509398867	54.7034	-110.2912	765.1	157.1	181.7	1.1	3.8	0.88	51.61	1.9612	403.8326
12868	1509398868	54.7027	-110.2912	766.2	159.3	181.4	1.0	4.0	0.88	51.61	1.9613	403.8326
12869	1509398869	54.7020	-110.2912	767.2	160.2	182.1	2.1	4.2	0.88	51.61	1.9614	403.8326
12870	1509398870	54.7014	-110.2913	767.8	159.8	182.0	2.0	3.8	0.88	51.61	1.9601	403.8414
12871	1509398871	54.7007	-110.2913	768.1	160.1	182.0	2.0	3.9	0.88	51.61	1.9583	403.2468
12872	1509398872	54.7001	-110.2913	768.1	160.1	181.9	1.9	3.9	0.88	51.61	1.9589	403.8581
12873	1509398873	54.6994	-110.2913	767.9	159.9	182.3	2.4	3.4	0.88	51.61	1.9585	403.8581
12874	1509398874	54.6987	-110.2913	767.8	160.8	182.2	1.6	2.9	0.88	51.61	1.9591	404.2729
12875	1509398875	54.6985	-110.2913	767.8	160.8	182.0	1.3	3.0	0.88	51.61	1.9587	404.5484
12876	1509398876	54.6984	-110.2913	767.8	160.8	182.1	1.4	3.1	0.88	51.61	1.9598	403.9099
12877	1509398877	54.6983	-110.2913	767.7	160.7	182.2	1.4	3.2	0.88	51.61	1.9608	404.3985
12878	1509398878	54.6982	-110.2913	767.7	160.7	182.2	1.5	3.3	0.88	51.61	1.9588	404.4655
12879	1509398879	54.6975	-110.2914	766.7	161.4	182.9	1.8	3.0	0.88	51.61	1.9589	404.5074
12880	1509398880	54.6967	-110.2914	766.5	162.3	182.6	1.3	3.7	0.88	51.61	1.9587	404.5074
12881	1509398881	54.6960	-110.2914	765.7	163.5	182.5	1.2	3.8	0.88	51.61	1.9585	404.6854
12882	1509398882	54.6952	-110.2915	764.8	161.7	182.0	0.7	3.7	0.88	51.61	1.9596	404.6854
12883	1509398883	54.6945	-110.2915	763.8	160.8	182.8	1.7	3.6	0.88	51.61	1.9591	405.0196
12884	1509398884	54.6937	-110.2915	762.8	159.7	182.4	0.9	3.3	0.88	51.61	1.9598	403.0073
12885	1509398885	54.6929	-110.2916	760.7	156.7	183.2	1.8	2.9	0.88	51.61	1.9592	404.2885
12886	1509398886	54.6921	-110.2916	758.1	153.1	182.6	0.8	2.7	0.88	51.61	1.9596	404.2885
12887	1509398887	54.6914	-110.2917	755.6	151.6	182.7	0.9	2.4	0.88	51.61	1.9587	404.1333
12888	1509398888	54.6906	-110.2917	754.1	150.1	182.4	0.7	2.5	0.88	51.61	1.9583	403.9608
12889	1509398889	54.6898	-110.2918	753.1	149.1	182.7	1.1	2.7	0.88	51.61	1.9592	402.4897
12890	1509398890	54.6890	-110.2918	752.1	147.1	182.9	1.5	2.6	0.88	51.61	1.9579	402.4897
12891	1509398891	54.6882	-110.2919	752.4	148.3	183.5	1.7	2.7	0.88	51.61	1.9576	404.7500
12892	1509398892	54.6875	-110.2919	752.6	150.5	184.1	2.3	2.8	0.88	51.61	1.9566	403.9679
12893	1509398893	54.6867	-110.2920	752.9	152.0	183.7	1.6	3.0	0.88	51.61	1.9580	403.3718
12894	1509398894	54.6859	-110.2921	753.2	153.3	184.1	2.1	3.7	0.88	51.61	1.9575	403.3718
12895	1509398895	54.6852	-110.2921	753.4	154.3	184.7	2.7	4.0	0.88	51.61	1.9568	403.4549
12896	1509398896	54.6844	-110.2922	753.7	155.7	184.8	2.8	3.6	0.88	51.61	1.9569	402.5397
12897	1509398897	54.6836	-110.2923	754.1	155.1	185.0	2.8	3.4	0.88	51.61	1.9574	403.4906
12898	1509398898	54.6829	-110.2923	754.5	155.5	184.6	2.1	3.6	0.88	51.61	1.9578	403.8636
12899	1509398899	54.6821	-110.2924	755.0	156.0	184.0	1.1	3.8	0.88	51.61	1.9584	402.0983
12900	1509398900	54.6814	-110.2925	755.8	156.8	184.1	1.1	3.9	0.88	51.61	1.9566	404.7475
12901	1509398901	54.6808	-110.2925	756.6	157.6	184.2	1.1	3.6	0.88	51.61	1.9571	404.2969
12902	1509398902	54.6801	-110.2926	756.9	158.9	183.9	1.0	3.6	0.88	51.61	1.9571	404.7484
12903	1509398903	54.6795	-110.2927	756.8	158.8	184.2	1.7	3.7	0.88	51.61	1.9565	404.2895
12904	1509398904	54.6788	-110.2927	756.3	158.3	184.2	2.4	3.6	0.88	51.61	1.9571	402.5601
12905	1509398905	54.6782	-110.2928	756.2	157.2	183.6	2.2	3.6	0.88	51.61	1.9571	402.5373
12906	1509398906	54.6775	-110.2928	755.5	156.5	183.6	2.4	3.7	0.88	51.61	1.9572	403.2480
12907	1509398907	54.6769	-110.2928	755.3	156.3	183.1	1.6	3.7	0.88	51.61	1.9572	402.1579
12908	1509398908	54.6762	-110.2929	755.3	156.3	182.6	1.0	3.8	0.88	51.61	1.9571	402.5960
12909	1509398909	54.6755	-110.2929	754.7	156.7	182.8	1.4	3.8	0.88	51.61	1.9580	401.9381
12910	1509398910	54.6749	-110.2930	754.1	156.1	182.2	0.8	3.8	0.88	51.61	1.9582	402.0819
12911	1509398911	54.6742	-110.2930	753.4	155.4	182.4	1.4	3.4	0.88	51.61	1.9572	403.5919
12912	1509398912	54.6736	-110.2930	753.1	155.1	182.3	1.3	3.3	0.88	51.61	1.9572	402.7619
12913	1509398913	54.6729	-110.2930	752.5	154.5	182.0	1.2	3.3	0.88	51.61	1.9581	402.4857
12914	1509398914	54.6722	-110.2931	751.4	153.4	182.7	1.7	3.2	0.88	51.61	1.9570	403.6888
12915	1509398915	54.6716	-110.2931	750.9	152.9	181.2	0.0	2.8	0.88	51.61	1.9552	405.6900
12916	1509398916	54.6709	-110.2931	750.5	152.5	182.3	1.5	2.9	0.88	51.61	1.9552	404.5184
12917	1509398917	54.6703	-110.2931	749.3	152.3	182.5	1.8	3.0	0.88	51.61	1.9584	402.5885
12918	1509398918	54.6696	-110.2932	748.7	151.7	182.6	2.2	3.3	0.88	51.61	1.9570	402.5885
12919	1509398919	54.6690	-110.2932	748.6	151.6	182.6	2.3	3.2	0.88	51.61	1.9577	403.5052
12920	1509398920	54.6683	-110.2932	748.4	150.4	182.1	1.9	3.0	0.88	51.61	1.9577	402.4053
12921	1509398921	54.6676	-110.2932	747.8	149.8	182.1	1.8	2.7	0.88	51.61	1.9558	402.0690
12922	1509398922	54.6670	-110.2932	747.0	149.0	181.7	1.2	2.7	0.88	51.61	1.9575	402.0690
12923	1509398923	54.6663	-110.2933	746.2	149.2	182.1	1.4	3.1	0.88	51.61	1.9587	401.1132
12924	1509398924	54.6656	-110.2933	745.7	148.7	182.4	1.4	3.4	0.88	51.61	1.9575	401.1132
12925	1509398925	54.6650	-110.2933	745.3	148.3	182.8	1.7	3.1	0.88	51.61	1.9554	402.5333
12926	1509398926	54.6643	-110.2933	745.0	149.0	183.1	1.8	2.8	0.88	51.61	1.9551	403.2142
12927	1509398927	54.6637	-110.2934	744.6	148.6	183.4	2.2	2.8	0.88	51.61	1.9550	403.2142
12928	1509398928	54.6630	-110.2934	744.9	149.9	183.3	2.1	2.8	0.88	51.61	1.9548	403.2142
12929	1509398929	54.6623	-110.2934	747.0	152.0	182.4	1.2	2.6	0.88	51.61	1.9547	403.2142
12930	1509398930	54.6617	-110.2935	749.1	154.5	182.5	1.4	2.8	0.88	51.61	1.9546	403.2142
12931	1509398931	54.6610	-110.2935	751.4	157.4	182.8	1.8	3.3	0.88	51.61	1.9545	403.2142
12932	1509398932	54.6604	-110.2935	753.5	159.5	183.0	2.1	3.0	0.88	51.61	1.9544	403.2142
12933	1509398933	54.6597	-110.2936	754.9	161.9	183.5	2.5	2.7	0.88	51.61	1.9546	403.0362
12934	1509398934	54.6591	-110.2936	756.2	164.9	183.4	2.0	2.9	0.88	51.61	1.9541	403.0464
12935	1509398935	54.6589	-110.2936	756.4	164.3	183.2	1.7	2.9	0.88	51.61	1.9556	402.0779
12936	1509398936	54.6589	-110.2936	756.4	165.4	183.1	1.7	2.9	0.88	51.61	1.9540	401.2378
12937	1509398937	54.6588	-110.2936	756.4	165.4	183.1	1.6	2.9	0.88	51.61	1.9550	402.1688
12938	1509398938	54.6588	-110.2936	756.5	165.5	183.0	1.6	2.9	0.88	51.61	1.9552	401.9494
12939	1509398939	54.6587	-110.2936	756.5	165.5	183.0	1.5	3.5	0.88	51.61	1.9564	400.8241
12940	1509398940	54.6587	-110.2936	756.5	165.5	182.9	1.5	3.5	0.88	51.61	1.9550	401.4624
12941	1509398941	54.6586	-110.2936	756.5	165.5	182.9	1.4	3.5	0.88	51.61	1.9557	401.8951
12942	1509398942	54.6582	-110.2937	756.1	165.1	182.7	1.2	2.9	0.88	51.61	1.9551	400.2918
12943	1509398943	54.6574	-110.2937	755.5	165.5	182.6	1.1	2.8	0.88	51.61	1.9547	401.8446
12944	1509398944	54.6567	-110.2937	754.9	164.9	182.7	1.4	3.3	0.88	51.61	1.9537	401.7836
12945	1509398945	54.6559	-110.2938	754.3	164.3	183.1	1.6	3.7	0.88	51.61	1.9551	401.8267
12946	1509398946	54.6551	-110.2938	753.5	163.5	182.8	0.9	3.7	0.88	51.61	1.9537	400.8375
12947	1509398947	54.6544	-110.2939	753.5	164.8	182.5	0.6	4.1	0.88	51.61	1.9550	400.9589
12948	1509398948	54.6537	-110.2939	753.2	166.3	183.0	1.2	4.2	0.88	51.61	1.9555	400.6513
12949	1509398949	54.6529	-110.2940	752.6	166.6	182.9	1.4	4.5	0.88	51.61	1.9563	398.9477
12950	1509398950	54.6521	-110.2940	750.7	165.7	183.6	2.1	4.3	0.88	51.61	1.9551	400.2165
12951	1509398951	54.6514	-110.2941	748.6	165.6	183.6	2.0	3.8	0.88	51.61	1.9561	400.6044
12952	1509398952	54.6506	-110.2941	746.1	165.3	183.7	2.3	3.1	0.88	51.61	1.9551	399.6377
12953	1509398953	54.6499	-110.2942	744.4	167.9	183.8	2.6	3.1	0.88	51.61	1.9540	403.4981
12954	1509398954	54.6491	-110.2942	743.0	170.0	183.3	1.9	3.6	0.88	51.61	1.9534	400.7249
12955	1509398955	54.6483	-110.2943	741.4	168.4	183.4	2.0	3.7	0.88	51.61	1.9557	400.7108
12956	1509398956	54.6476	-110.2943	739.4	166.4	183.0	1.1	3.5	0.88	51.61	1.9542	400.7090
12957	1509398957	54.6468	-110.2944	736.7	163.7	182.9	1.1	3.5	0.88	51.61	1.9523	400.4645
12958	1509398958	54.6461	-110.2944	732.5	159.5	183.3	1.3	3.4	0.88	51.61	1.9524	400.1058
12959	1509398959	54.6453	-110.2945	727.2	154.2	183.8	1.8	2.9	0.88	51.61	1.9527	399.8299
12960	1509398960	54.6445	-110.2945	723.4	150.4	183.5	1.0	2.4	0.88	51.61	1.9526	398.6549
12961	1509398961	54.6438	-110.2946	722.6	149.6	183.6	1.1	2.7	0.88	51.61	1.9523	400.1285
12962	1509398962	54.6430	-110.2947	721.4	148.4	183.0	0.2	3.0	0.88	51.61	1.9533	401.7681
12963	1509398963	54.6422	-110.2947	719.8	146.8	183.2	0.4	2.8	0.88	51.61	1.9535	400.8293
12964	1509398964	54.6414	-110.2948	718.2	145.2	184.0	0.9	2.7	0.88	51.61	1.9527	399.8401
12965	1509398965	54.6407	-110.2949	717.4	144.4	184.3	0.9	2.7	0.88	51.61	1.9534	400.6692
12966	1509398966	54.6399	-110.2950	717.4	144.4	184.4	0.6	2.4	0.88	51.61	1.9537	400.4753
12967	1509398967	54.6391	-110.2951	718.1	145.1	184.6	0.6	2.7	0.88	51.61	1.9534	400.9833
12968	1509398968	54.6383	-110.2952	717.6	144.6	185.1	1.1	2.7	0.88	51.61	1.9527	400.3497
12969	1509398969	54.6375	-110.2953	717.1	144.1	184.8	0.8	2.8	0.88	51.61	1.9526	400.9781
12970	1509398970	54.6368	-110.2954	716.1	143.1	185.2	1.4	2.6	0.88	51.61	1.9515	401.0399
12971	1509398971	54.6360	-110.2955	716.1	143.1	184.6	1.0	3.0	0.88	51.61	1.9536	399.6373
12972	1509398972	54.6353	-110.2956	718.4	145.4	184.7	1.5	2.5	0.88	51.61	1.9530	399.5423
12973	1509398973	54.6345	-110.2957	722.7	149.7	184.3	1.3	2.8	0.88	51.61	1.9518	400.3672
12974	1509398974	54.6338	-110.2957	727.0	154.0	184.0	0.9	3.2	0.88	51.61	1.9530	400.5760
12975	1509398975	54.6330	-110.2958	730.3	157.3	185.1	1.9	2.6	0.88	51.61	1.9525	401.1081
12976	1509398976	54.6322	-110.2959	733.7	160.7	184.6	1.2	3.2	0.88	51.61	1.9506	399.6524
12977	1509398977	54.6315	-110.2960	736.1	163.1	185.6	2.2	2.9	0.88	51.61	1.9531	399.6524
12978	1509398978	54.6308	-110.2961	736.9	163.9	185.8	2.1	3.0	0.88	51.61	1.9532	400.6091
12979	1509398979	54.6300	-110.2962	737.4	164.4	185.4	1.5	3.1	0.88	51.61	1.9528	400.3920
12980	1509398980	54.6293	-110.2963	736.8	163.8	186.3	2.2	3.0	0.88	51.61	1.9523	400.3320
12981	1509398981	54.6285	-110.2964	737.0	164.0	185.1	1.0	3.2	0.88	51.61	1.9541	399.4803
12982	1509398982	54.6278	-110.2965	737.6	164.6	186.0	2.5	3.5	0.88	51.61	1.9524	400.1594
12983	1509398983	54.6271	-110.2966	737.9	164.9	184.5	1.0	3.4	0.88	51.61	1.9523	400.1053
12984	1509398984	54.6263	-110.2967	737.2	164.2	184.6	1.1	3.2	0.88	51.61	1.9518	400.1053
12985	1509398985	54.6257	-110.2967	736.4	163.4	184.3	0.9	2.7	0.88	51.61	1.9516	399.9160
12986	1509398986	54.6251	-110.2968	735.6	162.6	184.6	1.4	2.9	0.88	51.61	1.9516	400.6215
12987	1509398987	54.6244	-110.2969	734.7	161.7	184.8	1.4	2.9	0.88	51.61	1.9520	400.6215
12988	1509398988	54.6238	-110.2970	733.4	160.4	184.1	0.8	3.1	0.88	51.61	1.9507	400.1101
12989	1509398989	54.6232	-110.2970	731.8	158.8	184.3	1.0	3.0	0.88	51.61	1.9516	400.7825
12990	1509398990	54.6225	-110.2971	730.1	157.1	184.2	1.2	2.9	0.88	51.61	1.9525	401.1301
12991	1509398991	54.6219	-110.2972	728.5	155.5	184.1	1.3	2.6	0.88	51.61	1.9521	400.5037
12992	1509398992	54.6212	-110.2972	726.9	153.9	183.7	1.0	2.9	0.88	51.61	1.9519	400.6570
12993	1509398993	54.6206	-110.2973	725.2	152.2	184.1	1.3	3.1	0.88	51.61	1.9524	400.6111
12994	1509398994	54.6199	-110.2973	723.9	150.9	183.8	0.8	3.3	0.88	51.61	1.9538	400.4860
12995	1509398995	54.6196	-110.2974	723.4	150.4	183.9	0.9	3.2	0.88	51.61	1.9522	402.0778
12996	1509398996	54.6194	-110.2974	723.0	150.0	184.0	1.0	3.2	0.88	51.61	1.9532	400.0639
12997	1509398997	54.6188	-110.2975	721.8	148.8	183.5	0.6	3.0	0.88	51.61	1.9525	400.7680
12998	1509398998	54.6180	-110.2975	720.4	147.4	184.3	1.5	2.9	0.88	51.61	1.9518	401.0681
12999	1509398999	54.6172	-110.2976	719.1	146.1	184.0	1.4	2.7	0.88	51.61	1.9519	400.4544
13000	1509399000	54.6165	-110.2977	717.6	144.6	183.1	0.3	3.0	0.88	51.61	1.9535	400.0635
13001	1509399001	54.6157	-110.2977	715.9	142.9	183.0	0.7	3.2	0.88	51.61	1.9544	400.6757
13002	1509399002	54.6149	-110.2978	714.9	141.9	183.1	1.1	3.5	0.88	51.61	1.9535	399.4104
13003	1509399003	54.6142	-110.2979	713.7	140.7	183.5	1.4	3.4	0.88	51.61	1.9536	401.1150
13004	1509399004	54.6134	-110.2979	714.9	141.9	184.0	2.0	3.7	0.88	51.61	1.9530	401.2334
13005	1509399005	54.6127	-110.2980	715.3	142.3	184.4	1.8	3.7	0.88	51.61	1.9552	400.3332
13006	1509399006	54.6120	-110.2980	715.4	142.4	183.9	0.9	3.3	0.88	51.61	1.9538	400.5645
13007	1509399007	54.6114	-110.2981	715.2	142.2	184.6	1.5	3.0	0.88	51.61	1.9531	400.3816
13008	1509399008	54.6107	-110.2982	715.1	142.1	184.4	1.3	3.5	0.88	51.61	1.9533	400.7057
13009	1509399009	54.6101	-110.2983	715.5	142.5	184.5	1.2	3.7	0.88	51.61	1.9532	399.8310
13010	1509399010	54.6094	-110.2983	716.6	143.6	184.2	0.8	3.9	0.88	51.61	1.9538	400.6919
13011	1509399011	54.6088	-110.2984	718.0	145.0	184.3	1.0	3.5	0.88	51.61	1.9555	401.1518
13012	1509399012	54.6081	-110.2985	719.0	146.0	185.1	2.1	3.6	0.88	51.61	1.9551	399.3786
13013	1509399013	54.6075	-110.2985	719.8	146.8	184.6	1.9	4.2	0.88	51.61	1.9559	400.9719
13014	1509399014	54.6068	-110.2986	720.8	147.8	183.7	1.1	4.5	0.88	51.61	1.9570	400.8404
13015	1509399015	54.6062	-110.2987	721.1	148.1	184.3	2.0	4.0	0.88	51.61	1.9543	399.6834
13016	1509399016	54.6055	-110.2987	721.6	148.6	184.3	2.0	4.1	0.88	51.61	1.9538	400.6481
13017	1509399017	54.6049	-110.2988	724.0	151.0	184.0	1.7	4.2	0.88	51.61	1.9532	400.6481
13018	1509399018	54.6043	-110.2988	729.0	156.0	183.7	1.4	4.6	0.88	51.61	1.9541	400.5010
13019	1509399019	54.6036	-110.2989	734.8	161.8	183.3	0.9	4.3	0.88	51.61	1.9553	398.8992
13020	1509399020	54.6030	-110.2989	738.9	165.9	183.0	1.1	4.5	0.88	51.61	1.9553	398.5374
13021	1509399021	54.6024	-110.2990	741.6	168.6	182.9	1.6	4.7	0.88	51.61	1.9542	400.0511
13022	1509399022	54.6018	-110.2990	742.6	169.6	182.0	1.0	4.4	0.88	51.61	1.9560	400.2999
13023	1509399023	54.6012	-110.2990	742.5	169.5	182.0	1.1	4.3	0.88	51.61	1.9538	400.2986
13024	1509399024	54.6006	-110.2990	742.1	169.1	182.4	1.7	3.9	0.88	51.61	1.9553	399.6302
13025	1509399025	54.5999	-110.2991	741.6	168.6	182.4	1.4	3.6	0.88	51.61	1.9552	399.6302
13026	1509399026	54.5993	-110.2991	741.5	168.5	182.1	1.0	3.2	0.88	51.61	1.9551	400.5081
13027	1509399027	54.5987	-110.2991	741.1	168.1	182.5	1.2	3.5	0.88	51.61	1.9554	400.1620
13028	1509399028	54.5980	-110.2992	739.9	166.9	183.1	1.9	4.0	0.88	51.61	1.9559	400.2955
13029	1509399029	54.5974	-110.2992	738.0	165.0	184.0	2.6	3.9	0.88	51.61	1.9559	399.4464
13030	1509399030	54.5968	-110.2992	736.4	163.4	183.7	2.3	4.0	0.88	51.61	1.9555	400.1767
13031	1509399031	54.5962	-110.2993	735.2	162.2	184.0	2.8	3.9	0.88	51.61	1.9547	400.9073
13032	1509399032	54.5955	-110.2993	735.6	162.6	182.1	0.5	3.6	0.88	51.61	1.9556	399.6847
13033	1509399033	54.5949	-110.2993	736.8	160.1	182.3	0.9	3.1	0.88	51.61	1.9554	399.9589
13034	1509399034	54.5943	-110.2994	737.6	159.7	184.0	2.7	2.9	0.88	51.61	1.9560	399.9589
13035	1509399035	54.5937	-110.2994	738.4	161.4	183.4	1.7	3.5	0.88	51.61	1.9561	400.7248
13036	1509399036	54.5930	-110.2995	738.0	162.0	184.9	3.2	3.7	0.88	51.61	1.9552	400.5178
13037	1509399037	54.5924	-110.2995	737.3	162.3	184.6	2.0	3.4	0.88	51.61	1.9547	400.5919
13038	1509399038	54.5918	-110.2996	737.5	161.4	183.6	1.0	2.6	0.88	51.61	1.9548	400.6352
13039	1509399039	54.5911	-110.2996	737.1	160.1	184.0	1.5	2.9	0.88	51.61	1.9550	400.7128
13040	1509399040	54.5906	-110.2997	736.8	159.9	182.6	0.5	2.9	0.88	51.61	1.9554	400.2421
13041	1509399041	54.5899	-110.2997	736.2	158.2	183.9	2.2	3.1	0.88	51.61	1.9556	401.4221
13042	1509399042	54.5892	-110.2998	735.4	156.2	183.0	1.3	2.6	0.88	51.61	1.9562	399.9598
13043	1509399043	54.5886	-110.2998	735.4	154.2	183.8	2.3	3.0	0.88	51.61	1.9551	401.1151
13044	1509399044	54.5880	-110.2998	735.1	153.1	183.6	1.7	3.1	0.88	51.61	1.9549	400.5997
13045	1509399045	54.5873	-110.2999	735.4	152.4	183.3	1.2	2.7	0.88	51.61	1.9547	400.0337
13046	1509399046	54.5867	-110.2999	735.6	151.4	184.0	1.7	3.1	0.88	51.61	1.9547	401.0174
13047	1509399047	54.5861	-110.3000	736.3	152.5	183.6	1.2	3.3	0.88	51.61	1.9548	401.0174
13048	1509399048	54.5854	-110.3000	736.8	154.7	184.2	1.9	3.7	0.88	51.61	1.9549	401.0174
13049	1509399049	54.5848	-110.3001	737.0	156.0	184.2	1.7	3.9	0.88	51.61	1.9549	401.0174
13050	1509399050	54.5842	-110.3001	737.1	156.4	183.2	1.1	4.0	0.88	51.61	1.9550	401.0174
13051	1509399051	54.5835	-110.3002	736.8	156.8	184.1	2.2	3.5	0.88	51.61	1.9551	401.0174
13052	1509399052	54.5829	-110.3002	736.9	156.9	183.9	1.8	3.0	0.88	51.61	1.9551	401.0174
13053	1509399053	54.5823	-110.3003	737.2	158.2	184.0	1.6	2.8	0.88	51.61	1.9552	400.8936
13054	1509399054	54.5817	-110.3004	737.7	158.7	183.6	1.0	3.0	0.88	51.61	1.9562	400.2420
13055	1509399055	54.5815	-110.3004	737.7	158.7	183.7	1.1	3.0	0.88	51.61	1.9562	401.1962
13056	1509399056	54.5814	-110.3004	737.6	158.6	183.8	1.2	3.1	0.88	51.61	1.9554	401.2336
13057	1509399057	54.5814	-110.3004	737.6	158.6	183.9	1.3	3.1	0.88	51.61	1.9553	400.9802
13058	1509399058	54.5813	-110.3004	737.6	158.6	184.0	1.4	3.2	0.88	51.61	1.9556	400.6327
13059	1509399059	54.5813	-110.3004	737.6	158.6	184.1	1.5	3.3	0.88	51.61	1.9554	400.6430
13060	1509399060	54.5812	-110.3004	737.5	158.5	184.2	1.5	3.3	0.88	51.61	1.9552	400.5232
13061	1509399061	54.5812	-110.3004	737.5	158.5	184.3	1.7	3.9	0.88	51.61	1.9554	400.5929
13062	1509399062	54.5806	-110.3005	737.7	159.7	184.5	1.5	3.2	0.88	51.61	1.9551	401.6677
13063	1509399063	54.5799	-110.3005	737.7	159.7	184.8	1.8	2.6	0.88	51.61	1.9549	399.2828
13064	1509399064	54.5791	-110.3006	738.1	160.8	184.7	1.6	2.5	0.88	51.61	1.9553	399.7280
13065	1509399065	54.5784	-110.3007	738.3	161.0	184.6	1.5	2.6	0.88	51.61	1.9555	399.7280
13066	1509399066	54.5777	-110.3008	738.6	161.3	184.7	1.7	2.9	0.88	51.61	1.9550	400.1635
13067	1509399067	54.5770	-110.3008	739.3	161.6	184.2	1.3	3.5	0.88	51.61	1.9570	400.3322
13068	1509399068	54.5762	-110.3009	739.4	161.4	184.3	1.5	3.8	0.88	51.61	1.9545	400.9275
13069	1509399069	54.5755	-110.3010	739.8	162.8	183.7	1.1	3.6	0.88	51.61	1.9553	401.0017
13070	1509399070	54.5748	-110.3010	740.8	164.7	184.6	2.2	3.5	0.88	51.61	1.9551	400.5563
13071	1509399071	54.5741	-110.3011	741.9	166.9	184.9	2.6	3.6	0.88	51.61	1.9552	400.8696
13072	1509399072	54.5733	-110.3012	742.7	167.4	183.7	1.4	3.7	0.88	51.61	1.9553	400.1502
13073	1509399073	54.5726	-110.3012	743.9	166.5	183.6	1.7	3.3	0.88	51.61	1.9556	399.3567
13074	1509399074	54.5719	-110.3013	744.1	164.0	183.8	1.8	3.3	0.88	51.61	1.9544	401.3393
13075	1509399075	54.5712	-110.3013	744.0	163.0	183.9	1.8	2.8	0.88	51.61	1.9552	400.5764
13076	1509399076	54.5705	-110.3014	744.0	164.0	184.3	2.1	3.4	0.88	51.61	1.9554	401.3587
13077	1509399077	54.5698	-110.3015	744.2	165.2	184.1	1.9	3.8	0.88	51.61	1.9542	400.5228
13078	1509399078	54.5690	-110.3015	744.5	164.4	184.1	2.1	3.3	0.88	51.61	1.9555	399.7615
13079	1509399079	54.5683	-110.3016	744.0	164.0	182.8	0.8	3.7	0.88	51.61	1.9549	399.7615
13080	1509399080	54.5676	-110.3016	741.9	161.9	183.6	2.0	2.9	0.88	51.61	1.9545	400.9721
13081	1509399081	54.5669	-110.3017	741.1	160.1	181.8	0.1	2.8	0.88	51.61	1.9557	400.9513
13082	1509399082	54.5662	-110.3017	741.0	159.0	182.4	0.8	2.7	0.88	51.61	1.9564	399.2262
13083	1509399083	54.5655	-110.3017	741.1	158.1	181.9	0.3	3.9	0.88	51.61	1.9546	400.6473
13084	1509399084	54.5647	-110.3018	741.2	157.2	183.2	2.5	4.4	0.88	51.61	1.9550	400.7337
13085	1509399085	54.5640	-110.3018	741.5	157.5	181.9	1.2	4.6	0.88	51.61	1.9550	400.3174
13086	1509399086	54.5633	-110.3018	740.4	157.3	183.6	3.0	3.6	0.88	51.61	1.9574	400.0714
13087	1509399087	54.5625	-110.3018	739.8	156.8	182.5	1.6	3.0	0.88	51.61	1.9560	400.3644
13088	1509399088	54.5618	-110.3019	739.3	156.6	183.0	2.0	2.8	0.88	51.61	1.9560	400.6729
13089	1509399089	54.5610	-110.3019	739.5	158.8	181.5	0.4	2.8	0.88	51.61	1.9559	400.6813
13090	1509399090	54.5603	-110.3019	739.1	160.4	182.3	1.6	3.0	0.88	51.61	1.9567	401.2627
13091	1509399091	54.5596	-110.3020	737.3	162.3	181.8	0.9	3.2	0.88	51.61	1.9551	400.9684
13092	1509399092	54.5588	-110.3020	736.2	166.2	182.1	1.3	3.5	0.88	51.61	1.9551	400.5735
13093	1509399093	54.5581	-110.3020	735.4	170.7	182.3	1.5	3.6	0.88	51.61	1.9564	400.4114
13094	1509399094	54.5573	-110.3020	734.9	176.2	182.6	1.6	3.6	0.88	51.61	1.9557	400.0048
13095	1509399095	54.5566	-110.3021	735.1	181.8	183.1	1.9	3.6	0.88	51.61	1.9561	399.8578
13096	1509399096	54.5559	-110.3021	734.5	183.9	183.7	2.1	3.6	0.88	51.61	1.9560	400.2797
13097	1509399097	54.5551	-110.3022	733.8	186.9	183.4	1.1	3.6	0.88	51.61	1.9559	400.8174
13098	1509399098	54.5544	-110.3022	733.2	188.2	185.2	2.5	3.4	0.88	51.61	1.9548	400.7733
13099	1509399099	54.5536	-110.3023	731.9	186.9	184.5	1.8	3.5	0.88	51.61	1.9562	400.1116
13100	1509399100	54.5529	-110.3024	730.0	185.0	184.4	1.9	3.7	0.88	51.61	1.9592	401.0121
13101	1509399101	54.5521	-110.3025	728.6	183.6	184.2	1.7	3.5	0.88	51.61	1.9612	401.0121
13102	1509399102	54.5514	-110.3025	727.2	182.2	184.1	1.3	3.4	0.88	51.61	1.9652	400.5654
13103	1509399103	54.5507	-110.3026	726.2	181.2	183.5	-0.6	3.1	0.88	51.61	1.9661	399.8797
13104	1509399104	54.5501	-110.3027	725.6	180.6	186.7	-0.4	3.7	0.88	51.61	1.9677	399.9045
13105	1509399105	54.5495	-110.3029	725.5	180.5	191.0	-1.3	3.6	0.88	51.61	1.9661	400.6255
13106	1509399106	54.5488	-110.3032	725.7	176.6	198.4	-0.6	3.4	0.88	51.61	1.9661	400.6003
13107	1509399107	54.5483	-110.3036	726.7	172.1	206.4	-0.5	4.0	0.88	51.61	1.9662	400.6003
13108	1509399108	54.5477	-110.3042	728.3	168.2	214.6	-0.2	4.5	0.88	51.61	1.9662	400.6003
13109	1509399109	54.5472	-110.3050	729.7	167.5	223.0	0.2	4.9	0.88	51.61	1.9663	400.6003
13110	1509399110	54.5468	-110.3058	731.0	167.3	231.3	0.4	5.6	0.88	51.61	1.9663	400.6003
13111	1509399111	54.5465	-110.3067	732.2	169.6	239.0	0.5	5.3	0.88	51.61	1.9663	400.6003
13112	1509399112	54.5462	-110.3077	732.0	171.0	246.4	1.0	4.7	0.88	51.61	1.9664	400.6003
13113	1509399113	54.5461	-110.3088	732.0	173.3	253.1	0.7	4.3	0.88	51.61	1.9626	400.6546
13114	1509399114	54.5459	-110.3099	732.3	175.4	257.8	0.2	4.3	0.88	51.61	1.9599	400.4843
13115	1509399115	54.5459	-110.3102	732.1	176.0	259.0	0.2	4.4	0.88	51.61	1.9575	400.4153
13116	1509399116	54.5459	-110.3103	732.1	176.0	259.2	0.4	4.4	0.88	51.61	1.9555	400.6981
13117	1509399117	54.5459	-110.3104	732.0	175.9	259.5	0.5	4.4	0.88	51.61	1.9551	399.8066
13118	1509399118	54.5459	-110.3105	731.9	175.9	259.8	0.7	4.5	0.88	51.61	1.9544	399.8845
13119	1509399119	54.5459	-110.3105	731.8	175.8	260.0	0.9	4.5	0.88	51.61	1.9555	400.7022
13120	1509399120	54.5459	-110.3106	731.7	176.3	260.3	1.0	4.5	0.88	51.61	1.9570	401.3197
13121	1509399121	54.5459	-110.3107	731.6	176.2	260.5	1.4	4.6	0.88	51.61	1.9566	400.7952
13122	1509399122	54.5458	-110.3115	730.2	176.2	263.1	2.0	4.9	0.88	51.61	1.9559	402.2692
13123	1509399123	54.5458	-110.3128	727.4	175.4	268.3	1.7	4.2	0.88	51.61	1.9568	400.6715
13124	1509399124	54.5459	-110.3141	725.7	174.0	271.1	1.9	4.8	0.88	51.61	1.9572	399.3273
13125	1509399125	54.5460	-110.3154	724.3	174.3	272.8	1.8	5.2	0.88	51.61	1.9565	401.7064
13126	1509399126	54.5461	-110.3167	722.4	174.5	275.1	1.2	4.6	0.88	51.61	1.9549	401.0577
13127	1509399127	54.5462	-110.3180	720.5	172.5	275.6	1.1	5.7	0.88	51.61	1.9557	400.6894
13128	1509399128	54.5463	-110.3194	718.9	170.0	279.3	0.7	4.2	0.88	51.61	1.9571	399.9428
13129	1509399129	54.5465	-110.3207	718.2	163.6	281.9	0.5	4.2	0.88	51.61	1.9549	400.7030
13130	1509399130	54.5468	-110.3220	719.3	158.7	284.0	0.6	4.7	0.88	51.61	1.9540	400.1778
13131	1509399131	54.5470	-110.3232	721.2	161.6	285.6	0.6	4.2	0.88	51.61	1.9548	401.1389
13132	1509399132	54.5473	-110.3245	721.8	166.4	286.0	0.9	5.0	0.88	51.61	1.9562	400.8939
13133	1509399133	54.5475	-110.3258	722.2	166.6	286.9	1.0	4.5	0.88	51.61	1.9549	400.4780
13134	1509399134	54.5478	-110.3270	722.3	159.3	287.5	1.2	4.2	0.88	51.61	1.9568	399.9486
13135	1509399135	54.5481	-110.3282	722.2	155.8	287.7	1.4	4.2	0.88	51.61	1.9574	400.2546
13136	1509399136	54.5483	-110.3295	722.8	156.2	287.8	1.7	4.0	0.88	51.61	1.9544	400.9457
13137	1509399137	54.5486	-110.3307	723.2	155.2	288.3	1.4	3.0	0.88	51.61	1.9547	401.0079
13138	1509399138	54.5489	-110.3320	722.7	151.4	286.1	1.8	4.2	0.88	51.61	1.9539	400.4124
13139	1509399139	54.5491	-110.3332	722.1	148.7	285.0	1.6	3.7	0.88	51.61	1.9541	400.0380
13140	1509399140	54.5494	-110.3345	720.5	145.5	283.6	1.3	3.0	0.88	51.61	1.9546	401.2924
13141	1509399141	54.5496	-110.3358	719.8	143.8	281.0	1.3	3.9	0.88	51.61	1.9550	401.2924
13142	1509399142	54.5498	-110.3371	719.2	142.1	279.8	1.3	4.3	0.88	51.61	1.9564	401.6698
13143	1509399143	54.5499	-110.3384	717.8	144.8	279.0	1.2	4.7	0.88	51.61	1.9572	400.1356
13144	1509399144	54.5501	-110.3397	716.9	152.6	279.2	1.0	4.1	0.88	51.61	1.9574	399.8593
13145	1509399145	54.5503	-110.3410	716.5	159.1	278.3	0.6	4.7	0.88	51.61	1.9594	401.4386
13146	1509399146	54.5504	-110.3424	718.4	164.4	278.1	0.6	4.6	0.88	51.61	1.9599	401.4436
13147	1509399147	54.5506	-110.3437	723.2	167.2	278.0	1.2	4.1	0.88	51.61	1.9625	399.4485
13148	1509399148	54.5507	-110.3449	727.6	170.2	277.9	1.6	4.2	0.88	51.61	1.9620	399.8179
13149	1509399149	54.5509	-110.3463	731.0	172.5	277.8	1.9	4.1	0.88	51.61	1.9600	401.0480
13150	1509399150	54.5510	-110.3475	732.2	174.9	277.9	1.5	4.2	0.88	51.61	1.9567	401.0971
13151	1509399151	54.5512	-110.3488	732.0	174.0	278.1	2.1	4.3	0.88	51.61	1.9543	400.3962
13152	1509399152	54.5513	-110.3501	731.4	175.4	278.4	2.0	4.1	0.88	51.61	1.9547	400.1715
13153	1509399153	54.5515	-110.3514	730.5	172.5	278.8	1.9	3.9	0.88	51.61	1.9545	400.5880
13154	1509399154	54.5517	-110.3526	729.6	167.3	277.9	1.9	4.6	0.88	51.61	1.9555	400.5880
13155	1509399155	54.5518	-110.3539	729.4	150.7	277.9	1.3	4.2	0.88	51.61	1.9550	401.4992
13156	1509399156	54.5519	-110.3552	729.6	136.9	277.8	1.3	4.0	0.88	51.61	1.9556	400.7461
13157	1509399157	54.5521	-110.3565	730.8	130.5	277.7	1.4	3.9	0.88	51.61	1.9550	400.6136
13158	1509399158	54.5522	-110.3577	731.4	127.1	278.0	1.3	3.8	0.88	51.61	1.9553	400.8273
13159	1509399159	54.5524	-110.3590	731.5	124.2	277.3	1.2	4.5	0.88	51.61	1.9552	400.4596
13160	1509399160	54.5525	-110.3603	733.4	122.5	278.5	1.0	3.0	0.88	51.61	1.9574	401.2916
13161	1509399161	54.5527	-110.3615	735.3	121.5	278.4	1.0	3.2	0.88	51.61	1.9570	399.4827
13162	1509399162	54.5528	-110.3628	738.5	121.5	277.9	0.8	3.1	0.88	51.61	1.9561	399.3119
13163	1509399163	54.5529	-110.3640	741.4	123.4	277.5	0.9	3.3	0.88	51.61	1.9564	400.3363
13164	1509399164	54.5531	-110.3653	742.9	125.9	276.4	1.6	4.3	0.88	51.61	1.9559	400.5199
13165	1509399165	54.5532	-110.3665	745.1	130.2	276.0	1.8	4.6	0.88	51.61	1.9565	401.0871
13166	1509399166	54.5533	-110.3675	746.3	132.6	276.1	1.6	4.3	0.88	51.61	1.9587	401.0503
13167	1509399167	54.5534	-110.3686	746.7	135.6	276.2	1.5	4.0	0.88	51.61	1.9586	400.7773
13168	1509399168	54.5535	-110.3697	746.6	138.3	276.4	1.5	3.9	0.88	51.61	1.9585	400.5044
13169	1509399169	54.5536	-110.3708	747.4	142.7	276.9	1.5	3.6	0.88	51.61	1.9585	400.2315
13170	1509399170	54.5537	-110.3719	748.4	147.1	276.8	1.7	4.2	0.88	51.61	1.9584	399.9586
13171	1509399171	54.5538	-110.3729	748.2	148.2	277.0	1.5	4.5	0.88	51.61	1.9583	399.6857
13172	1509399172	54.5540	-110.3741	748.4	149.9	278.0	1.1	4.2	0.88	51.61	1.9582	399.4128
13173	1509399173	54.5541	-110.3752	749.4	151.4	278.0	1.5	4.5	0.88	51.61	1.9570	401.6818
13174	1509399174	54.5542	-110.3762	751.5	154.4	278.6	2.1	4.1	0.88	51.61	1.9564	400.3821
13175	1509399175	54.5543	-110.3766	752.2	155.4	278.6	2.2	4.1	0.88	51.61	1.9574	399.7933
13176	1509399176	54.5543	-110.3766	752.3	155.5	278.6	2.2	4.2	0.88	51.61	1.9573	401.3348
13177	1509399177	54.5543	-110.3767	752.5	156.2	278.6	2.2	4.2	0.88	51.61	1.9570	401.7918
13178	1509399178	54.5543	-110.3768	752.6	156.3	278.5	2.2	4.3	0.88	51.61	1.9569	401.8080
13179	1509399179	54.5543	-110.3769	752.8	156.5	278.5	2.2	4.3	0.88	51.61	1.9574	401.1162
13180	1509399180	54.5543	-110.3769	752.9	156.6	278.4	2.2	4.4	0.88	51.61	1.9596	401.2585
13181	1509399181	54.5543	-110.3770	753.0	157.1	278.4	2.2	4.4	0.88	51.61	1.9571	400.3246
13182	1509399182	54.5544	-110.3778	754.0	159.0	278.6	1.8	4.2	0.88	51.61	1.9566	400.8454
13183	1509399183	54.5546	-110.3790	755.9	161.9	278.5	1.9	4.2	0.88	51.61	1.9556	400.3387
13184	1509399184	54.5547	-110.3802	757.0	163.9	279.1	1.9	3.9	0.88	51.61	1.9600	400.1995
13185	1509399185	54.5549	-110.3815	757.4	165.6	278.4	1.9	5.0	0.88	51.61	1.9696	403.7007
13186	1509399186	54.5551	-110.3827	757.4	169.1	278.6	2.2	4.6	0.88	51.61	1.9750	404.4160
13187	1509399187	54.5552	-110.3839	757.3	173.1	279.0	2.5	3.6	0.88	51.61	1.9713	401.9615
13188	1509399188	54.5554	-110.3852	757.9	176.6	278.5	2.6	3.9	0.88	51.61	1.9681	404.7115
13189	1509399189	54.5555	-110.3864	757.3	172.9	277.2	2.3	5.2	0.88	51.61	1.9643	410.7696
13190	1509399190	54.5557	-110.3877	756.0	167.8	277.3	1.9	5.0	0.88	51.61	1.9630	417.5523
13191	1509399191	54.5558	-110.3889	754.1	162.8	276.7	1.9	5.5	0.88	51.61	1.9629	417.9351
13192	1509399192	54.5560	-110.3902	752.1	159.6	277.3	1.5	4.4	0.88	51.61	1.9623	426.0304
13193	1509399193	54.5561	-110.3914	751.0	156.8	276.9	0.7	4.3	0.88	51.61	1.9588	408.0531
13194	1509399194	54.5562	-110.3927	750.6	153.9	276.7	0.2	3.9	0.88	51.61	1.9589	401.7090
13195	1509399195	54.5563	-110.3939	752.0	152.9	277.0	0.2	3.3	0.88	51.61	1.9588	401.5047
13196	1509399196	54.5565	-110.3952	755.7	154.8	276.7	0.6	4.0	0.88	51.61	1.9589	402.0690
13197	1509399197	54.5566	-110.3964	758.8	157.5	277.2	0.7	4.3	0.88	51.61	1.9582	401.8827
13198	1509399198	54.5567	-110.3977	761.5	159.7	277.1	0.7	5.0	0.88	51.61	1.9582	401.5663
13199	1509399199	54.5569	-110.3989	763.1	162.5	277.4	1.0	4.9	0.88	51.61	1.9567	400.7057
13200	1509399200	54.5570	-110.4002	763.8	161.7	277.4	1.4	4.7	0.88	51.61	1.9583	400.1501
13201	1509399201	54.5572	-110.4015	764.0	163.0	278.8	1.4	3.4	0.88	51.61	1.9576	400.4627
13202	1509399202	54.5573	-110.4027	763.8	161.4	277.9	1.6	4.9	0.88	51.61	1.9561	401.5655
13203	1509399203	54.5575	-110.4040	764.2	161.9	279.0	1.4	4.2	0.88	51.61	1.9584	400.6558
13204	1509399204	54.5577	-110.4052	764.6	160.2	278.6	1.5	5.0	0.88	51.61	1.9578	400.7472
13205	1509399205	54.5578	-110.4065	764.4	158.4	279.0	1.3	4.5	0.88	51.61	1.9569	400.5518
13206	1509399206	54.5580	-110.4077	764.6	158.6	278.5	1.0	5.4	0.88	51.61	1.9564	400.0089
13207	1509399207	54.5581	-110.4090	765.4	160.4	279.3	0.8	4.5	0.88	51.61	1.9565	400.8568
13208	1509399208	54.5583	-110.4102	765.8	162.5	279.7	0.6	4.0	0.88	51.61	1.9559	400.1039
13209	1509399209	54.5585	-110.4114	765.3	163.3	279.9	0.3	3.3	0.88	51.61	1.9551	399.9934
13210	1509399210	54.5586	-110.4127	765.5	164.4	278.8	0.4	4.1	0.88	51.61	1.9553	401.4711
13211	1509399211	54.5588	-110.4139	766.4	166.4	277.9	1.1	4.4	0.88	51.61	1.9562	401.5115
13212	1509399212	54.5589	-110.4152	767.4	167.3	277.5	1.3	4.6	0.88	51.61	1.9567	400.9265
13213	1509399213	54.5591	-110.4164	768.4	169.5	277.3	0.5	4.9	0.88	51.61	1.9561	401.5640
13214	1509399214	54.5592	-110.4177	769.6	169.7	278.0	0.4	4.4	0.88	51.61	1.9554	400.9770
13215	1509399215	54.5594	-110.4189	771.0	169.1	278.0	0.6	4.6	0.88	51.61	1.9569	401.0426
13216	1509399216	54.5595	-110.4202	772.5	167.8	278.2	0.7	4.7	0.88	51.61	1.9569	401.0426
13217	1509399217	54.5597	-110.4215	773.4	167.5	277.9	1.3	5.2	0.88	51.61	1.9557	400.7829
13218	1509399218	54.5598	-110.4227	773.4	166.5	278.3	0.7	4.6	0.88	51.61	1.9567	399.9233
13219	1509399219	54.5600	-110.4240	773.0	166.0	278.1	0.4	4.9	0.88	51.61	1.9578	399.3809
13220	1509399220	54.5602	-110.4252	772.3	166.7	278.4	0.6	4.6	0.88	51.61	1.9577	400.6119
13221	1509399221	54.5603	-110.4265	771.7	168.0	278.5	0.5	4.5	0.88	51.61	1.9578	401.3590
13222	1509399222	54.5605	-110.4277	770.9	168.9	278.9	0.3	4.3	0.88	51.61	1.9557	402.6121
13223	1509399223	54.5606	-110.4290	770.0	170.3	279.0	0.1	4.2	0.88	51.61	1.9576	401.5053
13224	1509399224	54.5608	-110.4302	768.9	170.8	279.2	-0.2	4.1	0.88	51.61	1.9573	400.4091
13225	1509399225	54.5609	-110.4314	768.1	169.7	278.9	-0.1	4.3	0.88	51.61	1.9561	399.4805
13226	1509399226	54.5611	-110.4325	767.4	170.2	279.7	-0.2	3.8	0.88	51.61	1.9558	400.6698
13227	1509399227	54.5612	-110.4336	766.9	167.9	278.6	0.2	5.2	0.88	51.61	1.9560	400.6698
13228	1509399228	54.5614	-110.4347	766.6	166.6	278.8	0.7	5.1	0.88	51.61	1.9563	400.6698
13229	1509399229	54.5615	-110.4358	766.5	163.8	278.9	1.1	4.9	0.88	51.61	1.9565	400.6698
13230	1509399230	54.5617	-110.4369	766.4	164.5	279.0	1.0	4.6	0.88	51.61	1.9568	400.6698
13231	1509399231	54.5618	-110.4380	766.2	162.9	278.6	1.0	4.8	0.88	51.61	1.9571	400.0171
13232	1509399232	54.5619	-110.4391	766.4	164.3	278.5	1.4	4.5	0.88	51.61	1.9581	400.9435
13233	1509399233	54.5621	-110.4403	766.7	163.7	279.2	1.2	3.6	0.88	51.61	1.9575	401.0081
13234	1509399234	54.5622	-110.4414	766.9	164.9	278.8	1.1	4.1	0.88	51.61	1.9578	401.0600
13235	1509399235	54.5623	-110.4418	766.8	164.1	278.7	0.9	4.2	0.88	51.61	1.9569	401.1441
13236	1509399236	54.5623	-110.4419	766.7	164.0	278.8	0.8	4.1	0.88	51.61	1.9538	401.5154
13237	1509399237	54.5623	-110.4421	766.6	164.3	278.9	0.6	3.9	0.88	51.61	1.9552	400.9862
13238	1509399238	54.5623	-110.4424	766.6	164.2	279.1	0.6	3.7	0.88	51.61	1.9569	399.4630
13239	1509399239	54.5625	-110.4437	766.2	164.3	278.8	1.0	4.4	0.88	51.61	1.9574	400.1115
13240	1509399240	54.5627	-110.4450	766.5	166.3	278.4	1.1	4.8	0.88	51.61	1.9567	401.1957
13241	1509399241	54.5628	-110.4463	766.8	167.8	278.4	1.2	4.9	0.88	51.61	1.9549	398.5073
13242	1509399242	54.5630	-110.4475	767.0	169.0	278.7	0.6	4.3	0.88	51.61	1.9536	400.6048
13243	1509399243	54.5631	-110.4488	766.9	168.9	278.3	0.6	4.5	0.88	51.61	1.9545	400.3778
13244	1509399244	54.5633	-110.4500	766.8	169.5	278.4	0.9	3.7	0.88	51.61	1.9569	401.1346
13245	1509399245	54.5634	-110.4513	766.2	168.5	277.4	0.5	4.6	0.88	51.61	1.9557	401.1078
13246	1509399246	54.5636	-110.4526	765.8	169.0	276.8	0.5	4.9	0.88	51.61	1.9569	401.4665
13247	1509399247	54.5637	-110.4539	765.2	169.3	277.3	0.7	4.1	0.88	51.61	1.9548	400.6224
13248	1509399248	54.5639	-110.4553	764.5	168.5	276.8	0.6	5.0	0.88	51.61	1.9534	400.0154
13249	1509399249	54.5640	-110.4565	763.7	167.8	277.7	0.9	3.9	0.88	51.61	1.9546	400.8324
13250	1509399250	54.5642	-110.4579	764.4	169.4	278.0	1.0	3.9	0.88	51.61	1.9521	400.5774
13251	1509399251	54.5643	-110.4592	765.8	170.8	277.9	0.8	4.5	0.88	51.61	1.9528	400.6005
13252	1509399252	54.5645	-110.4604	766.8	172.8	277.0	1.3	5.6	0.88	51.61	1.9524	399.9433
13253	1509399253	54.5646	-110.4617	767.3	175.2	277.0	1.5	5.4	0.88	51.61	1.9522	399.9829
13254	1509399254	54.5648	-110.4630	767.0	176.0	277.3	1.7	5.1	0.88	51.61	1.9535	400.1507
13255	1509399255	54.5649	-110.4643	766.9	176.6	277.4	1.5	5.1	0.88	51.61	1.9536	401.4270
13256	1509399256	54.5651	-110.4655	767.3	176.3	278.0	1.3	4.5	0.88	51.61	1.9544	401.2523
13257	1509399257	54.5652	-110.4668	767.7	177.1	277.6	1.6	4.6	0.88	51.61	1.9552	398.7589
13258	1509399258	54.5654	-110.4681	768.3	177.3	278.4	1.6	3.7	0.88	51.61	1.9541	399.7878
13259	1509399259	54.5655	-110.4693	768.8	177.8	277.1	1.5	5.0	0.88	51.61	1.9533	401.0659
13260	1509399260	54.5656	-110.4704	769.1	177.7	277.4	1.6	4.3	0.88	51.61	1.9553	401.0231
13261	1509399261	54.5658	-110.4715	769.6	179.3	277.1	1.7	4.6	0.88	51.61	1.9573	400.8892
13262	1509399262	54.5659	-110.4726	770.5	179.6	277.2	1.4	4.1	0.88	51.61	1.9561	400.0767
13263	1509399263	54.5660	-110.4737	770.7	180.1	277.3	0.8	3.9	0.88	51.61	1.9548	401.3701
13264	1509399264	54.5661	-110.4748	770.0	179.2	276.8	0.5	4.7	0.88	51.61	1.9540	399.9774
13265	1509399265	54.5662	-110.4760	768.7	177.7	276.3	0.6	5.4	0.88	51.61	1.9554	400.1202
13266	1509399266	54.5663	-110.4771	766.7	175.7	276.6	0.6	5.2	0.88	51.61	1.9530	401.3484
13267	1509399267	54.5665	-110.4782	764.0	171.8	277.3	0.6	4.7	0.88	51.61	1.9535	401.2418
13268	1509399268	54.5666	-110.4793	762.2	169.3	277.6	1.0	4.9	0.88	51.61	1.9530	400.7663
13269	1509399269	54.5667	-110.4805	761.4	166.7	277.8	0.7	5.1	0.88	51.61	1.9578	400.1953
13270	1509399270	54.5669	-110.4816	760.7	164.9	278.4	1.0	4.6	0.88	51.61	1.9611	399.7054
13271	1509399271	54.5670	-110.4827	760.8	162.7	279.2	0.8	3.3	0.88	51.61	1.9606	401.3987
13272	1509399272	54.5672	-110.4839	761.6	162.6	279.9	0.6	2.3	0.88	51.61	1.9592	400.3139
13273	1509399273	54.5673	-110.4850	761.8	162.8	279.0	0.4	3.5	0.88	51.61	1.9559	400.1820
13274	1509399274	54.5674	-110.4861	762.3	163.3	278.3	0.1	4.5	0.88	51.61	1.9558	401.3175
13275	1509399275	54.5676	-110.4872	762.7	163.7	278.3	0.2	4.5	0.88	51.61	1.9599	401.5913
13276	1509399276	54.5677	-110.4884	763.6	164.7	278.1	0.4	4.7	0.88	51.61	1.9603	401.5913
13277	1509399277	54.5678	-110.4895	764.7	165.7	278.4	0.3	4.1	0.88	51.61	1.9605	400.4900
13278	1509399278	54.5680	-110.4906	765.4	166.7	278.8	0.8	3.2	0.88	51.61	1.9608	400.5235
13279	1509399279	54.5681	-110.4918	766.9	168.9	277.5	0.3	4.3	0.88	51.61	1.9557	401.1220
13280	1509399280	54.5682	-110.4929	768.2	171.3	276.8	0.3	4.8	0.88	51.61	1.9571	399.9158
13281	1509399281	54.5683	-110.4940	769.4	172.2	276.0	1.0	5.5	0.88	51.61	1.9591	400.5508
13282	1509399282	54.5685	-110.4951	769.8	172.1	276.0	1.6	5.6	0.88	51.61	1.9611	400.5508
13283	1509399283	54.5686	-110.4962	769.8	173.2	276.4	1.4	5.6	0.88	51.61	1.9609	400.1268
13284	1509399284	54.5687	-110.4973	770.5	173.8	277.4	1.3	4.9	0.88	51.61	1.9609	399.2081
13285	1509399285	54.5688	-110.4985	771.5	175.3	277.7	1.4	4.8	0.88	51.61	1.9617	400.3565
13286	1509399286	54.5690	-110.4995	771.9	175.3	277.3	1.5	5.1	0.88	51.61	1.9640	400.5995
13287	1509399287	54.5691	-110.5007	772.0	173.8	277.8	1.1	4.3	0.88	51.61	1.9639	400.5995
13288	1509399288	54.5692	-110.5018	771.6	172.9	277.4	0.9	4.8	0.88	51.61	1.9638	400.5995
13289	1509399289	54.5694	-110.5029	771.7	171.7	277.0	0.9	5.4	0.88	51.61	1.9636	400.5995
13290	1509399290	54.5695	-110.5040	771.6	170.6	276.8	1.2	5.6	0.88	51.61	1.9635	400.5995
13291	1509399291	54.5696	-110.5051	771.9	170.9	277.0	1.1	5.3	0.88	51.61	1.9634	400.5995
13292	1509399292	54.5697	-110.5062	772.1	170.1	277.2	0.5	5.2	0.88	51.61	1.9633	400.5995
13293	1509399293	54.5699	-110.5073	772.1	170.1	277.1	0.7	5.2	0.88	51.61	1.9632	400.5995
13294	1509399294	54.5700	-110.5085	772.6	169.7	277.8	0.7	4.3	0.88	51.61	1.9638	400.9009
13295	1509399295	54.5700	-110.5088	772.7	170.4	278.1	0.6	4.1	0.88	51.61	1.9650	400.6140
13296	1509399296	54.5700	-110.5089	772.7	170.4	278.1	0.6	4.0	0.88	51.61	1.9671	399.9014
13297	1509399297	54.5701	-110.5089	772.7	169.7	278.1	0.5	4.0	0.88	51.61	1.9669	401.1046
13298	1509399298	54.5701	-110.5090	772.7	169.7	278.2	0.4	3.9	0.88	51.61	1.9664	400.2910
13299	1509399299	54.5701	-110.5091	772.7	169.7	278.2	0.3	3.9	0.88	51.61	1.9680	400.7335
13300	1509399300	54.5701	-110.5092	772.7	169.7	278.3	0.2	3.9	0.88	51.61	1.9675	401.0880
13301	1509399301	54.5701	-110.5093	772.7	169.7	278.3	0.2	3.8	0.88	51.61	1.9678	401.5108
13302	1509399302	54.5702	-110.5104	773.1	170.1	277.9	0.8	4.1	0.88	51.61	1.9672	400.6623
13303	1509399303	54.5704	-110.5116	773.5	170.5	277.8	1.1	4.2	0.88	51.61	1.9664	400.4015
13304	1509399304	54.5705	-110.5129	773.7	170.7	277.7	0.6	4.3	0.88	51.61	1.9683	400.1787
13305	1509399305	54.5707	-110.5142	773.2	171.2	278.4	0.2	3.6	0.88	51.61	1.9699	401.0486
13306	1509399306	54.5708	-110.5154	772.4	170.4	278.0	0.3	4.0	0.88	51.61	1.9717	401.0752
13307	1509399307	54.5709	-110.5166	772.0	170.0	277.9	0.7	4.4	0.88	51.61	1.9695	400.9622
13308	1509399308	54.5711	-110.5180	771.1	170.1	277.6	0.6	4.9	0.88	51.61	1.9697	401.5670
13309	1509399309	54.5712	-110.5192	770.2	170.1	277.6	1.1	5.4	0.88	51.61	1.9694	401.5670
13310	1509399310	54.5714	-110.5205	768.7	171.8	277.9	1.4	5.5	0.88	51.61	1.9706	399.8198
13311	1509399311	54.5716	-110.5218	767.0	173.2	278.9	1.6	4.6	0.88	51.61	1.9685	399.8684
13312	1509399312	54.5717	-110.5231	766.2	176.2	279.4	1.4	4.3	0.88	51.61	1.9703	401.6882
13313	1509399313	54.5719	-110.5245	766.5	175.5	279.8	1.3	3.8	0.88	51.61	1.9699	401.5516
13314	1509399314	54.5721	-110.5258	767.1	172.8	279.7	0.9	4.2	0.88	51.61	1.9698	400.8614
13315	1509399315	54.5723	-110.5271	767.6	168.6	280.3	0.4	4.0	0.88	51.61	1.9692	401.0224
13316	1509399316	54.5724	-110.5283	768.0	165.9	280.1	0.1	4.6	0.88	51.61	1.9693	400.9856
13317	1509399317	54.5726	-110.5296	768.6	165.6	280.2	0.2	4.6	0.88	51.61	1.9691	400.0567
13318	1509399318	54.5728	-110.5309	768.9	164.9	280.3	0.6	4.1	0.88	51.61	1.9679	399.5850
13319	1509399319	54.5730	-110.5323	769.1	164.1	279.7	0.2	4.7	0.88	51.61	1.9694	401.5875
13320	1509399320	54.5732	-110.5336	768.8	162.8	279.4	0.5	4.8	0.88	51.61	1.9692	400.2574
13321	1509399321	54.5734	-110.5349	768.6	162.6	279.4	0.7	4.9	0.88	51.61	1.9686	400.5547
13322	1509399322	54.5735	-110.5362	769.0	162.7	279.5	0.7	5.1	0.88	51.61	1.9687	400.5547
13323	1509399323	54.5737	-110.5374	768.9	161.9	279.6	0.8	5.5	0.88	51.61	1.9693	400.5466
13324	1509399324	54.5739	-110.5387	768.8	160.8	280.2	0.6	4.9	0.88	51.61	1.9689	400.0614
13325	1509399325	54.5741	-110.5400	768.2	159.2	280.4	0.5	4.6	0.88	51.61	1.9692	401.0756
13326	1509399326	54.5743	-110.5412	767.0	158.0	280.7	0.3	3.9	0.88	51.61	1.9682	399.1909
13327	1509399327	54.5744	-110.5425	767.0	158.0	279.3	0.6	5.0	0.88	51.61	1.9680	400.4872
13328	1509399328	54.5746	-110.5438	767.0	158.0	279.3	0.1	4.4	0.88	51.61	1.9669	400.4872
13329	1509399329	54.5748	-110.5451	767.0	157.0	278.6	0.0	4.9	0.88	51.61	1.9678	399.7551
13330	1509399330	54.5749	-110.5464	768.2	157.2	278.8	0.3	4.3	0.88	51.61	1.9673	401.0115
13331	1509399331	54.5751	-110.5477	769.4	157.4	279.1	0.4	4.1	0.88	51.61	1.9710	400.7548
13332	1509399332	54.5753	-110.5490	770.7	157.7	278.7	0.4	4.7	0.88	51.61	1.9840	399.7078
13333	1509399333	54.5754	-110.5503	771.3	157.3	279.7	0.5	3.7	0.88	51.61	1.9982	409.7083
13334	1509399334	54.5756	-110.5516	771.7	156.7	279.5	0.6	4.1	0.88	51.61	1.9932	407.9405
13335	1509399335	54.5758	-110.5529	772.1	157.1	279.5	0.7	4.1	0.88	51.61	1.9953	409.2446
13336	1509399336	54.5759	-110.5542	773.1	158.1	279.2	0.9	4.1	0.88	51.61	1.9973	434.3588
13337	1509399337	54.5761	-110.5554	774.8	158.8	280.2	0.3	3.0	0.88	51.61	1.9851	434.0663
13338	1509399338	54.5763	-110.5567	776.4	159.7	280.4	-0.1	3.0	0.88	51.61	1.9742	402.4879
13339	1509399339	54.5764	-110.5580	777.2	160.2	279.6	0.2	4.5	0.88	51.61	1.9758	401.6391
13340	1509399340	54.5766	-110.5592	777.6	159.6	279.2	0.6	4.9	0.88	51.61	1.9912	400.6421
13341	1509399341	54.5768	-110.5605	778.7	160.7	279.5	1.2	3.9	0.88	51.61	1.9972	400.9061
13342	1509399342	54.5769	-110.5618	781.0	163.0	279.0	1.7	3.6	0.88	51.61	1.9809	400.6487
13343	1509399343	54.5771	-110.5631	784.6	165.6	279.0	0.7	3.0	0.88	51.61	1.9791	401.4647
13344	1509399344	54.5772	-110.5643	786.3	167.3	277.7	0.6	4.1	0.88	51.61	1.9769	400.0623
13345	1509399345	54.5774	-110.5656	787.2	167.2	277.2	0.8	4.4	0.88	51.61	1.9811	399.5318
13346	1509399346	54.5775	-110.5666	787.8	167.8	276.8	0.9	4.8	0.88	51.61	1.9904	400.2369
13347	1509399347	54.5776	-110.5678	787.8	168.5	276.7	1.3	5.0	0.88	51.61	1.9884	401.8129
13348	1509399348	54.5777	-110.5689	787.2	167.2	276.8	1.3	5.2	0.88	51.61	1.9862	401.8129
13349	1509399349	54.5779	-110.5700	786.8	166.8	276.7	1.8	5.3	0.88	51.61	1.9840	401.8129
13350	1509399350	54.5780	-110.5711	787.2	167.2	277.9	1.2	3.9	0.88	51.61	1.9882	400.6202
13351	1509399351	54.5781	-110.5722	787.6	167.6	277.8	1.1	4.4	0.88	51.61	2.0055	399.8095
13352	1509399352	54.5782	-110.5733	787.7	167.7	278.5	1.5	3.8	0.88	51.61	2.0097	398.5028
13353	1509399353	54.5784	-110.5744	787.8	167.8	278.6	0.7	4.1	0.88	51.61	2.0072	400.5214
13354	1509399354	54.5785	-110.5755	787.4	167.4	277.8	0.7	5.2	0.88	51.61	2.0150	400.2963
13355	1509399355	54.5786	-110.5759	787.2	167.6	277.8	0.8	5.3	0.88	51.61	2.0163	399.9816
13356	1509399356	54.5786	-110.5760	787.1	167.6	277.8	0.9	5.3	0.88	51.61	2.0166	401.0437
13357	1509399357	54.5786	-110.5762	787.1	167.7	277.9	1.0	5.2	0.88	51.61	2.0229	400.4656
13358	1509399358	54.5786	-110.5764	787.0	168.0	278.0	1.1	5.2	0.88	51.61	2.0176	401.1691
13359	1509399359	54.5788	-110.5776	786.5	168.5	278.7	1.1	4.6	0.88	51.61	2.0173	400.8781
13360	1509399360	54.5789	-110.5789	786.4	169.7	278.9	1.0	4.1	0.88	51.61	2.0210	400.6170
13361	1509399361	54.5791	-110.5801	785.8	170.2	279.0	1.1	4.1	0.88	51.61	2.0274	400.5983
13362	1509399362	54.5792	-110.5814	785.4	171.0	278.1	1.2	5.3	0.88	51.61	2.0300	399.9277
13363	1509399363	54.5794	-110.5826	784.6	170.2	278.3	1.2	5.4	0.88	51.61	2.0321	400.5092
13364	1509399364	54.5796	-110.5839	783.3	170.3	278.3	1.0	5.3	0.88	51.61	2.0332	401.2892
13365	1509399365	54.5797	-110.5852	783.1	170.4	278.4	0.9	5.3	0.88	51.61	2.0338	401.3686
13366	1509399366	54.5799	-110.5865	783.5	169.9	279.0	1.0	4.5	0.88	51.61	2.0361	401.3706
13367	1509399367	54.5801	-110.5878	784.4	173.1	278.8	1.0	4.6	0.88	51.61	2.0349	400.1293
13368	1509399368	54.5802	-110.5891	784.6	179.3	278.7	1.0	4.5	0.88	51.61	2.0284	400.8219
13369	1509399369	54.5804	-110.5904	784.4	190.4	277.8	1.1	5.3	0.88	51.61	2.0248	400.2095
13370	1509399370	54.5806	-110.5916	784.2	193.2	278.5	0.9	4.4	0.88	51.61	2.0180	401.0757
13371	1509399371	54.5807	-110.5929	783.7	187.7	278.4	1.1	4.3	0.88	51.61	2.0119	400.1351
13372	1509399372	54.5809	-110.5942	782.7	174.2	278.3	0.9	4.3	0.88	51.61	2.0142	399.5183
13373	1509399373	54.5810	-110.5955	780.1	166.4	278.9	0.5	3.3	0.88	51.61	2.0074	400.9561
13374	1509399374	54.5812	-110.5968	776.9	169.2	278.5	1.2	4.0	0.88	51.61	2.0109	399.9294
13375	1509399375	54.5813	-110.5981	774.6	180.3	278.2	1.0	4.3	0.88	51.61	2.0140	400.7149
13376	1509399376	54.5815	-110.5995	773.6	185.6	278.4	0.4	4.5	0.88	51.61	2.0114	399.9454
13377	1509399377	54.5817	-110.6008	773.4	184.9	278.0	0.9	4.8	0.88	51.61	1.9982	399.4042
13378	1509399378	54.5818	-110.6021	772.9	181.6	278.3	0.9	4.5	0.88	51.61	2.0002	400.4659
13379	1509399379	54.5820	-110.6034	772.2	172.6	278.0	1.3	4.3	0.88	51.61	2.0080	400.4593
13380	1509399380	54.5821	-110.6046	771.3	164.3	278.1	0.7	4.0	0.88	51.61	2.0051	399.8887
13381	1509399381	54.5822	-110.6058	770.6	155.7	276.8	0.8	5.3	0.88	51.61	1.9968	399.6699
13382	1509399382	54.5824	-110.6070	770.6	153.2	276.6	0.8	5.2	0.88	51.61	1.9912	401.1609
13383	1509399383	54.5825	-110.6081	770.9	150.5	277.0	0.9	4.8	0.88	51.61	1.9833	401.2797
13384	1509399384	54.5826	-110.6093	771.8	149.7	277.1	1.1	4.8	0.88	51.61	1.9796	401.5322
13385	1509399385	54.5828	-110.6104	772.5	149.5	277.8	0.7	3.8	0.88	51.61	1.9872	401.1941
13386	1509399386	54.5829	-110.6115	773.7	149.7	277.8	0.7	3.7	0.88	51.61	1.9795	399.7237
13387	1509399387	54.5830	-110.6127	776.7	152.7	276.4	1.0	5.3	0.88	51.61	1.9783	400.6319
13388	1509399388	54.5831	-110.6138	780.4	156.4	276.1	1.3	5.5	0.88	51.61	1.9743	400.1964
13389	1509399389	54.5832	-110.6149	783.5	160.5	277.1	1.2	4.6	0.88	51.61	1.9715	400.8068
13390	1509399390	54.5834	-110.6160	785.9	162.9	277.1	1.6	4.8	0.88	51.61	1.9698	398.3865
13391	1509399391	54.5835	-110.6171	788.0	165.0	277.1	1.9	4.9	0.88	51.61	1.9685	400.4494
13392	1509399392	54.5836	-110.6182	790.2	166.2	277.2	1.6	5.0	0.88	51.61	1.9678	401.4194
13393	1509399393	54.5837	-110.6193	791.3	166.6	277.2	1.5	4.8	0.88	51.61	1.9681	400.4305
13394	1509399394	54.5839	-110.6204	792.2	166.2	278.0	1.5	3.8	0.88	51.61	1.9664	400.5725
13395	1509399395	54.5840	-110.6215	793.2	167.2	277.7	1.5	4.4	0.88	51.61	1.9673	400.0874
13396	1509399396	54.5841	-110.6226	794.1	167.1	276.9	1.4	5.3	0.88	51.61	1.9651	400.1954
13397	1509399397	54.5843	-110.6237	794.7	167.7	277.3	1.3	4.9	0.88	51.61	1.9637	400.3961
13398	1509399398	54.5844	-110.6248	794.7	167.7	276.9	1.3	5.5	0.88	51.61	1.9634	400.8111
13399	1509399399	54.5845	-110.6259	793.9	166.9	277.1	1.3	5.4	0.88	51.61	1.9647	401.1595
13400	1509399400	54.5846	-110.6270	793.3	166.3	277.0	1.7	5.6	0.88	51.61	1.9645	400.3811
13401	1509399401	54.5848	-110.6280	793.3	166.3	277.7	1.6	5.1	0.88	51.61	1.9631	399.6953
13402	1509399402	54.5849	-110.6292	793.8	166.8	277.7	1.6	5.2	0.88	51.61	1.9621	400.4998
13403	1509399403	54.5850	-110.6303	794.1	168.1	279.1	1.3	3.6	0.88	51.61	1.9622	401.0166
13404	1509399404	54.5852	-110.6314	794.3	168.3	279.6	1.4	3.6	0.88	51.61	1.9635	400.7219
13405	1509399405	54.5853	-110.6325	795.0	169.0	278.9	1.4	4.5	0.88	51.61	1.9630	401.1828
13406	1509399406	54.5855	-110.6336	795.1	169.1	279.1	0.9	4.6	0.88	51.61	1.9626	401.9166
13407	1509399407	54.5856	-110.6347	794.9	169.9	278.5	1.0	5.6	0.88	51.61	1.9624	401.9166
13408	1509399408	54.5858	-110.6358	794.8	170.8	278.8	0.9	5.3	0.88	51.61	1.9622	401.9166
13409	1509399409	54.5859	-110.6369	794.6	173.6	278.6	0.8	5.3	0.88	51.61	1.9620	401.9166
13410	1509399410	54.5861	-110.6380	794.3	175.3	278.5	0.7	5.3	0.88	51.61	1.9608	401.3089
13411	1509399411	54.5862	-110.6391	793.9	174.9	278.1	0.6	5.7	0.88	51.61	1.9618	400.6450
13412	1509399412	54.5863	-110.6402	792.8	170.9	278.3	0.9	5.4	0.88	51.61	1.9622	401.4781
13413	1509399413	54.5865	-110.6412	791.3	168.1	278.9	1.5	4.6	0.88	51.61	1.9607	401.4781
13414	1509399414	54.5866	-110.6424	790.1	166.7	279.6	1.4	3.9	0.88	51.61	1.9617	399.9396
13415	1509399415	54.5867	-110.6428	789.9	165.3	279.4	1.2	4.2	0.88	51.61	1.9612	401.1547
13416	1509399416	54.5867	-110.6430	789.9	165.3	279.2	1.1	4.4	0.88	51.61	1.9617	400.8084
13417	1509399417	54.5867	-110.6431	790.0	165.3	279.1	1.0	4.5	0.88	51.61	1.9611	401.2584
13418	1509399418	54.5868	-110.6434	790.0	165.4	278.9	0.8	4.8	0.88	51.61	1.9596	400.3606
13419	1509399419	54.5869	-110.6447	788.9	160.9	278.4	1.3	5.3	0.88	51.61	1.9606	400.3629
13420	1509399420	54.5871	-110.6460	787.2	156.3	278.4	1.0	4.9	0.88	51.61	1.9605	400.4522
13421	1509399421	54.5873	-110.6473	785.4	151.3	278.4	1.1	4.9	0.88	51.61	1.9606	400.3555
13422	1509399422	54.5874	-110.6485	784.5	148.5	278.0	1.4	6.1	0.88	51.61	1.9594	400.6937
13423	1509399423	54.5876	-110.6499	784.4	145.4	281.3	1.2	6.0	0.88	51.61	1.9628	401.4680
13424	1509399424	54.5878	-110.6511	784.2	143.2	285.8	1.0	6.5	0.88	51.61	1.9596	402.4999
13425	1509399425	54.5882	-110.6523	783.5	141.4	293.9	0.9	5.8	0.88	51.61	1.9604	400.5395
13426	1509399426	54.5886	-110.6534	783.8	140.8	301.8	1.3	5.7	0.88	51.61	1.9612	400.4054
13427	1509399427	54.5891	-110.6545	785.5	141.4	308.1	1.3	5.6	0.88	51.61	1.9610	399.9424
13428	1509399428	54.5896	-110.6555	787.2	143.2	314.9	0.1	4.9	0.88	51.61	1.9619	400.3150
13429	1509399429	54.5902	-110.6563	789.3	145.3	319.3	0.9	6.2	0.88	51.61	1.9617	400.7038
13430	1509399430	54.5909	-110.6570	793.6	149.6	326.6	0.9	5.8	0.88	51.61	1.9599	401.0695
13431	1509399431	54.5915	-110.6576	802.7	158.7	333.4	2.7	5.5	0.88	51.61	1.9592	400.3787
13432	1509399432	54.5923	-110.6581	813.9	170.2	339.5	1.5	4.4	0.88	51.61	1.9601	400.5450
13433	1509399433	54.5930	-110.6585	821.3	178.3	343.3	1.3	4.8	0.88	51.61	1.9596	400.4136
13434	1509399434	54.5938	-110.6588	826.6	184.6	344.8	2.4	5.4	0.88	51.61	1.9604	399.7444
13435	1509399435	54.5945	-110.6590	830.3	189.3	347.2	1.8	5.4	0.88	51.61	1.9608	399.7444
13436	1509399436	54.5953	-110.6592	832.5	191.5	346.4	3.2	5.6	0.88	51.61	1.9618	400.6725
13437	1509399437	54.5960	-110.6595	833.5	192.5	346.9	2.6	5.7	0.88	51.61	1.9604	400.1878
13438	1509399438	54.5968	-110.6597	832.8	191.8	346.5	2.7	5.7	0.88	51.61	1.9611	399.0108
13439	1509399439	54.5974	-110.6599	831.2	190.2	346.6	2.6	5.0	0.88	51.61	1.9619	399.0108
13440	1509399440	54.5981	-110.6601	830.5	189.5	345.7	3.4	5.2	0.88	51.61	1.9622	400.5295
13441	1509399441	54.5987	-110.6603	830.4	189.4	346.0	3.5	5.5	0.88	51.61	1.9617	400.7892
13442	1509399442	54.5994	-110.6605	829.9	188.2	348.6	2.1	4.6	0.88	51.61	1.9600	400.7081
13443	1509399443	54.6000	-110.6607	828.9	185.8	350.5	2.3	4.9	0.88	51.61	1.9608	400.2361
13444	1509399444	54.6007	-110.6608	828.1	184.0	352.2	3.2	5.3	0.88	51.61	1.9594	399.6145
13445	1509399445	54.6014	-110.6609	828.0	183.0	355.3	2.6	5.8	0.88	51.61	1.9595	401.3824
13446	1509399446	54.6021	-110.6609	828.3	182.3	357.8	2.7	6.3	0.88	51.61	1.9601	401.1416
13447	1509399447	54.6027	-110.6609	828.7	181.7	0.2	2.8	6.2	0.88	51.61	1.9613	400.7760
13448	1509399448	54.6034	-110.6608	829.5	181.6	2.9	2.0	5.8	0.88	51.61	1.9606	401.4937
13449	1509399449	54.6041	-110.6607	829.7	180.7	4.4	1.2	6.0	0.88	51.61	1.9610	400.4008
13450	1509399450	54.6047	-110.6606	830.0	180.0	3.9	2.0	5.9	0.88	51.61	1.9613	401.0210
13451	1509399451	54.6054	-110.6605	831.0	180.0	3.5	1.9	5.5	0.88	51.61	1.9600	400.8305
13452	1509399452	54.6061	-110.6604	832.7	181.7	2.2	2.4	5.2	0.88	51.61	1.9607	400.7728
13453	1509399453	54.6068	-110.6604	834.8	182.8	1.0	2.5	5.0	0.88	51.61	1.9617	401.4167
13454	1509399454	54.6074	-110.6603	837.4	185.4	0.2	2.2	5.3	0.88	51.61	1.9593	401.2559
13455	1509399455	54.6081	-110.6603	840.0	188.0	359.2	2.5	5.5	0.88	51.61	1.9611	401.3762
13456	1509399456	54.6087	-110.6603	842.7	190.7	358.8	2.5	5.4	0.88	51.61	1.9607	401.3762
13457	1509399457	54.6094	-110.6602	844.9	192.9	359.1	2.0	4.9	0.88	51.61	1.9597	400.5113
13458	1509399458	54.6101	-110.6602	846.9	195.9	359.2	2.2	4.9	0.88	51.61	1.9618	400.4174
13459	1509399459	54.6108	-110.6602	849.1	198.0	358.9	2.5	5.3	0.88	51.61	1.9608	400.3396
13460	1509399460	54.6114	-110.6602	850.8	201.6	359.2	2.3	5.5	0.88	51.61	1.9595	400.5892
13461	1509399461	54.6121	-110.6602	852.1	204.1	-0.5	2.0	5.5	0.88	51.61	1.9592	400.6228
13462	1509399462	54.6127	-110.6601	853.3	206.2	-0.3	1.9	5.5	0.88	51.61	1.9596	401.3357
13463	1509399463	54.6134	-110.6601	853.7	207.6	-0.6	2.5	5.6	0.88	51.61	1.9596	401.3392
13464	1509399464	54.6141	-110.6601	854.1	209.1	-0.2	2.2	5.7	0.88	51.61	1.9610	401.0142
13465	1509399465	54.6147	-110.6600	854.4	209.4	0.3	2.0	5.9	0.88	51.61	1.9604	400.9056
13466	1509399466	54.6154	-110.6600	853.6	207.6	0.7	1.9	6.1	0.88	51.61	1.9602	401.4605
13467	1509399467	54.6160	-110.6600	852.4	206.4	0.4	2.6	6.1	0.88	51.61	1.9600	401.4605
13468	1509399468	54.6167	-110.6599	851.3	204.3	0.2	2.8	6.0	0.88	51.61	1.9597	401.4605
13469	1509399469	54.6174	-110.6599	850.6	203.0	1.0	1.9	5.7	0.88	51.61	1.9595	401.4605
13470	1509399470	54.6180	-110.6598	850.1	202.1	1.2	1.7	5.5	0.88	51.61	1.9610	400.2822
13471	1509399471	54.6187	-110.6598	850.1	202.1	0.7	2.4	5.9	0.88	51.61	1.9589	402.0353
13472	1509399472	54.6194	-110.6597	850.1	202.1	0.9	2.1	6.3	0.88	51.61	1.9601	401.5066
13473	1509399473	54.6201	-110.6597	849.3	200.6	0.4	2.4	6.3	0.88	51.61	1.9602	401.2756
13474	1509399474	54.6208	-110.6596	848.0	199.0	0.4	2.4	5.8	0.88	51.61	1.9604	401.6702
13475	1509399475	54.6210	-110.6596	847.4	198.4	0.2	2.5	5.7	0.88	51.61	1.9600	399.4327
13476	1509399476	54.6211	-110.6596	847.2	198.2	0.2	2.5	5.6	0.88	51.61	1.9599	400.7798
13477	1509399477	54.6212	-110.6596	846.9	197.9	0.1	2.5	5.6	0.88	51.61	1.9589	400.5891
13478	1509399478	54.6213	-110.6596	846.7	197.7	0.0	2.5	5.5	0.88	51.61	1.9585	400.7929
13479	1509399479	54.6221	-110.6596	845.0	195.0	-0.1	2.5	5.3	0.88	51.61	1.9590	401.8654
13480	1509399480	54.6229	-110.6595	843.4	193.4	-0.3	2.7	5.1	0.88	51.61	1.9608	399.9276
13481	1509399481	54.6237	-110.6595	842.0	192.0	-0.2	2.6	5.3	0.88	51.61	1.9602	400.5754
13482	1509399482	54.6245	-110.6594	841.0	192.0	0.1	2.4	5.1	0.88	51.61	1.9609	401.0563
13483	1509399483	54.6253	-110.6594	839.7	191.7	0.3	2.1	5.4	0.88	51.61	1.9638	401.9660
13484	1509399484	54.6261	-110.6593	837.8	189.8	0.0	2.0	5.1	0.88	51.61	1.9645	401.5236
13485	1509399485	54.6269	-110.6593	836.5	188.4	-0.1	1.9	4.7	0.88	51.61	1.9618	401.1910
13486	1509399486	54.6277	-110.6593	835.2	188.2	-0.5	2.0	5.0	0.88	51.61	1.9621	401.6185
13487	1509399487	54.6285	-110.6593	833.5	186.5	359.2	2.4	6.1	0.88	51.61	1.9616	400.7196
13488	1509399488	54.6293	-110.6592	832.3	185.3	0.0	1.6	6.0	0.88	51.61	1.9629	401.3546
13489	1509399489	54.6301	-110.6592	831.1	184.1	-0.5	2.1	5.7	0.88	51.61	1.9629	401.3150
13490	1509399490	54.6310	-110.6592	830.1	182.4	-0.3	2.1	5.5	0.88	51.61	1.9616	401.3150
13491	1509399491	54.6318	-110.6591	828.6	180.5	-0.6	2.8	5.4	0.88	51.61	1.9595	401.1744
13492	1509399492	54.6326	-110.6591	828.7	179.9	0.9	1.6	5.8	0.88	51.61	1.9592	400.9890
13493	1509399493	54.6334	-110.6590	829.4	180.4	0.6	2.1	5.9	0.88	51.61	1.9600	400.4937
13494	1509399494	54.6343	-110.6590	829.9	180.9	0.4	1.9	5.9	0.88	51.61	1.9611	400.8039
13495	1509399495	54.6351	-110.6590	829.8	180.8	0.6	1.6	5.9	0.88	51.61	1.9604	400.7595
13496	1509399496	54.6359	-110.6589	830.2	181.2	0.1	1.9	6.0	0.88	51.61	1.9626	400.1453
13497	1509399497	54.6367	-110.6589	830.5	182.5	0.0	1.8	5.9	0.88	51.61	1.9641	401.5489
13498	1509399498	54.6376	-110.6588	830.5	183.4	-0.3	2.0	6.1	0.88	51.61	1.9632	401.6505
13499	1509399499	54.6383	-110.6588	829.6	184.6	-0.3	2.3	5.9	0.88	51.61	1.9618	401.9214
13500	1509399500	54.6391	-110.6588	828.4	184.7	0.2	1.9	5.8	0.88	51.61	1.9621	400.3837
13501	1509399501	54.6398	-110.6587	828.0	187.0	-0.1	2.6	5.9	0.88	51.61	1.9656	400.3155
13502	1509399502	54.6405	-110.6587	827.8	187.8	0.0	2.2	5.9	0.88	51.61	1.9635	400.8693
13503	1509399503	54.6412	-110.6587	827.6	189.6	0.6	1.5	6.0	0.88	51.61	1.9644	400.7795
13504	1509399504	54.6419	-110.6586	826.9	191.0	-0.4	2.8	5.9	0.88	51.61	1.9647	400.0949
13505	1509399505	54.6426	-110.6586	826.1	191.9	0.0	2.6	5.7	0.88	51.61	1.9637	400.4951
13506	1509399506	54.6434	-110.6586	825.2	192.2	0.0	2.9	5.8	0.88	51.61	1.9648	401.3896
13507	1509399507	54.6441	-110.6585	824.1	191.7	0.8	2.3	6.0	0.88	51.61	1.9631	401.2497
13508	1509399508	54.6448	-110.6585	823.1	191.4	1.1	2.2	6.0	0.88	51.61	1.9632	400.2355
13509	1509399509	54.6455	-110.6584	822.4	191.4	1.6	1.8	5.7	0.88	51.61	1.9607	400.6814
13510	1509399510	54.6463	-110.6583	822.3	191.3	1.7	1.8	5.7	0.88	51.61	1.9633	401.4380
13511	1509399511	54.6470	-110.6583	822.3	191.3	1.4	2.1	5.7	0.88	51.61	1.9647	401.2261
13512	1509399512	54.6477	-110.6582	822.3	191.3	1.0	2.2	5.7	0.88	51.61	1.9660	401.2261
13513	1509399513	54.6484	-110.6582	822.4	191.9	0.9	2.0	5.7	0.88	51.61	1.9667	400.5494
13514	1509399514	54.6492	-110.6581	822.7	192.3	0.3	2.4	5.2	0.88	51.61	1.9675	400.5494
13515	1509399515	54.6499	-110.6581	823.1	192.6	0.8	1.2	4.6	0.88	51.61	1.9658	400.7581
13516	1509399516	54.6506	-110.6580	823.5	192.5	1.3	1.0	5.0	0.88	51.61	1.9667	401.0154
13517	1509399517	54.6513	-110.6580	823.9	192.9	-0.1	2.7	5.0	0.88	51.61	1.9668	400.9836
13518	1509399518	54.6521	-110.6580	823.9	192.9	0.3	2.3	4.9	0.88	51.61	1.9683	400.9709
13519	1509399519	54.6527	-110.6579	824.2	192.5	0.4	2.0	4.9	0.88	51.61	1.9690	399.1996
13520	1509399520	54.6535	-110.6579	824.9	192.9	1.2	1.0	4.3	0.88	51.61	1.9684	401.1635
13521	1509399521	54.6542	-110.6579	825.5	192.6	0.4	1.8	4.2	0.88	51.61	1.9676	401.2883
13522	1509399522	54.6549	-110.6578	826.1	192.1	0.5	1.5	4.5	0.88	51.61	1.9680	400.4181
13523	1509399523	54.6557	-110.6578	826.0	191.0	-0.1	2.5	4.8	0.88	51.61	1.9677	401.0782
13524	1509399524	54.6564	-110.6577	825.7	190.7	1.0	1.3	4.3	0.88	51.61	1.9678	400.7590
13525	1509399525	54.6571	-110.6577	826.1	190.1	1.0	1.5	4.1	0.88	51.61	1.9681	400.2860
13526	1509399526	54.6578	-110.6577	826.4	189.4	0.7	1.9	4.0	0.88	51.61	1.9679	400.1138
13527	1509399527	54.6585	-110.6576	826.7	189.7	0.6	2.1	3.9	0.88	51.61	1.9680	400.1138
13528	1509399528	54.6592	-110.6576	826.7	188.7	1.1	1.5	3.9	0.88	51.61	1.9682	400.1138
13529	1509399529	54.6600	-110.6575	826.2	188.0	1.4	1.6	4.2	0.88	51.61	1.9695	400.4362
13530	1509399530	54.6607	-110.6575	826.7	187.7	0.4	3.0	4.0	0.88	51.61	1.9676	401.1506
13531	1509399531	54.6614	-110.6574	827.9	188.9	1.1	1.9	3.9	0.88	51.61	1.9677	401.1506
13532	1509399532	54.6621	-110.6574	828.5	188.5	1.3	1.8	4.2	0.88	51.61	1.9675	401.0940
13533	1509399533	54.6628	-110.6573	829.1	188.1	0.3	2.7	4.4	0.88	51.61	1.9674	400.7810
13534	1509399534	54.6635	-110.6573	829.9	188.9	1.8	1.0	4.3	0.88	51.61	1.9677	401.4772
13535	1509399535	54.6638	-110.6572	830.3	189.3	1.8	1.0	4.4	0.88	51.61	1.9680	402.0545
13536	1509399536	54.6639	-110.6572	830.4	189.4	1.8	1.1	4.5	0.88	51.61	1.9674	400.4297
13537	1509399537	54.6640	-110.6572	830.5	189.5	1.7	1.2	4.6	0.88	51.61	1.9682	400.5234
13538	1509399538	54.6641	-110.6572	830.6	189.3	1.6	1.3	3.7	0.88	51.61	1.9673	399.9486
13539	1509399539	54.6649	-110.6572	831.5	189.5	1.3	1.7	4.5	0.88	51.61	1.9681	399.9486
13540	1509399540	54.6657	-110.6571	832.7	190.7	0.6	2.1	4.5	0.88	51.61	1.9677	400.6190
13541	1509399541	54.6666	-110.6570	832.7	190.7	0.8	1.9	4.5	0.88	51.61	1.9672	401.1672
13542	1509399542	54.6674	-110.6570	832.8	191.8	0.4	2.0	4.4	0.88	51.61	1.9670	400.1915
13543	1509399543	54.6682	-110.6569	833.6	192.6	0.8	2.0	4.4	0.88	51.61	1.9679	399.8688
13544	1509399544	54.6690	-110.6569	834.6	194.6	0.7	2.1	4.8	0.88	51.61	1.9679	400.6785
13545	1509399545	54.6698	-110.6568	835.5	195.7	1.1	1.9	4.6	0.88	51.61	1.9676	400.3513
13546	1509399546	54.6706	-110.6568	836.1	197.3	1.6	1.4	5.1	0.88	51.61	1.9665	399.1007
13547	1509399547	54.6714	-110.6567	836.6	198.6	1.5	1.7	4.6	0.88	51.61	1.9659	401.1464
13548	1509399548	54.6722	-110.6566	836.8	197.8	2.2	1.2	4.0	0.88	51.61	1.9672	400.5246
13549	1509399549	54.6730	-110.6566	837.5	198.5	2.0	1.7	4.4	0.88	51.61	1.9677	400.3651
13550	1509399550	54.6738	-110.6565	839.3	200.3	2.1	1.8	5.2	0.88	51.61	1.9676	401.5110
13551	1509399551	54.6746	-110.6564	841.0	202.1	1.7	2.3	4.6	0.88	51.61	1.9677	401.0687
13552	1509399552	54.6754	-110.6563	841.9	200.9	0.8	2.9	4.0	0.88	51.61	1.9671	400.9466
13553	1509399553	54.6762	-110.6563	841.4	199.4	1.5	1.5	4.0	0.88	51.61	1.9668	401.7195
13554	1509399554	54.6770	-110.6562	840.0	196.0	1.7	0.7	3.9	0.88	51.61	1.9665	400.8411
13555	1509399555	54.6779	-110.6562	837.8	193.8	0.7	1.8	3.6	0.88	51.61	1.9653	401.0666
13556	1509399556	54.6787	-110.6561	834.9	190.9	0.6	1.4	3.9	0.88	51.61	1.9660	398.8776
13557	1509399557	54.6795	-110.6561	833.3	189.3	-0.3	1.9	4.6	0.88	51.61	1.9668	398.7773
13558	1509399558	54.6803	-110.6561	831.8	187.8	-0.2	1.5	4.8	0.88	51.61	1.9644	401.2788
13559	1509399559	54.6811	-110.6560	830.6	185.9	0.6	0.7	4.6	0.88	51.61	1.9650	402.6936
13560	1509399560	54.6819	-110.6560	829.9	185.0	0.4	1.3	4.5	0.88	51.61	1.9665	399.8310
13561	1509399561	54.6826	-110.6560	829.4	184.4	-0.4	2.2	5.0	0.88	51.61	1.9655	399.8677
13562	1509399562	54.6833	-110.6560	829.1	184.1	-0.5	2.5	4.8	0.88	51.61	1.9666	400.8640
13563	1509399563	54.6840	-110.6559	828.2	184.6	-0.1	2.1	4.7	0.88	51.61	1.9663	399.8997
13564	1509399564	54.6847	-110.6559	827.6	185.7	0.1	1.8	4.7	0.88	51.61	1.9658	399.8997
13565	1509399565	54.6854	-110.6559	827.6	186.6	0.2	1.9	4.7	0.88	51.61	1.9673	401.1411
13566	1509399566	54.6862	-110.6558	827.9	187.9	0.5	1.7	4.7	0.88	51.61	1.9665	400.9550
13567	1509399567	54.6869	-110.6558	828.2	189.2	1.2	1.0	4.6	0.88	51.61	1.9660	401.1669
13568	1509399568	54.6876	-110.6558	828.2	190.2	0.3	2.4	4.6	0.88	51.61	1.9665	401.7773
13569	1509399569	54.6883	-110.6557	828.3	191.3	0.9	1.2	4.4	0.88	51.61	1.9681	401.8073
13570	1509399570	54.6890	-110.6557	827.8	191.8	1.6	0.6	4.4	0.88	51.61	1.9679	401.5452
13571	1509399571	54.6897	-110.6556	827.3	191.3	0.8	1.6	4.8	0.88	51.61	1.9671	401.3913
13572	1509399572	54.6904	-110.6556	826.8	190.8	0.7	1.9	4.5	0.88	51.61	1.9684	399.7279
13573	1509399573	54.6911	-110.6556	826.5	189.5	1.2	1.1	4.3	0.88	51.61	1.9659	401.0692
13574	1509399574	54.6918	-110.6555	826.5	189.5	1.4	1.1	4.5	0.88	51.61	1.9670	401.0692
13575	1509399575	54.6926	-110.6555	826.3	189.3	0.4	2.2	4.6	0.88	51.61	1.9667	400.1426
13576	1509399576	54.6933	-110.6554	826.7	189.7	1.0	1.2	4.2	0.88	51.61	1.9672	401.2591
13577	1509399577	54.6940	-110.6554	827.5	190.5	0.2	2.1	4.0	0.88	51.61	1.9673	401.4007
13578	1509399578	54.6947	-110.6553	828.5	191.5	0.2	1.9	4.0	0.88	51.61	1.9664	400.4485
13579	1509399579	54.6954	-110.6553	828.8	192.8	0.2	2.1	3.8	0.88	51.61	1.9677	401.5103
13580	1509399580	54.6961	-110.6553	829.6	193.6	0.7	1.8	3.7	0.88	51.61	1.9665	401.2631
13581	1509399581	54.6969	-110.6552	830.3	194.3	0.9	1.7	3.6	0.88	51.61	1.9661	400.9466
13582	1509399582	54.6976	-110.6552	830.0	193.0	1.2	1.3	3.6	0.88	51.61	1.9669	400.0084
13583	1509399583	54.6983	-110.6551	829.9	192.9	1.2	1.5	3.7	0.88	51.61	1.9666	402.1005
13584	1509399584	54.6990	-110.6551	830.1	193.1	0.5	2.6	3.7	0.88	51.61	1.9671	400.6054
13585	1509399585	54.6997	-110.6550	829.6	192.6	1.4	2.0	3.8	0.88	51.61	1.9667	402.3667
13586	1509399586	54.7004	-110.6550	829.9	192.9	1.7	2.1	3.8	0.88	51.61	1.9666	401.1289
13587	1509399587	54.7011	-110.6549	830.3	193.3	3.5	0.5	3.8	0.88	51.61	1.9668	401.1289
13588	1509399588	54.7018	-110.6548	830.6	193.6	2.8	1.7	4.2	0.88	51.61	1.9670	401.1289
13589	1509399589	54.7025	-110.6547	831.0	193.2	3.3	1.1	4.2	0.88	51.61	1.9672	401.1289
13590	1509399590	54.7032	-110.6546	830.8	191.5	2.4	1.9	4.2	0.88	51.61	1.9674	401.1289
13591	1509399591	54.7040	-110.6546	829.4	187.3	2.8	1.2	4.3	0.88	51.61	1.9677	401.1289
13592	1509399592	54.7047	-110.6545	827.9	184.9	1.9	1.6	4.5	0.88	51.61	1.9679	401.1289
13593	1509399593	54.7054	-110.6544	826.3	183.3	2.1	0.7	4.3	0.88	51.61	1.9682	400.9229
13594	1509399594	54.7061	-110.6544	823.8	180.9	0.9	1.8	4.4	0.88	51.61	1.9670	401.5301
13595	1509399595	54.7063	-110.6544	823.0	180.0	0.1	2.7	4.5	0.88	51.61	1.9695	399.3381
13596	1509399596	54.7064	-110.6544	822.8	179.8	-0.1	2.8	4.4	0.88	51.61	1.9705	401.0571
13597	1509399597	54.7064	-110.6544	822.7	179.7	-0.2	2.9	4.4	0.88	51.61	1.9696	400.9619
13598	1509399598	54.7065	-110.6544	822.5	179.6	-0.3	3.0	4.3	0.88	51.61	1.9698	400.9298
13599	1509399599	54.7065	-110.6544	822.3	179.4	-0.5	3.0	4.2	0.88	51.61	1.9680	401.1850
13600	1509399600	54.7066	-110.6544	822.2	179.3	-0.6	3.1	4.2	0.88	51.61	1.9674	400.9875
13601	1509399601	54.7066	-110.6544	822.0	179.1	359.2	3.2	4.2	0.88	51.61	1.9687	400.8406
13602	1509399602	54.7073	-110.6543	820.3	178.4	0.9	1.2	3.7	0.88	51.61	1.9693	401.8009
13603	1509399603	54.7082	-110.6543	819.6	179.1	0.5	2.0	4.3	0.88	51.61	1.9683	400.6451
13604	1509399604	54.7090	-110.6542	819.1	180.2	1.6	1.5	4.1	0.88	51.61	1.9682	400.6827
13605	1509399605	54.7098	-110.6542	818.6	180.4	1.3	2.3	4.0	0.88	51.61	1.9683	400.6058
13606	1509399606	54.7106	-110.6541	818.0	180.0	1.8	2.0	3.9	0.88	51.61	1.9676	401.8900
13607	1509399607	54.7114	-110.6540	817.6	179.7	1.4	2.1	4.2	0.88	51.61	1.9697	400.4821
13608	1509399608	54.7123	-110.6539	816.7	180.0	1.9	1.3	5.1	0.88	51.61	1.9693	400.7393
13609	1509399609	54.7131	-110.6539	815.8	181.1	0.9	1.8	5.3	0.88	51.61	1.9691	401.1938
13610	1509399610	54.7140	-110.6538	816.1	183.4	0.4	1.9	4.9	0.88	51.61	1.9695	402.0178
13611	1509399611	54.7148	-110.6538	816.8	185.8	0.2	1.7	4.7	0.88	51.61	1.9692	401.7694
13612	1509399612	54.7156	-110.6538	817.6	187.6	0.4	1.6	4.6	0.88	51.61	1.9696	401.7774
13613	1509399613	54.7165	-110.6537	818.2	188.2	0.1	2.1	4.6	0.88	51.61	1.9722	400.6237
13614	1509399614	54.7173	-110.6537	817.9	187.9	0.7	1.5	4.4	0.88	51.61	1.9724	401.5473
13615	1509399615	54.7181	-110.6536	817.5	187.5	0.6	2.1	3.9	0.88	51.61	1.9729	400.7592
13616	1509399616	54.7189	-110.6536	817.2	187.2	0.8	2.1	3.5	0.88	51.61	1.9708	400.7592
13617	1509399617	54.7198	-110.6535	816.2	186.2	1.0	1.6	3.6	0.88	51.61	1.9711	401.4395
13618	1509399618	54.7206	-110.6535	814.7	184.7	0.9	2.0	3.7	0.88	51.61	1.9716	400.1488
13619	1509399619	54.7214	-110.6534	813.3	183.3	1.1	2.1	3.8	0.88	51.61	1.9707	399.7291
13620	1509399620	54.7223	-110.6533	812.2	182.2	1.4	2.1	3.9	0.88	51.61	1.9706	399.7291
13621	1509399621	54.7231	-110.6533	811.3	181.3	2.2	1.3	4.3	0.88	51.61	1.9709	402.1545
13622	1509399622	54.7239	-110.6532	811.9	181.9	3.4	0.2	4.4	0.88	51.61	1.9705	402.0326
13623	1509399623	54.7248	-110.6531	812.4	181.3	2.9	0.6	4.8	0.88	51.61	1.9694	400.2149
13624	1509399624	54.7256	-110.6530	812.8	178.5	2.2	1.7	4.7	0.88	51.61	1.9714	401.8760
13625	1509399625	54.7264	-110.6529	813.7	179.7	2.6	1.4	4.7	0.88	51.61	1.9734	401.2436
13626	1509399626	54.7273	-110.6528	814.1	184.1	2.4	1.6	4.1	0.88	51.61	1.9742	400.6916
13627	1509399627	54.7281	-110.6528	815.4	185.4	2.7	1.5	4.2	0.88	51.61	1.9739	401.3382
13628	1509399628	54.7289	-110.6527	816.7	186.7	2.7	1.5	4.5	0.88	51.61	1.9730	401.0443
13629	1509399629	54.7297	-110.6526	818.2	188.2	3.3	0.8	4.4	0.88	51.61	1.9750	400.1738
13630	1509399630	54.7305	-110.6525	819.4	189.4	3.2	1.0	3.9	0.88	51.61	1.9730	400.1738
13631	1509399631	54.7313	-110.6524	819.9	189.9	3.0	1.3	3.7	0.88	51.61	1.9751	400.4787
13632	1509399632	54.7322	-110.6523	819.6	189.6	3.0	1.0	4.1	0.88	51.61	1.9743	400.9146
13633	1509399633	54.7330	-110.6522	818.6	188.6	2.8	1.1	4.0	0.88	51.61	1.9771	402.0758
13634	1509399634	54.7338	-110.6521	817.2	187.2	2.1	2.0	3.6	0.88	51.61	1.9760	400.6577
13635	1509399635	54.7346	-110.6520	816.5	186.5	2.4	1.5	3.4	0.88	51.61	1.9760	401.1979
13636	1509399636	54.7355	-110.6520	816.7	186.7	2.2	1.6	3.8	0.88	51.61	1.9772	400.4337
13637	1509399637	54.7363	-110.6519	816.8	186.8	1.8	1.8	3.7	0.88	51.61	1.9771	400.4337
13638	1509399638	54.7371	-110.6518	816.2	186.2	2.7	0.6	3.4	0.88	51.61	1.9784	401.4618
13639	1509399639	54.7379	-110.6517	816.4	182.4	2.7	0.4	3.9	0.88	51.61	1.9781	401.9469
13640	1509399640	54.7387	-110.6517	816.4	180.5	1.9	1.6	4.4	0.88	51.61	1.9781	399.2442
13641	1509399641	54.7395	-110.6516	816.5	178.9	1.9	1.6	4.3	0.88	51.61	1.9780	401.5369
13642	1509399642	54.7403	-110.6515	816.6	177.0	2.0	1.7	4.3	0.88	51.61	1.9783	401.2398
13643	1509399643	54.7412	-110.6514	816.7	173.1	2.0	1.8	4.0	0.88	51.61	1.9790	401.9394
13644	1509399644	54.7419	-110.6514	817.6	170.9	3.0	1.0	3.6	0.88	51.61	1.9790	400.5973
13645	1509399645	54.7426	-110.6513	820.2	172.3	3.2	1.1	3.7	0.88	51.61	1.9776	401.7765
13646	1509399646	54.7433	-110.6512	823.5	174.5	3.6	0.9	3.9	0.88	51.61	1.9783	401.0554
13647	1509399647	54.7440	-110.6511	825.9	177.0	3.3	1.2	4.0	0.88	51.61	1.9783	401.7250
13648	1509399648	54.7448	-110.6510	827.9	179.6	3.4	0.9	3.7	0.88	51.61	1.9802	401.1739
13649	1509399649	54.7454	-110.6510	830.0	182.5	3.4	0.7	3.7	0.88	51.61	1.9821	402.8339
13650	1509399650	54.7461	-110.6509	831.1	184.5	2.3	1.3	4.0	0.88	51.61	1.9799	401.3863
13651	1509399651	54.7468	-110.6508	831.5	184.7	1.6	1.2	4.1	0.88	51.61	1.9795	401.3863
13652	1509399652	54.7475	-110.6508	831.4	184.7	1.5	0.9	4.7	0.88	51.61	1.9811	402.5403
13653	1509399653	54.7482	-110.6507	831.0	184.5	0.8	1.6	5.0	0.88	51.61	1.9804	400.4133
13654	1509399654	54.7489	-110.6507	831.3	186.1	1.1	1.0	4.6	0.88	51.61	1.9805	402.1147
13655	1509399655	54.7492	-110.6507	831.4	185.6	0.8	1.4	4.6	0.88	51.61	1.9807	402.1147
13656	1509399656	54.7494	-110.6507	831.3	185.6	0.4	1.8	4.6	0.88	51.61	1.9817	401.3811
13657	1509399657	54.7501	-110.6506	831.0	184.8	0.0	2.3	4.6	0.88	51.61	1.9838	401.2277
13658	1509399658	54.7509	-110.6506	830.9	183.4	0.6	4.3	5.1	0.88	51.61	1.9840	401.1797
13659	1509399659	54.7517	-110.6504	831.6	182.1	5.9	4.3	4.7	0.88	51.61	1.9846	402.2504
13660	1509399660	54.7525	-110.6501	832.2	182.3	15.9	3.1	4.3	0.88	51.61	1.9840	402.2504
13661	1509399661	54.7532	-110.6496	833.4	182.6	26.3	3.2	3.7	0.88	51.61	1.9832	401.6386
13662	1509399662	54.7539	-110.6489	834.2	183.1	37.1	2.7	3.4	0.88	51.61	1.9855	401.4311
13663	1509399663	54.7545	-110.6479	833.5	182.4	47.1	2.6	2.9	0.88	51.61	1.9846	402.2486
13664	1509399664	54.7550	-110.6468	832.7	181.6	58.5	2.0	2.4	0.88	51.61	1.9837	402.2486
13665	1509399665	54.7553	-110.6457	832.7	180.7	68.7	2.0	2.3	0.88	51.61	1.9841	402.0296
13666	1509399666	54.7556	-110.6445	832.8	180.8	77.1	2.3	2.3	0.88	51.61	1.9834	402.0683
13667	1509399667	54.7557	-110.6434	832.7	180.7	84.0	1.8	3.2	0.88	51.61	1.9826	401.8558
13668	1509399668	54.7558	-110.6422	832.0	179.0	89.3	1.4	5.3	0.88	51.61	1.9834	401.9939
13669	1509399669	54.7558	-110.6411	831.8	178.8	89.7	1.7	4.0	0.88	51.61	1.9832	402.0614
13670	1509399670	54.7558	-110.6400	832.0	178.0	88.6	1.6	2.7	0.88	51.61	1.9818	400.9299
13671	1509399671	54.7559	-110.6389	831.2	177.2	90.1	1.9	3.9	0.88	51.61	1.9824	401.1941
13672	1509399672	54.7559	-110.6376	831.9	177.9	89.5	2.0	2.9	0.88	51.61	1.9814	401.1941
13673	1509399673	54.7559	-110.6365	832.9	178.4	90.6	1.9	3.9	0.88	51.61	1.9804	401.4855
13674	1509399674	54.7560	-110.6353	833.4	178.4	89.9	2.2	3.4	0.88	51.61	1.9796	402.2971
13675	1509399675	54.7560	-110.6342	833.8	178.8	89.8	2.4	3.6	0.88	51.61	1.9801	401.0069
13676	1509399676	54.7560	-110.6330	834.2	179.1	89.5	2.5	3.6	0.88	51.61	1.9788	401.1407
13677	1509399677	54.7561	-110.6319	834.4	179.3	88.8	2.4	3.0	0.88	51.61	1.9790	401.2226
13678	1509399678	54.7561	-110.6307	834.9	179.9	88.8	1.8	3.0	0.88	51.61	1.9794	401.6778
13679	1509399679	54.7561	-110.6295	835.5	180.4	89.3	1.5	3.5	0.88	51.61	1.9779	400.6272
13680	1509399680	54.7562	-110.6284	836.3	180.1	88.7	1.5	3.0	0.88	51.61	1.9755	402.4459
13681	1509399681	54.7562	-110.6273	837.0	181.0	88.9	1.5	3.4	0.88	51.61	1.9762	401.1263
13682	1509399682	54.7563	-110.6261	837.3	181.3	88.3	1.9	2.9	0.88	51.61	1.9768	402.0129
13683	1509399683	54.7563	-110.6249	837.1	180.0	88.7	2.0	3.3	0.88	51.61	1.9767	401.2114
13684	1509399684	54.7564	-110.6238	837.5	179.5	88.8	2.6	3.5	0.88	51.61	1.9764	401.1563
13685	1509399685	54.7564	-110.6226	838.2	179.2	88.9	3.0	3.5	0.88	51.61	1.9755	402.1230
13686	1509399686	54.7564	-110.6215	838.1	178.1	89.3	3.0	3.6	0.88	51.61	1.9762	401.9648
13687	1509399687	54.7565	-110.6203	837.8	177.8	90.0	3.1	3.9	0.88	51.61	1.9750	401.0969
13688	1509399688	54.7565	-110.6192	837.8	177.8	90.6	2.6	4.0	0.88	51.61	1.9775	400.3465
13689	1509399689	54.7565	-110.6180	837.6	178.6	90.7	2.3	3.3	0.88	51.61	1.9754	401.1643
13690	1509399690	54.7566	-110.6169	836.9	177.9	90.8	1.8	3.0	0.88	51.61	1.9751	401.9633
13691	1509399691	54.7566	-110.6157	836.1	177.1	91.3	1.4	3.0	0.88	51.61	1.9757	402.1249
13692	1509399692	54.7566	-110.6145	836.3	176.3	90.9	1.4	2.8	0.88	51.61	1.9751	401.6812
13693	1509399693	54.7566	-110.6134	836.6	176.0	91.6	1.4	3.5	0.88	51.61	1.9723	401.0101
13694	1509399694	54.7566	-110.6122	836.6	175.3	90.8	2.0	2.8	0.88	51.61	1.9726	399.9121
13695	1509399695	54.7566	-110.6111	836.7	174.6	92.0	2.1	4.3	0.88	51.61	1.9723	400.5066
13696	1509399696	54.7566	-110.6099	837.6	174.8	91.0	2.0	3.1	0.88	51.61	1.9735	400.7279
13697	1509399697	54.7567	-110.6087	838.2	174.2	91.5	2.0	3.7	0.88	51.61	1.9714	401.2774
13698	1509399698	54.7567	-110.6076	839.3	175.3	91.7	2.2	3.8	0.88	51.61	1.9722	400.6463
13699	1509399699	54.7567	-110.6064	842.5	178.5	91.5	1.8	3.6	0.88	51.61	1.9714	400.8360
13700	1509399700	54.7567	-110.6053	846.1	182.1	91.1	1.8	3.4	0.88	51.61	1.9711	401.0041
13701	1509399701	54.7567	-110.6042	849.5	184.5	91.2	1.6	3.6	0.88	51.61	1.9702	400.2459
13702	1509399702	54.7567	-110.6030	852.1	187.1	91.0	2.1	3.3	0.88	51.61	1.9721	401.5089
13703	1509399703	54.7568	-110.6019	853.4	187.4	91.6	2.8	3.8	0.88	51.61	1.9723	399.3986
13704	1509399704	54.7568	-110.6007	854.1	187.2	91.2	2.6	3.2	0.88	51.61	1.9711	401.7843
13705	1509399705	54.7568	-110.5996	855.2	187.2	90.8	2.0	2.9	0.88	51.61	1.9700	401.3058
13706	1509399706	54.7568	-110.5985	856.7	187.7	91.2	1.7	3.3	0.88	51.61	1.9687	401.6863
13707	1509399707	54.7568	-110.5974	857.7	187.9	90.7	2.0	3.0	0.88	51.61	1.9688	401.6863
13708	1509399708	54.7568	-110.5962	858.0	187.3	91.4	2.4	3.7	0.88	51.61	1.9689	401.6863
13709	1509399709	54.7569	-110.5951	857.4	187.4	90.7	2.2	2.9	0.88	51.61	1.9690	401.6863
13710	1509399710	54.7569	-110.5940	856.9	186.9	90.6	2.1	3.0	0.88	51.61	1.9691	401.6863
13711	1509399711	54.7569	-110.5928	857.0	186.0	90.9	2.2	3.6	0.88	51.61	1.9707	400.3162
13712	1509399712	54.7569	-110.5917	857.4	185.7	90.2	2.0	3.3	0.88	51.61	1.9715	401.3940
13713	1509399713	54.7570	-110.5905	857.8	185.8	89.4	1.7	3.0	0.88	51.61	1.9735	401.5195
13714	1509399714	54.7570	-110.5894	857.7	184.7	88.9	1.7	2.9	0.88	51.61	1.9711	401.6916
13715	1509399715	54.7570	-110.5890	857.7	184.7	88.5	1.6	2.7	0.88	51.61	1.9697	402.1210
13716	1509399716	54.7570	-110.5890	857.7	184.7	88.4	1.6	2.6	0.88	51.61	1.9697	401.3916
13717	1509399717	54.7570	-110.5889	857.7	184.7	88.4	1.5	2.6	0.88	51.61	1.9700	401.1054
13718	1509399718	54.7570	-110.5888	857.8	184.8	88.3	1.5	2.6	0.88	51.61	1.9688	402.0298
13719	1509399719	54.7570	-110.5887	857.8	184.8	88.2	1.4	2.5	0.88	51.61	1.9700	402.0298
13720	1509399720	54.7570	-110.5886	857.8	184.8	88.1	1.4	2.5	0.88	51.61	1.9710	401.6542
13721	1509399721	54.7570	-110.5885	857.8	184.8	88.0	1.3	2.4	0.88	51.61	1.9708	401.1653
13722	1509399722	54.7571	-110.5875	858.0	184.0	87.3	0.3	2.5	0.88	51.61	1.9705	400.5940
13723	1509399723	54.7571	-110.5862	857.1	184.1	87.3	-0.1	3.3	0.88	51.61	1.9700	400.6154
13724	1509399724	54.7572	-110.5849	856.2	182.2	86.4	0.7	2.7	0.88	51.61	1.9718	401.9251
13725	1509399725	54.7573	-110.5835	854.9	180.9	87.8	0.9	4.1	0.88	51.61	1.9735	401.6232
13726	1509399726	54.7574	-110.5823	853.2	179.2	87.6	0.3	3.3	0.88	51.61	1.9714	401.0115
13727	1509399727	54.7574	-110.5809	852.1	178.1	88.0	0.4	3.2	0.88	51.61	1.9703	402.2686
13728	1509399728	54.7575	-110.5796	851.0	177.0	88.3	1.1	3.1	0.88	51.61	1.9700	401.9609
13729	1509399729	54.7575	-110.5782	849.3	175.3	89.3	1.4	2.9	0.88	51.61	1.9705	400.5423
13730	1509399730	54.7576	-110.5769	848.7	174.7	90.6	1.4	3.0	0.88	51.61	1.9733	400.9020
13731	1509399731	54.7576	-110.5755	848.8	174.1	92.5	1.4	3.8	0.88	51.61	1.9699	401.4926
13732	1509399732	54.7576	-110.5742	849.8	174.8	92.6	1.3	3.4	0.88	51.61	1.9717	401.4030
13733	1509399733	54.7576	-110.5728	851.2	176.2	92.8	1.6	3.5	0.88	51.61	1.9693	400.0726
13734	1509399734	54.7576	-110.5715	852.1	177.2	92.3	2.0	3.3	0.88	51.61	1.9691	401.2106
13735	1509399735	54.7576	-110.5702	852.2	177.4	91.4	2.5	2.8	0.88	51.61	1.9692	401.2768
13736	1509399736	54.7576	-110.5689	852.2	178.2	90.9	3.0	2.8	0.88	51.61	1.9665	400.5829
13737	1509399737	54.7576	-110.5675	854.4	180.4	90.7	2.9	3.2	0.88	51.61	1.9695	401.1048
13738	1509399738	54.7576	-110.5662	859.0	185.0	90.0	2.6	2.7	0.88	51.61	1.9714	401.7435
13739	1509399739	54.7577	-110.5649	862.6	188.6	90.0	2.3	2.8	0.88	51.61	1.9712	400.1589
13740	1509399740	54.7577	-110.5636	864.6	190.6	90.0	1.7	2.9	0.88	51.61	1.9706	400.1589
13741	1509399741	54.7577	-110.5623	865.3	191.3	90.5	1.2	3.2	0.88	51.61	1.9702	401.8025
13742	1509399742	54.7577	-110.5609	864.7	190.7	90.8	1.5	2.7	0.88	51.61	1.9696	401.8025
13743	1509399743	54.7578	-110.5596	864.4	189.4	91.1	2.1	2.2	0.88	51.61	1.9750	401.4353
13744	1509399744	54.7578	-110.5583	864.9	188.9	92.2	1.7	2.7	0.88	51.61	1.9747	401.6268
13745	1509399745	54.7578	-110.5569	865.1	188.1	93.3	1.7	3.4	0.88	51.61	1.9723	400.4081
13746	1509399746	54.7578	-110.5556	864.8	187.8	93.1	1.3	3.0	0.88	51.61	1.9723	399.5804
13747	1509399747	54.7577	-110.5543	863.8	185.8	93.0	1.1	3.3	0.88	51.61	1.9700	400.7435
13748	1509399748	54.7577	-110.5529	863.1	185.1	92.3	1.8	2.9	0.88	51.61	1.9692	401.1077
13749	1509399749	54.7577	-110.5516	861.9	184.4	92.3	1.9	3.2	0.88	51.61	1.9690	400.6583
13750	1509399750	54.7577	-110.5502	860.5	181.5	92.3	1.7	3.3	0.88	51.61	1.9694	401.4566
13751	1509399751	54.7577	-110.5488	859.2	181.2	92.2	1.9	3.2	0.88	51.61	1.9709	402.2184
13752	1509399752	54.7578	-110.5474	858.3	180.3	92.4	2.0	3.2	0.88	51.61	1.9696	400.8740
13753	1509399753	54.7578	-110.5461	857.8	179.8	93.1	2.1	3.9	0.88	51.61	1.9703	400.9687
13754	1509399754	54.7578	-110.5448	858.2	180.2	92.8	2.2	3.5	0.88	51.61	1.9708	400.9687
13755	1509399755	54.7577	-110.5434	858.1	180.7	92.9	2.2	3.6	0.88	51.61	1.9750	401.0062
13756	1509399756	54.7577	-110.5420	858.5	181.6	92.6	1.6	3.4	0.88	51.61	1.9771	401.4648
13757	1509399757	54.7578	-110.5407	860.2	182.3	91.6	1.2	2.5	0.88	51.61	1.9809	400.9043
13758	1509399758	54.7578	-110.5393	862.0	183.9	92.2	1.5	3.7	0.88	51.61	1.9759	400.2100
13759	1509399759	54.7578	-110.5380	863.6	185.9	91.3	1.5	2.7	0.88	51.61	1.9718	400.3264
13760	1509399760	54.7578	-110.5366	864.3	186.3	91.0	1.9	2.7	0.88	51.61	1.9692	401.6100
13761	1509399761	54.7578	-110.5353	863.7	185.7	91.6	2.1	3.1	0.88	51.61	1.9715	401.6122
13762	1509399762	54.7578	-110.5340	863.5	185.5	92.6	2.1	4.1	0.88	51.61	1.9789	401.6189
13763	1509399763	54.7578	-110.5327	863.9	184.9	92.4	2.1	3.8	0.88	51.61	1.9876	401.6080
13764	1509399764	54.7578	-110.5315	864.6	185.7	91.9	1.7	3.1	0.88	51.61	1.9892	400.5215
13765	1509399765	54.7578	-110.5303	865.4	185.4	91.3	1.2	2.4	0.88	51.61	1.9900	400.2342
13766	1509399766	54.7578	-110.5292	865.4	184.4	91.9	1.0	3.3	0.88	51.61	1.9876	400.7683
13767	1509399767	54.7578	-110.5280	865.2	184.2	91.5	1.3	2.6	0.88	51.61	1.9876	401.7485
13768	1509399768	54.7578	-110.5268	864.8	182.8	90.9	1.3	2.1	0.88	51.61	1.9951	400.6073
13769	1509399769	54.7579	-110.5257	864.8	182.8	90.6	1.3	1.2	0.88	51.61	1.9895	401.1671
13770	1509399770	54.7579	-110.5245	864.8	182.8	91.3	1.9	2.0	0.88	51.61	1.9852	401.8039
13771	1509399771	54.7579	-110.5234	864.8	183.8	92.6	2.3	3.3	0.88	51.61	1.9838	399.8240
13772	1509399772	54.7579	-110.5222	864.5	182.5	92.1	2.3	2.9	0.88	51.61	1.9822	400.8268
13773	1509399773	54.7579	-110.5210	864.2	182.2	92.1	2.1	2.8	0.88	51.61	1.9821	400.8268
13774	1509399774	54.7579	-110.5198	863.9	181.0	92.0	1.9	2.7	0.88	51.61	1.9799	400.5409
13775	1509399775	54.7579	-110.5193	863.7	179.7	92.1	1.7	2.9	0.88	51.61	1.9789	401.3283
13776	1509399776	54.7579	-110.5190	863.5	179.5	92.3	2.0	3.1	0.88	51.61	1.9781	400.8916
13777	1509399777	54.7579	-110.5179	862.9	181.9	92.9	1.9	3.7	0.88	51.61	1.9769	401.5586
13778	1509399778	54.7579	-110.5165	862.9	193.2	92.2	1.6	3.0	0.88	51.61	1.9749	400.7904
13779	1509399779	54.7579	-110.5152	862.3	202.7	92.3	1.6	3.0	0.88	51.61	1.9720	401.5107
13780	1509399780	54.7579	-110.5138	861.8	207.8	91.5	1.3	2.3	0.88	51.61	1.9752	399.9453
13781	1509399781	54.7579	-110.5125	860.9	205.9	92.4	1.4	3.3	0.88	51.61	1.9770	400.7047
13782	1509399782	54.7579	-110.5111	860.9	203.6	91.3	1.4	2.0	0.88	51.61	1.9785	400.8789
13783	1509399783	54.7579	-110.5097	860.5	199.8	92.7	1.6	3.6	0.88	51.61	1.9778	400.6459
13784	1509399784	54.7579	-110.5083	859.8	190.4	92.3	2.2	3.0	0.88	51.61	1.9714	399.8563
13785	1509399785	54.7579	-110.5070	859.0	180.0	92.6	2.3	3.4	0.88	51.61	1.9694	400.7597
13786	1509399786	54.7579	-110.5057	858.0	174.6	92.2	2.4	3.0	0.88	51.61	1.9672	399.8548
13787	1509399787	54.7579	-110.5046	856.9	172.2	92.2	2.1	3.3	0.88	51.61	1.9679	399.8548
13788	1509399788	54.7579	-110.5034	856.2	170.2	91.9	2.1	2.9	0.88	51.61	1.9666	400.6360
13789	1509399789	54.7579	-110.5022	855.7	168.5	91.2	1.7	2.7	0.88	51.61	1.9677	400.8136
13790	1509399790	54.7579	-110.5010	856.8	168.6	90.8	1.5	2.8	0.88	51.61	1.9668	400.7321
13791	1509399791	54.7579	-110.4998	859.3	170.5	90.3	2.2	3.1	0.88	51.61	1.9660	401.2118
13792	1509399792	54.7579	-110.4986	862.2	172.4	89.5	1.9	2.5	0.88	51.61	1.9651	401.6490
13793	1509399793	54.7580	-110.4975	865.4	177.5	89.7	2.0	3.0	0.88	51.61	1.9643	400.9862
13794	1509399794	54.7580	-110.4963	867.9	180.8	90.3	1.7	3.2	0.88	51.61	1.9650	400.9380
13795	1509399795	54.7580	-110.4951	870.1	183.1	90.1	1.4	2.7	0.88	51.61	1.9646	401.1787
13796	1509399796	54.7580	-110.4940	872.6	185.7	91.1	1.7	3.3	0.88	51.61	1.9643	400.0448
13797	1509399797	54.7581	-110.4928	874.5	185.2	91.0	2.0	2.9	0.88	51.61	1.9636	400.9805
13798	1509399798	54.7581	-110.4916	876.2	185.9	91.6	2.3	3.2	0.88	51.61	1.9635	400.6380
13799	1509399799	54.7581	-110.4905	878.4	188.3	91.7	1.8	2.8	0.88	51.61	1.9618	399.0570
13800	1509399800	54.7581	-110.4894	879.9	190.9	92.1	2.1	3.0	0.88	51.61	1.9637	399.9882
13801	1509399801	54.7581	-110.4882	880.5	192.2	92.6	2.2	3.2	0.88	51.61	1.9621	400.8766
13802	1509399802	54.7581	-110.4871	880.9	192.8	92.6	2.2	3.0	0.88	51.61	1.9604	400.7186
13803	1509399803	54.7581	-110.4859	880.9	193.8	92.9	2.3	3.2	0.88	51.61	1.9602	400.9972
13804	1509399804	54.7581	-110.4848	880.7	195.4	93.2	2.4	3.6	0.88	51.61	1.9601	400.4875
13805	1509399805	54.7581	-110.4836	880.5	196.1	93.5	2.9	4.0	0.88	51.61	1.9594	400.5108
13806	1509399806	54.7581	-110.4825	879.6	194.8	93.5	3.3	4.0	0.88	51.61	1.9601	400.7867
13807	1509399807	54.7581	-110.4813	878.6	193.3	93.6	3.1	4.1	0.88	51.61	1.9609	401.9428
13808	1509399808	54.7581	-110.4802	877.8	191.8	93.3	2.7	3.7	0.88	51.61	1.9599	401.2127
13809	1509399809	54.7581	-110.4790	877.5	191.1	92.9	2.4	3.4	0.88	51.61	1.9581	400.6169
13810	1509399810	54.7581	-110.4778	877.2	190.1	93.1	2.2	3.8	0.88	51.61	1.9581	401.3869
13811	1509399811	54.7581	-110.4767	876.8	189.7	92.7	2.4	3.7	0.88	51.61	1.9593	401.9682
13812	1509399812	54.7581	-110.4755	876.4	188.4	92.7	2.4	4.0	0.88	51.61	1.9596	403.7735
13813	1509399813	54.7581	-110.4743	876.0	187.0	92.4	2.5	3.8	0.88	51.61	1.9609	403.2607
13814	1509399814	54.7581	-110.4732	876.1	187.1	92.0	2.3	3.7	0.88	51.61	1.9615	404.3624
13815	1509399815	54.7581	-110.4720	876.2	187.9	91.6	2.0	3.3	0.88	51.61	1.9611	404.2592
13816	1509399816	54.7581	-110.4708	876.2	188.1	90.9	2.0	2.7	0.88	51.61	1.9611	405.3533
13817	1509399817	54.7581	-110.4696	875.8	188.5	91.7	2.0	3.5	0.88	51.61	1.9598	404.5402
13818	1509399818	54.7581	-110.4685	875.5	188.5	91.3	1.7	2.8	0.88	51.61	1.9645	406.3995
13819	1509399819	54.7581	-110.4673	875.2	188.2	92.0	1.8	3.5	0.88	51.61	1.9660	406.4369
13820	1509399820	54.7581	-110.4661	874.8	187.8	91.7	1.8	2.6	0.88	51.61	1.9645	404.8942
13821	1509399821	54.7581	-110.4650	874.7	185.9	92.4	1.9	3.1	0.88	51.61	1.9657	407.0114
13822	1509399822	54.7581	-110.4638	874.1	185.0	92.1	2.0	2.4	0.88	51.61	1.9646	406.0656
13823	1509399823	54.7581	-110.4626	873.5	185.5	92.0	2.6	2.3	0.88	51.61	1.9620	406.0656
13824	1509399824	54.7581	-110.4614	873.1	186.0	92.2	2.6	2.6	0.88	51.61	1.9638	407.5275
13825	1509399825	54.7581	-110.4603	872.7	187.8	92.6	2.1	3.3	0.88	51.61	1.9662	410.8780
13826	1509399826	54.7581	-110.4591	872.0	188.6	92.9	1.9	3.5	0.88	51.61	1.9662	408.3620
13827	1509399827	54.7581	-110.4579	871.8	190.5	92.4	2.3	2.8	0.88	51.61	1.9661	408.3620
13828	1509399828	54.7581	-110.4567	871.2	190.9	93.2	2.0	3.8	0.88	51.61	1.9660	408.3620
13829	1509399829	54.7581	-110.4555	870.9	192.7	93.6	2.1	4.1	0.88	51.61	1.9659	408.3620
13830	1509399830	54.7581	-110.4543	870.2	191.8	93.3	2.1	3.9	0.88	51.61	1.9658	408.3620
13831	1509399831	54.7581	-110.4531	869.7	191.3	93.3	1.7	3.8	0.88	51.61	1.9657	408.3620
13832	1509399832	54.7581	-110.4520	869.5	191.8	92.8	1.1	3.5	0.88	51.61	1.9656	408.3620
13833	1509399833	54.7581	-110.4508	869.3	191.9	92.5	1.1	3.0	0.88	51.61	1.9655	408.3620
13834	1509399834	54.7581	-110.4496	869.6	191.1	91.8	1.0	2.4	0.88	51.61	1.9666	409.1626
13835	1509399835	54.7581	-110.4492	869.6	191.1	91.9	1.1	2.6	0.88	51.61	1.9699	408.1215
13836	1509399836	54.7581	-110.4491	869.6	191.0	92.0	1.1	2.7	0.88	51.61	1.9648	408.7615
13837	1509399837	54.7581	-110.4491	869.7	191.1	92.0	1.1	2.7	0.88	51.61	1.9645	408.5723
13838	1509399838	54.7581	-110.4490	869.7	191.1	92.1	1.1	2.8	0.88	51.61	1.9643	407.6783
13839	1509399839	54.7581	-110.4489	869.7	191.1	92.1	2.0	2.8	0.88	51.61	1.9637	407.7573
13840	1509399840	54.7581	-110.4488	869.8	190.3	92.2	2.1	2.9	0.88	51.61	1.9649	407.2602
13841	1509399841	54.7581	-110.4487	869.8	190.3	92.2	2.1	2.9	0.88	51.61	1.9651	407.9087
13842	1509399842	54.7581	-110.4478	870.2	189.8	91.5	2.1	2.1	0.88	51.61	1.9630	407.2638
13843	1509399843	54.7581	-110.4464	870.7	190.6	91.5	2.1	2.5	0.88	51.61	1.9631	406.9544
13844	1509399844	54.7581	-110.4451	870.9	194.8	92.5	2.2	4.1	0.88	51.61	1.9624	407.6847
13845	1509399845	54.7581	-110.4437	870.9	198.6	92.1	2.7	3.8	0.88	51.61	1.9614	407.8239
13846	1509399846	54.7581	-110.4423	871.1	200.0	90.9	2.8	2.9	0.88	51.61	1.9621	408.3350
13847	1509399847	54.7582	-110.4410	871.4	199.3	90.4	2.7	2.6	0.88	51.61	1.9610	407.9203
13848	1509399848	54.7582	-110.4396	872.4	200.1	90.6	2.6	2.8	0.88	51.61	1.9621	405.9638
13849	1509399849	54.7582	-110.4382	873.5	202.3	91.0	2.8	3.0	0.88	51.61	1.9625	405.9265
13850	1509399850	54.7582	-110.4369	874.6	206.3	91.8	2.6	3.9	0.88	51.61	1.9620	405.0750
13851	1509399851	54.7582	-110.4355	875.1	208.5	91.4	2.0	3.2	0.88	51.61	1.9620	405.1595
13852	1509399852	54.7583	-110.4341	875.7	211.2	91.2	1.8	3.2	0.88	51.61	1.9617	405.2003
13853	1509399853	54.7583	-110.4328	876.3	216.0	91.4	1.5	3.4	0.88	51.61	1.9626	405.1894
13854	1509399854	54.7583	-110.4314	876.8	219.2	91.7	1.2	3.4	0.88	51.61	1.9609	405.3287
13855	1509399855	54.7583	-110.4301	877.1	222.3	92.2	1.6	3.5	0.88	51.61	1.9589	405.6966
13856	1509399856	54.7583	-110.4287	877.3	225.9	91.8	2.0	2.0	0.88	51.61	1.9585	404.5036
13857	1509399857	54.7583	-110.4273	877.3	229.2	92.7	1.7	2.5	0.88	51.61	1.9593	404.2483
13858	1509399858	54.7583	-110.4260	876.3	230.0	93.0	1.7	2.3	0.88	51.61	1.9595	404.6113
13859	1509399859	54.7583	-110.4246	874.8	228.4	93.0	1.5	2.0	0.88	51.61	1.9603	403.8737
13860	1509399860	54.7582	-110.4232	872.1	225.8	93.6	1.3	3.0	0.88	51.61	1.9588	404.7213
13861	1509399861	54.7582	-110.4218	869.1	223.0	94.0	1.1	3.5	0.88	51.61	1.9596	403.2796
13862	1509399862	54.7582	-110.4204	867.0	221.9	93.6	1.1	3.2	0.88	51.61	1.9582	404.6667
13863	1509399863	54.7582	-110.4190	865.1	220.7	93.3	1.8	3.2	0.88	51.61	1.9598	404.2440
13864	1509399864	54.7582	-110.4176	863.1	218.0	92.5	1.8	2.7	0.88	51.61	1.9589	404.2440
13865	1509399865	54.7582	-110.4162	861.2	216.2	92.3	1.5	2.8	0.88	51.61	1.9574	404.2665
13866	1509399866	54.7582	-110.4148	859.3	214.3	92.0	1.3	2.6	0.88	51.61	1.9583	404.2665
13867	1509399867	54.7582	-110.4134	857.3	212.2	92.7	1.5	2.9	0.88	51.61	1.9576	403.4760
13868	1509399868	54.7582	-110.4120	854.9	210.6	92.7	1.2	2.8	0.88	51.61	1.9593	403.2820
13869	1509399869	54.7582	-110.4106	852.0	208.5	93.0	0.9	3.0	0.88	51.61	1.9587	402.9887
13870	1509399870	54.7581	-110.4092	849.2	207.7	92.3	1.1	2.2	0.88	51.61	1.9579	402.9832
13871	1509399871	54.7581	-110.4077	845.8	206.5	93.0	1.0	3.4	0.88	51.61	1.9582	403.2123
13872	1509399872	54.7581	-110.4063	843.0	206.7	91.9	1.2	2.1	0.88	51.61	1.9577	404.3781
13873	1509399873	54.7581	-110.4049	840.5	206.4	91.9	1.4	2.1	0.88	51.61	1.9593	404.3728
13874	1509399874	54.7581	-110.4034	838.0	206.0	91.7	1.5	2.0	0.88	51.61	1.9577	403.1222
13875	1509399875	54.7581	-110.4020	836.7	204.7	91.8	1.6	2.2	0.88	51.61	1.9580	403.0149
13876	1509399876	54.7581	-110.4005	836.9	204.9	92.3	1.9	3.1	0.88	51.61	1.9569	402.9467
13877	1509399877	54.7581	-110.3991	837.1	205.1	92.3	2.2	2.9	0.88	51.61	1.9589	403.0876
13878	1509399878	54.7581	-110.3977	836.6	203.6	92.3	2.3	2.9	0.88	51.61	1.9574	401.8729
13879	1509399879	54.7581	-110.3962	836.3	202.3	92.3	2.6	3.0	0.88	51.61	1.9581	401.8729
13880	1509399880	54.7581	-110.3948	836.3	199.4	92.2	2.6	3.3	0.88	51.61	1.9593	403.2303
13881	1509399881	54.7581	-110.3934	836.4	196.1	92.2	2.4	3.3	0.88	51.61	1.9598	402.1483
13882	1509399882	54.7581	-110.3920	836.9	192.9	92.5	2.4	3.8	0.88	51.61	1.9625	401.6179
13883	1509399883	54.7581	-110.3906	836.7	190.7	92.7	2.6	4.0	0.88	51.61	1.9595	402.6003
13884	1509399884	54.7581	-110.3892	836.5	190.7	92.4	2.8	3.7	0.88	51.61	1.9602	402.5459
13885	1509399885	54.7581	-110.3880	835.4	190.4	92.7	2.5	3.7	0.88	51.61	1.9590	402.1295
13886	1509399886	54.7581	-110.3868	834.3	188.3	92.1	2.3	2.9	0.88	51.61	1.9591	402.6875
13887	1509399887	54.7581	-110.3855	834.0	188.0	92.4	2.3	3.1	0.88	51.61	1.9590	402.6875
13888	1509399888	54.7581	-110.3843	834.8	187.8	92.2	2.2	2.8	0.88	51.61	1.9590	402.6875
13889	1509399889	54.7581	-110.3831	835.7	188.7	92.3	2.0	2.8	0.88	51.61	1.9590	402.6875
13890	1509399890	54.7581	-110.3819	836.6	189.6	92.0	1.7	2.4	0.88	51.61	1.9589	402.6875
13891	1509399891	54.7581	-110.3806	837.8	191.8	92.1	1.7	2.6	0.88	51.61	1.9589	402.6875
13892	1509399892	54.7581	-110.3794	839.1	193.1	91.5	1.9	2.7	0.88	51.61	1.9588	402.6875
13893	1509399893	54.7581	-110.3782	840.1	193.1	92.0	1.9	4.2	0.88	51.61	1.9588	402.6496
13894	1509399894	54.7581	-110.3770	840.9	193.9	90.3	2.2	3.0	0.88	51.61	1.9605	402.4105
13895	1509399895	54.7582	-110.3766	841.1	194.1	90.1	2.1	2.9	0.88	51.61	1.9627	404.4299
13896	1509399896	54.7582	-110.3765	841.2	194.2	90.1	2.1	3.0	0.88	51.61	1.9619	402.8843
13897	1509399897	54.7582	-110.3764	841.2	194.2	90.2	2.1	3.1	0.88	51.61	1.9645	403.8373
13898	1509399898	54.7582	-110.3763	841.3	193.6	90.3	2.1	3.2	0.88	51.61	1.9637	403.6396
13899	1509399899	54.7582	-110.3762	841.3	193.6	90.3	2.1	3.3	0.88	51.61	1.9630	404.9358
13900	1509399900	54.7582	-110.3762	841.3	193.7	90.4	2.1	3.4	0.88	51.61	1.9617	404.9358
13901	1509399901	54.7582	-110.3761	841.4	193.6	90.5	2.1	3.5	0.88	51.61	1.9621	404.9790
13902	1509399902	54.7582	-110.3749	841.2	193.2	91.0	1.5	3.6	0.88	51.61	1.9629	404.6659
13903	1509399903	54.7582	-110.3735	840.0	193.0	91.1	1.7	3.1	0.88	51.61	1.9613	404.0709
13904	1509399904	54.7582	-110.3721	837.9	190.9	92.1	1.3	3.8	0.88	51.61	1.9604	403.5652
13905	1509399905	54.7582	-110.3707	836.4	190.4	92.1	1.5	3.4	0.88	51.61	1.9614	404.5098
13906	1509399906	54.7582	-110.3693	835.0	189.0	92.3	1.5	3.6	0.88	51.61	1.9616	404.3550
13907	1509399907	54.7582	-110.3679	833.7	187.7	92.0	1.7	3.4	0.88	51.61	1.9596	404.9914
13908	1509399908	54.7582	-110.3665	832.3	186.3	91.8	2.2	3.4	0.88	51.61	1.9612	404.9914
13909	1509399909	54.7583	-110.3651	831.8	185.0	91.2	3.3	3.0	0.88	51.61	1.9612	404.5304
13910	1509399910	54.7583	-110.3637	832.0	184.0	90.9	2.5	2.9	0.88	51.61	1.9621	403.9759
13911	1509399911	54.7583	-110.3623	833.2	183.8	90.6	2.3	2.4	0.88	51.61	1.9607	404.9852
13912	1509399912	54.7583	-110.3608	834.4	183.5	90.6	2.6	1.6	0.88	51.61	1.9611	405.2997
13913	1509399913	54.7583	-110.3595	835.1	184.1	91.3	2.5	2.0	0.88	51.61	1.9618	405.2997
13914	1509399914	54.7583	-110.3581	835.4	183.4	92.6	2.4	2.6	0.88	51.61	1.9620	406.1471
13915	1509399915	54.7583	-110.3567	835.8	184.8	92.5	2.3	2.1	0.88	51.61	1.9657	404.9864
13916	1509399916	54.7583	-110.3553	836.9	186.8	92.6	2.9	2.0	0.88	51.61	1.9704	404.4744
13917	1509399917	54.7583	-110.3539	838.1	189.1	92.5	3.0	2.0	0.88	51.61	1.9705	406.3611
13918	1509399918	54.7583	-110.3525	839.0	191.0	91.7	3.2	1.3	0.88	51.61	1.9695	405.9583
13919	1509399919	54.7583	-110.3511	839.7	191.7	92.1	3.2	2.2	0.88	51.61	1.9721	405.8441
13920	1509399920	54.7583	-110.3497	840.5	192.5	92.6	3.1	3.0	0.88	51.61	1.9726	405.8365
13921	1509399921	54.7582	-110.3483	841.8	193.8	92.7	2.4	3.4	0.88	51.61	1.9724	404.5057
13922	1509399922	54.7582	-110.3470	843.2	195.2	91.9	2.4	2.9	0.88	51.61	1.9679	406.7743
13923	1509399923	54.7583	-110.3456	843.9	194.9	91.8	2.6	3.0	0.88	51.61	1.9683	407.1037
13924	1509399924	54.7583	-110.3442	843.3	194.4	92.0	2.6	3.1	0.88	51.61	1.9687	404.9751
13925	1509399925	54.7583	-110.3429	842.8	193.1	92.1	2.6	3.2	0.88	51.61	1.9692	406.4783
13926	1509399926	54.7583	-110.3415	842.7	192.7	91.8	2.4	2.8	0.88	51.61	1.9718	405.8305
13927	1509399927	54.7583	-110.3401	842.5	192.5	91.7	2.2	2.7	0.88	51.61	1.9721	406.3145
13928	1509399928	54.7583	-110.3387	842.1	193.1	91.7	2.2	2.7	0.88	51.61	1.9710	406.7984
13929	1509399929	54.7583	-110.3374	841.8	192.8	91.6	2.3	2.6	0.88	51.61	1.9710	405.3418
13930	1509399930	54.7583	-110.3360	841.0	192.0	91.8	2.3	3.0	0.88	51.61	1.9708	405.5172
13931	1509399931	54.7583	-110.3346	840.8	191.8	91.2	2.4	2.3	0.88	51.61	1.9706	405.2639
13932	1509399932	54.7583	-110.3332	840.5	191.6	90.4	2.3	1.5	0.88	51.61	1.9712	406.3678
13933	1509399933	54.7583	-110.3319	838.9	188.9	92.4	2.2	3.4	0.88	51.61	1.9720	404.8773
13934	1509399934	54.7583	-110.3305	837.5	187.2	91.7	2.2	2.3	0.88	51.61	1.9704	404.9204
13935	1509399935	54.7583	-110.3291	836.7	186.4	92.8	2.4	3.2	0.88	51.61	1.9708	407.7445
13936	1509399936	54.7583	-110.3278	836.3	186.0	93.0	2.8	3.4	0.88	51.61	1.9711	405.8400
13937	1509399937	54.7583	-110.3264	836.3	186.0	93.3	2.8	3.8	0.88	51.61	1.9712	406.2390
13938	1509399938	54.7583	-110.3250	836.3	186.0	93.4	3.1	3.4	0.88	51.61	1.9704	406.5021
13939	1509399939	54.7583	-110.3236	837.3	187.0	92.6	2.6	2.4	0.88	51.61	1.9693	407.4192
13940	1509399940	54.7583	-110.3223	837.8	186.8	93.3	3.1	2.7	0.88	51.61	1.9717	407.1795
13941	1509399941	54.7583	-110.3210	838.7	188.6	93.8	3.1	3.3	0.88	51.61	1.9721	407.5883
13942	1509399942	54.7582	-110.3196	839.5	189.4	94.5	3.0	3.3	0.88	51.61	1.9708	407.0510
13943	1509399943	54.7582	-110.3182	840.8	191.7	93.9	2.9	2.4	0.88	51.61	1.9717	407.0797
13944	1509399944	54.7582	-110.3170	841.4	193.4	94.1	2.8	2.5	0.88	51.61	1.9718	405.5728
13945	1509399945	54.7582	-110.3158	841.7	194.4	93.5	2.3	1.8	0.88	51.61	1.9714	404.5207
13946	1509399946	54.7581	-110.3146	842.5	194.5	93.6	1.8	2.1	0.88	51.61	1.9715	405.5685
13947	1509399947	54.7581	-110.3134	843.0	195.0	93.6	1.7	2.1	0.88	51.61	1.9718	405.5685
13948	1509399948	54.7581	-110.3122	843.6	196.3	93.4	2.1	2.3	0.88	51.61	1.9721	405.5685
13949	1509399949	54.7581	-110.3111	844.2	196.9	93.6	2.1	2.8	0.88	51.61	1.9724	405.5685
13950	1509399950	54.7581	-110.3099	844.8	197.8	92.8	2.1	2.2	0.88	51.61	1.9727	405.5685
13951	1509399951	54.7580	-110.3087	845.5	198.5	92.5	2.4	2.2	0.88	51.61	1.9718	404.7800
13952	1509399952	54.7580	-110.3075	845.8	200.5	92.0	2.5	1.8	0.88	51.61	1.9727	404.6102
13953	1509399953	54.7580	-110.3063	845.8	201.8	92.3	2.5	2.2	0.88	51.61	1.9735	404.1957
13954	1509399954	54.7580	-110.3051	845.6	202.6	92.6	2.5	2.3	0.88	51.61	1.9748	402.6960
13955	1509399955	54.7580	-110.3047	845.7	203.7	92.6	2.5	2.3	0.88	51.61	1.9747	403.5459
13956	1509399956	54.7580	-110.3045	845.8	203.8	92.7	2.5	2.4	0.88	51.61	1.9757	403.5904
13957	1509399957	54.7580	-110.3044	845.8	204.2	92.8	2.5	2.5	0.88	51.61	1.9737	402.9338
13958	1509399958	54.7580	-110.3042	846.0	205.0	92.9	2.5	2.6	0.88	51.61	1.9744	402.9338
13959	1509399959	54.7580	-110.3028	847.1	208.4	93.8	1.8	3.3	0.88	51.61	1.9743	402.7251
13960	1509399960	54.7580	-110.3014	847.9	211.8	94.3	1.6	3.7	0.88	51.61	1.9766	403.4602
13961	1509399961	54.7580	-110.3000	848.3	215.6	93.3	2.0	2.1	0.88	51.61	1.9760	403.5887
13962	1509399962	54.7579	-110.2987	848.3	218.3	94.5	2.3	3.3	0.88	51.61	1.9740	403.8748
13963	1509399963	54.7579	-110.2973	849.2	221.1	93.7	2.1	2.0	0.88	51.61	1.9729	403.0440
13964	1509399964	54.7579	-110.2960	849.6	223.6	94.7	2.4	3.0	0.88	51.61	1.9751	402.3465
13965	1509399965	54.7578	-110.2946	849.7	225.7	94.2	2.5	2.2	0.88	51.61	1.9755	401.5893
13966	1509399966	54.7578	-110.2933	849.2	225.2	94.8	2.1	2.0	0.88	51.61	1.9761	403.0712
13967	1509399967	54.7578	-110.2919	848.5	225.5	97.0	1.6	1.0	0.88	51.61	1.9776	403.4436
13968	1509399968	54.7576	-110.2906	847.0	224.3	105.1	1.1	1.3	0.88	51.61	1.9752	402.9959
13969	1509399969	54.7574	-110.2894	844.8	221.7	117.3	1.0	1.7	0.88	51.61	1.9762	401.4555
13970	1509399970	54.7570	-110.2883	842.3	218.2	132.6	0.7	2.1	0.88	51.61	1.9759	401.5805
13971	1509399971	54.7564	-110.2874	840.6	213.9	147.1	0.1	1.7	0.88	51.61	1.9769	402.2640
13972	1509399972	54.7558	-110.2869	839.2	207.8	161.1	0.5	2.6	0.88	51.61	1.9763	403.5012
13973	1509399973	54.7550	-110.2866	836.9	203.2	170.9	1.4	2.7	0.88	51.61	1.9777	403.1005
13974	1509399974	54.7543	-110.2864	834.0	200.1	177.1	1.9	2.4	0.88	51.61	1.9773	401.4977
13975	1509399975	54.7536	-110.2863	832.6	201.0	180.4	2.2	2.2	0.88	51.61	1.9768	402.7768
13976	1509399976	54.7528	-110.2863	830.7	201.4	180.8	1.8	1.9	0.88	51.61	1.9750	402.8841
13977	1509399977	54.7521	-110.2863	828.1	202.8	180.8	1.5	2.0	0.88	51.61	1.9776	402.0414
13978	1509399978	54.7513	-110.2863	825.7	203.4	181.0	1.8	2.3	0.88	51.61	1.9759	401.8400
13979	1509399979	54.7506	-110.2863	824.1	203.6	180.5	1.5	2.0	0.88	51.61	1.9761	402.9163
13980	1509399980	54.7499	-110.2863	823.0	204.1	180.7	1.9	2.4	0.88	51.61	1.9752	402.3604
13981	1509399981	54.7493	-110.2863	821.8	203.5	180.6	1.5	2.3	0.88	51.61	1.9756	402.5080
13982	1509399982	54.7486	-110.2863	820.8	203.0	181.1	1.8	2.2	0.88	51.61	1.9754	402.1503
13983	1509399983	54.7480	-110.2863	820.2	201.4	181.5	1.8	2.7	0.88	51.61	1.9751	402.3825
13984	1509399984	54.7473	-110.2863	820.2	201.3	181.4	1.3	2.3	0.88	51.61	1.9751	401.9768
13985	1509399985	54.7467	-110.2863	820.7	201.7	181.6	1.4	2.3	0.88	51.61	1.9736	401.1351
13986	1509399986	54.7460	-110.2863	821.8	202.9	181.4	1.1	2.0	0.88	51.61	1.9744	402.0143
13987	1509399987	54.7454	-110.2863	823.2	204.3	181.5	1.4	2.2	0.88	51.61	1.9741	401.5819
13988	1509399988	54.7447	-110.2863	824.6	206.5	182.1	2.3	2.7	0.88	51.61	1.9750	402.5233
13989	1509399989	54.7441	-110.2863	826.3	208.3	181.4	1.6	2.7	0.88	51.61	1.9755	401.8222
13990	1509399990	54.7434	-110.2863	828.2	210.2	181.4	1.7	2.4	0.88	51.61	1.9756	402.6213
13991	1509399991	54.7428	-110.2863	829.7	211.7	181.3	1.8	2.0	0.88	51.61	1.9727	401.9273
13992	1509399992	54.7421	-110.2863	831.0	213.0	181.4	2.0	2.0	0.88	51.61	1.9698	401.9673
13993	1509399993	54.7415	-110.2863	832.2	214.2	180.7	1.3	2.1	0.88	51.61	1.9701	401.2073
13994	1509399994	54.7409	-110.2863	833.5	216.5	181.0	1.7	2.2	0.88	51.61	1.9704	401.1463
13995	1509399995	54.7402	-110.2863	835.2	219.3	181.0	1.7	2.5	0.88	51.61	1.9690	401.3972
13996	1509399996	54.7396	-110.2863	836.8	220.8	180.9	1.8	3.0	0.88	51.61	1.9698	402.3046
13997	1509399997	54.7389	-110.2863	838.0	221.3	180.8	1.8	3.0	0.88	51.61	1.9709	402.0832
13998	1509399998	54.7383	-110.2863	839.6	221.6	180.6	1.6	2.6	0.88	51.61	1.9705	401.2962
13999	1509399999	54.7377	-110.2863	841.6	222.3	180.1	0.8	2.4	0.88	51.61	1.9685	399.9653
14000	1509400000	54.7371	-110.2863	843.9	223.9	179.9	0.6	2.1	0.88	51.61	1.9658	400.5739
14001	1509400001	54.7364	-110.2862	846.0	226.0	180.4	1.1	2.1	0.88	51.61	1.9653	402.7706
14002	1509400002	54.7358	-110.2862	847.6	227.5	180.4	1.3	2.6	0.88	51.61	1.9667	401.6746
14003	1509400003	54.7352	-110.2862	848.5	229.5	180.6	1.8	2.6	0.88	51.61	1.9661	401.4988
14004	1509400004	54.7345	-110.2862	849.0	230.0	181.1	2.3	2.8	0.88	51.61	1.9658	401.8104
14005	1509400005	54.7339	-110.2862	849.4	231.4	180.5	1.6	3.4	0.88	51.61	1.9644	401.8104
14006	1509400006	54.7333	-110.2862	849.1	232.1	180.9	1.9	3.7	0.88	51.61	1.9650	400.9563
14007	1509400007	54.7327	-110.2862	846.4	230.4	181.4	1.5	3.3	0.88	51.61	1.9649	400.9563
14008	1509400008	54.7320	-110.2862	841.2	226.2	182.0	0.8	2.9	0.88	51.61	1.9648	400.9563
14009	1509400009	54.7314	-110.2862	833.3	218.3	183.3	0.8	2.6	0.88	51.61	1.9647	400.9563
14010	1509400010	54.7308	-110.2863	823.6	208.6	186.3	2.0	2.6	0.88	51.61	1.9646	401.8321
14011	1509400011	54.7301	-110.2864	814.9	199.9	188.7	2.6	2.7	0.88	51.61	1.9639	402.1339
14012	1509400012	54.7294	-110.2866	808.0	193.0	189.8	2.4	2.4	0.88	51.61	1.9646	402.9856
14013	1509400013	54.7288	-110.2867	801.9	186.9	190.6	2.4	2.7	0.88	51.61	1.9660	402.2234
14014	1509400014	54.7281	-110.2869	797.1	181.1	190.7	1.9	2.2	0.88	51.61	1.9640	401.8263
14015	1509400015	54.7279	-110.2870	796.0	180.0	190.6	1.7	1.9	0.88	51.61	1.9635	401.5687
14016	1509400016	54.7279	-110.2870	795.8	179.8	190.6	1.7	1.8	0.88	51.61	1.9620	401.5687
14017	1509400017	54.7278	-110.2870	795.6	179.6	190.6	1.7	1.6	0.88	51.61	1.9622	400.8439
14018	1509400018	54.7278	-110.2870	795.4	179.4	190.6	1.7	1.8	0.88	51.61	1.9626	401.9029
14019	1509400019	54.7277	-110.2871	795.2	179.2	190.6	1.9	3.0	0.88	51.61	1.9615	401.9029
14020	1509400020	54.7277	-110.2871	795.1	179.1	190.6	1.9	3.0	0.88	51.61	1.9603	402.8690
14021	1509400021	54.7276	-110.2871	794.9	178.9	190.6	1.8	3.0	0.88	51.61	1.9599	402.4662
14022	1509400022	54.7271	-110.2872	793.0	177.0	190.5	1.6	2.8	0.88	51.61	1.9603	403.1070
14023	1509400023	54.7263	-110.2875	791.5	174.5	190.4	1.9	2.7	0.88	51.61	1.9598	403.2136
14024	1509400024	54.7255	-110.2877	791.2	174.2	190.5	2.7	2.7	0.88	51.61	1.9591	402.5675
14025	1509400025	54.7248	-110.2879	791.3	174.3	189.1	2.2	2.5	0.88	51.61	1.9584	403.1507
14026	1509400026	54.7240	-110.2880	791.2	175.2	188.4	2.7	2.1	0.88	51.61	1.9602	402.2696
14027	1509400027	54.7232	-110.2882	791.2	175.4	186.8	1.9	2.3	0.88	51.61	1.9602	401.6703
14028	1509400028	54.7224	-110.2883	790.8	175.8	186.4	2.2	2.1	0.88	51.61	1.9608	403.5218
14029	1509400029	54.7216	-110.2884	790.4	175.4	185.6	1.4	1.7	0.88	51.61	1.9615	404.0645
14030	1509400030	54.7209	-110.2885	789.5	174.5	185.8	1.9	1.3	0.88	51.61	1.9605	403.7487
14031	1509400031	54.7201	-110.2886	787.5	173.5	185.3	1.7	1.4	0.88	51.61	1.9606	404.5944
14032	1509400032	54.7193	-110.2887	785.5	171.5	185.1	1.4	1.6	0.88	51.61	1.9601	403.2093
14033	1509400033	54.7185	-110.2888	787.4	174.3	184.9	1.0	2.0	0.88	51.61	1.9586	403.6107
14034	1509400034	54.7177	-110.2889	788.2	176.2	185.0	0.9	2.4	0.88	51.61	1.9577	404.4763
14035	1509400035	54.7170	-110.2890	787.9	176.9	185.5	1.2	2.6	0.88	51.61	1.9590	404.9955
14036	1509400036	54.7162	-110.2892	787.4	177.4	185.9	1.6	2.5	0.88	51.61	1.9580	404.0482
14037	1509400037	54.7154	-110.2893	786.0	176.0	185.4	1.5	2.6	0.88	51.61	1.9583	405.0072
14038	1509400038	54.7147	-110.2894	785.1	176.1	185.3	2.0	2.2	0.88	51.61	1.9582	403.1684
14039	1509400039	54.7139	-110.2894	784.9	175.9	184.8	1.8	2.0	0.88	51.61	1.9581	404.1964
14040	1509400040	54.7131	-110.2895	784.4	176.4	184.2	1.5	2.2	0.88	51.61	1.9577	403.0786
14041	1509400041	54.7123	-110.2896	782.8	174.8	184.3	1.6	2.3	0.88	51.61	1.9570	402.8362
14042	1509400042	54.7116	-110.2897	781.7	174.7	184.7	1.7	1.8	0.88	51.61	1.9565	402.4182
14043	1509400043	54.7108	-110.2898	782.0	175.0	184.7	1.4	1.4	0.88	51.61	1.9570	402.4182
14044	1509400044	54.7100	-110.2898	784.6	177.6	185.1	1.7	1.5	0.88	51.61	1.9567	402.2886
14045	1509400045	54.7093	-110.2899	790.0	183.0	185.1	1.5	2.0	0.88	51.61	1.9578	403.6715
14046	1509400046	54.7085	-110.2900	794.0	187.0	185.7	2.0	2.3	0.88	51.61	1.9566	403.6715
14047	1509400047	54.7078	-110.2901	796.2	189.2	185.4	1.8	2.7	0.88	51.61	1.9562	401.0065
14048	1509400048	54.7070	-110.2902	798.1	191.1	185.2	1.5	2.9	0.88	51.61	1.9562	402.1703
14049	1509400049	54.7063	-110.2903	799.9	193.9	185.0	1.1	3.3	0.88	51.61	1.9551	402.1703
14050	1509400050	54.7055	-110.2904	801.4	194.4	185.7	2.0	3.4	0.88	51.61	1.9552	401.4315
14051	1509400051	54.7048	-110.2905	802.0	195.0	186.0	2.8	4.0	0.88	51.61	1.9531	402.8642
14052	1509400052	54.7041	-110.2906	801.7	193.6	185.6	3.1	4.0	0.88	51.61	1.9540	402.8642
14053	1509400053	54.7034	-110.2907	801.6	193.7	184.3	2.3	3.6	0.88	51.61	1.9536	399.9544
14054	1509400054	54.7026	-110.2907	801.5	194.5	184.2	2.4	3.2	0.88	51.61	1.9536	402.8787
14055	1509400055	54.7018	-110.2908	801.0	194.0	184.5	2.6	2.6	0.88	51.61	1.9536	403.2510
14056	1509400056	54.7011	-110.2908	801.2	194.2	183.9	1.7	3.1	0.88	51.61	1.9544	402.9109
14057	1509400057	54.7004	-110.2909	801.7	194.1	183.9	1.6	3.3	0.88	51.61	1.9547	402.9109
14058	1509400058	54.6997	-110.2910	802.2	194.5	184.2	1.8	3.3	0.88	51.61	1.9551	403.0981
14059	1509400059	54.6989	-110.2910	802.2	195.2	184.1	1.7	2.8	0.88	51.61	1.9545	403.0958
14060	1509400060	54.6982	-110.2911	801.3	194.2	184.4	2.0	2.9	0.88	51.61	1.9533	403.8549
14061	1509400061	54.6975	-110.2912	799.8	194.5	183.9	1.3	2.6	0.88	51.61	1.9537	403.4028
14062	1509400062	54.6967	-110.2912	798.9	195.3	184.0	1.4	2.6	0.88	51.61	1.9532	404.7216
14063	1509400063	54.6960	-110.2913	798.6	196.6	184.2	1.6	2.8	0.88	51.61	1.9531	403.9686
14064	1509400064	54.6952	-110.2914	798.2	196.2	184.0	1.2	2.8	0.88	51.61	1.9539	404.7439
14065	1509400065	54.6945	-110.2914	797.7	194.7	184.1	1.4	2.8	0.88	51.61	1.9519	404.2296
14066	1509400066	54.6938	-110.2915	797.3	194.2	183.9	1.3	2.7	0.88	51.61	1.9519	405.1699
14067	1509400067	54.6932	-110.2916	797.0	193.8	183.8	1.3	2.7	0.88	51.61	1.9520	405.1699
14068	1509400068	54.6925	-110.2916	796.7	192.1	183.5	1.2	2.8	0.88	51.61	1.9520	405.1699
14069	1509400069	54.6919	-110.2917	796.7	191.9	184.0	1.8	2.7	0.88	51.61	1.9521	405.1699
14070	1509400070	54.6913	-110.2917	796.5	192.5	183.9	1.7	2.5	0.88	51.61	1.9521	405.1699
14071	1509400071	54.6906	-110.2918	796.3	192.3	183.3	1.1	2.3	0.88	51.61	1.9522	405.1699
14072	1509400072	54.6899	-110.2918	796.2	192.2	183.7	1.6	2.7	0.88	51.61	1.9523	405.1699
14073	1509400073	54.6893	-110.2919	796.1	191.0	183.9	1.7	2.7	0.88	51.61	1.9523	404.7533
14074	1509400074	54.6887	-110.2919	795.9	190.8	183.8	1.4	2.7	0.88	51.61	1.9530	405.8027
14075	1509400075	54.6884	-110.2919	795.8	191.8	183.7	1.3	2.7	0.88	51.61	1.9516	404.1006
14076	1509400076	54.6884	-110.2919	795.7	191.8	183.7	1.3	2.6	0.88	51.61	1.9546	404.5280
14077	1509400077	54.6884	-110.2919	795.6	191.7	183.7	1.3	2.6	0.88	51.61	1.9541	404.4145
14078	1509400078	54.6883	-110.2919	795.6	191.5	183.7	1.2	2.6	0.88	51.61	1.9531	404.4145
14079	1509400079	54.6883	-110.2920	795.5	191.4	183.7	1.2	2.6	0.88	51.61	1.9513	403.7597
14080	1509400080	54.6882	-110.2920	795.5	191.4	183.7	1.2	2.6	0.88	51.61	1.9510	403.5090
14081	1509400081	54.6882	-110.2920	795.4	191.3	183.7	1.2	2.6	0.88	51.61	1.9515	403.6654
14082	1509400082	54.6877	-110.2920	794.5	191.8	183.8	1.4	3.0	0.88	51.61	1.9512	403.6654
14083	1509400083	54.6869	-110.2921	793.1	191.1	184.0	1.7	2.4	0.88	51.61	1.9529	403.9746
14084	1509400084	54.6862	-110.2921	792.5	191.5	183.9	1.7	2.2	0.88	51.61	1.9510	403.7779
14085	1509400085	54.6854	-110.2922	793.6	194.6	183.6	1.3	2.5	0.88	51.61	1.9518	404.2112
14086	1509400086	54.6847	-110.2922	795.3	197.3	183.5	1.4	2.2	0.88	51.61	1.9530	403.5446
14087	1509400087	54.6839	-110.2923	797.4	199.2	183.5	1.5	2.4	0.88	51.61	1.9523	403.2511
14088	1509400088	54.6832	-110.2924	799.4	200.4	183.9	2.2	2.3	0.88	51.61	1.9528	403.8917
14089	1509400089	54.6824	-110.2924	800.8	201.8	184.0	2.3	1.9	0.88	51.61	1.9526	402.9819
14090	1509400090	54.6817	-110.2925	801.4	202.4	183.5	2.0	2.3	0.88	51.61	1.9515	402.6521
14091	1509400091	54.6810	-110.2925	801.4	202.4	183.0	1.5	2.9	0.88	51.61	1.9536	403.5231
14092	1509400092	54.6802	-110.2925	801.5	203.5	182.8	1.5	2.8	0.88	51.61	1.9514	403.7075
14093	1509400093	54.6795	-110.2926	801.9	203.9	182.0	0.7	2.7	0.88	51.61	1.9525	402.4607
14094	1509400094	54.6787	-110.2926	802.2	204.2	182.2	0.9	2.9	0.88	51.61	1.9536	402.6887
14095	1509400095	54.6780	-110.2926	801.5	202.5	183.5	2.3	3.0	0.88	51.61	1.9538	403.2802
14096	1509400096	54.6773	-110.2927	800.6	201.6	183.2	1.8	3.1	0.88	51.61	1.9537	402.8883
14097	1509400097	54.6765	-110.2927	799.4	200.4	183.2	1.8	3.2	0.88	51.61	1.9545	402.3760
14098	1509400098	54.6758	-110.2928	796.6	198.6	182.9	1.4	3.4	0.88	51.61	1.9563	402.5541
14099	1509400099	54.6750	-110.2928	793.3	195.3	182.2	0.7	3.5	0.88	51.61	1.9563	402.5541
14100	1509400100	54.6743	-110.2928	790.0	192.0	183.7	2.2	3.0	0.88	51.61	1.9550	401.0035
14101	1509400101	54.6735	-110.2929	786.7	188.7	182.1	-0.2	2.6	0.88	51.61	1.9555	400.8382
14102	1509400102	54.6728	-110.2930	784.3	186.3	182.5	0.2	2.5	0.88	51.61	1.9530	403.3653
14103	1509400103	54.6720	-110.2930	782.7	184.7	182.5	0.4	2.7	0.88	51.61	1.9530	403.3653
14104	1509400104	54.6713	-110.2931	781.0	183.0	182.5	0.5	2.5	0.88	51.61	1.9532	401.6206
14105	1509400105	54.6705	-110.2931	780.2	182.2	182.2	0.5	2.4	0.88	51.61	1.9533	400.7717
14106	1509400106	54.6698	-110.2932	779.5	182.5	182.1	0.6	2.4	0.88	51.61	1.9548	400.7717
14107	1509400107	54.6690	-110.2932	779.9	182.9	182.4	1.2	2.4	0.88	51.61	1.9546	401.1580
14108	1509400108	54.6682	-110.2932	780.0	182.0	182.1	1.0	2.1	0.88	51.61	1.9544	400.8304
14109	1509400109	54.6675	-110.2933	780.1	182.1	182.1	0.9	2.2	0.88	51.61	1.9532	400.9472
14110	1509400110	54.6667	-110.2933	780.4	182.4	182.1	0.9	2.2	0.88	51.61	1.9532	401.4001
14111	1509400111	54.6659	-110.2933	780.3	183.3	182.3	0.6	2.3	0.88	51.61	1.9544	401.3193
14112	1509400112	54.6651	-110.2934	780.2	183.2	182.8	0.7	2.3	0.88	51.61	1.9540	401.4685
14113	1509400113	54.6644	-110.2934	780.1	184.1	183.3	1.2	2.9	0.88	51.61	1.9529	401.6204
14114	1509400114	54.6636	-110.2935	779.5	183.5	183.2	0.8	2.8	0.88	51.61	1.9548	402.2513
14115	1509400115	54.6628	-110.2936	779.3	184.3	183.2	0.8	2.9	0.88	51.61	1.9534	401.9094
14116	1509400116	54.6621	-110.2936	778.8	183.8	183.7	1.3	2.8	0.88	51.61	1.9537	400.5285
14117	1509400117	54.6613	-110.2937	778.5	184.5	182.8	0.3	2.9	0.88	51.61	1.9546	401.3995
14118	1509400118	54.6606	-110.2937	778.6	184.6	183.4	1.2	2.9	0.88	51.61	1.9541	400.6111
14119	1509400119	54.6598	-110.2938	779.2	186.2	183.1	0.7	3.1	0.88	51.61	1.9550	400.6111
14120	1509400120	54.6590	-110.2939	779.7	187.6	183.2	1.2	3.1	0.88	51.61	1.9535	401.0668
14121	1509400121	54.6583	-110.2939	779.6	188.7	183.6	2.1	3.0	0.88	51.61	1.9541	401.0668
14122	1509400122	54.6575	-110.2940	779.3	188.6	182.8	1.5	3.0	0.88	51.61	1.9541	400.9643
14123	1509400123	54.6568	-110.2940	778.8	188.8	182.3	1.2	2.6	0.88	51.61	1.9539	402.1508
14124	1509400124	54.6560	-110.2940	778.1	188.1	181.9	1.0	2.0	0.88	51.61	1.9544	401.2264
14125	1509400125	54.6553	-110.2941	777.0	187.0	181.8	1.3	2.2	0.88	51.61	1.9541	401.5942
14126	1509400126	54.6547	-110.2941	775.8	186.8	181.7	1.5	2.7	0.88	51.61	1.9537	400.6644
14127	1509400127	54.6540	-110.2941	774.6	186.6	181.2	1.1	2.4	0.88	51.61	1.9538	400.7249
14128	1509400128	54.6533	-110.2941	773.6	186.5	181.0	1.2	2.2	0.88	51.61	1.9538	400.7855
14129	1509400129	54.6527	-110.2941	772.0	186.1	181.1	1.5	2.0	0.88	51.61	1.9539	400.8460
14130	1509400130	54.6520	-110.2941	771.0	186.0	180.1	0.3	2.1	0.88	51.61	1.9546	400.7678
14131	1509400131	54.6513	-110.2941	769.7	186.7	180.3	0.7	2.4	0.88	51.61	1.9541	400.7937
14132	1509400132	54.6507	-110.2941	768.2	187.3	180.3	0.6	2.6	0.88	51.61	1.9536	400.5583
14133	1509400133	54.6500	-110.2941	767.2	190.6	180.7	1.1	2.4	0.88	51.61	1.9536	400.9759
14134	1509400134	54.6494	-110.2941	765.7	192.7	181.3	1.6	2.3	0.88	51.61	1.9534	401.6188
14135	1509400135	54.6491	-110.2941	765.0	192.0	181.3	1.4	2.3	0.88	51.61	1.9523	400.8712
14136	1509400136	54.6490	-110.2941	764.7	191.7	181.3	1.3	2.3	0.88	51.61	1.9531	400.9215
14137	1509400137	54.6489	-110.2941	764.4	191.4	181.2	1.3	2.2	0.88	51.61	1.9542	400.4373
14138	1509400138	54.6487	-110.2941	763.8	190.8	181.4	1.3	2.7	0.88	51.61	1.9545	400.5013
14139	1509400139	54.6480	-110.2941	761.4	188.4	182.0	1.7	2.6	0.88	51.61	1.9545	401.9407
14140	1509400140	54.6472	-110.2941	759.3	186.3	182.7	2.0	2.9	0.88	51.61	1.9527	401.9407
14141	1509400141	54.6464	-110.2941	757.4	184.4	182.5	1.3	2.8	0.88	51.61	1.9553	401.5315
14142	1509400142	54.6456	-110.2942	755.7	182.7	182.6	1.0	2.6	0.88	51.61	1.9531	400.2294
14143	1509400143	54.6448	-110.2942	754.4	181.4	183.3	2.0	2.4	0.88	51.61	1.9538	400.2852
14144	1509400144	54.6441	-110.2943	753.4	180.4	182.7	0.9	2.0	0.88	51.61	1.9531	401.0390
14145	1509400145	54.6433	-110.2943	752.2	179.2	183.0	1.7	2.0	0.88	51.61	1.9522	400.1532
14146	1509400146	54.6425	-110.2944	750.5	177.5	183.0	1.6	2.2	0.88	51.61	1.9523	400.0681
14147	1509400147	54.6417	-110.2944	748.8	175.8	182.1	0.5	1.7	0.88	51.61	1.9518	400.3203
14148	1509400148	54.6409	-110.2944	748.4	175.4	182.8	1.2	1.9	0.88	51.61	1.9527	400.4788
14149	1509400149	54.6402	-110.2945	747.7	174.7	182.9	1.0	2.0	0.88	51.61	1.9537	401.9516
14150	1509400150	54.6394	-110.2946	747.0	174.0	183.2	1.4	2.0	0.88	51.61	1.9547	399.9155
14151	1509400151	54.6386	-110.2946	746.7	173.7	183.3	1.5	2.1	0.88	51.61	1.9539	399.9182
14152	1509400152	54.6378	-110.2947	747.0	174.0	183.5	1.8	2.1	0.88	51.61	1.9534	400.9743
14153	1509400153	54.6370	-110.2947	746.8	173.8	183.9	2.5	2.2	0.88	51.61	1.9546	399.4528
14154	1509400154	54.6362	-110.2948	747.1	174.1	183.5	1.8	1.9	0.88	51.61	1.9554	400.7052
14155	1509400155	54.6354	-110.2948	748.2	175.2	183.0	1.3	2.5	0.88	51.61	1.9558	400.9450
14156	1509400156	54.6346	-110.2949	748.8	175.8	182.9	1.1	2.2	0.88	51.61	1.9537	401.1052
14157	1509400157	54.6339	-110.2949	748.6	175.6	183.3	1.5	2.2	0.88	51.61	1.9544	400.6616
14158	1509400158	54.6331	-110.2950	747.8	174.8	183.7	1.4	2.2	0.88	51.61	1.9559	399.8142
14159	1509400159	54.6324	-110.2950	746.8	173.8	184.4	1.8	2.5	0.88	51.61	1.9562	399.8142
14160	1509400160	54.6318	-110.2951	745.7	172.7	184.4	1.1	2.7	0.88	51.61	1.9561	401.2937
14161	1509400161	54.6311	-110.2952	745.1	172.1	184.5	1.0	3.1	0.88	51.61	1.9540	400.2541
14162	1509400162	54.6304	-110.2953	744.8	171.8	184.9	1.1	2.9	0.88	51.61	1.9545	400.2541
14163	1509400163	54.6298	-110.2953	744.2	171.2	185.2	1.3	2.9	0.88	51.61	1.9565	401.2280
14164	1509400164	54.6291	-110.2954	743.5	170.5	185.6	1.4	2.6	0.88	51.61	1.9559	400.7966
14165	1509400165	54.6285	-110.2955	743.2	170.2	185.1	0.7	2.7	0.88	51.61	1.9570	400.6878
14166	1509400166	54.6278	-110.2956	742.6	169.6	185.8	1.6	3.1	0.88	51.61	1.9552	400.1769
14167	1509400167	54.6271	-110.2957	742.0	169.0	186.0	1.8	3.2	0.88	51.61	1.9563	400.1182
14168	1509400168	54.6264	-110.2958	741.8	168.8	186.0	2.0	3.3	0.88	51.61	1.9554	400.9251
14169	1509400169	54.6258	-110.2959	741.7	168.7	185.9	1.8	3.7	0.88	51.61	1.9552	401.5582
14170	1509400170	54.6251	-110.2960	741.9	168.9	186.0	1.8	3.7	0.88	51.61	1.9552	401.5582
14171	1509400171	54.6245	-110.2961	741.8	168.8	186.3	2.0	3.5	0.88	51.61	1.9548	399.0929
14172	1509400172	54.6238	-110.2962	741.6	168.6	185.5	1.5	3.7	0.88	51.61	1.9558	399.0929
14173	1509400173	54.6231	-110.2963	741.3	168.3	185.6	1.9	3.7	0.88	51.61	1.9564	401.4040
14174	1509400174	54.6225	-110.2964	740.9	167.9	184.8	1.3	3.9	0.88	51.61	1.9576	400.4543
14175	1509400175	54.6218	-110.2965	738.8	165.8	185.1	1.8	4.0	0.88	51.61	1.9568	400.7030
14176	1509400176	54.6211	-110.2965	736.3	163.3	184.6	1.0	3.4	0.88	51.61	1.9577	400.7030
14177	1509400177	54.6205	-110.2966	734.4	161.4	184.6	0.7	2.9	0.88	51.61	1.9571	399.9676
14178	1509400178	54.6198	-110.2967	732.7	159.7	184.7	0.7	3.2	0.88	51.61	1.9578	399.9899
14179	1509400179	54.6192	-110.2968	731.2	158.2	184.7	0.8	3.0	0.88	51.61	1.9577	400.5297
14180	1509400180	54.6185	-110.2969	730.4	157.4	185.0	1.2	2.5	0.88	51.61	1.9573	400.6852
14181	1509400181	54.6178	-110.2970	732.2	159.2	184.9	1.0	3.0	0.88	51.61	1.9569	400.4576
14182	1509400182	54.6172	-110.2971	736.0	163.0	185.0	1.2	3.6	0.88	51.61	1.9580	399.6424
14183	1509400183	54.6166	-110.2971	739.2	166.2	185.6	1.6	3.5	0.88	51.61	1.9564	400.1173
14184	1509400184	54.6159	-110.2972	742.3	169.3	185.6	1.4	3.4	0.88	51.61	1.9555	399.3405
14185	1509400185	54.6152	-110.2973	744.5	171.5	185.7	1.5	3.6	0.88	51.61	1.9562	399.0922
14186	1509400186	54.6146	-110.2974	746.7	173.7	185.2	1.4	3.9	0.88	51.61	1.9565	400.1798
14187	1509400187	54.6139	-110.2975	748.6	175.6	185.3	2.0	4.2	0.88	51.61	1.9568	400.0897
14188	1509400188	54.6133	-110.2976	750.3	177.3	185.3	2.1	4.0	0.88	51.61	1.9571	399.9997
14189	1509400189	54.6127	-110.2976	752.2	179.2	184.8	1.5	4.3	0.88	51.61	1.9574	399.9096
14190	1509400190	54.6120	-110.2977	754.5	181.5	185.3	1.6	4.7	0.88	51.61	1.9577	399.8195
14191	1509400191	54.6114	-110.2978	756.9	183.9	185.3	1.4	4.5	0.88	51.61	1.9580	399.7295
14192	1509400192	54.6108	-110.2979	758.4	185.4	186.2	1.9	4.1	0.88	51.61	1.9583	399.6394
14193	1509400193	54.6101	-110.2980	759.5	186.5	186.2	1.9	4.1	0.88	51.61	1.9579	399.4147
14194	1509400194	54.6095	-110.2981	760.3	187.3	187.1	3.0	4.2	0.88	51.61	1.9576	400.5022
14195	1509400195	54.6093	-110.2981	760.5	187.5	187.1	3.0	4.3	0.88	51.61	1.9561	400.4167
14196	1509400196	54.6093	-110.2981	760.6	187.6	187.0	2.9	4.3	0.88	51.61	1.9566	401.0531
14197	1509400197	54.6092	-110.2981	760.6	187.6	186.9	2.8	4.3	0.88	51.61	1.9561	400.1784
14198	1509400198	54.6092	-110.2981	760.7	187.7	186.8	2.7	4.3	0.88	51.61	1.9551	400.0487
14199	1509400199	54.6091	-110.2981	760.7	187.7	186.8	2.5	2.9	0.88	51.61	1.9541	400.0487
14200	1509400200	54.6091	-110.2982	760.7	187.7	186.7	2.3	2.3	0.88	51.61	1.9574	399.9461
14201	1509400201	54.6090	-110.2982	760.8	187.8	186.6	2.2	2.2	0.88	51.61	1.9548	400.8893
14202	1509400202	54.6084	-110.2982	761.9	188.9	185.7	1.3	2.5	0.88	51.61	1.9543	400.1431
14203	1509400203	54.6077	-110.2984	763.3	190.3	185.8	1.8	3.0	0.88	51.61	1.9551	399.5728
14204	1509400204	54.6070	-110.2984	764.2	191.2	184.7	1.1	3.8	0.88	51.61	1.9554	400.6134
14205	1509400205	54.6063	-110.2985	764.8	191.8	184.8	2.1	4.0	0.88	51.61	1.9561	400.6134
14206	1509400206	54.6056	-110.2986	765.8	192.8	183.6	1.3	4.0	0.88	51.61	1.9575	400.7970
14207	1509400207	54.6048	-110.2986	766.5	193.5	183.6	1.5	3.7	0.88	51.61	1.9555	400.9420
14208	1509400208	54.6041	-110.2987	766.5	193.5	183.3	1.4	3.5	0.88	51.61	1.9555	400.2003
14209	1509400209	54.6034	-110.2988	765.8	192.8	183.9	2.0	3.7	0.88	51.61	1.9571	399.9801
14210	1509400210	54.6027	-110.2988	765.5	192.5	182.8	0.7	3.7	0.88	51.61	1.9542	401.5179
14211	1509400211	54.6019	-110.2989	765.5	192.5	183.3	1.5	3.5	0.88	51.61	1.9545	401.2739
14212	1509400212	54.6012	-110.2989	765.8	192.8	182.7	1.2	3.1	0.88	51.61	1.9571	399.9298
14213	1509400213	54.6005	-110.2989	765.9	192.9	182.5	1.3	3.2	0.88	51.61	1.9555	400.4154
14214	1509400214	54.5998	-110.2990	767.3	194.3	182.3	1.2	3.8	0.88	51.61	1.9555	400.6353
14215	1509400215	54.5990	-110.2990	769.3	196.3	183.2	2.3	3.7	0.88	51.61	1.9556	400.7754
14216	1509400216	54.5983	-110.2990	770.2	197.2	183.5	2.4	3.5	0.88	51.61	1.9546	399.2687
14217	1509400217	54.5976	-110.2991	771.0	198.0	182.7	1.6	4.0	0.88	51.61	1.9552	401.3334
14218	1509400218	54.5969	-110.2991	772.5	199.5	182.6	1.7	4.3	0.88	51.61	1.9533	400.5889
14219	1509400219	54.5962	-110.2991	773.3	200.3	182.9	2.0	4.8	0.88	51.61	1.9546	400.5114
14220	1509400220	54.5954	-110.2992	773.1	198.7	182.3	1.4	4.6	0.88	51.61	1.9556	400.4558
14221	1509400221	54.5948	-110.2992	772.2	195.4	181.9	0.7	4.0	0.88	51.61	1.9553	400.1572
14222	1509400222	54.5940	-110.2992	770.8	192.7	182.4	0.6	3.3	0.88	51.61	1.9544	400.2457
14223	1509400223	54.5933	-110.2993	769.6	193.3	183.7	1.3	2.7	0.88	51.61	1.9547	400.2457
14224	1509400224	54.5926	-110.2993	769.5	194.5	184.6	1.5	3.2	0.88	51.61	1.9552	400.5460
14225	1509400225	54.5919	-110.2994	769.3	193.3	184.5	1.3	3.7	0.88	51.61	1.9559	400.4828
14226	1509400226	54.5912	-110.2995	769.0	192.0	184.0	0.9	4.0	0.88	51.61	1.9565	398.8914
14227	1509400227	54.5904	-110.2996	768.6	190.6	183.4	0.7	3.4	0.88	51.61	1.9577	398.8914
14228	1509400228	54.5897	-110.2996	767.9	190.0	183.8	2.1	3.6	0.88	51.61	1.9560	400.2952
14229	1509400229	54.5890	-110.2997	766.8	186.1	182.6	1.5	3.5	0.88	51.61	1.9564	401.0403
14230	1509400230	54.5883	-110.2997	765.7	183.7	181.8	1.2	3.8	0.88	51.61	1.9569	399.2455
14231	1509400231	54.5876	-110.2997	764.3	181.2	181.6	1.4	3.7	0.88	51.61	1.9556	400.9708
14232	1509400232	54.5868	-110.2997	762.4	178.2	181.5	1.2	3.9	0.88	51.61	1.9547	400.9708
14233	1509400233	54.5861	-110.2997	760.7	176.9	181.2	0.4	3.4	0.88	51.61	1.9561	399.9596
14234	1509400234	54.5854	-110.2998	759.8	177.8	182.4	0.8	3.6	0.88	51.61	1.9547	401.6163
14235	1509400235	54.5846	-110.2998	759.2	178.2	183.2	1.1	3.3	0.88	51.61	1.9541	401.6163
14236	1509400236	54.5839	-110.2999	758.3	178.3	184.4	1.6	3.0	0.88	51.61	1.9561	401.9201
14237	1509400237	54.5831	-110.3000	758.6	178.6	184.4	1.1	3.4	0.88	51.61	1.9552	401.9201
14238	1509400238	54.5824	-110.3000	758.3	179.3	184.5	1.2	3.6	0.88	51.61	1.9558	400.9578
14239	1509400239	54.5816	-110.3001	758.0	179.0	184.6	1.6	3.6	0.88	51.61	1.9560	400.9706
14240	1509400240	54.5809	-110.3002	757.9	179.9	184.3	1.8	3.6	0.88	51.61	1.9560	399.6113
14241	1509400241	54.5802	-110.3003	758.3	180.3	183.3	0.8	3.4	0.88	51.61	1.9556	400.7601
14242	1509400242	54.5794	-110.3003	757.3	180.4	183.3	1.3	3.0	0.88	51.61	1.9542	400.3914
14243	1509400243	54.5787	-110.3004	756.0	179.0	183.1	1.4	2.8	0.88	51.61	1.9536	400.2625
14244	1509400244	54.5781	-110.3004	755.0	178.0	182.9	1.9	3.2	0.88	51.61	1.9540	400.3612
14245	1509400245	54.5774	-110.3004	753.8	176.8	183.8	3.1	3.7	0.88	51.61	1.9544	401.7242
14246	1509400246	54.5768	-110.3005	753.5	176.5	183.0	2.0	3.7	0.88	51.61	1.9544	401.0234
14247	1509400247	54.5762	-110.3005	752.9	175.9	183.1	2.2	3.6	0.88	51.61	1.9545	401.0234
14248	1509400248	54.5755	-110.3005	752.2	175.2	183.2	2.2	3.5	0.88	51.61	1.9547	401.0845
14249	1509400249	54.5749	-110.3006	751.4	175.9	182.5	1.2	3.3	0.88	51.61	1.9558	399.2442
14250	1509400250	54.5742	-110.3006	750.0	175.1	182.7	1.5	2.8	0.88	51.61	1.9557	401.0359
14251	1509400251	54.5736	-110.3006	749.2	174.9	183.1	1.7	3.2	0.88	51.61	1.9532	401.0435
14252	1509400252	54.5729	-110.3007	750.4	175.1	182.9	1.5	3.5	0.88	51.61	1.9531	401.1003
14253	1509400253	54.5723	-110.3007	751.8	174.2	183.8	2.2	3.8	0.88	51.61	1.9526	400.9687
14254	1509400254	54.5716	-110.3007	753.5	172.8	183.5	1.5	3.9	0.88	51.61	1.9519	399.6798
14255	1509400255	54.5714	-110.3008	754.1	173.1	183.6	1.3	3.8	0.88	51.61	1.9522	399.7020
14256	1509400256	54.5712	-110.3008	754.4	173.4	183.7	1.4	4.1	0.88	51.61	1.9526	401.1056
14257	1509400257	54.5706	-110.3008	755.3	175.4	184.4	1.7	4.3	0.88	51.61	1.9513	400.6200
14258	1509400258	54.5698	-110.3009	756.7	177.7	184.7	1.7	4.3	0.88	51.61	1.9501	400.2024
14259	1509400259	54.5691	-110.3010	758.1	179.2	185.5	2.3	3.5	0.88	51.61	1.9513	400.7712
14260	1509400260	54.5683	-110.3011	759.2	179.1	185.0	2.0	4.2	0.88	51.61	1.9517	399.9450
14261	1509400261	54.5676	-110.3012	759.6	179.6	184.8	2.3	4.3	0.88	51.61	1.9514	400.9226
14262	1509400262	54.5669	-110.3012	759.9	178.9	184.2	2.3	3.8	0.88	51.61	1.9530	401.4738
14263	1509400263	54.5661	-110.3013	760.5	178.5	183.5	2.1	3.9	0.88	51.61	1.9536	400.7511
14264	1509400264	54.5654	-110.3013	761.0	178.0	183.1	1.5	3.5	0.88	51.61	1.9539	400.7511
14265	1509400265	54.5647	-110.3014	761.4	177.4	182.6	0.9	3.0	0.88	51.61	1.9525	401.4291
14266	1509400266	54.5641	-110.3014	761.7	177.7	183.2	1.6	3.0	0.88	51.61	1.9525	400.6053
14267	1509400267	54.5634	-110.3014	762.1	178.4	183.6	2.0	3.5	0.88	51.61	1.9537	400.6914
14268	1509400268	54.5628	-110.3015	762.6	179.6	183.5	2.0	3.5	0.88	51.61	1.9534	400.3268
14269	1509400269	54.5621	-110.3015	763.0	179.9	183.7	2.2	3.6	0.88	51.61	1.9528	400.2082
14270	1509400270	54.5615	-110.3016	764.0	181.8	183.1	1.6	3.3	0.88	51.61	1.9533	399.7782
14271	1509400271	54.5609	-110.3016	764.9	184.6	183.0	1.7	3.3	0.88	51.61	1.9549	399.0153
14272	1509400272	54.5603	-110.3016	765.2	188.6	182.8	1.5	3.3	0.88	51.61	1.9545	400.7371
14273	1509400273	54.5596	-110.3017	765.8	191.8	182.2	1.1	2.9	0.88	51.61	1.9536	400.8816
14274	1509400274	54.5590	-110.3017	766.6	195.1	182.3	1.4	3.3	0.88	51.61	1.9536	400.7467
14275	1509400275	54.5584	-110.3017	767.6	200.2	182.1	1.2	3.2	0.88	51.61	1.9551	400.9949
14276	1509400276	54.5578	-110.3017	768.8	208.5	182.1	1.3	3.1	0.88	51.61	1.9553	400.7897
14277	1509400277	54.5571	-110.3018	770.1	214.2	182.3	1.5	3.2	0.88	51.61	1.9554	400.7719
14278	1509400278	54.5565	-110.3018	771.2	218.1	182.1	1.3	3.3	0.88	51.61	1.9569	400.2060
14279	1509400279	54.5559	-110.3018	772.4	222.8	182.1	1.4	3.4	0.88	51.61	1.9588	400.8857
14280	1509400280	54.5553	-110.3018	772.8	226.2	182.6	1.9	3.4	0.88	51.61	1.9630	400.8857
14281	1509400281	54.5546	-110.3018	773.0	228.0	182.7	1.4	3.4	0.88	51.61	1.9661	400.5050
14282	1509400282	54.5540	-110.3019	773.6	228.6	182.9	0.6	3.6	0.88	51.61	1.9649	400.0019
14283	1509400283	54.5534	-110.3019	774.8	229.8	184.2	0.9	3.6	0.88	51.61	1.9717	401.2685
14284	1509400284	54.5528	-110.3020	775.7	230.7	185.6	1.1	3.5	0.88	51.61	1.9748	401.2685
14285	1509400285	54.5522	-110.3021	776.7	231.7	186.6	-0.2	3.3	0.88	51.61	1.9750	401.1154
14286	1509400286	54.5515	-110.3023	777.1	232.1	189.3	-0.9	3.4	0.88	51.61	1.9741	401.2611
14287	1509400287	54.5510	-110.3025	776.9	231.9	196.2	0.3	3.7	0.88	51.61	1.9784	401.4402
14288	1509400288	54.5504	-110.3029	777.2	232.2	203.1	0.1	4.0	0.88	51.61	1.9868	400.0257
14289	1509400289	54.5498	-110.3034	777.5	232.5	209.4	-0.1	4.2	0.88	51.61	1.9892	401.5048
14290	1509400290	54.5493	-110.3040	777.4	229.5	215.6	-0.7	4.4	0.88	51.61	1.9905	400.7707
14291	1509400291	54.5489	-110.3047	777.3	224.3	222.3	-0.8	4.7	0.88	51.61	1.9908	400.8175
14292	1509400292	54.5485	-110.3055	776.9	219.2	228.8	-0.6	4.7	0.88	51.61	1.9841	400.1297
14293	1509400293	54.5481	-110.3064	776.1	215.4	235.6	-0.2	4.3	0.88	51.61	1.9830	400.1297
14294	1509400294	54.5478	-110.3073	775.5	214.5	242.0	-0.1	4.6	0.88	51.61	1.9792	399.8510
14295	1509400295	54.5476	-110.3084	775.3	215.2	248.0	0.2	5.2	0.88	51.61	1.9680	400.1915
14296	1509400296	54.5474	-110.3094	775.5	216.3	254.0	0.6	5.1	0.88	51.61	1.9710	400.3016
14297	1509400297	54.5473	-110.3105	775.3	218.3	259.6	1.2	5.1	0.88	51.61	1.9695	399.5071
14298	1509400298	54.5473	-110.3116	774.7	220.0	264.4	1.1	5.0	0.88	51.61	1.9692	399.9556
14299	1509400299	54.5473	-110.3127	773.9	220.3	269.2	1.2	4.2	0.88	51.61	1.9679	399.8290
14300	1509400300	54.5473	-110.3138	774.4	221.4	271.9	1.2	4.4	0.88	51.61	1.9654	400.2030
14301	1509400301	54.5474	-110.3149	774.3	221.2	273.9	1.1	3.9	0.88	51.61	1.9651	401.2351
14302	1509400302	54.5475	-110.3160	773.0	219.9	275.3	0.9	3.6	0.88	51.61	1.9640	400.9875
14303	1509400303	54.5476	-110.3171	772.7	218.0	276.5	0.8	3.3	0.88	51.61	1.9621	400.6008
14304	1509400304	54.5477	-110.3182	772.2	216.6	276.9	0.5	3.2	0.88	51.61	1.9586	401.7702
14305	1509400305	54.5478	-110.3193	770.0	212.0	277.1	0.2	3.1	0.88	51.61	1.9575	400.8372
14306	1509400306	54.5479	-110.3205	766.4	206.4	277.0	-0.3	3.4	0.88	51.61	1.9569	400.6276
14307	1509400307	54.5480	-110.3215	762.7	199.6	276.6	-0.4	3.9	0.88	51.61	1.9554	400.8801
14308	1509400308	54.5481	-110.3227	759.1	193.8	276.7	0.1	3.7	0.88	51.61	1.9522	401.0337
14309	1509400309	54.5483	-110.3239	755.5	191.1	276.8	0.3	3.7	0.88	51.61	1.9537	401.2344
14310	1509400310	54.5484	-110.3250	751.8	187.7	277.2	0.3	3.3	0.88	51.61	1.9553	400.8940
14311	1509400311	54.5485	-110.3261	749.2	184.9	276.7	1.0	4.2	0.88	51.61	1.9533	400.8378
14312	1509400312	54.5486	-110.3273	748.1	181.6	277.2	1.3	4.3	0.88	51.61	1.9531	400.9171
14313	1509400313	54.5487	-110.3285	748.5	180.5	277.7	1.8	4.3	0.88	51.61	1.9541	400.0342
14314	1509400314	54.5489	-110.3296	749.4	181.4	278.4	1.8	4.0	0.88	51.61	1.9553	401.3841
14315	1509400315	54.5489	-110.3301	749.8	180.5	278.5	1.5	4.0	0.88	51.61	1.9555	400.5807
14316	1509400316	54.5490	-110.3304	750.1	180.8	278.5	1.2	4.1	0.88	51.61	1.9549	401.0181
14317	1509400317	54.5491	-110.3315	750.9	180.5	278.7	1.0	4.1	0.88	51.61	1.9542	402.8678
14318	1509400318	54.5493	-110.3328	751.3	177.7	278.2	0.9	4.6	0.88	51.61	1.9542	400.8800
14319	1509400319	54.5494	-110.3341	751.5	176.8	278.6	0.8	4.1	0.88	51.61	1.9549	400.5021
14320	1509400320	54.5496	-110.3354	751.0	175.0	279.0	0.6	3.8	0.88	51.61	1.9540	400.5021
14321	1509400321	54.5497	-110.3367	751.0	173.9	278.4	0.7	4.4	0.88	51.61	1.9529	400.6792
14322	1509400322	54.5499	-110.3381	750.6	176.8	278.3	0.6	4.6	0.88	51.61	1.9546	400.3900
14323	1509400323	54.5501	-110.3394	749.7	181.2	278.0	0.7	4.8	0.88	51.61	1.9537	401.1441
14324	1509400324	54.5502	-110.3407	751.0	192.4	278.6	1.0	4.4	0.88	51.61	1.9566	400.9198
14325	1509400325	54.5504	-110.3420	753.1	199.1	278.6	1.3	4.6	0.88	51.61	1.9553	400.5467
14326	1509400326	54.5505	-110.3432	754.9	199.9	278.7	1.4	4.4	0.88	51.61	1.9559	401.0283
14327	1509400327	54.5507	-110.3443	756.2	199.3	278.8	1.2	4.3	0.88	51.61	1.9576	401.0972
14328	1509400328	54.5508	-110.3455	757.1	199.7	279.1	1.2	3.7	0.88	51.61	1.9603	400.7789
14329	1509400329	54.5510	-110.3466	757.7	199.2	278.9	0.7	3.8	0.88	51.61	1.9620	400.5492
14330	1509400330	54.5511	-110.3478	757.1	199.8	278.8	0.6	3.7	0.88	51.61	1.9618	400.2452
14331	1509400331	54.5512	-110.3489	755.9	197.9	278.4	0.4	3.8	0.88	51.61	1.9600	400.0735
14332	1509400332	54.5514	-110.3500	754.5	198.5	278.2	0.2	3.8	0.88	51.61	1.9594	399.8446
14333	1509400333	54.5515	-110.3512	753.1	195.1	278.1	0.0	3.9	0.88	51.61	1.9598	400.2756
14334	1509400334	54.5516	-110.3523	751.8	190.8	277.8	0.4	4.0	0.88	51.61	1.9589	401.4248
14335	1509400335	54.5518	-110.3534	751.1	178.9	277.8	0.3	4.0	0.88	51.61	1.9557	401.6832
14336	1509400336	54.5519	-110.3546	750.5	165.5	277.9	0.7	3.6	0.88	51.61	1.9568	400.4469
14337	1509400337	54.5520	-110.3557	750.6	154.2	277.6	0.8	3.9	0.88	51.61	1.9574	400.4469
14338	1509400338	54.5521	-110.3568	751.0	150.1	277.5	0.8	3.7	0.88	51.61	1.9561	401.2036
14339	1509400339	54.5522	-110.3580	751.1	145.7	278.2	0.7	2.9	0.88	51.61	1.9567	401.0849
14340	1509400340	54.5524	-110.3592	751.2	143.8	277.6	0.4	3.3	0.88	51.61	1.9571	401.0849
14341	1509400341	54.5525	-110.3603	751.8	141.5	277.6	0.3	3.2	0.88	51.61	1.9561	399.4573
14342	1509400342	54.5526	-110.3614	752.7	138.9	277.4	0.5	3.2	0.88	51.61	1.9554	401.1209
14343	1509400343	54.5527	-110.3626	754.3	138.8	277.5	0.7	3.1	0.88	51.61	1.9549	401.1209
14344	1509400344	54.5528	-110.3637	756.3	138.3	276.7	1.1	4.0	0.88	51.61	1.9581	400.3009
14345	1509400345	54.5529	-110.3648	758.1	140.4	276.6	1.7	3.9	0.88	51.61	1.9565	400.9722
14346	1509400346	54.5531	-110.3660	759.7	143.7	276.4	1.7	4.1	0.88	51.61	1.9573	401.0479
14347	1509400347	54.5532	-110.3671	761.6	147.6	276.3	1.4	4.0	0.88	51.61	1.9566	400.4535
14348	1509400348	54.5533	-110.3682	763.4	151.5	276.7	0.9	3.5	0.88	51.61	1.9564	399.2114
14349	1509400349	54.5534	-110.3693	765.1	155.9	276.3	1.0	3.9	0.88	51.61	1.9579	400.4152
14350	1509400350	54.5535	-110.3705	766.1	160.1	276.9	1.0	3.6	0.88	51.61	1.9571	400.0781
14351	1509400351	54.5536	-110.3716	767.1	165.2	276.9	1.4	4.5	0.88	51.61	1.9559	400.8798
14352	1509400352	54.5537	-110.3727	770.5	170.5	277.4	2.0	5.1	0.88	51.61	1.9566	399.7996
14353	1509400353	54.5539	-110.3737	776.9	177.9	278.9	2.4	4.3	0.88	51.61	1.9556	400.6431
14354	1509400354	54.5540	-110.3748	784.2	186.2	280.3	2.2	3.7	0.88	51.61	1.9563	400.5587
14355	1509400355	54.5542	-110.3759	789.5	192.4	280.6	2.0	3.8	0.88	51.61	1.9566	400.0740
14356	1509400356	54.5543	-110.3770	793.7	197.8	280.8	2.1	3.4	0.88	51.61	1.9555	401.1550
14357	1509400357	54.5545	-110.3780	796.3	201.3	280.6	2.0	3.5	0.88	51.61	1.9551	401.1581
14358	1509400358	54.5546	-110.3790	797.6	203.6	279.3	1.8	4.7	0.88	51.61	1.9559	400.3221
14359	1509400359	54.5548	-110.3801	798.5	205.5	278.9	1.6	4.4	0.88	51.61	1.9556	400.7540
14360	1509400360	54.5549	-110.3811	799.3	207.3	278.5	1.5	4.3	0.88	51.61	1.9538	399.5566
14361	1509400361	54.5550	-110.3822	799.9	209.9	277.4	1.5	4.6	0.88	51.61	1.9541	400.4096
14362	1509400362	54.5551	-110.3832	800.2	213.3	277.6	1.3	4.3	0.88	51.61	1.9553	400.9915
14363	1509400363	54.5553	-110.3843	799.9	216.3	277.0	1.6	5.0	0.88	51.61	1.9557	400.7376
14364	1509400364	54.5554	-110.3853	800.2	219.2	278.0	1.9	4.5	0.88	51.61	1.9571	400.6460
14365	1509400365	54.5555	-110.3864	800.5	216.2	277.8	1.9	5.0	0.88	51.61	1.9570	403.1554
14366	1509400366	54.5556	-110.3874	799.2	211.6	278.4	1.6	4.4	0.88	51.61	1.9579	407.5587
14367	1509400367	54.5558	-110.3885	796.4	206.1	277.8	1.3	4.9	0.88	51.61	1.9588	408.7514
14368	1509400368	54.5559	-110.3896	793.4	200.8	278.3	1.4	3.8	0.88	51.61	1.9598	409.9441
14369	1509400369	54.5560	-110.3907	791.0	197.2	277.9	1.7	4.1	0.88	51.61	1.9608	411.1368
14370	1509400370	54.5562	-110.3917	789.5	193.8	277.7	1.7	4.1	0.88	51.61	1.9595	406.2873
14371	1509400371	54.5563	-110.3928	788.2	191.2	277.4	2.2	4.1	0.88	51.61	1.9550	402.0657
14372	1509400372	54.5564	-110.3939	786.1	186.8	276.4	2.0	4.7	0.88	51.61	1.9558	402.0657
14373	1509400373	54.5565	-110.3950	784.5	183.6	276.2	1.7	4.3	0.88	51.61	1.9548	401.1699
14374	1509400374	54.5566	-110.3961	782.8	181.6	275.6	1.6	4.7	0.88	51.61	1.9549	401.0179
14375	1509400375	54.5567	-110.3965	781.9	180.6	275.4	1.6	4.7	0.88	51.61	1.9555	400.4388
14376	1509400376	54.5567	-110.3967	781.6	179.5	275.4	1.7	4.6	0.88	51.61	1.9553	400.3466
14377	1509400377	54.5567	-110.3968	781.2	179.4	275.4	1.8	4.5	0.88	51.61	1.9552	402.4123
14378	1509400378	54.5567	-110.3971	780.5	178.8	275.4	1.8	4.4	0.88	51.61	1.9564	400.8751
14379	1509400379	54.5568	-110.3984	777.4	176.5	275.6	0.9	4.1	0.88	51.61	1.9562	400.5072
14380	1509400380	54.5569	-110.3997	775.7	173.7	276.0	0.7	3.8	0.88	51.61	1.9554	400.5072
14381	1509400381	54.5571	-110.4010	775.3	174.3	276.7	0.6	3.8	0.88	51.61	1.9562	400.8683
14382	1509400382	54.5572	-110.4023	775.3	174.3	277.9	0.6	3.6	0.88	51.61	1.9541	401.9286
14383	1509400383	54.5574	-110.4035	776.1	173.7	278.4	0.8	4.1	0.88	51.61	1.9546	401.0060
14384	1509400384	54.5575	-110.4048	779.1	175.2	278.5	1.3	4.3	0.88	51.61	1.9557	401.1917
14385	1509400385	54.5577	-110.4061	781.5	176.1	278.6	1.4	4.5	0.88	51.61	1.9558	400.4085
14386	1509400386	54.5578	-110.4073	781.8	175.8	279.3	1.8	4.0	0.88	51.61	1.9574	400.5802
14387	1509400387	54.5580	-110.4086	781.7	176.7	278.6	1.6	5.5	0.88	51.61	1.9561	401.2968
14388	1509400388	54.5582	-110.4099	782.5	178.4	279.8	1.4	4.1	0.88	51.61	1.9563	400.7334
14389	1509400389	54.5583	-110.4112	783.1	181.1	279.4	1.5	4.4	0.88	51.61	1.9556	400.7334
14390	1509400390	54.5585	-110.4124	783.3	182.9	279.4	1.5	4.4	0.88	51.61	1.9562	401.3558
14391	1509400391	54.5587	-110.4137	784.3	184.3	278.8	2.1	4.9	0.88	51.61	1.9562	400.4831
14392	1509400392	54.5589	-110.4150	785.1	186.1	279.3	2.1	4.1	0.88	51.61	1.9558	399.7530
14393	1509400393	54.5590	-110.4163	784.6	185.6	279.6	1.9	4.0	0.88	51.61	1.9551	401.4054
14394	1509400394	54.5592	-110.4175	783.7	183.9	279.6	1.5	4.0	0.88	51.61	1.9561	401.3883
14395	1509400395	54.5594	-110.4188	784.3	182.6	279.3	1.3	3.8	0.88	51.61	1.9568	400.6127
14396	1509400396	54.5595	-110.4201	785.7	181.0	278.8	1.2	3.8	0.88	51.61	1.9565	401.6192
14397	1509400397	54.5597	-110.4213	787.0	181.0	278.8	1.0	3.6	0.88	51.61	1.9566	400.6914
14398	1509400398	54.5598	-110.4225	788.1	181.1	278.5	1.5	4.0	0.88	51.61	1.9561	400.3959
14399	1509400399	54.5599	-110.4236	789.2	182.2	278.3	1.9	4.3	0.88	51.61	1.9571	399.9899
14400	1509400400	54.5601	-110.4247	790.6	184.6	277.7	1.9	4.8	0.88	51.61	1.9567	401.1189
14401	1509400401	54.5602	-110.4258	792.5	187.4	277.5	1.8	5.1	0.88	51.61	1.9552	401.1189
14402	1509400402	54.5603	-110.4269	793.6	190.6	277.6	1.9	5.2	0.88	51.61	1.9546	401.2463
14403	1509400403	54.5605	-110.4280	793.7	192.7	278.2	1.8	4.6	0.88	51.61	1.9545	399.9955
14404	1509400404	54.5606	-110.4291	793.4	193.7	278.6	1.7	4.5	0.88	51.61	1.9554	399.9955
14405	1509400405	54.5608	-110.4301	793.5	195.3	278.6	1.8	4.5	0.88	51.61	1.9551	401.1010
14406	1509400406	54.5609	-110.4312	794.4	196.0	278.8	1.6	4.2	0.88	51.61	1.9562	401.1911
14407	1509400407	54.5610	-110.4323	795.3	198.0	278.6	1.3	4.2	0.88	51.61	1.9577	400.9849
14408	1509400408	54.5612	-110.4334	795.7	196.7	279.2	1.1	3.5	0.88	51.61	1.9579	400.3798
14409	1509400409	54.5613	-110.4345	796.2	196.2	279.2	0.7	3.4	0.88	51.61	1.9566	400.3798
14410	1509400410	54.5614	-110.4355	796.9	194.1	279.6	0.4	2.7	0.88	51.61	1.9563	400.5293
14411	1509400411	54.5616	-110.4366	797.1	194.4	278.9	0.0	3.5	0.88	51.61	1.9560	402.0340
14412	1509400412	54.5617	-110.4377	797.2	193.9	278.2	0.3	4.1	0.88	51.61	1.9565	400.7598
14413	1509400413	54.5618	-110.4388	797.5	195.1	278.0	1.2	4.2	0.88	51.61	1.9570	400.7823
14414	1509400414	54.5619	-110.4399	797.4	196.0	278.2	1.5	4.0	0.88	51.61	1.9550	402.0012
14415	1509400415	54.5621	-110.4410	796.4	194.4	278.7	0.8	4.1	0.88	51.61	1.9573	402.0012
14416	1509400416	54.5622	-110.4421	794.9	193.9	278.5	1.2	4.6	0.88	51.61	1.9573	402.2459
14417	1509400417	54.5623	-110.4432	793.9	192.7	278.9	1.0	3.9	0.88	51.61	1.9557	399.9401
14418	1509400418	54.5625	-110.4442	794.0	193.2	278.6	1.0	3.7	0.88	51.61	1.9557	399.9401
14419	1509400419	54.5626	-110.4454	794.6	195.0	278.4	0.9	3.7	0.88	51.61	1.9560	400.6177
14420	1509400420	54.5627	-110.4465	794.1	196.3	276.8	0.5	5.1	0.88	51.61	1.9550	401.9923
14421	1509400421	54.5629	-110.4476	793.4	195.4	276.8	0.3	4.8	0.88	51.61	1.9543	400.9813
14422	1509400422	54.5630	-110.4487	793.1	196.1	276.2	0.3	5.2	0.88	51.61	1.9545	400.1588
14423	1509400423	54.5631	-110.4498	792.7	194.9	275.8	1.0	5.1	0.88	51.61	1.9531	401.3334
14424	1509400424	54.5632	-110.4509	792.3	195.3	275.8	1.2	4.7	0.88	51.61	1.9546	401.3334
14425	1509400425	54.5633	-110.4520	791.7	195.4	275.5	1.2	4.9	0.88	51.61	1.9526	400.6705
14426	1509400426	54.5634	-110.4531	791.6	195.2	275.4	1.1	4.7	0.88	51.61	1.9537	401.1414
14427	1509400427	54.5635	-110.4543	792.1	196.0	275.6	1.2	4.5	0.88	51.61	1.9536	401.1414
14428	1509400428	54.5636	-110.4554	792.6	196.6	275.5	1.2	4.6	0.88	51.61	1.9536	401.1414
14429	1509400429	54.5637	-110.4565	792.7	197.7	275.5	1.2	4.6	0.88	51.61	1.9535	401.1414
14430	1509400430	54.5638	-110.4576	792.8	197.8	275.0	1.2	4.9	0.88	51.61	1.9529	400.3240
14431	1509400431	54.5639	-110.4587	793.3	198.3	275.6	1.2	3.8	0.88	51.61	1.9548	399.9265
14432	1509400432	54.5640	-110.4598	794.1	200.1	275.8	0.8	3.6	0.88	51.61	1.9535	399.9265
14433	1509400433	54.5641	-110.4609	794.6	201.6	275.4	0.6	4.0	0.88	51.61	1.9517	400.2112
14434	1509400434	54.5642	-110.4620	794.8	203.8	275.0	0.7	4.6	0.88	51.61	1.9527	400.8367
14435	1509400435	54.5643	-110.4624	794.8	203.9	274.7	0.7	5.0	0.88	51.61	1.9516	401.1468
14436	1509400436	54.5643	-110.4624	794.9	203.9	274.7	0.7	5.0	0.88	51.61	1.9528	401.1468
14437	1509400437	54.5643	-110.4625	794.9	204.7	274.7	0.7	5.0	0.88	51.61	1.9538	400.1391
14438	1509400438	54.5643	-110.4626	794.9	204.8	274.6	0.7	5.0	0.88	51.61	1.9533	400.2830
14439	1509400439	54.5643	-110.4627	794.9	204.8	274.6	0.7	5.0	0.88	51.61	1.9535	401.2772
14440	1509400440	54.5643	-110.4628	795.0	204.8	274.6	0.7	5.0	0.88	51.61	1.9537	402.3935
14441	1509400441	54.5643	-110.4628	795.0	205.0	274.6	0.7	5.0	0.88	51.61	1.9524	400.9546
14442	1509400442	54.5644	-110.4639	795.1	206.1	274.8	1.8	5.1	0.88	51.61	1.9537	401.5811
14443	1509400443	54.5645	-110.4652	796.0	207.0	274.3	2.3	5.7	0.88	51.61	1.9547	401.9617
14444	1509400444	54.5646	-110.4665	795.4	206.4	276.1	2.0	4.1	0.88	51.61	1.9510	401.6307
14445	1509400445	54.5648	-110.4678	793.6	203.5	276.3	1.7	4.5	0.88	51.61	1.9512	400.2594
14446	1509400446	54.5649	-110.4691	790.8	201.5	276.5	1.5	5.5	0.88	51.61	1.9512	400.2594
14447	1509400447	54.5651	-110.4704	789.1	200.1	277.6	1.2	5.7	0.88	51.61	1.9527	400.8559
14448	1509400448	54.5652	-110.4717	788.3	199.7	279.7	0.7	4.8	0.88	51.61	1.9524	401.1236
14449	1509400449	54.5654	-110.4730	788.5	199.5	280.7	1.1	4.9	0.88	51.61	1.9542	400.4032
14450	1509400450	54.5656	-110.4742	789.2	199.2	281.4	1.7	4.3	0.88	51.61	1.9545	401.2922
14451	1509400451	54.5658	-110.4755	789.6	199.5	280.9	1.8	4.7	0.88	51.61	1.9538	401.2922
14452	1509400452	54.5660	-110.4768	789.6	199.6	280.7	1.7	4.6	0.88	51.61	1.9541	400.0513
14453	1509400453	54.5662	-110.4781	789.1	198.1	279.8	1.7	5.2	0.88	51.61	1.9540	400.6899
14454	1509400454	54.5664	-110.4794	787.9	195.9	279.6	1.6	5.4	0.88	51.61	1.9517	401.3185
14455	1509400455	54.5666	-110.4807	787.3	192.7	280.0	1.4	4.7	0.88	51.61	1.9525	400.5804
14456	1509400456	54.5668	-110.4820	787.3	190.3	281.0	0.8	4.1	0.88	51.61	1.9540	399.7808
14457	1509400457	54.5669	-110.4833	787.9	190.0	280.9	0.4	4.0	0.88	51.61	1.9538	400.7904
14458	1509400458	54.5671	-110.4846	789.2	190.2	280.8	0.9	4.0	0.88	51.61	1.9551	400.7904
14459	1509400459	54.5673	-110.4859	790.9	191.9	279.2	1.0	5.7	0.88	51.61	1.9548	400.8576
14460	1509400460	54.5675	-110.4872	792.3	193.3	279.3	1.1	5.5	0.88	51.61	1.9571	400.3237
14461	1509400461	54.5677	-110.4884	793.3	194.4	278.8	1.9	5.8	0.88	51.61	1.9569	400.5062
14462	1509400462	54.5678	-110.4897	794.9	195.9	279.2	2.0	4.8	0.88	51.61	1.9612	400.5062
14463	1509400463	54.5680	-110.4910	795.4	197.4	279.1	1.5	4.6	0.88	51.61	1.9591	402.4155
14464	1509400464	54.5682	-110.4922	794.7	196.6	279.2	1.2	4.5	0.88	51.61	1.9597	401.3015
14465	1509400465	54.5684	-110.4935	794.7	197.8	279.6	1.2	4.2	0.88	51.61	1.9605	401.3015
14466	1509400466	54.5685	-110.4948	794.9	197.2	278.8	1.4	5.4	0.88	51.61	1.9579	400.9908
14467	1509400467	54.5687	-110.4961	795.5	197.5	279.2	1.1	5.2	0.88	51.61	1.9564	400.1119
14468	1509400468	54.5689	-110.4974	795.8	199.1	279.0	1.0	5.5	0.88	51.61	1.9584	400.2964
14469	1509400469	54.5691	-110.4987	796.5	200.0	279.2	1.1	5.1	0.88	51.61	1.9615	400.2706
14470	1509400470	54.5692	-110.4999	796.7	199.4	279.2	1.0	4.9	0.88	51.61	1.9622	401.2318
14471	1509400471	54.5694	-110.5012	796.2	197.1	279.1	0.8	4.6	0.88	51.61	1.9617	401.6642
14472	1509400472	54.5696	-110.5025	796.6	196.7	278.9	1.0	4.6	0.88	51.61	1.9615	401.7535
14473	1509400473	54.5697	-110.5038	797.8	196.8	278.5	0.9	4.7	0.88	51.61	1.9614	400.9920
14474	1509400474	54.5699	-110.5050	799.8	198.8	278.5	0.8	4.5	0.88	51.61	1.9618	400.1414
14475	1509400475	54.5701	-110.5063	801.7	199.7	277.9	1.0	5.1	0.88	51.61	1.9632	400.5672
14476	1509400476	54.5702	-110.5075	803.5	201.5	278.0	0.8	4.8	0.88	51.61	1.9657	400.5616
14477	1509400477	54.5704	-110.5088	804.3	202.3	278.0	0.7	4.6	0.88	51.61	1.9671	400.5616
14478	1509400478	54.5705	-110.5100	804.3	201.3	278.2	1.0	4.3	0.88	51.61	1.9666	401.7651
14479	1509400479	54.5707	-110.5113	804.0	201.0	277.9	1.6	4.5	0.88	51.61	1.9669	400.4004
14480	1509400480	54.5708	-110.5126	802.8	199.8	278.3	1.2	4.2	0.88	51.61	1.9674	400.5628
14481	1509400481	54.5710	-110.5139	800.3	198.3	278.3	0.5	4.7	0.88	51.61	1.9689	401.7781
14482	1509400482	54.5711	-110.5151	796.8	194.8	278.6	0.7	4.8	0.88	51.61	1.9701	400.8021
14483	1509400483	54.5713	-110.5162	794.9	192.9	278.7	1.4	5.0	0.88	51.61	1.9716	400.4586
14484	1509400484	54.5714	-110.5174	793.5	192.5	280.5	1.0	3.4	0.88	51.61	1.9715	402.1019
14485	1509400485	54.5716	-110.5185	792.0	192.1	279.6	1.0	4.5	0.88	51.61	1.9706	400.4657
14486	1509400486	54.5717	-110.5196	790.5	192.2	279.0	1.3	4.6	0.88	51.61	1.9718	400.1498
14487	1509400487	54.5719	-110.5208	789.3	193.5	278.8	1.1	4.4	0.88	51.61	1.9719	400.3474
14488	1509400488	54.5720	-110.5218	787.9	195.6	278.3	1.0	4.4	0.88	51.61	1.9719	400.5610
14489	1509400489	54.5721	-110.5230	786.9	196.9	277.5	1.5	4.9	0.88	51.61	1.9719	400.7745
14490	1509400490	54.5723	-110.5242	786.0	194.2	277.7	0.7	4.4	0.88	51.61	1.9720	400.9881
14491	1509400491	54.5724	-110.5253	784.6	190.3	278.3	1.0	3.8	0.88	51.61	1.9720	401.2017
14492	1509400492	54.5725	-110.5265	783.3	185.1	278.5	0.8	3.8	0.88	51.61	1.9720	401.4153
14493	1509400493	54.5727	-110.5276	782.0	181.0	278.8	1.2	3.8	0.88	51.61	1.9718	399.6418
14494	1509400494	54.5728	-110.5287	780.6	177.6	278.5	1.2	4.3	0.88	51.61	1.9686	399.9745
14495	1509400495	54.5729	-110.5291	780.3	177.3	278.5	1.2	4.4	0.88	51.61	1.9652	399.8098
14496	1509400496	54.5729	-110.5292	780.2	177.2	278.5	1.2	4.4	0.88	51.61	1.9654	400.2409
14497	1509400497	54.5729	-110.5293	780.1	177.1	278.5	1.2	4.4	0.88	51.61	1.9649	400.5282
14498	1509400498	54.5729	-110.5293	780.1	177.1	278.4	1.2	4.5	0.88	51.61	1.9651	400.9130
14499	1509400499	54.5729	-110.5294	780.0	177.0	278.4	0.4	4.6	0.88	51.61	1.9641	400.8219
14500	1509400500	54.5729	-110.5295	780.0	177.0	278.4	-0.3	4.7	0.88	51.61	1.9644	399.9826
14501	1509400501	54.5729	-110.5296	779.9	176.9	278.3	0.0	4.7	0.88	51.61	1.9651	399.8693
14502	1509400502	54.5731	-110.5306	779.0	175.0	278.2	0.0	4.8	0.88	51.61	1.9647	400.9649
14503	1509400503	54.5732	-110.5320	777.7	172.7	278.1	-0.4	4.8	0.88	51.61	1.9657	401.5501
14504	1509400504	54.5734	-110.5333	779.1	173.1	277.7	-0.5	5.0	0.88	51.61	1.9646	401.0369
14505	1509400505	54.5735	-110.5347	783.2	177.2	278.1	-0.2	4.2	0.88	51.61	1.9635	401.1714
14506	1509400506	54.5737	-110.5360	787.7	181.7	277.9	0.3	4.5	0.88	51.61	1.9655	401.1447
14507	1509400507	54.5738	-110.5373	791.5	184.5	277.8	0.8	4.8	0.88	51.61	1.9659	401.1663
14508	1509400508	54.5740	-110.5386	794.4	187.0	277.8	1.2	4.9	0.88	51.61	1.9662	400.6479
14509	1509400509	54.5741	-110.5398	796.8	187.8	277.7	1.2	5.3	0.88	51.61	1.9680	401.3951
14510	1509400510	54.5743	-110.5412	797.9	188.9	278.8	0.7	4.7	0.88	51.61	1.9754	400.7969
14511	1509400511	54.5745	-110.5424	798.5	189.5	279.9	0.2	4.5	0.88	51.61	1.9800	401.5159
14512	1509400512	54.5747	-110.5437	799.7	190.7	281.0	0.2	4.8	0.88	51.61	2.0036	401.6568
14513	1509400513	54.5749	-110.5450	802.0	192.0	282.4	0.4	4.0	0.88	51.61	1.9995	402.3092
14514	1509400514	54.5751	-110.5463	805.5	194.5	281.9	1.0	4.3	0.88	51.61	1.9921	406.7559
14515	1509400515	54.5753	-110.5475	810.1	198.1	280.2	1.6	4.7	0.88	51.61	1.9954	470.6705
14516	1509400516	54.5754	-110.5487	813.3	200.3	278.7	1.7	4.9	0.88	51.61	1.9844	459.6214
14517	1509400517	54.5756	-110.5500	815.5	201.5	277.2	1.8	5.5	0.88	51.61	1.9811	459.6214
14518	1509400518	54.5757	-110.5512	817.8	202.8	277.0	2.0	5.3	0.88	51.61	1.9836	407.7800
14519	1509400519	54.5759	-110.5525	819.7	204.7	277.3	2.2	5.0	0.88	51.61	1.9808	401.9901
14520	1509400520	54.5760	-110.5537	821.8	206.8	276.8	2.4	5.5	0.88	51.61	1.9843	402.4208
14521	1509400521	54.5762	-110.5549	822.5	207.5	277.4	2.3	5.1	0.88	51.61	1.9840	400.5910
14522	1509400522	54.5763	-110.5561	822.6	206.6	277.4	2.8	5.5	0.88	51.61	1.9849	401.3461
14523	1509400523	54.5765	-110.5573	823.2	206.2	277.3	2.8	5.7	0.88	51.61	1.9852	401.1949
14524	1509400524	54.5766	-110.5585	821.2	204.2	277.9	2.5	5.0	0.88	51.61	1.9821	401.8463
14525	1509400525	54.5768	-110.5598	817.7	199.7	277.4	2.4	5.1	0.88	51.61	1.9837	401.8520
14526	1509400526	54.5769	-110.5610	814.9	196.9	278.1	1.9	3.7	0.88	51.61	1.9868	401.1849
14527	1509400527	54.5771	-110.5623	812.2	194.2	276.8	2.1	4.7	0.88	51.61	1.9871	401.2761
14528	1509400528	54.5772	-110.5635	810.2	191.2	276.6	2.3	4.4	0.88	51.61	1.9868	399.4850
14529	1509400529	54.5773	-110.5648	808.6	189.6	276.0	1.6	5.3	0.88	51.61	1.9881	401.4850
14530	1509400530	54.5775	-110.5661	807.1	187.1	275.8	1.5	5.3	0.88	51.61	1.9879	396.5017
14531	1509400531	54.5776	-110.5673	806.6	187.3	276.0	1.3	4.7	0.88	51.61	1.9889	397.8035
14532	1509400532	54.5777	-110.5686	806.5	186.7	275.4	1.4	5.1	0.88	51.61	1.9913	400.6704
14533	1509400533	54.5779	-110.5699	806.9	186.9	275.1	1.9	5.3	0.88	51.61	1.9911	400.6704
14534	1509400534	54.5780	-110.5711	806.6	186.6	275.0	1.9	5.1	0.88	51.61	1.9953	400.7640
14535	1509400535	54.5781	-110.5724	806.4	186.4	275.8	1.4	4.8	0.88	51.61	1.9909	400.6139
14536	1509400536	54.5782	-110.5737	806.3	186.3	276.5	1.4	5.1	0.88	51.61	1.9854	401.7491
14537	1509400537	54.5784	-110.5750	807.3	187.3	277.4	1.6	5.1	0.88	51.61	1.9759	401.1294
14538	1509400538	54.5785	-110.5762	808.7	189.4	278.3	2.0	4.6	0.88	51.61	1.9732	400.5295
14539	1509400539	54.5787	-110.5775	809.8	191.8	278.5	2.6	4.2	0.88	51.61	1.9760	400.1224
14540	1509400540	54.5788	-110.5788	811.5	194.5	277.7	2.7	5.2	0.88	51.61	1.9800	401.0342
14541	1509400541	54.5790	-110.5800	813.3	197.7	277.5	2.7	5.1	0.88	51.61	1.9787	400.9763
14542	1509400542	54.5791	-110.5813	813.9	198.2	277.7	1.8	4.6	0.88	51.61	1.9670	400.6221
14543	1509400543	54.5793	-110.5825	814.2	199.8	277.1	2.0	4.8	0.88	51.61	1.9634	400.7200
14544	1509400544	54.5794	-110.5836	813.1	198.7	277.0	2.4	4.9	0.88	51.61	1.9667	398.5331
14545	1509400545	54.5795	-110.5847	811.1	198.1	276.7	2.3	5.1	0.88	51.61	1.9760	400.0278
14546	1509400546	54.5797	-110.5858	809.0	195.0	276.8	2.1	5.0	0.88	51.61	1.9817	400.0278
14547	1509400547	54.5798	-110.5869	806.9	193.2	277.0	1.8	4.9	0.88	51.61	1.9834	400.4809
14548	1509400548	54.5799	-110.5880	804.5	192.4	277.0	1.7	4.9	0.88	51.61	1.9849	400.9480
14549	1509400549	54.5800	-110.5891	801.8	196.5	277.4	1.6	4.6	0.88	51.61	1.9864	401.4151
14550	1509400550	54.5802	-110.5902	799.8	203.0	277.1	1.7	5.2	0.88	51.61	1.9795	401.7709
14551	1509400551	54.5803	-110.5913	797.9	207.9	276.8	1.8	5.6	0.88	51.61	1.9859	400.3032
14552	1509400552	54.5804	-110.5924	796.8	204.4	277.0	1.6	5.5	0.88	51.61	1.9890	400.9432
14553	1509400553	54.5806	-110.5936	795.5	194.2	277.6	1.4	4.9	0.88	51.61	1.9858	400.3968
14554	1509400554	54.5807	-110.5947	793.7	183.6	278.1	1.1	4.6	0.88	51.61	1.9795	400.7818
14555	1509400555	54.5807	-110.5951	793.0	180.6	278.1	1.1	4.7	0.88	51.61	1.9811	399.8494
14556	1509400556	54.5808	-110.5953	792.6	180.3	278.0	1.1	4.9	0.88	51.61	1.9876	400.2535
14557	1509400557	54.5808	-110.5954	792.3	179.9	277.9	1.1	5.1	0.88	51.61	1.9978	400.9228
14558	1509400558	54.5808	-110.5958	791.6	179.5	277.6	1.7	5.4	0.88	51.61	2.0008	399.0485
14559	1509400559	54.5810	-110.5971	789.6	186.0	277.6	1.3	5.6	0.88	51.61	2.0048	401.2820
14560	1509400560	54.5811	-110.5983	789.9	198.2	278.1	1.0	5.5	0.88	51.61	2.0067	400.9994
14561	1509400561	54.5813	-110.5996	791.2	203.2	278.5	0.9	4.8	0.88	51.61	2.0062	402.1331
14562	1509400562	54.5815	-110.6009	792.9	205.1	278.2	0.8	5.1	0.88	51.61	2.0023	401.0423
14563	1509400563	54.5816	-110.6023	794.6	205.2	278.5	0.8	4.6	0.88	51.61	2.0009	401.0423
14564	1509400564	54.5818	-110.6035	796.1	201.5	279.3	0.4	3.8	0.88	51.61	2.0044	401.2410
14565	1509400565	54.5820	-110.6048	798.1	188.6	280.0	0.5	3.1	0.88	51.61	2.0032	399.5811
14566	1509400566	54.5821	-110.6061	798.9	187.0	279.0	0.9	4.8	0.88	51.61	2.0046	399.9918
14567	1509400567	54.5823	-110.6074	801.2	183.0	279.1	0.6	4.8	0.88	51.61	1.9979	401.1178
14568	1509400568	54.5825	-110.6086	803.2	182.2	278.6	0.8	5.0	0.88	51.61	1.9996	400.1605
14569	1509400569	54.5826	-110.6099	805.4	183.4	278.1	0.5	5.3	0.88	51.61	2.0037	401.3374
14570	1509400570	54.5828	-110.6112	807.6	183.5	278.1	0.7	4.9	0.88	51.61	2.0042	400.7971
14571	1509400571	54.5829	-110.6124	809.4	185.4	277.5	1.0	5.1	0.88	51.61	2.0054	400.4941
14572	1509400572	54.5831	-110.6137	811.7	187.7	277.4	0.6	4.6	0.88	51.61	2.0033	400.6274
14573	1509400573	54.5832	-110.6150	812.8	189.8	277.4	0.7	4.8	0.88	51.61	2.0010	401.0061
14574	1509400574	54.5834	-110.6163	814.1	191.1	277.3	0.8	4.8	0.88	51.61	1.9997	399.0466
14575	1509400575	54.5835	-110.6175	815.5	192.5	277.5	1.0	4.8	0.88	51.61	1.9975	399.0466
14576	1509400576	54.5837	-110.6188	816.6	192.6	278.2	0.9	4.4	0.88	51.61	1.9882	400.7299
14577	1509400577	54.5838	-110.6200	817.7	192.7	278.7	0.9	4.2	0.88	51.61	1.9944	398.6391
14578	1509400578	54.5840	-110.6213	818.2	192.2	279.2	1.0	3.9	0.88	51.61	1.9871	400.0167
14579	1509400579	54.5841	-110.6225	818.4	191.4	279.2	1.0	4.0	0.88	51.61	1.9837	400.1860
14580	1509400580	54.5843	-110.6235	818.9	191.9	279.3	0.9	3.8	0.88	51.61	1.9814	399.5582
14581	1509400581	54.5844	-110.6246	820.2	193.2	278.9	1.2	4.3	0.88	51.61	1.9791	400.7860
14582	1509400582	54.5845	-110.6257	821.8	194.8	278.9	0.9	4.1	0.88	51.61	1.9785	401.2069
14583	1509400583	54.5847	-110.6268	822.8	195.8	279.0	0.7	4.1	0.88	51.61	1.9779	400.9095
14584	1509400584	54.5848	-110.6279	823.3	196.3	278.4	0.8	5.0	0.88	51.61	1.9772	400.4138
14585	1509400585	54.5850	-110.6290	823.1	196.1	278.3	1.0	5.2	0.88	51.61	1.9721	400.4372
14586	1509400586	54.5851	-110.6301	822.7	196.5	278.6	1.1	5.0	0.88	51.61	1.9677	401.1183
14587	1509400587	54.5852	-110.6311	821.6	195.6	278.8	1.1	4.8	0.88	51.61	1.9647	399.4449
14588	1509400588	54.5854	-110.6322	820.5	194.5	279.3	1.3	4.1	0.88	51.61	1.9642	399.3234
14589	1509400589	54.5855	-110.6333	820.5	194.5	278.3	1.4	5.2	0.88	51.61	1.9684	400.3283
14590	1509400590	54.5857	-110.6344	819.8	194.6	278.6	1.3	4.8	0.88	51.61	1.9650	400.2590
14591	1509400591	54.5858	-110.6355	818.6	193.9	278.3	1.5	4.9	0.88	51.61	1.9679	401.2698
14592	1509400592	54.5859	-110.6366	817.2	195.6	278.1	1.3	4.9	0.88	51.61	1.9682	400.6771
14593	1509400593	54.5861	-110.6376	816.4	197.5	277.7	1.1	4.8	0.88	51.61	1.9674	400.9549
14594	1509400594	54.5862	-110.6388	815.3	196.3	278.1	0.7	4.0	0.88	51.61	1.9649	400.9549
14595	1509400595	54.5863	-110.6399	813.2	191.9	276.8	0.3	5.5	0.88	51.61	1.9683	399.2057
14596	1509400596	54.5865	-110.6411	811.4	187.9	276.6	1.0	5.3	0.88	51.61	1.9654	400.5984
14597	1509400597	54.5866	-110.6422	809.5	186.1	277.3	0.8	4.6	0.88	51.61	1.9636	400.0826
14598	1509400598	54.5867	-110.6433	808.2	183.5	276.9	0.7	5.0	0.88	51.61	1.9629	400.3305
14599	1509400599	54.5868	-110.6444	807.1	180.5	277.5	0.5	4.3	0.88	51.61	1.9630	401.4329
14600	1509400600	54.5870	-110.6455	806.0	176.0	277.3	0.9	4.6	0.88	51.61	1.9612	401.8661
14601	1509400601	54.5871	-110.6467	805.3	172.6	277.4	0.8	4.3	0.88	51.61	1.9616	400.2289
14602	1509400602	54.5872	-110.6478	804.4	170.4	277.6	1.2	4.1	0.88	51.61	1.9626	398.4342
14603	1509400603	54.5873	-110.6489	803.5	166.4	277.3	1.1	4.4	0.88	51.61	1.9616	400.4541
14604	1509400604	54.5875	-110.6501	802.4	163.3	277.5	1.0	4.1	0.88	51.61	1.9616	400.7535
14605	1509400605	54.5876	-110.6512	801.9	160.8	277.8	1.4	3.6	0.88	51.61	1.9614	400.7202
14606	1509400606	54.5877	-110.6523	802.8	160.7	277.6	1.3	3.9	0.88	51.61	1.9621	399.5347
14607	1509400607	54.5878	-110.6535	806.2	163.2	277.2	1.4	4.4	0.88	51.61	1.9619	399.5347
14608	1509400608	54.5880	-110.6546	811.2	168.2	277.2	0.9	4.6	0.88	51.61	1.9617	399.5347
14609	1509400609	54.5881	-110.6557	815.1	172.3	277.6	1.7	4.1	0.88	51.61	1.9614	399.5347
14610	1509400610	54.5882	-110.6568	818.4	176.4	277.7	1.2	4.5	0.88	51.61	1.9604	401.2176
14611	1509400611	54.5883	-110.6579	820.8	178.8	277.0	1.0	5.7	0.88	51.61	1.9591	400.6716
14612	1509400612	54.5885	-110.6590	823.5	181.5	278.3	1.2	4.4	0.88	51.61	1.9593	399.5006
14613	1509400613	54.5886	-110.6600	827.7	185.7	278.6	1.5	4.7	0.88	51.61	1.9589	398.3045
14614	1509400614	54.5887	-110.6611	832.7	190.7	277.8	2.1	5.8	0.88	51.61	1.9590	399.9472
14615	1509400615	54.5888	-110.6615	834.4	192.1	277.9	2.1	5.7	0.88	51.61	1.9603	399.9472
14616	1509400616	54.5888	-110.6616	835.0	192.7	278.0	1.9	5.7	0.88	51.61	1.9601	400.8921
14617	1509400617	54.5888	-110.6618	835.6	192.6	278.1	1.7	5.6	0.88	51.61	1.9610	401.8087
14618	1509400618	54.5888	-110.6619	836.3	193.2	278.2	1.4	5.5	0.88	51.61	1.9592	401.0110
14619	1509400619	54.5890	-110.6631	840.3	197.3	278.0	1.0	5.8	0.88	51.61	1.9594	400.7977
14620	1509400620	54.5892	-110.6644	843.1	200.1	278.1	1.5	5.4	0.88	51.61	1.9572	401.0860
14621	1509400621	54.5893	-110.6656	844.7	201.5	277.9	1.5	5.4	0.88	51.61	1.9571	400.7617
14622	1509400622	54.5895	-110.6667	844.9	201.9	277.5	1.3	5.4	0.88	51.61	1.9593	400.4366
14623	1509400623	54.5896	-110.6679	845.3	203.3	277.4	1.3	5.3	0.88	51.61	1.9580	401.9307
14624	1509400624	54.5898	-110.6691	845.8	204.8	277.3	1.3	5.6	0.88	51.61	1.9586	399.8888
14625	1509400625	54.5899	-110.6704	844.1	203.1	277.2	1.5	5.8	0.88	51.61	1.9594	400.2488
14626	1509400626	54.5901	-110.6716	840.8	200.0	277.8	1.3	5.7	0.88	51.61	1.9582	401.0053
14627	1509400627	54.5902	-110.6728	838.7	198.7	278.1	1.0	5.9	0.88	51.61	1.9582	401.0937
14628	1509400628	54.5904	-110.6740	836.8	197.8	278.4	1.2	5.8	0.88	51.61	1.9601	400.7762
14629	1509400629	54.5906	-110.6752	835.4	196.5	279.3	1.3	5.4	0.88	51.61	1.9613	399.9250
14630	1509400630	54.5907	-110.6764	833.6	195.6	279.1	1.2	6.0	0.88	51.61	1.9601	400.6250
14631	1509400631	54.5909	-110.6776	831.3	194.3	279.8	0.7	5.6	0.88	51.61	1.9597	400.8789
14632	1509400632	54.5911	-110.6788	828.2	192.2	280.0	0.5	5.4	0.88	51.61	1.9587	400.6898
14633	1509400633	54.5913	-110.6800	824.2	189.2	281.3	0.8	4.5	0.88	51.61	1.9607	400.6769
14634	1509400634	54.5915	-110.6813	820.0	186.0	280.6	1.6	6.0	0.88	51.61	1.9594	400.8632
14635	1509400635	54.5917	-110.6825	816.3	182.3	282.6	0.8	4.4	0.88	51.61	1.9595	401.4636
14636	1509400636	54.5919	-110.6837	813.8	180.1	283.0	0.5	5.1	0.88	51.61	1.9612	401.4439
14637	1509400637	54.5921	-110.6850	812.4	177.5	283.1	0.5	5.2	0.88	51.61	1.9612	401.4439
14638	1509400638	54.5923	-110.6862	811.7	172.7	283.0	1.0	5.4	0.88	51.61	1.9615	400.6334
14639	1509400639	54.5926	-110.6874	811.3	169.5	283.5	1.3	4.9	0.88	51.61	1.9616	399.5435
14640	1509400640	54.5928	-110.6886	810.2	167.2	283.4	0.8	4.8	0.88	51.61	1.9616	402.0375
14641	1509400641	54.5930	-110.6897	808.9	164.9	283.8	0.3	4.2	0.88	51.61	1.9607	401.5311
14642	1509400642	54.5932	-110.6908	807.2	163.5	283.0	0.5	4.8	0.88	51.61	1.9609	401.2136
14643	1509400643	54.5933	-110.6918	804.3	161.9	282.7	0.8	4.7	0.88	51.61	1.9606	401.4931
14644	1509400644	54.5935	-110.6929	801.0	159.7	282.3	0.5	4.7	0.88	51.61	1.9613	401.7377
14645	1509400645	54.5937	-110.6940	796.9	155.9	282.2	-0.4	4.5	0.88	51.61	1.9619	401.1515
14646	1509400646	54.5939	-110.6950	792.7	151.7	281.6	-0.7	4.8	0.88	51.61	1.9602	401.3257
14647	1509400647	54.5940	-110.6961	788.2	148.2	280.8	-0.3	5.3	0.88	51.61	1.9611	401.3257
14648	1509400648	54.5942	-110.6972	783.8	143.8	279.8	0.0	5.9	0.88	51.61	1.9609	400.9362
14649	1509400649	54.5944	-110.6983	780.8	141.8	280.8	0.1	5.0	0.88	51.61	1.9622	401.2958
14650	1509400650	54.5945	-110.6994	776.9	138.9	280.5	0.5	5.6	0.88	51.61	1.9606	401.1640
14651	1509400651	54.5947	-110.7005	772.6	135.6	282.4	0.4	4.1	0.88	51.61	1.9594	401.1084
14652	1509400652	54.5949	-110.7016	768.4	131.2	283.1	0.1	5.3	0.88	51.61	1.9591	400.4872
14653	1509400653	54.5951	-110.7026	763.8	125.8	284.7	0.4	6.5	0.88	51.61	1.9602	401.4370
14654	1509400654	54.5953	-110.7037	757.5	119.5	289.5	0.2	5.4	0.88	51.61	1.9623	401.4370
14655	1509400655	54.5957	-110.7048	751.3	112.3	294.7	-0.5	5.1	0.88	51.61	1.9613	400.8041
14656	1509400656	54.5960	-110.7059	746.9	107.9	299.2	-0.8	4.1	0.88	51.61	1.9630	401.9289
14657	1509400657	54.5964	-110.7069	743.3	104.3	301.1	-0.6	4.1	0.88	51.61	1.9620	401.9289
14658	1509400658	54.5968	-110.7079	740.5	101.5	301.9	-0.6	4.3	0.88	51.61	1.9618	402.1908
14659	1509400659	54.5972	-110.7089	737.9	98.9	302.8	-0.9	3.6	0.88	51.61	1.9621	401.0902
14660	1509400660	54.5976	-110.7099	735.9	94.9	302.4	-0.8	3.7	0.88	51.61	1.9628	401.5730
14661	1509400661	54.5980	-110.7109	733.6	91.6	302.3	-0.9	3.8	0.88	51.61	1.9633	401.5730
14662	1509400662	54.5984	-110.7119	731.9	88.9	301.7	-0.8	3.7	0.88	51.61	1.9656	401.2134
14663	1509400663	54.5988	-110.7129	729.9	86.9	302.0	-1.2	2.8	0.88	51.61	1.9675	402.0292
14664	1509400664	54.5991	-110.7139	726.9	83.9	300.9	-1.4	3.1	0.88	51.61	1.9675	401.9959
14665	1509400665	54.5995	-110.7150	724.5	81.5	300.5	-1.9	2.3	0.88	51.61	1.9676	401.1685
14666	1509400666	54.5999	-110.7160	721.8	79.8	298.2	-1.1	3.0	0.88	51.61	1.9672	401.5088
14667	1509400667	54.6002	-110.7171	718.5	76.5	296.3	-1.1	2.5	0.88	51.61	1.9661	401.5088
14668	1509400668	54.6005	-110.7182	715.3	74.3	294.2	-1.1	2.2	0.88	51.61	1.9668	401.5529
14669	1509400669	54.6008	-110.7194	713.1	72.5	291.0	-0.6	2.4	0.88	51.61	1.9649	400.9842
14670	1509400670	54.6011	-110.7205	712.5	72.5	287.9	0.3	2.8	0.88	51.61	1.9647	399.6368
14671	1509400671	54.6013	-110.7217	712.4	72.4	284.9	-0.1	3.4	0.88	51.61	1.9662	400.6985
14672	1509400672	54.6015	-110.7229	712.8	72.8	282.4	-1.0	2.8	0.88	51.61	1.9656	401.3226
14673	1509400673	54.6017	-110.7240	713.3	72.8	280.6	-1.2	2.7	0.88	51.61	1.9645	400.7968
14674	1509400674	54.6018	-110.7252	712.7	72.7	278.9	-1.1	2.8	0.88	51.61	1.9640	401.2662
14675	1509400675	54.6019	-110.7258	712.2	72.2	278.3	-0.9	2.9	0.88	51.61	1.9653	401.3742
14676	1509400676	54.6019	-110.7261	711.8	71.8	278.0	-0.5	3.0	0.88	51.61	1.9663	401.3592
14677	1509400677	54.6020	-110.7272	711.0	71.0	276.9	-0.6	3.0	0.88	51.61	1.9658	400.2342
14678	1509400678	54.6021	-110.7285	709.7	69.7	275.2	0.1	4.6	0.88	51.61	1.9664	402.0294
14679	1509400679	54.6023	-110.7299	707.9	66.9	276.5	-0.2	2.7	0.88	51.61	1.9667	401.0242
14680	1509400680	54.6024	-110.7313	706.1	65.1	277.1	-0.3	2.5	0.88	51.61	1.9666	401.0856
14681	1509400681	54.6025	-110.7327	703.6	62.6	277.5	-0.4	2.4	0.88	51.61	1.9666	401.6215
14682	1509400682	54.6026	-110.7341	701.1	60.1	276.8	-0.9	3.7	0.88	51.61	1.9665	406.5183
14683	1509400683	54.6028	-110.7355	697.6	56.6	277.7	-1.3	2.7	0.88	51.61	1.9673	400.6377
14684	1509400684	54.6029	-110.7368	693.1	52.1	276.2	-0.9	3.6	0.88	51.61	1.9675	401.8761
14685	1509400685	54.6030	-110.7382	689.3	48.3	276.2	-0.9	0.6	0.88	51.61	1.9671	401.4857
14686	1509400686	54.6031	-110.7397	687.5	46.5	269.5	-0.1	2.4	0.88	51.61	1.9686	401.0497
14687	1509400687	54.6031	-110.7409	686.9	45.9	265.0	-0.3	2.5	0.88	51.61	1.9680	400.5963
14688	1509400688	54.6030	-110.7422	685.6	44.6	261.6	-0.8	2.0	0.88	51.61	1.9673	401.4906
14689	1509400689	54.6029	-110.7433	683.3	42.3	258.6	-0.5	2.8	0.88	51.61	1.9686	401.1154
14690	1509400690	54.6028	-110.7445	681.2	39.2	256.6	-1.1	3.3	0.88	51.61	1.9719	401.1154
14691	1509400691	54.6026	-110.7457	678.5	36.6	256.6	-1.1	2.8	0.88	51.61	1.9719	399.9728
14692	1509400692	54.6025	-110.7469	676.4	34.4	256.9	-0.7	2.3	0.88	51.61	1.9719	398.9933
14693	1509400693	54.6023	-110.7481	674.1	32.3	256.5	-0.5	3.2	0.88	51.61	1.9755	401.5037
14694	1509400694	54.6022	-110.7493	672.0	30.0	256.2	-0.9	3.5	0.88	51.61	1.9778	400.5716
14695	1509400695	54.6021	-110.7505	671.3	29.3	257.1	-0.4	2.7	0.88	51.61	1.9781	400.5716
14696	1509400696	54.6019	-110.7517	670.6	28.5	256.8	0.1	3.4	0.88	51.61	1.9775	399.6627
14697	1509400697	54.6018	-110.7529	669.9	26.8	256.5	-0.1	3.8	0.88	51.61	1.9819	401.3336
14698	1509400698	54.6017	-110.7541	669.5	26.2	256.4	-0.3	3.6	0.88	51.61	1.9844	402.7455
14699	1509400699	54.6015	-110.7553	669.0	24.3	256.3	-0.7	3.3	0.88	51.61	1.9905	401.2357
14700	1509400700	54.6014	-110.7565	668.8	24.1	256.6	-0.6	2.8	0.88	51.61	1.9974	402.7702
14701	1509400701	54.6013	-110.7576	668.4	23.4	255.8	-1.0	3.6	0.88	51.61	2.0023	400.6863
14702	1509400702	54.6011	-110.7588	668.0	24.0	255.9	-0.9	3.1	0.88	51.61	2.0068	400.7330
14703	1509400703	54.6010	-110.7600	669.3	25.0	256.2	-0.8	2.7	0.88	51.61	2.0168	400.9597
14704	1509400704	54.6008	-110.7612	672.0	27.0	255.2	-0.7	3.7	0.88	51.61	2.0201	400.9597
14705	1509400705	54.6007	-110.7623	675.5	30.6	256.2	0.1	2.2	0.88	51.61	2.0244	400.3401
14706	1509400706	54.6005	-110.7635	680.2	34.2	255.0	0.5	3.1	0.88	51.61	2.0291	400.3529
14707	1509400707	54.6004	-110.7646	686.5	41.5	254.0	1.0	3.0	0.88	51.61	2.0365	399.9760
14708	1509400708	54.6002	-110.7657	693.8	48.0	251.8	0.6	3.6	0.88	51.61	2.0385	399.9760
14709	1509400709	54.6000	-110.7668	701.2	55.8	249.5	0.0	3.5	0.88	51.61	2.0204	400.1650
14710	1509400710	54.5998	-110.7678	709.0	63.4	246.8	0.3	3.3	0.88	51.61	2.0082	400.3394
14711	1509400711	54.5996	-110.7688	716.7	70.7	243.1	0.8	4.3	0.88	51.61	2.0089	400.5308
14712	1509400712	54.5993	-110.7698	725.5	79.2	237.8	1.6	4.7	0.88	51.61	2.0116	400.2258
14713	1509400713	54.5990	-110.7707	735.2	88.2	231.8	1.7	5.1	0.88	51.61	2.0124	400.4978
14714	1509400714	54.5986	-110.7715	745.8	97.8	224.9	1.4	5.9	0.88	51.61	2.0115	400.4522
14715	1509400715	54.5982	-110.7722	757.0	109.0	218.2	1.2	6.3	0.88	51.61	2.0094	400.0382
14716	1509400716	54.5977	-110.7728	767.2	119.2	212.2	1.1	5.6	0.88	51.61	2.0106	400.2046
14717	1509400717	54.5972	-110.7733	776.8	128.8	205.4	0.9	5.5	0.88	51.61	2.0174	400.6328
14718	1509400718	54.5967	-110.7737	784.9	136.9	198.9	0.4	5.2	0.88	51.61	2.0183	398.2349
14719	1509400719	54.5962	-110.7740	792.0	145.0	192.1	-0.2	4.8	0.88	51.61	2.0172	401.2529
14720	1509400720	54.5956	-110.7741	798.5	152.4	185.5	0.1	4.4	0.88	51.61	2.0162	401.2529
14721	1509400721	54.5951	-110.7741	804.9	160.1	178.3	0.0	4.3	0.88	51.61	2.0147	400.7607
14722	1509400722	54.5946	-110.7740	811.0	167.0	171.3	0.1	4.1	0.88	51.61	2.0097	401.4571
14723	1509400723	54.5940	-110.7738	815.4	171.4	165.7	0.4	4.0	0.88	51.61	2.0035	400.1347
14724	1509400724	54.5935	-110.7735	818.7	175.6	158.7	0.4	4.0	0.88	51.61	2.0028	400.1347
14725	1509400725	54.5931	-110.7731	822.3	179.0	151.7	0.4	4.3	0.88	51.61	1.9873	401.6905
14726	1509400726	54.5926	-110.7726	826.4	183.4	144.3	0.8	4.1	0.88	51.61	1.9876	400.7447
14727	1509400727	54.5922	-110.7719	830.6	187.6	137.0	1.2	4.4	0.88	51.61	1.9894	400.7447
14728	1509400728	54.5918	-110.7712	834.5	191.4	130.3	1.6	4.7	0.88	51.61	1.9913	400.7447
14729	1509400729	54.5915	-110.7704	836.5	194.5	124.9	1.4	4.5	0.88	51.61	1.9931	400.7447
14730	1509400730	54.5913	-110.7695	836.0	194.0	119.4	1.6	4.4	0.88	51.61	1.9950	400.7447
14731	1509400731	54.5910	-110.7686	835.6	193.7	113.2	1.7	4.1	0.88	51.61	1.9968	400.7447
14732	1509400732	54.5909	-110.7676	836.2	194.4	106.7	1.5	4.1	0.88	51.61	1.9987	400.7447
14733	1509400733	54.5908	-110.7666	838.2	196.2	100.8	1.7	4.2	0.88	51.61	2.0005	400.7447
14734	1509400734	54.5907	-110.7655	841.9	199.9	95.1	1.7	4.4	0.88	51.61	1.9892	400.1855
14735	1509400735	54.5907	-110.7652	843.1	201.1	93.5	1.7	4.5	0.88	51.61	1.9991	401.3952
14736	1509400736	54.5907	-110.7651	843.5	201.5	93.2	1.7	4.6	0.88	51.61	1.9943	401.4784
14737	1509400737	54.5907	-110.7651	843.8	201.8	92.9	1.7	4.6	0.88	51.61	1.9876	401.1546
14738	1509400738	54.5907	-110.7650	844.1	202.1	92.5	1.7	4.6	0.88	51.61	1.9867	401.1656
14739	1509400739	54.5907	-110.7649	844.5	202.5	92.2	1.7	4.7	0.88	51.61	1.9868	400.7530
14740	1509400740	54.5907	-110.7648	844.8	202.8	91.8	1.7	4.7	0.88	51.61	1.9848	400.6023
14741	1509400741	54.5907	-110.7648	845.1	203.1	91.5	1.7	4.8	0.88	51.61	1.9731	400.3564
14742	1509400742	54.5908	-110.7638	849.5	207.5	86.6	2.6	4.8	0.88	51.61	1.9656	401.2022
14743	1509400743	54.5909	-110.7626	855.3	213.3	79.2	3.4	4.8	0.88	51.61	1.9795	400.5103
14744	1509400744	54.5911	-110.7614	861.1	219.1	72.4	3.6	5.1	0.88	51.61	1.9818	402.1151
14745	1509400745	54.5914	-110.7603	866.3	225.3	65.5	3.4	5.3	0.88	51.61	1.9770	399.3052
14746	1509400746	54.5918	-110.7593	872.5	231.5	57.3	3.2	5.1	0.88	51.61	1.9787	400.9833
14747	1509400747	54.5922	-110.7583	878.9	237.9	49.9	3.0	5.2	0.88	51.61	1.9733	401.9542
14748	1509400748	54.5927	-110.7575	884.6	243.6	43.3	3.1	5.5	0.88	51.61	1.9687	400.4755
14749	1509400749	54.5933	-110.7567	888.5	248.5	35.3	4.1	5.3	0.88	51.61	1.9681	401.1415
14750	1509400750	54.5938	-110.7561	892.9	252.9	27.2	4.1	5.8	0.88	51.61	1.9694	401.1415
14751	1509400751	54.5945	-110.7556	897.8	256.8	19.3	3.2	6.2	0.88	51.61	1.9564	401.5873
14752	1509400752	54.5952	-110.7553	902.6	261.7	9.6	4.3	6.0	0.88	51.61	1.9526	401.5873
14753	1509400753	54.5959	-110.7551	907.4	265.5	1.6	3.6	6.0	0.88	51.61	1.9481	399.0393
14754	1509400754	54.5966	-110.7551	911.9	268.6	353.5	4.3	6.1	0.88	51.61	1.9461	399.0393
14755	1509400755	54.5973	-110.7552	916.7	270.4	346.4	3.7	6.4	0.88	51.61	1.9455	400.1070
14756	1509400756	54.5979	-110.7555	921.9	273.9	339.1	3.7	6.1	0.88	51.61	1.9449	399.6771
14757	1509400757	54.5986	-110.7559	927.9	278.9	330.5	4.8	5.8	0.88	51.61	1.9449	399.5611
14758	1509400758	54.5992	-110.7564	934.1	285.1	322.4	4.9	5.7	0.88	51.61	1.9457	399.9750
14759	1509400759	54.5997	-110.7570	940.2	292.2	314.6	5.2	5.9	0.88	51.61	1.9430	399.5150
14760	1509400760	54.6002	-110.7578	944.9	298.0	307.8	5.2	6.3	0.88	51.61	1.9389	398.9297
14761	1509400761	54.6006	-110.7586	948.5	302.9	301.3	4.7	6.3	0.88	51.61	1.9378	398.9393
14762	1509400762	54.6010	-110.7595	952.7	308.4	293.9	4.9	6.2	0.88	51.61	1.9354	399.5076
14763	1509400763	54.6013	-110.7605	957.8	313.8	287.1	5.0	6.1	0.88	51.61	1.9318	398.2613
14764	1509400764	54.6015	-110.7615	963.8	321.1	280.0	5.2	6.2	0.88	51.61	1.9288	398.1548
14765	1509400765	54.6016	-110.7625	970.7	328.0	272.7	5.5	6.4	0.88	51.61	1.9277	398.1548
14766	1509400766	54.6017	-110.7635	977.6	336.3	266.0	5.3	6.3	0.88	51.61	1.9277	397.5613
14767	1509400767	54.6017	-110.7645	984.7	343.7	259.0	5.5	6.4	0.88	51.61	1.9280	399.1336
14768	1509400768	54.6016	-110.7655	992.2	351.3	251.9	6.0	6.4	0.88	51.61	1.9280	398.0929
14769	1509400769	54.6014	-110.7665	999.5	358.8	244.9	5.8	6.2	0.88	51.61	1.9273	397.7245
14770	1509400770	54.6012	-110.7673	1006.7	365.7	237.3	6.0	6.4	0.88	51.61	1.9276	398.3663
14771	1509400771	54.6008	-110.7681	1013.2	371.9	230.2	6.0	6.5	0.88	51.61	1.9282	398.5520
14772	1509400772	54.6005	-110.7688	1018.0	375.0	222.6	5.9	6.4	0.88	51.61	1.9282	398.7626
14773	1509400773	54.6000	-110.7694	1023.0	378.6	213.7	5.7	6.6	0.88	51.61	1.9279	398.0845
14774	1509400774	54.5995	-110.7699	1028.0	382.0	205.6	5.7	5.9	0.88	51.61	1.9283	397.8712
14775	1509400775	54.5990	-110.7701	1032.7	385.8	197.3	6.1	6.1	0.88	51.61	1.9280	398.1944
14776	1509400776	54.5984	-110.7703	1036.9	388.9	188.5	6.0	6.0	0.88	51.61	1.9265	398.2932
14777	1509400777	54.5978	-110.7703	1040.1	391.1	179.8	6.0	5.7	0.88	51.61	1.9266	398.1343
14778	1509400778	54.5973	-110.7701	1042.3	393.3	171.1	6.2	5.8	0.88	51.61	1.9272	398.5419
14779	1509400779	54.5967	-110.7697	1043.5	395.6	162.5	6.3	5.1	0.88	51.61	1.9288	398.5878
14780	1509400780	54.5962	-110.7692	1044.0	397.0	153.7	6.2	4.8	0.88	51.61	1.9276	398.2673
14781	1509400781	54.5956	-110.7685	1043.9	398.6	145.7	6.8	4.7	0.88	51.61	1.9268	398.3024
14782	1509400782	54.5952	-110.7676	1044.4	399.7	136.8	6.9	4.5	0.88	51.61	1.9279	397.8529
14783	1509400783	54.5948	-110.7667	1045.6	401.5	128.1	7.1	4.6	0.88	51.61	1.9275	398.1723
14784	1509400784	54.5944	-110.7656	1047.1	404.0	120.1	7.4	4.5	0.88	51.61	1.9272	398.9337
14785	1509400785	54.5942	-110.7645	1048.9	405.9	112.8	7.5	4.7	0.88	51.61	1.9274	398.8190
14786	1509400786	54.5941	-110.7635	1051.2	409.3	105.8	7.6	4.7	0.88	51.61	1.9277	398.0986
14787	1509400787	54.5940	-110.7624	1054.4	412.4	98.9	7.7	4.9	0.88	51.61	1.9276	398.0986
14788	1509400788	54.5940	-110.7612	1058.6	416.6	91.5	7.7	4.8	0.88	51.61	1.9275	398.0986
14789	1509400789	54.5940	-110.7601	1063.3	422.1	84.3	7.5	5.0	0.88	51.61	1.9275	398.0986
14790	1509400790	54.5942	-110.7591	1068.2	427.2	77.6	7.7	4.9	0.88	51.61	1.9276	398.0927
14791	1509400791	54.5944	-110.7579	1073.6	432.6	70.2	7.8	4.9	0.88	51.61	1.9270	398.3958
14792	1509400792	54.5947	-110.7569	1079.2	438.2	63.1	7.9	4.8	0.88	51.61	1.9285	398.0441
14793	1509400793	54.5950	-110.7559	1084.7	443.7	56.9	7.9	5.2	0.88	51.61	1.9278	398.5233
14794	1509400794	54.5954	-110.7550	1088.9	447.9	51.0	8.0	5.3	0.88	51.61	1.9266	398.5233
14795	1509400795	54.5955	-110.7547	1090.1	449.1	48.7	8.1	5.4	0.88	51.61	1.9271	397.8051
14796	1509400796	54.5956	-110.7546	1090.4	449.5	47.8	8.2	5.4	0.88	51.61	1.9273	398.7471
14797	1509400797	54.5957	-110.7544	1090.8	449.8	46.9	8.3	5.4	0.88	51.61	1.9284	398.9580
14798	1509400798	54.5957	-110.7543	1091.2	450.3	45.6	8.4	5.4	0.88	51.61	1.9286	398.9580
14799	1509400799	54.5963	-110.7534	1093.5	451.5	38.0	7.7	4.4	0.88	51.61	1.9273	397.9442
14800	1509400800	54.5969	-110.7526	1094.7	452.0	31.7	7.6	4.5	0.88	51.61	1.9277	398.5406
14801	1509400801	54.5975	-110.7519	1094.8	449.9	24.5	7.9	4.7	0.88	51.61	1.9272	398.5233
14802	1509400802	54.5983	-110.7513	1094.1	447.9	17.3	7.9	4.9	0.88	51.61	1.9281	398.1365
14803	1509400803	54.5990	-110.7509	1092.9	447.8	10.5	7.9	4.8	0.88	51.61	1.9272	398.3867
14804	1509400804	54.5997	-110.7506	1090.8	446.8	4.0	8.0	5.1	0.88	51.61	1.9268	397.5574
14805	1509400805	54.6005	-110.7504	1088.2	445.1	357.5	8.0	5.2	0.88	51.61	1.9280	398.4536
14806	1509400806	54.6013	-110.7504	1085.1	442.1	351.6	8.0	5.5	0.88	51.61	1.9293	398.1717
14807	1509400807	54.6021	-110.7505	1081.7	439.8	345.9	7.8	5.7	0.88	51.61	1.9271	399.2756
14808	1509400808	54.6029	-110.7508	1078.6	438.6	340.3	7.8	5.8	0.88	51.61	1.9273	398.6438
14809	1509400809	54.6036	-110.7511	1076.3	438.2	335.1	7.7	5.9	0.88	51.61	1.9290	398.5259
14810	1509400810	54.6044	-110.7516	1074.5	438.4	330.3	7.4	6.3	0.88	51.61	1.9283	398.5259
14811	1509400811	54.6051	-110.7522	1073.2	437.2	325.8	7.3	6.3	0.88	51.61	1.9297	398.7670
14812	1509400812	54.6058	-110.7528	1072.1	436.1	321.7	7.2	6.2	0.88	51.61	1.9274	398.7670
14813	1509400813	54.6064	-110.7535	1071.3	435.3	317.9	6.8	6.4	0.88	51.61	1.9269	398.3545
14814	1509400814	54.6070	-110.7543	1070.7	434.7	314.0	6.8	6.2	0.88	51.61	1.9285	396.5971
14815	1509400815	54.6076	-110.7552	1070.5	434.5	310.4	6.6	6.1	0.88	51.61	1.9277	398.0484
14816	1509400816	54.6082	-110.7561	1070.6	434.6	306.9	6.4	6.3	0.88	51.61	1.9283	397.0454
14817	1509400817	54.6087	-110.7571	1071.1	435.1	303.4	6.6	6.2	0.88	51.61	1.9286	397.1324
14818	1509400818	54.6091	-110.7581	1071.6	435.6	300.3	6.5	6.1	0.88	51.61	1.9284	398.6844
14819	1509400819	54.6095	-110.7590	1071.9	435.9	297.6	6.3	6.1	0.88	51.61	1.9285	397.7807
14820	1509400820	54.6098	-110.7599	1072.4	436.4	294.8	6.2	6.2	0.88	51.61	1.9280	397.3365
14821	1509400821	54.6102	-110.7609	1073.0	437.0	292.1	6.3	6.2	0.88	51.61	1.9275	399.1084
14822	1509400822	54.6104	-110.7618	1073.8	437.8	289.4	6.5	6.0	0.88	51.61	1.9275	397.8851
14823	1509400823	54.6107	-110.7628	1075.1	439.1	286.7	6.5	6.0	0.88	51.61	1.9280	397.8242
14824	1509400824	54.6109	-110.7639	1076.9	440.9	284.0	6.5	6.1	0.88	51.61	1.9286	398.4080
14825	1509400825	54.6111	-110.7649	1079.0	443.0	281.4	6.6	6.1	0.88	51.61	1.9283	398.3228
14826	1509400826	54.6113	-110.7659	1081.9	445.9	278.8	6.7	5.9	0.88	51.61	1.9271	398.5625
14827	1509400827	54.6115	-110.7670	1085.3	449.3	276.4	6.9	5.9	0.88	51.61	1.9291	398.5625
14828	1509400828	54.6116	-110.7680	1089.3	453.3	273.8	7.1	5.8	0.88	51.61	1.9283	398.5255
14829	1509400829	54.6117	-110.7691	1093.7	457.7	271.3	7.1	5.9	0.88	51.61	1.9281	398.1659
14830	1509400830	54.6117	-110.7701	1098.5	462.5	269.0	7.4	5.8	0.88	51.61	1.9275	398.1659
14831	1509400831	54.6117	-110.7711	1102.9	466.9	266.8	7.2	5.7	0.88	51.61	1.9283	398.3695
14832	1509400832	54.6117	-110.7722	1106.4	470.4	264.1	7.3	5.7	0.88	51.61	1.9273	397.6727
14833	1509400833	54.6117	-110.7732	1110.2	474.2	260.8	7.0	5.9	0.88	51.61	1.9275	398.6178
14834	1509400834	54.6116	-110.7742	1114.1	478.1	257.6	7.0	5.8	0.88	51.61	1.9281	398.4764
14835	1509400835	54.6115	-110.7752	1119.1	483.1	254.0	7.5	6.0	0.88	51.61	1.9277	398.2234
14836	1509400836	54.6114	-110.7761	1124.4	488.4	250.6	7.5	6.1	0.88	51.61	1.9265	397.3588
14837	1509400837	54.6112	-110.7770	1130.0	494.0	247.3	7.5	6.2	0.88	51.61	1.9263	397.8298
14838	1509400838	54.6110	-110.7779	1136.2	500.2	243.8	7.1	6.1	0.88	51.61	1.9258	397.7685
14839	1509400839	54.6107	-110.7788	1142.0	506.0	240.4	7.1	6.2	0.88	51.61	1.9267	398.7672
14840	1509400840	54.6105	-110.7796	1147.8	511.8	236.9	7.1	6.3	0.88	51.61	1.9273	398.5242
14841	1509400841	54.6102	-110.7804	1153.5	517.5	233.4	7.0	6.2	0.88	51.61	1.9282	396.7938
14842	1509400842	54.6098	-110.7811	1158.3	522.3	229.9	6.9	6.1	0.88	51.61	1.9273	397.5617
14843	1509400843	54.6095	-110.7818	1162.2	526.2	226.1	6.5	6.0	0.88	51.61	1.9274	398.0565
14844	1509400844	54.6091	-110.7824	1165.0	528.1	222.3	6.5	6.0	0.88	51.61	1.9302	398.0807
14845	1509400845	54.6087	-110.7830	1167.2	530.2	217.8	6.4	6.0	0.88	51.61	1.9288	398.0619
14846	1509400846	54.6082	-110.7835	1169.1	532.1	213.4	6.5	5.9	0.88	51.61	1.9286	397.7440
14847	1509400847	54.6078	-110.7839	1170.6	532.6	209.0	6.5	5.9	0.88	51.61	1.9284	397.1536
14848	1509400848	54.6073	-110.7843	1171.9	533.2	204.6	6.4	5.6	0.88	51.61	1.9281	397.1536
14849	1509400849	54.6067	-110.7846	1172.4	533.4	200.2	6.4	5.5	0.88	51.61	1.9279	397.1536
14850	1509400850	54.6062	-110.7848	1172.5	532.5	196.1	6.4	5.6	0.88	51.61	1.9276	397.1536
14851	1509400851	54.6057	-110.7850	1172.2	532.2	191.9	6.5	5.4	0.88	51.61	1.9274	397.1536
14852	1509400852	54.6051	-110.7851	1171.5	531.5	187.3	6.3	5.4	0.88	51.61	1.9271	397.1536
14853	1509400853	54.6045	-110.7850	1170.5	530.5	183.0	6.5	5.2	0.88	51.61	1.9282	398.3638
14854	1509400854	54.6039	-110.7850	1169.1	529.1	178.7	6.6	5.1	0.88	51.61	1.9262	397.8550
14855	1509400855	54.6038	-110.7849	1168.7	528.7	177.4	6.6	5.1	0.88	51.61	1.9265	398.3436
14856	1509400856	54.6037	-110.7849	1168.7	528.7	177.1	6.5	5.1	0.88	51.61	1.9248	397.8313
14857	1509400857	54.6037	-110.7849	1168.6	528.6	176.8	6.5	5.2	0.88	51.61	1.9263	397.9171
14858	1509400858	54.6037	-110.7849	1168.5	528.5	176.5	6.5	5.2	0.88	51.61	1.9283	397.0629
14859	1509400859	54.6036	-110.7849	1168.4	528.4	176.2	6.5	5.3	0.88	51.61	1.9275	398.8250
14860	1509400860	54.6036	-110.7849	1168.3	528.3	175.9	6.5	5.3	0.88	51.61	1.9269	398.4847
14861	1509400861	54.6035	-110.7848	1168.2	528.2	175.6	6.5	5.3	0.88	51.61	1.9265	398.3445
14862	1509400862	54.6031	-110.7847	1167.2	527.2	173.1	6.7	5.2	0.88	51.61	1.9276	398.8257
14863	1509400863	54.6025	-110.7844	1165.0	525.0	169.1	6.0	9.0	0.88	51.61	1.9285	398.6900
14864	1509400864	54.6018	-110.7840	1162.2	522.2	165.4	5.6	9.1	0.88	51.61	1.9271	396.7707
14865	1509400865	54.6012	-110.7835	1158.0	517.0	162.7	5.6	8.5	0.88	51.61	1.9265	399.3015
14866	1509400866	54.6005	-110.7830	1152.6	510.6	160.6	5.7	8.1	0.88	51.61	1.9275	398.1074
14867	1509400867	54.5999	-110.7824	1147.4	503.5	158.9	6.1	7.7	0.88	51.61	1.9275	397.5098
14868	1509400868	54.5992	-110.7818	1142.5	497.0	157.2	6.3	7.0	0.88	51.61	1.9271	397.6105
14869	1509400869	54.5985	-110.7811	1139.1	491.8	155.8	6.4	6.9	0.88	51.61	1.9268	398.3417
14870	1509400870	54.5979	-110.7804	1136.7	488.7	154.7	6.4	6.9	0.88	51.61	1.9270	398.1077
14871	1509400871	54.5972	-110.7797	1135.2	487.2	153.8	6.5	6.6	0.88	51.61	1.9288	398.3053
14872	1509400872	54.5965	-110.7790	1134.1	486.1	153.5	6.2	6.3	0.88	51.61	1.9283	396.6568
14873	1509400873	54.5959	-110.7783	1132.0	484.5	154.4	5.9	6.3	0.88	51.61	1.9279	397.7473
14874	1509400874	54.5952	-110.7776	1129.5	482.7	156.8	6.1	5.9	0.88	51.61	1.9279	397.9524
14875	1509400875	54.5945	-110.7769	1127.1	481.1	159.9	6.4	5.2	0.88	51.61	1.9266	397.0268
14876	1509400876	54.5938	-110.7764	1125.4	480.1	163.4	6.5	5.0	0.88	51.61	1.9275	398.8876
14877	1509400877	54.5931	-110.7759	1124.8	478.9	166.8	6.4	4.9	0.88	51.61	1.9280	399.2957
14878	1509400878	54.5924	-110.7755	1125.2	479.2	170.3	6.5	4.5	0.88	51.61	1.9277	396.3894
14879	1509400879	54.5917	-110.7752	1126.4	480.6	173.9	6.6	4.7	0.88	51.61	1.9288	397.5247
14880	1509400880	54.5909	-110.7750	1128.4	481.7	177.2	6.9	4.6	0.88	51.61	1.9285	397.5998
14881	1509400881	54.5902	-110.7749	1131.3	485.2	179.5	7.1	4.9	0.88	51.61	1.9262	398.9013
14882	1509400882	54.5894	-110.7747	1133.5	487.2	180.7	7.3	5.8	0.88	51.61	1.9265	396.9767
14883	1509400883	54.5887	-110.7746	1134.2	488.2	181.3	7.6	5.9	0.88	51.61	1.9263	397.9222
14884	1509400884	54.5880	-110.7745	1133.8	487.8	180.9	7.5	5.8	0.88	51.61	1.9264	398.8147
14885	1509400885	54.5873	-110.7744	1132.4	487.5	180.1	7.8	5.7	0.88	51.61	1.9281	398.6321
14886	1509400886	54.5865	-110.7743	1130.6	484.9	178.3	7.7	5.6	0.88	51.61	1.9284	397.4121
14887	1509400887	54.5858	-110.7741	1128.8	483.6	176.5	7.6	5.4	0.88	51.61	1.9268	398.2647
14888	1509400888	54.5851	-110.7738	1127.4	482.4	175.1	7.5	5.3	0.88	51.61	1.9288	397.2876
14889	1509400889	54.5843	-110.7736	1126.8	481.8	174.1	7.5	5.2	0.88	51.61	1.9275	397.5785
14890	1509400890	54.5836	-110.7733	1126.9	481.9	173.2	7.6	5.3	0.88	51.61	1.9273	397.9364
14891	1509400891	54.5828	-110.7730	1127.3	482.3	172.4	7.7	5.0	0.88	51.61	1.9286	397.9364
14892	1509400892	54.5821	-110.7726	1127.8	483.9	171.6	7.7	5.0	0.88	51.61	1.9267	397.0688
14893	1509400893	54.5814	-110.7723	1128.4	485.3	171.0	7.8	5.1	0.88	51.61	1.9266	398.2212
14894	1509400894	54.5807	-110.7719	1128.8	487.7	170.4	7.7	5.2	0.88	51.61	1.9274	397.7270
14895	1509400895	54.5799	-110.7716	1129.1	490.0	169.8	7.8	5.2	0.88	51.61	1.9267	396.7126
14896	1509400896	54.5792	-110.7712	1129.2	491.5	169.2	7.6	5.2	0.88	51.61	1.9276	398.3871
14897	1509400897	54.5785	-110.7708	1129.2	492.4	168.6	7.5	5.1	0.88	51.61	1.9276	398.6143
14898	1509400898	54.5778	-110.7704	1129.2	493.2	168.2	7.4	5.1	0.88	51.61	1.9287	397.8528
14899	1509400899	54.5771	-110.7700	1129.2	495.2	167.8	7.4	5.2	0.88	51.61	1.9299	398.2253
14900	1509400900	54.5764	-110.7696	1129.2	498.2	167.5	7.5	5.1	0.88	51.61	1.9280	396.9196
14901	1509400901	54.5756	-110.7691	1129.3	500.9	167.1	7.5	5.1	0.88	51.61	1.9283	396.9196
14902	1509400902	54.5749	-110.7687	1129.5	504.2	166.8	7.5	5.1	0.88	51.61	1.9285	397.1437
14903	1509400903	54.5742	-110.7682	1129.7	503.8	166.5	7.4	5.1	0.88	51.61	1.9274	397.3466
14904	1509400904	54.5735	-110.7678	1130.1	502.0	166.3	7.5	5.1	0.88	51.61	1.9268	398.3943
14905	1509400905	54.5728	-110.7673	1130.3	500.6	166.0	7.5	5.1	0.88	51.61	1.9271	397.7723
14906	1509400906	54.5721	-110.7669	1130.5	500.4	165.9	7.6	5.1	0.88	51.61	1.9271	397.9022
14907	1509400907	54.5714	-110.7664	1130.7	502.7	165.9	7.6	5.1	0.88	51.61	1.9275	397.9022
14908	1509400908	54.5708	-110.7660	1130.7	503.7	166.1	7.7	5.1	0.88	51.61	1.9279	397.9022
14909	1509400909	54.5701	-110.7656	1130.8	504.8	166.2	7.8	5.1	0.88	51.61	1.9284	397.9022
14910	1509400910	54.5695	-110.7652	1130.9	505.9	166.4	7.9	5.1	0.88	51.61	1.9284	399.3234
14911	1509400911	54.5689	-110.7648	1131.0	507.1	166.4	7.9	5.0	0.88	51.61	1.9268	397.8291
14912	1509400912	54.5683	-110.7644	1131.1	508.3	166.5	7.9	4.8	0.88	51.61	1.9278	398.2465
14913	1509400913	54.5677	-110.7640	1131.2	510.0	166.6	8.1	4.5	0.88	51.61	1.9263	398.0267
14914	1509400914	54.5670	-110.7636	1131.2	511.2	166.8	8.1	4.5	0.88	51.61	1.9278	397.9885
14915	1509400915	54.5668	-110.7635	1131.2	512.2	166.8	8.1	4.6	0.88	51.61	1.9281	397.7241
14916	1509400916	54.5667	-110.7634	1131.2	512.2	166.8	8.0	4.7	0.88	51.61	1.9270	397.4123
14917	1509400917	54.5666	-110.7634	1131.2	512.9	166.8	8.0	4.8	0.88	51.61	1.9277	398.5083
14918	1509400918	54.5665	-110.7633	1131.2	513.1	166.8	8.0	4.8	0.88	51.61	1.9265	398.5598
14919	1509400919	54.5658	-110.7628	1130.8	514.5	166.9	7.9	4.8	0.88	51.61	1.9276	398.0339
14920	1509400920	54.5651	-110.7624	1130.3	515.4	167.1	8.0	4.8	0.88	51.61	1.9287	397.7954
14921	1509400921	54.5643	-110.7619	1129.9	515.9	167.2	7.9	4.6	0.88	51.61	1.9287	398.0946
14922	1509400922	54.5636	-110.7615	1129.4	515.4	167.1	7.8	4.5	0.88	51.61	1.9273	398.0570
14923	1509400923	54.5629	-110.7611	1129.0	515.0	167.3	7.9	4.5	0.88	51.61	1.9282	398.5684
14924	1509400924	54.5622	-110.7606	1128.8	514.8	167.4	7.9	4.4	0.88	51.61	1.9289	398.1472
14925	1509400925	54.5615	-110.7602	1128.7	513.7	167.5	7.9	4.4	0.88	51.61	1.9283	397.4807
14926	1509400926	54.5607	-110.7598	1128.7	512.9	167.4	7.7	4.7	0.88	51.61	1.9272	398.3825
14927	1509400927	54.5600	-110.7593	1128.6	512.6	167.3	7.7	4.8	0.88	51.61	1.9285	397.7344
14928	1509400928	54.5593	-110.7589	1128.5	511.5	167.4	7.7	4.8	0.88	51.61	1.9283	397.5552
14929	1509400929	54.5586	-110.7585	1128.4	511.4	167.5	7.7	4.8	0.88	51.61	1.9280	397.9096
14930	1509400930	54.5579	-110.7581	1128.5	511.5	167.5	7.5	4.8	0.88	51.61	1.9271	398.2704
14931	1509400931	54.5571	-110.7576	1128.7	513.7	167.6	7.5	4.9	0.88	51.61	1.9276	397.9540
14932	1509400932	54.5564	-110.7572	1129.0	515.0	167.7	7.5	4.8	0.88	51.61	1.9271	396.9675
14933	1509400933	54.5557	-110.7568	1129.4	517.2	167.8	7.5	5.0	0.88	51.61	1.9266	396.5733
14934	1509400934	54.5550	-110.7563	1129.9	518.9	167.8	7.4	5.0	0.88	51.61	1.9264	397.6676
14935	1509400935	54.5542	-110.7559	1130.6	520.7	167.8	7.4	5.1	0.88	51.61	1.9268	397.1834
14936	1509400936	54.5535	-110.7555	1131.4	523.6	167.8	7.3	5.2	0.88	51.61	1.9276	398.1969
14937	1509400937	54.5528	-110.7551	1132.3	526.2	167.9	7.2	5.3	0.88	51.61	1.9277	398.4884
14938	1509400938	54.5521	-110.7547	1133.1	529.1	168.0	7.4	4.9	0.88	51.61	1.9277	397.9848
14939	1509400939	54.5514	-110.7543	1133.8	531.9	168.0	7.2	5.0	0.88	51.61	1.9269	398.5076
14940	1509400940	54.5507	-110.7539	1134.2	533.9	167.9	7.1	5.0	0.88	51.61	1.9258	397.5561
14941	1509400941	54.5500	-110.7535	1134.2	535.6	167.8	7.0	4.9	0.88	51.61	1.9264	397.5008
14942	1509400942	54.5494	-110.7532	1134.2	540.6	167.7	6.8	4.8	0.88	51.61	1.9267	397.5008
14943	1509400943	54.5488	-110.7528	1134.1	542.1	167.7	6.8	4.9	0.88	51.61	1.9253	398.2195
14944	1509400944	54.5482	-110.7525	1134.0	541.5	167.8	6.8	4.8	0.88	51.61	1.9256	397.3152
14945	1509400945	54.5475	-110.7521	1133.9	538.5	167.8	6.7	5.2	0.88	51.61	1.9270	398.1245
14946	1509400946	54.5469	-110.7517	1133.9	529.1	167.9	6.7	5.3	0.88	51.61	1.9262	397.7751
14947	1509400947	54.5463	-110.7514	1133.8	522.7	167.9	6.6	5.3	0.88	51.61	1.9259	397.7680
14948	1509400948	54.5456	-110.7510	1133.8	517.4	167.8	6.8	4.9	0.88	51.61	1.9263	397.1393
14949	1509400949	54.5450	-110.7507	1133.6	512.7	167.9	6.8	5.2	0.88	51.61	1.9261	397.1298
14950	1509400950	54.5444	-110.7503	1133.3	508.2	167.9	6.8	5.3	0.88	51.61	1.9260	398.2967
14951	1509400951	54.5438	-110.7500	1133.0	508.9	167.9	6.7	5.2	0.88	51.61	1.9260	397.5747
14952	1509400952	54.5431	-110.7496	1132.7	512.9	167.8	6.7	5.2	0.88	51.61	1.9264	397.5747
14953	1509400953	54.5425	-110.7493	1132.2	519.0	167.9	6.8	5.2	0.88	51.61	1.9277	398.4029
14954	1509400954	54.5419	-110.7489	1131.8	527.6	167.9	6.8	5.2	0.88	51.61	1.9283	397.1859
14955	1509400955	54.5412	-110.7486	1131.4	529.5	167.9	6.8	5.1	0.88	51.61	1.9282	397.4588
14956	1509400956	54.5406	-110.7482	1131.0	531.1	168.0	6.8	5.1	0.88	51.61	1.9267	398.1079
14957	1509400957	54.5400	-110.7479	1130.7	530.8	168.1	6.9	5.1	0.88	51.61	1.9263	397.5679
14958	1509400958	54.5394	-110.7475	1130.3	530.3	168.2	6.9	5.0	0.88	51.61	1.9264	397.4108
14959	1509400959	54.5387	-110.7472	1129.6	530.6	168.3	7.0	4.9	0.88	51.61	1.9263	398.1453
14960	1509400960	54.5381	-110.7468	1128.7	533.0	168.3	7.0	4.8	0.88	51.61	1.9261	398.6005
14961	1509400961	54.5374	-110.7465	1127.8	536.4	168.4	7.0	4.7	0.88	51.61	1.9263	398.6005
14962	1509400962	54.5368	-110.7461	1127.1	538.5	168.4	7.0	4.9	0.88	51.61	1.9272	397.5039
14963	1509400963	54.5362	-110.7458	1126.4	539.4	168.5	7.0	5.0	0.88	51.61	1.9273	398.4459
14964	1509400964	54.5355	-110.7454	1125.6	538.6	168.6	7.0	4.9	0.88	51.61	1.9273	396.8113
14965	1509400965	54.5349	-110.7451	1124.4	537.4	168.6	7.0	4.7	0.88	51.61	1.9279	397.7658
14966	1509400966	54.5342	-110.7447	1123.0	536.9	168.7	7.1	4.5	0.88	51.61	1.9281	398.4707
14967	1509400967	54.5336	-110.7444	1121.2	536.1	168.7	7.1	4.3	0.88	51.61	1.9282	398.4707
14968	1509400968	54.5330	-110.7440	1119.2	535.2	168.8	7.1	4.2	0.88	51.61	1.9283	398.4707
14969	1509400969	54.5323	-110.7437	1117.2	533.9	168.9	7.1	4.3	0.88	51.61	1.9284	398.4707
14970	1509400970	54.5317	-110.7433	1115.3	534.1	169.0	7.2	4.3	0.88	51.61	1.9266	398.7597
14971	1509400971	54.5310	-110.7430	1113.5	533.5	169.1	7.1	4.5	0.88	51.61	1.9284	399.5825
14972	1509400972	54.5304	-110.7427	1111.5	532.8	169.2	7.2	4.3	0.88	51.61	1.9277	397.4473
14973	1509400973	54.5297	-110.7423	1109.5	532.4	169.2	7.1	4.6	0.88	51.61	1.9273	397.3894
14974	1509400974	54.5290	-110.7420	1107.6	532.2	169.2	7.1	4.4	0.88	51.61	1.9276	398.5580
14975	1509400975	54.5288	-110.7419	1106.9	532.9	169.3	7.1	4.4	0.88	51.61	1.9270	398.9635
14976	1509400976	54.5287	-110.7418	1106.7	532.7	169.3	7.1	4.4	0.88	51.61	1.9270	398.1809
14977	1509400977	54.5286	-110.7418	1106.4	532.4	169.3	7.2	4.4	0.88	51.61	1.9269	398.1914
14978	1509400978	54.5284	-110.7417	1105.9	532.2	169.3	7.2	4.3	0.88	51.61	1.9275	398.4546
14979	1509400979	54.5277	-110.7413	1104.1	534.2	169.2	7.1	4.7	0.88	51.61	1.9272	398.3380
14980	1509400980	54.5269	-110.7409	1102.6	534.6	169.3	7.1	5.0	0.88	51.61	1.9273	399.1254
14981	1509400981	54.5262	-110.7405	1101.1	534.1	169.2	7.1	5.0	0.88	51.61	1.9263	399.5751
14982	1509400982	54.5254	-110.7401	1099.8	533.8	169.2	7.1	5.0	0.88	51.61	1.9267	397.1216
14983	1509400983	54.5246	-110.7397	1098.5	532.5	169.2	7.2	4.8	0.88	51.61	1.9269	397.4529
14984	1509400984	54.5239	-110.7393	1097.2	531.2	169.1	7.2	4.9	0.88	51.61	1.9274	397.0723
14985	1509400985	54.5231	-110.7389	1096.2	530.2	169.0	7.3	4.7	0.88	51.61	1.9272	398.3119
14986	1509400986	54.5224	-110.7385	1095.1	529.1	169.0	7.3	4.6	0.88	51.61	1.9272	397.8405
14987	1509400987	54.5216	-110.7381	1093.8	528.8	169.0	7.3	4.6	0.88	51.61	1.9289	397.9316
14988	1509400988	54.5208	-110.7377	1092.4	527.4	169.0	7.3	5.0	0.88	51.61	1.9282	397.5571
14989	1509400989	54.5201	-110.7373	1091.1	526.1	169.1	7.3	5.0	0.88	51.61	1.9273	397.5571
14990	1509400990	54.5193	-110.7369	1089.5	525.3	169.1	7.4	4.9	0.88	51.61	1.9279	398.1355
14991	1509400991	54.5185	-110.7365	1087.8	522.8	169.0	7.3	4.8	0.88	51.61	1.9278	398.0946
14992	1509400992	54.5178	-110.7361	1086.0	521.0	169.1	7.4	4.8	0.88	51.61	1.9275	398.7194
14993	1509400993	54.5170	-110.7357	1084.2	520.2	169.2	7.4	4.6	0.88	51.61	1.9266	397.6982
14994	1509400994	54.5162	-110.7353	1082.4	520.4	169.2	7.5	4.5	0.88	51.61	1.9281	397.2016
14995	1509400995	54.5154	-110.7349	1080.5	520.5	169.3	7.4	4.5	0.88	51.61	1.9279	397.6599
14996	1509400996	54.5146	-110.7345	1078.8	519.8	169.3	7.4	4.7	0.88	51.61	1.9289	397.9113
14997	1509400997	54.5139	-110.7341	1077.1	520.1	169.2	7.3	4.8	0.88	51.61	1.9289	398.4422
14998	1509400998	54.5131	-110.7337	1075.5	519.4	169.2	7.3	4.7	0.88	51.61	1.9281	396.9636
14999	1509400999	54.5124	-110.7333	1073.9	520.0	169.1	7.2	4.6	0.88	51.61	1.9272	398.8463
15000	1509401000	54.5117	-110.7330	1072.3	519.3	169.1	7.2	4.5	0.88	51.61	1.9275	397.7220
15001	1509401001	54.5110	-110.7326	1070.7	518.7	169.1	7.2	4.4	0.88	51.61	1.9289	396.3301
15002	1509401002	54.5105	-110.7323	1069.3	517.3	169.1	7.2	4.4	0.88	51.61	1.9276	398.9879
15003	1509401003	54.5097	-110.7320	1067.4	515.4	169.1	7.3	4.3	0.88	51.61	1.9272	397.4948
15004	1509401004	54.5090	-110.7316	1066.0	514.0	169.0	7.2	4.2	0.88	51.61	1.9273	397.4725
15005	1509401005	54.5083	-110.7313	1064.4	512.4	168.9	7.2	4.2	0.88	51.61	1.9275	397.4725
15006	1509401006	54.5077	-110.7309	1062.8	510.8	168.8	7.1	4.2	0.88	51.61	1.9269	397.4821
15007	1509401007	54.5070	-110.7305	1061.1	509.1	168.8	7.1	4.5	0.88	51.61	1.9272	397.4821
15008	1509401008	54.5063	-110.7302	1059.6	507.6	168.7	7.1	4.5	0.88	51.61	1.9284	398.5883
15009	1509401009	54.5056	-110.7298	1058.3	506.3	168.6	7.0	4.5	0.88	51.61	1.9306	399.0148
15010	1509401010	54.5049	-110.7295	1057.2	505.2	168.6	7.1	4.4	0.88	51.61	1.9304	398.5718
15011	1509401011	54.5042	-110.7291	1056.2	504.2	168.3	6.9	4.0	0.88	51.61	1.9295	398.1383
15012	1509401012	54.5036	-110.7287	1055.1	503.1	168.2	6.7	4.3	0.88	51.61	1.9298	398.6107
15013	1509401013	54.5029	-110.7284	1053.9	501.9	168.3	7.0	4.4	0.88	51.61	1.9287	398.2986
15014	1509401014	54.5022	-110.7280	1052.7	499.8	168.4	7.0	4.4	0.88	51.61	1.9288	398.6442
15015	1509401015	54.5015	-110.7277	1051.5	498.7	168.3	7.0	4.4	0.88	51.61	1.9312	399.1903
15016	1509401016	54.5008	-110.7273	1050.6	497.3	168.0	6.8	4.3	0.88	51.61	1.9327	398.9994
15017	1509401017	54.5002	-110.7269	1049.5	495.6	168.0	6.8	4.3	0.88	51.61	1.9316	398.9994
15018	1509401018	54.4995	-110.7266	1048.5	493.9	167.8	6.6	3.6	0.88	51.61	1.9291	398.4543
15019	1509401019	54.4988	-110.7262	1047.4	492.3	168.1	6.9	4.2	0.88	51.61	1.9287	398.4543
15020	1509401020	54.4981	-110.7258	1046.3	490.5	168.3	7.2	3.8	0.88	51.61	1.9293	398.0434
15021	1509401021	54.4975	-110.7255	1045.1	489.0	168.4	7.4	3.7	0.88	51.61	1.9292	399.2045
15022	1509401022	54.4968	-110.7251	1043.8	487.7	168.2	7.1	4.2	0.88	51.61	1.9322	397.5914
15023	1509401023	54.4961	-110.7247	1042.6	485.6	168.0	6.9	4.1	0.88	51.61	1.9335	399.0817
15024	1509401024	54.4954	-110.7243	1041.6	484.6	167.8	6.6	4.0	0.88	51.61	1.9339	398.2833
15025	1509401025	54.4947	-110.7240	1040.7	482.8	167.8	6.5	4.0	0.88	51.61	1.9357	399.5156
15026	1509401026	54.4941	-110.7236	1040.2	483.2	167.8	6.4	4.1	0.88	51.61	1.9358	399.3241
15027	1509401027	54.4934	-110.7233	1040.1	483.1	168.0	6.5	4.2	0.88	51.61	1.9348	399.3241
15028	1509401028	54.4927	-110.7229	1040.0	483.0	167.9	6.4	4.3	0.88	51.61	1.9342	399.3707
15029	1509401029	54.4920	-110.7225	1040.0	483.0	168.0	6.5	4.0	0.88	51.61	1.9342	399.4873
15030	1509401030	54.4913	-110.7222	1039.9	482.9	167.9	6.2	4.0	0.88	51.61	1.9342	399.6040
15031	1509401031	54.4906	-110.7218	1039.9	482.9	167.8	6.1	4.1	0.88	51.61	1.9342	399.7207
15032	1509401032	54.4900	-110.7214	1040.1	484.8	167.9	6.2	4.2	0.88	51.61	1.9342	399.8374
15033	1509401033	54.4893	-110.7211	1040.2	485.6	168.0	6.1	4.3	0.88	51.61	1.9344	399.6050
15034	1509401034	54.4886	-110.7207	1040.6	487.6	168.0	6.1	4.4	0.88	51.61	1.9372	398.6104
15035	1509401035	54.4884	-110.7206	1040.6	487.9	168.0	6.0	4.2	0.88	51.61	1.9349	398.5036
15036	1509401036	54.4884	-110.7206	1040.6	488.0	168.0	6.1	4.1	0.88	51.61	1.9336	397.6338
15037	1509401037	54.4883	-110.7206	1040.7	488.7	168.0	6.1	3.9	0.88	51.61	1.9329	397.7257
15038	1509401038	54.4883	-110.7206	1040.7	488.7	168.0	6.1	3.7	0.88	51.61	1.9325	398.2324
15039	1509401039	54.4882	-110.7205	1040.7	488.8	168.0	6.2	3.6	0.88	51.61	1.9332	399.3388
15040	1509401040	54.4882	-110.7205	1040.8	488.8	168.0	6.3	3.0	0.88	51.61	1.9339	398.7368
15041	1509401041	54.4881	-110.7205	1040.8	488.8	168.0	6.3	3.0	0.88	51.61	1.9331	398.6484
15042	1509401042	54.4877	-110.7202	1041.1	490.1	168.0	6.3	3.2	0.88	51.61	1.9339	398.8590
15043	1509401043	54.4869	-110.7198	1041.5	490.7	168.1	6.5	3.4	0.88	51.61	1.9331	398.4733
15044	1509401044	54.4861	-110.7194	1042.2	492.2	168.0	6.5	3.6	0.88	51.61	1.9326	398.7606
15045	1509401045	54.4853	-110.7190	1043.1	493.1	168.0	6.7	3.7	0.88	51.61	1.9326	399.1980
15046	1509401046	54.4846	-110.7186	1044.1	495.1	167.8	6.7	3.6	0.88	51.61	1.9317	398.5863
15047	1509401047	54.4838	-110.7182	1044.9	495.9	167.6	6.7	3.6	0.88	51.61	1.9314	398.5863
15048	1509401048	54.4830	-110.7177	1045.5	497.5	167.3	6.6	3.5	0.88	51.61	1.9289	398.1105
15049	1509401049	54.4823	-110.7173	1046.2	499.2	167.1	6.6	3.5	0.88	51.61	1.9283	398.0448
15050	1509401050	54.4815	-110.7169	1047.4	500.4	166.9	6.6	3.3	0.88	51.61	1.9271	397.9300
15051	1509401051	54.4808	-110.7164	1048.6	501.6	166.7	6.5	3.4	0.88	51.61	1.9277	397.9300
15052	1509401052	54.4800	-110.7160	1050.2	503.2	166.7	6.7	3.3	0.88	51.61	1.9284	397.6393
15053	1509401053	54.4793	-110.7156	1051.8	504.8	166.7	6.9	3.5	0.88	51.61	1.9268	398.1779
15054	1509401054	54.4785	-110.7151	1053.4	505.4	166.6	6.9	3.7	0.88	51.61	1.9278	396.6072
15055	1509401055	54.4778	-110.7147	1054.9	506.9	166.7	7.2	3.9	0.88	51.61	1.9278	397.7419
15056	1509401056	54.4770	-110.7142	1056.2	508.2	166.8	7.3	4.0	0.88	51.61	1.9267	398.2999
15057	1509401057	54.4763	-110.7138	1057.2	509.2	166.8	7.4	4.2	0.88	51.61	1.9263	398.4936
15058	1509401058	54.4756	-110.7133	1058.1	510.1	166.8	7.3	4.1	0.88	51.61	1.9270	398.4936
15059	1509401059	54.4748	-110.7129	1058.6	510.6	166.9	7.5	4.2	0.88	51.61	1.9301	398.2789
15060	1509401060	54.4741	-110.7125	1058.8	510.8	166.9	7.4	4.2	0.88	51.61	1.9358	398.9433
15061	1509401061	54.4733	-110.7120	1059.1	511.1	166.9	7.4	4.7	0.88	51.61	1.9363	398.8018
15062	1509401062	54.4726	-110.7116	1059.5	510.5	167.0	7.4	4.8	0.88	51.61	1.9357	398.6057
15063	1509401063	54.4719	-110.7111	1059.9	509.9	167.1	7.4	4.9	0.88	51.61	1.9334	398.6363
15064	1509401064	54.4712	-110.7107	1060.7	510.7	167.2	7.4	4.5	0.88	51.61	1.9283	396.8701
15065	1509401065	54.4704	-110.7103	1062.2	511.2	166.2	6.2	4.0	0.88	51.61	1.9275	397.9202
15066	1509401066	54.4697	-110.7098	1063.7	512.7	166.7	6.6	3.7	0.88	51.61	1.9268	398.0965
15067	1509401067	54.4690	-110.7094	1065.5	515.2	166.1	5.9	3.6	0.88	51.61	1.9270	397.8417
15068	1509401068	54.4683	-110.7090	1066.7	517.5	167.4	7.2	4.1	0.88	51.61	1.9269	397.5027
15069	1509401069	54.4675	-110.7086	1067.5	518.5	168.0	7.7	4.3	0.88	51.61	1.9269	398.4864
15070	1509401070	54.4668	-110.7082	1067.7	520.0	167.6	7.3	4.6	0.88	51.61	1.9277	399.0781
15071	1509401071	54.4661	-110.7077	1067.5	520.5	167.5	7.3	4.6	0.88	51.61	1.9292	396.9746
15072	1509401072	54.4654	-110.7073	1066.6	519.6	167.5	7.4	4.5	0.88	51.61	1.9303	399.2206
15073	1509401073	54.4646	-110.7069	1065.7	517.8	167.6	7.4	4.5	0.88	51.61	1.9315	397.5414
15074	1509401074	54.4639	-110.7065	1065.0	516.0	167.5	7.4	4.3	0.88	51.61	1.9323	398.2324
15075	1509401075	54.4632	-110.7060	1064.3	515.3	167.2	7.1	4.2	0.88	51.61	1.9286	397.7835
15076	1509401076	54.4625	-110.7056	1063.8	515.8	167.1	6.9	4.1	0.88	51.61	1.9286	398.2701
15077	1509401077	54.4617	-110.7052	1063.4	515.4	167.4	7.2	4.1	0.88	51.61	1.9277	397.5665
15078	1509401078	54.4610	-110.7047	1063.3	515.3	167.6	7.4	4.3	0.88	51.61	1.9281	397.7440
15079	1509401079	54.4602	-110.7043	1063.5	515.5	167.7	7.5	4.2	0.88	51.61	1.9279	399.2475
15080	1509401080	54.4595	-110.7039	1063.8	515.8	167.6	7.5	4.3	0.88	51.61	1.9274	396.8888
15081	1509401081	54.4587	-110.7035	1064.1	516.1	167.5	7.6	4.3	0.88	51.61	1.9272	396.9055
15082	1509401082	54.4580	-110.7030	1064.2	516.2	167.5	7.6	4.4	0.88	51.61	1.9257	396.6188
15083	1509401083	54.4573	-110.7026	1064.0	516.7	167.5	7.6	4.3	0.88	51.61	1.9276	396.7049
15084	1509401084	54.4566	-110.7022	1063.5	516.5	167.4	7.5	4.2	0.88	51.61	1.9270	398.6774
15085	1509401085	54.4559	-110.7018	1062.8	515.8	167.4	7.5	4.2	0.88	51.61	1.9272	398.3040
15086	1509401086	54.4552	-110.7013	1062.2	515.2	167.3	7.6	4.1	0.88	51.61	1.9270	398.5631
15087	1509401087	54.4545	-110.7010	1061.8	514.8	167.3	7.6	4.1	0.88	51.61	1.9268	398.5631
15088	1509401088	54.4539	-110.7006	1061.5	515.5	167.2	7.5	4.1	0.88	51.61	1.9265	398.5631
15089	1509401089	54.4532	-110.7002	1061.4	516.4	167.2	7.5	4.0	0.88	51.61	1.9262	398.5631
15090	1509401090	54.4526	-110.6998	1061.6	516.6	167.2	7.4	4.1	0.88	51.61	1.9260	398.5631
15091	1509401091	54.4520	-110.6995	1061.8	516.8	167.2	7.3	4.1	0.88	51.61	1.9257	398.5631
15092	1509401092	54.4513	-110.6991	1062.2	516.2	167.1	6.9	4.0	0.88	51.61	1.9255	398.5631
15093	1509401093	54.4507	-110.6987	1062.4	516.4	167.4	7.1	4.1	0.88	51.61	1.9263	398.5463
15094	1509401094	54.4500	-110.6983	1062.5	516.5	167.6	7.2	4.2	0.88	51.61	1.9295	398.9451
15095	1509401095	54.4498	-110.6982	1062.5	516.5	167.6	7.1	4.2	0.88	51.61	1.9268	396.8394
15096	1509401096	54.4498	-110.6982	1062.5	516.5	167.6	7.2	4.2	0.88	51.61	1.9285	397.9912
15097	1509401097	54.4498	-110.6982	1062.5	516.5	167.6	7.2	4.2	0.88	51.61	1.9293	398.2893
15098	1509401098	54.4497	-110.6982	1062.4	516.4	167.7	7.2	4.2	0.88	51.61	1.9302	398.6992
15099	1509401099	54.4497	-110.6981	1062.4	516.4	167.7	7.3	4.2	0.88	51.61	1.9332	398.2315
15100	1509401100	54.4496	-110.6981	1062.4	516.4	167.7	7.3	4.2	0.88	51.61	1.9334	399.2998
15101	1509401101	54.4496	-110.6981	1062.4	516.4	167.7	7.4	4.2	0.88	51.61	1.9326	398.9325
15102	1509401102	54.4491	-110.6978	1062.3	516.3	167.7	7.2	4.6	0.88	51.61	1.9325	399.2669
15103	1509401103	54.4484	-110.6974	1062.0	516.0	167.9	7.4	4.3	0.88	51.61	1.9341	396.3247
15104	1509401104	54.4477	-110.6970	1061.5	515.5	168.1	7.6	4.3	0.88	51.61	1.9316	396.9477
15105	1509401105	54.4470	-110.6966	1061.2	515.2	167.7	7.2	4.2	0.88	51.61	1.9322	399.7658
15106	1509401106	54.4462	-110.6962	1060.9	514.9	167.8	7.3	4.1	0.88	51.61	1.9338	399.3538
15107	1509401107	54.4455	-110.6958	1060.7	513.7	167.5	6.7	4.1	0.88	51.61	1.9325	398.6369
15108	1509401108	54.4448	-110.6954	1060.9	513.3	168.3	7.4	4.3	0.88	51.61	1.9341	398.6369
15109	1509401109	54.4441	-110.6949	1061.4	511.6	167.9	6.9	4.1	0.88	51.61	1.9353	399.6321
15110	1509401110	54.4433	-110.6945	1062.0	512.0	167.8	6.8	3.8	0.88	51.61	1.9370	398.1366
15111	1509401111	54.4426	-110.6941	1062.6	512.6	167.8	6.7	3.9	0.88	51.61	1.9377	399.3246
15112	1509401112	54.4419	-110.6937	1063.2	514.2	167.9	6.6	4.5	0.88	51.61	1.9371	397.8298
15113	1509401113	54.4411	-110.6933	1063.8	514.7	168.0	6.7	4.7	0.88	51.61	1.9353	399.1789
15114	1509401114	54.4404	-110.6929	1064.3	516.3	167.7	6.4	4.6	0.88	51.61	1.9349	398.9109
15115	1509401115	54.4397	-110.6925	1064.5	516.5	167.1	5.7	4.5	0.88	51.61	1.9354	399.6331
15116	1509401116	54.4389	-110.6921	1064.6	517.6	167.3	5.9	4.1	0.88	51.61	1.9346	398.7667
15117	1509401117	54.4382	-110.6917	1064.7	519.7	167.6	5.9	4.6	0.88	51.61	1.9343	398.7714
15118	1509401118	54.4375	-110.6913	1064.9	520.9	167.2	5.5	4.5	0.88	51.61	1.9352	399.3316
15119	1509401119	54.4368	-110.6909	1065.1	521.4	167.3	5.6	4.6	0.88	51.61	1.9359	399.0109
15120	1509401120	54.4360	-110.6905	1064.9	520.9	167.6	5.8	4.6	0.88	51.61	1.9367	399.9907
15121	1509401121	54.4353	-110.6901	1064.6	519.6	167.4	5.8	4.6	0.88	51.61	1.9346	399.1696
15122	1509401122	54.4346	-110.6897	1064.0	518.0	167.5	5.9	4.4	0.88	51.61	1.9350	398.6414
15123	1509401123	54.4339	-110.6893	1063.2	517.2	167.6	6.1	4.4	0.88	51.61	1.9366	398.5924
15124	1509401124	54.4331	-110.6889	1062.4	516.4	167.5	6.2	4.4	0.88	51.61	1.9343	398.2659
15125	1509401125	54.4324	-110.6885	1061.8	516.7	167.3	6.1	4.3	0.88	51.61	1.9360	399.2151
15126	1509401126	54.4317	-110.6881	1061.4	517.5	167.3	6.1	4.2	0.88	51.61	1.9358	398.9976
15127	1509401127	54.4310	-110.6877	1061.0	514.9	167.3	6.1	4.3	0.88	51.61	1.9355	399.0327
15128	1509401128	54.4302	-110.6873	1060.8	514.9	167.3	6.1	4.3	0.88	51.61	1.9338	398.1292
15129	1509401129	54.4295	-110.6869	1060.6	513.6	167.6	6.4	4.4	0.88	51.61	1.9351	397.7357
15130	1509401130	54.4288	-110.6865	1060.5	512.5	167.4	6.1	4.3	0.88	51.61	1.9357	399.5311
15131	1509401131	54.4281	-110.6861	1060.2	510.3	167.5	6.4	4.4	0.88	51.61	1.9357	399.2551
15132	1509401132	54.4273	-110.6857	1060.1	506.4	167.4	6.3	4.4	0.88	51.61	1.9348	399.7219
15133	1509401133	54.4266	-110.6853	1060.1	506.1	167.4	6.2	4.4	0.88	51.61	1.9360	398.7404
15134	1509401134	54.4259	-110.6849	1060.4	505.4	167.2	6.1	4.4	0.88	51.61	1.9358	397.8603
15135	1509401135	54.4252	-110.6845	1060.7	505.7	167.4	6.3	4.1	0.88	51.61	1.9345	399.9889
15136	1509401136	54.4244	-110.6841	1061.1	507.1	167.4	6.2	4.2	0.88	51.61	1.9362	399.0622
15137	1509401137	54.4237	-110.6837	1061.3	507.3	167.5	6.3	4.2	0.88	51.61	1.9343	399.0663
15138	1509401138	54.4230	-110.6833	1061.4	507.4	167.4	6.2	4.2	0.88	51.61	1.9342	399.4112
15139	1509401139	54.4222	-110.6829	1061.3	507.3	167.5	6.2	4.2	0.88	51.61	1.9343	397.4560
15140	1509401140	54.4215	-110.6825	1061.2	507.2	167.6	6.3	4.2	0.88	51.61	1.9354	399.1563
15141	1509401141	54.4208	-110.6820	1060.9	506.9	167.4	6.2	4.1	0.88	51.61	1.9355	398.7607
15142	1509401142	54.4200	-110.6816	1060.5	506.5	167.6	6.5	4.1	0.88	51.61	1.9332	398.4718
15143	1509401143	54.4193	-110.6812	1060.0	507.0	167.6	6.5	4.0	0.88	51.61	1.9343	399.6906
15144	1509401144	54.4186	-110.6808	1059.7	510.1	167.4	6.3	4.1	0.88	51.61	1.9350	399.5565
15145	1509401145	54.4178	-110.6804	1059.6	512.6	167.3	6.1	4.3	0.88	51.61	1.9343	398.5746
15146	1509401146	54.4171	-110.6800	1059.7	516.8	167.2	6.1	4.1	0.88	51.61	1.9335	397.5297
15147	1509401147	54.4164	-110.6796	1060.0	521.0	167.4	6.2	4.0	0.88	51.61	1.9335	397.5297
15148	1509401148	54.4157	-110.6793	1060.4	525.2	167.6	6.4	4.1	0.88	51.61	1.9335	397.5297
15149	1509401149	54.4151	-110.6789	1060.9	527.8	167.6	6.4	4.1	0.88	51.61	1.9335	397.5297
15150	1509401150	54.4145	-110.6786	1061.4	527.4	167.7	6.5	4.2	0.88	51.61	1.9335	397.5297
15151	1509401151	54.4139	-110.6782	1061.8	522.8	167.7	6.6	4.3	0.88	51.61	1.9335	397.5297
15152	1509401152	54.4132	-110.6778	1062.2	521.2	167.7	6.6	3.8	0.88	51.61	1.9335	397.5297
15153	1509401153	54.4126	-110.6775	1062.5	521.1	167.6	6.7	3.7	0.88	51.61	1.9335	397.5297
15154	1509401154	54.4120	-110.6771	1062.6	520.6	167.8	6.9	3.8	0.88	51.61	1.9324	398.8530
15155	1509401155	54.4117	-110.6770	1062.6	520.3	167.8	6.9	3.7	0.88	51.61	1.9314	397.8211
15156	1509401156	54.4117	-110.6770	1062.6	520.3	167.8	6.9	3.7	0.88	51.61	1.9309	398.5880
15157	1509401157	54.4117	-110.6770	1062.6	519.7	167.8	6.9	3.7	0.88	51.61	1.9314	398.5000
15158	1509401158	54.4116	-110.6769	1062.6	519.7	167.8	6.9	3.7	0.88	51.61	1.9306	398.8180
15159	1509401159	54.4116	-110.6769	1062.6	519.6	167.8	6.9	3.7	0.88	51.61	1.9305	398.2590
15160	1509401160	54.4115	-110.6769	1062.6	519.6	167.8	6.9	3.7	0.88	51.61	1.9310	399.0949
15161	1509401161	54.4115	-110.6769	1062.6	519.6	167.8	6.8	4.1	0.88	51.61	1.9315	398.8170
15162	1509401162	54.4109	-110.6765	1062.5	518.5	167.8	6.9	4.2	0.88	51.61	1.9310	398.1174
15163	1509401163	54.4101	-110.6761	1062.4	517.1	168.0	7.1	4.2	0.88	51.61	1.9320	397.8101
15164	1509401164	54.4094	-110.6757	1062.0	515.7	167.9	7.2	4.1	0.88	51.61	1.9322	397.6871
15165	1509401165	54.4087	-110.6753	1061.6	514.6	167.8	7.2	4.1	0.88	51.61	1.9318	399.7425
15166	1509401166	54.4079	-110.6749	1061.3	512.3	167.8	7.2	4.2	0.88	51.61	1.9319	397.8558
15167	1509401167	54.4072	-110.6745	1060.9	510.9	167.8	7.2	4.4	0.88	51.61	1.9308	398.0830
15168	1509401168	54.4065	-110.6741	1060.6	510.6	167.7	7.2	4.1	0.88	51.61	1.9311	398.5897
15169	1509401169	54.4057	-110.6736	1060.5	510.5	167.6	7.3	3.7	0.88	51.61	1.9315	398.1813
15170	1509401170	54.4050	-110.6732	1060.4	510.4	167.7	7.3	3.7	0.88	51.61	1.9328	398.3715
15171	1509401171	54.4043	-110.6728	1060.6	510.9	167.6	7.1	3.7	0.88	51.61	1.9328	399.2098
15172	1509401172	54.4035	-110.6724	1060.9	512.2	167.9	7.5	3.8	0.88	51.61	1.9326	398.9874
15173	1509401173	54.4028	-110.6720	1061.3	513.3	167.8	7.2	3.7	0.88	51.61	1.9331	398.4880
15174	1509401174	54.4021	-110.6716	1061.8	514.8	167.9	7.2	4.0	0.88	51.61	1.9338	399.3224
15175	1509401175	54.4013	-110.6711	1062.3	516.3	167.8	7.1	4.3	0.88	51.61	1.9335	398.9053
15176	1509401176	54.4006	-110.6707	1062.9	515.9	167.9	7.0	4.3	0.88	51.61	1.9322	398.7379
15177	1509401177	54.3999	-110.6703	1063.6	517.3	168.0	7.1	4.4	0.88	51.61	1.9329	398.7379
15178	1509401178	54.3991	-110.6699	1064.1	517.1	168.0	6.9	4.4	0.88	51.61	1.9334	399.2483
15179	1509401179	54.3984	-110.6695	1064.6	516.5	168.0	6.8	4.4	0.88	51.61	1.9338	397.7328
15180	1509401180	54.3977	-110.6691	1065.0	514.7	167.9	6.7	4.4	0.88	51.61	1.9341	397.7328
15181	1509401181	54.3969	-110.6687	1065.3	513.2	168.3	6.9	4.5	0.88	51.61	1.9359	398.5403
15182	1509401182	54.3962	-110.6683	1065.4	512.4	168.2	6.9	4.4	0.88	51.61	1.9339	399.6283
15183	1509401183	54.3954	-110.6679	1065.3	511.3	168.0	6.7	4.4	0.88	51.61	1.9336	399.6283
15184	1509401184	54.3947	-110.6675	1065.0	511.1	167.9	6.7	4.3	0.88	51.61	1.9340	398.3989
15185	1509401185	54.3940	-110.6671	1064.7	509.7	167.7	6.5	4.3	0.88	51.61	1.9324	397.7280
15186	1509401186	54.3932	-110.6667	1064.4	509.3	167.8	6.6	4.2	0.88	51.61	1.9336	398.9793
15187	1509401187	54.3925	-110.6663	1064.2	509.5	167.6	6.6	4.3	0.88	51.61	1.9331	398.4724
15188	1509401188	54.3918	-110.6658	1064.2	511.4	167.5	6.7	4.3	0.88	51.61	1.9324	399.8237
15189	1509401189	54.3910	-110.6654	1064.1	516.5	167.6	6.9	4.2	0.88	51.61	1.9319	398.1485
15190	1509401190	54.3903	-110.6650	1064.0	521.3	167.3	6.7	4.2	0.88	51.61	1.9340	398.6034
15191	1509401191	54.3896	-110.6646	1064.1	535.1	167.1	6.6	4.2	0.88	51.61	1.9336	399.3702
15192	1509401192	54.3888	-110.6642	1064.1	549.7	167.2	6.7	4.2	0.88	51.61	1.9323	398.6797
15193	1509401193	54.3881	-110.6637	1064.0	554.6	167.3	6.9	4.3	0.88	51.61	1.9337	395.7992
15194	1509401194	54.3873	-110.6633	1063.6	556.6	167.3	7.0	4.2	0.88	51.61	1.9311	399.0060
15195	1509401195	54.3866	-110.6629	1063.3	553.6	167.4	7.1	4.1	0.88	51.61	1.9305	399.4068
15196	1509401196	54.3859	-110.6625	1062.9	547.6	167.4	7.1	4.2	0.88	51.61	1.9308	398.7228
15197	1509401197	54.3851	-110.6620	1062.4	534.4	167.4	7.1	4.1	0.88	51.61	1.9321	398.9140
15198	1509401198	54.3843	-110.6616	1062.1	518.2	167.7	7.5	4.1	0.88	51.61	1.9317	398.4524
15199	1509401199	54.3836	-110.6612	1061.7	509.0	167.8	7.4	4.0	0.88	51.61	1.9312	398.4524
15200	1509401200	54.3829	-110.6608	1061.3	507.2	167.8	7.4	4.0	0.88	51.61	1.9317	397.4977
15201	1509401201	54.3821	-110.6603	1061.2	509.2	167.6	7.1	4.0	0.88	51.61	1.9322	398.8399
15202	1509401202	54.3814	-110.6599	1061.4	510.1	167.8	7.2	4.0	0.88	51.61	1.9307	398.7071
15203	1509401203	54.3807	-110.6595	1062.4	511.4	167.9	7.3	4.2	0.88	51.61	1.9317	398.4753
15204	1509401204	54.3801	-110.6592	1064.2	513.1	167.9	7.2	4.3	0.88	51.61	1.9327	397.7085
15205	1509401205	54.3794	-110.6588	1066.7	516.7	167.9	7.3	4.2	0.88	51.61	1.9319	398.5053
15206	1509401206	54.3788	-110.6585	1069.7	519.7	167.9	7.3	4.1	0.88	51.61	1.9327	398.9600
15207	1509401207	54.3782	-110.6581	1073.0	523.0	167.8	7.1	4.4	0.88	51.61	1.9328	398.4001
15208	1509401208	54.3776	-110.6578	1075.9	525.9	167.8	7.0	4.2	0.88	51.61	1.9330	397.8402
15209	1509401209	54.3769	-110.6574	1078.6	527.7	167.8	7.0	4.4	0.88	51.61	1.9331	397.2803
15210	1509401210	54.3763	-110.6570	1081.0	530.0	168.0	7.3	4.2	0.88	51.61	1.9332	398.0169
15211	1509401211	54.3757	-110.6567	1083.1	532.1	167.9	7.1	4.4	0.88	51.61	1.9308	398.4311
15212	1509401212	54.3751	-110.6563	1085.3	534.0	168.0	7.4	4.2	0.88	51.61	1.9310	397.7515
15213	1509401213	54.3745	-110.6560	1087.8	535.8	168.0	7.4	3.9	0.88	51.61	1.9283	397.4567
15214	1509401214	54.3739	-110.6556	1090.2	538.2	168.1	7.6	4.1	0.88	51.61	1.9266	397.8977
15215	1509401215	54.3737	-110.6555	1091.0	539.0	168.2	7.8	4.1	0.88	51.61	1.9277	398.9140
15216	1509401216	54.3736	-110.6555	1091.2	539.2	168.2	7.8	4.0	0.88	51.61	1.9288	398.5946
15217	1509401217	54.3736	-110.6555	1091.4	539.4	168.2	7.9	3.9	0.88	51.61	1.9303	397.9252
15218	1509401218	54.3735	-110.6555	1091.5	539.5	168.2	7.9	3.7	0.88	51.61	1.9312	397.4812
15219	1509401219	54.3735	-110.6554	1091.7	539.7	168.2	8.1	3.2	0.88	51.61	1.9288	398.0232
15220	1509401220	54.3734	-110.6554	1091.9	539.9	168.3	8.1	3.2	0.88	51.61	1.9275	398.9561
15221	1509401221	54.3734	-110.6554	1092.0	540.0	168.3	8.2	3.0	0.88	51.61	1.9269	398.4116
15222	1509401222	54.3730	-110.6551	1093.8	541.8	168.3	8.3	2.9	0.88	51.61	1.9270	396.8891
15223	1509401223	54.3723	-110.6547	1096.5	544.5	168.1	8.1	3.1	0.88	51.61	1.9264	398.5993
15224	1509401224	54.3716	-110.6543	1099.2	547.2	167.9	8.0	3.3	0.88	51.61	1.9281	397.7383
15225	1509401225	54.3709	-110.6539	1101.9	549.9	167.6	7.7	3.4	0.88	51.61	1.9275	397.7383
15226	1509401226	54.3702	-110.6535	1104.4	553.4	167.3	7.4	3.3	0.88	51.61	1.9290	397.9071
15227	1509401227	54.3695	-110.6531	1106.9	555.9	167.6	7.8	3.2	0.88	51.61	1.9277	398.1657
15228	1509401228	54.3688	-110.6527	1109.3	558.3	168.0	8.1	3.4	0.88	51.61	1.9267	397.9962
15229	1509401229	54.3681	-110.6523	1111.7	560.7	167.9	8.1	3.5	0.88	51.61	1.9270	397.4353
15230	1509401230	54.3674	-110.6519	1114.0	563.0	167.8	8.1	3.7	0.88	51.61	1.9268	398.3615
15231	1509401231	54.3667	-110.6514	1116.2	565.2	167.8	8.0	3.7	0.88	51.61	1.9265	397.8400
15232	1509401232	54.3660	-110.6510	1118.3	567.0	167.7	8.0	3.4	0.88	51.61	1.9272	398.4619
15233	1509401233	54.3653	-110.6506	1120.4	568.4	167.5	8.0	3.4	0.88	51.61	1.9271	397.2737
15234	1509401234	54.3646	-110.6502	1122.4	569.5	167.5	8.1	3.5	0.88	51.61	1.9265	398.8543
15235	1509401235	54.3640	-110.6498	1124.6	570.6	167.4	7.9	3.7	0.88	51.61	1.9265	398.3199
15236	1509401236	54.3633	-110.6493	1126.9	572.9	167.3	7.9	3.8	0.88	51.61	1.9261	398.1626
15237	1509401237	54.3626	-110.6489	1129.0	575.0	167.4	8.0	4.0	0.88	51.61	1.9266	398.2069
15238	1509401238	54.3619	-110.6485	1131.3	578.3	167.5	7.9	4.0	0.88	51.61	1.9259	398.0687
15239	1509401239	54.3613	-110.6481	1133.5	580.5	167.5	8.1	3.7	0.88	51.61	1.9269	398.0201
15240	1509401240	54.3606	-110.6477	1135.7	583.7	167.3	8.0	3.8	0.88	51.61	1.9269	397.6493
15241	1509401241	54.3599	-110.6473	1137.9	585.9	167.2	8.0	4.0	0.88	51.61	1.9272	398.9753
15242	1509401242	54.3592	-110.6468	1140.4	588.4	167.0	8.0	4.1	0.88	51.61	1.9268	397.9067
15243	1509401243	54.3586	-110.6464	1143.0	591.0	166.9	8.0	3.9	0.88	51.61	1.9258	397.9067
15244	1509401244	54.3579	-110.6460	1145.7	593.7	166.7	8.0	4.0	0.88	51.61	1.9274	397.6255
15245	1509401245	54.3572	-110.6456	1148.3	596.3	166.7	8.0	4.2	0.88	51.61	1.9253	396.6154
15246	1509401246	54.3566	-110.6451	1151.1	599.1	166.7	8.0	4.4	0.88	51.61	1.9246	397.7571
15247	1509401247	54.3559	-110.6447	1153.9	600.9	166.6	7.9	4.2	0.88	51.61	1.9251	398.7754
15248	1509401248	54.3553	-110.6443	1157.0	604.0	166.7	7.9	4.3	0.88	51.61	1.9258	398.7754
15249	1509401249	54.3546	-110.6439	1160.1	607.1	166.6	7.8	4.1	0.88	51.61	1.9258	397.2030
15250	1509401250	54.3540	-110.6434	1163.3	609.3	166.6	7.7	4.1	0.88	51.61	1.9257	399.1438
15251	1509401251	54.3533	-110.6430	1166.2	612.2	166.5	7.5	4.2	0.88	51.61	1.9264	397.8229
15252	1509401252	54.3526	-110.6426	1169.0	615.0	166.5	7.4	4.3	0.88	51.61	1.9265	397.3254
15253	1509401253	54.3520	-110.6422	1171.7	617.7	166.4	7.3	4.2	0.88	51.61	1.9252	397.0238
15254	1509401254	54.3513	-110.6417	1174.2	620.2	166.5	7.3	4.0	0.88	51.61	1.9277	397.4303
15255	1509401255	54.3507	-110.6413	1176.7	623.7	166.6	7.2	4.1	0.88	51.61	1.9272	397.5147
15256	1509401256	54.3500	-110.6409	1179.3	626.3	166.8	7.2	4.2	0.88	51.61	1.9266	398.4895
15257	1509401257	54.3494	-110.6405	1181.8	628.8	166.8	7.2	4.4	0.88	51.61	1.9254	398.3602
15258	1509401258	54.3487	-110.6401	1184.4	631.4	166.9	7.1	4.3	0.88	51.61	1.9264	398.6117
15259	1509401259	54.3481	-110.6397	1186.9	634.9	166.9	7.2	4.0	0.88	51.61	1.9270	397.2942
15260	1509401260	54.3474	-110.6393	1189.4	637.4	167.0	7.2	4.1	0.88	51.61	1.9252	398.0680
15261	1509401261	54.3468	-110.6389	1191.7	639.7	167.0	7.1	4.1	0.88	51.61	1.9254	398.1848
15262	1509401262	54.3461	-110.6385	1193.9	641.9	167.1	7.1	4.2	0.88	51.61	1.9258	398.0472
15263	1509401263	54.3455	-110.6381	1196.0	644.0	167.2	7.2	3.7	0.88	51.61	1.9257	398.2151
15264	1509401264	54.3449	-110.6377	1198.1	645.3	167.3	7.2	3.7	0.88	51.61	1.9260	398.0029
15265	1509401265	54.3443	-110.6374	1199.9	646.9	167.4	7.1	3.8	0.88	51.61	1.9260	396.9054
15266	1509401266	54.3437	-110.6371	1201.7	648.7	167.5	7.1	3.9	0.88	51.61	1.9258	399.0639
15267	1509401267	54.3432	-110.6367	1203.5	650.5	167.5	7.2	3.8	0.88	51.61	1.9256	399.0639
15268	1509401268	54.3426	-110.6364	1205.3	652.3	167.5	7.2	3.9	0.88	51.61	1.9254	399.0639
15269	1509401269	54.3421	-110.6360	1207.0	654.0	167.4	7.1	4.0	0.88	51.61	1.9253	399.0639
15270	1509401270	54.3415	-110.6357	1208.8	655.8	167.3	7.2	4.0	0.88	51.61	1.9251	399.0639
15271	1509401271	54.3409	-110.6354	1210.5	657.9	167.3	7.2	3.6	0.88	51.61	1.9262	397.3147
15272	1509401272	54.3404	-110.6350	1212.3	660.3	167.1	7.2	3.5	0.88	51.61	1.9262	398.7296
15273	1509401273	54.3398	-110.6347	1214.2	662.2	167.1	7.3	3.6	0.88	51.61	1.9257	398.2393
15274	1509401274	54.3393	-110.6344	1216.2	664.2	167.1	7.3	3.7	0.88	51.61	1.9268	398.5502
15275	1509401275	54.3391	-110.6342	1216.9	664.9	167.0	7.3	3.7	0.88	51.61	1.9265	398.3082
15276	1509401276	54.3390	-110.6342	1217.2	665.2	167.0	7.3	3.7	0.88	51.61	1.9269	397.9986
15277	1509401277	54.3389	-110.6341	1217.5	665.5	167.0	7.3	3.8	0.88	51.61	1.9276	397.1224
15278	1509401278	54.3388	-110.6341	1217.9	666.9	166.9	7.2	3.8	0.88	51.61	1.9261	398.8214
15279	1509401279	54.3382	-110.6337	1220.2	669.2	166.6	7.3	3.3	0.88	51.61	1.9259	398.5303
15280	1509401280	54.3375	-110.6332	1222.5	671.5	166.5	7.2	3.3	0.88	51.61	1.9257	397.9373
15281	1509401281	54.3369	-110.6328	1224.9	673.9	166.5	7.2	3.1	0.88	51.61	1.9270	397.5570
15282	1509401282	54.3363	-110.6324	1227.4	676.4	166.7	7.4	3.1	0.88	51.61	1.9258	397.4312
15283	1509401283	54.3356	-110.6321	1229.8	678.8	166.8	7.3	3.2	0.88	51.61	1.9261	397.4866
15284	1509401284	54.3350	-110.6317	1232.3	681.3	166.9	7.2	3.3	0.88	51.61	1.9269	399.5087
15285	1509401285	54.3344	-110.6313	1234.8	683.8	167.2	7.3	3.5	0.88	51.61	1.9253	397.5375
15286	1509401286	54.3337	-110.6309	1237.2	686.2	167.3	7.3	3.6	0.88	51.61	1.9260	397.9183
15287	1509401287	54.3331	-110.6305	1239.8	688.8	167.4	7.2	3.6	0.88	51.61	1.9264	397.5545
15288	1509401288	54.3325	-110.6301	1242.1	690.9	167.5	7.2	3.3	0.88	51.61	1.9269	397.4990
15289	1509401289	54.3319	-110.6297	1244.4	692.4	167.6	7.1	3.4	0.88	51.61	1.9269	398.6521
15290	1509401290	54.3312	-110.6294	1246.9	694.9	168.0	7.2	3.5	0.88	51.61	1.9264	398.1226
15291	1509401291	54.3306	-110.6290	1249.6	697.6	168.2	7.2	3.5	0.88	51.61	1.9253	398.8030
15292	1509401292	54.3300	-110.6286	1252.6	700.6	168.2	7.1	3.3	0.88	51.61	1.9265	397.5702
15293	1509401293	54.3294	-110.6283	1255.5	703.5	168.1	7.0	3.4	0.88	51.61	1.9266	397.7107
15294	1509401294	54.3287	-110.6279	1258.3	706.3	168.3	7.1	3.5	0.88	51.61	1.9273	398.1829
15295	1509401295	54.3281	-110.6276	1260.9	709.9	168.3	7.0	3.5	0.88	51.61	1.9258	397.7229
15296	1509401296	54.3275	-110.6272	1263.4	712.4	168.1	7.0	3.1	0.88	51.61	1.9262	397.8651
15297	1509401297	54.3269	-110.6269	1266.1	715.1	167.9	6.9	3.1	0.88	51.61	1.9273	398.2473
15298	1509401298	54.3263	-110.6265	1268.8	717.8	167.9	7.0	3.3	0.88	51.61	1.9273	397.1675
15299	1509401299	54.3257	-110.6262	1271.5	720.5	167.8	6.9	3.3	0.88	51.61	1.9278	398.5550
15300	1509401300	54.3251	-110.6258	1274.1	723.1	167.7	6.9	3.4	0.88	51.61	1.9274	398.0379
15301	1509401301	54.3246	-110.6255	1276.6	725.6	167.6	6.8	3.4	0.88	51.61	1.9266	397.6820
15302	1509401302	54.3241	-110.6252	1279.1	728.1	167.6	6.8	3.4	0.88	51.61	1.9252	397.3721
15303	1509401303	54.3236	-110.6249	1281.4	729.4	167.6	6.7	3.5	0.88	51.61	1.9268	398.4078
15304	1509401304	54.3230	-110.6246	1283.7	731.7	167.6	6.9	3.0	0.88	51.61	1.9261	397.4957
15305	1509401305	54.3225	-110.6243	1285.9	733.9	167.5	6.8	3.0	0.88	51.61	1.9256	397.9052
15306	1509401306	54.3219	-110.6239	1288.1	735.1	167.5	6.8	3.0	0.88	51.61	1.9264	398.3062
15307	1509401307	54.3214	-110.6236	1290.3	737.3	167.5	6.7	2.9	0.88	51.61	1.9260	397.1660
15308	1509401308	54.3209	-110.6233	1292.6	739.6	167.5	6.7	3.0	0.88	51.61	1.9255	397.1660
15309	1509401309	54.3203	-110.6230	1294.8	740.8	167.6	6.7	3.0	0.88	51.61	1.9255	398.6443
15310	1509401310	54.3198	-110.6227	1297.2	743.2	167.7	6.7	3.0	0.88	51.61	1.9261	396.6288
15311	1509401311	54.3193	-110.6224	1299.5	744.5	167.8	6.7	3.0	0.88	51.61	1.9267	397.6774
15312	1509401312	54.3187	-110.6220	1301.8	746.8	167.8	6.6	3.1	0.88	51.61	1.9265	397.5108
15313	1509401313	54.3182	-110.6217	1304.0	749.0	167.8	6.7	2.6	0.88	51.61	1.9248	397.5108
15314	1509401314	54.3177	-110.6214	1306.3	750.3	167.9	6.7	2.5	0.88	51.61	1.9253	397.3109
15315	1509401315	54.3172	-110.6211	1308.6	752.6	168.0	6.7	2.6	0.88	51.61	1.9250	397.5123
15316	1509401316	54.3166	-110.6208	1310.9	753.9	168.1	6.7	2.7	0.88	51.61	1.9256	397.8324
15317	1509401317	54.3161	-110.6205	1313.3	756.3	168.3	6.6	2.7	0.88	51.61	1.9277	397.0497
15318	1509401318	54.3156	-110.6202	1315.9	758.9	168.4	6.7	2.7	0.88	51.61	1.9244	397.6985
15319	1509401319	54.3150	-110.6199	1318.5	761.5	168.6	6.7	2.8	0.88	51.61	1.9247	397.6292
15320	1509401320	54.3145	-110.6196	1321.0	764.0	168.6	6.6	2.8	0.88	51.61	1.9260	397.6292
15321	1509401321	54.3140	-110.6193	1323.4	767.4	168.6	6.6	2.9	0.88	51.61	1.9255	398.6056
15322	1509401322	54.3134	-110.6190	1325.7	770.6	168.6	6.6	2.9	0.88	51.61	1.9270	398.1129
15323	1509401323	54.3129	-110.6188	1328.3	773.3	168.8	6.6	3.0	0.88	51.61	1.9265	397.1375
15324	1509401324	54.3124	-110.6185	1331.1	777.1	168.8	6.6	3.1	0.88	51.61	1.9254	398.4309
15325	1509401325	54.3118	-110.6182	1333.8	780.8	168.7	6.5	3.1	0.88	51.61	1.9250	396.4749
15326	1509401326	54.3113	-110.6179	1336.4	783.4	168.5	6.5	2.9	0.88	51.61	1.9266	397.3635
15327	1509401327	54.3108	-110.6176	1339.1	787.1	168.4	6.6	2.6	0.88	51.61	1.9265	397.9772
15328	1509401328	54.3103	-110.6173	1341.6	790.6	168.2	6.4	2.8	0.88	51.61	1.9262	397.9772
15329	1509401329	54.3097	-110.6170	1344.0	793.0	168.0	6.3	3.1	0.88	51.61	1.9259	397.9772
15330	1509401330	54.3092	-110.6167	1346.5	795.8	168.0	6.4	2.7	0.88	51.61	1.9251	398.4297
15331	1509401331	54.3087	-110.6164	1349.0	799.0	167.8	6.4	2.8	0.88	51.61	1.9259	397.6335
15332	1509401332	54.3081	-110.6161	1351.3	802.0	167.8	6.5	2.8	0.88	51.61	1.9258	397.7309
15333	1509401333	54.3076	-110.6158	1353.6	804.6	167.7	6.5	2.9	0.88	51.61	1.9260	397.3196
15334	1509401334	54.3071	-110.6155	1356.1	808.1	167.5	6.4	2.9	0.88	51.61	1.9260	397.4650
15335	1509401335	54.3069	-110.6154	1357.0	809.0	167.4	6.4	2.9	0.88	51.61	1.9252	396.6230
15336	1509401336	54.3069	-110.6154	1357.2	809.2	167.4	6.4	2.9	0.88	51.61	1.9249	397.5012
15337	1509401337	54.3069	-110.6153	1357.4	809.4	167.4	6.4	2.9	0.88	51.61	1.9254	398.0280
15338	1509401338	54.3068	-110.6153	1357.5	809.5	167.4	6.4	2.9	0.88	51.61	1.9256	398.0280
15339	1509401339	54.3068	-110.6153	1357.7	809.7	167.4	6.4	2.9	0.88	51.61	1.9246	397.1767
15340	1509401340	54.3067	-110.6153	1357.9	809.9	167.4	6.4	2.9	0.88	51.61	1.9259	397.8173
15341	1509401341	54.3067	-110.6153	1358.1	810.1	167.4	6.4	2.9	0.88	51.61	1.9255	396.8916
15342	1509401342	54.3062	-110.6150	1360.3	812.3	167.3	6.3	2.9	0.88	51.61	1.9243	397.0217
15343	1509401343	54.3057	-110.6146	1363.0	815.0	167.3	6.2	2.9	0.88	51.61	1.9261	397.6326
15344	1509401344	54.3051	-110.6143	1365.6	817.6	167.4	6.1	2.9	0.88	51.61	1.9251	398.0790
15345	1509401345	54.3045	-110.6139	1368.2	820.2	167.5	6.1	2.9	0.88	51.61	1.9249	397.4566
15346	1509401346	54.3039	-110.6136	1370.8	822.8	167.6	6.1	2.9	0.88	51.61	1.9259	397.6416
15347	1509401347	54.3033	-110.6133	1373.4	825.4	167.6	6.0	2.8	0.88	51.61	1.9255	398.0424
15348	1509401348	54.3027	-110.6129	1375.9	828.9	167.6	6.0	2.8	0.88	51.61	1.9261	398.3272
15349	1509401349	54.3021	-110.6126	1378.4	831.4	167.8	6.1	2.8	0.88	51.61	1.9252	398.1025
15350	1509401350	54.3015	-110.6122	1380.8	833.8	167.9	6.1	2.8	0.88	51.61	1.9257	398.1025
15351	1509401351	54.3009	-110.6119	1383.2	835.2	168.0	6.1	2.8	0.88	51.61	1.9259	397.8899
15352	1509401352	54.3003	-110.6116	1385.4	836.4	168.1	6.1	3.0	0.88	51.61	1.9268	397.9864
15353	1509401353	54.2997	-110.6112	1387.7	837.7	168.1	6.0	3.3	0.88	51.61	1.9269	397.9864
15354	1509401354	54.2991	-110.6109	1389.9	839.9	168.1	5.9	3.2	0.88	51.61	1.9260	398.9736
15355	1509401355	54.2985	-110.6106	1392.2	842.2	168.1	5.8	3.5	0.88	51.61	1.9259	397.6929
15356	1509401356	54.2979	-110.6102	1394.1	843.8	168.2	5.8	3.7	0.88	51.61	1.9261	398.6845
15357	1509401357	54.2973	-110.6099	1395.4	844.4	168.2	5.7	3.5	0.88	51.61	1.9258	397.2109
15358	1509401358	54.2966	-110.6096	1396.6	845.6	168.2	5.6	3.4	0.88	51.61	1.9255	398.1322
15359	1509401359	54.2960	-110.6092	1397.7	845.7	168.3	5.6	3.6	0.88	51.61	1.9252	396.9187
15360	1509401360	54.2954	-110.6089	1398.8	846.8	168.4	5.8	3.3	0.88	51.61	1.9252	398.1981
15361	1509401361	54.2948	-110.6086	1400.0	847.1	168.4	5.8	3.4	0.88	51.61	1.9259	397.6232
15362	1509401362	54.2941	-110.6082	1401.1	848.1	168.4	5.8	3.5	0.88	51.61	1.9249	396.8487
15363	1509401363	54.2935	-110.6079	1402.2	848.2	168.3	5.7	3.3	0.88	51.61	1.9254	396.5646
15364	1509401364	54.2929	-110.6076	1403.3	849.3	168.3	5.7	3.2	0.88	51.61	1.9254	397.9853
15365	1509401365	54.2923	-110.6072	1404.4	850.4	168.4	5.8	3.4	0.88	51.61	1.9276	397.9853
15366	1509401366	54.2916	-110.6069	1405.7	850.7	168.5	5.8	3.2	0.88	51.61	1.9276	398.0654
15367	1509401367	54.2910	-110.6066	1407.1	851.8	168.7	5.9	3.1	0.88	51.61	1.9250	397.3048
15368	1509401368	54.2904	-110.6062	1408.7	852.7	168.7	5.9	2.9	0.88	51.61	1.9259	397.0772
15369	1509401369	54.2897	-110.6059	1410.3	854.3	168.8	5.9	2.9	0.88	51.61	1.9257	397.0772
15370	1509401370	54.2891	-110.6056	1412.1	856.1	168.7	5.7	3.2	0.88	51.61	1.9265	398.0092
15371	1509401371	54.2885	-110.6052	1413.9	857.9	169.0	5.9	3.3	0.88	51.61	1.9277	396.4755
15372	1509401372	54.2878	-110.6049	1415.6	860.6	169.1	5.9	3.0	0.88	51.61	1.9264	398.2716
15373	1509401373	54.2872	-110.6046	1417.2	862.2	169.0	5.9	2.9	0.88	51.61	1.9269	398.6070
15374	1509401374	54.2866	-110.6043	1418.9	863.9	168.8	5.8	2.8	0.88	51.61	1.9277	398.2603
15375	1509401375	54.2859	-110.6039	1420.5	865.5	168.8	5.6	3.0	0.88	51.61	1.9260	396.9661
15376	1509401376	54.2853	-110.6036	1421.9	866.9	168.8	5.7	2.9	0.88	51.61	1.9255	397.1400
15377	1509401377	54.2846	-110.6033	1423.5	868.5	168.9	5.7	2.7	0.88	51.61	1.9266	397.0973
15378	1509401378	54.2839	-110.6029	1424.9	870.5	169.0	5.7	2.7	0.88	51.61	1.9256	397.9564
15379	1509401379	54.2833	-110.6026	1426.5	872.5	169.0	5.8	2.5	0.88	51.61	1.9251	398.1770
15380	1509401380	54.2826	-110.6023	1428.0	874.0	169.0	5.8	2.3	0.88	51.61	1.9246	397.2170
15381	1509401381	54.2820	-110.6020	1429.4	875.4	168.9	5.7	2.6	0.88	51.61	1.9245	397.6680
15382	1509401382	54.2813	-110.6016	1430.9	876.9	168.9	5.6	2.5	0.88	51.61	1.9244	398.1546
15383	1509401383	54.2807	-110.6013	1432.3	878.2	168.8	5.7	2.4	0.88	51.61	1.9254	398.1546
15384	1509401384	54.2800	-110.6010	1433.9	880.9	168.6	5.7	2.3	0.88	51.61	1.9262	397.0600
15385	1509401385	54.2794	-110.6007	1435.5	882.5	168.6	5.6	2.2	0.88	51.61	1.9246	398.2717
15386	1509401386	54.2789	-110.6004	1437.1	884.1	168.5	5.6	2.1	0.88	51.61	1.9249	397.8770
15387	1509401387	54.2783	-110.6001	1438.8	885.8	168.5	5.6	2.1	0.88	51.61	1.9254	397.8770
15388	1509401388	54.2777	-110.5998	1440.5	888.5	168.5	5.5	2.0	0.88	51.61	1.9259	397.8770
15389	1509401389	54.2771	-110.5995	1442.2	890.2	168.5	5.4	2.3	0.88	51.61	1.9264	397.8770
15390	1509401390	54.2766	-110.5992	1443.8	891.8	168.6	5.5	2.4	0.88	51.61	1.9270	397.8770
15391	1509401391	54.2760	-110.5989	1445.4	893.4	168.6	5.5	2.4	0.88	51.61	1.9244	397.9374
15392	1509401392	54.2754	-110.5986	1446.8	894.8	168.8	5.7	2.4	0.88	51.61	1.9274	397.3284
15393	1509401393	54.2748	-110.5983	1448.4	896.4	168.8	5.6	2.3	0.88	51.61	1.9249	397.3284
15394	1509401394	54.2743	-110.5981	1449.6	897.6	168.8	5.7	2.3	0.88	51.61	1.9258	395.8298
15395	1509401395	54.2741	-110.5980	1450.1	898.1	168.8	5.7	2.3	0.88	51.61	1.9256	398.2675
15396	1509401396	54.2741	-110.5979	1450.1	898.1	168.8	5.6	2.4	0.88	51.61	1.9252	398.2675
15397	1509401397	54.2740	-110.5979	1450.2	898.2	168.8	5.6	2.5	0.88	51.61	1.9260	397.4942
15398	1509401398	54.2740	-110.5979	1450.3	898.3	168.8	5.6	2.5	0.88	51.61	1.9253	398.5650
15399	1509401399	54.2739	-110.5979	1450.4	898.4	168.7	5.5	2.6	0.88	51.61	1.9244	396.4437
15400	1509401400	54.2739	-110.5979	1450.5	898.5	168.7	5.5	2.6	0.88	51.61	1.9254	398.7600
15401	1509401401	54.2739	-110.5978	1450.6	898.6	168.7	5.5	2.6	0.88	51.61	1.9266	398.2335
15402	1509401402	54.2735	-110.5976	1451.3	899.3	168.7	5.6	2.5	0.88	51.61	1.9247	398.1918
15403	1509401403	54.2728	-110.5973	1452.6	900.6	168.9	5.7	2.5	0.88	51.61	1.9258	397.9311
15404	1509401404	54.2721	-110.5970	1453.7	901.7	169.0	5.7	2.4	0.88	51.61	1.9271	397.1264
15405	1509401405	54.2715	-110.5967	1455.1	903.1	169.0	5.7	2.3	0.88	51.61	1.9269	396.6118
15406	1509401406	54.2708	-110.5963	1456.6	904.6	169.1	5.8	2.4	0.88	51.61	1.9255	397.3572
15407	1509401407	54.2701	-110.5960	1458.3	906.3	169.2	5.8	2.8	0.88	51.61	1.9251	397.0829
15408	1509401408	54.2694	-110.5957	1460.0	909.0	169.2	5.8	2.5	0.88	51.61	1.9266	397.2945
15409	1509401409	54.2688	-110.5953	1461.5	910.5	169.2	5.9	2.0	0.88	51.61	1.9254	397.7343
15410	1509401410	54.2681	-110.5950	1462.9	912.4	169.1	6.1	1.5	0.88	51.61	1.9266	397.6618
15411	1509401411	54.2674	-110.5946	1464.3	914.3	168.9	6.1	1.3	0.88	51.61	1.9266	397.6618
15412	1509401412	54.2667	-110.5943	1466.2	916.2	168.9	6.2	0.9	0.88	51.61	1.9264	397.1528
15413	1509401413	54.2661	-110.5940	1469.4	920.3	168.7	6.2	0.7	0.88	51.61	1.9253	397.4812
15414	1509401414	54.2654	-110.5936	1474.0	925.0	168.7	6.3	0.6	0.88	51.61	1.9258	396.1105
15415	1509401415	54.2647	-110.5933	1479.8	930.8	168.6	6.2	0.7	0.88	51.61	1.9251	396.1089
15416	1509401416	54.2641	-110.5929	1485.9	937.6	168.5	6.2	0.9	0.88	51.61	1.9246	396.1089
15417	1509401417	54.2634	-110.5926	1492.2	944.2	168.4	6.1	0.8	0.88	51.61	1.9240	395.3087
15418	1509401418	54.2628	-110.5923	1497.9	949.9	168.3	6.0	1.3	0.88	51.61	1.9246	397.4707
15419	1509401419	54.2622	-110.5919	1503.2	956.2	168.2	5.8	1.6	0.88	51.61	1.9246	397.7453
15420	1509401420	54.2615	-110.5916	1508.4	961.4	168.1	5.8	1.4	0.88	51.61	1.9247	397.6433
15421	1509401421	54.2609	-110.5913	1513.2	966.2	167.9	5.7	1.5	0.88	51.61	1.9250	397.8699
15422	1509401422	54.2603	-110.5909	1518.0	971.0	167.8	5.7	1.4	0.88	51.61	1.9249	397.8960
15423	1509401423	54.2596	-110.5906	1523.2	976.2	167.7	5.5	1.6	0.88	51.61	1.9251	398.6499
15424	1509401424	54.2590	-110.5902	1528.4	981.4	167.7	5.5	1.4	0.88	51.61	1.9258	398.9505
15425	1509401425	54.2584	-110.5899	1533.5	986.5	167.6	5.5	1.7	0.88	51.61	1.9262	396.5003
15426	1509401426	54.2578	-110.5896	1538.4	991.4	167.4	5.3	1.5	0.88	51.61	1.9248	397.8077
15427	1509401427	54.2572	-110.5893	1543.5	996.5	166.8	4.8	1.5	0.88	51.61	1.9256	397.8077
15428	1509401428	54.2566	-110.5889	1548.3	1001.3	166.7	4.8	1.3	0.88	51.61	1.9250	397.3756
15429	1509401429	54.2560	-110.5886	1553.0	1006.0	166.8	4.8	1.4	0.88	51.61	1.9269	396.7781
15430	1509401430	54.2553	-110.5882	1557.7	1010.7	166.5	4.6	1.2	0.88	51.61	1.9250	396.7781
15431	1509401431	54.2547	-110.5879	1562.4	1015.3	166.2	4.4	1.1	0.88	51.61	1.9242	397.0263
15432	1509401432	54.2541	-110.5876	1566.7	1019.6	166.0	4.2	1.2	0.88	51.61	1.9250	397.1561
15433	1509401433	54.2535	-110.5872	1571.3	1024.3	165.9	4.2	1.1	0.88	51.61	1.9243	396.9794
15434	1509401434	54.2529	-110.5869	1576.1	1028.7	165.8	4.1	1.0	0.88	51.61	1.9248	398.0077
15435	1509401435	54.2523	-110.5866	1580.9	1032.9	165.6	3.9	1.1	0.88	51.61	1.9250	396.5842
15436	1509401436	54.2517	-110.5862	1585.7	1036.7	165.2	3.5	1.3	0.88	51.61	1.9258	397.5221
15437	1509401437	54.2511	-110.5859	1590.4	1041.1	165.2	3.5	1.2	0.88	51.61	1.9260	397.8581
15438	1509401438	54.2505	-110.5856	1595.2	1045.4	165.2	3.6	1.0	0.88	51.61	1.9249	397.1389
15439	1509401439	54.2500	-110.5852	1600.2	1050.5	165.1	3.4	1.1	0.88	51.61	1.9250	397.3409
15440	1509401440	54.2494	-110.5849	1605.3	1055.4	164.9	3.3	0.9	0.88	51.61	1.9263	396.9243
15441	1509401441	54.2488	-110.5846	1609.9	1059.8	164.8	3.3	1.0	0.88	51.61	1.9249	397.9790
15442	1509401442	54.2482	-110.5842	1614.2	1065.1	164.8	3.4	0.6	0.88	51.61	1.9247	398.5697
15443	1509401443	54.2476	-110.5839	1618.3	1069.3	164.6	3.3	0.8	0.88	51.61	1.9242	398.1342
15444	1509401444	54.2471	-110.5836	1622.1	1073.2	164.5	3.3	0.7	0.88	51.61	1.9260	396.9344
15445	1509401445	54.2465	-110.5832	1626.0	1077.0	164.4	3.2	0.6	0.88	51.61	1.9269	398.0976
15446	1509401446	54.2460	-110.5830	1629.2	1080.2	164.3	3.1	0.6	0.88	51.61	1.9250	397.9614
15447	1509401447	54.2455	-110.5827	1632.2	1083.9	164.4	3.2	0.7	0.88	51.61	1.9252	397.3843
15448	1509401448	54.2450	-110.5824	1635.0	1086.2	164.5	3.3	0.5	0.88	51.61	1.9254	397.3843
15449	1509401449	54.2445	-110.5821	1637.3	1088.3	164.4	3.2	0.4	0.88	51.61	1.9256	397.3843
15450	1509401450	54.2440	-110.5818	1639.3	1090.3	164.3	3.3	0.2	0.88	51.61	1.9249	398.4313
15451	1509401451	54.2435	-110.5815	1640.8	1091.8	164.3	3.1	0.5	0.88	51.61	1.9252	397.6932
15452	1509401452	54.2430	-110.5812	1642.2	1093.2	164.3	3.3	0.3	0.88	51.61	1.9250	398.9152
15453	1509401453	54.2424	-110.5809	1643.3	1094.3	164.4	3.3	0.5	0.88	51.61	1.9245	398.7119
15454	1509401454	54.2419	-110.5806	1644.3	1095.3	164.3	3.3	0.3	0.88	51.61	1.9247	397.1160
15455	1509401455	54.2417	-110.5805	1644.7	1095.7	164.2	3.3	0.3	0.88	51.61	1.9256	398.9483
15456	1509401456	54.2417	-110.5804	1644.8	1095.8	164.2	3.3	0.4	0.88	51.61	1.9266	398.5989
15457	1509401457	54.2416	-110.5804	1645.0	1096.0	164.2	3.2	0.5	0.88	51.61	1.9267	398.5989
15458	1509401458	54.2415	-110.5804	1645.1	1096.1	164.3	3.2	0.6	0.88	51.61	1.9275	399.0699
15459	1509401459	54.2409	-110.5800	1646.4	1097.4	164.4	3.2	1.2	0.88	51.61	1.9261	397.3645
15460	1509401460	54.2403	-110.5797	1647.5	1098.5	164.5	3.4	1.1	0.88	51.61	1.9250	397.1665
15461	1509401461	54.2397	-110.5793	1648.7	1099.7	164.2	3.3	0.8	0.88	51.61	1.9254	397.2081
15462	1509401462	54.2391	-110.5790	1649.6	1100.6	164.2	3.3	0.9	0.88	51.61	1.9276	398.6931
15463	1509401463	54.2385	-110.5786	1650.7	1100.7	164.4	3.5	0.8	0.88	51.61	1.9256	399.4773
15464	1509401464	54.2379	-110.5782	1651.9	1101.9	164.6	3.6	0.6	0.88	51.61	1.9256	398.3475
15465	1509401465	54.2373	-110.5779	1653.2	1103.2	164.6	3.5	0.6	0.88	51.61	1.9256	397.7205
15466	1509401466	54.2367	-110.5775	1654.3	1104.3	164.6	3.6	0.7	0.88	51.61	1.9262	398.4574
15467	1509401467	54.2360	-110.5772	1655.5	1105.5	164.7	3.8	0.4	0.88	51.61	1.9259	399.3976
15468	1509401468	54.2354	-110.5768	1656.7	1105.7	164.8	3.7	0.6	0.88	51.61	1.9268	399.2849
15469	1509401469	54.2348	-110.5765	1658.2	1105.5	164.8	3.7	0.6	0.88	51.61	1.9251	399.2849
15470	1509401470	54.2342	-110.5761	1659.7	1104.7	164.9	3.7	0.4	0.88	51.61	1.9244	397.8814
15471	1509401471	54.2336	-110.5758	1660.9	1103.6	165.1	3.8	0.6	0.88	51.61	1.9265	398.4267
15472	1509401472	54.2329	-110.5754	1661.9	1102.9	165.3	3.9	0.5	0.88	51.61	1.9258	398.4267
15473	1509401473	54.2323	-110.5750	1662.6	1102.0	165.4	4.0	0.2	0.88	51.61	1.9275	397.6281
15474	1509401474	54.2316	-110.5747	1663.2	1101.3	165.3	3.9	0.2	0.88	51.61	1.9253	398.0235
15475	1509401475	54.2310	-110.5743	1663.9	1100.9	165.2	3.9	0.1	0.88	51.61	1.9256	398.4697
15476	1509401476	54.2303	-110.5740	1664.7	1101.7	165.3	3.9	0.2	0.88	51.61	1.9259	397.8560
15477	1509401477	54.2297	-110.5736	1665.4	1102.4	165.4	4.0	0.1	0.88	51.61	1.9267	398.3492
15478	1509401478	54.2290	-110.5732	1666.2	1103.2	165.4	4.0	0.2	0.88	51.61	1.9263	397.2863
15479	1509401479	54.2284	-110.5729	1666.9	1103.9	165.4	4.0	0.2	0.88	51.61	1.9256	398.9580
15480	1509401480	54.2278	-110.5725	1667.4	1104.4	165.3	4.0	-0.1	0.88	51.61	1.9250	397.8638
15481	1509401481	54.2273	-110.5722	1667.7	1105.7	165.4	4.0	0.0	0.88	51.61	1.9263	397.5516
15482	1509401482	54.2267	-110.5719	1667.9	1105.9	165.4	4.0	0.0	0.88	51.61	1.9259	397.8767
15483	1509401483	54.2261	-110.5716	1667.9	1105.9	165.5	4.0	-0.1	0.88	51.61	1.9263	397.8767
15484	1509401484	54.2255	-110.5713	1668.0	1106.0	165.5	4.0	-0.1	0.88	51.61	1.9259	397.5847
15485	1509401485	54.2249	-110.5710	1668.1	1106.1	165.6	4.0	-0.1	0.88	51.61	1.9266	397.7778
15486	1509401486	54.2243	-110.5707	1668.2	1105.9	165.8	4.0	-0.1	0.88	51.61	1.9253	397.8572
15487	1509401487	54.2238	-110.5703	1668.3	1105.3	165.9	4.0	-0.1	0.88	51.61	1.9266	397.8572
15488	1509401488	54.2232	-110.5700	1668.5	1105.5	166.0	4.0	0.2	0.88	51.61	1.9266	398.8033
15489	1509401489	54.2226	-110.5697	1668.6	1105.6	166.1	4.1	0.2	0.88	51.61	1.9259	397.9985
15490	1509401490	54.2220	-110.5694	1668.5	1105.5	166.2	4.2	0.1	0.88	51.61	1.9259	398.0554
15491	1509401491	54.2214	-110.5691	1668.2	1105.2	166.3	4.2	0.1	0.88	51.61	1.9263	398.4652
15492	1509401492	54.2208	-110.5688	1668.0	1105.0	166.3	4.3	0.1	0.88	51.61	1.9257	397.7611
15493	1509401493	54.2202	-110.5685	1667.8	1104.8	166.3	4.3	0.3	0.88	51.61	1.9248	398.8276
15494	1509401494	54.2196	-110.5681	1667.6	1104.6	166.3	4.2	0.4	0.88	51.61	1.9246	398.3311
15495	1509401495	54.2190	-110.5678	1667.4	1104.4	166.3	4.3	0.2	0.88	51.61	1.9251	398.1495
15496	1509401496	54.2184	-110.5675	1667.0	1104.0	166.4	4.3	0.5	0.88	51.61	1.9253	397.5577
15497	1509401497	54.2178	-110.5672	1666.7	1103.7	166.5	4.4	0.2	0.88	51.61	1.9260	398.0939
15498	1509401498	54.2172	-110.5669	1666.3	1103.3	166.5	4.4	0.0	0.88	51.61	1.9259	397.7353
15499	1509401499	54.2165	-110.5666	1666.0	1103.0	166.6	4.4	0.3	0.88	51.61	1.9256	397.7353
15500	1509401500	54.2159	-110.5662	1665.8	1102.8	166.6	4.5	0.1	0.88	51.61	1.9261	398.6345
15501	1509401501	54.2153	-110.5659	1665.5	1102.5	166.6	4.4	0.4	0.88	51.61	1.9248	397.2298
15502	1509401502	54.2147	-110.5656	1665.1	1100.1	166.6	4.4	0.2	0.88	51.61	1.9260	398.3900
15503	1509401503	54.2141	-110.5653	1664.8	1096.8	166.8	4.6	0.1	0.88	51.61	1.9258	398.7203
15504	1509401504	54.2135	-110.5650	1664.4	1093.5	166.8	4.5	0.4	0.88	51.61	1.9256	398.6872
15505	1509401505	54.2128	-110.5646	1663.9	1089.9	166.9	4.6	0.2	0.88	51.61	1.9258	398.8982
15506	1509401506	54.2122	-110.5643	1663.2	1087.9	166.9	4.7	0.0	0.88	51.61	1.9246	398.2820
15507	1509401507	54.2116	-110.5640	1662.4	1086.6	166.8	4.6	0.2	0.88	51.61	1.9251	398.2820
15508	1509401508	54.2109	-110.5637	1661.5	1085.5	166.9	4.7	0.0	0.88	51.61	1.9251	397.7666
15509	1509401509	54.2103	-110.5634	1660.7	1083.3	167.0	4.6	0.2	0.88	51.61	1.9250	397.6399
15510	1509401510	54.2097	-110.5630	1660.1	1081.1	167.0	4.6	0.1	0.88	51.61	1.9249	397.7850
15511	1509401511	54.2090	-110.5627	1659.7	1080.4	167.0	4.6	0.0	0.88	51.61	1.9254	398.3349
15512	1509401512	54.2084	-110.5624	1659.4	1079.9	167.0	4.6	0.2	0.88	51.61	1.9255	398.0861
15513	1509401513	54.2078	-110.5621	1659.0	1082.0	167.0	4.6	0.2	0.88	51.61	1.9251	398.5404
15514	1509401514	54.2071	-110.5617	1658.5	1082.4	167.0	4.6	0.0	0.88	51.61	1.9260	397.7329
15515	1509401515	54.2068	-110.5616	1658.2	1083.3	167.0	4.6	0.0	0.88	51.61	1.9248	398.2375
15516	1509401516	54.2067	-110.5615	1658.0	1083.2	167.0	4.6	0.0	0.88	51.61	1.9253	398.3266
15517	1509401517	54.2061	-110.5612	1657.7	1084.7	166.9	4.6	0.3	0.88	51.61	1.9274	398.9317
15518	1509401518	54.2054	-110.5609	1657.5	1087.2	166.9	4.6	0.2	0.88	51.61	1.9268	399.0058
15519	1509401519	54.2047	-110.5605	1657.5	1087.5	166.9	4.7	0.1	0.88	51.61	1.9270	398.4575
15520	1509401520	54.2040	-110.5601	1657.8	1087.8	166.9	4.8	0.0	0.88	51.61	1.9263	397.8009
15521	1509401521	54.2032	-110.5597	1658.3	1087.3	166.7	4.9	0.1	0.88	51.61	1.9256	399.6864
15522	1509401522	54.2024	-110.5593	1659.0	1085.9	166.7	5.0	0.0	0.88	51.61	1.9264	397.9642
15523	1509401523	54.2017	-110.5590	1659.7	1086.2	166.7	5.1	0.0	0.88	51.61	1.9252	397.9678
15524	1509401524	54.2010	-110.5586	1660.4	1087.5	166.4	5.0	0.0	0.88	51.61	1.9242	397.9446
15525	1509401525	54.2003	-110.5582	1661.0	1089.6	166.2	5.0	-0.1	0.88	51.61	1.9254	397.7493
15526	1509401526	54.1995	-110.5578	1661.8	1090.8	166.2	5.0	-0.1	0.88	51.61	1.9256	397.9020
15527	1509401527	54.1988	-110.5574	1662.4	1090.7	166.0	5.0	-0.2	0.88	51.61	1.9252	397.7335
15528	1509401528	54.1981	-110.5570	1662.9	1090.2	166.0	4.9	0.3	0.88	51.61	1.9252	397.5270
15529	1509401529	54.1975	-110.5567	1663.4	1089.2	166.0	5.0	0.2	0.88	51.61	1.9241	397.9446
15530	1509401530	54.1968	-110.5563	1663.9	1086.6	165.9	5.0	0.2	0.88	51.61	1.9244	398.2920
15531	1509401531	54.1962	-110.5560	1664.5	1084.1	165.4	4.4	-0.1	0.88	51.61	1.9272	396.8262
15532	1509401532	54.1955	-110.5556	1664.7	1082.1	165.4	4.3	-0.2	0.88	51.61	1.9252	397.2322
15533	1509401533	54.1949	-110.5553	1664.9	1079.5	165.3	4.3	-0.4	0.88	51.61	1.9252	397.9149
15534	1509401534	54.1942	-110.5549	1664.9	1079.7	165.3	4.3	-0.6	0.88	51.61	1.9266	397.7626
15535	1509401535	54.1936	-110.5545	1664.9	1084.3	165.4	4.2	-0.4	0.88	51.61	1.9265	398.2374
15536	1509401536	54.1929	-110.5542	1664.7	1086.4	165.3	4.3	-0.4	0.88	51.61	1.9258	397.2863
15537	1509401537	54.1923	-110.5538	1664.5	1086.5	165.3	4.3	-0.7	0.88	51.61	1.9268	398.3032
15538	1509401538	54.1916	-110.5535	1664.1	1084.4	165.3	4.3	-0.5	0.88	51.61	1.9269	397.7664
15539	1509401539	54.1909	-110.5531	1663.7	1081.4	165.3	4.3	-0.1	0.88	51.61	1.9251	398.0752
15540	1509401540	54.1903	-110.5527	1663.4	1076.2	165.2	4.3	-0.3	0.88	51.61	1.9258	398.2652
15541	1509401541	54.1896	-110.5524	1663.3	1074.4	165.2	4.5	-0.4	0.88	51.61	1.9249	398.9823
15542	1509401542	54.1889	-110.5520	1663.5	1072.4	165.3	4.5	-0.2	0.88	51.61	1.9264	397.5391
15543	1509401543	54.1883	-110.5517	1663.7	1073.2	165.3	4.6	-0.1	0.88	51.61	1.9258	398.4193
15544	1509401544	54.1876	-110.5513	1664.0	1075.3	165.1	4.5	-0.3	0.88	51.61	1.9257	398.4193
15545	1509401545	54.1870	-110.5509	1664.2	1076.2	164.9	4.4	-0.4	0.88	51.61	1.9253	397.7706
15546	1509401546	54.1863	-110.5506	1664.3	1075.3	164.8	4.3	-0.6	0.88	51.61	1.9265	396.4721
15547	1509401547	54.1856	-110.5502	1664.3	1073.0	164.8	4.4	-0.5	0.88	51.61	1.9273	400.8194
15548	1509401548	54.1850	-110.5498	1664.1	1070.2	164.8	4.3	-0.4	0.88	51.61	1.9260	399.3035
15549	1509401549	54.1843	-110.5494	1663.8	1068.5	164.9	4.5	-0.4	0.88	51.61	1.9254	398.6242
15550	1509401550	54.1836	-110.5490	1663.6	1068.9	164.9	4.3	-0.2	0.88	51.61	1.9254	397.8693
15551	1509401551	54.1829	-110.5487	1663.4	1069.4	164.9	4.3	-0.2	0.88	51.61	1.9265	397.5163
15552	1509401552	54.1822	-110.5483	1663.2	1070.2	164.8	4.2	0.0	0.88	51.61	1.9268	398.2381
15553	1509401553	54.1816	-110.5479	1662.9	1068.9	164.9	4.3	-0.1	0.88	51.61	1.9266	398.6689
15554	1509401554	54.1809	-110.5475	1662.6	1068.3	164.9	4.4	-0.2	0.88	51.61	1.9263	398.3016
15555	1509401555	54.1802	-110.5471	1662.2	1067.3	164.9	4.3	0.1	0.88	51.61	1.9263	398.2383
15556	1509401556	54.1795	-110.5468	1661.8	1068.5	165.0	4.4	0.0	0.88	51.61	1.9261	397.3193
15557	1509401557	54.1788	-110.5464	1661.5	1072.5	165.0	4.5	-0.1	0.88	51.61	1.9268	397.6498
15558	1509401558	54.1782	-110.5460	1661.3	1074.0	165.1	4.5	-0.2	0.88	51.61	1.9235	397.6498
15559	1509401559	54.1775	-110.5456	1661.1	1069.9	165.1	4.6	-0.3	0.88	51.61	1.9249	396.7046
15560	1509401560	54.1768	-110.5453	1661.1	1061.7	165.2	4.8	-0.3	0.88	51.61	1.9262	397.3533
15561	1509401561	54.1761	-110.5449	1661.2	1053.6	165.1	4.8	-0.4	0.88	51.61	1.9262	396.6059
15562	1509401562	54.1754	-110.5445	1661.4	1044.4	165.1	4.9	-0.5	0.88	51.61	1.9267	398.3333
15563	1509401563	54.1747	-110.5441	1661.4	1038.4	165.1	4.9	-0.1	0.88	51.61	1.9262	398.3333
15564	1509401564	54.1741	-110.5437	1661.1	1029.7	164.9	4.8	-0.2	0.88	51.61	1.9258	397.9991
15565	1509401565	54.1734	-110.5433	1660.7	1023.5	164.8	4.6	0.1	0.88	51.61	1.9262	397.4221
15566	1509401566	54.1727	-110.5429	1660.4	1019.4	164.9	4.7	0.1	0.88	51.61	1.9259	398.5095
15567	1509401567	54.1720	-110.5425	1660.1	1018.1	164.9	4.6	0.5	0.88	51.61	1.9259	398.5095
15568	1509401568	54.1713	-110.5422	1660.1	1016.1	164.9	4.7	0.6	0.88	51.61	1.9258	398.5095
15569	1509401569	54.1706	-110.5418	1660.0	1014.4	164.9	4.8	0.2	0.88	51.61	1.9258	398.5095
15570	1509401570	54.1699	-110.5414	1660.0	1013.0	165.0	4.9	0.2	0.88	51.61	1.9258	398.5095
15571	1509401571	54.1692	-110.5410	1660.1	1013.2	165.1	5.0	0.2	0.88	51.61	1.9257	398.5095
15572	1509401572	54.1686	-110.5406	1660.3	1012.8	165.1	4.9	0.6	0.88	51.61	1.9257	398.5095
15573	1509401573	54.1678	-110.5402	1660.7	1014.0	165.1	4.9	0.7	0.88	51.61	1.9252	398.6694
15574	1509401574	54.1672	-110.5398	1661.2	1015.8	165.0	4.8	0.7	0.88	51.61	1.9250	398.4002
15575	1509401575	54.1669	-110.5397	1661.3	1017.3	164.9	4.8	0.7	0.88	51.61	1.9257	397.8179
15576	1509401576	54.1669	-110.5397	1661.4	1017.3	164.9	4.8	0.7	0.88	51.61	1.9257	398.3216
15577	1509401577	54.1668	-110.5396	1661.4	1017.4	164.9	4.7	0.7	0.88	51.61	1.9267	398.7057
15578	1509401578	54.1668	-110.5396	1661.5	1017.4	164.9	4.7	0.7	0.88	51.61	1.9257	398.3517
15579	1509401579	54.1667	-110.5396	1661.5	1017.5	164.9	4.7	0.7	0.88	51.61	1.9256	398.6228
15580	1509401580	54.1667	-110.5395	1661.5	1017.5	164.9	4.7	0.7	0.88	51.61	1.9262	397.1238
15581	1509401581	54.1666	-110.5395	1661.6	1018.3	164.9	4.7	0.7	0.88	51.61	1.9261	399.7727
15582	1509401582	54.1660	-110.5392	1662.0	1021.8	164.9	4.7	0.8	0.88	51.61	1.9264	398.2586
15583	1509401583	54.1652	-110.5387	1662.7	1023.7	164.8	4.5	0.7	0.88	51.61	1.9257	398.0593
15584	1509401584	54.1644	-110.5383	1663.4	1026.4	165.0	4.7	0.8	0.88	51.61	1.9264	397.0845
15585	1509401585	54.1636	-110.5378	1664.0	1029.0	165.1	4.7	0.9	0.88	51.61	1.9271	398.7161
15586	1509401586	54.1629	-110.5374	1664.4	1032.1	165.1	4.8	0.9	0.88	51.61	1.9262	398.1076
15587	1509401587	54.1621	-110.5369	1664.6	1033.8	165.2	4.9	1.1	0.88	51.61	1.9257	397.9696
15588	1509401588	54.1613	-110.5365	1664.5	1035.1	165.3	5.0	1.3	0.88	51.61	1.9258	398.3079
15589	1509401589	54.1605	-110.5360	1664.4	1037.7	165.2	5.0	1.2	0.88	51.61	1.9249	398.0640
15590	1509401590	54.1597	-110.5356	1664.3	1041.0	165.2	5.0	1.2	0.88	51.61	1.9259	398.3382
15591	1509401591	54.1589	-110.5351	1664.0	1046.0	165.2	5.0	1.3	0.88	51.61	1.9253	398.1988
15592	1509401592	54.1581	-110.5347	1663.7	1049.7	165.0	4.7	1.5	0.88	51.61	1.9265	399.2455
15593	1509401593	54.1573	-110.5342	1663.3	1052.4	165.1	4.9	1.3	0.88	51.61	1.9254	398.5073
15594	1509401594	54.1565	-110.5338	1662.7	1052.7	165.0	4.7	1.2	0.88	51.61	1.9254	398.4851
15595	1509401595	54.1557	-110.5333	1662.2	1051.1	165.1	4.7	1.1	0.88	51.61	1.9258	397.3087
15596	1509401596	54.1549	-110.5328	1661.9	1047.3	165.0	4.7	0.9	0.88	51.61	1.9265	399.0127
15597	1509401597	54.1541	-110.5324	1661.8	1043.0	165.3	5.0	1.5	0.88	51.61	1.9272	397.9000
15598	1509401598	54.1532	-110.5319	1661.9	1037.7	165.4	5.2	1.4	0.88	51.61	1.9257	397.9829
15599	1509401599	54.1524	-110.5315	1661.9	1032.0	165.5	5.4	1.3	0.88	51.61	1.9265	398.0660
15600	1509401600	54.1516	-110.5310	1661.9	1029.0	165.4	5.4	1.2	0.88	51.61	1.9250	399.2334
15601	1509401601	54.1508	-110.5305	1661.6	1027.9	165.3	5.5	1.2	0.88	51.61	1.9282	398.2039
15602	1509401602	54.1500	-110.5301	1661.2	1028.8	165.3	5.5	1.0	0.88	51.61	1.9254	398.0891
15603	1509401603	54.1492	-110.5296	1660.6	1032.6	165.3	5.6	0.9	0.88	51.61	1.9260	398.7548
15604	1509401604	54.1484	-110.5291	1660.0	1033.2	165.4	5.6	0.7	0.88	51.61	1.9248	398.7548
15605	1509401605	54.1475	-110.5287	1659.6	1031.5	165.2	5.4	0.7	0.88	51.61	1.9254	397.2768
15606	1509401606	54.1467	-110.5282	1659.3	1029.0	165.2	5.3	0.9	0.88	51.61	1.9257	398.0117
15607	1509401607	54.1459	-110.5277	1659.3	1027.0	165.2	5.2	1.0	0.88	51.61	1.9250	397.8270
15608	1509401608	54.1451	-110.5273	1659.5	1026.5	165.2	5.1	0.9	0.88	51.61	1.9251	397.1722
15609	1509401609	54.1443	-110.5268	1660.0	1027.4	165.1	4.9	0.8	0.88	51.61	1.9275	397.6343
15610	1509401610	54.1435	-110.5264	1660.8	1028.8	165.0	4.6	0.8	0.88	51.61	1.9254	398.8448
15611	1509401611	54.1427	-110.5259	1661.7	1031.9	165.0	4.5	0.8	0.88	51.61	1.9255	398.3994
15612	1509401612	54.1419	-110.5255	1662.7	1036.8	165.1	4.5	0.9	0.88	51.61	1.9253	399.6531
15613	1509401613	54.1411	-110.5250	1663.6	1040.2	165.2	4.4	0.8	0.88	51.61	1.9244	398.7906
15614	1509401614	54.1403	-110.5246	1664.3	1045.3	165.3	4.4	0.9	0.88	51.61	1.9249	398.7906
15615	1509401615	54.1394	-110.5241	1664.6	1048.8	165.4	4.5	0.9	0.88	51.61	1.9257	397.1163
15616	1509401616	54.1386	-110.5237	1664.4	1052.5	165.4	4.5	0.8	0.88	51.61	1.9258	398.1014
15617	1509401617	54.1378	-110.5232	1663.9	1052.2	165.2	4.3	0.7	0.88	51.61	1.9254	398.2597
15618	1509401618	54.1370	-110.5228	1663.3	1051.0	165.4	4.5	1.0	0.88	51.61	1.9255	398.3684
15619	1509401619	54.1361	-110.5223	1663.0	1049.0	165.4	4.6	1.1	0.88	51.61	1.9265	397.2283
15620	1509401620	54.1353	-110.5219	1662.7	1045.7	165.3	4.6	1.0	0.88	51.61	1.9256	397.9293
15621	1509401621	54.1345	-110.5214	1662.7	1044.0	165.2	4.6	1.0	0.88	51.61	1.9257	398.4585
15622	1509401622	54.1337	-110.5210	1662.7	1044.7	165.0	4.7	0.9	0.88	51.61	1.9261	398.1020
15623	1509401623	54.1329	-110.5205	1662.8	1046.8	164.9	4.7	1.0	0.88	51.61	1.9256	397.9410
15624	1509401624	54.1322	-110.5201	1662.8	1046.8	165.0	4.8	1.0	0.88	51.61	1.9254	398.8648
15625	1509401625	54.1315	-110.5197	1662.9	1046.9	165.0	5.0	0.7	0.88	51.61	1.9257	398.8648
15626	1509401626	54.1307	-110.5193	1663.0	1046.0	164.9	5.0	0.5	0.88	51.61	1.9252	398.2564
15627	1509401627	54.1300	-110.5189	1663.1	1046.1	164.8	5.0	0.5	0.88	51.61	1.9251	398.1930
15628	1509401628	54.1293	-110.5185	1663.3	1045.3	164.6	4.8	0.5	0.88	51.61	1.9254	398.1188
15629	1509401629	54.1286	-110.5181	1663.3	1046.3	164.6	4.9	0.4	0.88	51.61	1.9257	398.0447
15630	1509401630	54.1279	-110.5177	1663.3	1046.3	164.6	5.0	0.4	0.88	51.61	1.9257	398.1831
15631	1509401631	54.1272	-110.5173	1663.3	1046.3	164.6	4.9	0.4	0.88	51.61	1.9251	396.3703
15632	1509401632	54.1265	-110.5169	1663.3	1046.3	164.5	4.8	0.2	0.88	51.61	1.9261	397.0435
15633	1509401633	54.1258	-110.5164	1663.1	1046.1	164.7	4.9	0.2	0.88	51.61	1.9251	398.2249
15634	1509401634	54.1251	-110.5160	1662.9	1045.7	164.9	5.0	0.2	0.88	51.61	1.9252	397.4006
15635	1509401635	54.1248	-110.5159	1662.9	1045.0	164.9	5.0	0.1	0.88	51.61	1.9249	398.8494
15636	1509401636	54.1247	-110.5158	1662.9	1044.9	164.9	5.0	0.1	0.88	51.61	1.9247	398.3757
15637	1509401637	54.1246	-110.5158	1662.8	1044.8	164.8	5.0	0.1	0.88	51.61	1.9263	397.5073
15638	1509401638	54.1244	-110.5157	1662.8	1044.8	164.8	4.9	0.6	0.88	51.61	1.9270	398.8244
15639	1509401639	54.1236	-110.5152	1662.5	1044.5	164.7	4.7	0.5	0.88	51.61	1.9264	397.7396
15640	1509401640	54.1228	-110.5147	1662.5	1043.5	164.8	4.7	0.5	0.88	51.61	1.9256	397.9046
15641	1509401641	54.1220	-110.5143	1662.4	1043.4	165.0	4.7	0.4	0.88	51.61	1.9262	398.6381
15642	1509401642	54.1211	-110.5138	1662.2	1044.2	164.9	4.6	0.3	0.88	51.61	1.9252	398.7667
15643	1509401643	54.1203	-110.5134	1662.0	1044.3	165.0	4.6	0.2	0.88	51.61	1.9249	398.8712
15644	1509401644	54.1195	-110.5129	1661.8	1044.8	165.0	4.5	0.5	0.88	51.61	1.9255	398.2207
15645	1509401645	54.1187	-110.5124	1661.7	1044.7	165.2	4.6	0.6	0.88	51.61	1.9245	399.0365
15646	1509401646	54.1178	-110.5120	1661.5	1044.5	165.1	4.4	0.5	0.88	51.61	1.9247	398.6586
15647	1509401647	54.1170	-110.5115	1661.2	1042.2	165.2	4.5	0.4	0.88	51.61	1.9249	397.7934
15648	1509401648	54.1161	-110.5111	1660.9	1038.9	165.2	4.5	0.4	0.88	51.61	1.9253	397.7292
15649	1509401649	54.1153	-110.5106	1660.5	1036.5	165.3	4.6	0.3	0.88	51.61	1.9254	397.9772
15650	1509401650	54.1145	-110.5101	1660.4	1034.4	165.4	4.6	0.3	0.88	51.61	1.9269	397.6317
15651	1509401651	54.1136	-110.5097	1660.3	1032.3	165.3	4.5	0.2	0.88	51.61	1.9251	397.6016
15652	1509401652	54.1128	-110.5092	1660.5	1030.5	165.4	4.6	0.2	0.88	51.61	1.9246	398.4679
15653	1509401653	54.1120	-110.5088	1660.7	1028.7	165.4	4.6	0.2	0.88	51.61	1.9257	397.6174
15654	1509401654	54.1111	-110.5083	1661.1	1028.1	165.4	4.5	0.2	0.88	51.61	1.9256	397.4204
15655	1509401655	54.1103	-110.5079	1661.5	1026.5	165.4	4.6	0.1	0.88	51.61	1.9267	398.3837
15656	1509401656	54.1094	-110.5074	1661.9	1025.1	165.3	4.6	0.2	0.88	51.61	1.9260	398.3755
15657	1509401657	54.1086	-110.5070	1662.3	1025.0	165.3	4.5	0.2	0.88	51.61	1.9257	397.7270
15658	1509401658	54.1078	-110.5065	1662.6	1024.6	165.2	4.4	0.1	0.88	51.61	1.9249	396.0971
15659	1509401659	54.1071	-110.5062	1663.0	1025.1	165.2	4.3	0.2	0.88	51.61	1.9254	397.6399
15660	1509401660	54.1064	-110.5058	1663.4	1023.4	165.2	4.4	0.1	0.88	51.61	1.9255	398.0921
15661	1509401661	54.1057	-110.5054	1663.6	1023.7	165.2	4.3	0.1	0.88	51.61	1.9265	397.6029
15662	1509401662	54.1050	-110.5050	1663.7	1024.1	165.1	4.2	0.0	0.88	51.61	1.9260	398.5255
15663	1509401663	54.1042	-110.5046	1663.8	1026.2	165.2	4.2	-0.1	0.88	51.61	1.9256	395.3789
15664	1509401664	54.1035	-110.5042	1663.9	1027.0	165.3	4.3	-0.1	0.88	51.61	1.9250	398.3504
15665	1509401665	54.1028	-110.5038	1664.0	1025.7	165.4	4.3	-0.2	0.88	51.61	1.9273	397.7111
15666	1509401666	54.1020	-110.5034	1664.0	1024.0	165.5	4.4	-0.1	0.88	51.61	1.9263	398.6138
15667	1509401667	54.1013	-110.5030	1664.1	1022.2	165.6	4.3	0.1	0.88	51.61	1.9261	397.4778
15668	1509401668	54.1006	-110.5027	1664.2	1021.3	165.6	4.3	0.4	0.88	51.61	1.9264	399.9026
15669	1509401669	54.0999	-110.5023	1664.1	1020.0	165.7	4.3	0.3	0.88	51.61	1.9257	398.5355
15670	1509401670	54.0991	-110.5019	1663.8	1018.9	165.7	4.3	0.2	0.88	51.61	1.9253	398.0447
15671	1509401671	54.0984	-110.5015	1663.5	1018.6	165.7	4.3	0.2	0.88	51.61	1.9264	397.5078
15672	1509401672	54.0977	-110.5011	1663.1	1017.1	165.8	4.4	0.1	0.88	51.61	1.9267	397.2407
15673	1509401673	54.0969	-110.5007	1662.9	1017.0	165.9	4.5	0.1	0.88	51.61	1.9263	397.8798
15674	1509401674	54.0962	-110.5004	1662.5	1016.7	165.8	4.5	0.0	0.88	51.61	1.9254	397.9514
15675	1509401675	54.0955	-110.5000	1662.1	1015.1	165.7	4.5	-0.1	0.88	51.61	1.9256	398.3255
15676	1509401676	54.0947	-110.4996	1661.9	1015.9	165.6	4.5	-0.1	0.88	51.61	1.9254	398.0085
15677	1509401677	54.0940	-110.4992	1661.7	1016.6	165.6	4.4	-0.2	0.88	51.61	1.9268	396.6398
15678	1509401678	54.0933	-110.4988	1661.7	1017.5	165.6	4.5	-0.2	0.88	51.61	1.9270	398.1713
15679	1509401679	54.0926	-110.4984	1661.7	1017.6	165.6	4.5	-0.2	0.88	51.61	1.9260	398.2075
15680	1509401680	54.0918	-110.4981	1661.6	1016.6	165.6	4.5	-0.3	0.88	51.61	1.9246	398.4299
15681	1509401681	54.0911	-110.4977	1661.5	1015.4	165.5	4.5	-0.3	0.88	51.61	1.9275	398.6624
15682	1509401682	54.0904	-110.4973	1661.4	1014.4	165.5	4.5	-0.3	0.88	51.61	1.9245	398.1046
15683	1509401683	54.0897	-110.4969	1661.3	1012.4	165.4	4.4	-0.3	0.88	51.61	1.9246	398.1046
15684	1509401684	54.0889	-110.4965	1661.3	1012.3	165.5	4.5	-0.3	0.88	51.61	1.9270	397.8698
15685	1509401685	54.0882	-110.4961	1661.2	1013.1	165.5	4.5	-0.3	0.88	51.61	1.9254	397.7531
15686	1509401686	54.0874	-110.4957	1661.0	1011.9	165.6	4.4	-0.3	0.88	51.61	1.9255	397.8503
15687	1509401687	54.0867	-110.4953	1660.8	1011.5	165.6	4.4	-0.4	0.88	51.61	1.9257	397.8503
15688	1509401688	54.0860	-110.4949	1660.8	1010.8	165.5	4.5	-0.4	0.88	51.61	1.9259	397.8503
15689	1509401689	54.0852	-110.4946	1660.9	1010.0	165.6	4.6	-0.2	0.88	51.61	1.9261	397.8503
15690	1509401690	54.0845	-110.4942	1661.1	1010.1	165.6	4.5	0.0	0.88	51.61	1.9263	397.8503
15691	1509401691	54.0838	-110.4938	1661.4	1010.4	165.4	4.4	-0.3	0.88	51.61	1.9265	397.8503
15692	1509401692	54.0831	-110.4934	1661.6	1010.6	165.2	4.2	-0.2	0.88	51.61	1.9267	397.8503
15693	1509401693	54.0823	-110.4930	1661.7	1010.7	165.0	4.0	0.1	0.88	51.61	1.9269	397.5094
15694	1509401694	54.0816	-110.4926	1662.0	1011.0	165.1	4.0	0.2	0.88	51.61	1.9261	399.0436
15695	1509401695	54.0814	-110.4925	1662.0	1010.0	165.1	4.1	0.2	0.88	51.61	1.9259	397.8729
15696	1509401696	54.0813	-110.4924	1662.0	1010.0	165.1	4.1	0.2	0.88	51.61	1.9257	398.7106
15697	1509401697	54.0812	-110.4924	1662.0	1010.0	165.1	4.1	0.2	0.88	51.61	1.9271	398.0538
15698	1509401698	54.0812	-110.4924	1662.1	1010.1	165.1	4.1	0.2	0.88	51.61	1.9269	397.6302
15699	1509401699	54.0811	-110.4924	1662.1	1010.1	165.1	4.0	0.1	0.88	51.61	1.9261	398.6121
15700	1509401700	54.0811	-110.4923	1662.1	1010.1	165.1	4.0	0.1	0.88	51.61	1.9251	398.8017
15701	1509401701	54.0810	-110.4923	1662.1	1010.1	165.1	4.0	0.1	0.88	51.61	1.9263	396.8988
15702	1509401702	54.0804	-110.4919	1662.2	1010.2	165.0	4.0	0.2	0.88	51.61	1.9265	397.3242
15703	1509401703	54.0795	-110.4915	1662.3	1010.3	165.0	4.1	0.2	0.88	51.61	1.9257	397.2953
15704	1509401704	54.0787	-110.4910	1662.3	1010.3	164.9	4.1	0.2	0.88	51.61	1.9260	397.9693
15705	1509401705	54.0779	-110.4906	1662.3	1010.3	164.9	4.1	0.2	0.88	51.61	1.9250	399.0642
15706	1509401706	54.0771	-110.4901	1662.4	1010.4	164.8	4.0	0.2	0.88	51.61	1.9248	398.1015
15707	1509401707	54.0762	-110.4897	1662.7	1010.7	164.7	4.0	0.2	0.88	51.61	1.9251	397.4494
15708	1509401708	54.0753	-110.4892	1663.0	1011.0	164.6	4.0	0.2	0.88	51.61	1.9248	397.3865
15709	1509401709	54.0745	-110.4887	1663.1	1010.1	164.6	3.9	0.3	0.88	51.61	1.9247	398.0349
15710	1509401710	54.0736	-110.4883	1663.2	1010.2	164.5	4.0	0.3	0.88	51.61	1.9253	398.9698
15711	1509401711	54.0728	-110.4878	1663.2	1011.2	164.4	3.9	0.3	0.88	51.61	1.9266	397.1788
15712	1509401712	54.0720	-110.4873	1663.0	1011.0	164.4	3.9	0.3	0.88	51.61	1.9247	397.3430
15713	1509401713	54.0711	-110.4869	1662.7	1011.6	164.4	3.9	0.3	0.88	51.61	1.9253	397.3430
15714	1509401714	54.0703	-110.4864	1662.3	1013.7	164.4	3.9	0.3	0.88	51.61	1.9254	398.2650
15715	1509401715	54.0694	-110.4859	1662.0	1015.0	164.4	3.9	0.3	0.88	51.61	1.9267	398.0438
15716	1509401716	54.0686	-110.4854	1661.8	1015.8	164.5	4.0	0.0	0.88	51.61	1.9261	398.0438
15717	1509401717	54.0677	-110.4850	1661.7	1015.7	164.5	4.0	-0.2	0.88	51.61	1.9260	397.6712
15718	1509401718	54.0669	-110.4845	1661.7	1016.7	164.5	4.0	-0.1	0.88	51.61	1.9248	397.9877
15719	1509401719	54.0661	-110.4840	1661.7	1017.5	164.6	4.1	-0.2	0.88	51.61	1.9252	398.7741
15720	1509401720	54.0652	-110.4836	1661.6	1018.6	164.6	4.1	0.0	0.88	51.61	1.9259	389.2523
15721	1509401721	54.0644	-110.4831	1661.3	1019.1	164.5	4.0	0.1	0.88	51.61	1.9257	398.2343
15722	1509401722	54.0635	-110.4826	1661.0	1019.0	164.5	3.9	0.3	0.88	51.61	1.9260	398.0228
15723	1509401723	54.0627	-110.4822	1660.8	1019.9	164.6	4.0	-0.1	0.88	51.61	1.9259	397.9611
15724	1509401724	54.0618	-110.4817	1660.6	1018.6	164.7	4.2	-0.1	0.88	51.61	1.9256	396.7203
15725	1509401725	54.0610	-110.4812	1660.6	1018.6	164.6	4.1	-0.1	0.88	51.61	1.9257	398.6477
15726	1509401726	54.0602	-110.4808	1660.7	1018.7	164.6	4.1	0.0	0.88	51.61	1.9261	398.7441
15727	1509401727	54.0593	-110.4803	1660.6	1018.6	164.6	4.1	-0.1	0.88	51.61	1.9247	397.8632
15728	1509401728	54.0585	-110.4798	1660.5	1017.7	164.5	3.9	0.0	0.88	51.61	1.9256	397.0824
15729	1509401729	54.0576	-110.4794	1660.6	1015.6	164.5	3.8	-0.1	0.88	51.61	1.9251	397.6930
15730	1509401730	54.0568	-110.4789	1660.7	1014.4	164.6	3.8	0.0	0.88	51.61	1.9260	396.3524
15731	1509401731	54.0560	-110.4784	1661.0	1013.1	164.7	3.8	0.6	0.88	51.61	1.9263	396.3662
15732	1509401732	54.0551	-110.4780	1661.5	1013.4	164.8	3.9	0.2	0.88	51.61	1.9258	396.6090
15733	1509401733	54.0543	-110.4775	1662.2	1013.1	164.9	4.0	0.3	0.88	51.61	1.9256	396.8215
15734	1509401734	54.0535	-110.4771	1662.8	1010.4	164.9	4.0	0.4	0.88	51.61	1.9247	398.7183
15735	1509401735	54.0527	-110.4766	1663.4	1007.6	164.8	4.0	0.4	0.88	51.61	1.9248	397.8116
15736	1509401736	54.0518	-110.4762	1663.9	1005.8	164.7	3.9	0.4	0.88	51.61	1.9259	397.0680
15737	1509401737	54.0510	-110.4757	1664.3	1006.3	164.6	3.9	0.4	0.88	51.61	1.9266	398.5179
15738	1509401738	54.0502	-110.4753	1664.6	1007.5	164.7	3.9	0.5	0.88	51.61	1.9257	398.5166
15739	1509401739	54.0493	-110.4748	1664.5	1008.6	164.7	4.0	0.4	0.88	51.61	1.9247	399.1668
15740	1509401740	54.0485	-110.4743	1664.3	1010.4	164.6	4.0	0.3	0.88	51.61	1.9245	398.7558
15741	1509401741	54.0476	-110.4739	1664.0	1011.0	164.6	4.2	0.4	0.88	51.61	1.9247	397.0772
15742	1509401742	54.0468	-110.4734	1663.7	1010.7	164.6	4.2	0.4	0.88	51.61	1.9280	398.2435
15743	1509401743	54.0460	-110.4730	1663.6	1010.6	164.6	4.2	0.2	0.88	51.61	1.9261	397.2895
15744	1509401744	54.0453	-110.4726	1663.4	1010.4	164.4	4.0	0.1	0.88	51.61	1.9264	398.0163
15745	1509401745	54.0445	-110.4721	1663.1	1010.1	164.5	4.1	0.0	0.88	51.61	1.9278	398.1154
15746	1509401746	54.0438	-110.4717	1662.9	1010.9	164.5	4.2	0.0	0.88	51.61	1.9262	398.5059
15747	1509401747	54.0431	-110.4714	1662.8	1011.8	164.5	4.1	-0.1	0.88	51.61	1.9264	398.5059
15748	1509401748	54.0424	-110.4709	1662.7	1012.7	164.5	4.0	-0.1	0.88	51.61	1.9266	398.5059
15749	1509401749	54.0416	-110.4705	1662.5	1013.5	164.6	4.1	-0.1	0.88	51.61	1.9268	398.5059
15750	1509401750	54.0409	-110.4701	1662.4	1013.4	164.8	4.0	0.4	0.88	51.61	1.9247	397.8402
15751	1509401751	54.0402	-110.4697	1662.3	1014.3	164.8	3.9	0.3	0.88	51.61	1.9258	398.2748
15752	1509401752	54.0394	-110.4693	1662.2	1015.2	164.8	3.8	0.2	0.88	51.61	1.9249	398.7784
15753	1509401753	54.0387	-110.4689	1662.0	1016.0	165.0	3.9	0.2	0.88	51.61	1.9269	397.2973
15754	1509401754	54.0380	-110.4685	1661.9	1015.9	165.1	4.0	0.2	0.88	51.61	1.9263	398.6160
15755	1509401755	54.0377	-110.4684	1661.8	1015.8	165.2	4.1	0.2	0.88	51.61	1.9254	398.0301
15756	1509401756	54.0376	-110.4684	1661.8	1015.8	165.2	4.1	0.2	0.88	51.61	1.9254	398.0301
15757	1509401757	54.0375	-110.4683	1661.7	1015.7	165.3	4.2	0.2	0.88	51.61	1.9251	398.9867
15758	1509401758	54.0373	-110.4682	1661.7	1015.7	165.3	4.2	0.3	0.88	51.61	1.9248	397.2672
15759	1509401759	54.0365	-110.4677	1661.2	1015.2	165.3	3.9	0.7	0.88	51.61	1.9262	398.0583
15760	1509401760	54.0356	-110.4673	1660.5	1014.5	165.3	4.0	0.3	0.88	51.61	1.9265	398.8153
15761	1509401761	54.0348	-110.4668	1659.8	1013.8	165.4	4.1	0.0	0.88	51.61	1.9260	397.9276
15762	1509401762	54.0339	-110.4664	1659.3	1013.3	165.3	4.1	-0.1	0.88	51.61	1.9264	398.5003
15763	1509401763	54.0330	-110.4659	1658.9	1012.8	165.2	4.1	-0.1	0.88	51.61	1.9253	398.9791
15764	1509401764	54.0322	-110.4655	1658.9	1013.9	165.0	3.9	-0.1	0.88	51.61	1.9255	398.5387
15765	1509401765	54.0313	-110.4650	1659.1	1014.0	165.0	3.9	-0.1	0.88	51.61	1.9265	398.0867
15766	1509401766	54.0305	-110.4646	1659.2	1015.2	165.0	3.9	-0.1	0.88	51.61	1.9259	396.7288
15767	1509401767	54.0297	-110.4641	1659.3	1015.3	165.0	3.9	-0.2	0.88	51.61	1.9247	398.2794
15768	1509401768	54.0288	-110.4636	1659.7	1016.7	165.0	3.9	0.0	0.88	51.61	1.9256	398.0333
15769	1509401769	54.0280	-110.4632	1659.9	1017.9	164.9	3.9	0.0	0.88	51.61	1.9255	397.6467
15770	1509401770	54.0271	-110.4627	1660.1	1020.1	164.8	3.9	-0.1	0.88	51.61	1.9248	397.6818
15771	1509401771	54.0263	-110.4623	1660.5	1021.5	164.8	3.9	0.0	0.88	51.61	1.9267	398.3984
15772	1509401772	54.0254	-110.4618	1660.9	1022.9	164.7	4.0	0.0	0.88	51.61	1.9260	398.3984
15773	1509401773	54.0246	-110.4614	1661.1	1023.1	164.5	3.9	0.0	0.88	51.61	1.9251	397.7107
15774	1509401774	54.0237	-110.4609	1661.3	1024.0	164.5	3.9	0.1	0.88	51.61	1.9254	397.7107
15775	1509401775	54.0229	-110.4604	1661.6	1024.6	164.4	3.8	0.0	0.88	51.61	1.9254	397.0355
15776	1509401776	54.0221	-110.4600	1661.7	1024.0	164.5	3.9	0.1	0.88	51.61	1.9256	397.1342
15777	1509401777	54.0212	-110.4595	1661.8	1023.8	164.4	3.8	0.0	0.88	51.61	1.9260	398.6830
15778	1509401778	54.0204	-110.4591	1661.8	1023.1	164.4	3.8	0.1	0.88	51.61	1.9268	398.4030
15779	1509401779	54.0197	-110.4587	1661.7	1022.7	164.4	3.8	0.0	0.88	51.61	1.9253	398.0983
15780	1509401780	54.0190	-110.4582	1662.0	1022.0	164.4	3.8	0.0	0.88	51.61	1.9257	397.6606
15781	1509401781	54.0183	-110.4579	1662.3	1022.3	164.3	3.6	0.0	0.88	51.61	1.9262	398.9133
15782	1509401782	54.0175	-110.4574	1662.8	1022.8	164.3	3.7	0.1	0.88	51.61	1.9267	398.8523
15783	1509401783	54.0169	-110.4571	1663.0	1024.0	164.4	3.7	0.1	0.88	51.61	1.9262	398.5643
15784	1509401784	54.0161	-110.4566	1663.3	1025.3	164.4	3.7	0.1	0.88	51.61	1.9246	398.3458
15785	1509401785	54.0154	-110.4563	1663.5	1026.5	164.4	3.7	0.1	0.88	51.61	1.9263	397.4817
15786	1509401786	54.0146	-110.4558	1663.6	1028.6	164.3	3.5	0.1	0.88	51.61	1.9247	397.7043
15787	1509401787	54.0139	-110.4554	1663.6	1031.6	164.4	3.6	0.1	0.88	51.61	1.9251	397.7043
15788	1509401788	54.0131	-110.4550	1663.6	1032.5	164.6	3.7	0.1	0.88	51.61	1.9265	395.9071
15789	1509401789	54.0124	-110.4546	1663.6	1034.6	164.6	3.7	0.1	0.88	51.61	1.9256	395.9071
15790	1509401790	54.0117	-110.4542	1663.8	1035.8	164.5	3.7	0.2	0.88	51.61	1.9265	398.8285
15791	1509401791	54.0109	-110.4538	1663.9	1035.9	164.5	3.6	0.2	0.88	51.61	1.9264	398.2993
15792	1509401792	54.0102	-110.4534	1664.1	1037.0	164.5	3.6	0.3	0.88	51.61	1.9252	396.8653
15793	1509401793	54.0095	-110.4530	1664.2	1036.2	164.7	3.9	0.1	0.88	51.61	1.9272	397.8277
15794	1509401794	54.0088	-110.4526	1664.4	1036.4	164.7	4.0	0.1	0.88	51.61	1.9274	397.1735
15795	1509401795	54.0080	-110.4522	1664.5	1036.5	164.6	3.9	0.2	0.88	51.61	1.9260	398.3987
15796	1509401796	54.0073	-110.4519	1664.6	1036.6	164.5	3.8	0.1	0.88	51.61	1.9246	397.2899
15797	1509401797	54.0066	-110.4514	1664.7	1035.7	164.5	3.8	0.3	0.88	51.61	1.9272	397.9563
15798	1509401798	54.0059	-110.4510	1664.8	1034.8	164.5	3.8	0.1	0.88	51.61	1.9276	397.9371
15799	1509401799	54.0051	-110.4506	1664.8	1034.7	164.4	3.7	-0.1	0.88	51.61	1.9256	397.5702
15800	1509401800	54.0044	-110.4502	1664.8	1033.8	164.4	3.7	0.0	0.88	51.61	1.9263	397.8686
15801	1509401801	54.0037	-110.4499	1664.9	1034.0	164.5	3.7	0.1	0.88	51.61	1.9252	398.0836
15802	1509401802	54.0030	-110.4495	1664.8	1032.8	164.5	3.5	0.2	0.88	51.61	1.9252	398.0986
15803	1509401803	54.0023	-110.4491	1664.6	1032.6	164.5	3.5	0.2	0.88	51.61	1.9248	397.6341
15804	1509401804	54.0015	-110.4487	1664.5	1031.7	164.4	3.3	0.3	0.88	51.61	1.9259	399.3317
15805	1509401805	54.0008	-110.4483	1664.4	1031.4	164.4	3.4	0.3	0.88	51.61	1.9260	397.6505
15806	1509401806	54.0001	-110.4479	1664.2	1031.1	164.5	3.3	0.4	0.88	51.61	1.9263	397.6533
15807	1509401807	53.9994	-110.4475	1663.9	1030.7	164.6	3.4	0.4	0.88	51.61	1.9263	397.7100
15808	1509401808	53.9987	-110.4471	1663.6	1030.6	164.6	3.4	0.5	0.88	51.61	1.9263	397.7668
15809	1509401809	53.9980	-110.4467	1663.2	1029.7	164.6	3.5	0.3	0.88	51.61	1.9263	397.8236
15810	1509401810	53.9972	-110.4463	1662.8	1030.6	164.6	3.5	0.0	0.88	51.61	1.9250	397.8752
15811	1509401811	53.9965	-110.4459	1662.4	1030.3	164.6	3.6	0.1	0.88	51.61	1.9251	398.0511
15812	1509401812	53.9958	-110.4455	1662.0	1031.0	164.6	3.6	0.2	0.88	51.61	1.9269	397.5326
15813	1509401813	53.9951	-110.4452	1661.7	1031.7	164.6	3.7	0.2	0.88	51.61	1.9261	398.4694
15814	1509401814	53.9944	-110.4448	1661.5	1031.5	164.6	3.7	0.3	0.88	51.61	1.9260	398.2362
15815	1509401815	53.9942	-110.4446	1661.4	1032.1	164.6	3.7	0.3	0.88	51.61	1.9267	397.9523
15816	1509401816	53.9941	-110.4446	1661.4	1032.1	164.6	3.7	0.3	0.88	51.61	1.9259	397.5872
15817	1509401817	53.9941	-110.4446	1661.4	1032.1	164.6	3.7	0.3	0.88	51.61	1.9251	399.1058
15818	1509401818	53.9940	-110.4446	1661.3	1032.0	164.6	3.7	0.3	0.88	51.61	1.9259	397.9752
15819	1509401819	53.9940	-110.4445	1661.3	1032.0	164.5	3.7	0.3	0.88	51.61	1.9262	399.0218
15820	1509401820	53.9939	-110.4445	1661.3	1032.0	164.5	3.7	0.3	0.88	51.61	1.9263	398.9365
15821	1509401821	53.9939	-110.4445	1661.3	1032.3	164.5	3.7	0.3	0.88	51.61	1.9250	397.7384
15822	1509401822	53.9934	-110.4442	1661.2	1032.2	164.4	3.9	-0.6	0.88	51.61	1.9246	398.3506
15823	1509401823	53.9926	-110.4438	1661.0	1032.3	164.4	4.0	-0.5	0.88	51.61	1.9240	398.7231
15824	1509401824	53.9917	-110.4433	1660.8	1032.7	164.3	3.9	-0.5	0.88	51.61	1.9251	398.3597
15825	1509401825	53.9909	-110.4428	1660.6	1033.6	164.3	3.9	-0.4	0.88	51.61	1.9252	397.8977
15826	1509401826	53.9901	-110.4424	1660.1	1034.1	164.2	3.9	-0.3	0.88	51.61	1.9247	397.8825
15827	1509401827	53.9893	-110.4419	1659.6	1034.6	164.1	3.8	-0.2	0.88	51.61	1.9260	396.6462
15828	1509401828	53.9884	-110.4414	1659.0	1035.2	164.2	3.9	-0.1	0.88	51.61	1.9246	397.5348
15829	1509401829	53.9876	-110.4410	1658.5	1037.1	164.2	3.8	-0.2	0.88	51.61	1.9243	397.4040
15830	1509401830	53.9868	-110.4405	1657.9	1040.2	164.3	3.8	-0.1	0.88	51.61	1.9253	396.9456
15831	1509401831	53.9860	-110.4401	1657.6	1041.6	164.3	3.9	-0.3	0.88	51.61	1.9260	397.8584
15832	1509401832	53.9852	-110.4396	1657.1	1043.1	164.5	4.1	-0.4	0.88	51.61	1.9258	389.0464
15833	1509401833	53.9843	-110.4391	1656.9	1042.9	164.6	4.2	-0.3	0.88	51.61	1.9255	398.1128
15834	1509401834	53.9835	-110.4387	1656.6	1042.6	164.6	4.1	-0.3	0.88	51.61	1.9262	398.6774
15835	1509401835	53.9827	-110.4382	1656.5	1042.5	164.6	4.1	-0.2	0.88	51.61	1.9277	398.1213
15836	1509401836	53.9819	-110.4378	1656.4	1042.4	164.7	4.1	-0.1	0.88	51.61	1.9265	397.7919
15837	1509401837	53.9811	-110.4373	1656.4	1042.4	164.8	4.0	0.0	0.88	51.61	1.9262	398.1112
15838	1509401838	53.9802	-110.4369	1656.4	1042.4	164.9	4.1	-0.2	0.88	51.61	1.9251	398.4330
15839	1509401839	53.9794	-110.4364	1656.5	1042.5	165.0	4.2	-0.3	0.88	51.61	1.9247	397.1551
15840	1509401840	53.9786	-110.4360	1656.6	1042.6	165.0	4.2	-0.3	0.88	51.61	1.9257	397.8222
15841	1509401841	53.9778	-110.4355	1656.9	1042.9	165.1	4.3	-0.1	0.88	51.61	1.9252	398.0001
15842	1509401842	53.9770	-110.4351	1657.3	1042.3	165.1	4.2	0.1	0.88	51.61	1.9255	397.4390
15843	1509401843	53.9761	-110.4347	1657.7	1041.7	165.0	4.2	0.2	0.88	51.61	1.9255	398.4305
15844	1509401844	53.9753	-110.4342	1658.1	1041.8	165.0	4.2	0.0	0.88	51.61	1.9269	397.1022
15845	1509401845	53.9745	-110.4338	1658.5	1040.5	165.0	4.4	-0.2	0.88	51.61	1.9261	397.1022
15846	1509401846	53.9737	-110.4333	1658.9	1038.9	165.0	4.2	-0.2	0.88	51.61	1.9264	398.6198
15847	1509401847	53.9728	-110.4329	1659.3	1038.3	164.8	4.0	0.1	0.88	51.61	1.9264	397.3561
15848	1509401848	53.9720	-110.4324	1659.5	1037.5	164.7	3.7	0.4	0.88	51.61	1.9269	398.8060
15849	1509401849	53.9713	-110.4320	1659.6	1036.6	164.7	3.8	0.6	0.88	51.61	1.9261	398.8060
15850	1509401850	53.9704	-110.4315	1659.5	1035.5	164.8	3.8	0.6	0.88	51.61	1.9271	398.1526
15851	1509401851	53.9696	-110.4311	1659.4	1035.4	164.8	3.8	0.7	0.88	51.61	1.9276	398.3184
15852	1509401852	53.9688	-110.4306	1659.2	1035.2	164.7	3.7	0.7	0.88	51.61	1.9263	397.9096
15853	1509401853	53.9680	-110.4302	1659.0	1036.0	164.6	3.6	0.7	0.88	51.61	1.9256	399.8364
15854	1509401854	53.9672	-110.4297	1658.8	1034.8	164.6	3.8	0.3	0.88	51.61	1.9257	398.4291
15855	1509401855	53.9664	-110.4293	1658.5	1033.5	164.7	3.8	0.4	0.88	51.61	1.9263	398.0173
15856	1509401856	53.9656	-110.4288	1658.2	1032.2	164.7	3.9	0.4	0.88	51.61	1.9255	398.4097
15857	1509401857	53.9648	-110.4284	1657.7	1031.7	164.7	3.9	0.5	0.88	51.61	1.9256	398.3942
15858	1509401858	53.9640	-110.4280	1657.3	1031.3	164.7	3.8	0.6	0.88	51.61	1.9252	396.8203
15859	1509401859	53.9632	-110.4275	1656.8	1031.8	164.8	3.9	0.6	0.88	51.61	1.9256	397.5941
15860	1509401860	53.9624	-110.4271	1656.5	1031.5	164.8	4.0	0.7	0.88	51.61	1.9258	396.9620
15861	1509401861	53.9616	-110.4266	1656.2	1031.2	164.9	4.1	0.9	0.88	51.61	1.9264	398.9676
15862	1509401862	53.9608	-110.4262	1656.0	1033.6	164.9	4.2	1.0	0.88	51.61	1.9261	397.4989
15863	1509401863	53.9601	-110.4258	1655.8	1035.1	165.0	4.3	0.6	0.88	51.61	1.9261	398.0056
15864	1509401864	53.9594	-110.4255	1655.7	1038.1	165.0	4.4	0.7	0.88	51.61	1.9260	397.4110
15865	1509401865	53.9587	-110.4251	1655.7	1038.7	165.0	4.4	0.7	0.88	51.61	1.9264	397.4110
15866	1509401866	53.9580	-110.4247	1655.8	1036.8	165.0	4.6	0.4	0.88	51.61	1.9267	398.3159
15867	1509401867	53.9574	-110.4243	1655.8	1035.8	164.9	4.7	0.4	0.88	51.61	1.9266	398.0921
15868	1509401868	53.9567	-110.4239	1655.9	1037.1	164.8	4.6	0.4	0.88	51.61	1.9264	397.8683
15869	1509401869	53.9560	-110.4235	1656.1	1038.4	164.7	4.5	0.5	0.88	51.61	1.9263	397.6445
15870	1509401870	53.9553	-110.4231	1656.3	1040.3	164.6	4.6	0.1	0.88	51.61	1.9261	397.4207
15871	1509401871	53.9547	-110.4228	1656.5	1040.5	164.6	4.5	-0.1	0.88	51.61	1.9260	397.1969
15872	1509401872	53.9540	-110.4224	1656.7	1039.0	164.5	4.5	0.0	0.88	51.61	1.9258	396.9731
15873	1509401873	53.9533	-110.4220	1656.9	1039.5	164.6	4.5	0.0	0.88	51.61	1.9257	398.0619
15874	1509401874	53.9526	-110.4216	1657.1	1042.5	164.6	4.4	-0.1	0.88	51.61	1.9256	397.5862
15875	1509401875	53.9524	-110.4215	1657.2	1043.3	164.7	4.5	-0.1	0.88	51.61	1.9264	398.0392
15876	1509401876	53.9523	-110.4214	1657.2	1043.3	164.7	4.5	-0.1	0.88	51.61	1.9252	397.8709
15877	1509401877	53.9523	-110.4214	1657.3	1043.3	164.7	4.5	-0.1	0.88	51.61	1.9256	397.9030
15878	1509401878	53.9522	-110.4214	1657.3	1043.3	164.7	4.5	-0.1	0.88	51.61	1.9259	397.9367
15879	1509401879	53.9522	-110.4214	1657.3	1043.3	164.7	4.5	-0.1	0.88	51.61	1.9265	397.8995
15880	1509401880	53.9521	-110.4213	1657.4	1043.4	164.7	4.5	-0.1	0.88	51.61	1.9264	397.7642
15881	1509401881	53.9521	-110.4213	1657.4	1043.4	164.7	4.5	-0.1	0.88	51.61	1.9260	397.9896
15882	1509401882	53.9516	-110.4211	1657.7	1042.5	164.6	4.3	0.1	0.88	51.61	1.9277	397.7989
15883	1509401883	53.9508	-110.4206	1658.1	1042.4	164.6	4.2	0.5	0.88	51.61	1.9254	398.1372
15884	1509401884	53.9500	-110.4202	1658.6	1045.1	164.5	4.1	0.4	0.88	51.61	1.9245	397.5271
15885	1509401885	53.9492	-110.4197	1659.0	1048.1	164.6	4.2	-0.1	0.88	51.61	1.9254	398.0618
15886	1509401886	53.9485	-110.4193	1659.4	1049.0	164.7	4.1	-0.1	0.88	51.61	1.9264	396.2751
15887	1509401887	53.9477	-110.4188	1659.9	1048.2	164.6	3.7	0.3	0.88	51.61	1.9253	398.0407
15888	1509401888	53.9469	-110.4184	1660.3	1042.1	164.6	3.6	0.2	0.88	51.61	1.9256	397.8219
15889	1509401889	53.9461	-110.4179	1660.7	1046.4	164.7	3.5	0.1	0.88	51.61	1.9260	398.6568
15890	1509401890	53.9453	-110.4175	1660.8	1051.4	164.5	3.1	0.0	0.88	51.61	1.9272	398.6568
15891	1509401891	53.9445	-110.4171	1661.0	1049.0	164.4	2.7	0.3	0.88	51.61	1.9260	398.9052
15892	1509401892	53.9437	-110.4167	1661.2	1039.5	164.4	2.6	0.2	0.88	51.61	1.9271	398.7987
15893	1509401893	53.9429	-110.4162	1661.2	1034.2	164.6	2.7	0.1	0.88	51.61	1.9277	398.5607
15894	1509401894	53.9421	-110.4158	1660.9	1032.9	164.5	2.6	0.0	0.88	51.61	1.9263	399.3259
15895	1509401895	53.9413	-110.4154	1660.4	1032.4	164.6	2.6	-0.1	0.88	51.61	1.9266	397.8425
15896	1509401896	53.9405	-110.4150	1659.7	1033.7	164.7	2.7	-0.2	0.88	51.61	1.9266	397.6181
15897	1509401897	53.9397	-110.4146	1659.0	1034.0	164.8	2.8	-0.2	0.88	51.61	1.9263	396.5954
15898	1509401898	53.9388	-110.4141	1658.4	1033.4	164.7	2.8	-0.3	0.88	51.61	1.9256	397.5510
15899	1509401899	53.9380	-110.4137	1657.9	1031.9	164.6	2.8	-0.4	0.88	51.61	1.9261	397.9046
15900	1509401900	53.9372	-110.4133	1657.5	1031.5	164.7	3.0	-0.3	0.88	51.61	1.9261	398.0239
15901	1509401901	53.9364	-110.4128	1657.1	1031.1	164.6	3.1	-0.3	0.88	51.61	1.9271	398.5115
15902	1509401902	53.9356	-110.4124	1657.0	1030.5	164.6	3.2	-0.2	0.88	51.61	1.9271	398.8449
15903	1509401903	53.9348	-110.4120	1656.9	1028.2	164.5	3.2	-0.2	0.88	51.61	1.9264	397.8658
15904	1509401904	53.9340	-110.4115	1656.7	1025.8	164.4	3.4	-0.4	0.88	51.61	1.9261	397.8658
15905	1509401905	53.9332	-110.4111	1656.5	1023.7	164.5	3.5	-0.6	0.88	51.61	1.9267	397.7805
15906	1509401906	53.9324	-110.4107	1656.4	1023.3	164.5	3.7	-0.4	0.88	51.61	1.9278	398.0160
15907	1509401907	53.9316	-110.4102	1656.1	1023.0	164.3	3.5	-0.4	0.88	51.61	1.9268	398.9376
15908	1509401908	53.9307	-110.4098	1656.0	1024.1	164.3	3.7	-0.3	0.88	51.61	1.9268	398.2910
15909	1509401909	53.9300	-110.4093	1656.1	1023.8	164.1	3.6	-0.3	0.88	51.61	1.9259	396.6092
15910	1509401910	53.9291	-110.4089	1656.3	1022.6	164.0	3.4	-0.2	0.88	51.61	1.9270	399.1888
15911	1509401911	53.9284	-110.4084	1656.4	1022.4	164.1	3.6	-0.1	0.88	51.61	1.9283	397.5456
15912	1509401912	53.9276	-110.4080	1656.5	1022.5	164.4	3.9	0.2	0.88	51.61	1.9281	399.1978
15913	1509401913	53.9268	-110.4075	1656.7	1023.7	164.5	4.0	0.3	0.88	51.61	1.9277	397.7959
15914	1509401914	53.9260	-110.4071	1656.7	1024.7	164.3	3.9	0.4	0.88	51.61	1.9266	399.7540
15915	1509401915	53.9252	-110.4066	1656.6	1025.6	164.3	3.9	0.4	0.88	51.61	1.9261	398.1966
15916	1509401916	53.9244	-110.4062	1656.5	1024.4	164.4	3.9	0.5	0.88	51.61	1.9282	396.9952
15917	1509401917	53.9236	-110.4058	1656.6	1024.6	164.5	3.9	0.4	0.88	51.61	1.9262	397.1282
15918	1509401918	53.9228	-110.4053	1656.7	1023.7	164.6	4.1	0.2	0.88	51.61	1.9270	397.7387
15919	1509401919	53.9220	-110.4049	1657.0	1023.7	164.7	4.1	0.3	0.88	51.61	1.9269	398.8969
15920	1509401920	53.9212	-110.4044	1657.3	1023.0	164.8	4.1	0.5	0.88	51.61	1.9265	398.8969
15921	1509401921	53.9205	-110.4040	1657.8	1021.8	164.9	4.3	0.4	0.88	51.61	1.9263	398.1706
15922	1509401922	53.9197	-110.4036	1658.3	1020.3	164.9	4.4	0.1	0.88	51.61	1.9265	399.0430
15923	1509401923	53.9190	-110.4032	1659.0	1019.0	165.0	4.4	0.3	0.88	51.61	1.9255	398.3386
15924	1509401924	53.9184	-110.4028	1659.5	1018.2	165.0	4.4	0.1	0.88	51.61	1.9252	399.1214
15925	1509401925	53.9177	-110.4025	1660.1	1018.4	165.0	4.4	-0.2	0.88	51.61	1.9261	398.3055
15926	1509401926	53.9170	-110.4021	1660.5	1020.5	165.1	4.4	-0.2	0.88	51.61	1.9254	398.2443
15927	1509401927	53.9164	-110.4017	1660.6	1019.3	165.2	4.5	-0.1	0.88	51.61	1.9254	398.5407
15928	1509401928	53.9157	-110.4013	1660.7	1014.4	165.1	4.4	-0.2	0.88	51.61	1.9254	398.8370
15929	1509401929	53.9150	-110.4010	1660.7	1008.9	165.1	4.3	-0.3	0.88	51.61	1.9254	399.1333
15930	1509401930	53.9143	-110.4006	1660.7	1002.6	165.0	4.1	-0.4	0.88	51.61	1.9258	398.2543
15931	1509401931	53.9137	-110.4002	1660.7	999.7	165.0	3.9	-0.5	0.88	51.61	1.9250	398.1076
15932	1509401932	53.9130	-110.3999	1660.7	998.7	164.9	3.8	-0.6	0.88	51.61	1.9254	398.1076
15933	1509401933	53.9123	-110.3995	1660.7	998.7	165.0	3.7	-0.5	0.88	51.61	1.9266	398.2648
15934	1509401934	53.9116	-110.3991	1660.5	1000.2	165.1	3.6	-0.7	0.88	51.61	1.9252	398.0810
15935	1509401935	53.9114	-110.3990	1660.5	1001.2	165.1	3.6	-0.8	0.88	51.61	1.9252	399.1727
15936	1509401936	53.9113	-110.3990	1660.5	1001.2	165.2	3.7	-0.8	0.88	51.61	1.9264	396.3933
15937	1509401937	53.9112	-110.3989	1660.5	1001.2	165.2	3.7	-0.8	0.88	51.61	1.9266	398.2793
15938	1509401938	53.9110	-110.3988	1660.5	1002.8	165.2	3.5	-0.3	0.88	51.61	1.9255	398.2386
15939	1509401939	53.9102	-110.3984	1660.4	1007.0	164.9	3.0	-0.1	0.88	51.61	1.9252	398.7345
15940	1509401940	53.9094	-110.3980	1660.3	1010.3	164.7	2.7	-0.3	0.88	51.61	1.9261	397.9856
15941	1509401941	53.9086	-110.3976	1660.2	1012.0	164.9	2.6	0.2	0.88	51.61	1.9269	398.2600
15942	1509401942	53.9078	-110.3972	1660.3	1013.3	165.0	2.6	0.1	0.88	51.61	1.9259	397.8814
15943	1509401943	53.9070	-110.3967	1660.5	1014.5	164.9	2.5	0.0	0.88	51.61	1.9257	398.0047
15944	1509401944	53.9062	-110.3963	1660.8	1015.8	164.8	2.2	0.4	0.88	51.61	1.9264	398.0047
15945	1509401945	53.9054	-110.3959	1661.0	1016.7	164.9	2.3	0.5	0.88	51.61	1.9273	397.3535
15946	1509401946	53.9046	-110.3955	1661.0	1017.0	165.1	2.3	0.5	0.88	51.61	1.9267	397.4557
15947	1509401947	53.9038	-110.3951	1660.8	1017.8	165.0	2.4	0.5	0.88	51.61	1.9270	397.8765
15948	1509401948	53.9030	-110.3947	1660.5	1020.5	164.9	2.4	0.2	0.88	51.61	1.9258	397.4886
15949	1509401949	53.9022	-110.3943	1660.2	1022.2	164.9	2.6	0.1	0.88	51.61	1.9259	399.8623
15950	1509401950	53.9014	-110.3939	1659.6	1022.6	165.0	2.7	0.1	0.88	51.61	1.9260	396.0581
15951	1509401951	53.9006	-110.3935	1659.0	1021.8	165.0	2.8	0.1	0.88	51.61	1.9268	398.1800
15952	1509401952	53.8998	-110.3931	1658.4	1022.3	165.0	2.9	0.3	0.88	51.61	1.9264	398.9210
15953	1509401953	53.8990	-110.3926	1657.7	1022.7	165.0	3.0	0.1	0.88	51.61	1.9259	399.6006
15954	1509401954	53.8982	-110.3922	1656.9	1022.1	164.9	3.2	-0.1	0.88	51.61	1.9269	397.4248
15955	1509401955	53.8974	-110.3918	1656.2	1022.2	165.0	3.4	0.0	0.88	51.61	1.9258	397.0818
15956	1509401956	53.8966	-110.3914	1655.8	1022.8	164.9	3.6	0.1	0.88	51.61	1.9266	398.2667
15957	1509401957	53.8959	-110.3910	1655.5	1022.5	165.0	3.8	0.3	0.88	51.61	1.9275	398.6122
15958	1509401958	53.8952	-110.3906	1655.4	1023.5	165.1	4.2	0.5	0.88	51.61	1.9271	398.0097
15959	1509401959	53.8945	-110.3903	1655.4	1024.1	165.0	4.2	0.7	0.88	51.61	1.9264	398.3701
15960	1509401960	53.8939	-110.3899	1655.4	1025.5	165.0	4.4	0.8	0.88	51.61	1.9254	398.3701
15961	1509401961	53.8932	-110.3895	1655.5	1025.4	164.9	4.4	0.9	0.88	51.61	1.9253	398.4673
15962	1509401962	53.8925	-110.3891	1655.7	1025.9	164.9	4.6	1.1	0.88	51.61	1.9254	397.6819
15963	1509401963	53.8919	-110.3888	1656.0	1026.0	164.8	4.5	1.2	0.88	51.61	1.9259	398.3556
15964	1509401964	53.8912	-110.3884	1656.6	1025.5	164.7	4.4	1.4	0.88	51.61	1.9252	398.5939
15965	1509401965	53.8905	-110.3880	1657.4	1025.4	164.7	4.5	1.5	0.88	51.61	1.9258	398.3503
15966	1509401966	53.8898	-110.3876	1658.4	1025.4	164.8	4.6	1.8	0.88	51.61	1.9239	398.6035
15967	1509401967	53.8892	-110.3872	1659.5	1025.5	164.8	4.4	2.0	0.88	51.61	1.9251	398.2784
15968	1509401968	53.8885	-110.3868	1660.8	1025.7	164.8	4.4	2.2	0.88	51.61	1.9258	397.7091
15969	1509401969	53.8878	-110.3864	1662.0	1026.3	164.8	4.5	2.0	0.88	51.61	1.9249	396.8630
15970	1509401970	53.8872	-110.3861	1663.1	1025.7	164.8	4.4	2.3	0.88	51.61	1.9248	398.7449
15971	1509401971	53.8865	-110.3857	1664.0	1026.3	164.9	4.4	2.2	0.88	51.61	1.9261	398.1803
15972	1509401972	53.8859	-110.3853	1664.9	1028.2	164.8	4.3	2.1	0.88	51.61	1.9263	397.6186
15973	1509401973	53.8852	-110.3849	1665.4	1030.9	164.9	4.3	2.1	0.88	51.61	1.9245	399.1612
15974	1509401974	53.8846	-110.3846	1665.9	1032.9	165.0	4.2	2.1	0.88	51.61	1.9260	397.4011
15975	1509401975	53.8839	-110.3842	1666.3	1034.0	164.9	4.1	2.1	0.88	51.61	1.9256	397.2961
15976	1509401976	53.8832	-110.3838	1666.7	1036.4	164.9	3.9	2.0	0.88	51.61	1.9257	397.6698
15977	1509401977	53.8826	-110.3835	1666.9	1037.9	165.0	3.8	2.0	0.88	51.61	1.9256	397.2397
15978	1509401978	53.8819	-110.3831	1666.9	1039.0	165.1	3.9	2.0	0.88	51.61	1.9251	397.8761
15979	1509401979	53.8813	-110.3827	1666.7	1037.4	165.2	3.9	1.9	0.88	51.61	1.9254	398.8701
15980	1509401980	53.8806	-110.3824	1666.2	1035.3	165.3	4.0	1.8	0.88	51.61	1.9249	397.7509
15981	1509401981	53.8799	-110.3820	1665.5	1031.8	165.2	3.8	1.7	0.88	51.61	1.9248	396.5284
15982	1509401982	53.8793	-110.3816	1664.8	1028.6	165.2	3.9	1.6	0.88	51.61	1.9251	398.7584
15983	1509401983	53.8786	-110.3813	1664.2	1026.2	165.2	3.9	1.8	0.88	51.61	1.9262	397.8525
15984	1509401984	53.8780	-110.3809	1663.7	1024.4	165.2	3.9	1.9	0.88	51.61	1.9258	398.1091
15985	1509401985	53.8773	-110.3806	1663.2	1021.2	165.2	3.9	1.8	0.88	51.61	1.9253	397.8495
15986	1509401986	53.8766	-110.3802	1662.4	1020.0	165.0	3.9	1.7	0.88	51.61	1.9250	397.9094
15987	1509401987	53.8760	-110.3798	1661.6	1019.1	165.0	4.0	1.6	0.88	51.61	1.9252	397.9246
15988	1509401988	53.8753	-110.3795	1660.7	1018.7	164.9	3.9	1.6	0.88	51.61	1.9253	397.9246
15989	1509401989	53.8746	-110.3791	1659.6	1016.8	164.9	3.8	1.8	0.88	51.61	1.9255	397.9246
15990	1509401990	53.8739	-110.3787	1658.6	1016.6	164.9	3.8	1.8	0.88	51.61	1.9256	397.9246
15991	1509401991	53.8733	-110.3783	1657.5	1016.8	165.0	3.9	1.7	0.88	51.61	1.9258	397.9246
15992	1509401992	53.8726	-110.3780	1656.4	1016.8	165.0	3.9	1.6	0.88	51.61	1.9260	397.9246
15993	1509401993	53.8719	-110.3776	1655.2	1018.1	164.9	3.9	1.6	0.88	51.61	1.9261	397.5971
15994	1509401994	53.8713	-110.3772	1654.3	1018.4	164.9	3.7	2.0	0.88	51.61	1.9250	398.0906
15995	1509401995	53.8710	-110.3771	1654.1	1018.5	164.9	3.7	2.0	0.88	51.61	1.9259	398.5769
15996	1509401996	53.8710	-110.3771	1654.0	1018.4	164.9	3.7	2.0	0.88	51.61	1.9253	398.6997
15997	1509401997	53.8710	-110.3771	1654.0	1018.4	164.9	3.7	2.0	0.88	51.61	1.9252	398.2196
15998	1509401998	53.8709	-110.3770	1653.9	1018.3	164.9	3.7	2.0	0.88	51.61	1.9249	397.9303
15999	1509401999	53.8709	-110.3770	1653.9	1018.3	164.9	3.7	2.0	0.88	51.61	1.9270	398.9625
16000	1509402000	53.8708	-110.3770	1653.9	1018.8	165.0	3.7	2.0	0.88	51.61	1.9250	398.0363
16001	1509402001	53.8708	-110.3770	1653.8	1018.8	165.0	3.7	2.0	0.88	51.61	1.9261	399.2956
16002	1509402002	53.8702	-110.3767	1653.4	1019.7	165.1	3.9	1.5	0.88	51.61	1.9242	399.2956
16003	1509402003	53.8694	-110.3762	1653.2	1020.2	165.2	4.2	1.1	0.88	51.61	1.9255	395.4214
16004	1509402004	53.8687	-110.3758	1653.3	1022.3	165.3	4.1	1.3	0.88	51.61	1.9249	398.6036
16005	1509402005	53.8679	-110.3754	1653.6	1024.6	165.4	4.1	1.4	0.88	51.61	1.9261	398.4625
16006	1509402006	53.8671	-110.3750	1653.7	1027.7	165.5	4.2	1.5	0.88	51.61	1.9258	398.4625
16007	1509402007	53.8663	-110.3745	1653.9	1029.9	165.3	4.1	1.1	0.88	51.61	1.9253	398.8718
16008	1509402008	53.8655	-110.3741	1654.3	1032.3	165.6	4.3	1.3	0.88	51.61	1.9257	397.7107
16009	1509402009	53.8648	-110.3737	1654.8	1034.5	165.7	4.4	1.4	0.88	51.61	1.9250	397.6297
16010	1509402010	53.8640	-110.3733	1655.3	1036.4	165.6	4.5	1.0	0.88	51.61	1.9259	397.1446
16011	1509402011	53.8632	-110.3728	1656.0	1038.0	165.5	4.3	1.1	0.88	51.61	1.9263	397.8719
16012	1509402012	53.8624	-110.3724	1656.7	1040.3	165.5	4.3	1.2	0.88	51.61	1.9257	397.6599
16013	1509402013	53.8617	-110.3720	1657.4	1044.1	165.8	4.4	1.4	0.88	51.61	1.9252	397.3941
16014	1509402014	53.8609	-110.3716	1658.2	1046.6	165.7	4.4	1.4	0.88	51.61	1.9265	397.6535
16015	1509402015	53.8601	-110.3712	1659.2	1051.5	165.6	4.3	1.4	0.88	51.61	1.9253	397.2835
16016	1509402016	53.8593	-110.3708	1659.9	1055.4	165.8	4.5	1.6	0.88	51.61	1.9265	397.2211
16017	1509402017	53.8586	-110.3704	1660.4	1057.8	165.7	4.3	2.0	0.88	51.61	1.9267	398.0648
16018	1509402018	53.8578	-110.3699	1660.8	1059.8	165.6	4.2	1.8	0.88	51.61	1.9249	397.9287
16019	1509402019	53.8571	-110.3695	1660.9	1059.9	165.4	4.1	1.5	0.88	51.61	1.9261	397.4180
16020	1509402020	53.8563	-110.3691	1661.2	1060.1	165.5	4.2	1.5	0.88	51.61	1.9250	397.4180
16021	1509402021	53.8555	-110.3687	1661.6	1059.6	165.6	4.2	1.6	0.88	51.61	1.9263	398.1832
16022	1509402022	53.8548	-110.3683	1662.0	1058.3	165.5	4.0	1.6	0.88	51.61	1.9242	398.2936
16023	1509402023	53.8540	-110.3678	1662.3	1057.4	165.5	4.0	2.0	0.88	51.61	1.9245	397.5523
16024	1509402024	53.8532	-110.3674	1662.6	1055.6	165.7	4.3	2.0	0.88	51.61	1.9250	397.9711
16025	1509402025	53.8524	-110.3670	1662.7	1054.0	165.5	4.1	2.0	0.88	51.61	1.9250	399.0467
16026	1509402026	53.8517	-110.3666	1662.7	1053.5	165.3	3.9	2.2	0.88	51.61	1.9255	399.4553
16027	1509402027	53.8509	-110.3662	1662.4	1053.5	165.5	4.0	2.2	0.88	51.61	1.9264	398.7179
16028	1509402028	53.8502	-110.3658	1662.4	1052.9	165.4	4.0	2.1	0.88	51.61	1.9250	398.1905
16029	1509402029	53.8494	-110.3653	1662.5	1053.8	165.6	4.2	2.1	0.88	51.61	1.9243	398.1713
16030	1509402030	53.8486	-110.3649	1662.7	1054.2	165.3	3.9	2.4	0.88	51.61	1.9246	397.4034
16031	1509402031	53.8478	-110.3645	1662.7	1054.7	165.1	3.8	1.7	0.88	51.61	1.9252	398.7927
16032	1509402032	53.8470	-110.3641	1662.8	1055.1	165.5	4.2	1.3	0.88	51.61	1.9258	398.6527
16033	1509402033	53.8462	-110.3636	1662.8	1056.8	165.2	3.9	1.2	0.88	51.61	1.9247	398.6527
16034	1509402034	53.8455	-110.3632	1662.7	1058.7	165.1	3.7	1.5	0.88	51.61	1.9252	397.9001
16035	1509402035	53.8447	-110.3628	1662.5	1061.5	165.2	3.8	1.4	0.88	51.61	1.9248	397.7551
16036	1509402036	53.8439	-110.3624	1662.1	1065.1	165.3	3.8	1.3	0.88	51.61	1.9249	397.7343
16037	1509402037	53.8431	-110.3619	1661.7	1068.9	165.3	3.9	1.2	0.88	51.61	1.9254	398.3816
16038	1509402038	53.8423	-110.3615	1660.9	1079.0	165.2	3.8	1.1	0.88	51.61	1.9249	398.2155
16039	1509402039	53.8415	-110.3611	1660.0	1082.9	165.4	4.0	1.2	0.88	51.61	1.9263	397.3612
16040	1509402040	53.8407	-110.3607	1659.2	1083.9	165.4	3.9	1.4	0.88	51.61	1.9258	395.7078
16041	1509402041	53.8400	-110.3603	1658.5	1083.5	165.4	3.9	1.3	0.88	51.61	1.9261	398.2334
16042	1509402042	53.8393	-110.3599	1658.0	1083.0	165.5	3.9	1.3	0.88	51.61	1.9258	397.6935
16043	1509402043	53.8386	-110.3595	1657.5	1083.5	165.4	3.9	1.2	0.88	51.61	1.9266	398.5819
16044	1509402044	53.8379	-110.3592	1657.1	1083.1	165.3	3.8	1.1	0.88	51.61	1.9264	399.2356
16045	1509402045	53.8372	-110.3588	1656.9	1082.9	165.3	3.8	1.2	0.88	51.61	1.9260	397.4442
16046	1509402046	53.8366	-110.3584	1656.8	1080.9	165.4	3.9	1.2	0.88	51.61	1.9258	397.3882
16047	1509402047	53.8359	-110.3581	1656.8	1077.5	165.5	4.0	0.7	0.88	51.61	1.9259	397.3882
16048	1509402048	53.8352	-110.3577	1656.7	1070.3	165.6	4.0	0.7	0.88	51.61	1.9260	397.3882
16049	1509402049	53.8345	-110.3574	1656.6	1066.6	165.5	4.1	0.7	0.88	51.61	1.9261	397.3882
16050	1509402050	53.8339	-110.3570	1656.4	1062.4	165.5	4.1	0.7	0.88	51.61	1.9262	397.3882
16051	1509402051	53.8332	-110.3566	1656.1	1061.1	165.5	4.2	0.7	0.88	51.61	1.9262	397.3882
16052	1509402052	53.8325	-110.3563	1656.2	1061.2	165.5	4.2	0.6	0.88	51.61	1.9263	397.3882
16053	1509402053	53.8318	-110.3559	1656.4	1061.4	165.5	4.3	0.7	0.88	51.61	1.9264	397.9065
16054	1509402054	53.8311	-110.3555	1656.7	1062.7	165.5	4.5	0.3	0.88	51.61	1.9259	398.6023
16055	1509402055	53.8309	-110.3554	1656.8	1062.8	165.5	4.4	0.2	0.88	51.61	1.9269	396.9425
16056	1509402056	53.8309	-110.3554	1656.8	1062.8	165.5	4.4	0.2	0.88	51.61	1.9267	398.5358
16057	1509402057	53.8308	-110.3554	1656.9	1062.9	165.5	4.4	0.2	0.88	51.61	1.9253	397.7774
16058	1509402058	53.8308	-110.3554	1656.9	1062.8	165.5	4.4	0.2	0.88	51.61	1.9259	397.5442
16059	1509402059	53.8307	-110.3553	1656.9	1062.9	165.4	4.4	0.2	0.88	51.61	1.9251	397.6250
16060	1509402060	53.8307	-110.3553	1657.0	1062.9	165.4	4.3	0.1	0.88	51.61	1.9260	397.1683
16061	1509402061	53.8306	-110.3553	1657.0	1063.8	165.4	4.3	0.1	0.88	51.61	1.9257	397.9866
16062	1509402062	53.8300	-110.3549	1657.3	1064.3	165.4	4.2	0.7	0.88	51.61	1.9248	397.9866
16063	1509402063	53.8293	-110.3545	1657.7	1065.7	165.4	4.4	0.3	0.88	51.61	1.9250	398.9022
16064	1509402064	53.8285	-110.3541	1658.4	1067.7	165.5	4.5	0.3	0.88	51.61	1.9257	398.3314
16065	1509402065	53.8277	-110.3537	1659.0	1073.4	165.5	4.6	0.4	0.88	51.61	1.9269	396.4073
16066	1509402066	53.8269	-110.3533	1660.0	1080.4	165.3	4.3	0.3	0.88	51.61	1.9262	397.9319
16067	1509402067	53.8261	-110.3528	1661.0	1085.0	165.2	4.2	0.4	0.88	51.61	1.9259	398.6417
16068	1509402068	53.8253	-110.3524	1661.8	1087.8	165.3	4.2	0.4	0.88	51.61	1.9264	398.1256
16069	1509402069	53.8245	-110.3520	1662.3	1089.3	165.2	4.1	0.4	0.88	51.61	1.9251	397.5030
16070	1509402070	53.8237	-110.3516	1662.7	1089.7	165.1	4.0	0.3	0.88	51.61	1.9256	398.0414
16071	1509402071	53.8229	-110.3511	1663.1	1090.1	165.1	3.9	0.4	0.88	51.61	1.9254	398.6074
16072	1509402072	53.8221	-110.3507	1663.3	1090.3	165.1	3.9	0.4	0.88	51.61	1.9253	398.8701
16073	1509402073	53.8214	-110.3503	1663.3	1089.6	165.2	3.9	1.0	0.88	51.61	1.9253	397.4523
16074	1509402074	53.8206	-110.3498	1663.0	1089.0	165.1	3.7	1.4	0.88	51.61	1.9262	399.2027
16075	1509402075	53.8198	-110.3494	1661.9	1088.9	164.9	3.4	1.7	0.88	51.61	1.9269	397.9757
16076	1509402076	53.8190	-110.3490	1659.7	1088.4	164.9	3.3	1.8	0.88	51.61	1.9260	397.9757
16077	1509402077	53.8182	-110.3485	1656.2	1084.9	165.0	3.3	1.9	0.88	51.61	1.9262	398.2791
16078	1509402078	53.8174	-110.3481	1652.3	1081.3	164.9	3.2	1.9	0.88	51.61	1.9262	398.2791
16079	1509402079	53.8166	-110.3477	1648.4	1077.4	165.0	3.6	1.5	0.88	51.61	1.9263	397.3459
16080	1509402080	53.8158	-110.3473	1644.8	1073.8	164.9	3.5	1.7	0.88	51.61	1.9266	398.0201
16081	1509402081	53.8150	-110.3468	1641.7	1070.7	164.9	3.8	1.4	0.88	51.61	1.9257	397.9458
16082	1509402082	53.8142	-110.3464	1639.1	1065.6	164.9	3.8	1.6	0.88	51.61	1.9254	398.9126
16083	1509402083	53.8134	-110.3459	1636.4	1057.7	164.9	3.8	1.8	0.88	51.61	1.9256	397.9788
16084	1509402084	53.8125	-110.3455	1633.7	1050.3	165.0	4.0	1.7	0.88	51.61	1.9255	397.1972
16085	1509402085	53.8117	-110.3450	1630.3	1044.8	165.0	4.0	1.7	0.88	51.61	1.9258	399.0308
16086	1509402086	53.8109	-110.3446	1625.2	1037.0	165.0	4.1	1.6	0.88	51.61	1.9252	398.7656
16087	1509402087	53.8101	-110.3441	1619.8	1025.8	164.9	4.1	1.5	0.88	51.61	1.9256	399.4783
16088	1509402088	53.8092	-110.3437	1615.1	1017.1	164.8	4.1	1.5	0.88	51.61	1.9262	399.2933
16089	1509402089	53.8084	-110.3432	1610.8	1010.8	164.7	4.0	1.6	0.88	51.61	1.9250	399.5164
16090	1509402090	53.8076	-110.3427	1607.2	1006.4	165.0	4.2	1.8	0.88	51.61	1.9268	397.6170
16091	1509402091	53.8068	-110.3423	1603.7	1002.7	165.1	4.1	2.0	0.88	51.61	1.9255	397.6170
16092	1509402092	53.8059	-110.3418	1600.2	997.1	165.3	4.3	1.9	0.88	51.61	1.9257	398.0372
16093	1509402093	53.8051	-110.3414	1596.9	990.5	165.1	4.0	2.1	0.88	51.61	1.9262	398.3170
16094	1509402094	53.8043	-110.3409	1593.3	985.2	165.2	4.0	2.5	0.88	51.61	1.9266	397.9333
16095	1509402095	53.8035	-110.3405	1590.2	982.5	166.1	5.2	2.8	0.88	51.61	1.9258	398.1516
16096	1509402096	53.8027	-110.3401	1587.3	979.2	166.0	5.0	2.5	0.88	51.61	1.9250	398.4031
16097	1509402097	53.8019	-110.3396	1583.9	972.6	165.8	4.9	2.4	0.88	51.61	1.9257	398.4291
16098	1509402098	53.8011	-110.3392	1580.3	966.0	165.5	4.6	2.6	0.88	51.61	1.9251	399.0991
16099	1509402099	53.8003	-110.3387	1576.5	956.5	165.8	4.7	2.7	0.88	51.61	1.9250	397.2754
16100	1509402100	53.7995	-110.3383	1572.9	949.2	166.3	5.2	2.9	0.88	51.61	1.9250	398.2522
16101	1509402101	53.7988	-110.3379	1569.6	944.6	165.9	4.9	2.6	0.88	51.61	1.9258	397.0942
16102	1509402102	53.7981	-110.3376	1566.3	940.6	165.4	4.5	2.8	0.88	51.61	1.9253	398.7372
16103	1509402103	53.7975	-110.3372	1563.2	935.5	165.8	4.8	3.3	0.88	51.61	1.9250	398.7372
16104	1509402104	53.7968	-110.3368	1560.2	931.0	165.8	4.6	3.3	0.88	51.61	1.9265	397.8223
16105	1509402105	53.7961	-110.3364	1557.2	926.9	165.8	4.8	3.1	0.88	51.61	1.9260	397.8223
16106	1509402106	53.7954	-110.3361	1554.1	923.4	165.8	4.9	3.3	0.88	51.61	1.9259	397.4777
16107	1509402107	53.7947	-110.3357	1551.2	920.8	165.9	5.2	3.6	0.88	51.61	1.9259	397.4777
16108	1509402108	53.7941	-110.3353	1548.3	919.0	165.6	4.9	3.6	0.88	51.61	1.9266	397.4257
16109	1509402109	53.7934	-110.3349	1545.5	916.4	165.5	5.0	3.8	0.88	51.61	1.9256	398.7961
16110	1509402110	53.7927	-110.3345	1542.7	914.7	165.4	5.0	3.9	0.88	51.61	1.9255	398.7772
16111	1509402111	53.7920	-110.3341	1539.8	912.8	165.3	5.0	4.1	0.88	51.61	1.9253	398.5705
16112	1509402112	53.7914	-110.3338	1536.8	912.8	165.1	5.0	4.2	0.88	51.61	1.9255	398.6642
16113	1509402113	53.7907	-110.3334	1533.7	912.3	164.9	5.0	3.9	0.88	51.61	1.9251	398.8194
16114	1509402114	53.7900	-110.3330	1530.9	914.3	164.9	5.0	4.4	0.88	51.61	1.9247	402.6203
16115	1509402115	53.7898	-110.3328	1529.7	914.3	164.9	5.0	4.6	0.88	51.61	1.9241	405.1761
16116	1509402116	53.7896	-110.3327	1529.0	916.4	164.9	5.1	4.7	0.88	51.61	1.9232	399.0464
16117	1509402117	53.7890	-110.3323	1526.7	918.0	164.9	5.1	4.8	0.88	51.61	1.9244	397.6175
16118	1509402118	53.7883	-110.3319	1523.8	919.6	164.8	5.0	5.1	0.88	51.61	1.9227	398.1945
16119	1509402119	53.7875	-110.3314	1520.8	916.8	164.5	4.9	4.9	0.88	51.61	1.9248	398.3555
16120	1509402120	53.7867	-110.3309	1517.6	913.6	164.4	4.9	4.9	0.88	51.61	1.9237	398.4401
16121	1509402121	53.7860	-110.3305	1514.2	910.2	164.5	5.0	5.0	0.88	51.61	1.9245	399.5057
16122	1509402122	53.7852	-110.3300	1510.9	907.9	164.4	4.9	5.1	0.88	51.61	1.9240	398.3731
16123	1509402123	53.7844	-110.3295	1507.6	904.6	164.2	4.8	5.0	0.88	51.61	1.9239	399.1998
16124	1509402124	53.7837	-110.3291	1504.3	901.6	164.0	4.8	4.8	0.88	51.61	1.9247	397.2505
16125	1509402125	53.7829	-110.3286	1500.8	899.8	163.8	4.6	4.9	0.88	51.61	1.9250	398.6059
16126	1509402126	53.7822	-110.3281	1497.4	894.4	163.7	4.5	4.9	0.88	51.61	1.9251	397.9167
16127	1509402127	53.7816	-110.3277	1494.3	890.4	163.8	4.5	5.0	0.88	51.61	1.9230	397.7220
16128	1509402128	53.7809	-110.3273	1491.2	887.0	164.0	4.6	5.1	0.88	51.61	1.9244	398.7734
16129	1509402129	53.7803	-110.3269	1488.1	884.0	164.1	4.7	5.0	0.88	51.61	1.9246	397.2408
16130	1509402130	53.7796	-110.3265	1485.0	881.0	164.2	4.8	4.6	0.88	51.61	1.9251	397.2209
16131	1509402131	53.7790	-110.3261	1481.7	876.2	164.3	4.8	4.7	0.88	51.61	1.9248	399.2259
16132	1509402132	53.7783	-110.3257	1478.5	869.8	164.4	4.8	4.7	0.88	51.61	1.9251	398.2861
16133	1509402133	53.7777	-110.3253	1475.2	865.2	164.6	4.9	4.8	0.88	51.61	1.9253	398.2125
16134	1509402134	53.7770	-110.3249	1472.1	861.1	164.9	5.3	4.9	0.88	51.61	1.9236	398.0722
16135	1509402135	53.7764	-110.3245	1468.8	852.8	164.9	5.1	4.8	0.88	51.61	1.9240	398.4770
16136	1509402136	53.7757	-110.3241	1465.7	845.3	164.9	4.9	4.8	0.88	51.61	1.9253	397.9592
16137	1509402137	53.7751	-110.3237	1462.6	838.2	165.2	5.0	5.4	0.88	51.61	1.9249	397.8175
16138	1509402138	53.7745	-110.3234	1459.6	831.9	165.3	5.2	5.0	0.88	51.61	1.9235	397.4953
16139	1509402139	53.7738	-110.3230	1456.6	825.6	165.5	5.3	5.1	0.88	51.61	1.9236	399.0722
16140	1509402140	53.7732	-110.3226	1453.3	820.9	165.4	5.1	5.0	0.88	51.61	1.9243	398.5250
16141	1509402141	53.7725	-110.3222	1449.8	815.1	165.4	5.0	4.9	0.88	51.61	1.9244	399.0398
16142	1509402142	53.7718	-110.3218	1446.5	810.4	165.4	4.9	4.9	0.88	51.61	1.9242	395.7427
16143	1509402143	53.7712	-110.3215	1443.4	805.4	165.7	5.1	5.0	0.88	51.61	1.9231	398.0898
16144	1509402144	53.7706	-110.3211	1440.1	803.1	165.9	5.1	5.1	0.88	51.61	1.9255	399.6918
16145	1509402145	53.7699	-110.3207	1436.8	801.7	166.1	5.2	5.1	0.88	51.61	1.9248	397.5954
16146	1509402146	53.7693	-110.3203	1433.3	800.7	166.0	5.0	5.0	0.88	51.61	1.9237	397.7194
16147	1509402147	53.7686	-110.3200	1429.8	799.8	166.1	5.0	5.0	0.88	51.61	1.9245	398.9474
16148	1509402148	53.7680	-110.3196	1426.6	798.6	166.3	5.2	5.1	0.88	51.61	1.9238	398.3796
16149	1509402149	53.7673	-110.3192	1423.4	796.6	166.6	5.3	5.2	0.88	51.61	1.9257	399.7074
16150	1509402150	53.7667	-110.3189	1420.4	795.4	166.6	5.2	5.2	0.88	51.61	1.9243	399.7074
16151	1509402151	53.7660	-110.3185	1417.4	792.1	166.4	5.0	4.9	0.88	51.61	1.9251	398.5254
16152	1509402152	53.7654	-110.3182	1414.3	787.3	166.6	5.2	4.9	0.88	51.61	1.9235	398.5069
16153	1509402153	53.7647	-110.3178	1411.0	782.0	166.8	5.4	5.0	0.88	51.61	1.9251	397.6247
16154	1509402154	53.7641	-110.3175	1407.5	777.2	167.0	5.4	5.0	0.88	51.61	1.9252	397.7351
16155	1509402155	53.7634	-110.3171	1404.1	774.1	167.0	5.4	5.0	0.88	51.61	1.9254	398.7622
16156	1509402156	53.7628	-110.3168	1400.9	772.9	167.0	5.5	4.8	0.88	51.61	1.9242	398.4658
16157	1509402157	53.7621	-110.3164	1397.7	771.7	167.3	5.9	4.7	0.88	51.61	1.9241	397.3280
16158	1509402158	53.7615	-110.3160	1394.5	770.6	167.2	5.7	4.7	0.88	51.61	1.9247	398.7789
16159	1509402159	53.7609	-110.3157	1391.3	769.6	167.1	5.7	4.7	0.88	51.61	1.9256	399.1277
16160	1509402160	53.7602	-110.3153	1387.8	769.1	167.2	5.9	4.7	0.88	51.61	1.9253	396.9446
16161	1509402161	53.7595	-110.3150	1384.6	770.2	167.4	6.0	4.8	0.88	51.61	1.9252	399.1767
16162	1509402162	53.7589	-110.3146	1381.5	770.4	167.5	6.1	4.7	0.88	51.61	1.9255	398.8752
16163	1509402163	53.7583	-110.3143	1378.5	770.6	167.6	6.2	4.4	0.88	51.61	1.9254	398.0202
16164	1509402164	53.7576	-110.3139	1375.4	768.4	167.5	6.2	4.5	0.88	51.61	1.9252	398.0202
16165	1509402165	53.7570	-110.3136	1372.2	765.9	167.6	6.3	4.5	0.88	51.61	1.9254	398.4998
16166	1509402166	53.7563	-110.3132	1368.9	763.1	167.6	6.2	4.6	0.88	51.61	1.9266	398.7670
16167	1509402167	53.7557	-110.3129	1365.6	761.1	167.6	6.2	4.6	0.88	51.61	1.9265	398.7670
16168	1509402168	53.7550	-110.3125	1362.3	757.8	167.8	6.4	4.6	0.88	51.61	1.9263	398.7670
16169	1509402169	53.7544	-110.3122	1359.1	751.8	167.8	6.4	4.5	0.88	51.61	1.9262	398.7670
16170	1509402170	53.7537	-110.3119	1356.0	747.3	167.7	6.5	4.1	0.88	51.61	1.9262	398.9932
16171	1509402171	53.7531	-110.3115	1352.9	743.5	167.8	6.6	4.1	0.88	51.61	1.9264	398.4503
16172	1509402172	53.7525	-110.3112	1349.8	742.0	167.7	6.4	4.0	0.88	51.61	1.9256	397.7885
16173	1509402173	53.7518	-110.3108	1346.6	740.0	167.8	6.6	4.1	0.88	51.61	1.9272	396.1494
16174	1509402174	53.7512	-110.3105	1343.6	738.6	168.0	6.8	4.1	0.88	51.61	1.9271	401.6253
16175	1509402175	53.7510	-110.3104	1342.7	738.6	167.9	6.8	4.1	0.88	51.61	1.9272	398.4309
16176	1509402176	53.7509	-110.3103	1342.5	738.5	167.9	6.7	4.1	0.88	51.61	1.9266	397.8028
16177	1509402177	53.7509	-110.3103	1342.3	738.3	167.8	6.7	4.1	0.88	51.61	1.9267	398.0677
16178	1509402178	53.7508	-110.3103	1342.1	738.1	167.8	6.6	4.1	0.88	51.61	1.9268	395.9603
16179	1509402179	53.7508	-110.3103	1341.9	738.1	167.8	6.7	3.5	0.88	51.61	1.9254	398.3248
16180	1509402180	53.7507	-110.3102	1341.7	737.9	167.7	6.7	3.5	0.88	51.61	1.9284	398.8315
16181	1509402181	53.7507	-110.3102	1341.5	737.8	167.7	6.7	3.5	0.88	51.61	1.9259	398.8315
16182	1509402182	53.7503	-110.3100	1339.7	735.7	167.8	6.8	3.6	0.88	51.61	1.9263	399.2081
16183	1509402183	53.7495	-110.3096	1336.5	733.6	167.8	6.7	3.6	0.88	51.61	1.9258	398.7217
16184	1509402184	53.7488	-110.3092	1333.5	727.7	167.9	6.8	3.6	0.88	51.61	1.9270	397.8055
16185	1509402185	53.7480	-110.3088	1330.2	720.7	168.1	7.0	3.6	0.88	51.61	1.9277	398.7354
16186	1509402186	53.7473	-110.3084	1327.0	715.7	168.2	7.0	3.6	0.88	51.61	1.9273	399.1847
16187	1509402187	53.7465	-110.3080	1323.6	713.0	168.2	7.0	3.6	0.88	51.61	1.9263	398.0859
16188	1509402188	53.7458	-110.3076	1320.3	711.7	168.4	7.2	3.6	0.88	51.61	1.9268	399.0506
16189	1509402189	53.7450	-110.3072	1317.0	708.0	168.4	7.3	3.6	0.88	51.61	1.9269	398.0515
16190	1509402190	53.7443	-110.3068	1313.7	706.2	168.4	7.2	3.5	0.88	51.61	1.9248	398.9860
16191	1509402191	53.7435	-110.3064	1310.4	706.4	168.4	7.2	3.5	0.88	51.61	1.9261	398.6539
16192	1509402192	53.7428	-110.3060	1307.4	703.4	168.6	7.5	3.5	0.88	51.61	1.9264	397.9713
16193	1509402193	53.7420	-110.3056	1304.5	700.5	168.6	7.5	3.6	0.88	51.61	1.9276	398.1444
16194	1509402194	53.7413	-110.3052	1301.8	698.8	168.4	7.4	3.5	0.88	51.61	1.9269	398.5937
16195	1509402195	53.7405	-110.3047	1298.9	696.9	168.4	7.3	3.5	0.88	51.61	1.9290	398.0839
16196	1509402196	53.7397	-110.3043	1296.0	692.9	168.6	7.4	3.6	0.88	51.61	1.9317	397.7509
16197	1509402197	53.7390	-110.3039	1292.7	688.7	168.6	7.3	4.0	0.88	51.61	1.9328	398.3566
16198	1509402198	53.7382	-110.3035	1289.0	686.7	168.7	7.5	4.1	0.88	51.61	1.9326	398.5383
16199	1509402199	53.7375	-110.3031	1285.4	685.3	168.5	7.4	4.0	0.88	51.61	1.9322	397.5782
16200	1509402200	53.7368	-110.3027	1282.0	683.2	168.5	7.5	4.0	0.88	51.61	1.9330	398.9525
16201	1509402201	53.7360	-110.3023	1278.8	681.0	168.2	7.1	4.0	0.88	51.61	1.9315	398.3480
16202	1509402202	53.7353	-110.3019	1275.7	677.9	168.3	7.2	4.0	0.88	51.61	1.9320	397.7857
16203	1509402203	53.7345	-110.3015	1272.6	675.6	168.5	7.3	4.1	0.88	51.61	1.9305	398.3119
16204	1509402204	53.7338	-110.3011	1269.5	673.5	168.4	7.4	3.8	0.88	51.61	1.9311	398.3223
16205	1509402205	53.7330	-110.3007	1266.6	671.5	168.5	7.4	3.7	0.88	51.61	1.9315	397.6704
16206	1509402206	53.7322	-110.3003	1263.6	670.6	168.7	7.6	3.8	0.88	51.61	1.9294	398.0066
16207	1509402207	53.7315	-110.2999	1260.8	671.6	168.6	7.5	3.9	0.88	51.61	1.9302	397.4920
16208	1509402208	53.7307	-110.2995	1257.8	670.8	168.4	7.3	3.9	0.88	51.61	1.9317	397.5854
16209	1509402209	53.7300	-110.2991	1254.7	669.4	168.4	7.3	4.0	0.88	51.61	1.9321	398.1388
16210	1509402210	53.7292	-110.2987	1251.7	667.0	168.5	7.5	4.1	0.88	51.61	1.9320	398.0763
16211	1509402211	53.7285	-110.2983	1248.7	663.6	168.3	7.4	4.1	0.88	51.61	1.9327	397.8561
16212	1509402212	53.7277	-110.2979	1245.7	658.3	168.2	7.4	4.1	0.88	51.61	1.9323	398.8300
16213	1509402213	53.7270	-110.2975	1242.8	654.5	168.3	7.3	4.2	0.88	51.61	1.9356	399.3735
16214	1509402214	53.7262	-110.2971	1239.7	649.7	168.2	7.2	4.2	0.88	51.61	1.9372	397.3959
16215	1509402215	53.7255	-110.2967	1236.5	645.5	168.1	7.2	4.3	0.88	51.61	1.9376	399.3227
16216	1509402216	53.7247	-110.2963	1233.0	641.0	167.8	6.9	4.2	0.88	51.61	1.9373	398.7031
16217	1509402217	53.7240	-110.2959	1229.7	641.2	167.6	6.6	4.2	0.88	51.61	1.9368	398.3602
16218	1509402218	53.7233	-110.2955	1226.5	644.1	167.8	6.7	4.2	0.88	51.61	1.9361	399.4780
16219	1509402219	53.7225	-110.2950	1223.2	644.7	167.8	6.6	4.2	0.88	51.61	1.9362	397.6591
16220	1509402220	53.7218	-110.2946	1219.9	645.3	168.0	6.7	4.3	0.88	51.61	1.9374	399.5671
16221	1509402221	53.7211	-110.2943	1216.5	644.8	167.8	6.4	4.2	0.88	51.61	1.9360	398.7265
16222	1509402222	53.7203	-110.2939	1213.1	641.1	167.7	6.5	4.2	0.88	51.61	1.9352	398.5454
16223	1509402223	53.7197	-110.2935	1209.8	631.5	167.8	6.6	4.2	0.88	51.61	1.9364	397.0407
16224	1509402224	53.7190	-110.2931	1206.8	622.8	167.7	6.5	4.2	0.88	51.61	1.9350	397.0139
16225	1509402225	53.7184	-110.2928	1203.9	615.5	167.5	6.3	4.3	0.88	51.61	1.9367	396.0842
16226	1509402226	53.7177	-110.2925	1201.0	611.0	167.4	6.1	4.2	0.88	51.61	1.9353	399.2499
16227	1509402227	53.7171	-110.2921	1198.1	610.1	167.2	5.9	4.1	0.88	51.61	1.9360	399.2499
16228	1509402228	53.7165	-110.2918	1195.1	611.7	167.3	6.0	4.2	0.88	51.61	1.9368	399.2499
16229	1509402229	53.7159	-110.2914	1192.6	615.3	167.4	5.9	4.2	0.88	51.61	1.9375	399.2499
16230	1509402230	53.7152	-110.2911	1189.9	618.0	166.9	5.0	4.5	0.88	51.61	1.9382	399.2508
16231	1509402231	53.7146	-110.2907	1187.2	614.2	166.9	5.0	4.2	0.88	51.61	1.9404	398.6066
16232	1509402232	53.7139	-110.2904	1184.6	608.8	167.2	5.2	4.1	0.88	51.61	1.9399	398.8362
16233	1509402233	53.7133	-110.2901	1181.8	603.1	167.4	5.3	4.2	0.88	51.61	1.9413	400.2214
16234	1509402234	53.7127	-110.2897	1179.2	598.9	167.2	4.9	4.2	0.88	51.61	1.9405	399.6983
16235	1509402235	53.7125	-110.2896	1178.4	597.3	167.2	4.8	4.2	0.88	51.61	1.9444	400.4176
16236	1509402236	53.7124	-110.2896	1178.2	597.1	167.2	4.9	4.2	0.88	51.61	1.9445	397.8986
16237	1509402237	53.7124	-110.2896	1178.0	596.9	167.2	4.9	4.2	0.88	51.61	1.9441	399.3549
16238	1509402238	53.7123	-110.2895	1177.8	596.7	167.2	4.9	4.2	0.88	51.61	1.9440	399.5866
16239	1509402239	53.7123	-110.2895	1177.6	596.5	167.3	4.8	4.7	0.88	51.61	1.9437	399.9011
16240	1509402240	53.7122	-110.2895	1177.4	596.3	167.3	4.9	4.7	0.88	51.61	1.9441	397.1605
16241	1509402241	53.7122	-110.2895	1177.2	596.2	167.3	4.9	4.7	0.88	51.61	1.9434	400.1016
16242	1509402242	53.7117	-110.2892	1174.8	593.8	167.4	5.0	4.5	0.88	51.61	1.9441	398.5191
16243	1509402243	53.7109	-110.2888	1171.4	591.5	167.1	4.5	4.2	0.88	51.61	1.9418	398.3203
16244	1509402244	53.7102	-110.2884	1168.0	590.1	167.2	4.7	4.2	0.88	51.61	1.9415	398.4552
16245	1509402245	53.7094	-110.2880	1164.6	588.9	167.1	4.5	4.2	0.88	51.61	1.9401	399.2415
16246	1509402246	53.7087	-110.2877	1161.3	587.4	167.1	4.4	4.2	0.88	51.61	1.9413	399.2415
16247	1509402247	53.7079	-110.2873	1157.9	584.9	167.2	4.4	4.2	0.88	51.61	1.9409	399.6926
16248	1509402248	53.7072	-110.2869	1154.6	585.6	167.2	4.4	4.3	0.88	51.61	1.9401	399.6926
16249	1509402249	53.7065	-110.2865	1151.2	586.6	167.0	4.3	4.3	0.88	51.61	1.9417	399.3377
16250	1509402250	53.7057	-110.2861	1148.0	585.3	167.0	4.3	4.3	0.88	51.61	1.9455	399.4071
16251	1509402251	53.7050	-110.2858	1144.4	581.6	167.1	4.6	4.4	0.88	51.61	1.9509	398.8177
16252	1509402252	53.7043	-110.2854	1140.7	578.7	167.0	4.5	4.4	0.88	51.61	1.9495	399.9250
16253	1509402253	53.7035	-110.2850	1136.6	576.5	166.8	4.3	4.3	0.88	51.61	1.9512	400.4637
16254	1509402254	53.7028	-110.2846	1132.7	573.7	166.8	4.1	4.7	0.88	51.61	1.9520	398.5251
16255	1509402255	53.7020	-110.2842	1129.0	571.1	166.7	4.1	4.6	0.88	51.61	1.9524	399.5929
16256	1509402256	53.7013	-110.2838	1125.7	570.7	166.8	4.2	4.7	0.88	51.61	1.9538	399.4729
16257	1509402257	53.7005	-110.2834	1122.3	568.3	166.3	3.8	4.7	0.88	51.61	1.9544	399.0880
16258	1509402258	53.6998	-110.2831	1118.8	564.8	165.9	3.3	4.6	0.88	51.61	1.9539	400.2086
16259	1509402259	53.6990	-110.2827	1115.7	565.3	166.3	3.7	4.7	0.88	51.61	1.9547	399.2030
16260	1509402260	53.6983	-110.2823	1112.7	564.8	166.2	3.3	4.7	0.88	51.61	1.9538	399.2030
16261	1509402261	53.6976	-110.2819	1110.0	560.8	166.1	3.2	4.2	0.88	51.61	1.9543	399.4149
16262	1509402262	53.6968	-110.2815	1107.3	551.8	166.1	3.2	4.3	0.88	51.61	1.9555	398.5655
16263	1509402263	53.6961	-110.2811	1104.4	543.1	166.1	3.1	4.3	0.88	51.61	1.9567	401.3398
16264	1509402264	53.6954	-110.2807	1101.3	536.3	166.3	3.2	4.4	0.88	51.61	1.9595	399.6808
16265	1509402265	53.6946	-110.2804	1098.1	531.1	166.3	3.2	4.5	0.88	51.61	1.9598	400.4103
16266	1509402266	53.6939	-110.2800	1094.8	526.8	166.3	3.2	4.6	0.88	51.61	1.9586	400.7882
16267	1509402267	53.6931	-110.2796	1091.6	523.6	166.3	3.2	4.6	0.88	51.61	1.9612	400.0835
16268	1509402268	53.6924	-110.2792	1088.6	520.6	165.9	2.7	4.5	0.88	51.61	1.9617	400.3361
16269	1509402269	53.6917	-110.2788	1085.5	517.5	165.9	2.7	4.7	0.88	51.61	1.9642	400.3083
16270	1509402270	53.6909	-110.2785	1082.2	515.3	166.1	2.8	4.7	0.88	51.61	1.9650	398.3800
16271	1509402271	53.6902	-110.2781	1078.8	512.7	166.0	2.7	4.7	0.88	51.61	1.9610	400.1500
16272	1509402272	53.6895	-110.2777	1075.2	510.2	165.9	2.5	4.8	0.88	51.61	1.9593	399.0395
16273	1509402273	53.6887	-110.2773	1071.6	508.6	165.8	2.5	4.8	0.88	51.61	1.9610	400.1064
16274	1509402274	53.6880	-110.2770	1068.2	507.2	166.0	2.7	4.8	0.88	51.61	1.9633	400.1064
16275	1509402275	53.6873	-110.2766	1064.6	505.5	166.0	2.9	4.7	0.88	51.61	1.9645	400.3295
16276	1509402276	53.6865	-110.2762	1061.1	503.1	165.9	3.0	4.6	0.88	51.61	1.9693	400.3583
16277	1509402277	53.6858	-110.2758	1057.4	502.0	165.7	2.7	4.8	0.88	51.61	1.9689	399.9663
16278	1509402278	53.6851	-110.2754	1053.7	502.4	165.5	2.7	4.8	0.88	51.61	1.9673	399.5165
16279	1509402279	53.6843	-110.2750	1050.3	509.9	165.2	2.5	4.7	0.88	51.61	1.9675	398.9254
16280	1509402280	53.6836	-110.2746	1047.1	522.2	165.6	2.9	4.9	0.88	51.61	1.9672	399.1946
16281	1509402281	53.6829	-110.2743	1044.4	528.8	165.3	2.7	4.8	0.88	51.61	1.9655	400.4663
16282	1509402282	53.6823	-110.2740	1041.8	532.8	165.3	2.9	4.4	0.88	51.61	1.9646	400.4332
16283	1509402283	53.6817	-110.2736	1039.1	534.5	165.3	3.0	4.4	0.88	51.61	1.9639	400.4332
16284	1509402284	53.6811	-110.2733	1036.2	532.3	165.2	2.9	4.5	0.88	51.61	1.9634	399.5625
16285	1509402285	53.6804	-110.2729	1033.2	528.2	165.1	2.9	4.5	0.88	51.61	1.9639	398.9521
16286	1509402286	53.6798	-110.2726	1030.2	522.4	165.2	3.1	4.6	0.88	51.61	1.9639	399.1460
16287	1509402287	53.6792	-110.2723	1027.6	516.8	165.1	2.9	5.0	0.88	51.61	1.9639	399.3398
16288	1509402288	53.6786	-110.2719	1025.1	512.0	165.0	2.9	5.0	0.88	51.61	1.9640	399.5337
16289	1509402289	53.6780	-110.2716	1022.5	508.5	165.2	3.2	4.7	0.88	51.61	1.9640	399.7276
16290	1509402290	53.6774	-110.2712	1019.8	504.8	165.3	3.3	4.6	0.88	51.61	1.9634	399.3814
16291	1509402291	53.6767	-110.2709	1016.5	500.4	165.4	3.4	4.6	0.88	51.61	1.9700	399.8172
16292	1509402292	53.6761	-110.2705	1013.1	490.4	165.6	3.5	4.6	0.88	51.61	1.9765	399.6597
16293	1509402293	53.6755	-110.2702	1009.7	480.4	165.4	3.3	5.0	0.88	51.61	1.9757	399.3298
16294	1509402294	53.6748	-110.2698	1006.4	468.0	165.2	3.3	4.9	0.88	51.61	1.9754	399.9301
16295	1509402295	53.6746	-110.2697	1005.3	462.3	165.3	3.9	5.0	0.88	51.61	1.9815	399.0241
16296	1509402296	53.6745	-110.2697	1004.8	461.8	165.4	4.2	5.0	0.88	51.61	1.9836	398.9001
16297	1509402297	53.6744	-110.2696	1004.4	457.3	165.5	4.5	5.1	0.88	51.61	1.9818	400.5142
16298	1509402298	53.6743	-110.2695	1003.6	456.5	165.4	4.9	5.1	0.88	51.61	1.9853	400.5142
16299	1509402299	53.6735	-110.2691	999.1	439.2	162.4	3.9	6.4	0.88	51.61	1.9854	400.3645
16300	1509402300	53.6728	-110.2685	990.4	421.3	158.8	4.0	6.4	0.88	51.61	1.9797	400.1264
16301	1509402301	53.6721	-110.2679	982.4	406.4	151.9	2.9	5.6	0.88	51.61	1.9795	399.8112
16302	1509402302	53.6714	-110.2671	976.9	399.3	147.1	2.3	5.2	0.88	51.61	1.9835	401.1364
16303	1509402303	53.6708	-110.2663	971.0	391.4	145.6	2.3	4.9	0.88	51.61	1.9921	399.7983
16304	1509402304	53.6702	-110.2654	966.1	384.7	145.2	2.8	4.9	0.88	51.61	1.9960	398.3289
16305	1509402305	53.6695	-110.2646	962.6	379.6	145.2	3.1	4.9	0.88	51.61	1.9871	399.2647
16306	1509402306	53.6689	-110.2637	960.6	375.6	145.4	3.3	4.8	0.88	51.61	1.9850	399.9317
16307	1509402307	53.6682	-110.2628	959.8	374.2	145.3	3.1	4.5	0.88	51.61	1.9832	400.0425
16308	1509402308	53.6676	-110.2620	963.0	377.0	145.8	3.4	4.9	0.88	51.61	1.9805	398.9936
16309	1509402309	53.6670	-110.2612	968.6	382.6	145.4	2.9	4.5	0.88	51.61	1.9721	398.7040
16310	1509402310	53.6663	-110.2603	973.5	383.5	145.8	3.1	4.7	0.88	51.61	1.9778	400.4511
16311	1509402311	53.6657	-110.2595	976.0	383.4	146.0	3.3	4.6	0.88	51.61	1.9811	398.8409
16312	1509402312	53.6651	-110.2587	976.9	382.8	146.3	3.5	5.1	0.88	51.61	1.9802	399.3933
16313	1509402313	53.6645	-110.2579	977.4	384.4	145.9	3.0	4.9	0.88	51.61	1.9816	396.8532
16314	1509402314	53.6639	-110.2570	977.7	389.7	146.1	3.4	4.9	0.88	51.61	1.9804	396.8532
16315	1509402315	53.6632	-110.2562	977.6	393.2	145.9	2.9	4.5	0.88	51.61	1.9780	399.0548
16316	1509402316	53.6626	-110.2554	977.0	394.9	146.3	2.9	4.5	0.88	51.61	1.9770	399.7244
16317	1509402317	53.6620	-110.2546	977.3	396.3	146.8	2.9	4.7	0.88	51.61	1.9762	399.7244
16318	1509402318	53.6615	-110.2540	978.8	397.4	147.4	3.5	5.0	0.88	51.61	1.9748	399.1706
16319	1509402319	53.6610	-110.2533	980.5	396.8	147.5	3.4	5.2	0.88	51.61	1.9725	399.2020
16320	1509402320	53.6604	-110.2526	981.9	396.3	147.4	3.5	5.1	0.88	51.61	1.9770	398.8702
16321	1509402321	53.6599	-110.2520	983.1	395.9	147.0	3.6	4.8	0.88	51.61	1.9808	399.9370
16322	1509402322	53.6594	-110.2513	984.2	397.4	146.7	3.4	4.8	0.88	51.61	1.9814	399.1080
16323	1509402323	53.6589	-110.2506	986.0	398.0	146.2	3.0	4.9	0.88	51.61	1.9781	399.8366
16324	1509402324	53.6583	-110.2499	986.9	397.8	146.3	2.9	4.9	0.88	51.61	1.9765	399.1167
16325	1509402325	53.6578	-110.2492	987.0	396.7	146.7	2.9	5.0	0.88	51.61	1.9785	399.5002
16326	1509402326	53.6573	-110.2486	987.0	393.5	147.3	3.1	4.8	0.88	51.61	1.9786	399.5002
16327	1509402327	53.6568	-110.2479	986.9	389.1	147.9	3.2	4.7	0.88	51.61	1.9799	398.5791
16328	1509402328	53.6562	-110.2473	986.6	384.5	148.8	3.4	4.9	0.88	51.61	1.9785	400.4038
16329	1509402329	53.6557	-110.2466	986.8	383.8	148.8	2.8	4.6	0.88	51.61	1.9821	400.2482
16330	1509402330	53.6552	-110.2460	986.9	385.1	149.7	3.1	4.9	0.88	51.61	1.9833	399.8411
16331	1509402331	53.6546	-110.2454	987.9	388.0	149.9	2.9	4.8	0.88	51.61	1.9876	399.0040
16332	1509402332	53.6541	-110.2448	989.8	391.5	150.4	3.0	4.8	0.88	51.61	1.9882	398.9462
16333	1509402333	53.6536	-110.2442	991.4	393.4	150.6	2.9	5.0	0.88	51.61	1.9884	399.3832
16334	1509402334	53.6530	-110.2436	992.9	394.2	150.7	2.7	5.1	0.88	51.61	1.9887	399.3832
16335	1509402335	53.6525	-110.2430	994.5	394.8	150.8	2.6	5.1	0.88	51.61	1.9889	398.8535
16336	1509402336	53.6519	-110.2424	996.0	393.6	150.9	2.6	5.0	0.88	51.61	1.9867	398.7115
16337	1509402337	53.6514	-110.2418	997.5	394.9	151.0	2.7	5.0	0.88	51.61	1.9868	399.3120
16338	1509402338	53.6509	-110.2413	999.1	393.8	151.1	2.9	5.1	0.88	51.61	1.9865	399.3180
16339	1509402339	53.6503	-110.2407	1001.2	393.2	150.8	2.7	5.1	0.88	51.61	1.9876	398.8005
16340	1509402340	53.6498	-110.2401	1003.2	391.5	150.6	2.7	4.9	0.88	51.61	1.9886	399.1330
16341	1509402341	53.6493	-110.2395	1005.2	388.7	150.3	2.4	5.1	0.88	51.61	1.9893	400.5435
16342	1509402342	53.6488	-110.2389	1006.9	385.9	150.0	2.4	5.2	0.88	51.61	1.9879	400.8298
16343	1509402343	53.6483	-110.2384	1008.1	382.7	149.7	2.5	4.9	0.88	51.61	1.9865	400.1902
16344	1509402344	53.6477	-110.2378	1008.8	380.4	149.6	2.6	5.0	0.88	51.61	1.9844	398.8555
16345	1509402345	53.6472	-110.2372	1009.0	380.0	149.6	2.7	5.0	0.88	51.61	1.9844	397.5880
16346	1509402346	53.6467	-110.2366	1009.2	380.2	149.0	2.5	4.7	0.88	51.61	1.9835	399.5177
16347	1509402347	53.6462	-110.2360	1009.2	382.2	148.6	2.6	4.6	0.88	51.61	1.9830	399.5177
16348	1509402348	53.6457	-110.2354	1009.2	384.8	148.1	2.7	4.3	0.88	51.61	1.9824	399.5177
16349	1509402349	53.6452	-110.2347	1009.2	388.1	147.8	2.7	4.7	0.88	51.61	1.9818	399.5177
16350	1509402350	53.6447	-110.2341	1009.2	389.5	147.2	2.8	4.4	0.88	51.61	1.9812	399.9699
16351	1509402351	53.6442	-110.2335	1009.3	389.6	146.8	2.8	4.7	0.88	51.61	1.9963	400.4593
16352	1509402352	53.6437	-110.2328	1009.5	391.5	146.6	3.1	4.5	0.88	51.61	1.9878	397.8714
16353	1509402353	53.6431	-110.2321	1009.4	393.1	146.2	3.0	4.7	0.88	51.61	1.9816	400.3310
16354	1509402354	53.6427	-110.2315	1009.4	394.5	146.0	3.1	4.5	0.88	51.61	1.9795	400.7909
16355	1509402355	53.6425	-110.2313	1009.4	394.4	146.1	3.3	4.6	0.88	51.61	1.9778	400.5585
16356	1509402356	53.6424	-110.2312	1009.4	394.4	146.1	3.2	4.7	0.88	51.61	1.9760	400.0958
16357	1509402357	53.6424	-110.2312	1009.4	394.4	146.1	3.2	4.8	0.88	51.61	1.9779	398.3272
16358	1509402358	53.6424	-110.2311	1009.4	394.4	146.1	3.1	4.9	0.88	51.61	1.9791	397.0309
16359	1509402359	53.6423	-110.2311	1009.4	394.6	146.1	2.6	5.7	0.88	51.61	1.9764	399.8230
16360	1509402360	53.6423	-110.2310	1009.4	394.6	146.1	2.6	5.8	0.88	51.61	1.9729	400.1266
16361	1509402361	53.6423	-110.2310	1009.4	394.6	146.2	2.4	6.2	0.88	51.61	1.9713	399.6056
16362	1509402362	53.6419	-110.2306	1009.4	395.1	146.1	2.4	6.1	0.88	51.61	1.9754	399.6056
16363	1509402363	53.6413	-110.2298	1009.6	396.2	146.0	2.6	5.9	0.88	51.61	1.9815	397.9385
16364	1509402364	53.6407	-110.2290	1009.7	396.8	145.9	2.8	5.7	0.88	51.61	1.9719	399.8590
16365	1509402365	53.6401	-110.2282	1009.8	398.5	145.7	2.7	5.8	0.88	51.61	1.9677	398.4713
16366	1509402366	53.6396	-110.2274	1009.9	402.9	145.4	2.6	5.6	0.88	51.61	1.9735	399.9295
16367	1509402367	53.6390	-110.2266	1010.3	406.9	145.2	2.6	5.7	0.88	51.61	1.9856	400.4100
16368	1509402368	53.6384	-110.2258	1010.7	407.4	145.1	2.4	5.8	0.88	51.61	1.9898	400.0421
16369	1509402369	53.6378	-110.2249	1011.0	408.2	145.0	2.7	5.5	0.88	51.61	1.9844	399.4086
16370	1509402370	53.6372	-110.2241	1011.0	410.4	144.8	2.9	5.1	0.88	51.61	1.9814	399.4479
16371	1509402371	53.6366	-110.2233	1011.0	416.0	144.9	3.1	5.4	0.88	51.61	1.9822	399.0780
16372	1509402372	53.6360	-110.2225	1011.3	421.8	144.7	2.9	5.5	0.88	51.61	1.9774	400.1423
16373	1509402373	53.6354	-110.2216	1011.8	427.3	144.4	2.7	5.6	0.88	51.61	1.9745	400.1423
16374	1509402374	53.6348	-110.2208	1013.2	432.2	143.4	1.7	4.8	0.88	51.61	1.9727	400.2604
16375	1509402375	53.6342	-110.2199	1012.2	440.4	143.8	2.0	5.0	0.88	51.61	1.9689	399.8556
16376	1509402376	53.6335	-110.2191	1009.8	443.2	144.9	2.4	4.8	0.88	51.61	1.9687	400.1464
16377	1509402377	53.6329	-110.2183	1008.2	445.6	146.8	3.1	5.2	0.88	51.61	1.9691	399.6600
16378	1509402378	53.6323	-110.2175	1008.0	447.5	146.9	2.4	4.5	0.88	51.61	1.9683	400.2208
16379	1509402379	53.6316	-110.2166	1007.3	449.1	147.9	2.7	4.6	0.88	51.61	1.9681	400.1672
16380	1509402380	53.6310	-110.2159	1006.3	448.3	148.5	2.5	4.9	0.88	51.61	1.9667	399.3828
16381	1509402381	53.6303	-110.2151	1005.5	447.5	149.1	2.6	5.0	0.88	51.61	1.9660	398.8908
16382	1509402382	53.6296	-110.2143	1004.7	446.0	149.5	2.6	4.8	0.88	51.61	1.9674	400.3710
16383	1509402383	53.6290	-110.2136	1003.6	443.7	149.8	3.1	4.8	0.88	51.61	1.9670	400.2593
16384	1509402384	53.6283	-110.2128	1002.4	435.5	150.2	3.2	4.7	0.88	51.61	1.9667	399.9784
16385	1509402385	53.6276	-110.2120	1001.0	430.2	150.4	3.2	4.9	0.88	51.61	1.9661	400.6141
16386	1509402386	53.6269	-110.2113	1000.1	426.4	150.4	3.2	4.6	0.88	51.61	1.9637	398.3785
16387	1509402387	53.6262	-110.2106	999.8	425.8	150.3	3.0	4.4	0.88	51.61	1.9649	399.8407
16388	1509402388	53.6256	-110.2098	1000.1	420.1	150.0	2.9	4.1	0.88	51.61	1.9650	398.9909
16389	1509402389	53.6249	-110.2090	1000.7	419.0	150.0	3.2	4.0	0.88	51.61	1.9651	398.3983
16390	1509402390	53.6242	-110.2083	1001.3	419.8	150.6	3.6	4.5	0.88	51.61	1.9652	398.1922
16391	1509402391	53.6235	-110.2075	1001.6	418.9	150.1	3.4	3.7	0.88	51.61	1.9650	398.7304
16392	1509402392	53.6228	-110.2067	1001.8	417.9	150.3	3.5	3.7	0.88	51.61	1.9652	400.1214
16393	1509402393	53.6221	-110.2059	1002.2	419.2	150.9	4.1	4.1	0.88	51.61	1.9644	399.8798
16394	1509402394	53.6214	-110.2052	1002.6	417.7	150.5	3.5	4.3	0.88	51.61	1.9652	399.7276
16395	1509402395	53.6207	-110.2044	1003.5	416.8	150.5	3.6	4.5	0.88	51.61	1.9666	399.3619
16396	1509402396	53.6200	-110.2037	1004.7	416.6	149.6	2.8	4.1	0.88	51.61	1.9666	399.3162
16397	1509402397	53.6193	-110.2029	1006.0	416.7	149.5	3.2	3.8	0.88	51.61	1.9660	399.6234
16398	1509402398	53.6186	-110.2021	1006.6	416.6	149.6	3.1	3.8	0.88	51.61	1.9659	399.1565
16399	1509402399	53.6180	-110.2014	1008.5	416.5	149.6	2.6	4.4	0.88	51.61	1.9652	398.7688
16400	1509402400	53.6173	-110.2006	1011.8	417.3	150.3	3.0	4.4	0.88	51.61	1.9638	399.9959
16401	1509402401	53.6166	-110.1999	1014.9	417.8	150.7	3.2	4.1	0.88	51.61	1.9631	397.7422
16402	1509402402	53.6159	-110.1991	1017.6	420.1	151.2	3.2	4.5	0.88	51.61	1.9626	399.8889
16403	1509402403	53.6153	-110.1984	1019.7	422.7	151.6	3.5	4.3	0.88	51.61	1.9614	398.8439
16404	1509402404	53.6147	-110.1978	1021.0	424.0	152.0	3.5	4.2	0.88	51.61	1.9640	397.6150
16405	1509402405	53.6141	-110.1972	1022.0	423.3	152.3	3.4	4.3	0.88	51.61	1.9605	398.3339
16406	1509402406	53.6135	-110.1966	1023.0	422.9	152.8	3.6	4.3	0.88	51.61	1.9595	399.2998
16407	1509402407	53.6129	-110.1960	1023.9	421.9	153.2	3.7	4.3	0.88	51.61	1.9602	399.2998
16408	1509402408	53.6123	-110.1954	1024.9	421.9	153.5	4.1	4.0	0.88	51.61	1.9609	399.2998
16409	1509402409	53.6117	-110.1948	1025.6	421.6	153.7	3.9	4.3	0.88	51.61	1.9616	399.2998
16410	1509402410	53.6111	-110.1942	1026.3	421.3	153.9	4.1	4.5	0.88	51.61	1.9623	399.2998
16411	1509402411	53.6105	-110.1936	1027.3	423.3	153.6	3.7	4.3	0.88	51.61	1.9632	399.1103
16412	1509402412	53.6099	-110.1930	1028.6	425.7	153.4	3.5	4.4	0.88	51.61	1.9643	398.7116
16413	1509402413	53.6093	-110.1925	1030.5	427.5	153.4	3.5	4.5	0.88	51.61	1.9633	398.7498
16414	1509402414	53.6087	-110.1919	1033.2	429.9	153.2	3.4	4.3	0.88	51.61	1.9608	399.0610
16415	1509402415	53.6085	-110.1917	1033.9	430.4	153.2	3.6	4.2	0.88	51.61	1.9598	399.9294
16416	1509402416	53.6085	-110.1916	1034.0	430.0	153.3	3.7	4.2	0.88	51.61	1.9626	398.7933
16417	1509402417	53.6084	-110.1916	1034.2	430.2	153.3	3.7	4.2	0.88	51.61	1.9628	398.7933
16418	1509402418	53.6084	-110.1915	1034.3	430.3	153.4	3.7	4.3	0.88	51.61	1.9640	398.2610
16419	1509402419	53.6084	-110.1915	1034.5	430.5	153.4	4.0	3.8	0.88	51.61	1.9628	398.8531
16420	1509402420	53.6083	-110.1915	1034.6	430.6	153.5	4.0	3.8	0.88	51.61	1.9635	399.6748
16421	1509402421	53.6083	-110.1914	1034.8	430.8	153.5	4.0	3.8	0.88	51.61	1.9639	399.5112
16422	1509402422	53.6077	-110.1909	1036.5	432.4	153.2	3.7	3.7	0.88	51.61	1.9645	399.6636
16423	1509402423	53.6070	-110.1902	1038.9	434.8	153.6	4.2	3.7	0.88	51.61	1.9633	398.7418
16424	1509402424	53.6063	-110.1895	1041.6	439.6	153.8	4.3	3.8	0.88	51.61	1.9627	398.7990
16425	1509402425	53.6056	-110.1888	1044.2	442.9	153.9	4.2	4.0	0.88	51.61	1.9606	399.7606
16426	1509402426	53.6049	-110.1881	1047.2	446.1	153.5	3.7	3.9	0.88	51.61	1.9599	399.7606
16427	1509402427	53.6043	-110.1875	1050.6	448.7	153.7	4.0	3.7	0.88	51.61	1.9590	398.9754
16428	1509402428	53.6036	-110.1868	1054.5	452.5	153.5	3.8	3.5	0.88	51.61	1.9570	399.2777
16429	1509402429	53.6029	-110.1862	1057.9	454.9	153.5	3.6	3.5	0.88	51.61	1.9566	398.7104
16430	1509402430	53.6023	-110.1855	1060.5	456.5	153.8	3.9	3.8	0.88	51.61	1.9564	398.7104
16431	1509402431	53.6016	-110.1848	1062.9	459.0	154.1	4.0	4.0	0.88	51.61	1.9560	399.9415
16432	1509402432	53.6009	-110.1842	1065.7	460.9	154.2	4.1	4.1	0.88	51.61	1.9555	399.0774
16433	1509402433	53.6002	-110.1835	1068.6	464.8	154.3	4.1	4.3	0.88	51.61	1.9567	398.8682
16434	1509402434	53.5995	-110.1829	1071.2	469.2	154.7	4.5	4.6	0.88	51.61	1.9527	399.5530
16435	1509402435	53.5989	-110.1822	1073.3	473.3	154.5	4.5	4.1	0.88	51.61	1.9516	398.6581
16436	1509402436	53.5982	-110.1816	1075.6	476.6	154.5	4.6	4.2	0.88	51.61	1.9509	399.4849
16437	1509402437	53.5975	-110.1809	1077.9	479.1	154.0	4.4	4.2	0.88	51.61	1.9499	398.9247
16438	1509402438	53.5968	-110.1802	1080.0	480.8	153.8	4.5	4.3	0.88	51.61	1.9514	399.3337
16439	1509402439	53.5962	-110.1795	1082.2	482.2	153.6	4.6	4.4	0.88	51.61	1.9509	397.1384
16440	1509402440	53.5955	-110.1789	1084.6	483.6	153.4	4.6	4.5	0.88	51.61	1.9500	397.2445
16441	1509402441	53.5949	-110.1782	1086.8	485.0	153.5	4.7	4.6	0.88	51.61	1.9491	399.4707
16442	1509402442	53.5942	-110.1775	1088.6	485.6	153.5	4.7	4.5	0.88	51.61	1.9487	399.5044
16443	1509402443	53.5935	-110.1769	1090.5	487.5	153.5	4.8	4.6	0.88	51.61	1.9495	399.0962
16444	1509402444	53.5929	-110.1762	1092.1	489.1	153.7	5.0	4.7	0.88	51.61	1.9488	398.4116
16445	1509402445	53.5922	-110.1755	1093.3	491.3	153.6	4.8	4.4	0.88	51.61	1.9503	398.9020
16446	1509402446	53.5915	-110.1748	1094.7	492.8	153.5	5.0	4.4	0.88	51.61	1.9490	398.3264
16447	1509402447	53.5909	-110.1741	1096.1	494.5	153.4	4.9	4.2	0.88	51.61	1.9474	398.3773
16448	1509402448	53.5902	-110.1734	1097.4	495.5	153.3	4.9	4.2	0.88	51.61	1.9480	398.8056
16449	1509402449	53.5895	-110.1727	1099.3	498.3	153.4	5.0	4.3	0.88	51.61	1.9480	398.8824
16450	1509402450	53.5889	-110.1721	1101.4	499.4	153.6	5.2	4.4	0.88	51.61	1.9451	399.2912
16451	1509402451	53.5882	-110.1714	1102.9	501.9	153.8	5.5	4.4	0.88	51.61	1.9452	399.2683
16452	1509402452	53.5875	-110.1707	1103.9	502.9	153.9	5.5	4.3	0.88	51.61	1.9452	399.4860
16453	1509402453	53.5868	-110.1700	1105.2	504.2	154.0	5.7	4.2	0.88	51.61	1.9484	399.3640
16454	1509402454	53.5862	-110.1693	1106.7	505.7	154.0	5.6	4.5	0.88	51.61	1.9456	398.5460
16455	1509402455	53.5855	-110.1686	1108.4	506.4	154.0	5.6	4.7	0.88	51.61	1.9469	399.3909
16456	1509402456	53.5848	-110.1679	1110.0	508.0	153.8	5.5	4.6	0.88	51.61	1.9513	399.3626
16457	1509402457	53.5842	-110.1672	1111.7	510.7	153.8	5.4	4.5	0.88	51.61	1.9511	399.1603
16458	1509402458	53.5835	-110.1665	1113.9	513.9	153.7	5.0	4.7	0.88	51.61	1.9494	398.9546
16459	1509402459	53.5828	-110.1659	1116.3	517.4	153.8	4.9	4.8	0.88	51.61	1.9495	398.8649
16460	1509402460	53.5822	-110.1652	1118.6	520.6	154.0	5.2	4.7	0.88	51.61	1.9495	399.5434
16461	1509402461	53.5816	-110.1646	1120.5	523.5	154.0	5.3	4.7	0.88	51.61	1.9490	400.5430
16462	1509402462	53.5810	-110.1640	1122.2	525.2	154.0	5.3	4.7	0.88	51.61	1.9501	399.7987
16463	1509402463	53.5804	-110.1634	1123.6	526.6	153.9	5.2	4.6	0.88	51.61	1.9488	398.2689
16464	1509402464	53.5799	-110.1628	1124.7	527.7	153.9	5.3	4.6	0.88	51.61	1.9480	400.4940
16465	1509402465	53.5793	-110.1623	1125.7	528.5	153.7	5.3	4.4	0.88	51.61	1.9464	399.2472
16466	1509402466	53.5787	-110.1616	1126.8	528.8	153.8	5.4	4.5	0.88	51.61	1.9481	399.6160
16467	1509402467	53.5781	-110.1611	1127.9	529.1	153.8	5.3	4.3	0.88	51.61	1.9481	399.3123
16468	1509402468	53.5775	-110.1605	1129.1	529.8	154.0	5.4	4.3	0.88	51.61	1.9480	398.9956
16469	1509402469	53.5770	-110.1599	1130.1	529.1	154.0	5.4	4.2	0.88	51.61	1.9479	398.6790
16470	1509402470	53.5764	-110.1593	1130.8	529.8	154.1	5.5	4.2	0.88	51.61	1.9477	398.3623
16471	1509402471	53.5758	-110.1587	1131.5	530.8	154.3	5.6	4.2	0.88	51.61	1.9447	399.0718
16472	1509402472	53.5753	-110.1582	1132.3	531.3	154.4	5.7	4.1	0.88	51.61	1.9448	398.1433
16473	1509402473	53.5746	-110.1575	1133.0	531.1	154.4	5.8	4.0	0.88	51.61	1.9454	400.0116
16474	1509402474	53.5740	-110.1569	1133.5	530.6	154.4	5.9	3.9	0.88	51.61	1.9451	398.7507
16475	1509402475	53.5738	-110.1567	1133.6	529.7	154.3	5.8	4.0	0.88	51.61	1.9461	399.3002
16476	1509402476	53.5738	-110.1567	1133.6	529.6	154.3	5.7	4.1	0.88	51.61	1.9437	398.5004
16477	1509402477	53.5737	-110.1566	1133.7	529.7	154.3	5.6	4.2	0.88	51.61	1.9426	398.0827
16478	1509402478	53.5736	-110.1565	1133.7	529.7	154.3	5.6	4.2	0.88	51.61	1.9402	399.4584
16479	1509402479	53.5729	-110.1558	1134.2	527.1	154.3	5.7	4.1	0.88	51.61	1.9415	397.5389
16480	1509402480	53.5722	-110.1551	1135.0	526.4	154.2	5.8	4.1	0.88	51.61	1.9401	398.4614
16481	1509402481	53.5716	-110.1544	1135.8	524.2	154.2	6.0	4.0	0.88	51.61	1.9394	397.9839
16482	1509402482	53.5709	-110.1538	1136.7	523.4	154.0	5.9	4.0	0.88	51.61	1.9393	398.4783
16483	1509402483	53.5702	-110.1531	1137.8	521.6	153.9	5.8	4.3	0.88	51.61	1.9405	399.0028
16484	1509402484	53.5696	-110.1524	1138.9	522.8	153.8	6.0	4.4	0.88	51.61	1.9397	398.5155
16485	1509402485	53.5689	-110.1517	1140.1	523.1	153.5	6.0	4.2	0.88	51.61	1.9383	399.0128
16486	1509402486	53.5682	-110.1509	1141.0	521.5	153.3	6.2	4.2	0.88	51.61	1.9378	399.2533
16487	1509402487	53.5675	-110.1502	1141.9	515.5	153.1	6.3	4.2	0.88	51.61	1.9392	398.6528
16488	1509402488	53.5668	-110.1495	1142.8	512.2	152.9	6.1	4.5	0.88	51.61	1.9371	398.1551
16489	1509402489	53.5661	-110.1487	1143.6	509.6	152.8	6.2	4.4	0.88	51.61	1.9375	398.3696
16490	1509402490	53.5655	-110.1480	1144.4	505.4	152.7	6.3	4.3	0.88	51.61	1.9389	397.7530
16491	1509402491	53.5648	-110.1473	1145.4	505.5	152.9	6.4	4.3	0.88	51.61	1.9393	396.5344
16492	1509402492	53.5641	-110.1465	1146.4	510.6	153.0	6.4	4.2	0.88	51.61	1.9402	398.8777
16493	1509402493	53.5634	-110.1458	1147.2	518.0	153.2	6.3	4.0	0.88	51.61	1.9412	399.8629
16494	1509402494	53.5627	-110.1451	1147.9	519.5	153.5	6.3	4.6	0.88	51.61	1.9495	398.6298
16495	1509402495	53.5620	-110.1444	1148.6	517.6	153.5	6.2	4.5	0.88	51.61	1.9499	396.9791
16496	1509402496	53.5614	-110.1436	1149.1	513.1	153.5	5.9	4.8	0.88	51.61	1.9510	399.9426
16497	1509402497	53.5607	-110.1429	1149.9	512.2	153.4	5.5	4.7	0.88	51.61	1.9537	399.6279
16498	1509402498	53.5600	-110.1422	1149.9	514.5	153.5	5.6	4.6	0.88	51.61	1.9434	399.1120
16499	1509402499	53.5594	-110.1416	1150.0	519.3	153.4	5.5	4.9	0.88	51.61	1.9393	399.4498
16500	1509402500	53.5588	-110.1410	1150.2	526.3	153.7	5.8	4.7	0.88	51.61	1.9370	399.2501
16501	1509402501	53.5582	-110.1403	1150.6	532.0	153.8	6.2	4.5	0.88	51.61	1.9351	398.2108
16502	1509402502	53.5576	-110.1397	1150.8	536.2	154.0	6.4	4.6	0.88	51.61	1.9337	398.6699
16503	1509402503	53.5570	-110.1391	1150.9	537.8	153.8	6.2	4.5	0.88	51.61	1.9348	398.7594
16504	1509402504	53.5564	-110.1385	1151.0	540.1	153.8	6.3	4.4	0.88	51.61	1.9343	397.7218
16505	1509402505	53.5558	-110.1378	1151.0	541.6	153.6	6.3	4.4	0.88	51.61	1.9336	397.7218
16506	1509402506	53.5552	-110.1372	1150.7	543.0	153.6	6.5	4.3	0.88	51.61	1.9339	398.6984
16507	1509402507	53.5546	-110.1366	1150.3	543.3	153.4	6.5	4.1	0.88	51.61	1.9332	398.6841
16508	1509402508	53.5540	-110.1360	1149.8	543.8	153.2	6.4	4.3	0.88	51.61	1.9386	397.8503
16509	1509402509	53.5534	-110.1353	1149.4	544.4	152.9	6.3	4.4	0.88	51.61	1.9374	398.0080
16510	1509402510	53.5528	-110.1347	1149.0	544.0	152.7	6.3	4.2	0.88	51.61	1.9346	398.4980
16511	1509402511	53.5522	-110.1340	1148.4	543.4	152.5	6.3	4.1	0.88	51.61	1.9331	397.4507
16512	1509402512	53.5516	-110.1334	1147.9	541.8	152.5	6.5	4.0	0.88	51.61	1.9328	398.8612
16513	1509402513	53.5510	-110.1327	1147.4	541.6	152.5	6.7	3.9	0.88	51.61	1.9316	398.3485
16514	1509402514	53.5504	-110.1321	1146.8	541.8	152.2	6.6	3.7	0.88	51.61	1.9315	398.1202
16515	1509402515	53.5498	-110.1314	1146.1	541.8	152.1	6.7	3.6	0.88	51.61	1.9326	397.1472
16516	1509402516	53.5492	-110.1307	1145.5	541.6	152.1	6.7	3.7	0.88	51.61	1.9309	397.1016
16517	1509402517	53.5486	-110.1301	1144.3	541.3	152.1	6.6	3.8	0.88	51.61	1.9304	398.2055
16518	1509402518	53.5480	-110.1294	1143.6	540.6	152.0	6.6	3.6	0.88	51.61	1.9297	398.3851
16519	1509402519	53.5474	-110.1287	1143.8	540.8	152.1	6.6	3.7	0.88	51.61	1.9294	396.8810
16520	1509402520	53.5468	-110.1281	1145.2	542.1	152.0	6.5	3.7	0.88	51.61	1.9299	398.0707
16521	1509402521	53.5462	-110.1274	1146.8	544.8	152.0	6.6	3.6	0.88	51.61	1.9304	398.8977
16522	1509402522	53.5456	-110.1267	1147.9	545.9	152.0	6.8	3.4	0.88	51.61	1.9300	398.8977
16523	1509402523	53.5450	-110.1261	1148.4	546.4	152.0	6.6	3.4	0.88	51.61	1.9302	399.0007
16524	1509402524	53.5444	-110.1254	1149.1	546.7	151.8	6.5	3.7	0.88	51.61	1.9304	399.0007
16525	1509402525	53.5438	-110.1247	1149.8	546.8	151.7	6.5	3.8	0.88	51.61	1.9312	398.1574
16526	1509402526	53.5432	-110.1241	1150.3	547.3	151.7	6.5	3.7	0.88	51.61	1.9309	398.1574
16527	1509402527	53.5426	-110.1234	1150.5	547.5	151.6	6.6	3.6	0.88	51.61	1.9306	398.1574
16528	1509402528	53.5420	-110.1227	1150.7	546.7	151.6	6.7	3.6	0.88	51.61	1.9303	398.1574
16529	1509402529	53.5414	-110.1220	1151.1	546.1	151.3	7.0	3.1	0.88	51.61	1.9299	398.1574
16530	1509402530	53.5408	-110.1214	1151.7	546.7	151.0	6.8	3.2	0.88	51.61	1.9296	398.1574
16531	1509402531	53.5402	-110.1207	1152.3	548.3	150.9	6.5	3.5	0.88	51.61	1.9293	398.1574
16532	1509402532	53.5396	-110.1200	1152.7	549.7	150.8	6.6	3.6	0.88	51.61	1.9290	398.1574
16533	1509402533	53.5390	-110.1193	1153.1	550.1	150.8	6.6	3.5	0.88	51.61	1.9283	397.0472
16534	1509402534	53.5384	-110.1186	1153.8	549.8	150.6	6.4	3.5	0.88	51.61	1.9257	396.7670
16535	1509402535	53.5382	-110.1184	1154.1	550.0	150.6	6.4	3.4	0.88	51.61	1.9271	397.9600
16536	1509402536	53.5382	-110.1183	1154.1	550.1	150.6	6.4	3.4	0.88	51.61	1.9281	397.1752
16537	1509402537	53.5381	-110.1183	1154.2	550.3	150.6	6.4	3.5	0.88	51.61	1.9291	397.4581
16538	1509402538	53.5381	-110.1182	1154.3	550.4	150.6	6.4	3.5	0.88	51.61	1.9294	397.6405
16539	1509402539	53.5380	-110.1182	1154.3	549.6	150.6	6.4	3.5	0.88	51.61	1.9283	397.6248
16540	1509402540	53.5380	-110.1181	1154.4	549.7	150.6	6.5	3.5	0.88	51.61	1.9278	397.8953
16541	1509402541	53.5380	-110.1181	1154.5	549.8	150.6	6.5	3.5	0.88	51.61	1.9283	398.0104
16542	1509402542	53.5374	-110.1174	1155.3	550.3	150.7	6.1	3.9	0.88	51.61	1.9267	398.0104
16543	1509402543	53.5367	-110.1166	1156.0	551.7	150.8	6.2	3.9	0.88	51.61	1.9272	397.2613
16544	1509402544	53.5360	-110.1158	1156.7	554.0	151.0	6.3	3.9	0.88	51.61	1.9252	398.0483
16545	1509402545	53.5353	-110.1150	1157.5	557.6	151.3	6.5	4.1	0.88	51.61	1.9252	398.0330
16546	1509402546	53.5346	-110.1142	1158.3	559.3	151.3	6.6	3.7	0.88	51.61	1.9243	397.7472
16547	1509402547	53.5339	-110.1134	1159.1	559.1	151.4	6.6	4.0	0.88	51.61	1.9235	397.4969
16548	1509402548	53.5331	-110.1126	1160.0	558.9	151.3	6.4	4.0	0.88	51.61	1.9245	398.1803
16549	1509402549	53.5324	-110.1118	1161.0	560.0	151.5	6.4	4.2	0.88	51.61	1.9236	398.6301
16550	1509402550	53.5318	-110.1110	1162.1	560.1	151.5	6.4	4.2	0.88	51.61	1.9242	398.5072
16551	1509402551	53.5311	-110.1102	1163.2	562.2	151.8	6.8	4.4	0.88	51.61	1.9247	398.5354
16552	1509402552	53.5304	-110.1095	1163.7	562.7	151.7	6.8	4.0	0.88	51.61	1.9246	399.0212
16553	1509402553	53.5297	-110.1087	1164.1	564.1	151.7	6.9	3.9	0.88	51.61	1.9237	396.4267
16554	1509402554	53.5290	-110.1079	1164.5	565.2	151.6	6.9	3.9	0.88	51.61	1.9222	397.1469
16555	1509402555	53.5283	-110.1071	1165.3	566.3	151.4	6.7	3.8	0.88	51.61	1.9231	396.0114
16556	1509402556	53.5276	-110.1063	1166.3	567.3	151.3	6.7	3.9	0.88	51.61	1.9259	396.1750
16557	1509402557	53.5269	-110.1055	1167.2	568.2	151.4	6.7	3.8	0.88	51.61	1.9231	398.0756
16558	1509402558	53.5262	-110.1047	1167.9	568.9	151.3	6.7	3.8	0.88	51.61	1.9243	397.5849
16559	1509402559	53.5255	-110.1039	1168.8	569.8	151.3	6.7	3.8	0.88	51.61	1.9243	397.2798
16560	1509402560	53.5248	-110.1031	1169.9	570.9	151.2	6.7	3.9	0.88	51.61	1.9242	397.7320
16561	1509402561	53.5241	-110.1023	1171.4	573.3	150.9	6.4	3.9	0.88	51.61	1.9242	397.8691
16562	1509402562	53.5234	-110.1015	1173.1	576.2	151.0	6.3	3.9	0.88	51.61	1.9229	398.0459
16563	1509402563	53.5227	-110.1007	1175.1	579.1	151.0	6.3	4.0	0.88	51.61	1.9233	396.6627
16564	1509402564	53.5220	-110.0999	1176.7	581.7	151.1	6.4	4.1	0.88	51.61	1.9244	399.0716
16565	1509402565	53.5213	-110.0991	1177.7	583.7	151.2	6.6	4.1	0.88	51.61	1.9227	397.4505
16566	1509402566	53.5206	-110.0983	1178.4	585.1	151.2	6.7	4.0	0.88	51.61	1.9243	398.2141
16567	1509402567	53.5200	-110.0976	1179.4	587.4	151.0	6.9	3.7	0.88	51.61	1.9259	397.9777
16568	1509402568	53.5193	-110.0968	1180.6	589.9	151.0	6.9	3.8	0.88	51.61	1.9241	398.1091
16569	1509402569	53.5186	-110.0960	1181.6	592.7	150.6	6.6	4.1	0.88	51.61	1.9228	398.1091
16570	1509402570	53.5179	-110.0952	1182.1	593.1	150.5	6.6	4.0	0.88	51.61	1.9259	398.2060
16571	1509402571	53.5172	-110.0943	1181.8	592.8	150.3	6.6	3.9	0.88	51.61	1.9242	398.3133
16572	1509402572	53.5165	-110.0935	1180.7	592.7	150.1	6.7	3.7	0.88	51.61	1.9242	397.2763
16573	1509402573	53.5158	-110.0927	1179.1	591.1	150.0	6.5	3.9	0.88	51.61	1.9251	398.2120
16574	1509402574	53.5152	-110.0919	1176.6	589.6	149.9	6.4	4.0	0.88	51.61	1.9255	398.9064
16575	1509402575	53.5145	-110.0911	1173.6	587.7	149.8	6.5	4.2	0.88	51.61	1.9243	398.9064
16576	1509402576	53.5138	-110.0902	1170.3	584.3	149.7	6.8	3.8	0.88	51.61	1.9252	397.9131
16577	1509402577	53.5130	-110.0894	1167.1	582.1	149.6	6.8	3.9	0.88	51.61	1.9245	398.5327
16578	1509402578	53.5123	-110.0885	1164.0	579.0	149.5	6.7	3.9	0.88	51.61	1.9247	398.5818
16579	1509402579	53.5116	-110.0876	1160.5	575.5	149.3	6.7	3.5	0.88	51.61	1.9244	398.5818
16580	1509402580	53.5110	-110.0868	1157.3	572.3	149.5	6.8	3.6	0.88	51.61	1.9252	398.5650
16581	1509402581	53.5103	-110.0861	1154.6	570.6	149.6	7.0	3.5	0.88	51.61	1.9240	397.8730
16582	1509402582	53.5097	-110.0853	1152.2	569.2	149.6	7.0	3.6	0.88	51.61	1.9246	397.1817
16583	1509402583	53.5091	-110.0846	1150.0	567.7	149.6	7.1	3.6	0.88	51.61	1.9249	397.7544
16584	1509402584	53.5085	-110.0838	1148.0	566.0	149.5	7.0	3.6	0.88	51.61	1.9249	397.4364
16585	1509402585	53.5078	-110.0831	1146.2	564.2	149.5	7.0	3.6	0.88	51.61	1.9230	397.4017
16586	1509402586	53.5072	-110.0823	1144.7	562.7	149.4	7.0	3.4	0.88	51.61	1.9233	398.1673
16587	1509402587	53.5066	-110.0816	1143.6	561.6	149.4	6.8	3.6	0.88	51.61	1.9229	398.7075
16588	1509402588	53.5060	-110.0808	1142.4	560.4	149.4	6.6	3.6	0.88	51.61	1.9224	398.7075
16589	1509402589	53.5054	-110.0801	1141.8	559.7	149.5	6.6	3.5	0.88	51.61	1.9234	398.0452
16590	1509402590	53.5047	-110.0793	1141.4	559.4	149.6	6.7	3.6	0.88	51.61	1.9232	398.0452
16591	1509402591	53.5041	-110.0786	1141.2	559.2	149.7	6.7	3.7	0.88	51.61	1.9243	397.7347
16592	1509402592	53.5035	-110.0778	1141.4	559.4	149.8	6.8	3.7	0.88	51.61	1.9250	398.1409
16593	1509402593	53.5029	-110.0771	1141.3	559.3	149.7	6.8	3.8	0.88	51.61	1.9250	397.7579
16594	1509402594	53.5022	-110.0763	1141.1	559.0	149.5	6.6	3.7	0.88	51.61	1.9238	397.3463
16595	1509402595	53.5020	-110.0760	1141.0	559.0	149.5	6.6	3.7	0.88	51.61	1.9240	397.6436
16596	1509402596	53.5018	-110.0758	1140.9	558.9	149.5	6.7	3.7	0.88	51.61	1.9246	398.0608
16597	1509402597	53.5012	-110.0751	1140.3	558.4	149.5	6.8	3.7	0.88	51.61	1.9261	396.9781
16598	1509402598	53.5005	-110.0743	1139.1	557.2	149.4	6.7	3.6	0.88	51.61	1.9280	399.7967
16599	1509402599	53.4998	-110.0734	1137.8	555.9	149.2	6.5	3.4	0.88	51.61	1.9291	399.7967
16600	1509402600	53.4991	-110.0725	1136.6	554.7	149.3	6.8	3.5	0.88	51.61	1.9362	398.4647
16601	1509402601	53.4983	-110.0716	1135.9	554.0	149.1	6.6	3.5	0.88	51.61	1.9348	398.6056
16602	1509402602	53.4976	-110.0707	1134.9	552.2	149.0	6.4	3.8	0.88	51.61	1.9342	399.6314
16603	1509402603	53.4969	-110.0698	1134.2	551.2	148.5	6.1	3.6	0.88	51.61	1.9350	398.6525
16604	1509402604	53.4961	-110.0689	1133.2	550.2	148.6	6.3	3.7	0.88	51.61	1.9380	398.5471
16605	1509402605	53.4954	-110.0681	1131.3	548.3	148.4	6.5	3.7	0.88	51.61	1.9371	399.1321
16606	1509402606	53.4948	-110.0673	1129.5	546.4	148.2	6.4	3.6	0.88	51.61	1.9395	399.0116
16607	1509402607	53.4941	-110.0665	1127.7	543.6	148.1	6.1	3.8	0.88	51.61	1.9387	399.2105
16608	1509402608	53.4935	-110.0657	1125.8	541.5	148.0	6.1	3.7	0.88	51.61	1.9377	399.5561
16609	1509402609	53.4929	-110.0649	1123.6	537.3	147.9	6.0	3.6	0.88	51.61	1.9370	399.0482
16610	1509402610	53.4923	-110.0641	1121.7	532.9	148.0	5.9	3.9	0.88	51.61	1.9351	399.3979
16611	1509402611	53.4916	-110.0633	1119.8	526.3	147.9	6.0	3.9	0.88	51.61	1.9359	398.7881
16612	1509402612	53.4910	-110.0626	1118.3	523.0	147.9	6.1	3.9	0.88	51.61	1.9377	398.8897
16613	1509402613	53.4904	-110.0618	1117.2	521.2	147.9	6.1	3.9	0.88	51.61	1.9431	398.1108
16614	1509402614	53.4898	-110.0610	1116.4	519.8	147.7	6.0	3.9	0.88	51.61	1.9370	398.8866
16615	1509402615	53.4891	-110.0602	1116.0	519.2	147.3	5.5	3.7	0.88	51.61	1.9380	398.1281
16616	1509402616	53.4885	-110.0594	1116.1	520.2	147.1	5.4	3.8	0.88	51.61	1.9335	397.5259
16617	1509402617	53.4879	-110.0586	1116.9	521.9	147.7	5.8	3.7	0.88	51.61	1.9245	397.5259
16618	1509402618	53.4873	-110.0579	1117.5	522.8	147.6	6.0	3.3	0.88	51.61	1.9246	396.1259
16619	1509402619	53.4867	-110.0571	1117.3	522.3	148.2	6.8	3.3	0.88	51.61	1.9235	398.4330
16620	1509402620	53.4861	-110.0563	1117.4	521.4	147.5	6.2	2.9	0.88	51.61	1.9256	396.9810
16621	1509402621	53.4854	-110.0555	1118.2	522.2	147.6	6.3	2.6	0.88	51.61	1.9237	397.4903
16622	1509402622	53.4848	-110.0547	1118.9	521.9	147.6	6.2	2.6	0.88	51.61	1.9247	397.4903
16623	1509402623	53.4842	-110.0540	1119.0	521.9	147.8	6.2	2.6	0.88	51.61	1.9274	397.3807
16624	1509402624	53.4836	-110.0532	1118.7	520.6	148.0	6.1	2.6	0.88	51.61	1.9310	397.9697
16625	1509402625	53.4830	-110.0524	1118.3	520.3	148.4	6.0	3.0	0.88	51.61	1.9316	398.4956
16626	1509402626	53.4823	-110.0517	1118.0	520.0	149.0	6.0	3.1	0.88	51.61	1.9319	398.4400
16627	1509402627	53.4817	-110.0509	1117.8	519.8	149.6	6.0	3.1	0.88	51.61	1.9326	398.8751
16628	1509402628	53.4811	-110.0502	1117.9	520.9	150.1	5.9	3.1	0.88	51.61	1.9313	397.6371
16629	1509402629	53.4804	-110.0495	1118.3	521.3	150.9	6.2	3.4	0.88	51.61	1.9333	398.9310
16630	1509402630	53.4798	-110.0488	1118.7	522.8	151.5	6.3	3.1	0.88	51.61	1.9336	398.9310
16631	1509402631	53.4792	-110.0481	1119.3	523.2	152.1	6.4	3.2	0.88	51.61	1.9351	399.8878
16632	1509402632	53.4785	-110.0474	1120.6	525.7	152.6	6.3	3.3	0.88	51.61	1.9357	399.2438
16633	1509402633	53.4779	-110.0467	1121.8	527.5	152.9	6.0	3.4	0.88	51.61	1.9364	398.6851
16634	1509402634	53.4772	-110.0460	1122.5	528.3	153.1	5.9	3.4	0.88	51.61	1.9369	398.6851
16635	1509402635	53.4766	-110.0454	1122.5	529.4	153.4	5.8	3.4	0.88	51.61	1.9369	398.0619
16636	1509402636	53.4759	-110.0447	1122.2	530.2	153.5	5.7	3.7	0.88	51.61	1.9368	398.0619
16637	1509402637	53.4753	-110.0441	1121.5	530.5	153.8	6.1	3.7	0.88	51.61	1.9366	397.3152
16638	1509402638	53.4746	-110.0434	1120.9	528.9	153.5	6.1	3.5	0.88	51.61	1.9419	397.5601
16639	1509402639	53.4740	-110.0428	1120.8	526.6	153.2	5.7	3.7	0.88	51.61	1.9464	399.7515
16640	1509402640	53.4734	-110.0421	1121.2	526.2	153.1	5.4	3.9	0.88	51.61	1.9455	400.2231
16641	1509402641	53.4727	-110.0414	1122.3	526.1	153.1	5.5	4.2	0.88	51.61	1.9415	397.8546
16642	1509402642	53.4721	-110.0408	1123.4	526.4	153.0	5.5	4.1	0.88	51.61	1.9408	398.0337
16643	1509402643	53.4715	-110.0401	1124.8	526.8	152.9	5.8	4.2	0.88	51.61	1.9416	397.7977
16644	1509402644	53.4708	-110.0394	1126.0	525.3	152.5	6.1	4.2	0.88	51.61	1.9397	398.7362
16645	1509402645	53.4702	-110.0388	1126.3	524.0	151.8	6.2	4.0	0.88	51.61	1.9423	398.5256
16646	1509402646	53.4695	-110.0381	1125.8	521.5	150.5	6.1	3.7	0.88	51.61	1.9420	398.8142
16647	1509402647	53.4689	-110.0373	1125.1	519.5	149.6	6.4	3.5	0.88	51.61	1.9423	399.0053
16648	1509402648	53.4683	-110.0366	1124.4	516.6	148.6	6.0	3.8	0.88	51.61	1.9428	399.0053
16649	1509402649	53.4677	-110.0359	1123.9	514.6	147.7	5.9	3.7	0.88	51.61	1.9432	399.0053
16650	1509402650	53.4671	-110.0351	1123.3	512.3	147.0	5.8	3.6	0.88	51.61	1.9437	399.0053
16651	1509402651	53.4665	-110.0343	1122.8	509.0	146.4	5.8	3.6	0.88	51.61	1.9465	399.5559
16652	1509402652	53.4659	-110.0335	1121.9	506.4	146.3	6.0	3.7	0.88	51.61	1.9440	398.0762
16653	1509402653	53.4653	-110.0327	1120.8	502.8	146.3	5.9	3.8	0.88	51.61	1.9450	400.1879
16654	1509402654	53.4647	-110.0319	1119.7	500.8	146.3	5.8	4.3	0.88	51.61	1.9465	399.9596
16655	1509402655	53.4645	-110.0317	1119.4	499.4	146.3	5.9	4.3	0.88	51.61	1.9476	399.9535
16656	1509402656	53.4645	-110.0316	1119.4	499.4	146.3	5.9	4.2	0.88	51.61	1.9476	398.6937
16657	1509402657	53.4645	-110.0316	1119.3	499.3	146.3	5.9	4.1	0.88	51.61	1.9484	398.7784
16658	1509402658	53.4644	-110.0315	1119.2	499.3	146.3	6.0	4.1	0.88	51.61	1.9487	398.3581
16659	1509402659	53.4644	-110.0315	1119.2	499.2	146.3	6.0	4.0	0.88	51.61	1.9491	399.2940
16660	1509402660	53.4643	-110.0314	1119.1	499.1	146.3	6.0	3.9	0.88	51.61	1.9489	399.4191
16661	1509402661	53.4643	-110.0313	1119.0	499.0	146.3	6.0	3.8	0.88	51.61	1.9496	399.6020
16662	1509402662	53.4637	-110.0306	1118.1	498.0	146.3	6.2	3.4	0.88	51.61	1.9520	399.2531
16663	1509402663	53.4631	-110.0297	1117.0	498.3	146.2	6.0	3.4	0.88	51.61	1.9521	399.3060
16664	1509402664	53.4624	-110.0288	1116.1	496.4	146.4	5.9	3.5	0.88	51.61	1.9542	399.5823
16665	1509402665	53.4617	-110.0279	1115.3	496.3	146.5	5.7	3.6	0.88	51.61	1.9537	399.5617
16666	1509402666	53.4610	-110.0270	1114.6	495.5	146.9	5.8	3.9	0.88	51.61	1.9559	399.7638
16667	1509402667	53.4603	-110.0261	1113.9	495.2	146.8	5.7	4.0	0.88	51.61	1.9576	400.1293
16668	1509402668	53.4596	-110.0252	1112.9	493.9	146.9	5.7	4.2	0.88	51.61	1.9580	400.1293
16669	1509402669	53.4589	-110.0243	1109.7	491.7	146.5	4.9	4.5	0.88	51.61	1.9671	398.1789
16670	1509402670	53.4583	-110.0234	1104.1	487.1	146.5	4.7	4.6	0.88	51.61	1.9676	399.4521
16671	1509402671	53.4576	-110.0225	1096.9	480.4	146.7	4.9	4.6	0.88	51.61	1.9671	399.5445
16672	1509402672	53.4569	-110.0216	1089.2	474.3	146.8	4.8	4.7	0.88	51.61	1.9721	399.9697
16673	1509402673	53.4562	-110.0207	1082.2	467.5	146.9	4.8	4.3	0.88	51.61	1.9762	399.5655
16674	1509402674	53.4555	-110.0199	1075.1	461.0	147.2	5.0	4.1	0.88	51.61	1.9809	400.0952
16675	1509402675	53.4548	-110.0190	1068.9	454.8	147.1	4.4	4.0	0.88	51.61	1.9819	398.7211
16676	1509402676	53.4541	-110.0181	1063.9	450.8	147.4	4.1	4.3	0.88	51.61	1.9772	399.7679
16677	1509402677	53.4534	-110.0172	1059.2	445.4	148.2	4.8	4.6	0.88	51.61	1.9718	399.2186
16678	1509402678	53.4527	-110.0163	1054.8	444.3	147.4	3.7	3.6	0.88	51.61	1.9714	399.8961
16679	1509402679	53.4520	-110.0155	1050.5	439.5	147.4	3.8	3.0	0.88	51.61	1.9698	399.2850
16680	1509402680	53.4513	-110.0147	1047.4	437.4	147.3	3.7	2.5	0.88	51.61	1.9689	399.5958
16681	1509402681	53.4506	-110.0138	1045.7	436.4	148.1	4.1	3.0	0.88	51.61	1.9693	398.7621
16682	1509402682	53.4499	-110.0130	1043.3	434.3	148.9	4.6	2.6	0.88	51.61	1.9715	400.2624
16683	1509402683	53.4492	-110.0122	1040.9	433.0	149.3	4.4	2.6	0.88	51.61	1.9686	399.1793
16684	1509402684	53.4485	-110.0114	1039.7	431.2	149.9	4.1	2.9	0.88	51.61	1.9661	399.1434
16685	1509402685	53.4478	-110.0107	1038.8	429.8	150.8	4.1	3.3	0.88	51.61	1.9635	399.9994
16686	1509402686	53.4471	-110.0099	1038.0	429.0	151.3	3.8	2.7	0.88	51.61	1.9636	399.6840
16687	1509402687	53.4464	-110.0092	1037.4	429.0	152.7	4.1	2.8	0.88	51.61	1.9599	399.7411
16688	1509402688	53.4457	-110.0085	1036.9	431.4	154.2	4.1	2.8	0.88	51.61	1.9571	399.3714
16689	1509402689	53.4450	-110.0078	1036.5	435.3	156.1	4.3	2.9	0.88	51.61	1.9565	400.3438
16690	1509402690	53.4443	-110.0072	1035.9	444.6	158.0	4.3	3.4	0.88	51.61	1.9569	399.4824
16691	1509402691	53.4436	-110.0067	1035.3	450.7	159.9	4.7	3.4	0.88	51.61	1.9570	400.4029
16692	1509402692	53.4428	-110.0061	1034.6	451.7	161.4	4.5	3.8	0.88	51.61	1.9590	400.1444
16693	1509402693	53.4421	-110.0056	1033.8	447.9	162.6	4.6	3.7	0.88	51.61	1.9555	400.1444
16694	1509402694	53.4414	-110.0052	1032.9	436.8	163.7	5.0	3.7	0.88	51.61	1.9548	397.7967
16695	1509402695	53.4406	-110.0047	1032.3	430.9	163.4	4.2	3.8	0.88	51.61	1.9553	400.0255
16696	1509402696	53.4399	-110.0043	1033.4	428.4	163.4	4.5	3.5	0.88	51.61	1.9553	396.4344
16697	1509402697	53.4392	-110.0038	1037.1	430.9	163.3	4.3	3.8	0.88	51.61	1.9564	399.9865
16698	1509402698	53.4385	-110.0034	1040.7	431.1	163.5	4.0	4.3	0.88	51.61	1.9567	398.8438
16699	1509402699	53.4378	-110.0029	1044.0	430.6	163.7	3.9	4.1	0.88	51.61	1.9550	398.4401
16700	1509402700	53.4371	-110.0025	1046.1	425.8	163.9	4.0	3.8	0.88	51.61	1.9578	397.3848
16701	1509402701	53.4364	-110.0021	1046.8	425.4	164.2	4.1	3.8	0.88	51.61	1.9590	399.8780
16702	1509402702	53.4358	-110.0017	1047.8	425.4	163.9	3.7	3.8	0.88	51.61	1.9594	399.4781
16703	1509402703	53.4352	-110.0014	1049.2	426.0	163.9	3.7	3.5	0.88	51.61	1.9624	399.4781
16704	1509402704	53.4346	-110.0010	1050.6	427.6	163.7	3.5	3.4	0.88	51.61	1.9605	399.9331
16705	1509402705	53.4340	-110.0006	1052.0	429.1	163.5	3.2	3.4	0.88	51.61	1.9607	399.5676
16706	1509402706	53.4334	-110.0003	1053.3	430.6	163.8	3.3	3.6	0.88	51.61	1.9622	399.2349
16707	1509402707	53.4328	-109.9999	1054.3	431.9	164.0	3.4	3.7	0.88	51.61	1.9617	399.2349
16708	1509402708	53.4322	-109.9996	1055.2	438.5	164.1	3.4	3.7	0.88	51.61	1.9613	399.2349
16709	1509402709	53.4316	-109.9992	1055.8	439.9	164.3	3.5	3.8	0.88	51.61	1.9608	399.2349
16710	1509402710	53.4310	-109.9989	1056.0	439.9	164.4	3.6	3.9	0.88	51.61	1.9604	399.8473
16711	1509402711	53.4304	-109.9985	1056.7	439.6	164.3	3.7	4.0	0.88	51.61	1.9575	398.0280
16712	1509402712	53.4298	-109.9981	1057.9	441.4	164.0	3.7	3.8	0.88	51.61	1.9560	399.3426
16713	1509402713	53.4292	-109.9978	1059.1	443.0	164.1	4.1	3.7	0.88	51.61	1.9554	399.9332
16714	1509402714	53.4286	-109.9974	1060.4	447.1	163.7	3.7	3.7	0.88	51.61	1.9542	399.5663
16715	1509402715	53.4284	-109.9973	1060.8	448.8	163.6	3.5	3.7	0.88	51.61	1.9536	399.5458
16716	1509402716	53.4283	-109.9972	1061.0	451.1	163.6	3.5	3.7	0.88	51.61	1.9533	398.1567
16717	1509402717	53.4282	-109.9972	1061.2	451.3	163.6	3.6	3.7	0.88	51.61	1.9529	399.7913
16718	1509402718	53.4280	-109.9970	1061.7	452.3	163.9	3.9	3.4	0.88	51.61	1.9538	399.8419
16719	1509402719	53.4273	-109.9966	1063.0	454.8	164.4	4.3	3.5	0.88	51.61	1.9546	400.0300
16720	1509402720	53.4266	-109.9962	1064.4	457.3	164.3	4.0	3.5	0.88	51.61	1.9563	397.8378
16721	1509402721	53.4259	-109.9958	1065.5	457.0	164.9	4.4	3.7	0.88	51.61	1.9589	400.8311
16722	1509402722	53.4252	-109.9954	1066.0	456.0	165.2	4.3	4.1	0.88	51.61	1.9618	399.2890
16723	1509402723	53.4245	-109.9950	1066.3	456.3	165.1	3.9	4.0	0.88	51.61	1.9578	399.0853
16724	1509402724	53.4238	-109.9946	1066.8	456.8	165.2	3.6	3.9	0.88	51.61	1.9563	399.2101
16725	1509402725	53.4232	-109.9942	1067.7	458.7	165.6	3.5	3.9	0.88	51.61	1.9570	399.3469
16726	1509402726	53.4225	-109.9939	1069.2	461.9	165.6	3.0	3.8	0.88	51.61	1.9584	399.3469
16727	1509402727	53.4218	-109.9935	1070.9	464.3	166.9	3.7	3.7	0.88	51.61	1.9566	398.6223
16728	1509402728	53.4211	-109.9931	1071.9	460.7	167.4	3.5	3.6	0.88	51.61	1.9581	399.8014
16729	1509402729	53.4204	-109.9928	1072.5	460.5	168.2	3.8	3.7	0.88	51.61	1.9574	400.0273
16730	1509402730	53.4196	-109.9925	1073.4	460.4	168.5	3.9	4.1	0.88	51.61	1.9560	399.9089
16731	1509402731	53.4189	-109.9922	1074.0	460.3	168.5	3.5	4.1	0.88	51.61	1.9551	399.9089
16732	1509402732	53.4182	-109.9919	1074.2	459.7	169.2	3.6	4.0	0.88	51.61	1.9506	398.7861
16733	1509402733	53.4175	-109.9916	1074.2	459.1	170.3	3.8	4.0	0.88	51.61	1.9524	398.7861
16734	1509402734	53.4168	-109.9913	1074.2	459.2	171.5	4.2	3.9	0.88	51.61	1.9519	399.2224
16735	1509402735	53.4161	-109.9910	1074.2	458.5	172.4	4.1	3.9	0.88	51.61	1.9531	400.2472
16736	1509402736	53.4154	-109.9908	1074.5	458.6	173.2	4.1	3.9	0.88	51.61	1.9558	397.9872
16737	1509402737	53.4148	-109.9906	1074.5	457.4	173.8	4.0	3.7	0.88	51.61	1.9551	400.2755
16738	1509402738	53.4142	-109.9905	1074.3	456.0	174.2	3.6	4.0	0.88	51.61	1.9552	399.0083
16739	1509402739	53.4136	-109.9903	1073.8	453.7	174.8	3.6	4.0	0.88	51.61	1.9543	400.0736
16740	1509402740	53.4130	-109.9902	1073.0	455.5	175.5	3.8	3.8	0.88	51.61	1.9541	399.7082
16741	1509402741	53.4123	-109.9900	1072.0	453.2	175.9	4.1	3.7	0.88	51.61	1.9509	398.8364
16742	1509402742	53.4117	-109.9899	1071.3	452.1	176.0	4.1	3.6	0.88	51.61	1.9498	399.1750
16743	1509402743	53.4111	-109.9897	1070.9	451.8	176.3	4.3	3.8	0.88	51.61	1.9470	399.3194
16744	1509402744	53.4105	-109.9896	1070.3	452.3	176.8	4.6	3.9	0.88	51.61	1.9461	398.5378
16745	1509402745	53.4098	-109.9895	1069.8	452.8	176.8	4.5	3.8	0.88	51.61	1.9471	398.8715
16746	1509402746	53.4092	-109.9893	1069.2	452.2	177.0	4.6	3.7	0.88	51.61	1.9424	397.7333
16747	1509402747	53.4086	-109.9892	1068.5	450.6	177.3	4.7	3.6	0.88	51.61	1.9418	397.7333
16748	1509402748	53.4079	-109.9891	1067.9	449.9	177.4	4.7	3.4	0.88	51.61	1.9435	398.3467
16749	1509402749	53.4073	-109.9890	1067.4	449.2	177.6	4.8	3.5	0.88	51.61	1.9463	400.5207
16750	1509402750	53.4067	-109.9889	1066.8	447.8	177.6	4.7	3.7	0.88	51.61	1.9501	399.0419
16751	1509402751	53.4060	-109.9887	1066.2	446.8	177.2	4.2	3.7	0.88	51.61	1.9506	399.7928
16752	1509402752	53.4054	-109.9886	1065.4	445.4	177.3	4.2	3.9	0.88	51.61	1.9521	400.0278
16753	1509402753	53.4047	-109.9885	1064.6	444.6	177.5	4.1	3.7	0.88	51.61	1.9532	397.4220
16754	1509402754	53.4041	-109.9884	1063.9	442.9	177.7	3.8	3.8	0.88	51.61	1.9529	399.3361
16755	1509402755	53.4035	-109.9883	1063.3	442.3	178.2	3.6	4.1	0.88	51.61	1.9531	398.2401
16756	1509402756	53.4028	-109.9882	1062.6	441.3	179.1	3.7	4.0	0.88	51.61	1.9582	399.5972
16757	1509402757	53.4022	-109.9882	1061.5	439.5	179.9	3.7	4.0	0.88	51.61	1.9596	400.0408
16758	1509402758	53.4015	-109.9881	1060.0	438.0	180.5	3.6	4.2	0.88	51.61	1.9538	399.7957
16759	1509402759	53.4009	-109.9881	1058.5	436.5	181.1	3.5	4.2	0.88	51.61	1.9525	400.1278
16760	1509402760	53.4003	-109.9881	1057.2	435.2	181.9	4.1	4.5	0.88	51.61	1.9531	399.5015
16761	1509402761	53.3996	-109.9880	1056.4	434.4	181.7	3.6	4.6	0.88	51.61	1.9516	399.3329
16762	1509402762	53.3990	-109.9880	1055.7	432.7	181.7	3.5	4.7	0.88	51.61	1.9513	399.8271
16763	1509402763	53.3983	-109.9880	1054.3	431.3	182.3	4.1	4.7	0.88	51.61	1.9532	399.6414
16764	1509402764	53.3977	-109.9880	1052.8	428.8	182.3	4.0	4.6	0.88	51.61	1.9542	399.2469
16765	1509402765	53.3970	-109.9880	1051.1	427.1	182.3	4.0	4.7	0.88	51.61	1.9524	399.5098
16766	1509402766	53.3964	-109.9880	1049.9	424.9	182.3	3.9	4.7	0.88	51.61	1.9519	399.9231
16767	1509402767	53.3957	-109.9879	1048.3	423.3	182.8	4.8	4.7	0.88	51.61	1.9515	399.9231
16768	1509402768	53.3951	-109.9879	1046.7	421.7	182.2	4.6	4.7	0.88	51.61	1.9511	399.9231
16769	1509402769	53.3945	-109.9879	1045.2	420.2	181.5	4.2	4.2	0.88	51.61	1.9507	399.9231
16770	1509402770	53.3938	-109.9879	1043.2	418.2	181.2	4.0	4.1	0.88	51.61	1.9526	397.5767
16771	1509402771	53.3932	-109.9878	1040.7	415.7	181.4	4.1	4.5	0.88	51.61	1.9589	398.5741
16772	1509402772	53.3925	-109.9878	1038.7	413.7	181.7	4.3	4.5	0.88	51.61	1.9580	399.8192
16773	1509402773	53.3919	-109.9878	1036.5	411.3	181.6	4.0	4.7	0.88	51.61	1.9607	399.7517
16774	1509402774	53.3912	-109.9877	1033.7	407.7	181.6	4.1	4.9	0.88	51.61	1.9616	398.6329
16775	1509402775	53.3910	-109.9877	1033.0	407.0	181.5	4.0	4.9	0.88	51.61	1.9617	399.8783
16776	1509402776	53.3909	-109.9877	1032.9	406.9	181.5	4.0	4.8	0.88	51.61	1.9629	400.3076
16777	1509402777	53.3908	-109.9877	1032.8	406.8	181.5	4.0	4.7	0.88	51.61	1.9626	400.5980
16778	1509402778	53.3906	-109.9877	1032.5	406.5	181.4	3.9	4.8	0.88	51.61	1.9622	399.0664
16779	1509402779	53.3898	-109.9877	1031.0	404.1	181.5	4.0	4.0	0.88	51.61	1.9645	399.7195
16780	1509402780	53.3891	-109.9876	1029.6	402.6	181.1	3.7	4.1	0.88	51.61	1.9621	400.1613
16781	1509402781	53.3883	-109.9876	1028.9	400.9	181.3	3.9	4.1	0.88	51.61	1.9639	400.5940
16782	1509402782	53.3876	-109.9876	1028.4	400.4	180.8	3.2	4.2	0.88	51.61	1.9631	399.7682
16783	1509402783	53.3869	-109.9875	1027.8	398.8	181.0	3.7	4.1	0.88	51.61	1.9620	399.5321
16784	1509402784	53.3862	-109.9875	1026.8	397.8	180.7	3.4	4.0	0.88	51.61	1.9653	399.3725
16785	1509402785	53.3854	-109.9874	1026.9	397.9	180.7	3.4	4.1	0.88	51.61	1.9658	399.8923
16786	1509402786	53.3847	-109.9874	1027.7	397.7	180.6	3.4	4.5	0.88	51.61	1.9620	399.4162
16787	1509402787	53.3840	-109.9873	1028.0	398.0	180.6	3.5	4.7	0.88	51.61	1.9611	399.1793
16788	1509402788	53.3833	-109.9873	1026.9	396.9	179.7	2.8	4.5	0.88	51.61	1.9606	399.3267
16789	1509402789	53.3826	-109.9872	1026.2	396.2	180.2	3.3	4.5	0.88	51.61	1.9598	399.3475
16790	1509402790	53.3819	-109.9872	1026.3	396.3	180.4	3.5	4.7	0.88	51.61	1.9584	399.6179
16791	1509402791	53.3812	-109.9871	1025.7	395.7	180.4	3.4	4.7	0.88	51.61	1.9547	399.9227
16792	1509402792	53.3805	-109.9871	1024.5	394.5	180.6	3.6	4.8	0.88	51.61	1.9564	398.7339
16793	1509402793	53.3799	-109.9870	1023.3	393.3	180.7	3.8	4.8	0.88	51.61	1.9575	399.2056
16794	1509402794	53.3792	-109.9870	1021.9	392.9	180.9	4.2	4.6	0.88	51.61	1.9613	399.5655
16795	1509402795	53.3785	-109.9869	1021.3	392.3	180.5	3.7	4.8	0.88	51.61	1.9593	399.5633
16796	1509402796	53.3779	-109.9869	1020.9	391.9	180.8	3.9	5.0	0.88	51.61	1.9623	400.1029
16797	1509402797	53.3774	-109.9868	1020.4	391.4	180.6	3.7	5.0	0.88	51.61	1.9609	400.1639
16798	1509402798	53.3768	-109.9868	1019.9	391.8	180.8	3.7	5.2	0.88	51.61	1.9529	399.2686
16799	1509402799	53.3763	-109.9867	1019.9	391.9	180.6	3.4	5.0	0.88	51.61	1.9540	399.2686
16800	1509402800	53.3757	-109.9867	1018.8	390.8	181.1	3.9	4.9	0.88	51.61	1.9564	399.4223
16801	1509402801	53.3751	-109.9866	1017.6	389.9	180.9	3.6	5.1	0.88	51.61	1.9713	400.0748
16802	1509402802	53.3746	-109.9866	1016.8	389.8	180.5	3.2	4.8	0.88	51.61	1.9728	398.8554
16803	1509402803	53.3740	-109.9866	1015.6	388.6	179.9	2.6	4.5	0.88	51.61	1.9735	400.4890
16804	1509402804	53.3735	-109.9865	1015.1	388.1	179.6	2.4	4.3	0.88	51.61	1.9740	400.2736
16805	1509402805	53.3729	-109.9865	1014.3	388.3	179.9	2.8	4.6	0.88	51.61	1.9712	399.3501
16806	1509402806	53.3724	-109.9864	1013.7	387.7	179.6	2.4	4.8	0.88	51.61	1.9707	400.5491
16807	1509402807	53.3718	-109.9864	1013.0	388.0	179.7	2.5	4.7	0.88	51.61	1.9738	398.3586
16808	1509402808	53.3713	-109.9864	1012.8	387.8	180.1	2.8	4.8	0.88	51.61	1.9714	400.4334
16809	1509402809	53.3708	-109.9863	1012.5	386.6	180.0	2.6	4.7	0.88	51.61	1.9674	400.3078
16810	1509402810	53.3702	-109.9863	1011.8	383.4	180.3	3.0	4.4	0.88	51.61	1.9665	399.8668
16811	1509402811	53.3697	-109.9862	1009.5	378.5	180.4	3.0	4.4	0.88	51.61	1.9629	400.1571
16812	1509402812	53.3692	-109.9862	1007.1	375.0	180.3	2.8	4.4	0.88	51.61	1.9601	398.4373
16813	1509402813	53.3686	-109.9862	1006.0	375.0	180.6	3.1	5.1	0.88	51.61	1.9595	399.1805
16814	1509402814	53.3681	-109.9861	1005.1	378.3	181.0	3.5	4.7	0.88	51.61	1.9614	399.6807
16815	1509402815	53.3676	-109.9861	1004.0	379.9	180.5	3.2	4.9	0.88	51.61	1.9627	400.0987
16816	1509402816	53.3670	-109.9860	1002.2	379.9	180.4	3.4	4.9	0.88	51.61	1.9683	399.9459
16817	1509402817	53.3665	-109.9860	1000.0	378.1	179.9	3.0	5.0	0.88	51.61	1.9660	400.6695
16818	1509402818	53.3660	-109.9860	998.3	376.4	179.2	2.4	4.6	0.88	51.61	1.9660	399.6819
16819	1509402819	53.3655	-109.9859	996.4	374.5	179.4	2.6	4.6	0.88	51.61	1.9652	399.8145
16820	1509402820	53.3649	-109.9859	994.5	371.0	179.5	2.7	4.5	0.88	51.61	1.9646	400.3082
16821	1509402821	53.3644	-109.9858	992.8	369.1	179.8	3.1	4.7	0.88	51.61	1.9657	399.7356
16822	1509402822	53.3639	-109.9858	991.6	368.2	179.7	3.2	4.8	0.88	51.61	1.9650	398.2140
16823	1509402823	53.3634	-109.9857	991.3	368.9	179.1	2.8	5.2	0.88	51.61	1.9650	399.6415
16824	1509402824	53.3628	-109.9856	991.2	367.2	179.0	2.9	5.3	0.88	51.61	1.9596	399.6225
16825	1509402825	53.3623	-109.9856	989.9	364.9	178.6	2.7	5.1	0.88	51.61	1.9613	399.6225
16826	1509402826	53.3618	-109.9855	986.6	361.3	178.6	3.1	4.9	0.88	51.61	1.9588	399.1494
16827	1509402827	53.3613	-109.9854	981.3	355.3	178.4	3.0	4.9	0.88	51.61	1.9589	399.1739
16828	1509402828	53.3608	-109.9854	975.4	349.4	178.0	2.9	5.0	0.88	51.61	1.9590	399.1739
16829	1509402829	53.3603	-109.9853	968.8	342.8	178.2	3.0	5.0	0.88	51.61	1.9591	399.1739
16830	1509402830	53.3598	-109.9852	962.2	336.2	178.2	2.9	4.9	0.88	51.61	1.9592	399.0788
16831	1509402831	53.3592	-109.9851	957.4	331.7	178.4	3.0	5.1	0.88	51.61	1.9655	400.1705
16832	1509402832	53.3587	-109.9851	954.9	329.9	178.7	3.0	5.2	0.88	51.61	1.9715	400.1218
16833	1509402833	53.3582	-109.9850	953.7	328.7	178.5	2.7	5.2	0.88	51.61	1.9745	400.1455
16834	1509402834	53.3577	-109.9849	952.6	328.6	178.6	2.8	5.4	0.88	51.61	1.9758	399.3348
16835	1509402835	53.3575	-109.9849	952.3	328.3	178.6	2.8	5.5	0.88	51.61	1.9763	400.2475
16836	1509402836	53.3575	-109.9849	952.2	328.2	178.6	2.7	5.5	0.88	51.61	1.9794	400.5349
16837	1509402837	53.3574	-109.9849	952.1	328.1	178.5	2.7	5.5	0.88	51.61	1.9779	400.2213
16838	1509402838	53.3572	-109.9849	952.1	328.1	178.4	2.6	3.9	0.88	51.61	1.9752	401.0937
16839	1509402839	53.3566	-109.9848	952.3	328.3	178.5	2.6	3.6	0.88	51.61	1.9798	400.9302
16840	1509402840	53.3560	-109.9847	952.3	329.5	178.5	2.5	3.8	0.88	51.61	1.9814	400.7678
16841	1509402841	53.3555	-109.9847	951.7	330.7	178.4	2.5	3.9	0.88	51.61	1.9862	399.3950
16842	1509402842	53.3549	-109.9846	950.8	329.9	178.6	2.5	4.0	0.88	51.61	1.9855	399.7744
16843	1509402843	53.3544	-109.9845	949.8	326.4	178.7	2.4	4.5	0.88	51.61	1.9876	400.4624
16844	1509402844	53.3538	-109.9845	948.4	323.4	178.0	1.6	4.3	0.88	51.61	1.9877	400.9362
16845	1509402845	53.3533	-109.9844	946.9	321.9	178.1	1.8	4.2	0.88	51.61	1.9875	399.8575
16846	1509402846	53.3528	-109.9843	945.3	320.5	178.6	2.0	4.7	0.88	51.61	1.9903	400.1373
16847	1509402847	53.3522	-109.9843	944.7	319.7	178.4	1.7	4.6	0.88	51.61	1.9899	399.7863
16848	1509402848	53.3517	-109.9842	944.1	319.1	178.4	1.8	4.6	0.88	51.61	1.9927	398.2339
16849	1509402849	53.3512	-109.9842	943.3	318.3	178.0	1.6	4.5	0.88	51.61	1.9929	400.6976
16850	1509402850	53.3507	-109.9841	942.7	317.7	177.8	1.7	4.5	0.88	51.61	1.9958	399.6305
16851	1509402851	53.3501	-109.9840	942.4	316.3	177.6	1.7	4.9	0.88	51.61	1.9999	400.8451
16852	1509402852	53.3496	-109.9840	941.6	315.6	176.8	1.2	4.8	0.88	51.61	1.9964	398.4748
16853	1509402853	53.3491	-109.9839	940.0	314.0	177.2	1.6	4.8	0.88	51.61	1.9919	399.3034
16854	1509402854	53.3486	-109.9838	935.1	309.1	177.2	1.7	5.0	0.88	51.61	1.9978	401.0502
16855	1509402855	53.3481	-109.9837	928.2	302.2	177.3	1.6	4.5	0.88	51.61	2.0023	401.0502
16856	1509402856	53.3476	-109.9837	923.0	297.0	178.3	1.6	4.4	0.88	51.61	2.0035	402.4969
16857	1509402857	53.3472	-109.9836	920.6	293.6	179.8	1.9	4.6	0.88	51.61	2.0010	399.2999
16858	1509402858	53.3467	-109.9836	919.5	292.5	180.7	1.8	5.0	0.88	51.61	2.0021	401.5336
16859	1509402859	53.3463	-109.9836	919.0	292.0	181.7	1.8	5.1	0.88	51.61	2.0047	399.8899
16860	1509402860	53.3458	-109.9836	918.7	291.7	182.2	1.4	4.9	0.88	51.61	2.0026	400.7867
16861	1509402861	53.3454	-109.9836	918.3	291.3	182.6	1.1	5.0	0.88	51.61	2.0020	400.5616
16862	1509402862	53.3450	-109.9836	918.1	290.1	183.8	1.3	5.0	0.88	51.61	2.0026	402.1961
16863	1509402863	53.3445	-109.9837	917.9	289.9	184.3	1.1	5.0	0.88	51.61	2.0033	401.4455
16864	1509402864	53.3441	-109.9837	917.0	289.0	184.6	1.0	5.2	0.88	51.61	2.0048	401.6926
16865	1509402865	53.3437	-109.9838	915.9	287.9	185.3	1.1	5.1	0.88	51.61	2.0026	402.5743
16866	1509402866	53.3432	-109.9838	915.6	287.6	185.7	0.9	4.9	0.88	51.61	2.0007	402.2184
16867	1509402867	53.3428	-109.9839	915.6	287.6	185.9	0.7	5.1	0.88	51.61	2.0003	401.6974
16868	1509402868	53.3424	-109.9840	915.5	286.5	186.1	0.5	5.1	0.88	51.61	2.0003	401.6974
16869	1509402869	53.3420	-109.9841	914.9	285.9	186.0	0.3	4.7	0.88	51.61	2.0003	401.6974
16870	1509402870	53.3416	-109.9841	914.1	285.1	186.0	0.2	4.7	0.88	51.61	2.0003	401.6974
16871	1509402871	53.3411	-109.9842	913.2	284.2	185.5	-0.5	5.0	0.88	51.61	2.0003	401.6974
16872	1509402872	53.3407	-109.9843	911.7	281.7	186.7	0.2	4.7	0.88	51.61	2.0003	401.6974
16873	1509402873	53.3403	-109.9844	910.5	280.5	187.2	0.1	4.9	0.88	51.61	2.0003	401.6974
16874	1509402874	53.3399	-109.9845	909.7	279.7	186.7	-0.4	4.8	0.88	51.61	2.0003	401.6974
16875	1509402875	53.3394	-109.9846	909.4	279.4	187.3	0.3	4.7	0.88	51.61	2.0003	401.6974
16876	1509402876	53.3390	-109.9847	909.3	279.3	187.6	0.6	4.7	0.88	51.61	2.0003	401.6974
16877	1509402877	53.3386	-109.9848	909.7	278.0	187.1	0.3	4.7	0.88	51.61	2.0003	401.6974
16878	1509402878	53.3382	-109.9849	910.0	278.4	187.3	0.5	4.6	0.88	51.61	2.0003	401.6974
16879	1509402879	53.3377	-109.9850	910.4	278.7	187.9	0.8	4.5	0.88	51.61	2.0003	401.6974
16880	1509402880	53.3373	-109.9851	910.5	279.4	188.0	0.6	4.3	0.88	51.61	2.0003	401.6974
16881	1509402881	53.3369	-109.9852	910.3	280.7	188.3	0.2	4.2	0.88	51.61	2.0003	401.6974
16882	1509402882	53.3364	-109.9853	910.5	281.2	189.0	0.5	4.6	0.88	51.61	2.0003	401.6974
16883	1509402883	53.3360	-109.9854	910.6	281.6	190.8	1.6	4.3	0.88	51.61	2.0003	401.6974
16884	1509402884	53.3356	-109.9855	911.0	281.3	191.9	2.3	4.7	0.88	51.61	2.0003	401.6974
16885	1509402885	53.3351	-109.9857	911.5	281.8	191.9	1.9	4.8	0.88	51.61	2.0003	401.6974
16886	1509402886	53.3347	-109.9858	912.0	282.3	192.4	2.4	5.2	0.88	51.61	2.0003	401.6974
16887	1509402887	53.3343	-109.9860	912.5	284.3	192.9	2.5	5.2	0.88	51.61	2.0003	401.6974
16888	1509402888	53.3339	-109.9861	912.7	284.6	192.7	2.3	4.8	0.88	51.61	2.0003	401.6974
16889	1509402889	53.3334	-109.9862	912.9	285.6	191.9	1.6	4.4	0.88	51.61	2.0003	401.6974
16890	1509402890	53.3330	-109.9864	913.3	285.3	191.6	1.3	4.2	0.88	51.61	2.0003	401.6974
16891	1509402891	53.3326	-109.9865	913.7	285.2	191.0	0.8	4.0	0.88	51.61	2.0003	401.6974
16892	1509402892	53.3321	-109.9867	914.3	285.4	190.5	0.6	4.3	0.88	51.61	2.0003	401.6974
16893	1509402893	53.3317	-109.9868	915.2	285.4	190.1	0.6	4.3	0.88	51.61	2.0003	401.6974
16894	1509402894	53.3313	-109.9869	915.7	285.7	190.7	1.4	4.5	0.88	51.61	2.0003	401.6974
16895	1509402895	53.3311	-109.9870	915.9	284.9	191.0	1.7	4.6	0.88	51.61	2.0003	401.6974
16896	1509402896	53.3309	-109.9870	916.2	285.1	191.0	1.6	4.6	0.88	51.61	2.0003	401.6974
